
Distance (Route):
Temperature : 13.7°C
Humidity : 87.5%
Pressure : 1005.8hPa| Receiver | Frames | First received | Last received |
|---|---|---|---|
| BIOWL1-15 | 627 | 2026-09-02 04:56:32 | 2026-09-02 06:55:05 |
| DM0DOS-11 | 430 | 2026-09-02 04:56:57 | 2026-09-02 06:55:40 |
| DL1XH-west | 383 | 2026-09-02 05:35:12 | 2026-09-02 06:45:02 |
| DL1XH1-15 | 290 | 2026-09-02 05:35:15 | 2026-09-02 06:44:19 |
| HSKMA3-T | 171 | 2026-09-02 05:33:48 | 2026-09-02 06:45:09 |
| DO3MHA-11 | 169 | 2026-09-02 05:09:09 | 2026-09-02 06:54:13 |
| AA1-15 | 123 | 2026-09-02 06:11:31 | 2026-09-02 06:38:20 |
| DB0UT-7 | 112 | 2026-09-02 04:37:05 | 2026-09-02 07:00:27 |
| DB0UT-9 | 106 | 2026-09-02 04:36:51 | 2026-09-02 07:00:18 |
| DJ2DS-15 | 96 | 2026-09-02 05:17:19 | 2026-09-02 06:47:24 |
| DB0ND-19 | 86 | 2026-09-02 04:47:04 | 2026-09-02 07:01:02 |
| DF8AY | 81 | 2026-09-02 06:21:11 | 2026-09-02 06:38:44 |
| CB1BUN | 75 | 2026-09-02 04:47:10 | 2026-09-02 06:54:52 |
| DF7PN | 75 | 2026-09-02 04:49:52 | 2026-09-02 07:00:19 |
| DM3KS-11 | 74 | 2026-09-02 04:47:36 | 2026-09-02 06:52:51 |
| HEMX73-11 | 72 | 2026-09-02 04:47:15 | 2026-09-02 06:54:19 |
| DK5PH-5 | 71 | 2026-09-02 04:52:09 | 2026-09-02 06:59:43 |
| DL1XH-15 | 68 | 2026-09-02 06:06:36 | 2026-09-02 06:35:10 |
| DF1GD-15 | 60 | 2026-09-02 04:55:44 | 2026-09-02 06:58:30 |
| NBG1-10 | 52 | 2026-09-02 05:04:13 | 2026-09-02 06:57:31 |
| DL9PN | 49 | 2026-09-02 04:47:36 | 2026-09-02 06:50:51 |
| DM7RM-13 | 49 | 2026-09-02 05:09:24 | 2026-09-02 06:58:15 |
| DL0LBS | 47 | 2026-09-02 05:02:19 | 2026-09-02 06:57:38 |
| DL8DAS-14 | 46 | 2026-09-02 05:03:17 | 2026-09-02 06:49:19 |
| DJ2KF-10 | 44 | 2026-09-02 05:19:08 | 2026-09-02 06:35:19 |
| DO1YAY-16 | 41 | 2026-09-02 04:59:31 | 2026-09-02 06:44:05 |
| DL3AQ-11 | 41 | 2026-09-02 05:47:28 | 2026-09-02 06:42:47 |
| BIOWL9-15 | 40 | 2026-09-02 05:01:59 | 2026-09-02 06:55:17 |
| DF3TZ-5 | 40 | 2026-09-02 05:09:08 | 2026-09-02 06:55:43 |
| DL8DAS-15 | 40 | 2026-09-02 05:11:01 | 2026-09-02 06:46:29 |
| IW2NTF | 35 | 2026-09-02 06:26:00 | 2026-09-02 06:37:35 |
| DK7TD | 32 | 2026-09-02 05:27:06 | 2026-09-02 06:31:05 |
| DD1CC8 | 28 | 2026-09-02 05:35:02 | 2026-09-02 06:47:30 |
| AU51GT2 | 27 | 2026-09-02 05:15:19 | 2026-09-02 06:45:18 |
| DL4BBY-15 | 27 | 2026-09-02 05:21:42 | 2026-09-02 06:44:03 |
| DL1ZP-14 | 26 | 2026-09-02 04:49:33 | 2026-09-02 06:59:45 |
| BIOWL7-15 | 25 | 2026-09-02 04:57:39 | 2026-09-02 06:54:33 |
| DN1GJH-1 | 24 | 2026-09-02 05:23:58 | 2026-09-02 06:45:50 |
| DJTTGO | 24 | 2026-09-02 05:38:48 | 2026-09-02 06:46:09 |
| SFWM-10 | 23 | 2026-09-02 05:25:15 | 2026-09-02 06:49:23 |
| SONCRA | 22 | 2026-09-02 05:50:39 | 2026-09-02 06:41:53 |
| GOEST3-10 | 22 | 2026-09-02 06:22:37 | 2026-09-02 06:37:26 |
| DH7VM-15 | 21 | 2026-09-02 05:04:29 | 2026-09-02 06:56:16 |
| DL1NUX | 19 | 2026-09-02 05:28:26 | 2026-09-02 05:36:49 |
| SSTOLZ84 | 12 | 2026-09-02 05:25:47 | 2026-09-02 06:41:21 |
| DF2AP-13 | 12 | 2026-09-02 06:00:47 | 2026-09-02 06:44:06 |
| DO2KSM | 11 | 2026-09-02 05:30:09 | 2026-09-02 06:00:07 |
| AM1SDL-15 | 11 | 2026-09-02 05:45:41 | 2026-09-02 05:54:21 |
| DL6DJ-15 | 11 | 2026-09-02 06:04:29 | 2026-09-02 06:37:07 |
| HTAHTA | 7 | 2026-09-02 05:37:07 | 2026-09-02 06:42:50 |
| DD1CC2-15 | 7 | 2026-09-02 06:15:22 | 2026-09-02 06:41:12 |
| SONDE2-11 | 5 | 2026-09-02 06:18:00 | 2026-09-02 06:39:12 |
| KANTATE | 5 | 2026-09-02 06:26:36 | 2026-09-02 06:55:32 |
| OE5DRO-10 | 5 | 2026-09-02 06:30:53 | 2026-09-02 06:36:26 |
| SO1NDE-10 | 4 | 2026-09-02 05:31:39 | 2026-09-02 05:36:13 |
| EDDB2-12 | 4 | 2026-09-02 06:19:20 | 2026-09-02 06:31:14 |
| DL1CLM-18 | 3 | 2026-09-02 05:48:27 | 2026-09-02 06:40:41 |
| AZAK | 3 | 2026-09-02 06:11:37 | 2026-09-02 06:17:27 |
| DB0NH | 3 | 2026-09-02 06:14:30 | 2026-09-02 06:24:01 |
| DG1MJG | 2 | 2026-09-02 06:30:48 | 2026-09-02 06:33:20 |
| EDDB2-11 | 2 | 2026-09-02 06:32:33 | 2026-09-02 06:36:10 |
| DL8OAI-8 | 2 | 2026-09-02 06:39:21 | 2026-09-02 06:39:42 |
| D01LWL | 1 | 2026-09-02 06:30:37 | 2026-09-02 06:30:37 |
| DC6BW-12 | 1 | 2026-09-02 06:31:29 | 2026-09-02 06:31:29 |
| DO9LL-15 | 1 | 2026-09-02 06:34:56 | 2026-09-02 06:34:56 |
| DO3DL | 1 | 2026-09-02 06:45:30 | 2026-09-02 06:45:30 |
| Receiver | Date | Latitude | Longitude | Direction | Speed | Altitude | Climb | Temperature | Humidity | Pressure | Voltage | Killtimer | Uptime | BKT | XDATA |
|---|---|---|---|---|---|---|---|---|---|---|---|---|---|---|---|
| DB0ND-19 | 2026-09-02 07:01:02 | 49.58242 | 8.49726 | 197° | 2km/h | 175m | -14.5m/s | 13.7°C | 87.5% | 1005.8hPa | 2.7V | 00:00:00 | 00:00:00 | 00:00:00 | |
| DB0ND-19 | 2026-09-02 07:00:31 | 49.58238 | 8.49720 | 46° | 2km/h | 315m | -14.8m/s | 16.6°C | 67.1% | 988.7hPa | 2.7V | 00:00:00 | 00:00:00 | 00:00:00 | |
| DB0UT-7 | 2026-09-02 07:00:27 | 49.58236 | 8.49717 | 75° | 4km/h | 358m | -14.1m/s | 16.3°C | 67.9% | 983.8hPa | 2.7V | 02:46:00 | 02:29:27 | 00:00:00 | |
| DB0UT-7 | 2026-09-02 07:00:22 | 49.58235 | 8.49710 | 61° | 5km/h | 427m | -14.9m/s | 17.2°C | 54.7% | 975.8hPa | 2.7V | 00:00:00 | 00:00:00 | 00:00:00 | |
| DF7PN | 2026-09-02 07:00:19 | 49.58233 | 8.49707 | 21° | 5km/h | 469m | -15.2m/s | 17.6°C | 52.2% | 970.8hPa | 2.7V | 00:00:00 | 00:00:00 | 00:00:00 | |
| DB0UT-9 | 2026-09-02 07:00:18 | 49.58233 | 8.49707 | 23° | 5km/h | 470m | -15.2m/s | 17.6°C | 52.2% | 970.8hPa | 2.7V | 02:47:00 | 00:00:00 | 00:00:00 | |
| DB0UT-7 | 2026-09-02 07:00:16 | 49.58230 | 8.49703 | 14° | 5km/h | 513m | -15.0m/s | 17.4°C | 51.7% | 966.1hPa | 2.7V | 00:00:00 | 02:29:16 | 00:00:00 | |
| DB0UT-7 | 2026-09-02 07:00:11 | 49.58224 | 8.49697 | 52° | 9km/h | 588m | -14.5m/s | 17.1°C | 54.5% | 957.6hPa | 2.7V | 02:47:00 | 00:00:00 | 00:00:00 | |
| DB0UT-7 | 2026-09-02 07:00:06 | 49.58221 | 8.49681 | 87° | 11km/h | 664m | -15.4m/s | 16.7°C | 55.7% | 949.0hPa | 2.7V | 00:00:00 | 02:29:06 | 00:00:00 | |
| DB0ND-19 | 2026-09-02 07:00:00 | 49.58221 | 8.49652 | 90° | 9km/h | 764m | -13.9m/s | 16.0°C | 61.2% | 937.8hPa | 2.7V | 00:00:00 | 00:00:00 | 00:00:00 | |
| DF7PN | 2026-09-02 06:59:48 | 49.58210 | 8.49617 | 35° | 11km/h | 922m | -14.8m/s | 14.7°C | 65.6% | 920.6hPa | 2.7V | 00:00:00 | 00:00:00 | 00:00:00 | |
| DB0UT-7 | 2026-09-02 06:59:46 | 49.58204 | 8.49611 | 33° | 11km/h | 952m | -15.1m/s | 14.4°C | 68.7% | 917.5hPa | 2.7V | 00:00:00 | 02:28:46 | 00:00:00 | |
| DL1ZP-14 | 2026-09-02 06:59:45 | 49.58199 | 8.49606 | 31° | 11km/h | 982m | -15.0m/s | 14.2°C | 73.2% | 914.3hPa | 2.7V | 00:00:00 | 00:00:00 | 00:00:00 | |
| DK5PH-5 | 2026-09-02 06:59:43 | 49.58197 | 8.49604 | 31° | 13km/h | 997m | -14.7m/s | 14.0°C | 72.6% | 912.4hPa | 2.7V | 00:00:00 | 02:28:43 | 00:00:00 | |
| DB0UT-7 | 2026-09-02 06:59:41 | 49.58192 | 8.49597 | 54° | 15km/h | 1027m | -15.0m/s | 13.8°C | 74.5% | 909.4hPa | 2.7V | 02:47:00 | 00:00:00 | 00:00:00 | |
| DB0UT-9 | 2026-09-02 06:59:37 | 49.58186 | 8.49584 | 53° | 13km/h | 1071m | -14.1m/s | 13.5°C | 75.4% | 904.6hPa | 2.7V | 02:48:00 | 00:00:00 | 00:00:00 | |
| DK5PH-5 | 2026-09-02 06:59:34 | 49.58178 | 8.49566 | 68° | 15km/h | 1127m | -14.3m/s | 13.1°C | 72.2% | 898.7hPa | 2.7V | 02:47:00 | 02:28:34 | 00:00:00 | |
| DB0UT-7 | 2026-09-02 06:59:31 | 49.58175 | 8.49549 | 73° | 16km/h | 1170m | -14.6m/s | 12.8°C | 73.3% | 893.9hPa | 2.6V | 00:00:00 | 02:28:31 | 00:00:00 | |
| DB0ND-19 | 2026-09-02 06:59:29 | 49.58171 | 8.49530 | 69° | 15km/h | 1213m | -15.2m/s | 12.5°C | 74.5% | 889.3hPa | 2.6V | 00:00:00 | 00:00:00 | 00:00:00 | |
| DK5PH-5 | 2026-09-02 06:59:24 | 49.58165 | 8.49508 | 76° | 18km/h | 1269m | -14.2m/s | 12.0°C | 75.9% | 883.4hPa | 2.6V | 00:00:00 | 02:28:24 | 00:00:00 | |
| DB0UT-7 | 2026-09-02 06:59:21 | 49.58162 | 8.49487 | 80° | 18km/h | 1310m | -13.9m/s | 11.6°C | 77.2% | 878.9hPa | 2.6V | 00:00:00 | 00:00:00 | 00:00:00 | |
| DF7PN | 2026-09-02 06:59:17 | 49.58160 | 8.49460 | 85° | 15km/h | 1366m | -15.1m/s | 11.2°C | 78.9% | 873.2hPa | 2.6V | 00:00:00 | 00:00:00 | 00:00:00 | |
| DB0UT-9 | 2026-09-02 06:59:16 | 49.58160 | 8.49460 | 86° | 16km/h | 1367m | -15.1m/s | 11.2°C | 78.9% | 873.2hPa | 2.6V | 02:48:00 | 00:00:00 | 00:00:00 | |
| DK5PH-5 | 2026-09-02 06:59:14 | 49.58158 | 8.49439 | 90° | 20km/h | 1409m | -14.4m/s | 10.7°C | 80.3% | 868.9hPa | 2.6V | 00:00:00 | 02:28:14 | 00:00:00 | |
| DL1ZP-14 | 2026-09-02 06:59:14 | 49.58158 | 8.49431 | 86° | 20km/h | 1423m | -14.4m/s | 10.7°C | 80.4% | 867.0hPa | 2.6V | 00:00:00 | 00:00:00 | 00:00:00 | |
| DB0UT-7 | 2026-09-02 06:59:11 | 49.58156 | 8.49415 | 84° | 20km/h | 1451m | -14.7m/s | 10.4°C | 81.3% | 864.2hPa | 2.7V | 02:48:00 | 02:28:11 | 00:00:00 | |
| DK5PH-5 | 2026-09-02 06:59:04 | 49.58149 | 8.49359 | 71° | 22km/h | 1555m | -15.5m/s | 9.5°C | 84.7% | 853.4hPa | 2.7V | 02:48:00 | 02:28:04 | 00:00:00 | |
| DB0ND-19 | 2026-09-02 06:58:58 | 49.58136 | 8.49305 | 73° | 24km/h | 1658m | -15.3m/s | 8.6°C | 91.7% | 843.1hPa | 2.6V | 00:00:00 | 00:00:00 | 00:00:00 | |
| DF7PN | 2026-09-02 06:58:46 | 49.58109 | 8.49211 | 66° | 26km/h | 1817m | -14.9m/s | 7.4°C | 93.6% | 826.9hPa | 2.6V | 00:00:00 | 00:00:00 | 00:00:00 | |
| DK5PH-5 | 2026-09-02 06:58:44 | 49.58103 | 8.49192 | 59° | 31km/h | 1847m | -15.2m/s | 7.1°C | 95.3% | 824.0hPa | 2.6V | 00:00:00 | 02:27:44 | 00:00:00 | |
| DL1ZP-14 | 2026-09-02 06:58:44 | 49.58097 | 8.49174 | 69° | 29km/h | 1876m | -14.8m/s | 7.0°C | 95.3% | 821.0hPa | 2.6V | 00:00:00 | 00:00:00 | 00:00:00 | |
| DB0UT-7 | 2026-09-02 06:58:41 | 49.58093 | 8.49163 | 63° | 35km/h | 1891m | -15.5m/s | 6.9°C | 96.3% | 819.4hPa | 2.6V | 02:48:00 | 00:00:00 | 00:00:00 | |
| DB0UT-9 | 2026-09-02 06:58:35 | 49.58078 | 8.49105 | 70° | 35km/h | 1964m | -15.3m/s | 6.5°C | 97.9% | 812.2hPa | 2.7V | 02:49:00 | 00:00:00 | 00:00:00 | |
| DK5PH-5 | 2026-09-02 06:58:34 | 49.58072 | 8.49078 | 68° | 40km/h | 1994m | -16.3m/s | 6.2°C | 99.6% | 809.4hPa | 2.7V | 02:48:00 | 02:27:34 | 00:00:00 | |
| DB0UT-7 | 2026-09-02 06:58:31 | 49.58062 | 8.49037 | 71° | 40km/h | 2040m | -15.8m/s | 6.0°C | 98.4% | 804.9hPa | 2.6V | 00:00:00 | 02:27:31 | 00:00:00 | |
| DF1GD-15 | 2026-09-02 06:58:30 | 49.58062 | 8.49037 | 71° | 42km/h | 2040m | -15.8m/s | 6.1°C | 97.9% | 804.9hPa | 2.6V | 02:49:00 | 00:00:00 | 00:00:00 | |
| DB0ND-19 | 2026-09-02 06:58:27 | 49.58047 | 8.48966 | 73° | 42km/h | 2114m | -15.7m/s | 5.7°C | 94.2% | 797.7hPa | 2.6V | 00:00:00 | 00:00:00 | 00:00:00 | |
| DM7RM-13 | 2026-09-02 06:58:15 | 49.58010 | 8.48798 | 71° | 44km/h | 2275m | -14.8m/s | 4.5°C | 92.8% | 782.0hPa | 2.6V | 00:00:00 | 00:00:00 | 00:00:00 | |
| DB0UT-9 | 2026-09-02 06:58:14 | 49.58010 | 8.48798 | 71° | 44km/h | 2275m | -14.8m/s | 4.5°C | 92.8% | 782.0hPa | 2.6V | 02:49:00 | 00:00:00 | 00:00:00 | |
| DB0UT-7 | 2026-09-02 06:58:11 | 49.57995 | 8.48738 | 70° | 37km/h | 2331m | -14.7m/s | 4.0°C | 96.4% | 776.8hPa | 2.6V | 00:00:00 | 00:00:00 | 00:00:00 | |
| DF1GD-15 | 2026-09-02 06:58:09 | 49.57991 | 8.48724 | 68° | 37km/h | 2345m | -14.6m/s | 3.9°C | 96.0% | 775.4hPa | 2.6V | 02:49:00 | 00:00:00 | 00:00:00 | |
| DB0ND-19 | 2026-09-02 06:57:56 | 49.57930 | 8.48527 | 64° | 37km/h | 2562m | -15.2m/s | 4.0°C | 50.8% | 754.8hPa | 2.6V | 00:00:00 | 00:00:00 | 00:00:00 | |
| DK5PH-5 | 2026-09-02 06:57:55 | 49.57930 | 8.48527 | 65° | 38km/h | 2562m | -15.2m/s | 4.0°C | 51.2% | 754.8hPa | 2.6V | 00:00:00 | 02:26:55 | 00:00:00 | |
| DB0UT-9 | 2026-09-02 06:57:53 | 49.57925 | 8.48514 | 58° | 37km/h | 2577m | -15.4m/s | 3.9°C | 52.1% | 753.6hPa | 2.6V | 02:49:00 | 00:00:00 | 00:00:00 | |
| DB0UT-7 | 2026-09-02 06:57:51 | 49.57912 | 8.48476 | 60° | 38km/h | 2622m | -15.3m/s | 3.6°C | 50.3% | 749.4hPa | 2.6V | 02:49:00 | 02:26:51 | 00:00:00 | |
| DF1GD-15 | 2026-09-02 06:57:48 | 49.57904 | 8.48449 | 66° | 38km/h | 2653m | -16.2m/s | 3.5°C | 48.8% | 746.6hPa | 2.6V | 02:49:00 | 00:00:00 | 00:00:00 | |
| DF7PN | 2026-09-02 06:57:44 | 49.57881 | 8.48365 | 68° | 38km/h | 2745m | -16.3m/s | 3.2°C | 45.6% | 738.3hPa | 2.6V | 00:00:00 | 00:00:00 | 00:00:00 | |
| DL1ZP-14 | 2026-09-02 06:57:41 | 49.57870 | 8.48324 | 68° | 37km/h | 2792m | -15.5m/s | 3.1°C | 42.1% | 734.1hPa | 2.6V | 00:00:00 | 00:00:00 | 00:00:00 | |
| DL0LBS | 2026-09-02 06:57:38 | 49.57867 | 8.48310 | 78° | 37km/h | 2807m | -15.8m/s | 3.0°C | 42.1% | 732.5hPa | 2.6V | 02:49:00 | 00:00:00 | 00:00:00 | |
| DK5PH-5 | 2026-09-02 06:57:35 | 49.57856 | 8.48255 | 70° | 44km/h | 2868m | -14.6m/s | 2.8°C | 41.2% | 726.9hPa | 2.6V | 02:49:00 | 02:26:35 | 00:00:00 | |
| DB0UT-9 | 2026-09-02 06:57:32 | 49.57849 | 8.48227 | 73° | 38km/h | 2896m | -13.9m/s | 2.8°C | 39.0% | 724.3hPa | 2.7V | 02:49:00 | 00:00:00 | 00:00:00 | |
| NBG1-10 | 2026-09-02 06:57:31 | 49.57843 | 8.48199 | 70° | 46km/h | 2923m | -13.6m/s | 2.6°C | 37.9% | 721.9hPa | 2.7V | 02:49:00 | 02:26:31 | 00:00:00 | |
| DF1GD-15 | 2026-09-02 06:57:27 | 49.57832 | 8.48156 | 70° | 40km/h | 2965m | -15.2m/s | 2.6°C | 35.5% | 718.3hPa | 2.5V | 02:49:00 | 00:00:00 | 00:00:00 | |
| DB0ND-19 | 2026-09-02 06:57:24 | 49.57819 | 8.48093 | 68° | 44km/h | 3023m | -15.8m/s | 2.4°C | 33.2% | 713.1hPa | 2.5V | 00:00:00 | 00:00:00 | 00:00:00 | |
| DM7RM-13 | 2026-09-02 06:57:20 | 49.57809 | 8.48042 | 74° | 46km/h | 3066m | -13.9m/s | 2.2°C | 32.7% | 709.3hPa | 2.5V | 02:49:00 | 00:00:00 | 00:00:00 | |
| DK5PH-5 | 2026-09-02 06:57:15 | 49.57793 | 8.47934 | 76° | 46km/h | 3152m | -15.2m/s | 1.6°C | 42.8% | 701.7hPa | 2.5V | 00:00:00 | 02:26:15 | 00:00:00 | |
| DB0UT-9 | 2026-09-02 06:57:12 | 49.57789 | 8.47897 | 80° | 47km/h | 3180m | -14.0m/s | 1.6°C | 38.8% | 699.3hPa | 2.5V | 02:49:00 | 00:00:00 | 00:00:00 | |
| DB0UT-7 | 2026-09-02 06:57:11 | 49.57786 | 8.47859 | 86° | 46km/h | 3206m | -14.4m/s | 1.5°C | 31.5% | 697.2hPa | 2.5V | 00:00:00 | 02:26:11 | 00:00:00 | |
| DL1ZP-14 | 2026-09-02 06:57:10 | 49.57783 | 8.47821 | 84° | 51km/h | 3235m | -15.3m/s | 1.4°C | 25.3% | 694.5hPa | 2.5V | 00:00:00 | 00:00:00 | 00:00:00 | |
| DF1GD-15 | 2026-09-02 06:57:05 | 49.57780 | 8.47765 | 90° | 49km/h | 3278m | -14.9m/s | 1.1°C | 22.0% | 690.9hPa | 2.5V | 02:50:00 | 00:00:00 | 00:00:00 | |
| DB0ND-19 | 2026-09-02 06:56:53 | 49.57775 | 8.47532 | 89° | 42km/h | 3463m | -15.0m/s | -0.4°C | 17.6% | 675.1hPa | 2.5V | 00:00:00 | 00:00:00 | 00:00:00 | |
| DB0UT-9 | 2026-09-02 06:56:52 | 49.57775 | 8.47515 | 94° | 44km/h | 3477m | -14.4m/s | -0.5°C | 16.7% | 674.0hPa | 2.5V | 02:50:00 | 00:00:00 | 00:00:00 | |
| DK5PH-5 | 2026-09-02 06:56:45 | 49.57775 | 8.47397 | 91° | 42km/h | 3575m | -15.5m/s | -1.1°C | 16.4% | 665.7hPa | 2.5V | 00:00:00 | 02:25:45 | 00:00:00 | |
| DF7PN | 2026-09-02 06:56:42 | 49.57772 | 8.47328 | 88° | 46km/h | 3632m | -15.5m/s | -1.6°C | 16.0% | 661.1hPa | 2.5V | 00:00:00 | 00:00:00 | 00:00:00 | |
| DB0UT-7 | 2026-09-02 06:56:41 | 49.57772 | 8.47328 | 89° | 42km/h | 3632m | -15.5m/s | -1.5°C | 16.2% | 661.0hPa | 2.5V | 02:50:00 | 00:00:00 | 00:00:00 | |
| DM7RM-13 | 2026-09-02 06:56:38 | 49.57771 | 8.47293 | 88° | 44km/h | 3661m | -13.7m/s | -1.8°C | 15.9% | 658.8hPa | 2.5V | 02:50:00 | 00:00:00 | 00:00:00 | |
| DL0LBS | 2026-09-02 06:56:34 | 49.57768 | 8.47226 | 89° | 44km/h | 3715m | -14.2m/s | -2.0°C | 10.5% | 654.0hPa | 2.5V | 02:50:00 | 00:00:00 | 00:00:00 | |
| DB0UT-9 | 2026-09-02 06:56:31 | 49.57765 | 8.47177 | 90° | 44km/h | 3757m | -15.6m/s | -2.2°C | 12.7% | 650.6hPa | 2.5V | 02:50:00 | 00:00:00 | 00:00:00 | |
| DF1GD-15 | 2026-09-02 06:56:24 | 49.57758 | 8.47063 | 88° | 44km/h | 3862m | -15.9m/s | -3.2°C | 23.4% | 642.0hPa | 2.5V | 02:50:00 | 00:00:00 | 00:00:00 | |
| DB0ND-19 | 2026-09-02 06:56:22 | 49.57755 | 8.47013 | 81° | 42km/h | 3904m | -15.0m/s | -3.5°C | 24.0% | 638.5hPa | 2.5V | 00:00:00 | 00:00:00 | 00:00:00 | |
| DM7RM-13 | 2026-09-02 06:56:18 | 49.57749 | 8.46964 | 84° | 44km/h | 3949m | -14.7m/s | -3.8°C | 24.0% | 635.0hPa | 2.5V | 02:51:00 | 00:00:00 | 00:00:00 | |
| DH7VM-15 | 2026-09-02 06:56:16 | 49.57745 | 8.46932 | 81° | 44km/h | 3978m | -15.7m/s | -4.1°C | 24.4% | 632.6hPa | 2.5V | 00:00:00 | 00:00:00 | 00:00:00 | |
| DK5PH-5 | 2026-09-02 06:56:15 | 49.57741 | 8.46899 | 86° | 47km/h | 4007m | -15.8m/s | -4.2°C | 26.4% | 630.2hPa | 2.5V | 02:50:00 | 02:25:15 | 00:00:00 | |
| DL0LBS | 2026-09-02 06:56:14 | 49.57741 | 8.46899 | 86° | 42km/h | 4007m | -15.9m/s | -4.2°C | 25.8% | 630.3hPa | 2.5V | 02:51:00 | 00:00:00 | 00:00:00 | |
| DB0UT-7 | 2026-09-02 06:56:11 | 49.57734 | 8.46833 | 79° | 49km/h | 4068m | -16.2m/s | -4.6°C | 26.3% | 625.5hPa | 2.5V | 00:00:00 | 02:25:11 | 00:00:00 | |
| DB0UT-9 | 2026-09-02 06:56:10 | 49.57734 | 8.46833 | 80° | 44km/h | 4068m | -16.2m/s | -4.6°C | 25.7% | 625.5hPa | 2.5V | 02:51:00 | 00:00:00 | 00:00:00 | |
| DL1ZP-14 | 2026-09-02 06:56:07 | 49.57726 | 8.46761 | 85° | 47km/h | 4127m | -14.6m/s | -5.0°C | 24.7% | 620.7hPa | 2.5V | 00:00:00 | 00:00:00 | 00:00:00 | |
| DF1GD-15 | 2026-09-02 06:56:04 | 49.57723 | 8.46724 | 82° | 46km/h | 4157m | -16.2m/s | -5.2°C | 21.8% | 618.6hPa | 2.6V | 02:51:00 | 00:00:00 | 00:00:00 | |
| DB0ND-19 | 2026-09-02 06:55:51 | 49.57702 | 8.46457 | 87° | 49km/h | 4363m | -15.3m/s | -6.6°C | 22.6% | 602.5hPa | 2.6V | 00:00:00 | 00:00:00 | 00:00:00 | |
| DB0UT-9 | 2026-09-02 06:55:48 | 49.57699 | 8.46418 | 85° | 53km/h | 4394m | -15.0m/s | -6.7°C | 13.7% | 600.1hPa | 2.6V | 02:51:00 | 00:00:00 | 00:00:00 | |
| DK5PH-5 | 2026-09-02 06:55:45 | 49.57695 | 8.46340 | 85° | 53km/h | 4454m | -14.9m/s | -6.8°C | 15.7% | 595.4hPa | 2.6V | 00:00:00 | 02:24:45 | 00:00:00 | |
| DF1GD-15 | 2026-09-02 06:55:44 | 49.57695 | 8.46340 | 85° | 49km/h | 4454m | -14.9m/s | -6.8°C | 15.2% | 595.5hPa | 2.6V | 02:51:00 | 00:00:00 | 00:00:00 | |
| DF3TZ-5 | 2026-09-02 06:55:43 | 49.57691 | 8.46281 | 87° | 51km/h | 4499m | -15.5m/s | -7.1°C | 27.9% | 592.0hPa | 2.6V | 00:00:00 | 00:00:00 | 00:00:00 | |
| NBG1-10 | 2026-09-02 06:55:42 | 49.57691 | 8.46281 | 88° | 55km/h | 4499m | -15.4m/s | -7.1°C | 28.7% | 592.0hPa | 2.6V | 02:51:00 | 02:24:42 | 00:00:00 | |
| DM0DOS-11 | 2026-09-02 06:55:40 | 49.57680 | 8.46141 | 84° | 51km/h | 4606m | -15.3m/s | -7.5°C | 14.4% | 584.2hPa | 2.6V | 02:51:36 | 02:24:35 | 00:00:00 | |
| DF7PN | 2026-09-02 06:55:40 | 49.57687 | 8.46221 | 85° | 51km/h | 4544m | -16.3m/s | -7.3°C | 20.6% | 588.7hPa | 2.6V | 00:00:00 | 00:00:00 | 00:00:00 | |
| DL1ZP-14 | 2026-09-02 06:55:36 | 49.57682 | 8.46161 | 80° | 49km/h | 4590m | -15.2m/s | -7.5°C | 15.0% | 585.2hPa | 2.6V | 00:00:00 | 00:00:00 | 00:00:00 | |
| DM0DOS-11 | 2026-09-02 06:55:35 | 49.57675 | 8.46041 | 90° | 55km/h | 4679m | -15.3m/s | -8°C | 12% | 578.3hPa | 2.6V | 02:51:41 | 02:24:30 | 00:00:00 | |
| KANTATE | 2026-09-02 06:55:32 | 49.57678 | 8.46101 | 85° | 49km/h | 4635m | -15.1m/s | 0°C | 0% | 581.8hPa | 2.6V | 00:00:00 | 00:00:00 | 00:00:00 | |
| DM0DOS-11 | 2026-09-02 06:55:30 | 49.57671 | 8.45933 | 85° | 55km/h | 4754m | -14.2m/s | -8.4°C | 15.8% | 573hPa | 2.6V | 02:51:46 | 02:24:25 | 00:00:00 | |
| DB0UT-9 | 2026-09-02 06:55:28 | 49.57674 | 8.46019 | 87° | 57km/h | 4694m | -15.6m/s | -8.1°C | 11.7% | 577.3hPa | 2.6V | 02:52:00 | 00:00:00 | 00:00:00 | |
| DM0DOS-11 | 2026-09-02 06:55:25 | 49.57668 | 8.45823 | 89° | 57km/h | 4823m | -14.9m/s | -9.2°C | 61.9% | 567.8hPa | 2.6V | 02:51:51 | 02:24:20 | 00:00:00 | |
| DF1GD-15 | 2026-09-02 06:55:23 | 49.57670 | 8.45911 | 91° | 57km/h | 4768m | -13.2m/s | -8.5°C | 33.3% | 571.9hPa | 2.6V | 02:52:00 | 00:00:00 | 00:00:00 | |
| DB0ND-19 | 2026-09-02 06:55:20 | 49.57667 | 8.45823 | 89° | 55km/h | 4823m | -14.9m/s | -9.2°C | 60.2% | 567.8hPa | 2.6V | 00:00:00 | 00:00:00 | 00:00:00 | |
| DH7VM-15 | 2026-09-02 06:55:19 | 49.57668 | 8.45823 | 90° | 57km/h | 4823m | -14.9m/s | -9.2°C | 60.2% | 567.8hPa | 2.6V | 00:00:00 | 00:00:00 | 00:00:00 | |
| BIOWL9-15 | 2026-09-02 06:55:17 | 49.57665 | 8.45737 | 87° | 51km/h | 4881m | -15.9m/s | -9.6°C | 54.7% | 563.5hPa | 2.6V | 00:00:00 | 00:00:00 | 00:00:00 | |
| DM0DOS-11 | 2026-09-02 06:55:15 | 49.57658 | 8.45608 | 85° | 58km/h | 4968m | -14.3m/s | -10.4°C | 67.1% | 557.1hPa | 2.6V | 02:52:01 | 02:24:10 | 00:00:00 | |
| BIOWL1-15 | 2026-09-02 06:55:05 | 49.57645 | 8.45390 | 87° | 57km/h | 5106m | -14.6m/s | -11.4°C | 68.9% | 547.1hPa | 2.6V | 02:52:32 | 02:24:00 | 00:00:00 | |
| DF1GD-15 | 2026-09-02 06:55:03 | 49.57650 | 8.45477 | 86° | 57km/h | 5050m | -15.5m/s | -11.1°C | 66.5% | 551.2hPa | 2.6V | 02:52:00 | 00:00:00 | 00:00:00 | |
| DM0DOS-11 | 2026-09-02 06:55:00 | 49.57637 | 8.45284 | 80° | 53km/h | 5178m | -15.7m/s | -11.9°C | 61.8% | 542hPa | 2.6V | 02:52:16 | 02:23:55 | 00:00:00 | |
| BIOWL1-15 | 2026-09-02 06:54:52 | 49.57628 | 8.45179 | 83° | 53km/h | 5248m | -14m/s | -12.2°C | 54.7% | 537.3hPa | 2.6V | 02:52:32 | 02:23:50 | 00:00:00 | |
| CB1BUN | 2026-09-02 06:54:52 | 49.57630 | 8.45221 | 82° | 51km/h | 5220m | -13.8m/s | -12.1°C | 59.9% | 539.1hPa | 2.6V | 02:52:00 | 00:00:00 | 00:00:00 | |
| DL0LBS | 2026-09-02 06:54:51 | 49.57630 | 8.45221 | 82° | 51km/h | 5220m | -13.8m/s | -12.1°C | 59.9% | 539.1hPa | 2.6V | 02:52:00 | 00:00:00 | 00:00:00 | |
| DM0DOS-11 | 2026-09-02 06:54:50 | 49.57620 | 8.45077 | 83° | 51km/h | 5318m | -14.1m/s | -12.7°C | 45.9% | 532.3hPa | 2.6V | 02:52:26 | 02:23:45 | 00:00:00 | |
| DB0ND-19 | 2026-09-02 06:54:49 | 49.57626 | 8.45159 | 81° | 51km/h | 5262m | -14.7m/s | -12.3°C | 42.5% | 536.4hPa | 2.6V | 00:00:00 | 00:00:00 | 00:00:00 | |
| KANTATE | 2026-09-02 06:54:47 | 49.57624 | 8.45138 | 83° | 51km/h | 5276m | -14.0m/s | 0°C | 0% | 535.3hPa | 2.6V | 00:00:00 | 00:00:00 | 00:00:00 | |
| DB0UT-9 | 2026-09-02 06:54:46 | 49.57623 | 8.45119 | 85° | 51km/h | 5290m | -15.5m/s | -12.4°C | 42.5% | 534.3hPa | 2.6V | 02:52:00 | 00:00:00 | 00:00:00 | |
| DK5PH-5 | 2026-09-02 06:54:45 | 49.57620 | 8.45077 | 84° | 57km/h | 5318m | -14.0m/s | -12.7°C | 45.9% | 532.2hPa | 2.6V | 02:52:00 | 02:23:45 | 00:00:00 | |
| DF1GD-15 | 2026-09-02 06:54:43 | 49.57618 | 8.45037 | 89° | 51km/h | 5345m | -13.7m/s | -12.8°C | 41.8% | 530.3hPa | 2.6V | 02:52:00 | 00:00:00 | 00:00:00 | |
| DM0DOS-11 | 2026-09-02 06:54:40 | 49.57608 | 8.44871 | 85° | 57km/h | 5456m | -15.4m/s | -13.3°C | 52.2% | 522.9hPa | 2.6V | 02:52:36 | 02:23:35 | 00:00:00 | |
| BIOWL1-15 | 2026-09-02 06:54:39 | 49.57613 | 8.44957 | 85° | 55km/h | 5402m | -14m/s | -12.9°C | 54.6% | 526.5hPa | 2.6V | 02:52:32 | 02:23:39 | 00:00:00 | |
| DF7PN | 2026-09-02 06:54:37 | 49.57610 | 8.44914 | 83° | 55km/h | 5427m | -13.7m/s | -13.1°C | 49.0% | 524.7hPa | 2.6V | 00:00:00 | 00:00:00 | 00:00:00 | |
| DL1ZP-14 | 2026-09-02 06:54:34 | 49.57606 | 8.44849 | 85° | 58km/h | 5470m | -15.2m/s | -13.4°C | 53.3% | 521.9hPa | 2.6V | 00:00:00 | 00:00:00 | 00:00:00 | |
| BIOWL7-15 | 2026-09-02 06:54:33 | 49.57606 | 8.44849 | 86° | 60km/h | 5471m | -15.2m/s | -13.4°C | 53.3% | 521.9hPa | 2.5V | 00:00:00 | 00:00:00 | 00:00:00 | |
| DL0LBS | 2026-09-02 06:54:30 | 49.57602 | 8.44781 | 86° | 58km/h | 5512m | -14.1m/s | -13.8°C | 58.2% | 518.9hPa | 2.5V | 02:53:00 | 00:00:00 | 00:00:00 | |
| DM0DOS-11 | 2026-09-02 06:54:29 | 49.57596 | 8.44646 | 85° | 57km/h | 5593m | -15.1m/s | -14.6°C | 61.6% | 513.5hPa | 2.5V | 02:52:46 | 02:23:25 | 00:00:00 | |
| BIOWL1-15 | 2026-09-02 06:54:28 | 49.57599 | 8.44712 | 86° | 58km/h | 5551m | -14.4m/s | -14.2°C | 68% | 516.2hPa | 2.6V | 02:53:23 | 02:23:28 | 00:00:00 | |
| BIOWL1-15 | 2026-09-02 06:54:22 | 49.57590 | 8.44487 | 82° | 58km/h | 5696m | -15.8m/s | -15.6°C | 71.8% | 506.8hPa | 2.5V | 02:53:23 | 02:23:18 | 00:00:00 | |
| DF1GD-15 | 2026-09-02 06:54:21 | 49.57593 | 8.44577 | 87° | 58km/h | 5638m | -15.1m/s | -15.0°C | 61.7% | 510.5hPa | 2.6V | 02:53:00 | 00:00:00 | 00:00:00 | |
| HEMX73-11 | 2026-09-02 06:54:19 | 49.57591 | 8.44508 | 86° | 57km/h | 5681m | -14.3m/s | -15.4°C | 63.3% | 507.5hPa | 2.6V | 02:53:00 | 00:00:00 | 00:00:00 | |
| DM0DOS-11 | 2026-09-02 06:54:18 | 49.57586 | 8.44418 | 85° | 57km/h | 5740m | -14.4m/s | -16°C | 69% | 503.6hPa | 2.6V | 02:52:56 | 02:23:15 | 00:00:00 | |
| DK5PH-5 | 2026-09-02 06:54:15 | 49.57586 | 8.44418 | 86° | 62km/h | 5740m | -14.4m/s | -16.0°C | 69.0% | 503.6hPa | 2.6V | 00:00:00 | 02:23:15 | 00:00:00 | |
| DO3MHA-11 | 2026-09-02 06:54:13 | 49.57584 | 8.44373 | 89° | 58km/h | 5768m | -14.9m/s | -16.2°C | 71.7% | 501.8hPa | 2.6V | 00:00:00 | 02:23:13 | 00:00:00 | |
| DM7RM-13 | 2026-09-02 06:54:12 | 49.57584 | 8.44373 | 89° | 60km/h | 5768m | -14.9m/s | -16.3°C | 68.9% | 501.8hPa | 2.6V | 02:53:00 | 00:00:00 | 00:00:00 | |
| DB0UT-7 | 2026-09-02 06:54:10 | 49.57582 | 8.44304 | 90° | 68km/h | 5810m | -14.0m/s | -16.6°C | 73.2% | 498.8hPa | 2.6V | 00:00:00 | 02:23:10 | 00:00:00 | |
| DM0DOS-11 | 2026-09-02 06:54:09 | 49.57579 | 8.44189 | 89° | 58km/h | 5880m | -14.1m/s | -17.3°C | 76.8% | 494.2hPa | 2.6V | 02:53:06 | 02:23:05 | 00:00:00 | |
| BIOWL1-15 | 2026-09-02 06:54:07 | 49.57580 | 8.44235 | 88° | 58km/h | 5852m | -15.3m/s | -17°C | 77.4% | 496.2hPa | 2.5V | 02:53:23 | 02:23:07 | 00:00:00 | |
| DH7VM-15 | 2026-09-02 06:54:06 | 49.57580 | 8.44234 | 89° | 58km/h | 5852m | -15.3m/s | -17.0°C | 72.3% | 496.2hPa | 2.6V | 00:00:00 | 00:00:00 | 00:00:00 | |
| KANTATE | 2026-09-02 06:54:05 | 49.57579 | 8.44212 | 87° | 58km/h | 5866m | -15.2m/s | 0°C | 0% | 0hPa | 2.6V | 02:53:00 | 00:00:00 | 00:00:00 | |
| DB0UT-9 | 2026-09-02 06:54:04 | 49.57579 | 8.44189 | 91° | 58km/h | 5880m | -14.1m/s | -17.3°C | 73.7% | 494.2hPa | 2.6V | 02:53:00 | 00:00:00 | 00:00:00 | |
| DO3MHA-11 | 2026-09-02 06:54:03 | 49.57579 | 8.44143 | 89° | 58km/h | 5910m | -15.6m/s | -17.5°C | 77.5% | 492.4hPa | 2.6V | 02:53:00 | 02:23:03 | 00:00:00 | |
| DM0DOS-11 | 2026-09-02 06:53:58 | 49.57573 | 8.43961 | 86° | 58km/h | 6029m | -14.4m/s | -18.3°C | 82.9% | 484.6hPa | 2.6V | 02:53:16 | 02:22:55 | 00:00:00 | |
| BIOWL1-15 | 2026-09-02 06:53:57 | 49.57574 | 8.44008 | 87° | 60km/h | 6000m | -15.3m/s | -18.1°C | 82.6% | 486.5hPa | 2.5V | 02:53:23 | 02:22:57 | 00:00:00 | |
| DO3MHA-11 | 2026-09-02 06:53:53 | 49.57571 | 8.43914 | 88° | 68km/h | 6058m | -13.9m/s | -18.1°C | 84.5% | 482.7hPa | 2.5V | 00:00:00 | 02:22:53 | 00:00:00 | |
| DM7RM-13 | 2026-09-02 06:53:51 | 49.57569 | 8.43888 | 88° | 66km/h | 6071m | -13.6m/s | -18.0°C | 81.6% | 481.9hPa | 2.5V | 02:53:00 | 00:00:00 | 00:00:00 | |
| CB1BUN | 2026-09-02 06:53:49 | 49.57568 | 8.43837 | 86° | 66km/h | 6099m | -14.7m/s | -18.0°C | 81.3% | 480.3hPa | 2.5V | 00:00:00 | 00:00:00 | 00:00:00 | |
| DM0DOS-11 | 2026-09-02 06:53:48 | 49.57561 | 8.43703 | 82° | 66km/h | 6167m | -13.7m/s | -18.3°C | 84% | 475.8hPa | 2.5V | 02:53:26 | 02:22:45 | 00:00:00 | |
| BIOWL1-15 | 2026-09-02 06:53:46 | 49.57562 | 8.43729 | 86° | 69km/h | 6153m | -15m/s | -18.2°C | 86.4% | 476.8hPa | 2.6V | 02:54:14 | 02:22:46 | 00:00:00 | |
| DK5PH-5 | 2026-09-02 06:53:45 | 49.57561 | 8.43703 | 83° | 71km/h | 6167m | -13.7m/s | -18.3°C | 84.0% | 475.7hPa | 2.6V | 00:00:00 | 02:22:45 | 00:00:00 | |
| BIOWL9-15 | 2026-09-02 06:53:44 | 49.57558 | 8.43677 | 82° | 66km/h | 6180m | -14.0m/s | -18.4°C | 80.4% | 475.0hPa | 2.6V | 00:00:00 | 00:00:00 | 00:00:00 | |
| DO3MHA-11 | 2026-09-02 06:53:43 | 49.57556 | 8.43651 | 83° | 71km/h | 6195m | -14.9m/s | -18.5°C | 84.4% | 474.0hPa | 2.6V | 00:00:00 | 02:22:43 | 00:00:00 | |
| DB0UT-9 | 2026-09-02 06:53:42 | 49.57556 | 8.43651 | 84° | 68km/h | 6195m | -14.9m/s | -18.6°C | 80.8% | 474.1hPa | 2.6V | 02:54:00 | 00:00:00 | 00:00:00 | |
| DF1GD-15 | 2026-09-02 06:53:40 | 49.57551 | 8.43596 | 84° | 73km/h | 6226m | -15.3m/s | -18.8°C | 81.0% | 472.3hPa | 2.6V | 02:54:00 | 00:00:00 | 00:00:00 | |
| DL0LBS | 2026-09-02 06:53:39 | 49.57545 | 8.43542 | 81° | 69km/h | 6255m | -15.3m/s | -19.0°C | 78.7% | 470.4hPa | 2.6V | 02:54:00 | 00:00:00 | 00:00:00 | |
| DM0DOS-11 | 2026-09-02 06:53:38 | 49.57535 | 8.43433 | 82° | 71km/h | 6312m | -14.3m/s | -19.4°C | 82.8% | 466.7hPa | 2.6V | 02:53:36 | 02:22:35 | 00:00:00 | |
| BIOWL1-15 | 2026-09-02 06:53:35 | 49.57535 | 8.43433 | 83° | 71km/h | 6312m | -14.3m/s | -19.4°C | 84.3% | 466.8hPa | 2.6V | 02:54:14 | 02:22:35 | 00:00:00 | |
| DO3MHA-11 | 2026-09-02 06:53:33 | 49.57531 | 8.43378 | 86° | 69km/h | 6340m | -14.8m/s | -19.5°C | 83.7% | 464.9hPa | 2.5V | 02:53:00 | 02:22:33 | 00:00:00 | |
| DM7RM-13 | 2026-09-02 06:53:30 | 49.57529 | 8.43323 | 87° | 69km/h | 6368m | -15.0m/s | -19.6°C | 80.7% | 463.3hPa | 2.6V | 02:54:00 | 00:00:00 | 00:00:00 | |
| NBG1-10 | 2026-09-02 06:53:29 | 49.57526 | 8.43270 | 87° | 77km/h | 6396m | -14.4m/s | -19.7°C | 84.5% | 461.4hPa | 2.6V | 00:00:00 | 02:22:29 | 00:00:00 | |
| DM0DOS-11 | 2026-09-02 06:53:28 | 49.57524 | 8.43163 | 86° | 68km/h | 6450m | -14.5m/s | -20.2°C | 85.3% | 457.9hPa | 2.6V | 02:53:46 | 02:22:25 | 00:00:00 | |
| BIOWL1-15 | 2026-09-02 06:53:24 | 49.57523 | 8.43136 | 88° | 69km/h | 6464m | -13.6m/s | -20.3°C | 87.1% | 457hPa | 2.5V | 02:54:14 | 02:22:24 | 00:00:00 | |
| DO3MHA-11 | 2026-09-02 06:53:23 | 49.57522 | 8.43108 | 87° | 73km/h | 6477m | -14.6m/s | -20.4°C | 85.2% | 456.2hPa | 2.6V | 00:00:00 | 02:22:23 | 00:00:00 | |
| DB0UT-9 | 2026-09-02 06:53:22 | 49.57522 | 8.43108 | 87° | 69km/h | 6477m | -14.7m/s | -20.4°C | 81.3% | 456.2hPa | 2.6V | 02:54:00 | 00:00:00 | 00:00:00 | |
| DF1GD-15 | 2026-09-02 06:53:20 | 49.57519 | 8.43055 | 88° | 71km/h | 6507m | -16.3m/s | -20.6°C | 78.3% | 454.4hPa | 2.6V | 02:54:00 | 00:00:00 | 00:00:00 | |
| DM0DOS-11 | 2026-09-02 06:53:18 | 49.57514 | 8.42882 | 89° | 77km/h | 6598m | -16.7m/s | -21.3°C | 81.2% | 448.8hPa | 2.6V | 02:53:56 | 02:22:15 | 00:00:00 | |
| BIOWL1-15 | 2026-09-02 06:53:13 | 49.57513 | 8.42822 | 86° | 77km/h | 6630m | -16m/s | -21.5°C | 84% | 447hPa | 2.5V | 02:54:14 | 02:22:13 | 00:00:00 | |
| DO3MHA-11 | 2026-09-02 06:53:13 | 49.57513 | 8.42822 | 87° | 78km/h | 6630m | -15.9m/s | -21.5°C | 81.3% | 446.9hPa | 2.6V | 00:00:00 | 02:22:13 | 00:00:00 | |
| DM7RM-13 | 2026-09-02 06:53:10 | 49.57510 | 8.42762 | 87° | 80km/h | 6660m | -15.5m/s | -21.6°C | 77.7% | 445.1hPa | 2.6V | 02:54:00 | 00:00:00 | 00:00:00 | |
| DB0UT-7 | 2026-09-02 06:53:09 | 49.57508 | 8.42700 | 86° | 82km/h | 6690m | -15.3m/s | -21.8°C | 81.5% | 443.3hPa | 2.6V | 00:00:00 | 02:22:09 | 00:00:00 | |
| DM0DOS-11 | 2026-09-02 06:53:08 | 49.57505 | 8.42579 | 89° | 80km/h | 6748m | -15.1m/s | -22.1°C | 82.1% | 439.9hPa | 2.6V | 02:54:06 | 02:22:05 | 00:00:00 | |
| BIOWL1-15 | 2026-09-02 06:53:02 | 49.57505 | 8.42486 | 90° | 80km/h | 6789m | -13.1m/s | -22.5°C | 85.8% | 437.2hPa | 2.5V | 02:54:14 | 02:22:02 | 00:00:00 | |
| DL1ZP-14 | 2026-09-02 06:53:01 | 49.57505 | 8.42423 | 91° | 78km/h | 6816m | -16.0m/s | -22.7°C | 79.8% | 435.8hPa | 2.6V | 00:00:00 | 00:00:00 | 00:00:00 | |
| DF1GD-15 | 2026-09-02 06:53:00 | 49.57505 | 8.42423 | 92° | 80km/h | 6816m | -16.0m/s | -22.7°C | 79.8% | 435.8hPa | 2.6V | 02:54:00 | 00:00:00 | 00:00:00 | |
| DM0DOS-11 | 2026-09-02 06:52:58 | 49.57507 | 8.42265 | 89° | 78km/h | 6888m | -15m/s | -23.2°C | 84.9% | 431.4hPa | 2.6V | 02:54:16 | 02:21:55 | 00:00:00 | |
| BIOWL1-15 | 2026-09-02 06:52:52 | 49.57507 | 8.42172 | 93° | 84km/h | 6932m | -15.4m/s | -23.6°C | 86% | 428.9hPa | 2.5V | 02:55:05 | 02:21:52 | 00:00:00 | |
| DM3KS-11 | 2026-09-02 06:52:51 | 49.57509 | 8.42139 | 94° | 84km/h | 6946m | -14.4m/s | -23.7°C | 79.7% | 428.0hPa | 2.5V | 00:00:00 | 00:00:00 | 00:00:00 | |
| BIOWL1-15 | 2026-09-02 06:52:41 | 49.57541 | 8.41813 | 103° | 86km/h | 7091m | -14.8m/s | -24.6°C | 85% | 419.6hPa | 2.5V | 02:55:05 | 02:21:41 | 00:00:00 | |
| DB0UT-9 | 2026-09-02 06:52:40 | 49.57541 | 8.41813 | 104° | 86km/h | 7091m | -14.8m/s | -24.6°C | 79.8% | 419.6hPa | 2.6V | 02:55:00 | 00:00:00 | 00:00:00 | |
| DB0UT-7 | 2026-09-02 06:52:39 | 49.57552 | 8.41748 | 106° | 82km/h | 7119m | -14.6m/s | -24.8°C | 84.1% | 418.0hPa | 2.6V | 00:00:00 | 00:00:00 | 00:00:00 | |
| DF3TZ-5 | 2026-09-02 06:52:37 | 49.57562 | 8.41683 | 103° | 84km/h | 7147m | -14.9m/s | -25.0°C | 79.7% | 416.4hPa | 2.6V | 00:00:00 | 00:00:00 | 00:00:00 | |
| DL0LBS | 2026-09-02 06:52:36 | 49.57568 | 8.41650 | 105° | 88km/h | 7161m | -14.0m/s | -25.1°C | 79.9% | 415.5hPa | 2.6V | 02:55:00 | 00:00:00 | 00:00:00 | |
| DO3MHA-11 | 2026-09-02 06:52:33 | 49.57583 | 8.41553 | 105° | 84km/h | 7205m | -15.3m/s | -25.3°C | 83.2% | 413.0hPa | 2.6V | 02:54:00 | 02:21:33 | 00:00:00 | |
| DL1ZP-14 | 2026-09-02 06:52:30 | 49.57607 | 8.41424 | 107° | 80km/h | 7267m | -16.1m/s | -25.7°C | 77.7% | 409.6hPa | 2.5V | 00:00:00 | 00:00:00 | 00:00:00 | |
| BIOWL1-15 | 2026-09-02 06:52:30 | 49.57601 | 8.41455 | 107° | 84km/h | 7252m | -16m/s | -25.6°C | 83.4% | 410.4hPa | 2.5V | 02:55:05 | 02:21:30 | 00:00:00 | |
| DM0DOS-11 | 2026-09-02 06:52:28 | 49.57632 | 8.41301 | 109° | 82km/h | 7328m | -15.1m/s | -25.6°C | 83% | 406.2hPa | 2.5V | 02:54:46 | 02:21:25 | 00:00:00 | |
| BIOWL1-15 | 2026-09-02 06:52:20 | 49.57668 | 8.41149 | 111° | 82km/h | 7404m | -15.4m/s | -26.2°C | 86.8% | 402.1hPa | 2.6V | 02:55:05 | 02:21:20 | 00:00:00 | |
| DB0UT-9 | 2026-09-02 06:52:19 | 49.57668 | 8.41149 | 112° | 82km/h | 7404m | -15.4m/s | -26.2°C | 78.7% | 402.1hPa | 2.6V | 02:55:00 | 00:00:00 | 00:00:00 | |
| DM0DOS-11 | 2026-09-02 06:52:18 | 49.57703 | 8.41000 | 109° | 82km/h | 7473m | -14m/s | -26.6°C | 83.1% | 398.2hPa | 2.6V | 02:54:56 | 02:21:15 | 00:00:00 | |
| BIOWL1-15 | 2026-09-02 06:52:09 | 49.57740 | 8.40824 | 105° | 77km/h | 7551m | -13.4m/s | -27.1°C | 87.7% | 393.8hPa | 2.6V | 02:55:05 | 02:21:09 | 00:00:00 | |
| DB0UT-7 | 2026-09-02 06:52:09 | 49.57740 | 8.40824 | 106° | 75km/h | 7551m | -13.3m/s | -27.0°C | 84.0% | 393.8hPa | 2.6V | 02:55:00 | 02:21:09 | 00:00:00 | |
| DM0DOS-11 | 2026-09-02 06:52:08 | 49.57760 | 8.40711 | 105° | 75km/h | 7604m | -14.4m/s | -27.3°C | 81.4% | 390.9hPa | 2.5V | 02:55:06 | 02:21:05 | 00:00:00 | |
| DM7RM-13 | 2026-09-02 06:52:07 | 49.57745 | 8.40796 | 106° | 75km/h | 7565m | -13.5m/s | -27.1°C | 78.8% | 393.2hPa | 2.6V | 02:55:00 | 00:00:00 | 00:00:00 | |
| DF3TZ-5 | 2026-09-02 06:52:06 | 49.57755 | 8.40739 | 105° | 75km/h | 7591m | -13.8m/s | -27.3°C | 77.8% | 391.7hPa | 2.6V | 00:00:00 | 00:00:00 | 00:00:00 | |
| BIOWL7-15 | 2026-09-02 06:52:05 | 49.57755 | 8.40739 | 106° | 77km/h | 7591m | -13.8m/s | -27.3°C | 77.8% | 391.7hPa | 2.6V | 02:55:00 | 00:00:00 | 00:00:00 | |
| DO3MHA-11 | 2026-09-02 06:52:03 | 49.57770 | 8.40654 | 106° | 77km/h | 7632m | -13.6m/s | -27.5°C | 82.4% | 389.4hPa | 2.6V | 02:55:00 | 02:21:03 | 00:00:00 | |
| DF7PN | 2026-09-02 06:52:02 | 49.57775 | 8.40626 | 106° | 75km/h | 7645m | -12.7m/s | -27.7°C | 78.0% | 388.6hPa | 2.5V | 00:00:00 | 00:00:00 | 00:00:00 | |
| DH7VM-15 | 2026-09-02 06:52:00 | 49.57780 | 8.40597 | 108° | 77km/h | 7657m | -13.2m/s | -27.8°C | 78.5% | 388.0hPa | 2.5V | 00:00:00 | 00:00:00 | 00:00:00 | |
| DB0UT-9 | 2026-09-02 06:51:59 | 49.57785 | 8.40569 | 108° | 75km/h | 7670m | -13.2m/s | -27.9°C | 79.0% | 387.4hPa | 2.5V | 02:55:00 | 00:00:00 | 00:00:00 | |
| BIOWL1-15 | 2026-09-02 06:51:59 | 49.57791 | 8.40542 | 107° | 77km/h | 7683m | -13.4m/s | -28°C | 89% | 386.7hPa | 2.5V | 02:55:56 | 02:20:59 | 00:00:00 | |
| DM0DOS-11 | 2026-09-02 06:51:58 | 49.57819 | 8.40400 | 106° | 75km/h | 7748m | -14.1m/s | -28.6°C | 86.5% | 383.1hPa | 2.5V | 02:55:17 | 02:20:54 | 00:00:00 | |
| BIOWL1-15 | 2026-09-02 06:51:50 | 49.57850 | 8.40233 | 108° | 77km/h | 7824m | -12.8m/s | -29.2°C | 91.3% | 378.9hPa | 2.6V | 02:55:56 | 02:20:48 | 00:00:00 | |
| DM3KS-11 | 2026-09-02 06:51:49 | 49.57844 | 8.40261 | 107° | 75km/h | 7812m | -13.1m/s | -29.1°C | 81.6% | 379.6hPa | 2.5V | 00:00:00 | 00:00:00 | 00:00:00 | |
| DM7RM-13 | 2026-09-02 06:51:46 | 49.57856 | 8.40205 | 108° | 75km/h | 7836m | -13.7m/s | -29.3°C | 81.0% | 378.3hPa | 2.5V | 02:55:00 | 00:00:00 | 00:00:00 | |
| DM0DOS-11 | 2026-09-02 06:51:45 | 49.57871 | 8.40122 | 106° | 75km/h | 7876m | -14m/s | -29.6°C | 84.9% | 376.2hPa | 2.5V | 02:55:27 | 02:20:44 | 00:00:00 | |
| DK5PH-5 | 2026-09-02 06:51:45 | 49.57866 | 8.40149 | 107° | 77km/h | 7863m | -14.3m/s | -29.5°C | 85.3% | 376.9hPa | 2.5V | 02:55:00 | 02:20:45 | 00:00:00 | |
| DO3MHA-11 | 2026-09-02 06:51:43 | 49.57877 | 8.40095 | 107° | 75km/h | 7889m | -13.8m/s | -29.7°C | 84.6% | 375.5hPa | 2.6V | 00:00:00 | 02:20:43 | 00:00:00 | |
| BIOWL7-15 | 2026-09-02 06:51:41 | 49.57882 | 8.40068 | 108° | 73km/h | 7903m | -14.2m/s | -29.8°C | 78.5% | 374.9hPa | 2.6V | 02:55:00 | 00:00:00 | 00:00:00 | |
| BIOWL9-15 | 2026-09-02 06:51:40 | 49.57892 | 8.40013 | 106° | 73km/h | 7930m | -14.3m/s | -30.0°C | 76.4% | 373.5hPa | 2.6V | 00:00:00 | 00:00:00 | 00:00:00 | |
| DM0DOS-11 | 2026-09-02 06:51:39 | 49.57924 | 8.39848 | 106° | 75km/h | 8011m | -13.6m/s | -30.7°C | 75.3% | 369.3hPa | 2.6V | 02:55:37 | 02:20:34 | 00:00:00 | |
| BIOWL1-15 | 2026-09-02 06:51:37 | 49.57908 | 8.39931 | 107° | 75km/h | 7971m | -14.9m/s | -30.4°C | 82.4% | 371.4hPa | 2.5V | 02:55:56 | 02:20:37 | 00:00:00 | |
| DF1GD-15 | 2026-09-02 06:51:36 | 49.57907 | 8.39931 | 108° | 75km/h | 7971m | -14.9m/s | -30.4°C | 72.3% | 371.3hPa | 2.5V | 02:55:00 | 00:00:00 | 00:00:00 | |
| DF3TZ-5 | 2026-09-02 06:51:35 | 49.57924 | 8.39848 | 106° | 75km/h | 8011m | -13.6m/s | -30.7°C | 70.1% | 369.3hPa | 2.5V | 00:00:00 | 00:00:00 | 00:00:00 | |
| DO3MHA-11 | 2026-09-02 06:51:33 | 49.57929 | 8.39820 | 107° | 78km/h | 8024m | -13.6m/s | -30.8°C | 75.8% | 368.6hPa | 2.5V | 02:55:00 | 02:20:33 | 00:00:00 | |
| DF7PN | 2026-09-02 06:51:31 | 49.57940 | 8.39763 | 108° | 78km/h | 8049m | -13.2m/s | -31.1°C | 71.2% | 367.3hPa | 2.6V | 00:00:00 | 00:00:00 | 00:00:00 | |
| DM0DOS-11 | 2026-09-02 06:51:27 | 49.57978 | 8.39559 | 109° | 80km/h | 8145m | -15m/s | -31.9°C | 75.9% | 362.3hPa | 2.6V | 02:55:47 | 02:20:24 | 00:00:00 | |
| BIOWL1-15 | 2026-09-02 06:51:27 | 49.57972 | 8.39588 | 108° | 78km/h | 8130m | -16.3m/s | -31.8°C | 82.7% | 363.1hPa | 2.6V | 02:55:56 | 02:20:25 | 00:00:00 | |
| BIOWL1-15 | 2026-09-02 06:51:20 | 49.58041 | 8.39263 | 108° | 84km/h | 8292m | -17.4m/s | -33.2°C | 77.1% | 354.9hPa | 2.5V | 02:56:47 | 02:20:14 | 00:00:00 | |
| DM3KS-11 | 2026-09-02 06:51:18 | 49.58016 | 8.39383 | 107° | 77km/h | 8233m | -15.3m/s | -32.7°C | 68.9% | 358.0hPa | 2.5V | 00:00:00 | 00:00:00 | 00:00:00 | |
| NBG1-10 | 2026-09-02 06:51:17 | 49.58022 | 8.39354 | 108° | 80km/h | 8248m | -15.6m/s | -32.8°C | 74.2% | 357.2hPa | 2.5V | 00:00:00 | 02:20:17 | 00:00:00 | |
| DM0DOS-11 | 2026-09-02 06:51:15 | 49.58041 | 8.39263 | 108° | 84km/h | 8292m | -17.4m/s | -33.2°C | 70.9% | 354.9hPa | 2.5V | 02:55:57 | 02:20:14 | 00:00:00 | |
| DK5PH-5 | 2026-09-02 06:51:15 | 49.58034 | 8.39294 | 108° | 80km/h | 8277m | -16.1m/s | -33.0°C | 72.8% | 355.7hPa | 2.5V | 00:00:00 | 02:20:15 | 00:00:00 | |
| DO3MHA-11 | 2026-09-02 06:51:13 | 49.58047 | 8.39233 | 109° | 80km/h | 8308m | -16.2m/s | -33.3°C | 70.7% | 354.0hPa | 2.5V | 00:00:00 | 02:20:13 | 00:00:00 | |
| DB0ND-19 | 2026-09-02 06:51:12 | 49.58053 | 8.39203 | 109° | 78km/h | 8323m | -16.6m/s | -33.4°C | 65.5% | 353.3hPa | 2.5V | 00:00:00 | 00:00:00 | 00:00:00 | |
| CB1BUN | 2026-09-02 06:51:11 | 49.58060 | 8.39173 | 110° | 80km/h | 8338m | -16.4m/s | -33.6°C | 65.4% | 352.6hPa | 2.5V | 02:56:00 | 00:00:00 | 00:00:00 | |
| DM0DOS-11 | 2026-09-02 06:51:09 | 49.58105 | 8.38964 | 108° | 82km/h | 8445m | -14.8m/s | -34.5°C | 70.7% | 347.3hPa | 2.5V | 02:56:07 | 02:20:04 | 00:00:00 | |
| BIOWL1-15 | 2026-09-02 06:51:05 | 49.58099 | 8.38995 | 109° | 82km/h | 8430m | -15.9m/s | -34.4°C | 75.8% | 348hPa | 2.5V | 02:56:47 | 02:20:05 | 00:00:00 | |
| DF3TZ-5 | 2026-09-02 06:51:04 | 49.58112 | 8.38934 | 108° | 80km/h | 8459m | -16.2m/s | -34.6°C | 64.7% | 346.7hPa | 2.6V | 00:00:00 | 00:00:00 | 00:00:00 | |
| DO3MHA-11 | 2026-09-02 06:51:03 | 49.58112 | 8.38934 | 109° | 80km/h | 8460m | -16.1m/s | -34.6°C | 70.4% | 346.7hPa | 2.6V | 02:56:00 | 02:20:03 | 00:00:00 | |
| DF7PN | 2026-09-02 06:51:00 | 49.58132 | 8.38843 | 108° | 82km/h | 8506m | -16.4m/s | -35.0°C | 64.9% | 344.4hPa | 2.5V | 00:00:00 | 00:00:00 | 00:00:00 | |
| DM0DOS-11 | 2026-09-02 06:50:57 | 49.58171 | 8.38663 | 107° | 77km/h | 8594m | -15.2m/s | -35.8°C | 72% | 339.9hPa | 2.5V | 02:56:17 | 02:19:54 | 00:00:00 | |
| BIOWL1-15 | 2026-09-02 06:50:54 | 49.58171 | 8.38663 | 107° | 77km/h | 8594m | -15.2m/s | -35.8°C | 76.9% | 339.9hPa | 2.5V | 02:56:47 | 02:19:54 | 00:00:00 | |
| DL9PN | 2026-09-02 06:50:51 | 49.58188 | 8.38577 | 106° | 77km/h | 8640m | -15.9m/s | -36.2°C | 66.7% | 337.7hPa | 2.6V | 00:00:00 | 00:00:00 | 00:00:00 | |
| DM3KS-11 | 2026-09-02 06:50:47 | 49.58210 | 8.38458 | 106° | 78km/h | 8701m | -16.7m/s | -36.7°C | 66.9% | 334.9hPa | 2.6V | 00:00:00 | 00:00:00 | 00:00:00 | |
| BIOWL1-15 | 2026-09-02 06:50:44 | 49.58226 | 8.38369 | 102° | 77km/h | 8750m | -17.3m/s | -37.1°C | 78.1% | 332.5hPa | 2.6V | 02:56:47 | 02:19:44 | 00:00:00 | |
| BIOWL1-15 | 2026-09-02 06:50:33 | 49.58266 | 8.38037 | 97° | 80km/h | 8924m | -16.7m/s | -38.4°C | 80.1% | 324.2hPa | 2.6V | 02:56:47 | 02:19:33 | 00:00:00 | |
| BIOWL1-15 | 2026-09-02 06:50:22 | 49.58289 | 8.37677 | 95° | 82km/h | 9105m | -17m/s | -39.9°C | 78.3% | 315.8hPa | 2.5V | 02:57:38 | 02:19:22 | 00:00:00 | |
| BIOWL1-15 | 2026-09-02 06:50:12 | 49.58308 | 8.37074 | 91° | 86km/h | 9403m | -16.3m/s | -42.7°C | 81.6% | 302.1hPa | 2.6V | 02:57:38 | 02:19:04 | 00:00:00 | |
| BIOWL1-15 | 2026-09-02 06:50:03 | 49.58310 | 8.36971 | 92° | 88km/h | 9450m | -17.3m/s | -43.1°C | 82.8% | 300hPa | 2.6V | 02:57:38 | 02:19:01 | 00:00:00 | |
| DO3MHA-11 | 2026-09-02 06:50:03 | 49.58309 | 8.37040 | 94° | 88km/h | 9419m | -16.2m/s | -42.8°C | 75.6% | 301.3hPa | 2.6V | 02:57:00 | 02:19:03 | 00:00:00 | |
| DF3TZ-5 | 2026-09-02 06:50:02 | 49.58310 | 8.37006 | 91° | 88km/h | 9434m | -16.2m/s | -42.9°C | 67.9% | 300.7hPa | 2.6V | 00:00:00 | 00:00:00 | 00:00:00 | |
| DF7PN | 2026-09-02 06:49:58 | 49.58312 | 8.36868 | 91° | 88km/h | 9501m | -17.5m/s | -43.5°C | 68.1% | 297.9hPa | 2.6V | 00:00:00 | 00:00:00 | 00:00:00 | |
| DM0DOS-11 | 2026-09-02 06:49:57 | 49.58312 | 8.36799 | 92° | 88km/h | 9536m | -17.2m/s | -43.8°C | 75.7% | 296.5hPa | 2.6V | 02:57:15 | 02:18:56 | 00:00:00 | |
| DB0UT-9 | 2026-09-02 06:49:55 | 49.58312 | 8.36799 | 93° | 88km/h | 9536m | -17.2m/s | -43.8°C | 67.9% | 296.5hPa | 2.5V | 02:57:00 | 00:00:00 | 00:00:00 | |
| DO3MHA-11 | 2026-09-02 06:49:53 | 49.58313 | 8.36697 | 90° | 86km/h | 9588m | -17.4m/s | -44.3°C | 75.0% | 294.2hPa | 2.5V | 00:00:00 | 02:18:53 | 00:00:00 | |
| HEMX73-11 | 2026-09-02 06:49:52 | 49.58313 | 8.36697 | 90° | 86km/h | 9588m | -17.5m/s | -44.3°C | 67.1% | 294.2hPa | 2.5V | 02:57:00 | 00:00:00 | 00:00:00 | |
| DM0DOS-11 | 2026-09-02 06:49:51 | 49.58309 | 8.36463 | 90° | 88km/h | 9707m | -17.9m/s | -45.4°C | 73.8% | 289.1hPa | 2.5V | 02:57:25 | 02:18:46 | 00:00:00 | |
| BIOWL1-15 | 2026-09-02 06:49:50 | 49.58309 | 8.36463 | 91° | 88km/h | 9708m | -17.9m/s | -45.4°C | 81.2% | 289.1hPa | 2.5V | 02:57:38 | 02:18:46 | 00:00:00 | |
| DM3KS-11 | 2026-09-02 06:49:45 | 49.58309 | 8.36430 | 88° | 84km/h | 9725m | -17.8m/s | -45.6°C | 65.6% | 288.3hPa | 2.5V | 00:00:00 | 00:00:00 | 00:00:00 | |
| BIOWL1-15 | 2026-09-02 06:49:36 | 49.58299 | 8.36035 | 87° | 84km/h | 9927m | -18.5m/s | -47.4°C | 80.8% | 279.6hPa | 2.5V | 02:57:38 | 02:18:33 | 00:00:00 | |
| BIOWL9-15 | 2026-09-02 06:49:36 | 49.58302 | 8.36134 | 88° | 84km/h | 9877m | -17.1m/s | -47.0°C | 65.3% | 281.7hPa | 2.5V | 00:00:00 | 00:00:00 | 00:00:00 | |
| DB0UT-9 | 2026-09-02 06:49:34 | 49.58301 | 8.36101 | 90° | 84km/h | 9894m | -17.1m/s | -47.2°C | 65.5% | 281.0hPa | 2.5V | 02:57:00 | 00:00:00 | 00:00:00 | |
| DO3MHA-11 | 2026-09-02 06:49:33 | 49.58299 | 8.36035 | 87° | 86km/h | 9928m | -18.4m/s | -47.4°C | 73.5% | 279.5hPa | 2.5V | 02:57:00 | 02:18:33 | 00:00:00 | |
| DL0LBS | 2026-09-02 06:49:32 | 49.58295 | 8.35935 | 89° | 88km/h | 9980m | -17.4m/s | -48.0°C | 65.3% | 277.3hPa | 2.5V | 02:58:00 | 00:00:00 | 00:00:00 | |
| DF3TZ-5 | 2026-09-02 06:49:31 | 49.58295 | 8.35935 | 88° | 86km/h | 9979m | -17.4m/s | -48.0°C | 65.3% | 277.3hPa | 2.5V | 00:00:00 | 00:00:00 | 00:00:00 | |
| DM0DOS-11 | 2026-09-02 06:49:27 | 49.58280 | 8.35560 | 86° | 91km/h | 10169m | -17m/s | -49.7°C | 71.2% | 269.4hPa | 2.5V | 02:57:52 | 02:18:19 | 00:00:00 | |
| BIOWL1-15 | 2026-09-02 06:49:26 | 49.58282 | 8.35630 | 87° | 91km/h | 10135m | -17.4m/s | -49.4°C | 78.8% | 270.8hPa | 2.6V | 02:58:29 | 02:18:21 | 00:00:00 | |
| SFWM-10 | 2026-09-02 06:49:23 | 49.58286 | 8.35699 | 86° | 89km/h | 10100m | -17.4m/s | -49.0°C | 64.2% | 272.3hPa | 2.7V | 02:58:00 | 00:00:00 | 00:00:00 | |
| DL8DAS-14 | 2026-09-02 06:49:19 | 49.58276 | 8.35489 | 85° | 89km/h | 10203m | -17.1m/s | -50.0°C | 60.5% | 268.1hPa | 2.7V | 00:00:00 | 00:00:00 | 00:00:00 | |
| DK5PH-5 | 2026-09-02 06:49:18 | 49.58273 | 8.35419 | 85° | 95km/h | 10237m | -17.6m/s | -50.3°C | 68.3% | 266.7hPa | 2.7V | 00:00:00 | 02:18:15 | 00:00:00 | |
| DM3KS-11 | 2026-09-02 06:49:16 | 49.58268 | 8.35349 | 86° | 91km/h | 10271m | -17.6m/s | -50.6°C | 58.1% | 265.3hPa | 2.7V | 00:00:00 | 00:00:00 | 00:00:00 | |
| DO3MHA-11 | 2026-09-02 06:49:13 | 49.58268 | 8.35349 | 87° | 93km/h | 10271m | -17.5m/s | -50.6°C | 66.9% | 265.2hPa | 2.7V | 00:00:00 | 02:18:13 | 00:00:00 | |
| HEMX73-11 | 2026-09-02 06:49:12 | 49.58268 | 8.35349 | 87° | 93km/h | 10271m | -17.6m/s | -50.6°C | 58.1% | 265.3hPa | 2.7V | 02:58:00 | 00:00:00 | 00:00:00 | |
| DM0DOS-11 | 2026-09-02 06:49:08 | 49.58250 | 8.34988 | 85° | 95km/h | 10449m | -18.2m/s | -52.2°C | 63% | 258.2hPa | 2.7V | 02:58:08 | 02:18:03 | 00:00:00 | |
| BIOWL1-15 | 2026-09-02 06:49:07 | 49.58252 | 8.35025 | 86° | 93km/h | 10431m | -18.2m/s | -52.1°C | 68.6% | 258.9hPa | 2.6V | 02:58:29 | 02:18:04 | 00:00:00 | |
| CB1BUN | 2026-09-02 06:49:07 | 49.58258 | 8.35133 | 86° | 91km/h | 10377m | -18.5m/s | -51.6°C | 55.6% | 261.0hPa | 2.6V | 02:58:00 | 00:00:00 | 00:00:00 | |
| DF3TZ-5 | 2026-09-02 06:49:02 | 49.58242 | 8.34841 | 84° | 91km/h | 10522m | -18.8m/s | -52.9°C | 51.8% | 255.3hPa | 2.6V | 00:00:00 | 00:00:00 | 00:00:00 | |
| DF7PN | 2026-09-02 06:48:58 | 49.58234 | 8.34692 | 86° | 97km/h | 10591m | -18.7m/s | -53.6°C | 48.5% | 252.5hPa | 2.6V | 00:00:00 | 00:00:00 | 00:00:00 | |
| DM0DOS-11 | 2026-09-02 06:48:54 | 49.58224 | 8.34466 | 86° | 99km/h | 10698m | -17.7m/s | -54.5°C | 51.6% | 248.4hPa | 2.6V | 02:58:22 | 02:17:49 | 00:00:00 | |
| BIOWL1-15 | 2026-09-02 06:48:54 | 49.58228 | 8.34581 | 85° | 95km/h | 10645m | -18m/s | -54°C | 56.8% | 250.4hPa | 2.5V | 02:58:29 | 02:17:52 | 00:00:00 | |
| BIOWL1-15 | 2026-09-02 06:48:43 | 49.58214 | 8.34241 | 86° | 93km/h | 10801m | -17.6m/s | -55.3°C | 47.2% | 244.2hPa | 2.5V | 02:58:29 | 02:17:43 | 00:00:00 | |
| DO3MHA-11 | 2026-09-02 06:48:43 | 49.58214 | 8.34241 | 86° | 89km/h | 10802m | -17.6m/s | -55.2°C | 47.7% | 244.2hPa | 2.5V | 00:00:00 | 02:17:43 | 00:00:00 | |
| DM0DOS-11 | 2026-09-02 06:48:42 | 49.58209 | 8.34099 | 87° | 88km/h | 10873m | -18.5m/s | -55.8°C | 44.9% | 241.6hPa | 2.5V | 02:58:32 | 02:17:39 | 00:00:00 | |
| BIOWL1-15 | 2026-09-02 06:48:33 | 49.58230 | 8.33799 | 103° | 88km/h | 11039m | -19.4m/s | -55.8°C | 33.3% | 235.3hPa | 2.5V | 02:59:20 | 02:17:30 | 00:00:00 | |
| DO3MHA-11 | 2026-09-02 06:48:33 | 49.58217 | 8.33898 | 100° | 86km/h | 10982m | -19.8m/s | -55.7°C | 37.1% | 237.6hPa | 2.6V | 02:58:00 | 02:17:33 | 00:00:00 | |
| DB0UT-9 | 2026-09-02 06:48:32 | 49.58221 | 8.33865 | 103° | 88km/h | 11001m | -18.9m/s | -55.7°C | 29.0% | 236.8hPa | 2.5V | 02:59:00 | 00:00:00 | 00:00:00 | |
| HEMX73-11 | 2026-09-02 06:48:31 | 49.58225 | 8.33832 | 104° | 88km/h | 11020m | -19.0m/s | -55.7°C | 28.0% | 236.1hPa | 2.5V | 02:59:00 | 00:00:00 | 00:00:00 | |
| DM0DOS-11 | 2026-09-02 06:48:30 | 49.58319 | 8.33410 | 115° | 95km/h | 11262m | -18.4m/s | -55.8°C | 23.1% | 227.3hPa | 2.5V | 02:58:53 | 02:17:18 | 00:00:00 | |
| DM0DOS-11 | 2026-09-02 06:48:30 | 49.58426 | 8.33082 | 117° | 97km/h | 11442m | -18m/s | -55.2°C | 16.3% | 220.9hPa | 2.5V | 02:59:03 | 02:17:08 | 00:00:00 | |
| BIOWL1-15 | 2026-09-02 06:47:49 | 49.58626 | 8.32452 | 118° | 91km/h | 11791m | -19.4m/s | -54.3°C | 4.8% | 209.2hPa | 2.5V | 03:00:11 | 02:16:49 | 00:00:00 | |
| DM0DOS-11 | 2026-09-02 06:47:49 | 49.58657 | 8.32358 | 117° | 88km/h | 11848m | -19.2m/s | -53.5°C | 6.7% | 207.4hPa | 2.6V | 02:59:25 | 02:16:46 | 00:00:00 | |
| BIOWL1-15 | 2026-09-02 06:47:38 | 49.58739 | 8.32114 | 119° | 89km/h | 11999m | -19.7m/s | -52.8°C | 2.4% | 202.5hPa | 2.6V | 03:00:11 | 02:16:38 | 00:00:00 | |
| DB0UT-7 | 2026-09-02 06:47:38 | 49.58739 | 8.32114 | 119° | 89km/h | 12000m | -19.7m/s | -52.7°C | 5.5% | 202.4hPa | 2.6V | 02:59:00 | 00:00:00 | 00:00:00 | |
| DB0ND-19 | 2026-09-02 06:47:35 | 49.58771 | 8.32021 | 119° | 89km/h | 12059m | -20.0m/s | -52.4°C | 2.4% | 200.7hPa | 2.5V | 00:00:00 | 00:00:00 | 00:00:00 | |
| DO3MHA-11 | 2026-09-02 06:47:33 | 49.58793 | 8.31959 | 120° | 89km/h | 12098m | -20.8m/s | -52.2°C | 4.8% | 199.5hPa | 2.5V | 02:59:00 | 02:16:33 | 00:00:00 | |
| BIOWL9-15 | 2026-09-02 06:47:32 | 49.58804 | 8.31929 | 118° | 88km/h | 12119m | -20.3m/s | -52.2°C | 2.1% | 198.8hPa | 2.5V | 00:00:00 | 00:00:00 | 00:00:00 | |
| DM0DOS-11 | 2026-09-02 06:47:31 | 49.58864 | 8.31745 | 116° | 91km/h | 12240m | -21.4m/s | -51.7°C | 4.1% | 195.3hPa | 2.5V | 02:59:45 | 02:16:26 | 00:00:00 | |
| BIOWL1-15 | 2026-09-02 06:47:31 | 49.58854 | 8.31776 | 117° | 88km/h | 12219m | -21.5m/s | -51.7°C | 0.9% | 195.9hPa | 2.5V | 03:00:11 | 02:16:27 | 00:00:00 | |
| DD1CC8 | 2026-09-02 06:47:30 | 49.58824 | 8.31868 | 117° | 86km/h | 12158m | -19.9m/s | -52.1°C | 2.0% | 197.6hPa | 2.6V | 00:00:00 | 00:00:00 | 00:00:00 | |
| HEMX73-11 | 2026-09-02 06:47:27 | 49.58843 | 8.31807 | 118° | 88km/h | 12198m | -21.1m/s | -51.7°C | 1.8% | 196.5hPa | 2.6V | 03:00:00 | 00:00:00 | 00:00:00 | |
| DF3TZ-5 | 2026-09-02 06:47:26 | 49.58864 | 8.31745 | 116° | 89km/h | 12240m | -21.4m/s | -51.7°C | 1.7% | 195.3hPa | 2.6V | 00:00:00 | 00:00:00 | 00:00:00 | |
| BIOWL7-15 | 2026-09-02 06:47:25 | 49.58864 | 8.31745 | 118° | 91km/h | 12240m | -21.4m/s | -51.7°C | 1.7% | 195.3hPa | 2.6V | 00:00:00 | 00:00:00 | 00:00:00 | |
| DJ2DS-15 | 2026-09-02 06:47:24 | 49.58895 | 8.31648 | 116° | 89km/h | 12303m | -20.7m/s | -51.5°C | 1.6% | 193.3hPa | 2.6V | 00:00:00 | 00:00:00 | 00:00:00 | |
| DF7PN | 2026-09-02 06:47:23 | 49.58905 | 8.31617 | 115° | 88km/h | 12323m | -20.1m/s | -51.5°C | 1.6% | 192.7hPa | 2.6V | 00:00:00 | 00:00:00 | 00:00:00 | |
| DM0DOS-11 | 2026-09-02 06:47:21 | 49.58966 | 8.31433 | 118° | 88km/h | 12448m | -21.2m/s | -51.6°C | 3.9% | 189.1hPa | 2.6V | 02:59:55 | 02:16:16 | 00:00:00 | |
| BIOWL1-15 | 2026-09-02 06:47:17 | 49.58956 | 8.31463 | 119° | 88km/h | 12427m | -21.6m/s | -51.6°C | 0.5% | 189.8hPa | 2.6V | 03:00:11 | 02:16:17 | 00:00:00 | |
| DK5PH-5 | 2026-09-02 06:47:15 | 49.58977 | 8.31403 | 120° | 88km/h | 12470m | -21.4m/s | -51.5°C | 3.9% | 188.5hPa | 2.5V | 02:59:00 | 02:16:15 | 00:00:00 | |
| SFWM-10 | 2026-09-02 06:47:14 | 49.58977 | 8.31403 | 121° | 88km/h | 12470m | -21.5m/s | -51.5°C | 1.5% | 188.5hPa | 2.5V | 03:00:00 | 00:00:00 | 00:00:00 | |
| DO3MHA-11 | 2026-09-02 06:47:13 | 49.58998 | 8.31345 | 120° | 89km/h | 12512m | -21.0m/s | -51.6°C | 3.9% | 187.3hPa | 2.5V | 00:00:00 | 02:16:13 | 00:00:00 | |
| DM3KS-11 | 2026-09-02 06:47:10 | 49.59040 | 8.31227 | 119° | 89km/h | 12594m | -20.8m/s | -51.3°C | 1.5% | 184.9hPa | 2.5V | 00:00:00 | 00:00:00 | 00:00:00 | |
| DM0DOS-11 | 2026-09-02 06:47:08 | 49.59074 | 8.31136 | 120° | 91km/h | 12655m | -20.8m/s | -51.6°C | 3.8% | 183.2hPa | 2.5V | 03:00:05 | 02:16:06 | 00:00:00 | |
| BIOWL1-15 | 2026-09-02 06:47:06 | 49.59074 | 8.31136 | 121° | 91km/h | 12655m | -20.8m/s | -51.6°C | 0.4% | 183.2hPa | 2.5V | 03:00:11 | 02:16:06 | 00:00:00 | |
| BIOWL1-15 | 2026-09-02 06:46:58 | 49.59182 | 8.30810 | 115° | 88km/h | 12878m | -21.1m/s | -51.1°C | 0.4% | 176.9hPa | 2.6V | 03:01:02 | 02:15:55 | 00:00:00 | |
| DM0DOS-11 | 2026-09-02 06:46:56 | 49.59221 | 8.30686 | 116° | 89km/h | 12959m | -20.4m/s | -51.1°C | 3.6% | 174.8hPa | 2.6V | 03:00:20 | 02:15:51 | 00:00:00 | |
| DF3TZ-5 | 2026-09-02 06:46:55 | 49.59182 | 8.30810 | 114° | 86km/h | 12878m | -21.1m/s | -51.1°C | 1.4% | 176.9hPa | 2.7V | 00:00:00 | 00:00:00 | 00:00:00 | |
| DF7PN | 2026-09-02 06:46:52 | 49.59221 | 8.30686 | 116° | 89km/h | 12959m | -20.4m/s | -51.1°C | 1.4% | 174.8hPa | 2.7V | 00:00:00 | 00:00:00 | 00:00:00 | |
| DF1GD-15 | 2026-09-02 06:46:48 | 49.59251 | 8.30596 | 118° | 86km/h | 13019m | -21.0m/s | -51.2°C | 1.4% | 173.2hPa | 2.7V | 03:01:00 | 00:00:00 | 00:00:00 | |
| DB0UT-9 | 2026-09-02 06:46:47 | 49.59251 | 8.30596 | 118° | 86km/h | 13019m | -21.0m/s | -51.2°C | 1.4% | 173.2hPa | 2.7V | 03:01:00 | 00:00:00 | 00:00:00 | |
| DM0DOS-11 | 2026-09-02 06:46:46 | 49.59327 | 8.30397 | 124° | 84km/h | 13169m | -21.4m/s | -51.9°C | 3.8% | 169.3hPa | 2.7V | 03:00:30 | 02:15:41 | 00:00:00 | |
| BIOWL1-15 | 2026-09-02 06:46:45 | 49.59282 | 8.30507 | 120° | 86km/h | 13082m | -22.6m/s | -51.6°C | 0.4% | 171.6hPa | 2.6V | 03:01:02 | 02:15:45 | 00:00:00 | |
| BIOWL1-15 | 2026-09-02 06:46:37 | 49.59395 | 8.30239 | 125° | 78km/h | 13295m | -21.7m/s | -52.1°C | 0.5% | 165.9hPa | 2.5V | 03:01:02 | 02:15:35 | 00:00:00 | |
| KANTATE | 2026-09-02 06:46:36 | 49.59373 | 8.30291 | 126° | 78km/h | 13253m | -21.8m/s | 0°C | 0% | 0hPa | 2.6V | 00:00:00 | 00:00:00 | 00:00:00 | |
| SFWM-10 | 2026-09-02 06:46:34 | 49.59406 | 8.30213 | 127° | 82km/h | 13317m | -22.7m/s | -52.2°C | 1.5% | 165.4hPa | 2.6V | 03:01:00 | 00:00:00 | 00:00:00 | |
| DM0DOS-11 | 2026-09-02 06:46:33 | 49.59440 | 8.30134 | 122° | 78km/h | 13383m | -21.8m/s | -52.4°C | 3.9% | 163.8hPa | 2.6V | 03:00:40 | 02:15:31 | 00:00:00 | |
| DO3MHA-11 | 2026-09-02 06:46:33 | 49.59418 | 8.30186 | 125° | 77km/h | 13340m | -22.1m/s | -52.3°C | 3.9% | 164.8hPa | 2.6V | 03:00:00 | 02:15:33 | 00:00:00 | |
| BIOWL9-15 | 2026-09-02 06:46:30 | 49.59451 | 8.30108 | 122° | 77km/h | 13405m | -21.9m/s | -52.5°C | 1.5% | 163.2hPa | 2.7V | 00:00:00 | 00:00:00 | 00:00:00 | |
| DL8DAS-15 | 2026-09-02 06:46:29 | 49.59451 | 8.30108 | 124° | 78km/h | 13405m | -21.9m/s | -52.5°C | 1.5% | 163.2hPa | 2.7V | 00:00:00 | 00:00:00 | 00:00:00 | |
| DJ2DS-15 | 2026-09-02 06:46:28 | 49.59473 | 8.30056 | 123° | 71km/h | 13450m | -22.2m/s | -52.6°C | 4.0% | 162.0hPa | 2.7V | 00:00:00 | 02:15:28 | 00:00:00 | |
| DF1GD-15 | 2026-09-02 06:46:27 | 49.59473 | 8.30056 | 124° | 75km/h | 13450m | -22.3m/s | -52.6°C | 1.6% | 162.1hPa | 2.5V | 03:01:00 | 00:00:00 | 00:00:00 | |
| DM0DOS-11 | 2026-09-02 06:46:26 | 49.59539 | 8.29889 | 118° | 66km/h | 13606m | -22.8m/s | -52.9°C | 4.1% | 158.2hPa | 2.5V | 03:00:50 | 02:15:21 | 00:00:00 | |
| BIOWL1-15 | 2026-09-02 06:46:26 | 49.59513 | 8.29959 | 123° | 71km/h | 13539m | -22.9m/s | -52.7°C | 0.5% | 159.9hPa | 2.6V | 03:01:02 | 02:15:24 | 00:00:00 | |
| DO3MHA-11 | 2026-09-02 06:46:23 | 49.59522 | 8.29935 | 122° | 69km/h | 13561m | -22.7m/s | -52.7°C | 3.9% | 159.3hPa | 2.6V | 00:00:00 | 02:15:23 | 00:00:00 | |
| BIOWL7-15 | 2026-09-02 06:46:22 | 49.59522 | 8.29935 | 123° | 69km/h | 13561m | -22.7m/s | -52.7°C | 1.4% | 159.3hPa | 2.6V | 03:01:00 | 00:00:00 | 00:00:00 | |
| CB1BUN | 2026-09-02 06:46:21 | 49.59531 | 8.29912 | 121° | 68km/h | 13583m | -22.4m/s | -52.8°C | 1.5% | 158.8hPa | 2.6V | 03:01:00 | 00:00:00 | 00:00:00 | |
| DF7PN | 2026-09-02 06:46:20 | 49.59547 | 8.29866 | 117° | 68km/h | 13628m | -22.5m/s | -53.0°C | 1.5% | 157.7hPa | 2.6V | 00:00:00 | 00:00:00 | 00:00:00 | |
| DM7RM-13 | 2026-09-02 06:46:17 | 49.59563 | 8.29818 | 120° | 69km/h | 13674m | -23.3m/s | -53.1°C | 1.5% | 156.6hPa | 2.6V | 03:01:00 | 00:00:00 | 00:00:00 | |
| DM0DOS-11 | 2026-09-02 06:46:16 | 49.59629 | 8.29642 | 120° | 78km/h | 13826m | -22.9m/s | -53.7°C | 4.3% | 153hPa | 2.6V | 03:01:00 | 02:15:11 | 00:00:00 | |
| BIOWL1-15 | 2026-09-02 06:46:15 | 49.59609 | 8.29695 | 121° | 75km/h | 13782m | -22.6m/s | -53.7°C | 0.7% | 153.9hPa | 2.6V | 03:01:02 | 02:15:13 | 00:00:00 | |
| DK5PH-5 | 2026-09-02 06:46:15 | 49.59590 | 8.29745 | 120° | 69km/h | 13740m | -20.9m/s | -53.4°C | 4.3% | 154.9hPa | 2.6V | 00:00:00 | 02:15:15 | 00:00:00 | |
| DO3MHA-11 | 2026-09-02 06:46:13 | 49.59609 | 8.29695 | 121° | 75km/h | 13782m | -22.5m/s | -53.6°C | 4.3% | 153.9hPa | 2.6V | 00:00:00 | 02:15:13 | 00:00:00 | |
| DL8DAS-14 | 2026-09-02 06:46:12 | 49.59629 | 8.29642 | 120° | 77km/h | 13826m | -23.0m/s | -53.7°C | 1.6% | 153.0hPa | 2.6V | 00:00:00 | 00:00:00 | 00:00:00 | |
| DJ2DS-15 | 2026-09-02 06:46:11 | 49.59629 | 8.29642 | 120° | 77km/h | 13826m | -23.0m/s | -53.7°C | 1.6% | 153.0hPa | 2.6V | 00:00:00 | 00:00:00 | 00:00:00 | |
| DJTTGO | 2026-09-02 06:46:09 | 49.59638 | 8.29616 | 121° | 78km/h | 13848m | -22.5m/s | -53.7°C | 1.5% | 152.4hPa | 2.6V | 00:00:00 | 00:00:00 | 00:00:00 | |
| DJ2DS-15 | 2026-09-02 06:46:08 | 49.59659 | 8.29563 | 122° | 68km/h | 13893m | -22.9m/s | -53.9°C | 4.4% | 151.3hPa | 2.6V | 00:00:00 | 02:15:08 | 00:00:00 | |
| DF1GD-15 | 2026-09-02 06:46:07 | 49.59659 | 8.29563 | 122° | 77km/h | 13893m | -22.9m/s | -54.0°C | 1.6% | 151.3hPa | 2.6V | 03:01:00 | 00:00:00 | 00:00:00 | |
| DM0DOS-11 | 2026-09-02 06:46:06 | 49.59724 | 8.29393 | 118° | 66km/h | 14052m | -23.5m/s | -53.4°C | 4.1% | 147.6hPa | 2.6V | 03:01:10 | 02:15:01 | 00:00:00 | |
| BIOWL1-15 | 2026-09-02 06:46:03 | 49.59708 | 8.29439 | 120° | 68km/h | 14006m | -23m/s | -53.5°C | 0.5% | 148.7hPa | 2.5V | 03:01:53 | 02:15:03 | 00:00:00 | |
| BIOWL1-15 | 2026-09-02 06:45:53 | 49.59776 | 8.29210 | 109° | 66km/h | 14235m | -22m/s | -52.5°C | 0.2% | 143.4hPa | 2.6V | 03:01:53 | 02:14:53 | 00:00:00 | |
| DO3MHA-11 | 2026-09-02 06:45:53 | 49.59776 | 8.29210 | 110° | 66km/h | 14235m | -21.9m/s | -52.5°C | 3.8% | 143.3hPa | 2.6V | 03:01:00 | 02:14:53 | 00:00:00 | |
| DL8DAS-15 | 2026-09-02 06:45:52 | 49.59775 | 8.29210 | 110° | 66km/h | 14235m | -22.0m/s | -52.5°C | 1.2% | 143.4hPa | 2.6V | 03:01:00 | 00:00:00 | 00:00:00 | |
| DN1GJH-1 | 2026-09-02 06:45:50 | 49.59786 | 8.29161 | 109° | 68km/h | 14275m | -19.2m/s | -52.6°C | 1.2% | 142.5hPa | 2.6V | 03:01:00 | 00:00:00 | 00:00:00 | |
| DM0DOS-11 | 2026-09-02 06:45:49 | 49.59823 | 8.28988 | 108° | 66km/h | 14431m | -23.3m/s | -52.3°C | 3.6% | 139.2hPa | 2.6V | 03:01:27 | 02:14:44 | 00:00:00 | |
| DJ2DS-15 | 2026-09-02 06:45:48 | 49.59801 | 8.29087 | 108° | 68km/h | 14341m | -23.6m/s | -52.3°C | 3.7% | 141.1hPa | 2.6V | 00:00:00 | 02:14:48 | 00:00:00 | |
| DF1GD-15 | 2026-09-02 06:45:46 | 49.59806 | 8.29062 | 110° | 66km/h | 14363m | -22.9m/s | -52.4°C | 1.2% | 140.6hPa | 2.6V | 03:01:00 | 00:00:00 | 00:00:00 | |
| DK5PH-5 | 2026-09-02 06:45:45 | 49.59817 | 8.29013 | 110° | 64km/h | 14409m | -22.7m/s | -52.4°C | 3.8% | 139.6hPa | 2.6V | 00:00:00 | 02:14:45 | 00:00:00 | |
| DB0UT-9 | 2026-09-02 06:45:44 | 49.59818 | 8.29013 | 110° | 68km/h | 14409m | -22.7m/s | -52.4°C | 1.2% | 139.7hPa | 2.6V | 03:01:00 | 00:00:00 | 00:00:00 | |
| DO3MHA-11 | 2026-09-02 06:45:43 | 49.59828 | 8.28964 | 109° | 69km/h | 14454m | -22.7m/s | -52.2°C | 3.7% | 138.6hPa | 2.6V | 00:00:00 | 02:14:43 | 00:00:00 | |
| BIOWL7-15 | 2026-09-02 06:45:42 | 49.59828 | 8.28964 | 109° | 68km/h | 14454m | -22.7m/s | -52.3°C | 1.2% | 138.7hPa | 2.6V | 00:00:00 | 00:00:00 | 00:00:00 | |
| BIOWL1-15 | 2026-09-02 06:45:42 | 49.59834 | 8.28938 | 108° | 68km/h | 14477m | -23.6m/s | -52.3°C | 0% | 138.2hPa | 2.6V | 03:01:53 | 02:14:42 | 00:00:00 | |
| DL8DAS-14 | 2026-09-02 06:45:40 | 49.59844 | 8.28887 | 106° | 66km/h | 14524m | -23.0m/s | -52.4°C | 1.1% | 137.2hPa | 2.6V | 00:00:00 | 00:00:00 | 00:00:00 | |
| DM0DOS-11 | 2026-09-02 06:45:39 | 49.59873 | 8.28728 | 106° | 71km/h | 14658m | -23.5m/s | -52.3°C | 3.6% | 134.5hPa | 2.6V | 03:01:37 | 02:14:34 | 00:00:00 | |
| BIOWL1-15 | 2026-09-02 06:45:35 | 49.59889 | 8.28649 | 107° | 71km/h | 14726m | -22.4m/s | -52.7°C | 0.1% | 133hPa | 2.6V | 03:01:53 | 02:14:31 | 00:00:00 | |
| DO3MHA-11 | 2026-09-02 06:45:33 | 49.59878 | 8.28702 | 107° | 68km/h | 14681m | -23.2m/s | -52.5°C | 3.7% | 133.9hPa | 2.7V | 00:00:00 | 02:14:33 | 00:00:00 | |
| SFWM-10 | 2026-09-02 06:45:32 | 49.59879 | 8.28702 | 108° | 69km/h | 14681m | -23.2m/s | -52.5°C | 1.1% | 134.0hPa | 2.7V | 03:01:00 | 00:00:00 | 00:00:00 | |
| DO3DL | 2026-09-02 06:45:30 | 49.59889 | 8.28649 | 108° | 71km/h | 14726m | -22.4m/s | -52.7°C | 0% | 0hPa | 2.7V | 03:01:00 | 00:00:00 | 00:00:00 | |
| BIOWL9-15 | 2026-09-02 06:45:28 | 49.59915 | 8.28551 | 119° | 69km/h | 14816m | -24.7m/s | -52.2°C | 1.1% | 131.2hPa | 2.7V | 00:00:00 | 00:00:00 | 00:00:00 | |
| DH7VM-15 | 2026-09-02 06:45:26 | 49.59924 | 8.28528 | 121° | 66km/h | 14842m | -24.8m/s | -52.2°C | 1.0% | 130.7hPa | 2.7V | 00:00:00 | 00:00:00 | 00:00:00 | |
| DM0DOS-11 | 2026-09-02 06:45:25 | 49.59975 | 8.28415 | 129° | 55km/h | 14978m | -23.3m/s | -52.3°C | 3.5% | 127.8hPa | 2.7V | 03:01:51 | 02:14:20 | 00:00:00 | |
| BIOWL1-15 | 2026-09-02 06:45:20 | 49.59975 | 8.28415 | 129° | 55km/h | 14978m | -23.3m/s | -52.3°C | 0% | 127.8hPa | 2.7V | 03:01:53 | 02:14:20 | 00:00:00 | |
| DJTTGO | 2026-09-02 06:45:19 | 49.59975 | 8.28415 | 130° | 55km/h | 14979m | -23.3m/s | -52.3°C | 1.0% | 127.8hPa | 2.7V | 00:00:00 | 00:00:00 | 00:00:00 | |
| AU51GT2 | 2026-09-02 06:45:18 | 49.59993 | 8.28384 | 131° | 51km/h | 15026m | -24.1m/s | -52.4°C | -1.0% | -1.0hPa | 2.7V | 00:00:00 | 00:00:00 | 00:00:00 | |
| DM0DOS-11 | 2026-09-02 06:45:15 | 49.60047 | 8.28267 | 115° | 42km/h | 15212m | -23.2m/s | -52.5°C | 3.6% | 123.3hPa | 2.7V | 03:02:01 | 02:14:10 | 00:00:00 | |
| HSKMA3-T | 2026-09-02 06:45:09 | 49.60052 | 8.28252 | 112° | 44km/h | 15235m | -22.5m/s | -52.4°C | 0% | 122.9hPa | 2.7V | 03:06:08 | 02:14:09 | 00:00:00 | |
| DJ2DS-15 | 2026-09-02 06:45:08 | 49.60056 | 8.28236 | 114° | 46km/h | 15256m | -21.0m/s | -52.3°C | 3.5% | 122.5hPa | 2.6V | 00:00:00 | 02:14:08 | 00:00:00 | |
| DN1GJH-1 | 2026-09-02 06:45:07 | 49.60056 | 8.28236 | 114° | 44km/h | 15256m | -21.1m/s | -52.4°C | 1.0% | 122.5hPa | 2.6V | 03:02:00 | 00:00:00 | 00:00:00 | |
| DM3KS-11 | 2026-09-02 06:45:06 | 49.60066 | 8.28191 | 107° | 42km/h | 15320m | -23.3m/s | -52.2°C | 1.0% | 121.2hPa | 2.6V | 00:00:00 | 00:00:00 | 00:00:00 | |
| DB0UT-9 | 2026-09-02 06:45:04 | 49.60066 | 8.28191 | 108° | 42km/h | 15320m | -23.3m/s | -52.2°C | 1.0% | 121.2hPa | 2.6V | 03:02:00 | 00:00:00 | 00:00:00 | |
| DM0DOS-11 | 2026-09-02 06:45:03 | 49.60077 | 8.28078 | 95° | 44km/h | 15479m | -24.5m/s | -52.4°C | 3.5% | 118.4hPa | 2.6V | 03:02:13 | 02:13:58 | 00:00:00 | |
| DL1XH-west | 2026-09-02 06:45:02 | 49.60074 | 8.28142 | 103° | 44km/h | 15385m | -22.5m/s | -52.4°C | 0% | 120hPa | 2.7V | 03:02:44 | 02:14:02 | 00:00:00 | |
| BIOWL1-15 | 2026-09-02 06:45:01 | 49.60076 | 8.28095 | 98° | 44km/h | 15456m | -24.3m/s | -52.5°C | 0% | 118.8hPa | 2.6V | 03:02:44 | 02:13:59 | 00:00:00 | |
| DL1XH-west | 2026-09-02 06:44:51 | 49.60071 | 8.27948 | 88° | 57km/h | 15643m | -23.2m/s | -53.1°C | 0% | 115.3hPa | 2.7V | 03:02:44 | 02:13:51 | 00:00:00 | |
| BIOWL1-15 | 2026-09-02 06:44:48 | 49.60070 | 8.27882 | 91° | 60km/h | 15712m | -25.7m/s | -52.9°C | 0% | 114.2hPa | 2.6V | 03:02:44 | 02:13:48 | 00:00:00 | |
| DJ2DS-15 | 2026-09-02 06:44:48 | 49.60070 | 8.27882 | 92° | 58km/h | 15712m | -25.6m/s | -52.9°C | 3.7% | 114.1hPa | 2.6V | 00:00:00 | 02:13:48 | 00:00:00 | |
| DM0DOS-11 | 2026-09-02 06:44:47 | 49.60073 | 8.27733 | 91° | 60km/h | 15855m | -24.9m/s | -52.8°C | 3.6% | 111.7hPa | 2.6V | 03:02:29 | 02:13:42 | 00:00:00 | |
| BIOWL1-15 | 2026-09-02 06:44:37 | 49.60078 | 8.27623 | 97° | 53km/h | 15975m | -24m/s | -52.6°C | 0% | 109.6hPa | 2.6V | 03:02:44 | 02:13:37 | 00:00:00 | |
| DL1XH-west | 2026-09-02 06:44:31 | 49.60092 | 8.27505 | 103° | 57km/h | 16126m | -24.2m/s | -52.5°C | 0% | 107.2hPa | 2.6V | 03:02:44 | 02:13:31 | 00:00:00 | |
| BIOWL1-15 | 2026-09-02 06:44:29 | 49.60112 | 8.27399 | 108° | 55km/h | 16246m | -24.3m/s | -52.8°C | 0% | 105.1hPa | 2.6V | 03:03:35 | 02:13:26 | 00:00:00 | |
| DL1XH-west | 2026-09-02 06:44:20 | 49.60133 | 8.27279 | 104° | 51km/h | 16394m | -26.8m/s | -53.2°C | 0% | 102.8hPa | 2.6V | 03:03:35 | 02:13:20 | 00:00:00 | |
| DL1XH1-15 | 2026-09-02 06:44:19 | 49.60149 | 8.27169 | 104° | 46km/h | 16549m | -26.1m/s | -53.4°C | 3.7% | 100.3hPa | 2.6V | 03:02:57 | 02:13:14 | 00:00:00 | |
| BIOWL1-15 | 2026-09-02 06:44:17 | 49.60147 | 8.27186 | 104° | 46km/h | 16522m | -26.5m/s | -53.2°C | 0% | 100.7hPa | 2.6V | 03:03:35 | 02:13:15 | 00:00:00 | |
| DL1XH-west | 2026-09-02 06:44:09 | 49.60166 | 8.27078 | 106° | 49km/h | 16674m | -25.4m/s | -53°C | 0% | 98.4hPa | 2.6V | 03:03:35 | 02:13:09 | 00:00:00 | |
| DL1XH1-15 | 2026-09-02 06:44:09 | 49.60182 | 8.26995 | 111° | 44km/h | 16803m | -26.2m/s | -52.7°C | 3.4% | 96.4hPa | 2.6V | 03:03:07 | 02:13:04 | 00:00:00 | |
| BIOWL1-15 | 2026-09-02 06:44:08 | 49.60182 | 8.26995 | 111° | 44km/h | 16803m | -26.2m/s | -52.7°C | 0% | 96.4hPa | 2.6V | 03:03:35 | 02:13:04 | 00:00:00 | |
| DB0UT-7 | 2026-09-02 06:44:08 | 49.60169 | 8.27060 | 106° | 38km/h | 16700m | -26.0m/s | -52.7°C | 3.5% | 98.0hPa | 2.7V | 03:03:00 | 02:13:08 | 00:00:00 | |
| DL9PN | 2026-09-02 06:44:07 | 49.60172 | 8.27044 | 106° | 44km/h | 16726m | -26.6m/s | -52.7°C | 0.9% | 97.6hPa | 2.7V | 00:00:00 | 00:00:00 | 00:00:00 | |
| DF2AP-13 | 2026-09-02 06:44:06 | 49.60175 | 8.27028 | 109° | 40km/h | 16752m | -26.2m/s | -52.5°C | 3.3% | 97.2hPa | 2.7V | 00:00:00 | 02:13:06 | 00:00:00 | |
| DO1YAY-16 | 2026-09-02 06:44:05 | 49.60179 | 8.27012 | 109° | 44km/h | 16778m | -26.1m/s | -52.5°C | 0.8% | 96.9hPa | 2.7V | 00:00:00 | 00:00:00 | 00:00:00 | |
| DM3KS-11 | 2026-09-02 06:44:04 | 49.60186 | 8.26980 | 111° | 42km/h | 16829m | -26.7m/s | -52.8°C | 0.8% | 96.1hPa | 2.7V | 00:00:00 | 00:00:00 | 00:00:00 | |
| DL4BBY-15 | 2026-09-02 06:44:03 | 49.60186 | 8.26980 | 112° | 38km/h | 16829m | -26.7m/s | -54.0°C | 0% | 0hPa | 2.7V | 00:00:00 | 00:00:00 | 00:00:00 | |
| DF1GD-15 | 2026-09-02 06:44:02 | 49.60186 | 8.26980 | 113° | 42km/h | 16829m | -26.7m/s | -52.8°C | 0.9% | 96.1hPa | 2.7V | 03:03:00 | 00:00:00 | 00:00:00 | |
| DL8DAS-15 | 2026-09-02 06:44:01 | 49.60190 | 8.26965 | 114° | 38km/h | 16855m | -26.8m/s | -52.7°C | 0.9% | 95.7hPa | 2.7V | 03:03:00 | 00:00:00 | 00:00:00 | |
| DN1GJH-1 | 2026-09-02 06:44:00 | 49.60193 | 8.26952 | 113° | 37km/h | 16882m | -26.2m/s | -52.7°C | 0.9% | 95.3hPa | 2.7V | 00:00:00 | 00:00:00 | 00:00:00 | |
| DL1XH1-15 | 2026-09-02 06:43:59 | 49.60213 | 8.26866 | 100° | 33km/h | 17058m | -25.4m/s | -52.7°C | 3.5% | 92.8hPa | 2.7V | 03:03:17 | 02:12:54 | 00:00:00 | |
| DL1XH-west | 2026-09-02 06:43:58 | 49.60204 | 8.26913 | 113° | 35km/h | 16957m | -24.5m/s | -52.7°C | 0% | 94.2hPa | 2.6V | 03:03:35 | 02:12:58 | 00:00:00 | |
| BIOWL1-15 | 2026-09-02 06:43:53 | 49.60213 | 8.26853 | 95° | 33km/h | 17083m | -25.4m/s | -52.8°C | 0% | 92.4hPa | 2.6V | 03:03:35 | 02:12:53 | 00:00:00 | |
| DD1CC8 | 2026-09-02 06:43:52 | 49.60214 | 8.26841 | 99° | 31km/h | 17108m | -25.6m/s | -52.9°C | 0.9% | 92.0hPa | 2.7V | 00:00:00 | 00:00:00 | 00:00:00 | |
| DL1XH1-15 | 2026-09-02 06:43:49 | 49.60231 | 8.26722 | 108° | 46km/h | 17319m | -26.5m/s | -53.5°C | 3.6% | 89hPa | 2.7V | 03:03:27 | 02:12:44 | 00:00:00 | |
| DL1XH-west | 2026-09-02 06:43:48 | 49.60220 | 8.26786 | 104° | 40km/h | 17211m | -26.6m/s | -53.6°C | 0% | 90.5hPa | 2.7V | 03:03:35 | 02:12:48 | 00:00:00 | |
| DJ2DS-15 | 2026-09-02 06:43:47 | 49.60222 | 8.26771 | 104° | 38km/h | 17238m | -27.3m/s | -53.7°C | 0.9% | 90.2hPa | 2.7V | 00:00:00 | 00:00:00 | 00:00:00 | |
| DF7PN | 2026-09-02 06:43:45 | 49.60227 | 8.26739 | 108° | 44km/h | 17293m | -26.9m/s | -53.6°C | 0.9% | 89.4hPa | 2.7V | 00:00:00 | 00:00:00 | 00:00:00 | |
| BIOWL1-15 | 2026-09-02 06:43:43 | 49.60234 | 8.26706 | 110° | 46km/h | 17344m | -26m/s | -53.3°C | 0% | 88.6hPa | 2.7V | 03:03:35 | 02:12:43 | 00:00:00 | |
| DO3MHA-11 | 2026-09-02 06:43:43 | 49.60234 | 8.26706 | 110° | 38km/h | 17345m | -25.9m/s | -53.3°C | 3.6% | 88.6hPa | 2.6V | 00:00:00 | 02:12:43 | 00:00:00 | |
| DB0UT-9 | 2026-09-02 06:43:42 | 49.60234 | 8.26706 | 111° | 46km/h | 17345m | -26.0m/s | -53.3°C | 0.9% | 88.6hPa | 2.6V | 03:03:00 | 00:00:00 | 00:00:00 | |
| DF1GD-15 | 2026-09-02 06:43:41 | 49.60238 | 8.26689 | 115° | 46km/h | 17370m | -26.1m/s | -53.3°C | 0.9% | 88.3hPa | 2.6V | 03:03:00 | 00:00:00 | 00:00:00 | |
| DL0LBS | 2026-09-02 06:43:40 | 49.60245 | 8.26658 | 113° | 42km/h | 17419m | -24.4m/s | -53.4°C | 0.9% | 87.6hPa | 2.6V | 03:03:00 | 00:00:00 | 00:00:00 | |
| DL1XH1-15 | 2026-09-02 06:43:39 | 49.60263 | 8.26580 | 107° | 27km/h | 17574m | -27.3m/s | -53.4°C | 3.7% | 85.6hPa | 2.6V | 03:03:37 | 02:12:34 | 00:00:00 | |
| DL1XH-west | 2026-09-02 06:43:37 | 49.60254 | 8.26616 | 106° | 38km/h | 17494m | -26.9m/s | -53.2°C | 0% | 86.7hPa | 2.7V | 03:03:35 | 02:12:37 | 00:00:00 | |
| BIOWL1-15 | 2026-09-02 06:43:34 | 49.60267 | 8.26559 | 108° | 26km/h | 17628m | -26.4m/s | -53°C | 0% | 84.9hPa | 2.7V | 03:04:26 | 02:12:32 | 00:00:00 | |
| DO3MHA-11 | 2026-09-02 06:43:33 | 49.60265 | 8.26569 | 110° | 26km/h | 17601m | -27.2m/s | -53.2°C | 3.6% | 85.2hPa | 2.7V | 00:00:00 | 02:12:33 | 00:00:00 | |
| DM7RM-13 | 2026-09-02 06:43:32 | 49.60267 | 8.26559 | 109° | 26km/h | 17628m | -26.4m/s | -53.0°C | 0.9% | 84.9hPa | 2.7V | 03:04:00 | 00:00:00 | 00:00:00 | |
| DL1XH1-15 | 2026-09-02 06:43:30 | 49.60282 | 8.26481 | 105° | 26km/h | 17832m | -24.2m/s | -53.7°C | 3.8% | 82.2hPa | 2.7V | 03:03:47 | 02:12:24 | 00:00:00 | |
| DL1XH-west | 2026-09-02 06:43:26 | 49.60278 | 8.26502 | 106° | 27km/h | 17782m | -26.5m/s | -53.5°C | 0% | 82.9hPa | 2.6V | 03:04:26 | 02:12:26 | 00:00:00 | |
| BIOWL1-15 | 2026-09-02 06:43:22 | 49.60285 | 8.26462 | 97° | 24km/h | 17881m | -23.6m/s | -53.5°C | 0% | 81.6hPa | 2.7V | 03:04:26 | 02:12:22 | 00:00:00 | |
| DB0UT-9 | 2026-09-02 06:43:21 | 49.60285 | 8.26462 | 98° | 24km/h | 17881m | -23.6m/s | -53.5°C | 0.9% | 81.6hPa | 2.6V | 03:04:00 | 00:00:00 | 00:00:00 | |
| DL1XH1-15 | 2026-09-02 06:43:19 | 49.60291 | 8.26378 | 91° | 27km/h | 18089m | -26.7m/s | -53.5°C | 3.7% | 79.1hPa | 2.6V | 03:03:57 | 02:12:14 | 00:00:00 | |
| HSKMA3-T | 2026-09-02 06:43:18 | 49.60288 | 8.26421 | 96° | 27km/h | 17983m | -26.1m/s | -53.2°C | 0% | 80.3hPa | 2.7V | 03:06:08 | 02:12:18 | 00:00:00 | |
| DL1XH-west | 2026-09-02 06:43:15 | 49.60290 | 8.26388 | 93° | 27km/h | 18062m | -27.3m/s | -53.3°C | 0% | 79.4hPa | 2.6V | 03:04:26 | 02:12:15 | 00:00:00 | |
| BIOWL1-15 | 2026-09-02 06:43:12 | 49.60290 | 8.26356 | 87° | 29km/h | 18141m | -26m/s | -53.5°C | 0% | 78.4hPa | 2.7V | 03:04:26 | 02:12:12 | 00:00:00 | |
| DJ2DS-15 | 2026-09-02 06:43:11 | 49.60290 | 8.26345 | 84° | 27km/h | 18166m | -26.0m/s | -53.3°C | 0.8% | 78.1hPa | 2.6V | 00:00:00 | 00:00:00 | 00:00:00 | |
| DL1XH1-15 | 2026-09-02 06:43:09 | 49.60284 | 8.26263 | 86° | 31km/h | 18348m | -27.4m/s | -53°C | 3.6% | 75.9hPa | 2.6V | 03:04:07 | 02:12:04 | 00:00:00 | |
| HSKMA3-T | 2026-09-02 06:43:07 | 49.60286 | 8.26298 | 85° | 31km/h | 18267m | -27.5m/s | -53.4°C | 0% | 76.9hPa | 2.7V | 03:06:08 | 02:12:07 | 00:00:00 | |
| DL1XH-west | 2026-09-02 06:43:04 | 49.60284 | 8.26263 | 87° | 31km/h | 18348m | -27.4m/s | -53°C | 0% | 75.9hPa | 2.6V | 03:04:26 | 02:12:04 | 00:00:00 | |
| BIOWL1-15 | 2026-09-02 06:43:01 | 49.60281 | 8.26227 | 86° | 31km/h | 18428m | -26.5m/s | -52.7°C | 0% | 74.9hPa | 2.6V | 03:04:26 | 02:12:01 | 00:00:00 | |
| DF1GD-15 | 2026-09-02 06:43:00 | 49.60280 | 8.26227 | 87° | 31km/h | 18428m | -26.5m/s | -52.7°C | 0.8% | 74.9hPa | 2.6V | 03:04:00 | 00:00:00 | 00:00:00 | |
| DL1XH1-15 | 2026-09-02 06:42:59 | 49.60277 | 8.26132 | 88° | 37km/h | 18610m | -27.9m/s | -53°C | 3.8% | 72.9hPa | 2.6V | 03:04:17 | 02:11:54 | 00:00:00 | |
| DL1XH-west | 2026-09-02 06:42:53 | 49.60276 | 8.26118 | 86° | 37km/h | 18638m | -27.4m/s | -52.9°C | 0% | 72.5hPa | 2.6V | 03:04:26 | 02:11:53 | 00:00:00 | |
| BIOWL1-15 | 2026-09-02 06:42:51 | 49.60274 | 8.26087 | 83° | 42km/h | 18693m | -28.1m/s | -52.6°C | 0% | 72hPa | 2.7V | 03:04:26 | 02:11:51 | 00:00:00 | |
| HTAHTA | 2026-09-02 06:42:50 | 49.60267 | 8.26024 | 78° | 44km/h | 18815m | -31.9m/s | -52.4°C | 0.8% | 70.7hPa | 2.6V | 00:00:00 | 00:00:00 | 00:00:00 | |
| DL1XH1-15 | 2026-09-02 06:42:49 | 49.60261 | 8.25972 | 80° | 44km/h | 18907m | -30m/s | -52.7°C | 3.7% | 69.6hPa | 2.6V | 03:04:27 | 02:11:44 | 00:00:00 | |
| DL3AQ-11 | 2026-09-02 06:42:47 | 49.60267 | 8.26024 | 78° | 44km/h | 18815m | -31.9m/s | -52.4°C | 0.8% | 70.7hPa | 2.6V | 00:00:00 | 00:00:00 | 00:00:00 | |
| HSKMA3-T | 2026-09-02 06:42:44 | 49.60261 | 8.25972 | 80° | 44km/h | 18907m | -30m/s | -52.7°C | 0% | 69.6hPa | 2.6V | 03:06:08 | 02:11:44 | 00:00:00 | |
| DL1XH-west | 2026-09-02 06:42:42 | 49.60258 | 8.25940 | 88° | 40km/h | 18966m | -30m/s | -52.2°C | 0% | 69.1hPa | 2.7V | 03:05:17 | 02:11:42 | 00:00:00 | |
| BIOWL1-15 | 2026-09-02 06:42:40 | 49.60258 | 8.25908 | 97° | 40km/h | 19025m | -29.2m/s | -52°C | 0% | 68.5hPa | 2.6V | 03:05:17 | 02:11:40 | 00:00:00 | |
| BIOWL1-15 | 2026-09-02 06:42:32 | 49.60289 | 8.25760 | 119° | 33km/h | 19313m | -24.6m/s | -51.5°C | 0% | 65.3hPa | 2.7V | 03:05:17 | 02:11:30 | 00:00:00 | |
| DL1XH-west | 2026-09-02 06:42:31 | 49.60285 | 8.25773 | 116° | 37km/h | 19287m | -27.3m/s | -51.6°C | 0% | 65.6hPa | 2.7V | 03:05:17 | 02:11:31 | 00:00:00 | |
| HSKMA3-T | 2026-09-02 06:42:22 | 49.60327 | 8.25695 | 146° | 22km/h | 19508m | -22.9m/s | -51°C | 0% | 63.3hPa | 2.6V | 03:06:08 | 02:11:22 | 00:00:00 | |
| BIOWL1-15 | 2026-09-02 06:42:21 | 49.60341 | 8.25682 | 152° | 15km/h | 19579m | -24.1m/s | -51.5°C | 0% | 62.7hPa | 2.7V | 03:05:17 | 02:11:19 | 00:00:00 | |
| DL1XH-west | 2026-09-02 06:42:20 | 49.60337 | 8.25686 | 150° | 20km/h | 19554m | -23.7m/s | -51.3°C | 0% | 62.9hPa | 2.7V | 03:05:17 | 02:11:20 | 00:00:00 | |
| DL1XH1-15 | 2026-09-02 06:42:19 | 49.60355 | 8.25669 | 143° | 11km/h | 19694m | -23.5m/s | -51.9°C | 3.2% | 61.6hPa | 2.7V | 03:04:57 | 02:11:14 | 00:00:00 | |
| HSKMA3-T | 2026-09-02 06:42:11 | 49.60360 | 8.25663 | 133° | 5km/h | 19762m | -22.7m/s | -52°C | 0% | 60.9hPa | 2.6V | 03:06:08 | 02:11:11 | 00:00:00 | |
| DO3MHA-11 | 2026-09-02 06:42:10 | 49.60361 | 8.25661 | 136° | 7km/h | 19785m | -22.1m/s | -52.1°C | 3.2% | 60.7hPa | 2.6V | 03:05:00 | 02:11:10 | 00:00:00 | |
| DL1XH1-15 | 2026-09-02 06:42:09 | 49.60357 | 8.25654 | 24° | 9km/h | 19921m | -23.3m/s | -52.6°C | 3.3% | 59.4hPa | 2.6V | 03:05:07 | 02:11:04 | 00:00:00 | |
| DL1XH-west | 2026-09-02 06:42:09 | 49.60362 | 8.25659 | 108° | 4km/h | 19807m | -23.2m/s | -52.2°C | 0% | 60.5hPa | 2.7V | 03:05:17 | 02:11:09 | 00:00:00 | |
| BIOWL1-15 | 2026-09-02 06:42:08 | 49.60362 | 8.25658 | 82° | 2km/h | 19830m | -22m/s | -52.3°C | 0% | 60.3hPa | 2.7V | 03:05:17 | 02:11:08 | 00:00:00 | |
| DJTTGO | 2026-09-02 06:42:08 | 49.60361 | 8.25658 | 83° | 2km/h | 19830m | -22.0m/s | -52.3°C | 0.7% | 60.3hPa | 2.7V | 03:05:00 | 00:00:00 | 00:00:00 | |
| NBG1-10 | 2026-09-02 06:42:07 | 49.60361 | 8.25657 | 356° | 22km/h | 19853m | -22.9m/s | -52.3°C | 3.3% | 60.0hPa | 2.7V | 00:00:00 | 02:11:07 | 00:00:00 | |
| DB0UT-7 | 2026-09-02 06:42:06 | 49.60360 | 8.25656 | 1° | 22km/h | 19876m | -23.4m/s | -52.4°C | 3.2% | 59.8hPa | 2.7V | 03:05:00 | 02:11:06 | 00:00:00 | |
| SFWM-10 | 2026-09-02 06:42:04 | 49.60358 | 8.25655 | 20° | 7km/h | 19899m | -22.6m/s | -52.5°C | 0.7% | 59.6hPa | 2.7V | 03:05:00 | 00:00:00 | 00:00:00 | |
| DL4BBY-15 | 2026-09-02 06:42:03 | 49.60354 | 8.25651 | 34° | 24km/h | 19944m | -22.5m/s | -54.1°C | 0% | 0hPa | 2.7V | 00:00:00 | 00:00:00 | 00:00:00 | |
| DO1YAY-16 | 2026-09-02 06:42:01 | 49.60349 | 8.25644 | 51° | 15km/h | 19988m | -22.0m/s | -53.2°C | 0.7% | 58.8hPa | 2.7V | 00:00:00 | 00:00:00 | 00:00:00 | |
| DO3MHA-11 | 2026-09-02 06:42:00 | 49.60347 | 8.25639 | 60° | 18km/h | 20010m | -22.7m/s | -53.3°C | 3.4% | 58.6hPa | 2.7V | 00:00:00 | 02:11:00 | 00:00:00 | |
| DL1XH1-15 | 2026-09-02 06:41:59 | 49.60341 | 8.25596 | 91° | 16km/h | 20146m | -24m/s | -54.4°C | 3.8% | 57.4hPa | 2.7V | 03:05:17 | 02:10:54 | 00:00:00 | |
| DL1XH-west | 2026-09-02 06:41:58 | 49.60343 | 8.25626 | 74° | 20km/h | 20055m | -22.6m/s | -53.7°C | 0% | 58.3hPa | 2.7V | 03:05:17 | 02:10:58 | 00:00:00 | |
| BIOWL1-15 | 2026-09-02 06:41:57 | 49.60342 | 8.25619 | 76° | 20km/h | 20078m | -21.6m/s | -53.9°C | 0% | 58hPa | 2.6V | 03:05:17 | 02:10:57 | 00:00:00 | |
| DB0ND-19 | 2026-09-02 06:41:54 | 49.60341 | 8.25589 | 90° | 18km/h | 20169m | -21.6m/s | -54.6°C | 0.8% | 57.2hPa | 2.6V | 00:00:00 | 00:00:00 | 00:00:00 | |
| SONCRA | 2026-09-02 06:41:53 | 49.60341 | 8.25582 | 92° | 16km/h | 20189m | -19.4m/s | -54.6°C | 0.8% | 57.0hPa | 2.6V | 00:00:00 | 00:00:00 | 00:00:00 | |
| CB1BUN | 2026-09-02 06:41:52 | 49.60341 | 8.25589 | 92° | 20km/h | 20169m | -21.6m/s | -54.6°C | 0.8% | 57.2hPa | 2.6V | 03:06:00 | 00:00:00 | 00:00:00 | |
| DO3MHA-11 | 2026-09-02 06:41:50 | 49.60341 | 8.25568 | 85° | 26km/h | 20231m | -21.4m/s | -54.7°C | 4.1% | 56.6hPa | 2.6V | 00:00:00 | 02:10:50 | 00:00:00 | |
| DL1XH1-15 | 2026-09-02 06:41:49 | 49.60334 | 8.25517 | 76° | 27km/h | 20359m | -23.4m/s | -54.6°C | 4.1% | 55.5hPa | 2.6V | 03:05:27 | 02:10:44 | 00:00:00 | |
| DL1XH-west | 2026-09-02 06:41:47 | 49.60338 | 8.25546 | 85° | 24km/h | 20292m | -20.5m/s | -54.6°C | 0% | 56.1hPa | 2.7V | 03:06:08 | 02:10:47 | 00:00:00 | |
| DJTTGO | 2026-09-02 06:41:46 | 49.60338 | 8.25546 | 86° | 24km/h | 20293m | -20.5m/s | -54.6°C | 0.8% | 56.1hPa | 2.6V | 00:00:00 | 00:00:00 | 00:00:00 | |
| DK5PH-5 | 2026-09-02 06:41:45 | 49.60335 | 8.25527 | 76° | 24km/h | 20336m | -22.8m/s | -54.6°C | 4.1% | 55.7hPa | 2.6V | 00:00:00 | 02:10:45 | 00:00:00 | |
| DN1GJH-1 | 2026-09-02 06:41:44 | 49.60336 | 8.25527 | 77° | 26km/h | 20336m | -22.9m/s | -54.6°C | 0.9% | 55.7hPa | 2.6V | 00:00:00 | 00:00:00 | 00:00:00 | |
| DL3AQ-11 | 2026-09-02 06:41:43 | 49.60332 | 8.25506 | 77° | 29km/h | 20381m | -22.9m/s | -54.6°C | 0.9% | 55.3hPa | 2.6V | 00:00:00 | 00:00:00 | 00:00:00 | |
| DL0LBS | 2026-09-02 06:41:42 | 49.60329 | 8.25495 | 79° | 31km/h | 20403m | -21.0m/s | -54.6°C | 0.9% | 55.1hPa | 2.6V | 03:06:00 | 00:00:00 | 00:00:00 | |
| DF7PN | 2026-09-02 06:41:41 | 49.60328 | 8.25483 | 82° | 29km/h | 20424m | -20.9m/s | -54.6°C | 0.9% | 55.0hPa | 2.6V | 00:00:00 | 00:00:00 | 00:00:00 | |
| DL8DAS-15 | 2026-09-02 06:41:40 | 49.60328 | 8.25483 | 83° | 31km/h | 20424m | -20.9m/s | -54.6°C | 0.9% | 55.0hPa | 2.6V | 03:06:00 | 00:00:00 | 00:00:00 | |
| DL1XH1-15 | 2026-09-02 06:41:39 | 49.60328 | 8.25389 | 96° | 37km/h | 20581m | -21.3m/s | -53.8°C | 3.9% | 53.6hPa | 2.6V | 03:05:37 | 02:10:34 | 00:00:00 | |
| DL1XH-west | 2026-09-02 06:41:36 | 49.60325 | 8.25418 | 96° | 37km/h | 20534m | -24.2m/s | -54.2°C | 0.1% | 54hPa | 2.6V | 03:06:08 | 02:10:36 | 00:00:00 | |
| HSKMA3-T | 2026-09-02 06:41:34 | 49.60327 | 8.25389 | 97° | 37km/h | 20581m | -21.3m/s | -53.8°C | 0% | 53.6hPa | 2.6V | 03:06:08 | 02:10:34 | 00:00:00 | |
| NBG1-10 | 2026-09-02 06:41:34 | 49.60327 | 8.25389 | 97° | 16km/h | 20581m | -21.2m/s | -53.8°C | 3.9% | 53.6hPa | 2.6V | 00:00:00 | 02:10:34 | 00:00:00 | |
| DL4BBY-15 | 2026-09-02 06:41:33 | 49.60329 | 8.25375 | 103° | 16km/h | 20604m | -23.9m/s | -54.8°C | 0% | 0hPa | 2.6V | 00:00:00 | 00:00:00 | 00:00:00 | |
| DL8DAS-14 | 2026-09-02 06:41:32 | 49.60331 | 8.25362 | 102° | 35km/h | 20627m | -24.0m/s | -53.4°C | 0.8% | 53.3hPa | 2.6V | 00:00:00 | 00:00:00 | 00:00:00 | |
| CB1BUN | 2026-09-02 06:41:31 | 49.60331 | 8.25362 | 103° | 35km/h | 20627m | -24.0m/s | -53.4°C | 0.8% | 53.3hPa | 2.6V | 03:06:00 | 00:00:00 | 00:00:00 | |
| DO3MHA-11 | 2026-09-02 06:41:30 | 49.60335 | 8.25335 | 106° | 20km/h | 20674m | -24.0m/s | -52.9°C | 3.6% | 52.8hPa | 2.6V | 03:05:00 | 02:10:30 | 00:00:00 | |
| DL1XH1-15 | 2026-09-02 06:41:29 | 49.60349 | 8.25283 | 116° | 15km/h | 20818m | -22.6m/s | -52.2°C | 3.4% | 51.8hPa | 2.6V | 03:05:47 | 02:10:24 | 00:00:00 | |
| BIOWL1-15 | 2026-09-02 06:41:26 | 49.60345 | 8.25295 | 117° | 22km/h | 20770m | -23.8m/s | -52.5°C | 0% | 52.1hPa | 2.7V | 03:06:08 | 02:10:26 | 00:00:00 | |
| DL1XH-west | 2026-09-02 06:41:25 | 49.60347 | 8.25289 | 118° | 18km/h | 20794m | -24.4m/s | -52.3°C | 0% | 52hPa | 2.7V | 03:06:08 | 02:10:25 | 00:00:00 | |
| HSKMA3-T | 2026-09-02 06:41:24 | 49.60349 | 8.25283 | 117° | 15km/h | 20818m | -22.6m/s | -52.2°C | 0% | 51.8hPa | 2.6V | 03:06:08 | 02:10:24 | 00:00:00 | |
| DB0ND-19 | 2026-09-02 06:41:23 | 49.60351 | 8.25275 | 105° | 7km/h | 20861m | -21.1m/s | -52.3°C | 0.7% | 51.4hPa | 2.6V | 00:00:00 | 00:00:00 | 00:00:00 | |
| SONCRA | 2026-09-02 06:41:22 | 49.60351 | 8.25273 | 76° | 4km/h | 20882m | -21.7m/s | -52.3°C | 0.7% | 51.2hPa | 2.6V | 00:00:00 | 00:00:00 | 00:00:00 | |
| SSTOLZ84 | 2026-09-02 06:41:21 | 49.60347 | 8.25270 | 26° | 5km/h | 20948m | -22.7m/s | -52.1°C | 0.7% | 50.6hPa | 2.6V | 00:00:00 | 00:00:00 | 00:00:00 | |
| DL1XH1-15 | 2026-09-02 06:41:19 | 49.60340 | 8.25264 | 76° | 9km/h | 21034m | -22m/s | -52.3°C | 3.4% | 50hPa | 2.6V | 03:05:57 | 02:10:14 | 00:00:00 | |
| DL1XH-west | 2026-09-02 06:41:15 | 49.60342 | 8.25267 | 35° | 7km/h | 21013m | -20.9m/s | -52.2°C | 0% | 50.1hPa | 2.6V | 03:06:08 | 02:10:15 | 00:00:00 | |
| DL3AQ-11 | 2026-09-02 06:41:15 | 49.60341 | 8.25264 | 76° | 7km/h | 21034m | -22.0m/s | -52.3°C | 0.7% | 50.0hPa | 2.6V | 00:00:00 | 00:00:00 | 00:00:00 | |
| DF3TZ-5 | 2026-09-02 06:41:14 | 49.60341 | 8.25264 | 76° | 7km/h | 21034m | -22.0m/s | -52.3°C | 0.7% | 50.0hPa | 2.6V | 00:00:00 | 00:00:00 | 00:00:00 | |
| DD1CC2-15 | 2026-09-02 06:41:12 | 49.60340 | 8.25260 | 101° | 13km/h | 21056m | -22.8m/s | -52.3°C | 0.7% | 49.8hPa | 2.6V | 00:00:00 | 00:00:00 | 00:00:00 | |
| DO3MHA-11 | 2026-09-02 06:41:10 | 49.60341 | 8.25243 | 102° | 9km/h | 21128m | -24.1m/s | -52.5°C | 3.5% | 49.2hPa | 2.6V | 00:00:00 | 02:10:10 | 00:00:00 | |
| DL1XH1-15 | 2026-09-02 06:41:09 | 49.60347 | 8.25212 | 104° | 4km/h | 21269m | -23.5m/s | -52.6°C | 3.5% | 48.2hPa | 2.6V | 03:06:07 | 02:10:04 | 00:00:00 | |
| DL1XH-west | 2026-09-02 06:41:04 | 49.60347 | 8.25212 | 104° | 4km/h | 21269m | -23.5m/s | -52.6°C | 0% | 48.2hPa | 2.6V | 03:06:08 | 02:10:04 | 00:00:00 | |
| HSKMA3-T | 2026-09-02 06:41:03 | 49.60347 | 8.25211 | 121° | 0km/h | 21292m | -23.8m/s | -52.7°C | 0% | 48hPa | 2.6V | 03:06:08 | 02:10:03 | 00:00:00 | |
| DL4BBY-15 | 2026-09-02 06:41:03 | 49.60347 | 8.25210 | 122° | 11km/h | 21293m | -23.7m/s | -53.9°C | 0% | 0hPa | 2.7V | 00:00:00 | 00:00:00 | 00:00:00 | |
| DL9PN | 2026-09-02 06:41:01 | 49.60347 | 8.25210 | 200° | 0km/h | 21339m | -22.9m/s | -52.6°C | 0.7% | 47.7hPa | 2.7V | 00:00:00 | 00:00:00 | 00:00:00 | |
| DO3MHA-11 | 2026-09-02 06:41:00 | 49.60347 | 8.25210 | 92° | 11km/h | 21363m | -24.4m/s | -52.5°C | 3.4% | 47.5hPa | 2.7V | 00:00:00 | 02:10:00 | 00:00:00 | |
| DL1XH1-15 | 2026-09-02 06:40:59 | 49.60353 | 8.25193 | 119° | 15km/h | 21514m | -24.5m/s | -52.4°C | 3.4% | 46.5hPa | 2.7V | 03:06:17 | 02:09:54 | 00:00:00 | |
| BIOWL1-15 | 2026-09-02 06:40:54 | 49.60357 | 8.25183 | 119° | 16km/h | 21561m | -25.3m/s | -52.5°C | 0% | 46.1hPa | 2.6V | 03:06:59 | 02:09:52 | 00:00:00 | |
| DL1XH-west | 2026-09-02 06:40:53 | 49.60355 | 8.25188 | 118° | 15km/h | 21537m | -23.3m/s | -52.5°C | 0% | 46.3hPa | 2.6V | 03:06:59 | 02:09:53 | 00:00:00 | |
| SONCRA | 2026-09-02 06:40:51 | 49.60360 | 8.25173 | 110° | 9km/h | 21612m | -26.5m/s | -52.5°C | 0.6% | 45.8hPa | 2.6V | 00:00:00 | 00:00:00 | 00:00:00 | |
| DO3MHA-11 | 2026-09-02 06:40:50 | 49.60360 | 8.25173 | 111° | 11km/h | 21612m | -26.4m/s | -52.5°C | 3.3% | 45.8hPa | 2.6V | 03:06:00 | 02:09:50 | 00:00:00 | |
| DL1XH1-15 | 2026-09-02 06:40:49 | 49.60358 | 8.25155 | 30° | 9km/h | 21756m | -25.6m/s | -52.9°C | 3.5% | 44.7hPa | 2.6V | 03:06:27 | 02:09:44 | 00:00:00 | |
| BIOWL9-15 | 2026-09-02 06:40:49 | 49.60361 | 8.25165 | 104° | 7km/h | 21662m | -24.2m/s | -52.8°C | -1.0% | -1.0hPa | 2.7V | 00:00:00 | 00:00:00 | 00:00:00 | |
| DL3AQ-11 | 2026-09-02 06:40:48 | 49.60361 | 8.25162 | 81° | 5km/h | 21685m | -21.4m/s | -52.8°C | 0.7% | 45.2hPa | 2.7V | 00:00:00 | 00:00:00 | 00:00:00 | |
| DJ2DS-15 | 2026-09-02 06:40:47 | 49.60361 | 8.25162 | 81° | 5km/h | 21685m | -21.4m/s | -52.8°C | 0.7% | 45.2hPa | 2.7V | 00:00:00 | 00:00:00 | 00:00:00 | |
| HTAHTA | 2026-09-02 06:40:46 | 49.60360 | 8.25157 | 54° | 7km/h | 21731m | -25.0m/s | -52.8°C | 0.7% | 44.9hPa | 2.7V | 00:00:00 | 00:00:00 | 00:00:00 | |
| DL1XH-west | 2026-09-02 06:40:42 | 49.60352 | 8.25150 | 22° | 16km/h | 21808m | -25.7m/s | -53.2°C | 0% | 44.4hPa | 2.7V | 03:06:59 | 02:09:42 | 00:00:00 | |
| DL1CLM-18 | 2026-09-02 06:40:41 | 49.60351 | 8.25150 | 23° | 16km/h | 21808m | -25.7m/s | 0°C | 0% | 0hPa | 2.6V | 00:00:00 | 00:00:00 | 00:00:00 | |
| DO3MHA-11 | 2026-09-02 06:40:40 | 49.60344 | 8.25142 | 35° | 16km/h | 21856m | -22.6m/s | -53.3°C | 3.7% | 43.9hPa | 2.6V | 00:00:00 | 02:09:40 | 00:00:00 | |
| DL1XH1-15 | 2026-09-02 06:40:39 | 49.60328 | 8.25103 | 75° | 15km/h | 21999m | -25.9m/s | -53.7°C | 3.7% | 43.1hPa | 2.6V | 03:06:37 | 02:09:34 | 00:00:00 | |
| HSKMA3-T | 2026-09-02 06:40:32 | 49.60326 | 8.25093 | 72° | 11km/h | 22050m | -24m/s | -54°C | 0% | 42.8hPa | 2.7V | 03:06:59 | 02:09:32 | 00:00:00 | |
| DL1XH-west | 2026-09-02 06:40:31 | 49.60326 | 8.25090 | 76° | 7km/h | 22074m | -24.9m/s | -53.9°C | 0% | 42.6hPa | 2.7V | 03:06:59 | 02:09:31 | 00:00:00 | |
| DO3MHA-11 | 2026-09-02 06:40:30 | 49.60325 | 8.25088 | 99° | 9km/h | 22099m | -24.6m/s | -53.5°C | 3.8% | 42.4hPa | 2.6V | 00:00:00 | 02:09:30 | 00:00:00 | |
| DL1XH1-15 | 2026-09-02 06:40:29 | 49.60336 | 8.25090 | 181° | 15km/h | 22256m | -26.3m/s | -52.5°C | 3.4% | 41.4hPa | 2.6V | 03:06:47 | 02:09:24 | 00:00:00 | |
| DL1XH-west | 2026-09-02 06:40:21 | 49.60346 | 8.25094 | 189° | 15km/h | 22334m | -26.5m/s | -52.5°C | 0% | 40.9hPa | 2.7V | 03:06:59 | 02:09:21 | 00:00:00 | |
| BIOWL1-15 | 2026-09-02 06:40:20 | 49.60356 | 8.25101 | 225° | 9km/h | 22442m | -26.7m/s | -52.8°C | 0% | 40.2hPa | 2.6V | 03:06:59 | 02:09:17 | 00:00:00 | |
| SONCRA | 2026-09-02 06:40:20 | 49.60352 | 8.25097 | 204° | 11km/h | 22388m | -27.4m/s | -52.6°C | 0.7% | 40.6hPa | 2.7V | 00:00:00 | 00:00:00 | 00:00:00 | |
| DL1XH1-15 | 2026-09-02 06:40:19 | 49.60357 | 8.25109 | 289° | 7km/h | 22524m | -26.8m/s | -53.5°C | 3.8% | 39.8hPa | 2.7V | 03:06:57 | 02:09:14 | 00:00:00 | |
| HSKMA3-T | 2026-09-02 06:40:11 | 49.60351 | 8.25114 | 346° | 9km/h | 22606m | -27.1m/s | -53.3°C | 0% | 39.2hPa | 2.6V | 03:07:50 | 02:09:11 | 00:00:00 | |
| DL1XH-west | 2026-09-02 06:40:10 | 49.60349 | 8.25115 | 357° | 11km/h | 22634m | -27.4m/s | -53.2°C | 0% | 39.1hPa | 2.6V | 03:07:50 | 02:09:10 | 00:00:00 | |
| BIOWL1-15 | 2026-09-02 06:40:08 | 49.60343 | 8.25114 | 23° | 13km/h | 22687m | -24.6m/s | -53°C | 0% | 38.7hPa | 2.7V | 03:07:50 | 02:09:08 | 00:00:00 | |
| DL1XH-west | 2026-09-02 06:40:00 | 49.60336 | 8.25085 | 108° | 9km/h | 22915m | -35.3m/s | -52.6°C | 0% | 37.5hPa | 2.6V | 03:07:50 | 02:09:00 | 00:00:00 | |
| BIOWL1-15 | 2026-09-02 06:39:58 | 49.60341 | 8.25074 | 151° | 11km/h | 23050m | -32.6m/s | -52.2°C | 0% | 36.7hPa | 2.7V | 03:07:50 | 02:08:56 | 00:00:00 | |
| BIOWL1-15 | 2026-09-02 06:39:49 | 49.60372 | 8.25058 | 160° | 20km/h | 23408m | -33.7m/s | -51.9°C | 0% | 34.8hPa | 2.6V | 03:07:50 | 02:08:46 | 00:00:00 | |
| DL1XH1-15 | 2026-09-02 06:39:49 | 49.60382 | 8.25054 | 170° | 22km/h | 23476m | -35.2m/s | -52°C | 3.4% | 34.4hPa | 2.7V | 03:07:27 | 02:08:44 | 00:00:00 | |
| DL1XH-west | 2026-09-02 06:39:49 | 49.60361 | 8.25066 | 156° | 15km/h | 23296m | -38.8m/s | -51.8°C | 0% | 35.4hPa | 2.7V | 03:07:50 | 02:08:49 | 00:00:00 | |
| HSKMA3-T | 2026-09-02 06:39:45 | 49.60377 | 8.25056 | 163° | 20km/h | 23441m | -33.8m/s | -52°C | 0% | 34.6hPa | 2.7V | 03:07:50 | 02:08:45 | 00:00:00 | |
| DK5PH-5 | 2026-09-02 06:39:45 | 49.60377 | 8.25056 | 164° | 15km/h | 23442m | -33.8m/s | -51.9°C | 3.4% | 34.5hPa | 2.7V | 00:00:00 | 02:08:45 | 00:00:00 | |
| DD1CC8 | 2026-09-02 06:39:44 | 49.60387 | 8.25053 | 174° | 20km/h | 23510m | -33.2m/s | -52.1°C | 0.7% | 34.2hPa | 2.6V | 00:00:00 | 00:00:00 | 00:00:00 | |
| DL3AQ-11 | 2026-09-02 06:39:43 | 49.60387 | 8.25053 | 174° | 20km/h | 23510m | -33.2m/s | -52.1°C | 0.7% | 34.2hPa | 2.6V | 00:00:00 | 00:00:00 | 00:00:00 | |
| DL8OAI-8 | 2026-09-02 06:39:42 | 49.60387 | 8.25053 | 176° | 20km/h | 23511m | -33.2m/s | -52.1°C | 0% | 0hPa | 2.6V | 00:00:00 | 00:00:00 | 00:00:00 | |
| DF3TZ-5 | 2026-09-02 06:39:41 | 49.60398 | 8.25052 | 185° | 24km/h | 23573m | -30.1m/s | -52.2°C | 0.7% | 33.8hPa | 2.6V | 00:00:00 | 00:00:00 | 00:00:00 | |
| DO3MHA-11 | 2026-09-02 06:39:40 | 49.60403 | 8.25054 | 196° | 13km/h | 23602m | -30.3m/s | -52.2°C | 3.6% | 33.6hPa | 2.6V | 00:00:00 | 02:08:40 | 00:00:00 | |
| DL1XH1-15 | 2026-09-02 06:39:39 | 49.60420 | 8.25071 | 241° | 7km/h | 23778m | -29.5m/s | -51.4°C | 3.4% | 32.7hPa | 2.6V | 03:07:37 | 02:08:34 | 00:00:00 | |
| DL1XH-west | 2026-09-02 06:39:39 | 49.60408 | 8.25056 | 197° | 20km/h | 23631m | -28m/s | -52.1°C | 0% | 33.5hPa | 2.7V | 03:07:50 | 02:08:39 | 00:00:00 | |
| BIOWL1-15 | 2026-09-02 06:39:35 | 49.60419 | 8.25068 | 243° | 9km/h | 23748m | -31m/s | -51.5°C | 0% | 32.9hPa | 2.6V | 03:07:50 | 02:08:35 | 00:00:00 | |
| HSKMA3-T | 2026-09-02 06:39:34 | 49.60420 | 8.25071 | 241° | 7km/h | 23778m | -29.5m/s | -51.4°C | 0% | 32.7hPa | 2.6V | 03:07:50 | 02:08:34 | 00:00:00 | |
| DL1XH-west | 2026-09-02 06:39:28 | 49.60423 | 8.25090 | 272° | 15km/h | 23979m | -36.8m/s | -51.4°C | 0% | 31.9hPa | 2.6V | 03:07:50 | 02:08:28 | 00:00:00 | |
| BIOWL1-15 | 2026-09-02 06:39:24 | 49.60422 | 8.25109 | 274° | 11km/h | 24112m | -28.6m/s | -51.3°C | 0% | 31.1hPa | 2.6V | 03:07:50 | 02:08:24 | 00:00:00 | |
| HSKMA3-T | 2026-09-02 06:39:23 | 49.60421 | 8.25113 | 284° | 11km/h | 24140m | -27.8m/s | -51.4°C | 0% | 30.9hPa | 2.6V | 03:07:50 | 02:08:23 | 00:00:00 | |
| DM0DOS-11 | 2026-09-02 06:39:22 | 49.60418 | 8.25120 | 317° | 13km/h | 24197m | -29.8m/s | -51°C | 3.3% | 30.7hPa | 2.7V | 03:07:50 | 02:08:21 | 00:00:00 | |
| DL8OAI-8 | 2026-09-02 06:39:21 | 49.60420 | 8.25117 | 304° | 11km/h | 24169m | -28.7m/s | -51.2°C | 0% | 0hPa | 2.7V | 00:00:00 | 00:00:00 | 00:00:00 | |
| DO3MHA-11 | 2026-09-02 06:39:20 | 49.60415 | 8.25123 | 322° | 13km/h | 24228m | -31.4m/s | -50.7°C | 3.3% | 30.6hPa | 2.7V | 00:00:00 | 02:08:20 | 00:00:00 | |
| DL1XH1-15 | 2026-09-02 06:39:19 | 49.60394 | 8.25138 | 344° | 9km/h | 24434m | -33.1m/s | -50.7°C | 3.3% | 29.6hPa | 2.7V | 03:07:57 | 02:08:14 | 00:00:00 | |
| DL1XH-west | 2026-09-02 06:39:17 | 49.60404 | 8.25132 | 331° | 15km/h | 24329m | -35.8m/s | -50.7°C | 0% | 30.1hPa | 2.6V | 03:08:41 | 02:08:17 | 00:00:00 | |
| BIOWL1-15 | 2026-09-02 06:39:13 | 49.60384 | 8.25138 | 46° | 4km/h | 24592m | -31.5m/s | -50.1°C | 0% | 28.9hPa | 2.7V | 03:08:41 | 02:08:09 | 00:00:00 | |
| HSKMA3-T | 2026-09-02 06:39:13 | 49.60392 | 8.25139 | 345° | 7km/h | 24466m | -32.7m/s | -50.5°C | 0% | 29.4hPa | 2.7V | 03:08:41 | 02:08:13 | 00:00:00 | |
| DD1CC8 | 2026-09-02 06:39:13 | 49.60389 | 8.25140 | 351° | 7km/h | 24498m | -29.7m/s | -50.3°C | 0.5% | 29.3hPa | 2.7V | 00:00:00 | 00:00:00 | 00:00:00 | |
| SONDE2-11 | 2026-09-02 06:39:12 | 49.60389 | 8.25140 | 351° | 7km/h | 24498m | -29.7m/s | -50.3°C | 0.5% | 29.3hPa | 2.7V | 00:00:00 | 00:00:00 | 00:00:00 | |
| DM0DOS-11 | 2026-09-02 06:39:10 | 49.60382 | 8.25134 | 84° | 4km/h | 24654m | -30.2m/s | -50°C | 3.1% | 28.6hPa | 2.7V | 03:08:04 | 02:08:07 | 00:00:00 | |
| DO3MHA-11 | 2026-09-02 06:39:10 | 49.60386 | 8.25139 | 18° | 4km/h | 24561m | -31.9m/s | -50.0°C | 3.2% | 29.0hPa | 2.6V | 00:00:00 | 02:08:10 | 00:00:00 | |
| DL1XH1-15 | 2026-09-02 06:39:09 | 49.60382 | 8.25130 | 114° | 2km/h | 24744m | -31.5m/s | -49.7°C | 3% | 28.2hPa | 2.6V | 03:08:07 | 02:08:04 | 00:00:00 | |
| DL1XH-west | 2026-09-02 06:39:07 | 49.60383 | 8.25134 | 85° | 5km/h | 24654m | -30.2m/s | -50°C | 0% | 28.6hPa | 2.7V | 03:08:41 | 02:08:07 | 00:00:00 | |
| HSKMA3-T | 2026-09-02 06:39:02 | 49.60381 | 8.25130 | 305° | 2km/h | 24809m | -33.4m/s | -49.6°C | 0% | 27.9hPa | 2.7V | 03:08:41 | 02:08:02 | 00:00:00 | |
| BIOWL1-15 | 2026-09-02 06:39:00 | 49.60381 | 8.25133 | 271° | 7km/h | 24875m | -32.9m/s | -49.2°C | 0% | 27.6hPa | 2.6V | 03:08:41 | 02:08:00 | 00:00:00 | |
| DO3MHA-11 | 2026-09-02 06:39:00 | 49.60381 | 8.25132 | 272° | 9km/h | 24875m | -32.9m/s | -49.1°C | 2.9% | 27.6hPa | 2.6V | 00:00:00 | 02:08:00 | 00:00:00 | |
| DL1XH1-15 | 2026-09-02 06:38:59 | 49.60378 | 8.25146 | 332° | 7km/h | 25069m | -31.5m/s | -49.8°C | 3% | 26.8hPa | 2.6V | 03:08:17 | 02:07:54 | 00:00:00 | |
| DL1XH-west | 2026-09-02 06:38:56 | 49.60380 | 8.25143 | 298° | 7km/h | 25006m | -32.9m/s | -49.7°C | 0% | 27.1hPa | 2.7V | 03:08:41 | 02:07:56 | 00:00:00 | |
| HSKMA3-T | 2026-09-02 06:38:51 | 49.60370 | 8.25149 | 354° | 13km/h | 25168m | -33.1m/s | -49.7°C | 0% | 26.5hPa | 2.7V | 03:08:41 | 02:07:51 | 00:00:00 | |
| BIOWL1-15 | 2026-09-02 06:38:50 | 49.60367 | 8.25149 | 1° | 13km/h | 25202m | -35.2m/s | -49.7°C | 0% | 26.3hPa | 2.7V | 03:08:41 | 02:07:50 | 00:00:00 | |
| DO3MHA-11 | 2026-09-02 06:38:50 | 49.60367 | 8.25149 | 2° | 9km/h | 25202m | -35.1m/s | -49.7°C | 3.1% | 26.3hPa | 2.7V | 03:08:00 | 02:07:50 | 00:00:00 | |
| DL1XH1-15 | 2026-09-02 06:38:49 | 49.60353 | 8.25143 | 17° | 7km/h | 25408m | -34.4m/s | -49.5°C | 3% | 25.5hPa | 2.7V | 03:08:27 | 02:07:44 | 00:00:00 | |
| DL1XH-west | 2026-09-02 06:38:45 | 49.60355 | 8.25144 | 18° | 7km/h | 25374m | -34.4m/s | -49.6°C | 0% | 25.6hPa | 2.7V | 03:08:41 | 02:07:45 | 00:00:00 | |
| DF8AY | 2026-09-02 06:38:44 | 49.60353 | 8.25143 | 17° | 7km/h | 25408m | -34.4m/s | -49.5°C | 0% | 25.5hPa | 2.7V | 03:08:41 | 02:07:44 | 00:00:00 | |
| HSKMA3-T | 2026-09-02 06:38:41 | 49.60349 | 8.25140 | 7° | 7km/h | 25508m | -34.7m/s | -49.3°C | 0% | 25.1hPa | 2.6V | 03:08:41 | 02:07:41 | 00:00:00 | |
| BIOWL1-15 | 2026-09-02 06:38:39 | 49.60338 | 8.25138 | 357° | 13km/h | 25649m | -34.9m/s | -49.3°C | 0% | 24.5hPa | 2.7V | 03:08:41 | 02:07:37 | 00:00:00 | |
| DL1XH1-15 | 2026-09-02 06:38:39 | 49.60329 | 8.25138 | 13° | 13km/h | 25753m | -35.6m/s | -49.4°C | 3% | 24.2hPa | 2.6V | 03:08:37 | 02:07:34 | 00:00:00 | |
| DL1XH-west | 2026-09-02 06:38:35 | 49.60332 | 8.25138 | 4° | 11km/h | 25718m | -35.3m/s | -49.4°C | 0% | 24.3hPa | 2.6V | 03:08:41 | 02:07:35 | 00:00:00 | |
| DF8AY | 2026-09-02 06:38:34 | 49.60329 | 8.25138 | 14° | 13km/h | 25753m | -35.6m/s | -49.4°C | 0% | 24.2hPa | 2.6V | 03:08:41 | 02:07:34 | 00:00:00 | |
| BIOWL1-15 | 2026-09-02 06:38:31 | 49.60313 | 8.25103 | 97° | 9km/h | 26076m | -31m/s | -49.2°C | 0% | 22.9hPa | 2.6V | 03:09:32 | 02:07:24 | 00:00:00 | |
| HSKMA3-T | 2026-09-02 06:38:30 | 49.60318 | 8.25127 | 54° | 13km/h | 25887m | -32.7m/s | -49.2°C | 0% | 23.7hPa | 2.6V | 03:08:41 | 02:07:30 | 00:00:00 | |
| DL1XH-west | 2026-09-02 06:38:25 | 49.60313 | 8.25106 | 85° | 9km/h | 26045m | -31.7m/s | -49.2°C | 0% | 23.1hPa | 2.7V | 03:09:32 | 02:07:25 | 00:00:00 | |
| DF8AY | 2026-09-02 06:38:23 | 49.60313 | 8.25099 | 99° | 7km/h | 26106m | -30.8m/s | -49.2°C | 0% | 22.8hPa | 2.6V | 03:10:23 | 02:07:23 | 00:00:00 | |
| AA1-15 | 2026-09-02 06:38:20 | 49.60314 | 8.25096 | 166° | 5km/h | 26202m | -35.3m/s | -49°C | 0% | 22.6hPa | 2.7V | 03:09:32 | 02:07:20 | 00:00:00 | |
| BIOWL1-15 | 2026-09-02 06:38:17 | 49.60317 | 8.25097 | 162° | 5km/h | 26310m | -39m/s | -48.8°C | 0% | 22.2hPa | 2.6V | 03:09:32 | 02:07:17 | 00:00:00 | |
| DL1XH-west | 2026-09-02 06:38:14 | 49.60322 | 8.25093 | 141° | 11km/h | 26428m | -41m/s | -48.4°C | 0% | 21.8hPa | 2.7V | 03:09:32 | 02:07:14 | 00:00:00 | |
| BIOWL9-15 | 2026-09-02 06:38:13 | 49.60324 | 8.25091 | 140° | 11km/h | 26469m | -40.6m/s | -48.2°C | 0.4% | 21.8hPa | 2.6V | 00:00:00 | 00:00:00 | 00:00:00 | |
| DD1CC8 | 2026-09-02 06:38:11 | 49.60332 | 8.25077 | 126° | 18km/h | 26587m | -39.6m/s | -48.4°C | 0.5% | 21.3hPa | 2.6V | 00:00:00 | 00:00:00 | 00:00:00 | |
| DO3MHA-11 | 2026-09-02 06:38:10 | 49.60332 | 8.25077 | 127° | 16km/h | 26588m | -39.6m/s | -48.3°C | 2.9% | 21.3hPa | 2.6V | 03:09:00 | 02:07:10 | 00:00:00 | |
| DL1XH1-15 | 2026-09-02 06:38:09 | 49.60350 | 8.25052 | 176° | 16km/h | 26827m | -39m/s | -48.1°C | 2.9% | 20.5hPa | 2.6V | 03:09:07 | 02:07:04 | 00:00:00 | |
| DF8AY | 2026-09-02 06:38:09 | 49.60335 | 8.25071 | 130° | 20km/h | 26627m | -39.4m/s | -48.5°C | 0% | 21.2hPa | 2.7V | 03:10:23 | 02:07:09 | 00:00:00 | |
| BIOWL1-15 | 2026-09-02 06:38:06 | 49.60343 | 8.25056 | 146° | 15km/h | 26747m | -40.5m/s | -48.2°C | 0% | 20.8hPa | 2.6V | 03:09:32 | 02:07:06 | 00:00:00 | |
| BIOWL7-15 | 2026-09-02 06:38:05 | 49.60346 | 8.25053 | 159° | 15km/h | 26787m | -41.2m/s | -48.1°C | 0.5% | 20.6hPa | 2.7V | 03:09:00 | 00:00:00 | 00:00:00 | |
| DM0DOS-11 | 2026-09-02 06:38:04 | 49.60360 | 8.25051 | 173° | 18km/h | 26939m | -35.9m/s | -48.2°C | 2.9% | 20.1hPa | 2.7V | 03:09:10 | 02:07:01 | 00:00:00 | |
| DL1XH-west | 2026-09-02 06:38:03 | 49.60353 | 8.25052 | 184° | 15km/h | 26865m | -38.3m/s | -48.1°C | 0% | 20.4hPa | 2.7V | 03:09:32 | 02:07:03 | 00:00:00 | |
| HSKMA3-T | 2026-09-02 06:38:02 | 49.60356 | 8.25052 | 179° | 15km/h | 26903m | -37.2m/s | -48.1°C | 0% | 20.3hPa | 2.7V | 03:09:32 | 02:07:02 | 00:00:00 | |
| DO3MHA-11 | 2026-09-02 06:38:00 | 49.60364 | 8.25050 | 168° | 13km/h | 26974m | -35.1m/s | -48.2°C | 3.0% | 20.0hPa | 2.7V | 00:00:00 | 02:07:00 | 00:00:00 | |
| DL1XH1-15 | 2026-09-02 06:37:59 | 49.60380 | 8.25029 | 131° | 15km/h | 27198m | -41.6m/s | -48.1°C | 3% | 19.4hPa | 2.7V | 03:09:17 | 02:06:54 | 00:00:00 | |
| AA1-15 | 2026-09-02 06:37:59 | 49.60368 | 8.25048 | 155° | 15km/h | 27010m | -37.9m/s | -48.3°C | 0% | 20hPa | 2.6V | 03:09:32 | 02:06:59 | 00:00:00 | |
| BIOWL1-15 | 2026-09-02 06:37:56 | 49.60375 | 8.25038 | 136° | 15km/h | 27123m | -36.2m/s | -48.2°C | 0% | 19.6hPa | 2.6V | 03:09:32 | 02:06:56 | 00:00:00 | |
| DF8AY | 2026-09-02 06:37:55 | 49.60378 | 8.25034 | 127° | 15km/h | 27159m | -38.9m/s | -48.2°C | 0% | 19.5hPa | 2.6V | 03:10:23 | 02:06:55 | 00:00:00 | |
| DL1XH-west | 2026-09-02 06:37:52 | 49.60383 | 8.25023 | 139° | 9km/h | 27281m | -42.8m/s | -47.6°C | 0% | 19.1hPa | 2.6V | 03:09:32 | 02:06:52 | 00:00:00 | |
| DH7VM-15 | 2026-09-02 06:37:51 | 49.60384 | 8.25022 | 181° | 7km/h | 27325m | -45.4m/s | -47.5°C | 0.4% | 19.1hPa | 2.6V | 00:00:00 | 00:00:00 | 00:00:00 | |
| DO3MHA-11 | 2026-09-02 06:37:50 | 49.60385 | 8.25023 | 237° | 9km/h | 27370m | -48.0m/s | -47.5°C | 2.9% | 19.0hPa | 2.6V | 00:00:00 | 02:06:50 | 00:00:00 | |
| DL1XH1-15 | 2026-09-02 06:37:49 | 49.60392 | 8.25034 | 173° | 7km/h | 27628m | -40.2m/s | -47.2°C | 2.9% | 18.2hPa | 2.6V | 03:09:27 | 02:06:44 | 00:00:00 | |
| AA1-15 | 2026-09-02 06:37:48 | 49.60386 | 8.25029 | 212° | 7km/h | 27461m | -45.1m/s | -47.7°C | 0% | 18.7hPa | 2.6V | 03:09:32 | 02:06:48 | 00:00:00 | |
| DJ2DS-15 | 2026-09-02 06:37:47 | 49.60389 | 8.25033 | 204° | 9km/h | 27547m | -42.2m/s | -47.6°C | 0.4% | 18.4hPa | 2.6V | 00:00:00 | 00:00:00 | 00:00:00 | |
| DF8AY | 2026-09-02 06:37:44 | 49.60393 | 8.25034 | 173° | 7km/h | 27628m | -40.3m/s | -47.2°C | 0% | 18.2hPa | 2.6V | 03:10:23 | 02:06:44 | 00:00:00 | |
| DL1XH-west | 2026-09-02 06:37:41 | 49.60397 | 8.25029 | 123° | 9km/h | 27746m | -38.8m/s | -46.6°C | 0% | 17.8hPa | 2.7V | 03:09:32 | 02:06:41 | 00:00:00 | |
| DD1CC8 | 2026-09-02 06:37:40 | 49.60399 | 8.25023 | 105° | 9km/h | 27825m | -38.9m/s | -46.3°C | 0.4% | 17.6hPa | 2.7V | 00:00:00 | 00:00:00 | 00:00:00 | |
| DL1XH1-15 | 2026-09-02 06:37:39 | 49.60401 | 8.25015 | 261° | 5km/h | 28023m | -43.7m/s | -45.2°C | 2.4% | 17.1hPa | 2.7V | 03:09:37 | 02:06:34 | 00:00:00 | |
| AA1-15 | 2026-09-02 06:37:37 | 49.60401 | 8.25016 | 123° | 7km/h | 27900m | -39.3m/s | -45.7°C | 0% | 17.4hPa | 2.7V | 03:10:23 | 02:06:37 | 00:00:00 | |
| DF3TZ-5 | 2026-09-02 06:37:37 | 49.60401 | 8.25015 | 102° | 0km/h | 27940m | -40.3m/s | -45.5°C | 0.4% | 17.3hPa | 2.6V | 00:00:00 | 00:00:00 | 00:00:00 | |
| IW2NTF | 2026-09-02 06:37:35 | 49.60402 | 8.25023 | 187° | 4km/h | 28198m | -45m/s | -45.3°C | 2.4% | 16.7hPa | 2.6V | 03:09:41 | 02:06:30 | 00:00:00 | |
| DM0DOS-11 | 2026-09-02 06:37:34 | 49.60402 | 8.25018 | 251° | 7km/h | 28067m | -44m/s | -45.2°C | 2.4% | 17hPa | 2.7V | 03:09:38 | 02:06:33 | 00:00:00 | |
| DF8AY | 2026-09-02 06:37:32 | 49.60402 | 8.25020 | 260° | 5km/h | 28110m | -43.8m/s | -45.2°C | 0% | 16.9hPa | 2.7V | 03:10:23 | 02:06:32 | 00:00:00 | |
| HSKMA3-T | 2026-09-02 06:37:31 | 49.60402 | 8.25022 | 245° | 4km/h | 28153m | -44.1m/s | -45.3°C | 0% | 16.8hPa | 2.6V | 03:10:23 | 02:06:31 | 00:00:00 | |
| BIOWL1-15 | 2026-09-02 06:37:30 | 49.60404 | 8.25021 | 124° | 4km/h | 28284m | -41.5m/s | -45.6°C | 0% | 16.4hPa | 2.7V | 03:10:23 | 02:06:28 | 00:00:00 | |
| DL1XH-west | 2026-09-02 06:37:30 | 49.60402 | 8.25023 | 187° | 4km/h | 28198m | -45m/s | -45.3°C | 0% | 16.7hPa | 2.6V | 03:10:23 | 02:06:30 | 00:00:00 | |
| DO3MHA-11 | 2026-09-02 06:37:30 | 49.60402 | 8.25023 | 188° | 11km/h | 28198m | -44.9m/s | -45.3°C | 2.4% | 16.6hPa | 2.6V | 03:09:00 | 02:06:30 | 00:00:00 | |
| DD1CC2-15 | 2026-09-02 06:37:29 | 49.60402 | 8.25023 | 188° | 4km/h | 28198m | -45.0m/s | -45.3°C | 0.4% | 16.7hPa | 2.6V | 00:00:00 | 00:00:00 | 00:00:00 | |
| DM0DOS-11 | 2026-09-02 06:37:28 | 49.60410 | 8.25004 | 131° | 13km/h | 28482m | -40.7m/s | -46°C | 2.6% | 15.9hPa | 2.6V | 03:09:48 | 02:06:23 | 00:00:00 | |
| DJ2DS-15 | 2026-09-02 06:37:27 | 49.60405 | 8.25019 | 121° | 9km/h | 28325m | -40.6m/s | -45.7°C | 2.5% | 16.3hPa | 2.7V | 03:09:00 | 02:06:27 | 00:00:00 | |
| GOEST3-10 | 2026-09-02 06:37:26 | 49.60406 | 8.25016 | 118° | 11km/h | 28365m | -40.2m/s | -45.8°C | 2.5% | 16.2hPa | 2.7V | 03:09:00 | 00:00:00 | 00:00:00 | |
| IW2NTF | 2026-09-02 06:37:25 | 49.60418 | 8.24998 | 169° | 13km/h | 28604m | -41m/s | -46°C | 2.6% | 15.7hPa | 2.7V | 03:09:51 | 02:06:20 | 00:00:00 | |
| AA1-15 | 2026-09-02 06:37:22 | 49.60413 | 8.25001 | 152° | 13km/h | 28523m | -41.3m/s | -46°C | 0% | 15.9hPa | 2.7V | 03:10:23 | 02:06:22 | 00:00:00 | |
| HSKMA3-T | 2026-09-02 06:37:20 | 49.60418 | 8.24998 | 169° | 13km/h | 28604m | -41m/s | -46°C | 0% | 15.7hPa | 2.7V | 03:10:23 | 02:06:20 | 00:00:00 | |
| DF8AY | 2026-09-02 06:37:17 | 49.60427 | 8.25001 | 206° | 11km/h | 28718m | -36.5m/s | -45.9°C | 0% | 15.4hPa | 2.6V | 03:10:23 | 02:06:17 | 00:00:00 | |
| AA1-15 | 2026-09-02 06:37:11 | 49.60436 | 8.25016 | 275° | 4km/h | 28945m | -40.6m/s | -45.6°C | 0% | 14.8hPa | 2.6V | 03:10:23 | 02:06:11 | 00:00:00 | |
| DM0DOS-11 | 2026-09-02 06:37:11 | 49.60432 | 8.25019 | 321° | 5km/h | 29111m | -42.5m/s | -45.3°C | 2.6% | 14.5hPa | 2.6V | 03:10:04 | 02:06:07 | 00:00:00 | |
| DL1XH-west | 2026-09-02 06:37:09 | 49.60434 | 8.25018 | 306° | 4km/h | 29028m | -41.9m/s | -45.4°C | 0% | 14.7hPa | 2.7V | 03:10:23 | 02:06:09 | 00:00:00 | |
| BIOWL1-15 | 2026-09-02 06:37:07 | 49.60431 | 8.25020 | 280° | 0km/h | 29152m | -39.7m/s | -45.4°C | 0% | 14.4hPa | 2.6V | 03:10:23 | 02:06:06 | 00:00:00 | |
| DF8AY | 2026-09-02 06:37:07 | 49.60432 | 8.25019 | 322° | 5km/h | 29111m | -42.5m/s | -45.3°C | 0% | 14.5hPa | 2.6V | 03:10:23 | 02:06:07 | 00:00:00 | |
| DL6DJ-15 | 2026-09-02 06:37:07 | 49.60431 | 8.25020 | 280° | 0km/h | 29152m | -39.7m/s | -45.4°C | 0.4% | 14.4hPa | 2.6V | 00:00:00 | 00:00:00 | 00:00:00 | |
| DF3TZ-5 | 2026-09-02 06:37:06 | 49.60430 | 8.25020 | 347° | 2km/h | 29190m | -37.6m/s | -45.4°C | 0.4% | 14.3hPa | 2.6V | 00:00:00 | 00:00:00 | 00:00:00 | |
| GOEST3-10 | 2026-09-02 06:37:05 | 49.60430 | 8.25020 | 348° | 4km/h | 29191m | -37.6m/s | -45.3°C | 2.6% | 14.2hPa | 2.6V | 03:10:00 | 00:00:00 | 00:00:00 | |
| DL3AQ-11 | 2026-09-02 06:37:04 | 49.60429 | 8.25019 | 57° | 2km/h | 29264m | -36.5m/s | -45.4°C | 0.3% | 14.1hPa | 2.6V | 00:00:00 | 00:00:00 | 00:00:00 | |
| DL4BBY-15 | 2026-09-02 06:37:03 | 49.60429 | 8.25019 | 58° | 7km/h | 29264m | -36.4m/s | -46.6°C | 0% | 0hPa | 2.6V | 00:00:00 | 00:00:00 | 00:00:00 | |
| DF7PN | 2026-09-02 06:37:02 | 49.60425 | 8.25008 | 16° | 0km/h | 29605m | -54.3m/s | -44.1°C | 0.3% | 13.5hPa | 2.6V | 00:00:00 | 00:00:00 | 00:00:00 | |
| GOEST3-10 | 2026-09-02 06:37:00 | 49.60428 | 8.25013 | 68° | 4km/h | 29382m | -41.1m/s | -45.0°C | 2.6% | 13.9hPa | 2.6V | 00:00:00 | 02:06:00 | 00:00:00 | |
| AA1-15 | 2026-09-02 06:37:00 | 49.60428 | 8.25013 | 68° | 4km/h | 29381m | -41.1m/s | -45°C | 0% | 13.9hPa | 2.6V | 03:10:23 | 02:06:00 | 00:00:00 | |
| DL1XH1-15 | 2026-09-02 06:36:59 | 49.60425 | 8.25008 | 272° | 2km/h | 29659m | -54.8m/s | -44°C | 2.4% | 13.4hPa | 2.6V | 03:10:17 | 02:05:54 | 00:00:00 | |
| DL1XH-west | 2026-09-02 06:36:59 | 49.60428 | 8.25012 | 61° | 4km/h | 29421m | -39.5m/s | -44.8°C | 0% | 13.8hPa | 2.6V | 03:10:23 | 02:05:59 | 00:00:00 | |
| BIOWL1-15 | 2026-09-02 06:36:56 | 49.60426 | 8.25008 | 109° | 0km/h | 29552m | -52.9m/s | -44.3°C | 0% | 13.6hPa | 2.7V | 03:10:23 | 02:05:56 | 00:00:00 | |
| HSKMA3-T | 2026-09-02 06:36:49 | 49.60425 | 8.25010 | 182° | 4km/h | 29906m | -44.1m/s | -43.7°C | 0% | 12.9hPa | 2.7V | 03:10:23 | 02:05:49 | 00:00:00 | |
| DL1XH-west | 2026-09-02 06:36:48 | 49.60425 | 8.25010 | 108° | 2km/h | 29948m | -41.1m/s | -43.7°C | 0% | 12.7hPa | 2.7V | 03:10:23 | 02:05:48 | 00:00:00 | |
| DL3AQ-11 | 2026-09-02 06:36:48 | 49.60425 | 8.25010 | 300° | 2km/h | 29987m | -38.8m/s | -43.7°C | 0.3% | 12.7hPa | 2.7V | 00:00:00 | 00:00:00 | 00:00:00 | |
| DL1XH1-15 | 2026-09-02 06:36:47 | 49.60421 | 8.25013 | 345° | 11km/h | 30103m | -44.5m/s | -43.3°C | 2.4% | 12.5hPa | 2.7V | 03:10:27 | 02:05:44 | 00:00:00 | |
| BIOWL1-15 | 2026-09-02 06:36:45 | 49.60421 | 8.25013 | 345° | 11km/h | 30103m | -44.5m/s | -43.3°C | 0% | 12.5hPa | 2.7V | 03:11:14 | 02:05:44 | 00:00:00 | |
| DF8AY | 2026-09-02 06:36:43 | 49.60418 | 8.25014 | 342° | 11km/h | 30148m | -46.5m/s | -43.3°C | 0% | 12.4hPa | 2.6V | 03:11:14 | 02:05:43 | 00:00:00 | |
| DL1XH-west | 2026-09-02 06:36:38 | 49.60403 | 8.25009 | 70° | 13km/h | 30381m | -48.2m/s | -42.7°C | 0% | 12hPa | 2.6V | 03:11:14 | 02:05:38 | 00:00:00 | |
| DL1XH1-15 | 2026-09-02 06:36:37 | 49.60398 | 8.24983 | 83° | 22km/h | 30558m | -39m/s | -42.1°C | 2.3% | 11.6hPa | 2.6V | 03:10:37 | 02:05:34 | 00:00:00 | |
| BIOWL1-15 | 2026-09-02 06:36:34 | 49.60397 | 8.24967 | 90° | 16km/h | 30632m | -37.9m/s | -41.5°C | 0% | 11.5hPa | 2.6V | 03:11:14 | 02:05:32 | 00:00:00 | |
| DF8AY | 2026-09-02 06:36:33 | 49.60398 | 8.24975 | 84° | 22km/h | 30595m | -36.8m/s | -41.8°C | 0% | 11.6hPa | 2.6V | 03:11:14 | 02:05:33 | 00:00:00 | |
| AA1-15 | 2026-09-02 06:36:28 | 49.60395 | 8.24950 | 56° | 5km/h | 30809m | -52.2m/s | -41°C | 0% | 11.2hPa | 2.6V | 03:11:14 | 02:05:28 | 00:00:00 | |
| HSKMA3-T | 2026-09-02 06:36:27 | 49.60394 | 8.24948 | 76° | 5km/h | 30862m | -54m/s | -41°C | 0% | 11.2hPa | 2.6V | 03:11:14 | 02:05:27 | 00:00:00 | |
| DJ2DS-15 | 2026-09-02 06:36:27 | 49.60394 | 8.24948 | 76° | 16km/h | 30862m | -53.9m/s | -40.9°C | 2.1% | 11.2hPa | 2.6V | 00:00:00 | 02:05:27 | 00:00:00 | |
| DL1XH1-15 | 2026-09-02 06:36:26 | 49.60395 | 8.24940 | 115° | 11km/h | 31025m | -55.9m/s | -40.4°C | 2% | 10.9hPa | 2.7V | 03:10:47 | 02:05:24 | 00:00:00 | |
| OE5DRO-10 | 2026-09-02 06:36:26 | 49.60393 | 8.24946 | 108° | 15km/h | 30916m | -54.5m/s | -40.8°C | 2.1% | 11.0hPa | 2.6V | 00:00:00 | 00:00:00 | 00:00:00 | |
| DO3MHA-11 | 2026-09-02 06:36:25 | 49.60394 | 8.24943 | 119° | 20km/h | 30970m | -55.4m/s | -40.6°C | 2.1% | 11.0hPa | 2.7V | 00:00:00 | 02:05:25 | 00:00:00 | |
| IW2NTF | 2026-09-02 06:36:24 | 49.60407 | 8.24912 | 127° | 22km/h | 31276m | -43.4m/s | -39.7°C | 2% | 10.4hPa | 2.7V | 03:10:52 | 02:05:19 | 00:00:00 | |
| BIOWL1-15 | 2026-09-02 06:36:23 | 49.60404 | 8.24919 | 125° | 22km/h | 31231m | -47.6m/s | -40°C | 0% | 10.5hPa | 2.6V | 03:11:14 | 02:05:20 | 00:00:00 | |
| DF8AY | 2026-09-02 06:36:22 | 49.60399 | 8.24931 | 123° | 16km/h | 31132m | -51.2m/s | -40.2°C | 0% | 10.7hPa | 2.6V | 03:11:14 | 02:05:22 | 00:00:00 | |
| AA1-15 | 2026-09-02 06:36:17 | 49.60415 | 8.24896 | 130° | 26km/h | 31356m | -39.2m/s | -39.6°C | 0% | 10.3hPa | 2.7V | 03:11:14 | 02:05:17 | 00:00:00 | |
| DL1XH-west | 2026-09-02 06:36:16 | 49.60419 | 8.24888 | 129° | 26km/h | 31394m | -39.4m/s | -39.7°C | 0% | 10.3hPa | 2.6V | 03:11:14 | 02:05:16 | 00:00:00 | |
| DL1XH1-15 | 2026-09-02 06:36:14 | 49.60426 | 8.24875 | 133° | 20km/h | 31470m | -37.9m/s | -39.5°C | 2% | 10.2hPa | 2.6V | 03:10:57 | 02:05:14 | 00:00:00 | |
| BIOWL1-15 | 2026-09-02 06:36:13 | 49.60435 | 8.24863 | 157° | 11km/h | 31583m | -41.1m/s | -39.3°C | 0% | 10hPa | 2.7V | 03:11:14 | 02:05:11 | 00:00:00 | |
| DF8AY | 2026-09-02 06:36:12 | 49.60433 | 8.24866 | 140° | 13km/h | 31544m | -37.4m/s | -39.4°C | 0% | 10hPa | 2.7V | 03:11:14 | 02:05:12 | 00:00:00 | |
| SONCRA | 2026-09-02 06:36:11 | 49.60435 | 8.24863 | 157° | 9km/h | 31583m | -41.1m/s | -39.3°C | 0.2% | 10.0hPa | 2.6V | 00:00:00 | 00:00:00 | 00:00:00 | |
| EDDB2-11 | 2026-09-02 06:36:10 | 49.60438 | 8.24861 | 178° | 5km/h | 31667m | -46.3m/s | -39.2°C | 0.2% | 9.9hPa | 2.6V | 00:00:00 | 00:00:00 | 00:00:00 | |
| BIOWL9-15 | 2026-09-02 06:36:09 | 49.60438 | 8.24861 | 178° | 5km/h | 31667m | -46.3m/s | -39.2°C | 0.2% | 9.9hPa | 2.6V | 00:00:00 | 00:00:00 | 00:00:00 | |
| DL1XH1-15 | 2026-09-02 06:36:08 | 49.60448 | 8.24853 | 126° | 11km/h | 31888m | -45.2m/s | -38.5°C | 1.8% | 9.5hPa | 2.6V | 03:11:07 | 02:05:04 | 00:00:00 | |
| AA1-15 | 2026-09-02 06:36:06 | 49.60444 | 8.24858 | 144° | 9km/h | 31801m | -42.9m/s | -39°C | 0% | 9.6hPa | 2.7V | 03:11:14 | 02:05:06 | 00:00:00 | |
| DL1XH-west | 2026-09-02 06:36:05 | 49.60446 | 8.24855 | 143° | 11km/h | 31843m | -43.5m/s | -38.8°C | 0% | 9.6hPa | 2.7V | 03:11:14 | 02:05:05 | 00:00:00 | |
| BIOWL1-15 | 2026-09-02 06:36:05 | 49.60449 | 8.24849 | 116° | 13km/h | 31933m | -47.1m/s | -38.3°C | 0% | 9.5hPa | 2.6V | 03:11:14 | 02:05:03 | 00:00:00 | |
| DL6DJ-15 | 2026-09-02 06:36:05 | 49.60448 | 8.24853 | 126° | 9km/h | 31888m | -45.2m/s | -38.6°C | 0.2% | 9.5hPa | 2.6V | 00:00:00 | 00:00:00 | 00:00:00 | |
| DM7RM-13 | 2026-09-02 06:36:04 | 49.60448 | 8.24853 | 128° | 11km/h | 31888m | -45.2m/s | -38.6°C | 0.2% | 9.5hPa | 2.6V | 03:11:00 | 00:00:00 | 00:00:00 | |
| IW2NTF | 2026-09-02 06:36:03 | 49.60456 | 8.24816 | 117° | 18km/h | 32150m | -38.5m/s | -38°C | 1.8% | 9.2hPa | 2.6V | 03:11:13 | 02:04:58 | 00:00:00 | |
| DF8AY | 2026-09-02 06:36:02 | 49.60452 | 8.24837 | 106° | 16km/h | 32027m | -45.7m/s | -37.9°C | 0% | 9.4hPa | 2.7V | 03:11:14 | 02:05:01 | 00:00:00 | |
| DJ2DS-15 | 2026-09-02 06:35:59 | 49.60456 | 8.24816 | 117° | 16km/h | 32150m | -38.5m/s | -38.0°C | 0.2% | 9.2hPa | 2.6V | 00:00:00 | 00:00:00 | 00:00:00 | |
| GOEST3-10 | 2026-09-02 06:35:57 | 49.60457 | 8.24811 | 121° | 15km/h | 32189m | -40.6m/s | -37.9°C | 1.8% | 9.0hPa | 2.6V | 00:00:00 | 02:04:57 | 00:00:00 | |
| DL1XH1-15 | 2026-09-02 06:35:56 | 49.60467 | 8.24804 | 177° | 16km/h | 32312m | -43.5m/s | -38.1°C | 1.8% | 8.9hPa | 2.7V | 03:11:17 | 02:04:54 | 00:00:00 | |
| DL1XH-west | 2026-09-02 06:35:55 | 49.60463 | 8.24805 | 168° | 15km/h | 32270m | -42.3m/s | -38.1°C | 0% | 9hPa | 2.7V | 03:12:05 | 02:04:55 | 00:00:00 | |
| BIOWL1-15 | 2026-09-02 06:35:53 | 49.60471 | 8.24804 | 190° | 16km/h | 32356m | -43.4m/s | -38.2°C | 0% | 8.9hPa | 2.7V | 03:12:05 | 02:04:53 | 00:00:00 | |
| DF8AY | 2026-09-02 06:35:51 | 49.60477 | 8.24807 | 199° | 11km/h | 32445m | -46.3m/s | -38.4°C | 0% | 8.8hPa | 2.6V | 03:12:05 | 02:04:51 | 00:00:00 | |
| DL1XH-west | 2026-09-02 06:35:45 | 49.60473 | 8.24808 | 45° | 9km/h | 32738m | -48.4m/s | -37.7°C | 0% | 8.4hPa | 2.6V | 03:12:05 | 02:04:45 | 00:00:00 | |
| DL1XH1-15 | 2026-09-02 06:35:44 | 49.60472 | 8.24806 | 51° | 7km/h | 32786m | -46.7m/s | -37.6°C | 1.8% | 8.3hPa | 2.6V | 03:11:27 | 02:04:44 | 00:00:00 | |
| AA1-15 | 2026-09-02 06:35:44 | 49.60472 | 8.24806 | 52° | 7km/h | 32786m | -46.7m/s | -37.6°C | 0% | 8.4hPa | 2.6V | 03:12:05 | 02:04:44 | 00:00:00 | |
| BIOWL1-15 | 2026-09-02 06:35:42 | 49.60473 | 8.24799 | 146° | 7km/h | 32924m | -43.4m/s | -37.1°C | 0% | 8.2hPa | 2.7V | 03:12:05 | 02:04:41 | 00:00:00 | |
| DF8AY | 2026-09-02 06:35:40 | 49.60475 | 8.24797 | 157° | 13km/h | 32967m | -41.7m/s | -36.8°C | 0% | 8.1hPa | 2.6V | 03:12:05 | 02:04:40 | 00:00:00 | |
| HSKMA3-T | 2026-09-02 06:35:34 | 49.60487 | 8.24795 | 22° | 5km/h | 33208m | -35.6m/s | -36.5°C | 0% | 7.8hPa | 2.6V | 03:12:05 | 02:04:34 | 00:00:00 | |
| AA1-15 | 2026-09-02 06:35:33 | 49.60484 | 8.24794 | 18° | 15km/h | 33242m | -32.9m/s | -36.3°C | 0% | 7.8hPa | 2.6V | 03:12:05 | 02:04:33 | 00:00:00 | |
| BIOWL1-15 | 2026-09-02 06:35:32 | 49.60480 | 8.24792 | 25° | 20km/h | 33273m | -29.6m/s | -36.2°C | 0% | 7.7hPa | 2.6V | 03:12:05 | 02:04:32 | 00:00:00 | |
| DF8AY | 2026-09-02 06:35:30 | 49.60469 | 8.24782 | 31° | 31km/h | 33324m | -22.4m/s | -36.1°C | 0% | 7.7hPa | 2.7V | 03:12:05 | 02:04:30 | 00:00:00 | |
| DL1XH-west | 2026-09-02 06:35:24 | 49.60450 | 8.24735 | 146° | 27km/h | 33470m | -26.4m/s | -35.8°C | 0% | 7.5hPa | 2.7V | 03:12:05 | 02:04:24 | 00:00:00 | |
| HSKMA3-T | 2026-09-02 06:35:23 | 49.60456 | 8.24729 | 148° | 27km/h | 33493m | -17.9m/s | -35.7°C | 0% | 7.5hPa | 2.7V | 03:12:05 | 02:04:23 | 00:00:00 | |
| AA1-15 | 2026-09-02 06:35:22 | 49.60462 | 8.24723 | 149° | 29km/h | 33506m | -8.3m/s | -35.6°C | 0% | 7.4hPa | 2.6V | 03:12:05 | 02:04:22 | 00:00:00 | |
| BIOWL1-15 | 2026-09-02 06:35:21 | 49.60483 | 8.24708 | 203° | 7km/h | 33490m | 5.5m/s | -35.9°C | 0% | 7.5hPa | 2.7V | 03:12:05 | 02:04:18 | 00:00:00 | |
| DF8AY | 2026-09-02 06:35:19 | 49.60479 | 8.24708 | 172° | 16km/h | 33495m | 5m/s | -35.9°C | 0% | 7.4hPa | 2.7V | 03:12:05 | 02:04:19 | 00:00:00 | |
| DJ2KF-10 | 2026-09-02 06:35:19 | 49.60479 | 8.24708 | 173° | 15km/h | 33496m | 4.9m/s | -35.8°C | 1.5% | 7.4hPa | 2.6V | 00:00:00 | 02:04:19 | 00:00:00 | |
| DO1YAY-16 | 2026-09-02 06:35:17 | 49.60483 | 8.24710 | 298° | 5km/h | 33485m | 5.7m/s | -36.0°C | 0.2% | 7.4hPa | 2.6V | 00:00:00 | 00:00:00 | 00:00:00 | |
| DL1XH1-15 | 2026-09-02 06:35:14 | 49.60471 | 8.24714 | 5° | 24km/h | 33468m | 5m/s | -35.9°C | 1.6% | 7.5hPa | 2.6V | 03:11:57 | 02:04:14 | 00:00:00 | |
| HSKMA3-T | 2026-09-02 06:35:13 | 49.60465 | 8.24712 | 21° | 24km/h | 33463m | 5.1m/s | -36°C | 0% | 7.5hPa | 2.7V | 03:12:05 | 02:04:13 | 00:00:00 | |
| AA1-15 | 2026-09-02 06:35:11 | 49.60456 | 8.24701 | 60° | 22km/h | 33453m | 5.5m/s | -36°C | 0% | 7.5hPa | 2.7V | 03:12:05 | 02:04:11 | 00:00:00 | |
| BIOWL1-15 | 2026-09-02 06:35:10 | 49.60455 | 8.24676 | 102° | 24km/h | 33437m | 5m/s | -36°C | 0% | 7.5hPa | 2.6V | 03:12:05 | 02:04:08 | 00:00:00 | |
| DL1XH-15 | 2026-09-02 06:35:10 | 49.60457 | 8.24654 | 82° | 15km/h | 33421m | 5.5m/s | -36°C | 1.6% | 7.5hPa | 2.7V | 03:12:06 | 02:04:05 | 00:00:00 | |
| DF8AY | 2026-09-02 06:35:09 | 49.60454 | 8.24685 | 94° | 24km/h | 33442m | 5.3m/s | -36°C | 0% | 7.5hPa | 2.6V | 03:12:05 | 02:04:09 | 00:00:00 | |
| DJTTGO | 2026-09-02 06:35:08 | 49.60454 | 8.24685 | 95° | 24km/h | 33442m | 5.3m/s | -36.0°C | 0.2% | 7.5hPa | 2.7V | 03:12:00 | 00:00:00 | 00:00:00 | |
| DJ2DS-15 | 2026-09-02 06:35:07 | 49.60456 | 8.24668 | 104° | 13km/h | 33432m | 5.0m/s | -35.9°C | 1.5% | 7.5hPa | 2.7V | 00:00:00 | 02:04:07 | 00:00:00 | |
| DL0LBS | 2026-09-02 06:35:06 | 49.60457 | 8.24660 | 98° | 18km/h | 33427m | 5.4m/s | -36.0°C | 0.2% | 7.5hPa | 2.7V | 03:12:00 | 00:00:00 | 00:00:00 | |
| DO3MHA-11 | 2026-09-02 06:35:05 | 49.60457 | 8.24654 | 83° | 9km/h | 33422m | 5.4m/s | -36.0°C | 1.6% | 7.5hPa | 2.7V | 00:00:00 | 02:04:05 | 00:00:00 | |
| DM0DOS-11 | 2026-09-02 06:35:04 | 49.60450 | 8.24642 | 26° | 7km/h | 33401m | 4.9m/s | -36°C | 1.6% | 7.5hPa | 2.7V | 03:12:10 | 02:04:01 | 00:00:00 | |
| DL3AQ-11 | 2026-09-02 06:35:04 | 49.60455 | 8.24646 | 37° | 9km/h | 33411m | 5.2m/s | -36.1°C | 0.2% | 7.5hPa | 2.6V | 00:00:00 | 00:00:00 | 00:00:00 | |
| DL6DJ-15 | 2026-09-02 06:35:03 | 49.60452 | 8.24644 | 26° | 9km/h | 33406m | 4.9m/s | -36.1°C | 0.1% | 7.5hPa | 2.6V | 00:00:00 | 00:00:00 | 00:00:00 | |
| IW2NTF | 2026-09-02 06:35:02 | 49.60448 | 8.24633 | 97° | 9km/h | 33380m | 4.5m/s | -35.9°C | 1.6% | 7.6hPa | 2.6V | 03:12:14 | 02:03:57 | 00:00:00 | |
| HSKMA3-T | 2026-09-02 06:35:02 | 49.60452 | 8.24644 | 26° | 11km/h | 33405m | 4.9m/s | -36.1°C | 0% | 7.5hPa | 2.6V | 03:12:56 | 02:04:02 | 00:00:00 | |
| AA1-15 | 2026-09-02 06:35:00 | 49.60449 | 8.24641 | 45° | 5km/h | 33395m | 5.6m/s | -36°C | 0% | 7.5hPa | 2.7V | 03:12:56 | 02:04:00 | 00:00:00 | |
| DL1XH-15 | 2026-09-02 06:35:00 | 49.60448 | 8.24626 | 63° | 11km/h | 33370m | 5.8m/s | -36.1°C | 1.6% | 7.6hPa | 2.7V | 03:12:16 | 02:03:55 | 00:00:00 | |
| DL1XH1-15 | 2026-09-02 06:34:58 | 49.60446 | 8.24621 | 48° | 15km/h | 33364m | 5.6m/s | -36.1°C | 1.6% | 7.6hPa | 2.7V | 03:12:17 | 02:03:54 | 00:00:00 | |
| DF8AY | 2026-09-02 06:34:58 | 49.60448 | 8.24636 | 102° | 7km/h | 33384m | 4.9m/s | -35.9°C | 0% | 7.6hPa | 2.6V | 03:12:56 | 02:03:58 | 00:00:00 | |
| DF7PN | 2026-09-02 06:34:57 | 49.60449 | 8.24633 | 97° | 7km/h | 33380m | 4.5m/s | -35.9°C | 0.1% | 7.6hPa | 2.7V | 00:00:00 | 00:00:00 | 00:00:00 | |
| DO9LL-15 | 2026-09-02 06:34:56 | 49.60449 | 8.24630 | 84° | 26km/h | 33375m | 4.9m/s | 0°C | 0% | 0hPa | 2.7V | 00:00:00 | 02:03:56 | 00:00:00 | |
| DO3MHA-11 | 2026-09-02 06:34:55 | 49.60448 | 8.24625 | 64° | 15km/h | 33370m | 5.7m/s | -36.0°C | 1.6% | 7.5hPa | 2.7V | 00:00:00 | 02:03:55 | 00:00:00 | |
| DM0DOS-11 | 2026-09-02 06:34:52 | 49.60429 | 8.24588 | 88° | 11km/h | 33328m | 4.7m/s | -36°C | 1.5% | 7.6hPa | 2.7V | 03:12:24 | 02:03:47 | 00:00:00 | |
| HSKMA3-T | 2026-09-02 06:34:52 | 49.60439 | 8.24612 | 40° | 20km/h | 33354m | 4.5m/s | -36.2°C | 0% | 7.6hPa | 2.6V | 03:12:56 | 02:03:52 | 00:00:00 | |
| AA1-15 | 2026-09-02 06:34:49 | 49.60430 | 8.24597 | 65° | 15km/h | 33339m | 5.8m/s | -36.1°C | 0% | 7.6hPa | 2.7V | 03:12:56 | 02:03:49 | 00:00:00 | |
| DF8AY | 2026-09-02 06:34:48 | 49.60429 | 8.24592 | 79° | 13km/h | 33334m | 5.4m/s | -36.1°C | 0% | 7.6hPa | 2.7V | 03:12:56 | 02:03:48 | 00:00:00 | |
| HEMX73-11 | 2026-09-02 06:34:47 | 49.60429 | 8.24588 | 89° | 11km/h | 33329m | 4.7m/s | -36.1°C | 0.2% | 7.6hPa | 2.6V | 03:12:00 | 00:00:00 | 00:00:00 | |
| DL1XH1-15 | 2026-09-02 06:34:46 | 49.60426 | 8.24581 | 12° | 9km/h | 33314m | 5.8m/s | -36.2°C | 1.6% | 7.6hPa | 2.6V | 03:12:27 | 02:03:44 | 00:00:00 | |
| DM3KS-11 | 2026-09-02 06:34:45 | 49.60426 | 8.24581 | 12° | 7km/h | 33314m | 5.8m/s | -36.2°C | 0.2% | 7.6hPa | 2.7V | 00:00:00 | 00:00:00 | 00:00:00 | |
| OE5DRO-10 | 2026-09-02 06:34:44 | 49.60426 | 8.24581 | 13° | 13km/h | 33314m | 5.8m/s | -36.2°C | 1.6% | 7.6hPa | 2.7V | 03:12:00 | 00:00:00 | 00:00:00 | |
| IW2NTF | 2026-09-02 06:34:42 | 49.60409 | 8.24560 | 97° | 20km/h | 33279m | 5.1m/s | -36.6°C | 1.6% | 7.7hPa | 2.7V | 03:12:34 | 02:03:37 | 00:00:00 | |
| HSKMA3-T | 2026-09-02 06:34:41 | 49.60416 | 8.24579 | 15° | 15km/h | 33299m | 3.8m/s | -36.4°C | 0% | 7.7hPa | 2.7V | 03:12:56 | 02:03:41 | 00:00:00 | |
| BIOWL1-15 | 2026-09-02 06:34:39 | 49.60409 | 8.24560 | 98° | 20km/h | 33279m | 5.1m/s | -36.6°C | 0% | 7.7hPa | 2.7V | 03:12:56 | 02:03:37 | 00:00:00 | |
| DL1XH1-15 | 2026-09-02 06:34:39 | 49.60412 | 8.24541 | 95° | 11km/h | 33266m | 4.7m/s | -36.8°C | 1.6% | 7.7hPa | 2.6V | 03:12:37 | 02:03:34 | 00:00:00 | |
| DL1XH-15 | 2026-09-02 06:34:38 | 49.60412 | 8.24538 | 59° | 5km/h | 33261m | 5.6m/s | -36.9°C | 1.7% | 7.7hPa | 2.6V | 03:12:38 | 02:03:33 | 00:00:00 | |
| DF8AY | 2026-09-02 06:34:38 | 49.60409 | 8.24567 | 82° | 16km/h | 33285m | 5.9m/s | -36.5°C | 0% | 7.7hPa | 2.6V | 03:12:56 | 02:03:38 | 00:00:00 | |
| DH7VM-15 | 2026-09-02 06:34:38 | 49.60409 | 8.24567 | 83° | 16km/h | 33285m | 5.9m/s | -36.5°C | 0.2% | 7.7hPa | 2.7V | 00:00:00 | 00:00:00 | 00:00:00 | |
| NBG1-10 | 2026-09-02 06:34:37 | 49.60409 | 8.24560 | 98° | 11km/h | 33280m | 5.1m/s | -36.6°C | 1.6% | 7.6hPa | 2.7V | 00:00:00 | 02:03:37 | 00:00:00 | |
| BIOWL9-15 | 2026-09-02 06:34:36 | 49.60410 | 8.24553 | 105° | 18km/h | 33275m | 4.1m/s | -36.7°C | 0.2% | 7.7hPa | 2.6V | 00:00:00 | 00:00:00 | 00:00:00 | |
| DL3AQ-11 | 2026-09-02 06:34:35 | 49.60412 | 8.24541 | 95° | 11km/h | 33267m | 4.7m/s | -36.8°C | 0.1% | 7.7hPa | 2.6V | 00:00:00 | 00:00:00 | 00:00:00 | |
| DL4BBY-15 | 2026-09-02 06:34:33 | 49.60412 | 8.24538 | 60° | 11km/h | 33262m | 5.6m/s | -38.1°C | 0% | 0hPa | 2.6V | 00:00:00 | 00:00:00 | 00:00:00 | |
| IW2NTF | 2026-09-02 06:34:32 | 49.60397 | 8.24541 | 78° | 5km/h | 33232m | 5.8m/s | -36.9°C | 1.7% | 7.7hPa | 2.6V | 03:12:44 | 02:03:27 | 00:00:00 | |
| DL1XH-west | 2026-09-02 06:34:31 | 49.60407 | 8.24538 | 341° | 15km/h | 33250m | 5.4m/s | -36.9°C | 0% | 7.7hPa | 2.7V | 03:12:56 | 02:03:31 | 00:00:00 | |
| HSKMA3-T | 2026-09-02 06:34:30 | 49.60404 | 8.24540 | 337° | 15km/h | 33245m | 4.4m/s | -36.9°C | 0% | 7.7hPa | 2.7V | 03:12:56 | 02:03:30 | 00:00:00 | |
| DF8AY | 2026-09-02 06:34:29 | 49.60398 | 8.24542 | 6° | 7km/h | 33237m | 4.2m/s | -36.9°C | 0% | 7.7hPa | 2.6V | 03:12:56 | 02:03:28 | 00:00:00 | |
| DL1XH1-15 | 2026-09-02 06:34:28 | 49.60403 | 8.24524 | 121° | 22km/h | 33215m | 4.4m/s | -37.1°C | 1.7% | 7.7hPa | 2.7V | 03:12:47 | 02:03:24 | 00:00:00 | |
| DL1XH-15 | 2026-09-02 06:34:27 | 49.60407 | 8.24511 | 111° | 15km/h | 33206m | 5m/s | -37.3°C | 1.7% | 7.7hPa | 2.6V | 03:12:49 | 02:03:22 | 00:00:00 | |
| AA1-15 | 2026-09-02 06:34:27 | 49.60397 | 8.24541 | 79° | 5km/h | 33232m | 5.8m/s | -36.9°C | 0% | 7.7hPa | 2.6V | 03:12:56 | 02:03:27 | 00:00:00 | |
| BIOWL1-15 | 2026-09-02 06:34:26 | 49.60400 | 8.24531 | 120° | 20km/h | 33220m | 5.3m/s | -37°C | 0% | 7.8hPa | 2.7V | 03:12:56 | 02:03:25 | 00:00:00 | |
| DL1XH-west | 2026-09-02 06:34:21 | 49.60408 | 8.24506 | 88° | 9km/h | 33201m | 5.7m/s | -37.3°C | 0% | 7.8hPa | 2.6V | 03:12:56 | 02:03:21 | 00:00:00 | |
| HSKMA3-T | 2026-09-02 06:34:20 | 49.60407 | 8.24504 | 19° | 5km/h | 33195m | 5.4m/s | -37.2°C | 0% | 7.8hPa | 2.6V | 03:12:56 | 02:03:20 | 00:00:00 | |
| BIOWL1-15 | 2026-09-02 06:34:17 | 49.60408 | 8.24507 | 147° | 22km/h | 33161m | 4.9m/s | -37°C | 0% | 7.8hPa | 2.7V | 03:13:47 | 02:03:13 | 00:00:00 | |
| AA1-15 | 2026-09-02 06:34:17 | 49.60401 | 8.24509 | 305° | 9km/h | 33182m | 4.2m/s | -37.1°C | 0% | 7.8hPa | 2.7V | 03:12:56 | 02:03:17 | 00:00:00 | |
| DL1XH-west | 2026-09-02 06:34:11 | 49.60417 | 8.24497 | 142° | 22km/h | 33152m | 4.1m/s | -37.1°C | 0% | 7.8hPa | 2.7V | 03:13:47 | 02:03:11 | 00:00:00 | |
| DM0DOS-11 | 2026-09-02 06:34:10 | 49.60426 | 8.24487 | 164° | 4km/h | 33137m | 5.4m/s | -36.9°C | 1.7% | 7.8hPa | 2.6V | 03:13:03 | 02:03:08 | 00:00:00 | |
| HSKMA3-T | 2026-09-02 06:34:10 | 49.60421 | 8.24492 | 142° | 18km/h | 33148m | 5m/s | -37.1°C | 0% | 7.8hPa | 2.6V | 03:13:47 | 02:03:10 | 00:00:00 | |
| DF8AY | 2026-09-02 06:34:06 | 49.60427 | 8.24489 | 276° | 5km/h | 33127m | 4.6m/s | -36.9°C | 0% | 7.9hPa | 2.7V | 03:13:47 | 02:03:06 | 00:00:00 | |
| BIOWL1-15 | 2026-09-02 06:34:05 | 49.60429 | 8.24493 | 153° | 5km/h | 33107m | 4.7m/s | -37°C | 0% | 7.9hPa | 2.6V | 03:13:47 | 02:03:02 | 00:00:00 | |
| DO3MHA-11 | 2026-09-02 06:34:05 | 49.60427 | 8.24491 | 264° | 7km/h | 33123m | 5.1m/s | -37.0°C | 1.7% | 7.8hPa | 2.7V | 03:13:00 | 02:03:05 | 00:00:00 | |
| NBG1-10 | 2026-09-02 06:34:04 | 49.60427 | 8.24493 | 235° | 13km/h | 33117m | 5.3m/s | -37.0°C | 1.7% | 7.8hPa | 2.6V | 03:13:00 | 02:03:04 | 00:00:00 | |
| DL4BBY-15 | 2026-09-02 06:34:03 | 49.60428 | 8.24494 | 186° | 16km/h | 33112m | 4.8m/s | -38.2°C | 0% | 0hPa | 2.6V | 00:00:00 | 00:00:00 | 00:00:00 | |
| IW2NTF | 2026-09-02 06:34:02 | 49.60431 | 8.24478 | 82° | 11km/h | 33081m | 4.6m/s | -37.1°C | 1.7% | 7.9hPa | 2.6V | 03:13:14 | 02:02:57 | 00:00:00 | |
| DL1XH-west | 2026-09-02 06:34:01 | 49.60430 | 8.24492 | 129° | 7km/h | 33102m | 4.5m/s | -37.1°C | 0% | 7.9hPa | 2.7V | 03:13:47 | 02:03:01 | 00:00:00 | |
| HSKMA3-T | 2026-09-02 06:33:59 | 49.60432 | 8.24486 | 92° | 9km/h | 33092m | 5.8m/s | -37.1°C | 0% | 7.9hPa | 2.7V | 03:13:47 | 02:02:59 | 00:00:00 | |
| DF8AY | 2026-09-02 06:33:56 | 49.60431 | 8.24474 | 96° | 13km/h | 33077m | 4.3m/s | -37.2°C | 0% | 7.9hPa | 2.6V | 03:13:47 | 02:02:56 | 00:00:00 | |
| AA1-15 | 2026-09-02 06:33:55 | 49.60432 | 8.24469 | 112° | 15km/h | 33072m | 4.4m/s | -37.2°C | 0% | 7.9hPa | 2.7V | 03:13:47 | 02:02:55 | 00:00:00 | |
| DL3AQ-11 | 2026-09-02 06:33:55 | 49.60434 | 8.24463 | 127° | 16km/h | 33067m | 5.6m/s | -37.3°C | 0.2% | 7.9hPa | 2.7V | 00:00:00 | 00:00:00 | 00:00:00 | |
| IW2NTF | 2026-09-02 06:33:52 | 49.60457 | 8.24456 | 292° | 13km/h | 33031m | 6.4m/s | -37.5°C | 1.7% | 7.9hPa | 2.7V | 03:13:24 | 02:02:47 | 00:00:00 | |
| DM0DOS-11 | 2026-09-02 06:33:52 | 49.60455 | 8.24449 | 204° | 11km/h | 33043m | 4.7m/s | -37.3°C | 1.6% | 7.9hPa | 2.7V | 03:13:22 | 02:02:49 | 00:00:00 | |
| BIOWL1-15 | 2026-09-02 06:33:52 | 49.60442 | 8.24453 | 151° | 24km/h | 33056m | 4.9m/s | -37.3°C | 0% | 7.9hPa | 2.6V | 03:13:47 | 02:02:52 | 00:00:00 | |
| DL1XH-west | 2026-09-02 06:33:50 | 49.60452 | 8.24448 | 178° | 16km/h | 33048m | 3.8m/s | -37.3°C | 0% | 7.9hPa | 2.6V | 03:13:47 | 02:02:50 | 00:00:00 | |
| HSKMA3-T | 2026-09-02 06:33:49 | 49.60455 | 8.24449 | 205° | 11km/h | 33043m | 4.7m/s | -37.3°C | 0% | 7.9hPa | 2.7V | 03:13:47 | 02:02:49 | 00:00:00 | |
| DF8AY | 2026-09-02 06:33:45 | 49.60451 | 8.24465 | 330° | 16km/h | 33022m | 3.4m/s | -37.6°C | 0% | 8hPa | 2.6V | 03:13:47 | 02:02:45 | 00:00:00 | |
| AA1-15 | 2026-09-02 06:33:44 | 49.60448 | 8.24467 | 356° | 11km/h | 33018m | 3.2m/s | -37.6°C | 0% | 8hPa | 2.6V | 03:13:47 | 02:02:44 | 00:00:00 | |
| BIOWL1-15 | 2026-09-02 06:33:41 | 49.60460 | 8.24421 | 128° | 29km/h | 32987m | 2.6m/s | -37.8°C | 0% | 8hPa | 2.6V | 03:13:47 | 02:02:38 | 00:00:00 | |
| DM0DOS-11 | 2026-09-02 06:33:40 | 49.60460 | 8.24421 | 127° | 29km/h | 32987m | 2.6m/s | -37.8°C | 1.7% | 8hPa | 2.6V | 03:13:33 | 02:02:38 | 00:00:00 | |
| HSKMA3-T | 2026-09-02 06:33:39 | 49.60455 | 8.24432 | 125° | 35km/h | 32990m | 3.8m/s | -37.7°C | 0% | 8hPa | 2.6V | 03:13:47 | 02:02:39 | 00:00:00 | |
| DB0ND-19 | 2026-09-02 06:33:37 | 49.60464 | 8.24414 | 130° | 18km/h | 32984m | 3.6m/s | -37.8°C | 0.2% | 8.0hPa | 2.6V | 00:00:00 | 00:00:00 | 00:00:00 | |
| DL1XH1-15 | 2026-09-02 06:33:36 | 49.60463 | 8.24414 | 314° | 20km/h | 32966m | 6.5m/s | -37.9°C | 1.7% | 8hPa | 2.6V | 03:13:37 | 02:02:34 | 00:00:00 | |
| DF8AY | 2026-09-02 06:33:35 | 49.60466 | 8.24410 | 309° | 7km/h | 32973m | 6.8m/s | -37.8°C | 0% | 8hPa | 2.7V | 03:13:47 | 02:02:35 | 00:00:00 | |
| AA1-15 | 2026-09-02 06:33:33 | 49.60459 | 8.24420 | 317° | 27km/h | 32960m | 5.3m/s | -38°C | 0% | 8hPa | 2.6V | 03:13:47 | 02:02:33 | 00:00:00 | |
| DL8DAS-15 | 2026-09-02 06:33:33 | 49.60459 | 8.24420 | 318° | 27km/h | 32961m | 5.3m/s | -38.0°C | 0.2% | 8.0hPa | 2.6V | 03:13:00 | 00:00:00 | 00:00:00 | |
| IW2NTF | 2026-09-02 06:33:32 | 49.60442 | 8.24425 | 105° | 22km/h | 32930m | 5.4m/s | -38.1°C | 1.7% | 8.1hPa | 2.6V | 03:13:44 | 02:02:27 | 00:00:00 | |
| DL1XH-west | 2026-09-02 06:33:29 | 49.60442 | 8.24436 | 40° | 9km/h | 32942m | 5.3m/s | -38°C | 0% | 8.1hPa | 2.7V | 03:13:47 | 02:02:29 | 00:00:00 | |
| HSKMA3-T | 2026-09-02 06:33:28 | 49.60441 | 8.24432 | 91° | 15km/h | 32936m | 5.6m/s | -38°C | 0% | 8.1hPa | 2.6V | 03:13:47 | 02:02:28 | 00:00:00 | |
| DL3AQ-11 | 2026-09-02 06:33:28 | 49.60442 | 8.24425 | 105° | 20km/h | 32931m | 5.4m/s | -38.1°C | 0.2% | 8.1hPa | 2.6V | 00:00:00 | 00:00:00 | 00:00:00 | |
| OE5DRO-10 | 2026-09-02 06:33:27 | 49.60442 | 8.24425 | 106° | 13km/h | 32931m | 5.4m/s | -38.0°C | 1.7% | 8.0hPa | 2.6V | 03:13:00 | 00:00:00 | 00:00:00 | |
| DL1XH1-15 | 2026-09-02 06:33:24 | 49.60448 | 8.24400 | 111° | 18km/h | 32915m | 4.9m/s | -38°C | 1.7% | 8.1hPa | 2.7V | 03:13:47 | 02:02:24 | 00:00:00 | |
| DF8AY | 2026-09-02 06:33:24 | 49.60448 | 8.24400 | 111° | 18km/h | 32915m | 4.9m/s | -38°C | 0% | 8.1hPa | 2.7V | 03:13:47 | 02:02:24 | 00:00:00 | |
| HEMX73-11 | 2026-09-02 06:33:24 | 49.60448 | 8.24400 | 112° | 18km/h | 32915m | 4.9m/s | -38.0°C | 0.2% | 8.1hPa | 2.7V | 03:13:00 | 00:00:00 | 00:00:00 | |
| DF1GD-15 | 2026-09-02 06:33:23 | 49.60448 | 8.24400 | 112° | 18km/h | 32915m | 4.9m/s | -38.0°C | 0.2% | 8.1hPa | 2.7V | 03:13:00 | 00:00:00 | 00:00:00 | |
| IW2NTF | 2026-09-02 06:33:22 | 49.60440 | 8.24407 | 321° | 7km/h | 32878m | 5.5m/s | -38.3°C | 1.8% | 8.1hPa | 2.7V | 03:13:54 | 02:02:17 | 00:00:00 | |
| AA1-15 | 2026-09-02 06:33:22 | 49.60449 | 8.24393 | 36° | 2km/h | 32904m | 5.4m/s | -38.1°C | 0% | 8.1hPa | 2.6V | 03:14:38 | 02:02:22 | 00:00:00 | |
| DL8DAS-15 | 2026-09-02 06:33:21 | 49.60449 | 8.24393 | 37° | 2km/h | 32905m | 5.4m/s | -38.1°C | 0.2% | 8.1hPa | 2.6V | 00:00:00 | 00:00:00 | 00:00:00 | |
| DG1MJG | 2026-09-02 06:33:20 | 49.60448 | 8.24393 | 316° | 7km/h | 32899m | 5.5m/s | -38.1°C | 0.2% | 8.1hPa | 2.6V | 03:14:00 | 00:00:00 | 00:00:00 | |
| DJ2KF-10 | 2026-09-02 06:33:19 | 49.60444 | 8.24401 | 311° | 11km/h | 32889m | 4.8m/s | -38.2°C | 1.7% | 8.1hPa | 2.6V | 00:00:00 | 02:02:19 | 00:00:00 | |
| DL1XH1-15 | 2026-09-02 06:33:18 | 49.60439 | 8.24401 | 94° | 13km/h | 32862m | 4.9m/s | -38.4°C | 1.8% | 8.2hPa | 2.6V | 03:13:57 | 02:02:14 | 00:00:00 | |
| DL1XH-west | 2026-09-02 06:33:18 | 49.60442 | 8.24405 | 313° | 13km/h | 32883m | 5.1m/s | -38.2°C | 0% | 8.2hPa | 2.7V | 03:14:38 | 02:02:18 | 00:00:00 | |
| DF8AY | 2026-09-02 06:33:14 | 49.60439 | 8.24401 | 94° | 13km/h | 32862m | 4.9m/s | -38.4°C | 0% | 8.2hPa | 2.6V | 03:14:38 | 02:02:14 | 00:00:00 | |
| AA1-15 | 2026-09-02 06:33:11 | 49.60437 | 8.24385 | 59° | 13km/h | 32847m | 5.8m/s | -38.5°C | 0% | 8.2hPa | 2.7V | 03:14:38 | 02:02:11 | 00:00:00 | |
| BIOWL1-15 | 2026-09-02 06:33:08 | 49.60425 | 8.24387 | 160° | 4km/h | 32808m | 5.6m/s | -38.5°C | 0% | 8.2hPa | 2.6V | 03:14:38 | 02:02:04 | 00:00:00 | |
| DL1XH-west | 2026-09-02 06:33:08 | 49.60430 | 8.24382 | 343° | 13km/h | 32831m | 4.8m/s | -38.6°C | 0% | 8.2hPa | 2.6V | 03:14:38 | 02:02:08 | 00:00:00 | |
| DF8AY | 2026-09-02 06:33:03 | 49.60426 | 8.24386 | 136° | 5km/h | 32803m | 5m/s | -38.5°C | 0% | 8.2hPa | 2.6V | 03:14:38 | 02:02:03 | 00:00:00 | |
| AA1-15 | 2026-09-02 06:33:00 | 49.60424 | 8.24382 | 13° | 11km/h | 32788m | 6.2m/s | -38.6°C | 0% | 8.3hPa | 2.7V | 03:14:38 | 02:02:00 | 00:00:00 | |
| SONDE2-11 | 2026-09-02 06:33:00 | 49.60421 | 8.24381 | 1° | 15km/h | 32782m | 6.4m/s | -38.6°C | 0.2% | 8.3hPa | 2.7V | 00:00:00 | 00:00:00 | 00:00:00 | |
| DL1XH1-15 | 2026-09-02 06:32:59 | 49.60403 | 8.24385 | 263° | 2km/h | 32754m | 6m/s | -38.5°C | 1.8% | 8.3hPa | 2.7V | 03:14:17 | 02:01:54 | 00:00:00 | |
| HSKMA3-T | 2026-09-02 06:32:58 | 49.60416 | 8.24381 | 355° | 20km/h | 32775m | 5.6m/s | -38.6°C | 0% | 8.3hPa | 2.6V | 03:14:38 | 02:01:58 | 00:00:00 | |
| DL1XH-west | 2026-09-02 06:32:57 | 49.60411 | 8.24382 | 352° | 20km/h | 32770m | 4.9m/s | -38.6°C | 0% | 8.3hPa | 2.6V | 03:14:38 | 02:01:57 | 00:00:00 | |
| BIOWL1-15 | 2026-09-02 06:32:56 | 49.60403 | 8.24385 | 264° | 2km/h | 32754m | 6m/s | -38.6°C | 0% | 8.3hPa | 2.7V | 03:14:38 | 02:01:54 | 00:00:00 | |
| DF8AY | 2026-09-02 06:32:52 | 49.60406 | 8.24388 | 197° | 13km/h | 32742m | 5.2m/s | -38.6°C | 0% | 8.3hPa | 2.6V | 03:14:38 | 02:01:52 | 00:00:00 | |
| AA1-15 | 2026-09-02 06:32:49 | 49.60414 | 8.24394 | 232° | 9km/h | 32726m | 6.2m/s | -38.7°C | 0% | 8.4hPa | 2.7V | 03:14:38 | 02:01:49 | 00:00:00 | |
| DJ2KF-10 | 2026-09-02 06:32:49 | 49.60414 | 8.24394 | 233° | 11km/h | 32726m | 6.1m/s | -38.6°C | 1.8% | 8.3hPa | 2.7V | 00:00:00 | 02:01:49 | 00:00:00 | |
| DL1XH1-15 | 2026-09-02 06:32:48 | 49.60408 | 8.24398 | 45° | 11km/h | 32696m | 6.3m/s | -38.9°C | 1.8% | 8.4hPa | 2.6V | 03:14:27 | 02:01:44 | 00:00:00 | |
| HSKMA3-T | 2026-09-02 06:32:47 | 49.60414 | 8.24399 | 321° | 7km/h | 32714m | 5.9m/s | -38.8°C | 0% | 8.3hPa | 2.7V | 03:14:38 | 02:01:47 | 00:00:00 | |
| DL1XH-west | 2026-09-02 06:32:46 | 49.60413 | 8.24400 | 354° | 7km/h | 32708m | 5.6m/s | -38.8°C | 0% | 8.4hPa | 2.6V | 03:14:38 | 02:01:46 | 00:00:00 | |
| BIOWL1-15 | 2026-09-02 06:32:44 | 49.60407 | 8.24394 | 65° | 11km/h | 32690m | 5.5m/s | -39°C | 0% | 8.4hPa | 2.7V | 03:14:38 | 02:01:43 | 00:00:00 | |
| DL9PN | 2026-09-02 06:32:44 | 49.60407 | 8.24394 | 64° | 9km/h | 32690m | 5.5m/s | -39.0°C | 0.2% | 8.4hPa | 2.7V | 00:00:00 | 00:00:00 | 00:00:00 | |
| DB0UT-9 | 2026-09-02 06:32:43 | 49.60407 | 8.24394 | 66° | 11km/h | 32690m | 5.5m/s | -39.0°C | 0.2% | 8.4hPa | 2.7V | 03:14:00 | 00:00:00 | 00:00:00 | |
| IW2NTF | 2026-09-02 06:32:42 | 49.60406 | 8.24393 | 260° | 13km/h | 32657m | 5.3m/s | -39.1°C | 1.9% | 8.4hPa | 2.7V | 03:14:34 | 02:01:37 | 00:00:00 | |
| DF8AY | 2026-09-02 06:32:42 | 49.60406 | 8.24391 | 77° | 9km/h | 32685m | 4.7m/s | -39°C | 0% | 8.4hPa | 2.7V | 03:14:38 | 02:01:42 | 00:00:00 | |
| DM0DOS-11 | 2026-09-02 06:32:41 | 49.60407 | 8.24398 | 247° | 15km/h | 32651m | 5.1m/s | -39.1°C | 1.8% | 8.4hPa | 2.7V | 03:14:35 | 02:01:36 | 00:00:00 | |
| AA1-15 | 2026-09-02 06:32:38 | 49.60405 | 8.24389 | 270° | 9km/h | 32662m | 6.2m/s | -39.2°C | 0% | 8.4hPa | 2.6V | 03:14:38 | 02:01:38 | 00:00:00 | |
| HSKMA3-T | 2026-09-02 06:32:37 | 49.60406 | 8.24393 | 260° | 13km/h | 32657m | 5.3m/s | -39.1°C | 0% | 8.4hPa | 2.7V | 03:14:38 | 02:01:37 | 00:00:00 | |
| DL1XH-west | 2026-09-02 06:32:35 | 49.60409 | 8.24403 | 232° | 16km/h | 32646m | 5.9m/s | -39.2°C | 0% | 8.4hPa | 2.7V | 03:14:38 | 02:01:35 | 00:00:00 | |
| BIOWL1-15 | 2026-09-02 06:32:34 | 49.60420 | 8.24412 | 189° | 18km/h | 32628m | 5.2m/s | -39.1°C | 0% | 8.5hPa | 2.6V | 03:15:29 | 02:01:32 | 00:00:00 | |
| SONCRA | 2026-09-02 06:32:34 | 49.60416 | 8.24410 | 200° | 16km/h | 32633m | 6.2m/s | -39.1°C | 0.2% | 8.4hPa | 2.6V | 00:00:00 | 00:00:00 | 00:00:00 | |
| EDDB2-11 | 2026-09-02 06:32:33 | 49.60420 | 8.24412 | 188° | 16km/h | 32628m | 5.2m/s | -39.1°C | 0.2% | 8.5hPa | 2.6V | 00:00:00 | 00:00:00 | 00:00:00 | |
| IW2NTF | 2026-09-02 06:32:32 | 49.60432 | 8.24416 | 271° | 2km/h | 32599m | 5.3m/s | -39.2°C | 1.9% | 8.5hPa | 2.6V | 03:14:44 | 02:01:27 | 00:00:00 | |
| DF8AY | 2026-09-02 06:32:31 | 49.60424 | 8.24413 | 184° | 16km/h | 32622m | 4.8m/s | -39.1°C | 0% | 8.5hPa | 2.7V | 03:15:29 | 02:01:31 | 00:00:00 | |
| AA1-15 | 2026-09-02 06:32:28 | 49.60431 | 8.24415 | 221° | 4km/h | 32604m | 6.1m/s | -39.2°C | 0% | 8.5hPa | 2.6V | 03:15:29 | 02:01:28 | 00:00:00 | |
| HSKMA3-T | 2026-09-02 06:32:26 | 49.60432 | 8.24416 | 88° | 0km/h | 32593m | 5.1m/s | -39.2°C | 0% | 8.5hPa | 2.6V | 03:15:29 | 02:01:26 | 00:00:00 | |
| DL1XH-west | 2026-09-02 06:32:24 | 49.60432 | 8.24412 | 117° | 9km/h | 32582m | 6.5m/s | -39.2°C | 0% | 8.5hPa | 2.7V | 03:15:29 | 02:01:24 | 00:00:00 | |
| DL3AQ-11 | 2026-09-02 06:32:24 | 49.60434 | 8.24408 | 127° | 15km/h | 32576m | 6.4m/s | -39.2°C | 0.2% | 8.5hPa | 2.6V | 00:00:00 | 00:00:00 | 00:00:00 | |
| GOEST3-10 | 2026-09-02 06:32:22 | 49.60437 | 8.24403 | 135° | 18km/h | 32570m | 5.5m/s | -39.2°C | 1.9% | 8.5hPa | 2.6V | 00:00:00 | 02:01:22 | 00:00:00 | |
| IW2NTF | 2026-09-02 06:32:21 | 49.60454 | 8.24398 | 229° | 7km/h | 32535m | 4.9m/s | -39.1°C | 1.9% | 8.6hPa | 2.6V | 03:14:55 | 02:01:16 | 00:00:00 | |
| BIOWL1-15 | 2026-09-02 06:32:21 | 49.60448 | 8.24394 | 173° | 13km/h | 32553m | 6.7m/s | -39.3°C | 0% | 8.6hPa | 2.7V | 03:15:29 | 02:01:19 | 00:00:00 | |
| DF8AY | 2026-09-02 06:32:20 | 49.60444 | 8.24395 | 154° | 16km/h | 32559m | 5.5m/s | -39.2°C | 0% | 8.6hPa | 2.6V | 03:15:29 | 02:01:20 | 00:00:00 | |
| DJ2KF-10 | 2026-09-02 06:32:19 | 49.60448 | 8.24394 | 174° | 15km/h | 32553m | 6.6m/s | -39.2°C | 1.9% | 8.5hPa | 2.6V | 00:00:00 | 02:01:19 | 00:00:00 | |
| DL1XH1-15 | 2026-09-02 06:32:18 | 49.60456 | 8.24399 | 138° | 7km/h | 32524m | 6.5m/s | -39°C | 1.9% | 8.6hPa | 2.6V | 03:14:57 | 02:01:14 | 00:00:00 | |
| AA1-15 | 2026-09-02 06:32:16 | 49.60454 | 8.24398 | 229° | 7km/h | 32535m | 4.9m/s | -39.1°C | 0% | 8.6hPa | 2.6V | 03:15:29 | 02:01:16 | 00:00:00 | |
| HSKMA3-T | 2026-09-02 06:32:15 | 49.60455 | 8.24400 | 201° | 4km/h | 32530m | 5.2m/s | -39.1°C | 0% | 8.6hPa | 2.6V | 03:15:29 | 02:01:15 | 00:00:00 | |
| DL1XH-west | 2026-09-02 06:32:14 | 49.60456 | 8.24399 | 139° | 7km/h | 32524m | 6.5m/s | -39°C | 0% | 8.6hPa | 2.6V | 03:15:29 | 02:01:14 | 00:00:00 | |
| DL8DAS-14 | 2026-09-02 06:32:14 | 49.60458 | 8.24396 | 116° | 13km/h | 32518m | 6.7m/s | -39.0°C | 0.2% | 8.6hPa | 2.7V | 00:00:00 | 00:00:00 | 00:00:00 | |
| DL9PN | 2026-09-02 06:32:13 | 49.60459 | 8.24390 | 109° | 18km/h | 32511m | 6.3m/s | -38.9°C | 0.2% | 8.6hPa | 2.7V | 00:00:00 | 00:00:00 | 00:00:00 | |
| GOEST3-10 | 2026-09-02 06:32:12 | 49.60459 | 8.24390 | 110° | 20km/h | 32511m | 6.3m/s | -38.9°C | 1.9% | 8.6hPa | 2.7V | 00:00:00 | 02:01:12 | 00:00:00 | |
| IW2NTF | 2026-09-02 06:32:11 | 49.60464 | 8.24350 | 114° | 11km/h | 32476m | 5.2m/s | -38.7°C | 1.9% | 8.7hPa | 2.7V | 03:15:05 | 02:01:06 | 00:00:00 | |
| DF8AY | 2026-09-02 06:32:09 | 49.60462 | 8.24366 | 94° | 18km/h | 32493m | 6.5m/s | -38.8°C | 0% | 8.7hPa | 2.6V | 03:15:29 | 02:01:09 | 00:00:00 | |
| DL1XH-15 | 2026-09-02 06:32:07 | 49.60474 | 8.24335 | 149° | 18km/h | 32452m | 5.1m/s | -38.6°C | 1.8% | 8.7hPa | 2.6V | 03:15:09 | 02:01:02 | 00:00:00 | |
| DL1XH1-15 | 2026-09-02 06:32:07 | 49.60468 | 8.24343 | 140° | 15km/h | 32464m | 6.7m/s | -38.6°C | 1.8% | 8.7hPa | 2.6V | 03:15:07 | 02:01:04 | 00:00:00 | |
| GOEST3-10 | 2026-09-02 06:32:07 | 49.60463 | 8.24354 | 98° | 15km/h | 32481m | 5.2m/s | -38.7°C | 1.8% | 8.6hPa | 2.7V | 00:00:00 | 00:00:00 | 00:00:00 | |
| DM0DOS-11 | 2026-09-02 06:32:06 | 49.60478 | 8.24332 | 151° | 16km/h | 32447m | 4.9m/s | -38.6°C | 1.8% | 8.7hPa | 2.7V | 03:15:10 | 02:01:01 | 00:00:00 | |
| AA1-15 | 2026-09-02 06:32:06 | 49.60464 | 8.24350 | 114° | 11km/h | 32476m | 5.2m/s | -38.7°C | 0% | 8.7hPa | 2.7V | 03:15:29 | 02:01:06 | 00:00:00 | |
| DL1XH-west | 2026-09-02 06:32:04 | 49.60468 | 8.24343 | 141° | 15km/h | 32464m | 6.7m/s | -38.6°C | 0% | 8.7hPa | 2.6V | 03:15:29 | 02:01:04 | 00:00:00 | |
| DL0LBS | 2026-09-02 06:32:03 | 49.60471 | 8.24339 | 146° | 16km/h | 32458m | 6.0m/s | -38.6°C | 0.3% | 8.7hPa | 2.6V | 03:15:00 | 00:00:00 | 00:00:00 | |
| GOEST3-10 | 2026-09-02 06:32:02 | 49.60475 | 8.24335 | 150° | 11km/h | 32452m | 5.1m/s | -38.5°C | 1.8% | 8.6hPa | 2.6V | 00:00:00 | 02:01:02 | 00:00:00 | |
| IW2NTF | 2026-09-02 06:32:01 | 49.60487 | 8.24323 | 117° | 7km/h | 32419m | 4.8m/s | -38.5°C | 1.8% | 8.7hPa | 2.6V | 03:15:15 | 02:00:56 | 00:00:00 | |
| BIOWL1-15 | 2026-09-02 06:31:58 | 49.60485 | 8.24326 | 151° | 5km/h | 32429m | 6.1m/s | -38.6°C | 0% | 8.7hPa | 2.6V | 03:15:29 | 02:00:58 | 00:00:00 | |
| SONDE2-11 | 2026-09-02 06:31:58 | 49.60486 | 8.24325 | 125° | 4km/h | 32424m | 5.1m/s | -38.6°C | 0.2% | 8.7hPa | 2.7V | 00:00:00 | 00:00:00 | 00:00:00 | |
| DL1XH1-15 | 2026-09-02 06:31:57 | 49.60490 | 8.24314 | 124° | 20km/h | 32408m | 6.5m/s | -38.5°C | 1.8% | 8.7hPa | 2.7V | 03:15:17 | 02:00:54 | 00:00:00 | |
| AA1-15 | 2026-09-02 06:31:55 | 49.60488 | 8.24320 | 120° | 13km/h | 32414m | 5.1m/s | -38.5°C | 0% | 8.8hPa | 2.7V | 03:15:29 | 02:00:55 | 00:00:00 | |
| HSKMA3-T | 2026-09-02 06:31:54 | 49.60490 | 8.24314 | 124° | 20km/h | 32408m | 6.5m/s | -38.6°C | 0% | 8.7hPa | 2.7V | 03:15:29 | 02:00:54 | 00:00:00 | |
| DL1XH-west | 2026-09-02 06:31:53 | 49.60494 | 8.24307 | 127° | 27km/h | 32401m | 7m/s | -38.5°C | 0% | 8.8hPa | 2.7V | 03:15:29 | 02:00:53 | 00:00:00 | |
| IW2NTF | 2026-09-02 06:31:51 | 49.60518 | 8.24249 | 99° | 9km/h | 32360m | 5.7m/s | -38.3°C | 1.8% | 8.8hPa | 2.6V | 03:15:25 | 02:00:46 | 00:00:00 | |
| DF8AY | 2026-09-02 06:31:48 | 49.60516 | 8.24259 | 116° | 20km/h | 32372m | 6.7m/s | -38.4°C | 0% | 8.8hPa | 2.7V | 03:15:29 | 02:00:48 | 00:00:00 | |
| NBG1-10 | 2026-09-02 06:31:48 | 49.60516 | 8.24259 | 117° | 18km/h | 32373m | 6.6m/s | -38.4°C | 1.8% | 8.7hPa | 2.6V | 03:15:00 | 02:00:48 | 00:00:00 | |
| DL1XH1-15 | 2026-09-02 06:31:47 | 49.60519 | 8.24243 | 118° | 9km/h | 32348m | 5.9m/s | -38.4°C | 1.8% | 8.8hPa | 2.6V | 03:15:27 | 02:00:44 | 00:00:00 | |
| DJ2DS-15 | 2026-09-02 06:31:46 | 49.60518 | 8.24249 | 99° | 9km/h | 32360m | 5.7m/s | -38.3°C | 0.2% | 8.8hPa | 2.6V | 00:00:00 | 00:00:00 | 00:00:00 | |
| AA1-15 | 2026-09-02 06:31:44 | 49.60519 | 8.24243 | 118° | 9km/h | 32348m | 5.9m/s | -38.4°C | 0% | 8.8hPa | 2.6V | 03:15:29 | 02:00:44 | 00:00:00 | |
| HSKMA3-T | 2026-09-02 06:31:43 | 49.60521 | 8.24239 | 129° | 15km/h | 32342m | 6.3m/s | -38.4°C | 0% | 8.8hPa | 2.7V | 03:15:29 | 02:00:43 | 00:00:00 | |
| DL1XH-west | 2026-09-02 06:31:42 | 49.60524 | 8.24234 | 132° | 20km/h | 32337m | 5.8m/s | -38.3°C | 0% | 8.8hPa | 2.7V | 03:15:29 | 02:00:42 | 00:00:00 | |
| BIOWL1-15 | 2026-09-02 06:31:38 | 49.60537 | 8.24202 | 110° | 26km/h | 32313m | 6.6m/s | -38.2°C | 0% | 8.9hPa | 2.6V | 03:16:20 | 02:00:38 | 00:00:00 | |
| DB0UT-9 | 2026-09-02 06:31:38 | 49.60537 | 8.24202 | 111° | 26km/h | 32314m | 6.6m/s | -38.2°C | 0.2% | 8.9hPa | 2.6V | 03:16:00 | 00:00:00 | 00:00:00 | |
| DL1XH1-15 | 2026-09-02 06:31:37 | 49.60543 | 8.24166 | 111° | 22km/h | 32289m | 6.6m/s | -38.2°C | 1.8% | 8.9hPa | 2.6V | 03:15:37 | 02:00:34 | 00:00:00 | |
| DM0DOS-11 | 2026-09-02 06:31:37 | 49.60549 | 8.24152 | 128° | 20km/h | 32277m | 5.1m/s | -38°C | 1.8% | 8.9hPa | 2.6V | 03:15:39 | 02:00:32 | 00:00:00 | |
| DF8AY | 2026-09-02 06:31:37 | 49.60539 | 8.24193 | 103° | 26km/h | 32307m | 6.1m/s | -38.2°C | 0% | 8.9hPa | 2.7V | 03:16:20 | 02:00:37 | 00:00:00 | |
| HSKMA3-T | 2026-09-02 06:31:33 | 49.60546 | 8.24158 | 120° | 22km/h | 32283m | 6.1m/s | -38.1°C | 0% | 8.9hPa | 2.6V | 03:16:20 | 02:00:33 | 00:00:00 | |
| DL1XH-west | 2026-09-02 06:31:32 | 49.60549 | 8.24152 | 129° | 20km/h | 32277m | 5.1m/s | -38°C | 0% | 8.9hPa | 2.6V | 03:16:20 | 02:00:32 | 00:00:00 | |
| SONCRA | 2026-09-02 06:31:32 | 49.60552 | 8.24146 | 132° | 16km/h | 32272m | 5.1m/s | -38.1°C | 0.2% | 8.9hPa | 2.7V | 00:00:00 | 00:00:00 | 00:00:00 | |
| OE5DRO-10 | 2026-09-02 06:31:31 | 49.60551 | 8.24146 | 133° | 16km/h | 32273m | 5.0m/s | -38.0°C | 1.8% | 8.9hPa | 2.7V | 00:00:00 | 00:00:00 | 00:00:00 | |
| SSTOLZ84 | 2026-09-02 06:31:30 | 49.60554 | 8.24142 | 133° | 11km/h | 32267m | 5.9m/s | -38.1°C | 0.2% | 8.9hPa | 2.7V | 00:00:00 | 00:00:00 | 00:00:00 | |
| DC6BW-12 | 2026-09-02 06:31:29 | 49.60554 | 8.24142 | 134° | 13km/h | 32267m | 5.9m/s | 0°C | 0% | 0hPa | 2.7V | 00:00:00 | 00:00:00 | 00:00:00 | |
| DL3AQ-11 | 2026-09-02 06:31:28 | 49.60557 | 8.24134 | 100° | 7km/h | 32248m | 5.1m/s | -38.0°C | 0.2% | 9.0hPa | 2.7V | 00:00:00 | 00:00:00 | 00:00:00 | |
| DL1XH1-15 | 2026-09-02 06:31:27 | 49.60561 | 8.24118 | 122° | 24km/h | 32232m | 6.4m/s | -38.1°C | 1.8% | 9hPa | 2.7V | 03:15:47 | 02:00:24 | 00:00:00 | |
| BIOWL1-15 | 2026-09-02 06:31:27 | 49.60557 | 8.24134 | 100° | 7km/h | 32248m | 5.1m/s | -38°C | 0% | 9hPa | 2.6V | 03:16:20 | 02:00:27 | 00:00:00 | |
| DF8AY | 2026-09-02 06:31:26 | 49.60558 | 8.24130 | 107° | 11km/h | 32243m | 4.8m/s | -38°C | 0% | 8.9hPa | 2.6V | 03:16:20 | 02:00:26 | 00:00:00 | |
| HSKMA3-T | 2026-09-02 06:31:22 | 49.60570 | 8.24101 | 132° | 35km/h | 32219m | 6.3m/s | -38.1°C | 0% | 9hPa | 2.6V | 03:16:20 | 02:00:22 | 00:00:00 | |
| DL1XH-west | 2026-09-02 06:31:21 | 49.60576 | 8.24091 | 134° | 35km/h | 32213m | 5.1m/s | -38.1°C | 0% | 9hPa | 2.6V | 03:16:20 | 02:00:21 | 00:00:00 | |
| BIOWL1-15 | 2026-09-02 06:31:18 | 49.60588 | 8.24060 | 22° | 11km/h | 32185m | 7m/s | -38°C | 0% | 9.1hPa | 2.6V | 03:16:20 | 02:00:16 | 00:00:00 | |
| DL1XH1-15 | 2026-09-02 06:31:17 | 49.60582 | 8.24058 | 8° | 13km/h | 32174m | 3.8m/s | -38°C | 1.8% | 9.1hPa | 2.7V | 03:15:57 | 02:00:14 | 00:00:00 | |
| DF8AY | 2026-09-02 06:31:15 | 49.60585 | 8.24059 | 6° | 15km/h | 32179m | 5m/s | -38°C | 0% | 9.1hPa | 2.7V | 03:16:20 | 02:00:15 | 00:00:00 | |
| DL3AQ-11 | 2026-09-02 06:31:15 | 49.60582 | 8.24058 | 8° | 11km/h | 32175m | 3.8m/s | -38.0°C | 0.2% | 9.1hPa | 2.7V | 00:00:00 | 00:00:00 | 00:00:00 | |
| EDDB2-12 | 2026-09-02 06:31:14 | 49.60579 | 8.24057 | 40° | 7km/h | 32170m | 4.5m/s | -38.0°C | 0.2% | 9.1hPa | 2.7V | 00:00:00 | 00:00:00 | 00:00:00 | |
| CB1BUN | 2026-09-02 06:31:13 | 49.60579 | 8.24057 | 41° | 7km/h | 32171m | 4.5m/s | -38.0°C | 0.2% | 9.1hPa | 2.7V | 03:16:00 | 00:00:00 | 00:00:00 | |
| DL8DAS-14 | 2026-09-02 06:31:12 | 49.60581 | 8.24049 | 130° | 20km/h | 32159m | 6.6m/s | -38.1°C | 0.2% | 9.1hPa | 2.7V | 00:00:00 | 00:00:00 | 00:00:00 | |
| IW2NTF | 2026-09-02 06:31:11 | 49.60610 | 8.23997 | 114° | 33km/h | 32131m | 5.5m/s | -38.1°C | 0% | 9.1hPa | 2.7V | 03:16:05 | 02:00:06 | 00:00:00 | |
| HSKMA3-T | 2026-09-02 06:31:11 | 49.60581 | 8.24049 | 131° | 20km/h | 32159m | 6.6m/s | -38.1°C | 0% | 9.1hPa | 2.7V | 03:16:20 | 02:00:11 | 00:00:00 | |
| DL1XH-west | 2026-09-02 06:31:10 | 49.60586 | 8.24042 | 136° | 33km/h | 32152m | 6.3m/s | -38.1°C | 0% | 9.1hPa | 2.7V | 03:16:20 | 02:00:10 | 00:00:00 | |
| DK7TD | 2026-09-02 06:31:05 | 49.60612 | 8.23986 | 97° | 27km/h | 32125m | 6.4m/s | 0°C | 0% | 0hPa | 2.6V | 18:12:15 | 02:00:05 | 00:00:00 | |
| DO3MHA-11 | 2026-09-02 06:31:05 | 49.60612 | 8.23986 | 97° | 18km/h | 32126m | 6.3m/s | -38.1°C | 1.8% | 9.1hPa | 2.6V | 00:00:00 | 02:00:05 | 00:00:00 | |
| DL4BBY-15 | 2026-09-02 06:31:03 | 49.60609 | 8.23969 | 51° | 16km/h | 32113m | 6.2m/s | -39.1°C | 0% | 0hPa | 2.6V | 00:00:00 | 00:00:00 | 00:00:00 | |
| DB0ND-19 | 2026-09-02 06:31:02 | 49.60605 | 8.23963 | 35° | 20km/h | 32107m | 5.4m/s | -37.8°C | 0.2% | 9.1hPa | 2.6V | 00:00:00 | 00:00:00 | 00:00:00 | |
| IW2NTF | 2026-09-02 06:31:01 | 49.60607 | 8.23938 | 132° | 26km/h | 32073m | 5.8m/s | -38°C | 0% | 9.2hPa | 2.6V | 03:16:15 | 01:59:56 | 00:00:00 | |
| HSKMA3-T | 2026-09-02 06:31:01 | 49.60602 | 8.23960 | 33° | 16km/h | 32101m | 5.1m/s | -37.8°C | 0% | 9.1hPa | 2.6V | 03:16:20 | 02:00:01 | 00:00:00 | |
| DL1XH-west | 2026-09-02 06:31:00 | 49.60599 | 8.23956 | 47° | 11km/h | 32096m | 5.8m/s | -37.8°C | 0% | 9.2hPa | 2.6V | 03:16:20 | 02:00:00 | 00:00:00 | |
| BIOWL1-15 | 2026-09-02 06:30:55 | 49.60611 | 8.23931 | 126° | 27km/h | 32067m | 6.4m/s | -38°C | 0% | 9.2hPa | 2.6V | 03:16:20 | 01:59:55 | 00:00:00 | |
| DF8AY | 2026-09-02 06:30:54 | 49.60614 | 8.23922 | 118° | 27km/h | 32061m | 5.9m/s | -38°C | 0% | 9.2hPa | 2.7V | 03:16:20 | 01:59:54 | 00:00:00 | |
| GOEST3-10 | 2026-09-02 06:30:54 | 49.60614 | 8.23921 | 119° | 26km/h | 32061m | 5.9m/s | -37.9°C | 1.7% | 9.2hPa | 2.7V | 03:16:00 | 00:00:00 | 00:00:00 | |
| OE5DRO-10 | 2026-09-02 06:30:53 | 49.60617 | 8.23912 | 110° | 15km/h | 32056m | 5.2m/s | -37.9°C | 1.7% | 9.2hPa | 2.7V | 03:16:00 | 00:00:00 | 00:00:00 | |
| CB1BUN | 2026-09-02 06:30:52 | 49.60617 | 8.23912 | 110° | 27km/h | 32056m | 5.3m/s | -37.9°C | 0.2% | 9.2hPa | 2.7V | 03:16:00 | 00:00:00 | 00:00:00 | |
| IW2NTF | 2026-09-02 06:30:51 | 49.60627 | 8.23870 | 119° | 5km/h | 32016m | 5.1m/s | -38.1°C | 0% | 9.3hPa | 2.7V | 03:16:25 | 01:59:46 | 00:00:00 | |
| HSKMA3-T | 2026-09-02 06:30:50 | 49.60621 | 8.23886 | 105° | 18km/h | 32039m | 6.1m/s | -38.1°C | 0% | 9.2hPa | 2.6V | 03:17:11 | 01:59:50 | 00:00:00 | |
| DL1XH-west | 2026-09-02 06:30:49 | 49.60623 | 8.23879 | 111° | 15km/h | 32033m | 6.2m/s | -38.1°C | 0% | 9.3hPa | 2.6V | 03:17:11 | 01:59:49 | 00:00:00 | |
| DJ2KF-10 | 2026-09-02 06:30:49 | 49.60623 | 8.23879 | 112° | 11km/h | 32034m | 6.2m/s | -38.0°C | 1.8% | 9.2hPa | 2.6V | 00:00:00 | 01:59:49 | 00:00:00 | |
| DG1MJG | 2026-09-02 06:30:48 | 49.60624 | 8.23875 | 122° | 11km/h | 32027m | 5.9m/s | -38.0°C | 0.2% | 9.3hPa | 2.6V | 03:17:00 | 00:00:00 | 00:00:00 | |
| DL1XH1-15 | 2026-09-02 06:30:47 | 49.60626 | 8.23866 | 57° | 7km/h | 32005m | 6.4m/s | -38.2°C | 1.8% | 9.3hPa | 2.6V | 03:16:27 | 01:59:44 | 00:00:00 | |
| BIOWL1-15 | 2026-09-02 06:30:44 | 49.60626 | 8.23866 | 58° | 7km/h | 32005m | 6.4m/s | -38.3°C | 0% | 9.3hPa | 2.6V | 03:17:11 | 01:59:44 | 00:00:00 | |
| GOEST3-10 | 2026-09-02 06:30:44 | 49.60626 | 8.23866 | 58° | 13km/h | 32006m | 6.4m/s | -38.2°C | 1.8% | 9.2hPa | 2.7V | 00:00:00 | 00:00:00 | 00:00:00 | |
| EDDB2-12 | 2026-09-02 06:30:43 | 49.60624 | 8.23859 | 70° | 11km/h | 31994m | 4.9m/s | -38.4°C | 0.2% | 9.3hPa | 2.7V | 00:00:00 | 00:00:00 | 00:00:00 | |
| NBG1-10 | 2026-09-02 06:30:42 | 49.60624 | 8.23859 | 71° | 11km/h | 31994m | 4.9m/s | -38.3°C | 1.8% | 9.3hPa | 2.7V | 00:00:00 | 01:59:42 | 00:00:00 | |
| IW2NTF | 2026-09-02 06:30:41 | 49.60638 | 8.23832 | 151° | 16km/h | 31962m | 3.8m/s | -38.5°C | 0% | 9.3hPa | 2.7V | 03:16:35 | 01:59:36 | 00:00:00 | |
| HSKMA3-T | 2026-09-02 06:30:39 | 49.60626 | 8.23844 | 131° | 18km/h | 31977m | 6.6m/s | -38.5°C | 0% | 9.3hPa | 2.6V | 03:17:11 | 01:59:39 | 00:00:00 | |
| DL1XH-west | 2026-09-02 06:30:38 | 49.60629 | 8.23839 | 144° | 20km/h | 31971m | 5.7m/s | -38.4°C | 0% | 9.3hPa | 2.6V | 03:17:11 | 01:59:38 | 00:00:00 | |
| DO1YAY-16 | 2026-09-02 06:30:38 | 49.60634 | 8.23835 | 151° | 20km/h | 31966m | 4.4m/s | -38.4°C | 0.2% | 9.3hPa | 2.7V | 00:00:00 | 00:00:00 | 00:00:00 | |
| D01LWL | 2026-09-02 06:30:37 | 49.60634 | 8.23835 | 151° | 20km/h | 31966m | 4.4m/s | 0°C | -1.0% | -1.0hPa | 2.7V | 00:00:00 | 00:00:00 | 00:00:00 | |
| DB0UT-9 | 2026-09-02 06:30:36 | 49.60634 | 8.23835 | 152° | 20km/h | 31966m | 4.4m/s | -38.4°C | 0.2% | 9.3hPa | 2.7V | 03:17:00 | 00:00:00 | 00:00:00 | |
| DL1XH-15 | 2026-09-02 06:30:35 | 49.60642 | 8.23827 | 95° | 5km/h | 31952m | 6.3m/s | -38.6°C | 1.8% | 9.4hPa | 2.7V | 03:16:37 | 01:59:34 | 00:00:00 | |
| BIOWL1-15 | 2026-09-02 06:30:33 | 49.60641 | 8.23825 | 24° | 9km/h | 31945m | 6.5m/s | -38.6°C | 0% | 9.4hPa | 2.6V | 03:17:11 | 01:59:33 | 00:00:00 | |
| DL1XH-west | 2026-09-02 06:30:28 | 49.60628 | 8.23828 | 269° | 5km/h | 31917m | 5.5m/s | -38.6°C | 0% | 9.4hPa | 2.7V | 03:17:11 | 01:59:28 | 00:00:00 | |
| AA1-15 | 2026-09-02 06:30:27 | 49.60629 | 8.23831 | 225° | 9km/h | 31912m | 5.1m/s | -38.6°C | 0% | 9.4hPa | 2.6V | 03:17:11 | 01:59:27 | 00:00:00 | |
| DL1XH1-15 | 2026-09-02 06:30:27 | 49.60635 | 8.23838 | 213° | 11km/h | 31896m | 6m/s | -38.8°C | 1.8% | 9.4hPa | 2.7V | 03:16:47 | 01:59:24 | 00:00:00 | |
| BIOWL1-15 | 2026-09-02 06:30:22 | 49.60639 | 8.23842 | 231° | 7km/h | 31885m | 4.8m/s | -38.9°C | 0% | 9.4hPa | 2.6V | 03:17:11 | 01:59:22 | 00:00:00 | |
| DH7VM-15 | 2026-09-02 06:30:21 | 49.60640 | 8.23844 | 234° | 5km/h | 31881m | 4.5m/s | -38.9°C | 0.2% | 9.5hPa | 2.6V | 00:00:00 | 00:00:00 | 00:00:00 | |
| DJ2KF-10 | 2026-09-02 06:30:19 | 49.60642 | 8.23847 | 204° | 11km/h | 31871m | 5.4m/s | -38.8°C | 1.8% | 9.4hPa | 2.6V | 00:00:00 | 01:59:19 | 00:00:00 | |
| DL1XH-15 | 2026-09-02 06:30:18 | 49.60653 | 8.23852 | 345° | 4km/h | 31838m | 6.5m/s | -39°C | 1.8% | 9.5hPa | 2.6V | 03:16:58 | 01:59:13 | 00:00:00 | |
| DL1XH-west | 2026-09-02 06:30:18 | 49.60644 | 8.23848 | 195° | 11km/h | 31865m | 6m/s | -38.8°C | 0% | 9.5hPa | 2.6V | 03:17:11 | 01:59:18 | 00:00:00 | |
| DF7PN | 2026-09-02 06:30:18 | 49.60647 | 8.23849 | 191° | 11km/h | 31859m | 5.4m/s | -38.8°C | 0.2% | 9.5hPa | 2.6V | 00:00:00 | 00:00:00 | 00:00:00 | |
| DL1XH1-15 | 2026-09-02 06:30:17 | 49.60653 | 8.23851 | 221° | 2km/h | 31844m | 5.4m/s | -38.9°C | 1.8% | 9.5hPa | 2.6V | 03:16:57 | 01:59:14 | 00:00:00 | |
| DF8AY | 2026-09-02 06:30:17 | 49.60651 | 8.23852 | 358° | 9km/h | 31832m | 5.6m/s | -39°C | 0% | 9.5hPa | 2.7V | 03:17:11 | 01:59:12 | 00:00:00 | |
| AA1-15 | 2026-09-02 06:30:17 | 49.60647 | 8.23849 | 191° | 11km/h | 31859m | 5.4m/s | -38.8°C | 0% | 9.5hPa | 2.6V | 03:17:11 | 01:59:17 | 00:00:00 | |
| BIOWL1-15 | 2026-09-02 06:30:11 | 49.60649 | 8.23852 | 1° | 9km/h | 31828m | 4.4m/s | -38.9°C | 0% | 9.6hPa | 2.7V | 03:17:11 | 01:59:11 | 00:00:00 | |
| DL8DAS-14 | 2026-09-02 06:30:10 | 49.60647 | 8.23852 | 150° | 2km/h | 31819m | 5.3m/s | -39.0°C | 0.2% | 9.6hPa | 2.6V | 00:00:00 | 00:00:00 | 00:00:00 | |
| NBG1-10 | 2026-09-02 06:30:09 | 49.60647 | 8.23852 | 151° | 13km/h | 31819m | 5.2m/s | -39.0°C | 1.9% | 9.5hPa | 2.6V | 00:00:00 | 01:59:09 | 00:00:00 | |
| DL1XH-15 | 2026-09-02 06:30:08 | 49.60674 | 8.23850 | 182° | 15km/h | 31787m | 5.7m/s | -39.3°C | 1.8% | 9.6hPa | 2.6V | 03:17:08 | 01:59:03 | 00:00:00 | |
| HSKMA3-T | 2026-09-02 06:30:08 | 49.60648 | 8.23851 | 173° | 11km/h | 31813m | 6.1m/s | -39°C | 0% | 9.6hPa | 2.6V | 03:17:11 | 01:59:08 | 00:00:00 | |
| DL1XH-west | 2026-09-02 06:30:07 | 49.60652 | 8.23851 | 177° | 20km/h | 31807m | 5.8m/s | -39.1°C | 0% | 9.6hPa | 2.7V | 03:17:11 | 01:59:07 | 00:00:00 | |
| AA1-15 | 2026-09-02 06:30:07 | 49.60658 | 8.23850 | 178° | 24km/h | 31802m | 4.7m/s | -39.1°C | 0% | 9.6hPa | 2.7V | 03:17:11 | 01:59:06 | 00:00:00 | |
| DL1XH1-15 | 2026-09-02 06:30:06 | 49.60670 | 8.23850 | 179° | 22km/h | 31792m | 4.8m/s | -39.2°C | 1.8% | 9.6hPa | 2.6V | 03:17:07 | 01:59:04 | 00:00:00 | |
| BIOWL1-15 | 2026-09-02 06:30:01 | 49.60679 | 8.23851 | 227° | 4km/h | 31776m | 5.4m/s | -39.4°C | 0% | 9.6hPa | 2.7V | 03:17:11 | 01:59:01 | 00:00:00 | |
| DB0ND-19 | 2026-09-02 06:30:00 | 49.60679 | 8.23855 | 265° | 4km/h | 31766m | 4.9m/s | -39.3°C | 0.2% | 9.6hPa | 2.7V | 00:00:00 | 00:00:00 | 00:00:00 | |
| SONCRA | 2026-09-02 06:29:59 | 49.60680 | 8.23856 | 228° | 5km/h | 31761m | 5.5m/s | -39.4°C | 0.2% | 9.6hPa | 2.7V | 00:00:00 | 00:00:00 | 00:00:00 | |
| DL1XH-15 | 2026-09-02 06:29:58 | 49.60699 | 8.23860 | 172° | 18km/h | 31735m | 5.5m/s | -39.5°C | 1.9% | 9.7hPa | 2.7V | 03:17:18 | 01:58:53 | 00:00:00 | |
| HSKMA3-T | 2026-09-02 06:29:57 | 49.60682 | 8.23858 | 202° | 11km/h | 31755m | 5.5m/s | -39.4°C | 0% | 9.6hPa | 2.6V | 03:18:02 | 01:58:57 | 00:00:00 | |
| IW2NTF | 2026-09-02 06:29:56 | 49.60707 | 8.23857 | 158° | 13km/h | 31723m | 5.2m/s | -39.5°C | 0% | 9.7hPa | 2.6V | 03:17:20 | 01:58:51 | 00:00:00 | |
| DL1XH-west | 2026-09-02 06:29:56 | 49.60685 | 8.23859 | 191° | 16km/h | 31750m | 5.5m/s | -39.5°C | 0% | 9.7hPa | 2.6V | 03:18:02 | 01:58:56 | 00:00:00 | |
| AA1-15 | 2026-09-02 06:29:55 | 49.60689 | 8.23860 | 184° | 20km/h | 31745m | 4.9m/s | -39.6°C | 0% | 9.7hPa | 2.7V | 03:18:02 | 01:58:55 | 00:00:00 | |
| DF8AY | 2026-09-02 06:29:50 | 49.60710 | 8.23855 | 157° | 13km/h | 31718m | 4.6m/s | -39.6°C | 0% | 9.7hPa | 2.6V | 03:18:02 | 01:58:50 | 00:00:00 | |
| DF7PN | 2026-09-02 06:29:47 | 49.60726 | 8.23850 | 180° | 16km/h | 31698m | 4.3m/s | -39.7°C | 0.2% | 9.7hPa | 2.6V | 00:00:00 | 00:00:00 | 00:00:00 | |
| IW2NTF | 2026-09-02 06:29:46 | 49.60739 | 8.23854 | 184° | 5km/h | 31673m | 3.9m/s | -39.8°C | 0% | 0hPa | 2.6V | 03:17:30 | 01:58:41 | 00:00:00 | |
| HSKMA3-T | 2026-09-02 06:29:46 | 49.60726 | 8.23850 | 180° | 16km/h | 31698m | 4.3m/s | -39.7°C | 0% | 9.7hPa | 2.6V | 03:18:02 | 01:58:46 | 00:00:00 | |
| DL1XH-west | 2026-09-02 06:29:45 | 49.60730 | 8.23850 | 186° | 15km/h | 31694m | 4.5m/s | -39.7°C | 0% | 9.7hPa | 2.6V | 03:18:02 | 01:58:45 | 00:00:00 | |
| AA1-15 | 2026-09-02 06:29:44 | 49.60733 | 8.23851 | 194° | 13km/h | 31689m | 5.7m/s | -39.8°C | 0% | 9.7hPa | 2.6V | 03:18:02 | 01:58:44 | 00:00:00 | |
| DF8AY | 2026-09-02 06:29:40 | 49.60741 | 8.23854 | 168° | 9km/h | 31669m | 4.3m/s | -39.8°C | 0% | 9.8hPa | 2.6V | 03:18:02 | 01:58:40 | 00:00:00 | |
| GOEST3-10 | 2026-09-02 06:29:39 | 49.60743 | 8.23853 | 160° | 24km/h | 31664m | 5.4m/s | -39.7°C | 1.9% | 9.7hPa | 2.7V | 00:00:00 | 00:00:00 | 00:00:00 | |
| BIOWL1-15 | 2026-09-02 06:29:39 | 49.60744 | 8.23853 | 159° | 15km/h | 31664m | 5.4m/s | -39.8°C | 0% | 9.8hPa | 2.7V | 03:18:02 | 01:58:39 | 00:00:00 | |
| DF1GD-15 | 2026-09-02 06:29:38 | 49.60744 | 8.23853 | 160° | 15km/h | 31664m | 5.4m/s | -39.8°C | 0.3% | 9.8hPa | 2.7V | 03:18:00 | 00:00:00 | 00:00:00 | |
| DL9PN | 2026-09-02 06:29:37 | 49.60753 | 8.23846 | 155° | 26km/h | 31653m | 5.4m/s | -39.7°C | 0.2% | 9.8hPa | 2.7V | 00:00:00 | 00:00:00 | 00:00:00 | |
| IW2NTF | 2026-09-02 06:29:36 | 49.60776 | 8.23816 | 76° | 9km/h | 31623m | 5.3m/s | -39.9°C | 0% | 0hPa | 2.7V | 03:17:40 | 01:58:31 | 00:00:00 | |
| NBG1-10 | 2026-09-02 06:29:36 | 49.60760 | 8.23841 | 153° | 20km/h | 31648m | 4.2m/s | -39.6°C | 1.9% | 9.7hPa | 2.6V | 03:17:00 | 01:58:36 | 00:00:00 | |
| DL1XH-15 | 2026-09-02 06:29:35 | 49.60774 | 8.23825 | 127° | 16km/h | 31635m | 6m/s | -39.8°C | 1.9% | 9.8hPa | 2.6V | 03:17:38 | 01:58:33 | 00:00:00 | |
| HSKMA3-T | 2026-09-02 06:29:35 | 49.60766 | 8.23836 | 147° | 27km/h | 31644m | 3.6m/s | -39.7°C | 0% | 9.8hPa | 2.7V | 03:18:02 | 01:58:35 | 00:00:00 | |
| DL1XH-west | 2026-09-02 06:29:34 | 49.60771 | 8.23830 | 140° | 22km/h | 31640m | 4.2m/s | -39.7°C | 0% | 9.8hPa | 2.7V | 03:18:02 | 01:58:34 | 00:00:00 | |
| AA1-15 | 2026-09-02 06:29:33 | 49.60774 | 8.23825 | 127° | 16km/h | 31635m | 6m/s | -39.8°C | 0% | 9.8hPa | 2.6V | 03:18:02 | 01:58:33 | 00:00:00 | |
| BIOWL1-15 | 2026-09-02 06:29:32 | 49.60776 | 8.23809 | 146° | 9km/h | 31608m | 5.7m/s | -39.9°C | 0% | 9.9hPa | 2.6V | 03:18:02 | 01:58:28 | 00:00:00 | |
| DF8AY | 2026-09-02 06:29:29 | 49.60775 | 8.23811 | 106° | 5km/h | 31613m | 5m/s | -39.9°C | 0% | 9.8hPa | 2.6V | 03:18:02 | 01:58:29 | 00:00:00 | |
| DL3AQ-11 | 2026-09-02 06:29:28 | 49.60779 | 8.23807 | 159° | 15km/h | 31603m | 5.2m/s | -39.9°C | 0.2% | 9.9hPa | 2.7V | 00:00:00 | 00:00:00 | 00:00:00 | |
| GOEST3-10 | 2026-09-02 06:29:27 | 49.60779 | 8.23807 | 160° | 22km/h | 31603m | 5.2m/s | -39.8°C | 1.9% | 9.8hPa | 2.7V | 03:17:00 | 00:00:00 | 00:00:00 | |
| DL1XH1-15 | 2026-09-02 06:29:26 | 49.60794 | 8.23797 | 150° | 24km/h | 31587m | 5.8m/s | -39.9°C | 1.9% | 9.9hPa | 2.7V | 03:17:47 | 01:58:24 | 00:00:00 | |
| BIOWL9-15 | 2026-09-02 06:29:26 | 49.60789 | 8.23801 | 156° | 24km/h | 31593m | 5.1m/s | -40.0°C | 0.2% | 9.9hPa | 2.6V | 00:00:00 | 00:00:00 | 00:00:00 | |
| DL1XH-15 | 2026-09-02 06:29:25 | 49.60803 | 8.23785 | 130° | 24km/h | 31576m | 4.8m/s | -39.9°C | 1.9% | 9.9hPa | 2.6V | 03:17:49 | 01:58:22 | 00:00:00 | |
| HSKMA3-T | 2026-09-02 06:29:25 | 49.60789 | 8.23801 | 157° | 24km/h | 31592m | 5.1m/s | -40°C | 0% | 9.9hPa | 2.7V | 03:18:02 | 01:58:25 | 00:00:00 | |
| DL1XH-west | 2026-09-02 06:29:24 | 49.60794 | 8.23797 | 150° | 24km/h | 31587m | 5.8m/s | -39.9°C | 0% | 9.9hPa | 2.7V | 03:18:02 | 01:58:24 | 00:00:00 | |
| AA1-15 | 2026-09-02 06:29:22 | 49.60803 | 8.23785 | 130° | 24km/h | 31576m | 4.8m/s | -39.9°C | 0% | 9.9hPa | 2.6V | 03:18:02 | 01:58:22 | 00:00:00 | |
| BIOWL1-15 | 2026-09-02 06:29:19 | 49.60820 | 8.23747 | 129° | 20km/h | 31550m | 4.6m/s | -39.8°C | 0% | 9.9hPa | 2.6V | 03:18:02 | 01:58:17 | 00:00:00 | |
| DF8AY | 2026-09-02 06:29:19 | 49.60813 | 8.23762 | 123° | 24km/h | 31561m | 5.7m/s | -40°C | 0% | 9.9hPa | 2.7V | 03:18:02 | 01:58:19 | 00:00:00 | |
| DJ2KF-10 | 2026-09-02 06:29:19 | 49.60813 | 8.23762 | 123° | 20km/h | 31561m | 5.6m/s | -39.9°C | 1.9% | 9.9hPa | 2.6V | 00:00:00 | 01:58:19 | 00:00:00 | |
| DF1GD-15 | 2026-09-02 06:29:18 | 49.60814 | 8.23762 | 124° | 24km/h | 31561m | 5.7m/s | -40.0°C | 0.3% | 9.9hPa | 2.6V | 03:18:00 | 00:00:00 | 00:00:00 | |
| GOEST3-10 | 2026-09-02 06:29:17 | 49.60820 | 8.23747 | 129° | 15km/h | 31551m | 4.6m/s | -39.8°C | 1.9% | 9.9hPa | 2.6V | 00:00:00 | 00:00:00 | 00:00:00 | |
| IW2NTF | 2026-09-02 06:29:16 | 49.60829 | 8.23724 | 128° | 13km/h | 31521m | 4m/s | 0°C | 0% | 0hPa | 2.6V | 03:18:00 | 01:58:11 | 00:00:00 | |
| DL1XH1-15 | 2026-09-02 06:29:16 | 49.60826 | 8.23733 | 111° | 9km/h | 31535m | 6.1m/s | -40°C | 1.9% | 9.9hPa | 2.7V | 03:17:57 | 01:58:14 | 00:00:00 | |
| DF7PN | 2026-09-02 06:29:16 | 49.60825 | 8.23737 | 122° | 11km/h | 31541m | 5.3m/s | -39.9°C | 0.2% | 10.0hPa | 2.7V | 00:00:00 | 00:00:00 | 00:00:00 | |
| DL1XH-15 | 2026-09-02 06:29:15 | 49.60828 | 8.23727 | 112° | 9km/h | 31525m | 4.2m/s | -40°C | 1.9% | 10hPa | 2.7V | 03:17:59 | 01:58:12 | 00:00:00 | |
| HSKMA3-T | 2026-09-02 06:29:15 | 49.60825 | 8.23737 | 123° | 13km/h | 31541m | 5.3m/s | -39.9°C | 0% | 10hPa | 2.6V | 03:18:02 | 01:58:15 | 00:00:00 | |
| DL1XH-west | 2026-09-02 06:29:13 | 49.60827 | 8.23730 | 101° | 7km/h | 31530m | 5.2m/s | -40°C | 0% | 10hPa | 2.7V | 03:18:02 | 01:58:13 | 00:00:00 | |
| AA1-15 | 2026-09-02 06:29:11 | 49.60829 | 8.23724 | 129° | 13km/h | 31521m | 4m/s | -40.1°C | 0% | 10hPa | 2.6V | 03:18:02 | 01:58:11 | 00:00:00 | |
| DM0DOS-11 | 2026-09-02 06:29:10 | 49.60855 | 8.23687 | 129° | 35km/h | 31495m | 4.2m/s | -40.2°C | 1.9% | 10hPa | 2.6V | 03:18:05 | 01:58:06 | 00:00:00 | |
| DF8AY | 2026-09-02 06:29:08 | 49.60842 | 8.23706 | 141° | 33km/h | 31504m | 5.3m/s | -40.2°C | 0% | 10hPa | 2.7V | 03:18:53 | 01:58:08 | 00:00:00 | |
| BIOWL1-15 | 2026-09-02 06:29:08 | 49.60855 | 8.23687 | 130° | 35km/h | 31495m | 4.2m/s | -40.2°C | 0% | 10hPa | 2.6V | 03:18:53 | 01:58:06 | 00:00:00 | |
| DL8DAS-14 | 2026-09-02 06:29:08 | 49.60849 | 8.23697 | 136° | 35km/h | 31500m | 4.5m/s | -40.2°C | 0.3% | 10.0hPa | 2.6V | 00:00:00 | 00:00:00 | 00:00:00 | |
| DN1GJH-1 | 2026-09-02 06:29:07 | 49.60849 | 8.23697 | 138° | 37km/h | 31500m | 4.5m/s | -40.2°C | 0.3% | 10.0hPa | 2.6V | 03:18:00 | 00:00:00 | 00:00:00 | |
| IW2NTF | 2026-09-02 06:29:06 | 49.60861 | 8.23639 | 69° | 20km/h | 31469m | 4.3m/s | 0°C | 0% | 0hPa | 2.6V | 03:18:10 | 01:58:01 | 00:00:00 | |
| HSKMA3-T | 2026-09-02 06:29:04 | 49.60863 | 8.23666 | 106° | 27km/h | 31485m | 6.1m/s | -40.2°C | 0% | 10.1hPa | 2.7V | 03:18:53 | 01:58:04 | 00:00:00 | |
| DL1XH-west | 2026-09-02 06:29:02 | 49.60863 | 8.23647 | 74° | 22km/h | 31474m | 5.1m/s | -40.2°C | 0% | 10.1hPa | 2.6V | 03:18:53 | 01:58:02 | 00:00:00 | |
| AA1-15 | 2026-09-02 06:29:00 | 49.60860 | 8.23632 | 78° | 15km/h | 31464m | 4.7m/s | -40.4°C | 0% | 10.1hPa | 2.7V | 03:18:53 | 01:58:00 | 00:00:00 | |
| DF8AY | 2026-09-02 06:28:58 | 49.60862 | 8.23623 | 143° | 15km/h | 31453m | 5.6m/s | -40.3°C | 0% | 10.1hPa | 2.6V | 03:18:53 | 01:57:58 | 00:00:00 | |
| DL8DAS-15 | 2026-09-02 06:28:58 | 49.60862 | 8.23623 | 144° | 15km/h | 31454m | 5.6m/s | -40.3°C | 0.3% | 10.1hPa | 2.6V | 00:00:00 | 00:00:00 | 00:00:00 | |
| IW2NTF | 2026-09-02 06:28:56 | 49.60892 | 8.23602 | 120° | 20km/h | 31417m | 5m/s | 0°C | 0% | 0hPa | 2.6V | 03:18:20 | 01:57:51 | 00:00:00 | |
| BIOWL1-15 | 2026-09-02 06:28:56 | 49.60886 | 8.23611 | 152° | 18km/h | 31427m | 4.9m/s | -40.3°C | 0% | 10.1hPa | 2.7V | 03:18:53 | 01:57:53 | 00:00:00 | |
| HSKMA3-T | 2026-09-02 06:28:54 | 49.60881 | 8.23614 | 163° | 20km/h | 31432m | 5.6m/s | -40.4°C | 0% | 10.1hPa | 2.7V | 03:18:53 | 01:57:54 | 00:00:00 | |
| DL1XH-west | 2026-09-02 06:28:52 | 49.60889 | 8.23607 | 135° | 18km/h | 31422m | 4.8m/s | -40.3°C | 0% | 10.1hPa | 2.6V | 03:18:53 | 01:57:52 | 00:00:00 | |
| AA1-15 | 2026-09-02 06:28:49 | 49.60896 | 8.23585 | 104° | 26km/h | 31405m | 5.6m/s | -40.2°C | 0% | 10.2hPa | 2.7V | 03:18:53 | 01:57:49 | 00:00:00 | |
| DL1XH1-15 | 2026-09-02 06:28:49 | 49.60891 | 8.23546 | 38° | 16km/h | 31381m | 5.2m/s | -40.1°C | 1.9% | 10.2hPa | 2.6V | 03:18:27 | 01:57:44 | 00:00:00 | |
| DF8AY | 2026-09-02 06:28:47 | 49.60897 | 8.23566 | 84° | 24km/h | 31396m | 4.1m/s | -40.3°C | 0% | 10.2hPa | 2.7V | 03:18:53 | 01:57:47 | 00:00:00 | |
| BIOWL1-15 | 2026-09-02 06:28:45 | 49.60894 | 8.23551 | 54° | 18km/h | 31386m | 5.9m/s | -40.2°C | 0% | 10.2hPa | 2.6V | 03:18:53 | 01:57:45 | 00:00:00 | |
| HSKMA3-T | 2026-09-02 06:28:43 | 49.60888 | 8.23543 | 30° | 13km/h | 31376m | 4.1m/s | -40.3°C | 0% | 10.2hPa | 2.7V | 03:18:53 | 01:57:43 | 00:00:00 | |
| DL1XH-west | 2026-09-02 06:28:41 | 49.60886 | 8.23539 | 123° | 5km/h | 31367m | 5.3m/s | -40.5°C | 0% | 10.2hPa | 2.7V | 03:18:53 | 01:57:41 | 00:00:00 | |
| BIOWL7-15 | 2026-09-02 06:28:40 | 49.60886 | 8.23539 | 124° | 5km/h | 31368m | 5.3m/s | -40.5°C | 0.3% | 10.2hPa | 2.6V | 00:00:00 | 00:00:00 | 00:00:00 | |
| DM0DOS-11 | 2026-09-02 06:28:39 | 49.60897 | 8.23528 | 152° | 27km/h | 31350m | 4.4m/s | -40.7°C | 1.9% | 10.2hPa | 2.6V | 03:18:33 | 01:57:38 | 00:00:00 | |
| AA1-15 | 2026-09-02 06:28:39 | 49.60892 | 8.23533 | 153° | 24km/h | 31355m | 5.8m/s | -40.6°C | 0% | 10.2hPa | 2.6V | 03:18:53 | 01:57:39 | 00:00:00 | |
| DF8AY | 2026-09-02 06:28:38 | 49.60903 | 8.23523 | 148° | 27km/h | 31346m | 3.4m/s | -40.7°C | 0% | 10.2hPa | 2.7V | 03:18:53 | 01:57:37 | 00:00:00 | |
| BIOWL1-15 | 2026-09-02 06:28:37 | 49.60912 | 8.23512 | 119° | 16km/h | 31338m | 5.5m/s | -41°C | 0% | 10.3hPa | 2.6V | 03:18:53 | 01:57:35 | 00:00:00 | |
| DL1XH1-15 | 2026-09-02 06:28:35 | 49.60912 | 8.23506 | 82° | 15km/h | 31332m | 5.8m/s | -41°C | 2% | 10.2hPa | 2.6V | 03:18:37 | 01:57:34 | 00:00:00 | |
| DO3MHA-11 | 2026-09-02 06:28:35 | 49.60912 | 8.23512 | 120° | 18km/h | 31338m | 5.5m/s | -40.9°C | 2.0% | 10.2hPa | 2.6V | 00:00:00 | 01:57:35 | 00:00:00 | |
| DL1XH-15 | 2026-09-02 06:28:34 | 49.60907 | 8.23493 | 43° | 24km/h | 31320m | 5.5m/s | -41.2°C | 2% | 10.3hPa | 2.7V | 03:18:39 | 01:57:32 | 00:00:00 | |
| HSKMA3-T | 2026-09-02 06:28:32 | 49.60907 | 8.23493 | 43° | 24km/h | 31320m | 5.5m/s | -41.2°C | 0% | 10.3hPa | 2.7V | 03:18:53 | 01:57:32 | 00:00:00 | |
| DL1XH-west | 2026-09-02 06:28:30 | 49.60898 | 8.23480 | 48° | 24km/h | 31310m | 5.2m/s | -41.2°C | 0% | 10.3hPa | 2.6V | 03:18:53 | 01:57:30 | 00:00:00 | |
| BIOWL1-15 | 2026-09-02 06:28:29 | 49.60893 | 8.23455 | 143° | 5km/h | 31284m | 6m/s | -41.2°C | 0% | 10.3hPa | 2.6V | 03:18:53 | 01:57:25 | 00:00:00 | |
| AA1-15 | 2026-09-02 06:28:27 | 49.60892 | 8.23461 | 88° | 13km/h | 31295m | 4.9m/s | -41.3°C | 0% | 10.3hPa | 2.6V | 03:18:53 | 01:57:27 | 00:00:00 | |
| DF8AY | 2026-09-02 06:28:26 | 49.60892 | 8.23457 | 110° | 7km/h | 31290m | 5.1m/s | -41.3°C | 0% | 10.3hPa | 2.6V | 03:18:53 | 01:57:26 | 00:00:00 | |
| DJ2DS-15 | 2026-09-02 06:28:26 | 49.60892 | 8.23457 | 111° | 15km/h | 31290m | 5.1m/s | -41.2°C | 2.0% | 10.3hPa | 2.6V | 00:00:00 | 01:57:26 | 00:00:00 | |
| DO3MHA-11 | 2026-09-02 06:28:25 | 49.60893 | 8.23455 | 144° | 9km/h | 31285m | 6.0m/s | -41.2°C | 2.0% | 10.3hPa | 2.7V | 00:00:00 | 01:57:25 | 00:00:00 | |
| DL1XH-15 | 2026-09-02 06:28:24 | 49.60895 | 8.23459 | 248° | 7km/h | 31268m | 4.5m/s | -41.5°C | 2.1% | 10.4hPa | 2.7V | 03:18:49 | 01:57:22 | 00:00:00 | |
| HSKMA3-T | 2026-09-02 06:28:21 | 49.60896 | 8.23461 | 236° | 5km/h | 31264m | 5m/s | -41.4°C | 0% | 10.4hPa | 2.6V | 03:18:53 | 01:57:21 | 00:00:00 | |
| IW2NTF | 2026-09-02 06:28:20 | 49.60889 | 8.23435 | 52° | 29km/h | 31230m | 5.8m/s | 0°C | 0% | 0hPa | 2.6V | 03:18:56 | 01:57:15 | 00:00:00 | |
| DL1XH-west | 2026-09-02 06:28:20 | 49.60896 | 8.23462 | 167° | 4km/h | 31258m | 5.6m/s | -41.4°C | 0% | 10.4hPa | 2.6V | 03:18:53 | 01:57:20 | 00:00:00 | |
| DL6DJ-15 | 2026-09-02 06:28:19 | 49.60897 | 8.23457 | 78° | 13km/h | 31248m | 4.9m/s | -41.4°C | 0.3% | 10.4hPa | 2.7V | 00:00:00 | 00:00:00 | 00:00:00 | |
| DF3TZ-5 | 2026-09-02 06:28:18 | 49.60895 | 8.23451 | 66° | 18km/h | 31243m | 5.5m/s | -41.4°C | 0.3% | 10.4hPa | 2.7V | 00:00:00 | 00:00:00 | 00:00:00 | |
| DL1XH-15 | 2026-09-02 06:28:17 | 49.60878 | 8.23407 | 75° | 24km/h | 31216m | 4.8m/s | -41.5°C | 2.1% | 10.4hPa | 2.7V | 03:18:59 | 01:57:12 | 00:00:00 | |
| AA1-15 | 2026-09-02 06:28:16 | 49.60893 | 8.23443 | 57° | 24km/h | 31237m | 6.6m/s | -41.4°C | 0% | 10.4hPa | 2.7V | 03:19:44 | 01:57:16 | 00:00:00 | |
| DF8AY | 2026-09-02 06:28:15 | 49.60889 | 8.23435 | 53° | 29km/h | 31230m | 5.8m/s | -41.4°C | 0% | 10.4hPa | 2.6V | 03:19:44 | 01:57:15 | 00:00:00 | |
| BIOWL1-15 | 2026-09-02 06:28:14 | 49.60884 | 8.23426 | 55° | 29km/h | 31225m | 4.4m/s | -41.5°C | 0% | 10.4hPa | 2.6V | 03:19:44 | 01:57:14 | 00:00:00 | |
| HSKMA3-T | 2026-09-02 06:28:10 | 49.60880 | 8.23390 | 119° | 22km/h | 31205m | 6m/s | -41.4°C | 0% | 10.5hPa | 2.6V | 03:19:44 | 01:57:10 | 00:00:00 | |
| DL1XH-west | 2026-09-02 06:28:09 | 49.60883 | 8.23384 | 139° | 22km/h | 31199m | 5m/s | -41.4°C | 0% | 10.5hPa | 2.6V | 03:19:44 | 01:57:09 | 00:00:00 | |
| IW2NTF | 2026-09-02 06:28:08 | 49.60887 | 8.23379 | 357° | 18km/h | 31168m | 4.6m/s | 0°C | 0% | 0hPa | 2.7V | 03:19:08 | 01:57:03 | 00:00:00 | |
| DF8AY | 2026-09-02 06:28:06 | 49.60893 | 8.23377 | 324° | 5km/h | 31179m | 5.6m/s | -41.4°C | 0% | 10.5hPa | 2.6V | 03:19:44 | 01:57:05 | 00:00:00 | |
| BIOWL1-15 | 2026-09-02 06:28:06 | 49.60891 | 8.23378 | 345° | 13km/h | 31173m | 5.1m/s | -41.5°C | 0% | 10.5hPa | 2.7V | 03:19:44 | 01:57:04 | 00:00:00 | |
| AA1-15 | 2026-09-02 06:28:06 | 49.60893 | 8.23376 | 187° | 5km/h | 31184m | 5.8m/s | -41.4°C | 0% | 10.5hPa | 2.6V | 03:19:44 | 01:57:06 | 00:00:00 | |
| HSKMA3-T | 2026-09-02 06:27:59 | 49.60873 | 8.23367 | 71° | 16km/h | 31147m | 5.4m/s | -41.6°C | 0% | 10.6hPa | 2.7V | 03:19:44 | 01:56:59 | 00:00:00 | |
| DF8AY | 2026-09-02 06:27:58 | 49.60871 | 8.23340 | 34° | 5km/h | 31115m | 4.8m/s | -41.7°C | 0% | 10.6hPa | 2.7V | 03:19:44 | 01:56:53 | 00:00:00 | |
| DL1XH-west | 2026-09-02 06:27:58 | 49.60872 | 8.23361 | 85° | 16km/h | 31142m | 5.1m/s | -41.6°C | 0% | 10.6hPa | 2.7V | 03:19:44 | 01:56:58 | 00:00:00 | |
| DB0ND-19 | 2026-09-02 06:27:56 | 49.60872 | 8.23345 | 82° | 9km/h | 31126m | 5.7m/s | -41.7°C | 0.3% | 10.6hPa | 2.6V | 00:00:00 | 00:00:00 | 00:00:00 | |
| DL1XH1-15 | 2026-09-02 06:27:55 | 49.60872 | 8.23342 | 60° | 5km/h | 31120m | 5.2m/s | -41.7°C | 2.1% | 10.6hPa | 2.6V | 03:19:17 | 01:56:54 | 00:00:00 | |
| AA1-15 | 2026-09-02 06:27:55 | 49.60872 | 8.23345 | 82° | 9km/h | 31125m | 5.7m/s | -41.7°C | 0% | 10.6hPa | 2.6V | 03:19:44 | 01:56:55 | 00:00:00 | |
| DO3MHA-11 | 2026-09-02 06:27:55 | 49.60872 | 8.23345 | 83° | 7km/h | 31126m | 5.6m/s | -41.7°C | 2.1% | 10.6hPa | 2.6V | 00:00:00 | 01:56:55 | 00:00:00 | |
| IW2NTF | 2026-09-02 06:27:54 | 49.60867 | 8.23335 | 73° | 7km/h | 31094m | 5.4m/s | 0°C | 0% | 0hPa | 2.6V | 03:19:22 | 01:56:49 | 00:00:00 | |
| HSKMA3-T | 2026-09-02 06:27:49 | 49.60867 | 8.23335 | 73° | 7km/h | 31094m | 5.4m/s | -41.8°C | 0% | 10.6hPa | 2.6V | 03:19:44 | 01:56:49 | 00:00:00 | |
| DL1XH-west | 2026-09-02 06:27:47 | 49.60865 | 8.23328 | 53° | 11km/h | 31084m | 4.7m/s | -41.8°C | 0% | 10.7hPa | 2.7V | 03:19:44 | 01:56:47 | 00:00:00 | |
| DM7RM-13 | 2026-09-02 06:27:47 | 49.60865 | 8.23328 | 54° | 11km/h | 31084m | 4.7m/s | -41.8°C | 0.3% | 10.7hPa | 2.6V | 03:19:00 | 00:00:00 | 00:00:00 | |
| DL1XH1-15 | 2026-09-02 06:27:45 | 49.60856 | 8.23321 | 7° | 15km/h | 31066m | 5.5m/s | -41.9°C | 2.1% | 10.7hPa | 2.6V | 03:19:27 | 01:56:44 | 00:00:00 | |
| DO3MHA-11 | 2026-09-02 06:27:45 | 49.60860 | 8.23322 | 20° | 9km/h | 31073m | 6.6m/s | -41.9°C | 2.2% | 10.6hPa | 2.7V | 00:00:00 | 01:56:45 | 00:00:00 | |
| IW2NTF | 2026-09-02 06:27:44 | 49.60851 | 8.23317 | 159° | 11km/h | 31039m | 5.5m/s | 0°C | 0% | 0hPa | 2.7V | 03:19:32 | 01:56:39 | 00:00:00 | |
| AA1-15 | 2026-09-02 06:27:44 | 49.60856 | 8.23321 | 8° | 15km/h | 31066m | 5.5m/s | -41.9°C | 0% | 10.7hPa | 2.6V | 03:19:44 | 01:56:44 | 00:00:00 | |
| BIOWL1-15 | 2026-09-02 06:27:43 | 49.60853 | 8.23320 | 4° | 13km/h | 31061m | 4.6m/s | -41.9°C | 0% | 10.7hPa | 2.7V | 03:19:44 | 01:56:43 | 00:00:00 | |
| DF8AY | 2026-09-02 06:27:42 | 49.60850 | 8.23320 | 8° | 7km/h | 31056m | 4.7m/s | -41.9°C | 0% | 10.7hPa | 2.7V | 03:19:44 | 01:56:42 | 00:00:00 | |
| HSKMA3-T | 2026-09-02 06:27:38 | 49.60854 | 8.23315 | 165° | 13km/h | 31034m | 4.7m/s | -42.2°C | 0% | 10.7hPa | 2.7V | 03:19:44 | 01:56:38 | 00:00:00 | |
| DL1XH-west | 2026-09-02 06:27:37 | 49.60857 | 8.23314 | 170° | 11km/h | 31029m | 4.8m/s | -42.2°C | 0% | 10.8hPa | 2.6V | 03:19:44 | 01:56:37 | 00:00:00 | |
| DL1XH1-15 | 2026-09-02 06:27:35 | 49.60859 | 8.23314 | 3° | 9km/h | 31012m | 5.5m/s | -42.1°C | 2.2% | 10.8hPa | 2.7V | 03:19:37 | 01:56:34 | 00:00:00 | |
| DO3MHA-11 | 2026-09-02 06:27:35 | 49.60860 | 8.23314 | 348° | 13km/h | 31018m | 5.8m/s | -42.0°C | 2.1% | 10.7hPa | 2.6V | 00:00:00 | 01:56:35 | 00:00:00 | |
| IW2NTF | 2026-09-02 06:27:34 | 49.60842 | 8.23297 | 62° | 16km/h | 30984m | 5.3m/s | 0°C | 0% | 0hPa | 2.6V | 03:19:42 | 01:56:29 | 00:00:00 | |
| AA1-15 | 2026-09-02 06:27:33 | 49.60856 | 8.23313 | 13° | 15km/h | 31006m | 5.3m/s | -42.2°C | 0% | 10.8hPa | 2.7V | 03:19:44 | 01:56:33 | 00:00:00 | |
| DF8AY | 2026-09-02 06:27:31 | 49.60848 | 8.23308 | 37° | 18km/h | 30995m | 6.2m/s | -42.2°C | 0% | 10.8hPa | 2.6V | 03:19:44 | 01:56:31 | 00:00:00 | |
| HSKMA3-T | 2026-09-02 06:27:28 | 49.60841 | 8.23291 | 71° | 15km/h | 30978m | 5.5m/s | -42.2°C | 0% | 10.8hPa | 2.7V | 03:19:44 | 01:56:28 | 00:00:00 | |
| DL1XH-west | 2026-09-02 06:27:27 | 49.60840 | 8.23287 | 81° | 11km/h | 30972m | 6.5m/s | -42.2°C | 0% | 10.8hPa | 2.7V | 03:19:44 | 01:56:27 | 00:00:00 | |
| DJ2DS-15 | 2026-09-02 06:27:26 | 49.60840 | 8.23283 | 99° | 18km/h | 30966m | 5.8m/s | -42.2°C | 2.2% | 10.8hPa | 2.7V | 00:00:00 | 01:56:26 | 00:00:00 | |
| DB0ND-19 | 2026-09-02 06:27:25 | 49.60842 | 8.23277 | 127° | 11km/h | 30955m | 5.0m/s | -42.4°C | 0.3% | 10.9hPa | 2.6V | 00:00:00 | 00:00:00 | 00:00:00 | |
| IW2NTF | 2026-09-02 06:27:24 | 49.60849 | 8.23242 | 76° | 22km/h | 30928m | 5.6m/s | 0°C | 0% | 0hPa | 2.6V | 03:19:52 | 01:56:19 | 00:00:00 | |
| AA1-15 | 2026-09-02 06:27:23 | 49.60844 | 8.23272 | 126° | 16km/h | 30950m | 6.1m/s | -42.3°C | 0% | 10.9hPa | 2.6V | 03:20:35 | 01:56:23 | 00:00:00 | |
| BIOWL1-15 | 2026-09-02 06:27:21 | 49.60848 | 8.23259 | 106° | 22km/h | 30938m | 5.1m/s | -42.3°C | 0% | 10.9hPa | 2.7V | 03:20:35 | 01:56:21 | 00:00:00 | |
| HSKMA3-T | 2026-09-02 06:27:18 | 49.60847 | 8.23234 | 60° | 22km/h | 30922m | 7m/s | -42.4°C | 0% | 10.9hPa | 2.7V | 03:20:35 | 01:56:18 | 00:00:00 | |
| DL1XH-west | 2026-09-02 06:27:17 | 49.60843 | 8.23228 | 44° | 22km/h | 30915m | 6.5m/s | -42.4°C | 0% | 10.9hPa | 2.7V | 03:20:35 | 01:56:17 | 00:00:00 | |
| AA1-15 | 2026-09-02 06:27:12 | 49.60829 | 8.23196 | 96° | 22km/h | 30886m | 5.8m/s | -42.2°C | 0% | 11hPa | 2.6V | 03:20:35 | 01:56:12 | 00:00:00 | |
| BIOWL1-15 | 2026-09-02 06:27:10 | 49.60833 | 8.23180 | 117° | 20km/h | 30875m | 5.3m/s | -42.2°C | 0% | 11hPa | 2.6V | 03:20:35 | 01:56:10 | 00:00:00 | |
| DF8AY | 2026-09-02 06:27:09 | 49.60835 | 8.23173 | 120° | 16km/h | 30869m | 6m/s | -42.1°C | 0% | 11hPa | 2.7V | 03:20:35 | 01:56:09 | 00:00:00 | |
| DK7TD | 2026-09-02 06:27:08 | 49.60836 | 8.23168 | 114° | 13km/h | 30863m | 6m/s | 0°C | 0% | 0hPa | 2.7V | 18:12:15 | 01:56:08 | 00:00:00 | |
| HSKMA3-T | 2026-09-02 06:27:07 | 49.60837 | 8.23165 | 90° | 9km/h | 30858m | 5.2m/s | -42°C | 0% | 11hPa | 2.7V | 03:20:35 | 01:56:07 | 00:00:00 | |
| DL1XH-west | 2026-09-02 06:27:06 | 49.60836 | 8.23161 | 63° | 11km/h | 30853m | 4.7m/s | -42°C | 0% | 11.1hPa | 2.6V | 03:20:35 | 01:56:06 | 00:00:00 | |
| BIOWL1-15 | 2026-09-02 06:27:03 | 49.60815 | 8.23097 | 59° | 29km/h | 30813m | 5.7m/s | -42.1°C | 0% | 11.1hPa | 2.6V | 03:20:35 | 01:55:59 | 00:00:00 | |
| AA1-15 | 2026-09-02 06:27:01 | 49.60822 | 8.23119 | 66° | 35km/h | 30824m | 5.1m/s | -42°C | 0% | 11.1hPa | 2.7V | 03:20:35 | 01:56:01 | 00:00:00 | |
| DF8AY | 2026-09-02 06:26:58 | 49.60811 | 8.23089 | 52° | 24km/h | 30807m | 6.4m/s | -42.1°C | 0% | 11.1hPa | 2.6V | 03:20:35 | 01:55:58 | 00:00:00 | |
| DK7TD | 2026-09-02 06:26:57 | 49.60808 | 8.23083 | 41° | 18km/h | 30801m | 5.8m/s | 0°C | 0% | 0hPa | 2.7V | 18:12:15 | 01:55:57 | 00:00:00 | |
| HSKMA3-T | 2026-09-02 06:26:56 | 49.60804 | 8.23079 | 34° | 15km/h | 30796m | 4.9m/s | -41.9°C | 0% | 11.2hPa | 2.7V | 03:20:35 | 01:55:56 | 00:00:00 | |
| DL1XH-west | 2026-09-02 06:26:55 | 49.60801 | 8.23076 | 39° | 15km/h | 30791m | 4.5m/s | -41.9°C | 0% | 11.2hPa | 2.6V | 03:20:35 | 01:55:55 | 00:00:00 | |
| AA1-15 | 2026-09-02 06:26:50 | 49.60796 | 8.23036 | 90° | 31km/h | 30763m | 5.1m/s | -41.8°C | 0% | 11.2hPa | 2.6V | 03:20:35 | 01:55:50 | 00:00:00 | |
| BIOWL1-15 | 2026-09-02 06:26:49 | 49.60795 | 8.23024 | 88° | 29km/h | 30758m | 4.7m/s | -41.8°C | 0% | 11.2hPa | 2.6V | 03:20:35 | 01:55:49 | 00:00:00 | |
| DF8AY | 2026-09-02 06:26:47 | 49.60794 | 8.23005 | 71° | 20km/h | 30746m | 6.5m/s | -41.9°C | 0% | 11.2hPa | 2.7V | 03:20:35 | 01:55:47 | 00:00:00 | |
| HSKMA3-T | 2026-09-02 06:26:46 | 49.60792 | 8.22999 | 51° | 16km/h | 30740m | 5.9m/s | -42°C | 0% | 11.2hPa | 2.7V | 03:20:35 | 01:55:46 | 00:00:00 | |
| DL6DJ-15 | 2026-09-02 06:26:45 | 49.60789 | 8.22995 | 30° | 16km/h | 30734m | 5.4m/s | -41.9°C | 0.3% | 11.2hPa | 2.6V | 00:00:00 | 00:00:00 | 00:00:00 | |
| DL1XH-west | 2026-09-02 06:26:44 | 49.60785 | 8.22992 | 24° | 20km/h | 30728m | 5.5m/s | -41.9°C | 0% | 11.2hPa | 2.6V | 03:20:35 | 01:55:44 | 00:00:00 | |
| DL1XH-15 | 2026-09-02 06:26:43 | 49.60775 | 8.22984 | 34° | 26km/h | 30716m | 6.3m/s | -41.9°C | 2% | 11.3hPa | 2.7V | 03:20:29 | 01:55:42 | 00:00:00 | |
| BIOWL1-15 | 2026-09-02 06:26:39 | 49.60762 | 8.22964 | 55° | 22km/h | 30699m | 5.4m/s | -42.2°C | 0% | 11.3hPa | 2.6V | 03:20:35 | 01:55:39 | 00:00:00 | |
| DF8AY | 2026-09-02 06:26:37 | 49.60758 | 8.22952 | 75° | 13km/h | 30687m | 6.7m/s | -42.3°C | 0% | 11.3hPa | 2.6V | 03:20:35 | 01:55:37 | 00:00:00 | |
| KANTATE | 2026-09-02 06:26:36 | 49.60758 | 8.22952 | 76° | 13km/h | 30687m | 6.7m/s | 0°C | 0% | 0hPa | 2.6V | 00:00:00 | 00:00:00 | 00:00:00 | |
| DL1XH1-15 | 2026-09-02 06:26:35 | 49.60759 | 8.22938 | 102° | 16km/h | 30669m | 6.5m/s | -42.4°C | 2.1% | 11.3hPa | 2.6V | 03:20:37 | 01:55:34 | 00:00:00 | |
| HSKMA3-T | 2026-09-02 06:26:35 | 49.60758 | 8.22943 | 105° | 13km/h | 30675m | 5.6m/s | -42.3°C | 0% | 11.3hPa | 2.7V | 03:21:26 | 01:55:35 | 00:00:00 | |
| DL1XH-west | 2026-09-02 06:26:34 | 49.60759 | 8.22938 | 102° | 16km/h | 30669m | 6.5m/s | -42.4°C | 0% | 11.3hPa | 2.6V | 03:21:26 | 01:55:34 | 00:00:00 | |
| AA1-15 | 2026-09-02 06:26:29 | 49.60753 | 8.22910 | 23° | 16km/h | 30640m | 7.1m/s | -42.6°C | 0% | 11.4hPa | 2.6V | 03:21:26 | 01:55:29 | 00:00:00 | |
| DF8AY | 2026-09-02 06:26:26 | 49.60738 | 8.22905 | 16° | 24km/h | 30621m | 5.8m/s | -43°C | 0% | 11.4hPa | 2.7V | 18:12:15 | 01:55:26 | 00:00:00 | |
| DL1XH1-15 | 2026-09-02 06:26:25 | 49.60728 | 8.22896 | 39° | 26km/h | 30609m | 5.6m/s | -43°C | 2.2% | 11.4hPa | 2.6V | 03:20:47 | 01:55:24 | 00:00:00 | |
| HSKMA3-T | 2026-09-02 06:26:25 | 49.60733 | 8.22901 | 27° | 24km/h | 30615m | 6.4m/s | -43°C | 0% | 11.4hPa | 2.7V | 03:21:26 | 01:55:25 | 00:00:00 | |
| DO3MHA-11 | 2026-09-02 06:26:25 | 49.60733 | 8.22901 | 28° | 15km/h | 30616m | 6.4m/s | -42.9°C | 2.2% | 11.4hPa | 2.7V | 00:00:00 | 01:55:25 | 00:00:00 | |
| DM0DOS-11 | 2026-09-02 06:26:24 | 49.60717 | 8.22868 | 88° | 5km/h | 30579m | 5.9m/s | -43.3°C | 2.3% | 11.5hPa | 2.7V | 03:20:52 | 01:55:19 | 00:00:00 | |
| DL1XH-west | 2026-09-02 06:26:23 | 49.60723 | 8.22890 | 51° | 24km/h | 30604m | 5.2m/s | -43.1°C | 0% | 11.5hPa | 2.6V | 03:21:26 | 01:55:23 | 00:00:00 | |
| DN1GJH-1 | 2026-09-02 06:26:22 | 49.60720 | 8.22882 | 61° | 22km/h | 30599m | 5.6m/s | -43.2°C | 0.4% | 11.5hPa | 2.6V | 03:21:00 | 00:00:00 | 00:00:00 | |
| SONCRA | 2026-09-02 06:26:21 | 49.60718 | 8.22876 | 67° | 15km/h | 30592m | 6.6m/s | -43.3°C | 0.3% | 11.5hPa | 2.6V | 00:00:00 | 00:00:00 | 00:00:00 | |
| SSTOLZ84 | 2026-09-02 06:26:20 | 49.60716 | 8.22868 | 88° | 5km/h | 30580m | 5.9m/s | -43.3°C | 0.3% | 11.5hPa | 2.6V | 00:00:00 | 00:00:00 | 00:00:00 | |
| DJ2KF-10 | 2026-09-02 06:26:19 | 49.60716 | 8.22868 | 89° | 13km/h | 30580m | 5.9m/s | -43.3°C | 2.3% | 11.5hPa | 2.6V | 00:00:00 | 01:55:19 | 00:00:00 | |
| IW2NTF | 2026-09-02 06:26:18 | 49.60706 | 8.22858 | 7° | 18km/h | 30546m | 5.7m/s | 0°C | 0% | 0hPa | 2.6V | 03:20:58 | 01:55:13 | 00:00:00 | |
| AA1-15 | 2026-09-02 06:26:18 | 49.60716 | 8.22866 | 87° | 4km/h | 30574m | 5.1m/s | -43.2°C | 0% | 11.5hPa | 2.6V | 03:21:26 | 01:55:18 | 00:00:00 | |
| BIOWL1-15 | 2026-09-02 06:26:17 | 49.60716 | 8.22865 | 51° | 4km/h | 30569m | 5.2m/s | -43.2°C | 0% | 11.5hPa | 2.6V | 03:21:26 | 01:55:17 | 00:00:00 | |
| DL1XH1-15 | 2026-09-02 06:26:15 | 49.60710 | 8.22860 | 17° | 15km/h | 30551m | 5.4m/s | -43.3°C | 2.3% | 11.6hPa | 2.7V | 03:20:57 | 01:55:14 | 00:00:00 | |
| DF8AY | 2026-09-02 06:26:15 | 49.60713 | 8.22862 | 26° | 11km/h | 30557m | 5.9m/s | -43.2°C | 0% | 11.5hPa | 2.7V | 18:12:15 | 01:55:15 | 00:00:00 | |
| DK5PH-5 | 2026-09-02 06:26:15 | 49.60713 | 8.22862 | 27° | 13km/h | 30557m | 5.9m/s | -43.2°C | 2.3% | 11.5hPa | 2.7V | 00:00:00 | 01:55:15 | 00:00:00 | |
| DM0DOS-11 | 2026-09-02 06:26:14 | 49.60687 | 8.22862 | 350° | 20km/h | 30521m | 5.7m/s | -43.2°C | 2.2% | 11.6hPa | 2.6V | 03:21:02 | 01:55:09 | 00:00:00 | |
| HSKMA3-T | 2026-09-02 06:26:14 | 49.60710 | 8.22860 | 18° | 15km/h | 30551m | 5.4m/s | -43.3°C | 0% | 11.6hPa | 2.7V | 03:21:26 | 01:55:14 | 00:00:00 | |
| DL1XH-15 | 2026-09-02 06:26:13 | 49.60701 | 8.22858 | 356° | 18km/h | 30539m | 6.9m/s | -43.4°C | 2.3% | 11.6hPa | 2.6V | 03:20:59 | 01:55:12 | 00:00:00 | |
| DL1XH-west | 2026-09-02 06:26:13 | 49.60706 | 8.22858 | 8° | 18km/h | 30546m | 5.7m/s | -43.4°C | 0% | 11.5hPa | 2.6V | 03:21:26 | 01:55:13 | 00:00:00 | |
| BIOWL1-15 | 2026-09-02 06:26:07 | 49.60677 | 8.22862 | 11° | 20km/h | 30508m | 6.7m/s | -43.1°C | 0% | 11.6hPa | 2.6V | 03:21:26 | 01:55:07 | 00:00:00 | |
| DJ2DS-15 | 2026-09-02 06:26:06 | 49.60672 | 8.22860 | 20° | 11km/h | 30503m | 5.4m/s | -43.1°C | 2.2% | 11.6hPa | 2.7V | 00:00:00 | 01:55:06 | 00:00:00 | |
| DO3MHA-11 | 2026-09-02 06:26:05 | 49.60668 | 8.22858 | 21° | 13km/h | 30497m | 4.9m/s | -43.0°C | 2.2% | 11.6hPa | 2.7V | 03:21:00 | 01:55:05 | 00:00:00 | |
| DL1XH1-15 | 2026-09-02 06:26:05 | 49.60665 | 8.22857 | 10° | 11km/h | 30492m | 5.5m/s | -43.1°C | 2.2% | 11.7hPa | 2.7V | 03:21:07 | 01:55:04 | 00:00:00 | |
| DM0DOS-11 | 2026-09-02 06:26:04 | 49.60656 | 8.22870 | 325° | 13km/h | 30462m | 6.2m/s | -43.2°C | 2.3% | 11.7hPa | 2.7V | 03:21:12 | 01:54:59 | 00:00:00 | |
| DL1XH-15 | 2026-09-02 06:26:03 | 49.60661 | 8.22859 | 307° | 9km/h | 30479m | 6.4m/s | -43.2°C | 2.3% | 11.7hPa | 2.6V | 03:21:09 | 01:55:02 | 00:00:00 | |
| DL1XH-west | 2026-09-02 06:26:03 | 49.60663 | 8.22857 | 342° | 9km/h | 30485m | 6.7m/s | -43.2°C | 0% | 11.7hPa | 2.6V | 03:21:26 | 01:55:03 | 00:00:00 | |
| DL4BBY-15 | 2026-09-02 06:26:03 | 49.60662 | 8.22857 | 342° | 11km/h | 30485m | 6.7m/s | -44.4°C | 0% | 0hPa | 2.7V | 00:00:00 | 00:00:00 | 00:00:00 | |
| DM7RM-13 | 2026-09-02 06:26:02 | 49.60663 | 8.22857 | 343° | 9km/h | 30486m | 6.7m/s | -43.2°C | 0.3% | 11.7hPa | 2.7V | 03:21:00 | 00:00:00 | 00:00:00 | |
| DL1ZP-14 | 2026-09-02 06:26:01 | 49.60658 | 8.22867 | 305° | 11km/h | 30468m | 4.9m/s | -43.3°C | 0.3% | 11.7hPa | 2.7V | 00:00:00 | 00:00:00 | 00:00:00 | |
| IW2NTF | 2026-09-02 06:26:00 | 49.60640 | 8.22867 | 22° | 16km/h | 30440m | 4.8m/s | 0°C | 0% | 0hPa | 2.6V | 03:21:16 | 01:54:55 | 00:00:00 | |
| DF8AY | 2026-09-02 06:26:00 | 49.60658 | 8.22867 | 305° | 13km/h | 30468m | 4.9m/s | -43.3°C | 0% | 11.7hPa | 2.7V | 18:12:15 | 01:55:00 | 00:00:00 | |
| BIOWL1-15 | 2026-09-02 06:25:56 | 49.60644 | 8.22870 | 20° | 18km/h | 30445m | 4.7m/s | -43.2°C | 0% | 11.8hPa | 2.6V | 03:21:26 | 01:54:56 | 00:00:00 | |
| DL3AQ-11 | 2026-09-02 06:25:55 | 49.60637 | 8.22865 | 19° | 13km/h | 30435m | 6.2m/s | -43.3°C | 0.3% | 11.8hPa | 2.6V | 00:00:00 | 00:00:00 | 00:00:00 | |
| DL1XH-15 | 2026-09-02 06:25:53 | 49.60633 | 8.22864 | 324° | 4km/h | 30421m | 6m/s | -43.3°C | 2.2% | 11.8hPa | 2.6V | 03:21:19 | 01:54:52 | 00:00:00 | |
| HSKMA3-T | 2026-09-02 06:25:53 | 49.60634 | 8.22864 | 8° | 7km/h | 30428m | 6.8m/s | -43.3°C | 0% | 11.8hPa | 2.7V | 03:21:26 | 01:54:53 | 00:00:00 | |
| DL1XH-west | 2026-09-02 06:25:52 | 49.60633 | 8.22864 | 325° | 4km/h | 30421m | 6m/s | -43.3°C | 0% | 11.8hPa | 2.6V | 03:21:26 | 01:54:52 | 00:00:00 | |
| DF8AY | 2026-09-02 06:25:50 | 49.60632 | 8.22867 | 268° | 4km/h | 30411m | 5.2m/s | -43.3°C | 0% | 11.8hPa | 2.7V | 18:12:15 | 01:54:50 | 00:00:00 | |
| BIOWL1-15 | 2026-09-02 06:25:46 | 49.60628 | 8.22871 | 350° | 9km/h | 30388m | 4.9m/s | -43.6°C | 0% | 11.8hPa | 2.6V | 03:21:26 | 01:54:46 | 00:00:00 | |
| AA1-15 | 2026-09-02 06:25:45 | 49.60625 | 8.22872 | 341° | 11km/h | 30382m | 5.7m/s | -43.6°C | 0% | 11.8hPa | 2.7V | 03:21:26 | 01:54:45 | 00:00:00 | |
| DO3MHA-11 | 2026-09-02 06:25:45 | 49.60625 | 8.22872 | 341° | 13km/h | 30383m | 5.7m/s | -43.6°C | 2.3% | 11.8hPa | 2.6V | 00:00:00 | 01:54:45 | 00:00:00 | |
| DL1XH-15 | 2026-09-02 06:25:43 | 49.60618 | 8.22881 | 310° | 15km/h | 30364m | 5.6m/s | -43.5°C | 2.3% | 11.9hPa | 2.6V | 03:21:29 | 01:54:42 | 00:00:00 | |
| HSKMA3-T | 2026-09-02 06:25:42 | 49.60618 | 8.22881 | 311° | 15km/h | 30364m | 5.6m/s | -43.5°C | 0% | 11.9hPa | 2.6V | 03:22:17 | 01:54:42 | 00:00:00 | |
| DL1XH-west | 2026-09-02 06:25:41 | 49.60616 | 8.22885 | 318° | 15km/h | 30358m | 5.3m/s | -43.4°C | 0% | 11.9hPa | 2.6V | 03:22:17 | 01:54:41 | 00:00:00 | |
| DF8AY | 2026-09-02 06:25:40 | 49.60609 | 8.22892 | 342° | 16km/h | 30347m | 6.5m/s | -43.5°C | 0% | 11.9hPa | 2.7V | 18:12:15 | 01:54:39 | 00:00:00 | |
| GOEST3-10 | 2026-09-02 06:25:39 | 49.60609 | 8.22892 | 342° | 13km/h | 30347m | 6.5m/s | 0°C | 0% | 0hPa | 2.6V | 00:00:00 | 00:00:00 | 00:00:00 | |
| DF7PN | 2026-09-02 06:25:38 | 49.60605 | 8.22893 | 353° | 13km/h | 30341m | 5.1m/s | -43.5°C | 0.3% | 11.9hPa | 2.6V | 00:00:00 | 00:00:00 | 00:00:00 | |
| DL1XH1-15 | 2026-09-02 06:25:35 | 49.60601 | 8.22896 | 216° | 9km/h | 30319m | 6.8m/s | -43.5°C | 2.3% | 12hPa | 2.6V | 03:21:37 | 01:54:34 | 00:00:00 | |
| BIOWL1-15 | 2026-09-02 06:25:35 | 49.60600 | 8.22895 | 240° | 4km/h | 30326m | 6.8m/s | -43.5°C | 0% | 12hPa | 2.6V | 03:22:17 | 01:54:35 | 00:00:00 | |
| AA1-15 | 2026-09-02 06:25:34 | 49.60601 | 8.22896 | 216° | 11km/h | 30319m | 6.8m/s | -43.5°C | 0% | 12hPa | 2.6V | 03:22:17 | 01:54:34 | 00:00:00 | |
| DL1XH-15 | 2026-09-02 06:25:33 | 49.60607 | 8.22902 | 215° | 15km/h | 30307m | 4.8m/s | -43.6°C | 2.3% | 12hPa | 2.7V | 03:21:39 | 01:54:32 | 00:00:00 | |
| HSKMA3-T | 2026-09-02 06:25:31 | 49.60609 | 8.22905 | 220° | 11km/h | 30302m | 4.9m/s | -43.5°C | 0% | 12hPa | 2.6V | 03:22:17 | 01:54:31 | 00:00:00 | |
| DL1XH-west | 2026-09-02 06:25:30 | 49.60611 | 8.22907 | 238° | 5km/h | 30297m | 6.2m/s | -43.5°C | 0% | 12hPa | 2.6V | 03:22:17 | 01:54:30 | 00:00:00 | |
| DF8AY | 2026-09-02 06:25:29 | 49.60611 | 8.22908 | 356° | 4km/h | 30291m | 6.1m/s | -43.6°C | 0% | 0hPa | 2.7V | 18:12:15 | 01:54:29 | 00:00:00 | |
| GOEST3-10 | 2026-09-02 06:25:29 | 49.60610 | 8.22908 | 356° | 7km/h | 30291m | 6.1m/s | 0°C | 0% | 0hPa | 2.7V | 03:21:00 | 00:00:00 | 00:00:00 | |
| DB0UT-9 | 2026-09-02 06:25:28 | 49.60610 | 8.22908 | 356° | 4km/h | 30291m | 6.1m/s | -43.6°C | 0.4% | 12.0hPa | 2.7V | 03:22:00 | 00:00:00 | 00:00:00 | |
| DL1XH-15 | 2026-09-02 06:25:27 | 49.60598 | 8.22895 | 98° | 4km/h | 30251m | 5.4m/s | -43.7°C | 2.3% | 12.1hPa | 2.7V | 03:21:49 | 01:54:22 | 00:00:00 | |
| BIOWL1-15 | 2026-09-02 06:25:26 | 49.60599 | 8.22898 | 53° | 7km/h | 30262m | 5.8m/s | -43.7°C | 0% | 12.1hPa | 2.7V | 03:22:17 | 01:54:24 | 00:00:00 | |
| AA1-15 | 2026-09-02 06:25:23 | 49.60598 | 8.22896 | 78° | 5km/h | 30257m | 5.5m/s | -43.7°C | 0% | 12.1hPa | 2.7V | 03:22:17 | 01:54:23 | 00:00:00 | |
| HSKMA3-T | 2026-09-02 06:25:21 | 49.60598 | 8.22894 | 100° | 4km/h | 30245m | 6.5m/s | -43.8°C | 0% | 12.1hPa | 2.6V | 03:22:17 | 01:54:21 | 00:00:00 | |
| DL1XH-west | 2026-09-02 06:25:20 | 49.60599 | 8.22893 | 118° | 2km/h | 30239m | 5.8m/s | -43.8°C | 0% | 12.1hPa | 2.6V | 03:22:17 | 01:54:20 | 00:00:00 | |
| DF8AY | 2026-09-02 06:25:19 | 49.60600 | 8.22892 | 180° | 5km/h | 30229m | 5.3m/s | -43.7°C | 0% | 0hPa | 2.7V | 18:12:15 | 01:54:18 | 00:00:00 | |
| BIOWL1-15 | 2026-09-02 06:25:14 | 49.60609 | 8.22889 | 122° | 7km/h | 30206m | 5.1m/s | -43.8°C | 0% | 12.2hPa | 2.6V | 03:22:17 | 01:54:14 | 00:00:00 | |
| AA1-15 | 2026-09-02 06:25:12 | 49.60608 | 8.22881 | 55° | 16km/h | 30193m | 6.5m/s | -43.9°C | 0% | 12.2hPa | 2.7V | 03:22:17 | 01:54:12 | 00:00:00 | |
| HSKMA3-T | 2026-09-02 06:25:10 | 49.60602 | 8.22870 | 48° | 20km/h | 30183m | 4.2m/s | -43.9°C | 0% | 12.2hPa | 2.6V | 03:22:17 | 01:54:10 | 00:00:00 | |
| DL1XH-west | 2026-09-02 06:25:09 | 49.60599 | 8.22865 | 51° | 15km/h | 30179m | 4.4m/s | -43.8°C | 0% | 12.2hPa | 2.6V | 03:22:17 | 01:54:09 | 00:00:00 | |
| DF8AY | 2026-09-02 06:25:08 | 49.60597 | 8.22861 | 68° | 9km/h | 30174m | 6m/s | -43.7°C | 0% | 0hPa | 2.7V | 18:12:15 | 01:54:08 | 00:00:00 | |
| BIOWL1-15 | 2026-09-02 06:25:05 | 49.60606 | 8.22863 | 205° | 16km/h | 30150m | 5.8m/s | -43.7°C | 0% | 12.3hPa | 2.6V | 03:22:17 | 01:54:04 | 00:00:00 | |
| AA1-15 | 2026-09-02 06:25:01 | 49.60613 | 8.22870 | 234° | 4km/h | 30133m | 5.6m/s | -43.6°C | 0% | 12.3hPa | 2.7V | 03:22:17 | 01:54:01 | 00:00:00 | |
| HSKMA3-T | 2026-09-02 06:25:00 | 49.60613 | 8.22870 | 40° | 2km/h | 30127m | 5.4m/s | -43.6°C | 0% | 12.3hPa | 2.6V | 03:22:17 | 01:54:00 | 00:00:00 | |
| DM0DOS-11 | 2026-09-02 06:24:59 | 49.60612 | 8.22867 | 82° | 7km/h | 30116m | 6.5m/s | -43.6°C | 2.3% | 12.3hPa | 2.6V | 03:22:13 | 01:53:58 | 00:00:00 | |
| DL1XH-west | 2026-09-02 06:24:59 | 49.60613 | 8.22869 | 62° | 5km/h | 30122m | 5.6m/s | -43.6°C | 0% | 12.3hPa | 2.6V | 03:22:17 | 01:53:59 | 00:00:00 | |
| DF8AY | 2026-09-02 06:24:57 | 49.60612 | 8.22864 | 95° | 7km/h | 30110m | 5.8m/s | -43.6°C | 0% | 0hPa | 2.7V | 18:12:15 | 01:53:57 | 00:00:00 | |
| BIOWL1-15 | 2026-09-02 06:24:53 | 49.60612 | 8.22856 | 8° | 4km/h | 30087m | 6.2m/s | -43.7°C | 0% | 12.4hPa | 2.7V | 03:23:08 | 01:53:53 | 00:00:00 | |
| AA1-15 | 2026-09-02 06:24:50 | 49.60611 | 8.22860 | 231° | 7km/h | 30072m | 5.2m/s | -43.8°C | 0% | 12.4hPa | 2.6V | 03:23:08 | 01:53:50 | 00:00:00 | |
| HSKMA3-T | 2026-09-02 06:24:49 | 49.60613 | 8.22862 | 213° | 11km/h | 30065m | 6.5m/s | -43.8°C | 0% | 12.4hPa | 2.6V | 03:23:08 | 01:53:49 | 00:00:00 | |
| DL1XH-15 | 2026-09-02 06:24:48 | 49.60616 | 8.22865 | 200° | 16km/h | 30059m | 5.9m/s | -43.8°C | 2.3% | 12.4hPa | 2.7V | 03:22:23 | 01:53:48 | 00:00:00 | |
| DL1XH-west | 2026-09-02 06:24:48 | 49.60616 | 8.22865 | 200° | 16km/h | 30059m | 5.9m/s | -43.8°C | 0% | 12.4hPa | 2.7V | 03:23:08 | 01:53:48 | 00:00:00 | |
| DF8AY | 2026-09-02 06:24:47 | 49.60620 | 8.22866 | 193° | 16km/h | 30054m | 4.7m/s | -43.7°C | 0% | 0hPa | 2.7V | 18:12:15 | 01:53:47 | 00:00:00 | |
| SSTOLZ84 | 2026-09-02 06:24:47 | 49.60624 | 8.22868 | 190° | 13km/h | 30050m | 4.1m/s | -43.8°C | 0.3% | 12.5hPa | 2.6V | 00:00:00 | 00:00:00 | 00:00:00 | |
| DJ2DS-15 | 2026-09-02 06:24:46 | 49.60623 | 8.22868 | 191° | 13km/h | 30050m | 4.0m/s | -43.7°C | 2.3% | 12.4hPa | 2.6V | 00:00:00 | 01:53:46 | 00:00:00 | |
| DK5PH-5 | 2026-09-02 06:24:45 | 49.60626 | 8.22868 | 190° | 13km/h | 30045m | 4.9m/s | -43.8°C | 2.3% | 12.4hPa | 2.6V | 03:22:00 | 01:53:45 | 00:00:00 | |
| DO3MHA-11 | 2026-09-02 06:24:44 | 49.60627 | 8.22868 | 78° | 13km/h | 30040m | 6.2m/s | -43.9°C | 2.4% | 12.4hPa | 2.6V | 03:22:00 | 01:53:44 | 00:00:00 | |
| DL1XH-15 | 2026-09-02 06:24:43 | 49.60612 | 8.22849 | 99° | 11km/h | 30006m | 5.5m/s | -43.9°C | 2.3% | 12.6hPa | 2.6V | 03:22:33 | 01:53:38 | 00:00:00 | |
| BIOWL1-15 | 2026-09-02 06:24:42 | 49.60619 | 8.22863 | 31° | 18km/h | 30022m | 4.8m/s | -43.9°C | 0% | 12.5hPa | 2.7V | 03:23:08 | 01:53:41 | 00:00:00 | |
| HSKMA3-T | 2026-09-02 06:24:39 | 49.60613 | 8.22854 | 63° | 15km/h | 30012m | 5.8m/s | -43.9°C | 0% | 12.5hPa | 2.6V | 03:23:08 | 01:53:39 | 00:00:00 | |
| DL1XH-west | 2026-09-02 06:24:38 | 49.60612 | 8.22849 | 100° | 11km/h | 30006m | 5.5m/s | -43.9°C | 0% | 12.6hPa | 2.6V | 03:23:08 | 01:53:38 | 00:00:00 | |
| GOEST3-10 | 2026-09-02 06:24:37 | 49.60614 | 8.22845 | 139° | 15km/h | 30001m | 4.9m/s | 0°C | 0% | 0hPa | 2.6V | 00:00:00 | 01:53:37 | 00:00:00 | |
| DN1GJH-1 | 2026-09-02 06:24:36 | 49.60614 | 8.22845 | 140° | 13km/h | 30001m | 4.9m/s | -43.9°C | 0.4% | 12.6hPa | 2.6V | 03:23:00 | 00:00:00 | 00:00:00 | |
| DL1XH1-15 | 2026-09-02 06:24:35 | 49.60624 | 8.22845 | 209° | 15km/h | 29984m | 6.4m/s | -43.7°C | 2.3% | 12.6hPa | 2.6V | 03:22:37 | 01:53:34 | 00:00:00 | |
| BIOWL1-15 | 2026-09-02 06:24:33 | 49.60630 | 8.22859 | 250° | 15km/h | 29968m | 4.4m/s | -43.9°C | 0% | 12.6hPa | 2.7V | 03:23:08 | 01:53:31 | 00:00:00 | |
| DF8AY | 2026-09-02 06:24:32 | 49.60629 | 8.22854 | 245° | 16km/h | 29973m | 4.9m/s | -43.8°C | 0% | 0hPa | 2.7V | 18:12:15 | 01:53:32 | 00:00:00 | |
| HSKMA3-T | 2026-09-02 06:24:29 | 49.60633 | 8.22866 | 210° | 7km/h | 29958m | 5.9m/s | -43.8°C | 0% | 12.7hPa | 2.6V | 03:23:08 | 01:53:29 | 00:00:00 | |
| DL1XH-15 | 2026-09-02 06:24:28 | 49.60635 | 8.22866 | 162° | 9km/h | 29952m | 6.5m/s | -43.8°C | 2.3% | 12.7hPa | 2.6V | 03:22:43 | 01:53:28 | 00:00:00 | |
| AA1-15 | 2026-09-02 06:24:28 | 49.60635 | 8.22866 | 162° | 9km/h | 29952m | 6.5m/s | -43.8°C | 0% | 12.7hPa | 2.6V | 03:23:08 | 01:53:28 | 00:00:00 | |
| DL1XH-west | 2026-09-02 06:24:27 | 49.60637 | 8.22864 | 141° | 15km/h | 29946m | 5.7m/s | -43.8°C | 0% | 12.7hPa | 2.7V | 03:23:08 | 01:53:27 | 00:00:00 | |
| DF8AY | 2026-09-02 06:24:22 | 49.60647 | 8.22851 | 237° | 7km/h | 29914m | 5.2m/s | -43.9°C | 0% | 0hPa | 2.7V | 18:12:15 | 01:53:21 | 00:00:00 | |
| BIOWL1-15 | 2026-09-02 06:24:22 | 49.60648 | 8.22854 | 228° | 13km/h | 29908m | 6.2m/s | -43.7°C | 0% | 12.7hPa | 2.7V | 03:23:08 | 01:53:20 | 00:00:00 | |
| GOEST3-10 | 2026-09-02 06:24:21 | 49.60647 | 8.22851 | 237° | 15km/h | 29914m | 5.1m/s | 0°C | 0% | 0hPa | 2.6V | 03:22:00 | 00:00:00 | 00:00:00 | |
| DM0DOS-11 | 2026-09-02 06:24:19 | 49.60654 | 8.22861 | 207° | 18km/h | 29896m | 5.4m/s | -43.8°C | 2.3% | 12.8hPa | 2.6V | 03:22:53 | 01:53:18 | 00:00:00 | |
| AA1-15 | 2026-09-02 06:24:18 | 49.60655 | 8.22861 | 208° | 18km/h | 29896m | 5.4m/s | -43.8°C | 0% | 12.8hPa | 2.6V | 03:23:08 | 01:53:18 | 00:00:00 | |
| DL1XH-west | 2026-09-02 06:24:17 | 49.60659 | 8.22864 | 201° | 18km/h | 29891m | 4.8m/s | -43.9°C | 0% | 12.8hPa | 2.7V | 03:23:08 | 01:53:17 | 00:00:00 | |
| BIOWL1-15 | 2026-09-02 06:24:11 | 49.60678 | 8.22844 | 136° | 20km/h | 29846m | 5.1m/s | -43.8°C | 0% | 12.8hPa | 2.6V | 03:23:08 | 01:53:09 | 00:00:00 | |
| DM0DOS-11 | 2026-09-02 06:24:09 | 49.60682 | 8.22839 | 141° | 18km/h | 29841m | 4.5m/s | -43.8°C | 2.3% | 12.9hPa | 2.6V | 03:23:03 | 01:53:08 | 00:00:00 | |
| HSKMA3-T | 2026-09-02 06:24:07 | 49.60685 | 8.22835 | 146° | 15km/h | 29836m | 5.8m/s | -43.9°C | 0% | 12.9hPa | 2.6V | 03:23:08 | 01:53:07 | 00:00:00 | |
| DL1XH-west | 2026-09-02 06:24:06 | 49.60688 | 8.22833 | 153° | 11km/h | 29830m | 6.3m/s | -43.9°C | 0% | 12.9hPa | 2.7V | 03:23:08 | 01:53:06 | 00:00:00 | |
| DF8AY | 2026-09-02 06:24:04 | 49.60692 | 8.22831 | 173° | 5km/h | 29818m | 5.2m/s | 0°C | 0% | 0hPa | 2.7V | 18:12:15 | 01:53:04 | 00:00:00 | |
| BIOWL1-15 | 2026-09-02 06:24:01 | 49.60704 | 8.22819 | 127° | 16km/h | 29791m | 5.3m/s | -43.9°C | 0% | 13hPa | 2.7V | 03:23:59 | 01:52:59 | 00:00:00 | |
| DB0NH | 2026-09-02 06:24:01 | 49.60698 | 8.22827 | 148° | 16km/h | 29802m | 5.6m/s | 0°C | 0% | 0hPa | 2.6V | 00:00:00 | 01:53:01 | 00:00:00 | |
| DM0DOS-11 | 2026-09-02 06:23:59 | 49.60706 | 8.22814 | 113° | 15km/h | 29784m | 6.4m/s | -44°C | 2.3% | 13hPa | 2.6V | 03:23:13 | 01:52:58 | 00:00:00 | |
| HSKMA3-T | 2026-09-02 06:23:57 | 49.60707 | 8.22808 | 95° | 15km/h | 29778m | 6m/s | -44°C | 0% | 13hPa | 2.6V | 03:23:59 | 01:52:57 | 00:00:00 | |
| DL1XH-west | 2026-09-02 06:23:56 | 49.60707 | 8.22802 | 87° | 16km/h | 29773m | 5m/s | -44°C | 0% | 13hPa | 2.6V | 03:23:59 | 01:52:56 | 00:00:00 | |
| DL1XH1-15 | 2026-09-02 06:23:55 | 49.60707 | 8.22788 | 93° | 18km/h | 29763m | 6.2m/s | -44.1°C | 2.3% | 13hPa | 2.7V | 03:23:17 | 01:52:54 | 00:00:00 | |
| DM3KS-11 | 2026-09-02 06:23:52 | 49.60709 | 8.22775 | 116° | 16km/h | 29751m | 5.0m/s | -44.2°C | 0.4% | 13.0hPa | 2.7V | 00:00:00 | 00:00:00 | 00:00:00 | |
| GOEST3-10 | 2026-09-02 06:23:51 | 49.60711 | 8.22769 | 126° | 9km/h | 29746m | 4.6m/s | 0°C | 0% | 0hPa | 2.7V | 00:00:00 | 01:52:51 | 00:00:00 | |
| DM0DOS-11 | 2026-09-02 06:23:49 | 49.60715 | 8.22765 | 224° | 4km/h | 29729m | 5.5m/s | -44.4°C | 2.4% | 13.1hPa | 2.7V | 03:23:23 | 01:52:48 | 00:00:00 | |
| DL1XH1-15 | 2026-09-02 06:23:49 | 49.60722 | 8.22767 | 153° | 11km/h | 29707m | 5.7m/s | -44.5°C | 2.4% | 13.1hPa | 2.6V | 03:23:27 | 01:52:44 | 00:00:00 | |
| DF8AY | 2026-09-02 06:23:49 | 49.60715 | 8.22764 | 165° | 5km/h | 29735m | 6.7m/s | 0°C | 0% | 0hPa | 2.7V | 18:12:15 | 01:52:49 | 00:00:00 | |
| DL1XH-15 | 2026-09-02 06:23:48 | 49.60716 | 8.22766 | 230° | 5km/h | 29723m | 4.4m/s | -44.4°C | 2.4% | 13.1hPa | 2.7V | 03:23:24 | 01:52:47 | 00:00:00 | |
| HSKMA3-T | 2026-09-02 06:23:46 | 49.60717 | 8.22768 | 212° | 5km/h | 29719m | 4.7m/s | -44.4°C | 0% | 13.1hPa | 2.6V | 03:23:59 | 01:52:46 | 00:00:00 | |
| DL1XH-west | 2026-09-02 06:23:45 | 49.60719 | 8.22768 | 180° | 7km/h | 29713m | 6.3m/s | -44.5°C | 0% | 13.1hPa | 2.6V | 03:23:59 | 01:52:45 | 00:00:00 | |
| DO3MHA-11 | 2026-09-02 06:23:44 | 49.60721 | 8.22767 | 154° | 15km/h | 29708m | 5.6m/s | -44.4°C | 2.4% | 13.0hPa | 2.7V | 00:00:00 | 01:52:44 | 00:00:00 | |
| DJTTGO | 2026-09-02 06:23:43 | 49.60721 | 8.22767 | 155° | 11km/h | 29708m | 5.7m/s | -44.5°C | 0.4% | 13.1hPa | 2.7V | 03:23:00 | 00:00:00 | 00:00:00 | |
| GOEST3-10 | 2026-09-02 06:23:41 | 49.60728 | 8.22753 | 104° | 16km/h | 29692m | 5.7m/s | 0°C | 0% | 0hPa | 2.7V | 00:00:00 | 01:52:41 | 00:00:00 | |
| DD1CC2-15 | 2026-09-02 06:23:40 | 49.60728 | 8.22753 | 104° | 16km/h | 29692m | 5.8m/s | -44.5°C | 0.4% | 13.2hPa | 2.7V | 00:00:00 | 00:00:00 | 00:00:00 | |
| DM0DOS-11 | 2026-09-02 06:23:38 | 49.60726 | 8.22735 | 65° | 15km/h | 29675m | 4.4m/s | -44.5°C | 2.4% | 13.2hPa | 2.7V | 03:23:33 | 01:52:38 | 00:00:00 | |
| DL1XH-15 | 2026-09-02 06:23:38 | 49.60725 | 8.22730 | 73° | 13km/h | 29670m | 4.7m/s | -44.5°C | 2.4% | 13.2hPa | 2.6V | 03:23:34 | 01:52:37 | 00:00:00 | |
| BIOWL1-15 | 2026-09-02 06:23:38 | 49.60726 | 8.22735 | 65° | 15km/h | 29675m | 4.4m/s | -44.5°C | 0% | 13.2hPa | 2.7V | 03:23:59 | 01:52:38 | 00:00:00 | |
| DF8AY | 2026-09-02 06:23:36 | 49.60724 | 8.22725 | 96° | 11km/h | 29665m | 6.1m/s | 0°C | 0% | 0hPa | 2.6V | 18:12:15 | 01:52:36 | 00:00:00 | |
| DL1XH1-15 | 2026-09-02 06:23:35 | 49.60728 | 8.22718 | 150° | 13km/h | 29653m | 5.2m/s | -44.5°C | 2.4% | 13.2hPa | 2.7V | 03:23:37 | 01:52:34 | 00:00:00 | |
| DL1XH-west | 2026-09-02 06:23:35 | 49.60725 | 8.22721 | 127° | 11km/h | 29659m | 6.1m/s | -44.5°C | 0% | 13.2hPa | 2.6V | 03:23:59 | 01:52:35 | 00:00:00 | |
| DO3MHA-11 | 2026-09-02 06:23:34 | 49.60727 | 8.22718 | 151° | 11km/h | 29653m | 5.2m/s | -44.4°C | 2.4% | 13.2hPa | 2.7V | 00:00:00 | 01:52:34 | 00:00:00 | |
| DB0UT-7 | 2026-09-02 06:23:33 | 49.60730 | 8.22716 | 162° | 11km/h | 29648m | 4.8m/s | -44.5°C | 2.4% | 13.2hPa | 2.7V | 00:00:00 | 00:00:00 | 00:00:00 | |
| NBG1-10 | 2026-09-02 06:23:32 | 49.60733 | 8.22715 | 168° | 11km/h | 29643m | 5.3m/s | -44.5°C | 2.4% | 13.2hPa | 2.7V | 00:00:00 | 01:52:32 | 00:00:00 | |
| GOEST3-10 | 2026-09-02 06:23:31 | 49.60736 | 8.22714 | 167° | 7km/h | 29637m | 6.4m/s | 0°C | 0% | 0hPa | 2.7V | 00:00:00 | 01:52:31 | 00:00:00 | |
| DL1XH-15 | 2026-09-02 06:23:28 | 49.60738 | 8.22706 | 107° | 11km/h | 29615m | 5.8m/s | -44.5°C | 2.4% | 13.3hPa | 2.7V | 03:23:44 | 01:52:27 | 00:00:00 | |
| BIOWL1-15 | 2026-09-02 06:23:28 | 49.60738 | 8.22709 | 98° | 7km/h | 29620m | 4.9m/s | -44.5°C | 0% | 13.3hPa | 2.7V | 03:23:59 | 01:52:28 | 00:00:00 | |
| DF1GD-15 | 2026-09-02 06:23:27 | 49.60738 | 8.22709 | 99° | 7km/h | 29621m | 4.9m/s | -44.5°C | 0.4% | 13.3hPa | 2.7V | 03:23:00 | 00:00:00 | 00:00:00 | |
| DL1XH1-15 | 2026-09-02 06:23:25 | 49.60744 | 8.22691 | 128° | 18km/h | 29599m | 4.8m/s | -44.5°C | 2.4% | 13.3hPa | 2.7V | 03:23:47 | 01:52:24 | 00:00:00 | |
| DL1XH-west | 2026-09-02 06:23:25 | 49.60742 | 8.22696 | 125° | 16km/h | 29604m | 5.3m/s | -44.5°C | 0% | 13.4hPa | 2.6V | 03:23:59 | 01:52:25 | 00:00:00 | |
| AA1-15 | 2026-09-02 06:23:24 | 49.60744 | 8.22691 | 128° | 18km/h | 29599m | 4.8m/s | -44.5°C | 0% | 13.4hPa | 2.7V | 03:23:59 | 01:52:24 | 00:00:00 | |
| DO3MHA-11 | 2026-09-02 06:23:24 | 49.60744 | 8.22691 | 129° | 11km/h | 29599m | 4.8m/s | -44.5°C | 2.4% | 13.3hPa | 2.7V | 03:23:00 | 01:52:24 | 00:00:00 | |
| DO1YAY-16 | 2026-09-02 06:23:23 | 49.60747 | 8.22686 | 126° | 15km/h | 29594m | 4.5m/s | -44.5°C | 0.4% | 13.4hPa | 2.7V | 00:00:00 | 00:00:00 | 00:00:00 | |
| DJTTGO | 2026-09-02 06:23:22 | 49.60747 | 8.22686 | 127° | 16km/h | 29595m | 4.5m/s | -44.5°C | 0.4% | 13.4hPa | 2.7V | 03:23:00 | 00:00:00 | 00:00:00 | |
| GOEST3-10 | 2026-09-02 06:23:21 | 49.60750 | 8.22677 | 100° | 7km/h | 29583m | 6.7m/s | 0°C | 0% | 0hPa | 2.7V | 00:00:00 | 01:52:21 | 00:00:00 | |
| DD1CC2-15 | 2026-09-02 06:23:20 | 49.60750 | 8.22677 | 100° | 9km/h | 29583m | 6.7m/s | -44.5°C | 0.4% | 13.4hPa | 2.7V | 00:00:00 | 00:00:00 | 00:00:00 | |
| DL1XH-15 | 2026-09-02 06:23:18 | 49.60749 | 8.22670 | 131° | 7km/h | 29561m | 6.2m/s | -44.6°C | 2.4% | 13.4hPa | 2.7V | 03:23:54 | 01:52:17 | 00:00:00 | |
| BIOWL1-15 | 2026-09-02 06:23:18 | 49.60749 | 8.22671 | 94° | 4km/h | 29566m | 4.7m/s | -44.5°C | 0% | 13.4hPa | 2.7V | 03:23:59 | 01:52:18 | 00:00:00 | |
| CB1BUN | 2026-09-02 06:23:16 | 49.60749 | 8.22669 | 132° | 7km/h | 29561m | 6.2m/s | -44.6°C | 0.4% | 13.4hPa | 2.6V | 03:23:00 | 00:00:00 | 00:00:00 | |
| DL1XH1-15 | 2026-09-02 06:23:15 | 49.60757 | 8.22660 | 143° | 18km/h | 29544m | 4.7m/s | -44.6°C | 2.4% | 13.4hPa | 2.6V | 03:23:57 | 01:52:14 | 00:00:00 | |
| HSKMA3-T | 2026-09-02 06:23:14 | 49.60758 | 8.22660 | 143° | 18km/h | 29544m | 4.7m/s | -44.7°C | 0% | 13.4hPa | 2.6V | 03:23:59 | 01:52:14 | 00:00:00 | |
| AA1-15 | 2026-09-02 06:23:13 | 49.60761 | 8.22656 | 138° | 16km/h | 29539m | 5.6m/s | -44.7°C | 0% | 13.5hPa | 2.7V | 03:23:59 | 01:52:13 | 00:00:00 | |
| DB0NH | 2026-09-02 06:23:11 | 49.60765 | 8.22647 | 106° | 11km/h | 29528m | 5.5m/s | 0°C | 0% | 0hPa | 2.7V | 00:00:00 | 01:52:11 | 00:00:00 | |
| DM0DOS-11 | 2026-09-02 06:23:09 | 49.60765 | 8.22636 | 94° | 9km/h | 29513m | 5.7m/s | -44.7°C | 2.5% | 13.5hPa | 2.7V | 03:24:03 | 01:52:08 | 00:00:00 | |
| DL6DJ-15 | 2026-09-02 06:23:08 | 49.60765 | 8.22636 | 94° | 9km/h | 29513m | 5.7m/s | -44.7°C | 0.4% | 13.5hPa | 2.7V | 00:00:00 | 00:00:00 | 00:00:00 | |
| BIOWL1-15 | 2026-09-02 06:23:08 | 49.60765 | 8.22636 | 95° | 9km/h | 29513m | 5.7m/s | -44.7°C | 0% | 13.5hPa | 2.7V | 03:24:50 | 01:52:08 | 00:00:00 | |
| DF3TZ-5 | 2026-09-02 06:23:07 | 49.60766 | 8.22633 | 114° | 9km/h | 29507m | 6.1m/s | -44.8°C | 0.4% | 13.5hPa | 2.7V | 00:00:00 | 00:00:00 | 00:00:00 | |
| DL1XH1-15 | 2026-09-02 06:23:05 | 49.60770 | 8.22622 | 120° | 11km/h | 29490m | 5.1m/s | -44.7°C | 2.4% | 13.6hPa | 2.7V | 03:24:07 | 01:52:04 | 00:00:00 | |
| DL1XH-west | 2026-09-02 06:23:04 | 49.60770 | 8.22622 | 120° | 11km/h | 29490m | 5.1m/s | -44.7°C | 0% | 13.6hPa | 2.7V | 03:24:50 | 01:52:04 | 00:00:00 | |
| DO3MHA-11 | 2026-09-02 06:23:04 | 49.60770 | 8.22622 | 121° | 9km/h | 29490m | 5.1m/s | -44.7°C | 2.4% | 13.5hPa | 2.7V | 00:00:00 | 01:52:04 | 00:00:00 | |
| DL1XH-15 | 2026-09-02 06:23:03 | 49.60772 | 8.22608 | 141° | 5km/h | 29462m | 6.1m/s | -44.6°C | 2.4% | 13.6hPa | 2.6V | 03:24:12 | 01:51:59 | 00:00:00 | |
| AA1-15 | 2026-09-02 06:23:03 | 49.60771 | 8.22619 | 104° | 9km/h | 29484m | 6.5m/s | -44.7°C | 0% | 13.6hPa | 2.7V | 03:24:50 | 01:52:03 | 00:00:00 | |
| DF8AY | 2026-09-02 06:22:58 | 49.60773 | 8.22607 | 164° | 9km/h | 29456m | 6.1m/s | 0°C | 0% | 0hPa | 2.7V | 18:12:15 | 01:51:58 | 00:00:00 | |
| EDDB2-12 | 2026-09-02 06:22:57 | 49.60776 | 8.22606 | 167° | 11km/h | 29450m | 5.1m/s | -44.7°C | 0.4% | 13.7hPa | 2.7V | 00:00:00 | 00:00:00 | 00:00:00 | |
| DJTTGO | 2026-09-02 06:22:56 | 49.60776 | 8.22606 | 169° | 11km/h | 29450m | 5.1m/s | -44.7°C | 0.4% | 13.7hPa | 2.7V | 03:24:00 | 00:00:00 | 00:00:00 | |
| DL1XH1-15 | 2026-09-02 06:22:55 | 49.60783 | 8.22601 | 116° | 7km/h | 29434m | 6.2m/s | -44.6°C | 2.4% | 13.7hPa | 2.7V | 03:24:17 | 01:51:54 | 00:00:00 | |
| DL1XH-west | 2026-09-02 06:22:54 | 49.60782 | 8.22601 | 117° | 7km/h | 29434m | 6.2m/s | -44.7°C | 0% | 13.7hPa | 2.7V | 03:24:50 | 01:51:54 | 00:00:00 | |
| HSKMA3-T | 2026-09-02 06:22:52 | 49.60782 | 8.22593 | 79° | 11km/h | 29423m | 4.9m/s | -44.7°C | 0% | 13.7hPa | 2.6V | 03:24:50 | 01:51:52 | 00:00:00 | |
| DM3KS-11 | 2026-09-02 06:22:50 | 49.60782 | 8.22584 | 99° | 13km/h | 29413m | 6.1m/s | -44.8°C | 0.4% | 13.7hPa | 2.7V | 00:00:00 | 00:00:00 | 00:00:00 | |
| DM0DOS-11 | 2026-09-02 06:22:49 | 49.60785 | 8.22575 | 133° | 13km/h | 29402m | 4.8m/s | -44.7°C | 2.4% | 13.8hPa | 2.7V | 03:24:23 | 01:51:48 | 00:00:00 | |
| BIOWL1-15 | 2026-09-02 06:22:48 | 49.60785 | 8.22575 | 133° | 13km/h | 29402m | 4.9m/s | -44.7°C | 0% | 13.8hPa | 2.7V | 03:24:50 | 01:51:48 | 00:00:00 | |
| DF8AY | 2026-09-02 06:22:46 | 49.60789 | 8.22570 | 164° | 7km/h | 29392m | 5.2m/s | 0°C | 0% | 0hPa | 2.6V | 18:12:15 | 01:51:46 | 00:00:00 | |
| DL1XH1-15 | 2026-09-02 06:22:45 | 49.60790 | 8.22572 | 286° | 5km/h | 29380m | 6.2m/s | -44.7°C | 2.4% | 13.8hPa | 2.6V | 03:24:27 | 01:51:44 | 00:00:00 | |
| DL1XH-west | 2026-09-02 06:22:43 | 49.60790 | 8.22574 | 289° | 9km/h | 29374m | 5.6m/s | -44.7°C | 0% | 13.8hPa | 2.7V | 03:24:50 | 01:51:43 | 00:00:00 | |
| HSKMA3-T | 2026-09-02 06:22:42 | 49.60789 | 8.22578 | 281° | 11km/h | 29368m | 5.7m/s | -44.8°C | 0% | 13.8hPa | 2.7V | 03:24:50 | 01:51:42 | 00:00:00 | |
| AA1-15 | 2026-09-02 06:22:41 | 49.60789 | 8.22582 | 268° | 11km/h | 29362m | 6.2m/s | -44.8°C | 0% | 13.8hPa | 2.6V | 03:24:50 | 01:51:41 | 00:00:00 | |
| BIOWL1-15 | 2026-09-02 06:22:37 | 49.60790 | 8.22589 | 55° | 5km/h | 29342m | 6.4m/s | -45°C | 0% | 13.9hPa | 2.6V | 03:24:50 | 01:51:37 | 00:00:00 | |
| GOEST3-10 | 2026-09-02 06:22:37 | 49.60790 | 8.22589 | 55° | 5km/h | 29342m | 6.3m/s | 0°C | 0% | 0hPa | 2.7V | 00:00:00 | 01:51:37 | 00:00:00 | |
| DF3TZ-5 | 2026-09-02 06:22:36 | 49.60789 | 8.22586 | 52° | 9km/h | 29335m | 6.5m/s | -45.0°C | 0.4% | 13.9hPa | 2.7V | 00:00:00 | 00:00:00 | 00:00:00 | |
| CB1BUN | 2026-09-02 06:22:34 | 49.60787 | 8.22583 | 60° | 13km/h | 29330m | 5.4m/s | -45.0°C | 0.4% | 13.9hPa | 2.7V | 03:24:00 | 00:00:00 | 00:00:00 | |
| DM0DOS-11 | 2026-09-02 06:22:33 | 49.60785 | 8.22569 | 340° | 5km/h | 29290m | 6.4m/s | -45°C | 2.4% | 14hPa | 2.7V | 03:24:43 | 01:51:28 | 00:00:00 | |
| DL1XH-15 | 2026-09-02 06:22:33 | 49.60785 | 8.22571 | 102° | 7km/h | 29312m | 5.9m/s | -44.9°C | 2.5% | 13.9hPa | 2.7V | 03:24:39 | 01:51:32 | 00:00:00 | |
| DL1XH-west | 2026-09-02 06:22:32 | 49.60785 | 8.22571 | 102° | 7km/h | 29313m | 5.9m/s | -44.9°C | 0% | 13.9hPa | 2.7V | 03:24:50 | 01:51:32 | 00:00:00 | |
| AA1-15 | 2026-09-02 06:22:30 | 49.60786 | 8.22569 | 156° | 2km/h | 29302m | 5.3m/s | -44.9°C | 0% | 14hPa | 2.6V | 03:24:50 | 01:51:30 | 00:00:00 | |
| DL1XH1-15 | 2026-09-02 06:22:29 | 49.60777 | 8.22570 | 26° | 5km/h | 29267m | 6.3m/s | -44.8°C | 2.5% | 14hPa | 2.7V | 03:24:47 | 01:51:24 | 00:00:00 | |
| BIOWL1-15 | 2026-09-02 06:22:29 | 49.60783 | 8.22570 | 348° | 9km/h | 29284m | 5.4m/s | -45°C | 0% | 14hPa | 2.7V | 03:24:50 | 01:51:27 | 00:00:00 | |
| DF8AY | 2026-09-02 06:22:23 | 49.60776 | 8.22569 | 68° | 5km/h | 29261m | 5.5m/s | 0°C | 0% | 0hPa | 2.7V | 18:12:15 | 01:51:23 | 00:00:00 | |
| HSKMA3-T | 2026-09-02 06:22:22 | 49.60776 | 8.22567 | 76° | 7km/h | 29256m | 5.1m/s | -44.8°C | 0% | 14.1hPa | 2.6V | 03:24:50 | 01:51:22 | 00:00:00 | |
| DL1XH-west | 2026-09-02 06:22:21 | 49.60775 | 8.22564 | 70° | 11km/h | 29251m | 5.2m/s | -44.9°C | 0% | 14.1hPa | 2.6V | 03:24:50 | 01:51:21 | 00:00:00 | |
| DO1YAY-16 | 2026-09-02 06:22:21 | 49.60775 | 8.22564 | 69° | 9km/h | 29251m | 5.2m/s | -44.9°C | 0.4% | 14.1hPa | 2.7V | 00:00:00 | 00:00:00 | 00:00:00 | |
| DM0DOS-11 | 2026-09-02 06:22:19 | 49.60769 | 8.22551 | 48° | 13km/h | 29234m | 4.5m/s | -45°C | 2.5% | 14.1hPa | 2.7V | 03:24:53 | 01:51:18 | 00:00:00 | |
| AA1-15 | 2026-09-02 06:22:19 | 49.60772 | 8.22555 | 52° | 15km/h | 29239m | 5.7m/s | -45°C | 0% | 14.1hPa | 2.7V | 03:25:41 | 01:51:19 | 00:00:00 | |
| BIOWL1-15 | 2026-09-02 06:22:16 | 49.60767 | 8.22545 | 183° | 4km/h | 29217m | 6.6m/s | -45.1°C | 0% | 14.2hPa | 2.6V | 03:25:41 | 01:51:15 | 00:00:00 | |
| DL1XH1-15 | 2026-09-02 06:22:15 | 49.60768 | 8.22545 | 204° | 7km/h | 29211m | 5.6m/s | -45.1°C | 2.5% | 14.1hPa | 2.6V | 03:24:57 | 01:51:14 | 00:00:00 | |
| DF8AY | 2026-09-02 06:22:12 | 49.60772 | 8.22549 | 221° | 7km/h | 29200m | 5.6m/s | 0°C | 0% | 0hPa | 2.7V | 18:12:15 | 01:51:12 | 00:00:00 | |
| BIOWL9-15 | 2026-09-02 06:22:11 | 49.60773 | 8.22551 | 248° | 4km/h | 29195m | 6.1m/s | -45.1°C | 0.4% | 14.2hPa | 2.7V | 00:00:00 | 00:00:00 | 00:00:00 | |
| DL1XH-west | 2026-09-02 06:22:11 | 49.60773 | 8.22551 | 248° | 4km/h | 29194m | 6.1m/s | -45.1°C | 0% | 14.2hPa | 2.6V | 03:25:41 | 01:51:11 | 00:00:00 | |
| DJTTGO | 2026-09-02 06:22:10 | 49.60773 | 8.22551 | 249° | 4km/h | 29195m | 6.1m/s | -45.1°C | 0.4% | 14.2hPa | 2.7V | 03:25:00 | 00:00:00 | 00:00:00 | |
| DM0DOS-11 | 2026-09-02 06:22:09 | 49.60770 | 8.22550 | 41° | 9km/h | 29179m | 4.5m/s | -44.9°C | 2.5% | 14.2hPa | 2.7V | 03:25:03 | 01:51:08 | 00:00:00 | |
| AA1-15 | 2026-09-02 06:22:08 | 49.60770 | 8.22550 | 42° | 9km/h | 29179m | 4.5m/s | -44.9°C | 0% | 14.2hPa | 2.7V | 03:25:41 | 01:51:08 | 00:00:00 | |
| BIOWL1-15 | 2026-09-02 06:22:05 | 49.60769 | 8.22538 | 111° | 16km/h | 29162m | 5.7m/s | -44.9°C | 0% | 14.3hPa | 2.6V | 03:25:41 | 01:51:05 | 00:00:00 | |
| DL1XH-west | 2026-09-02 06:22:01 | 49.60776 | 8.22508 | 99° | 18km/h | 29141m | 5.5m/s | -44.9°C | 0% | 14.3hPa | 2.6V | 03:25:41 | 01:51:01 | 00:00:00 | |
| DF7PN | 2026-09-02 06:22:01 | 49.60776 | 8.22502 | 93° | 13km/h | 29136m | 4.7m/s | -44.8°C | 0.4% | 14.3hPa | 2.7V | 00:00:00 | 00:00:00 | 00:00:00 | |
| DM0DOS-11 | 2026-09-02 06:21:59 | 49.60777 | 8.22497 | 112° | 2km/h | 29125m | 6.5m/s | -44.6°C | 2.4% | 14.3hPa | 2.7V | 03:25:13 | 01:50:58 | 00:00:00 | |
| AA1-15 | 2026-09-02 06:21:57 | 49.60777 | 8.22497 | 265° | 4km/h | 29118m | 5.8m/s | -44.6°C | 0% | 14.4hPa | 2.7V | 03:25:41 | 01:50:57 | 00:00:00 | |
| DL1XH1-15 | 2026-09-02 06:21:55 | 49.60773 | 8.22502 | 344° | 11km/h | 29102m | 6.2m/s | -44.8°C | 2.4% | 14.4hPa | 2.7V | 03:25:17 | 01:50:54 | 00:00:00 | |
| BIOWL1-15 | 2026-09-02 06:21:54 | 49.60767 | 8.22501 | 33° | 13km/h | 29091m | 4.4m/s | -44.8°C | 0% | 14.4hPa | 2.6V | 03:25:41 | 01:50:52 | 00:00:00 | |
| DL1XH-west | 2026-09-02 06:21:51 | 49.60765 | 8.22497 | 59° | 13km/h | 29087m | 4.9m/s | -44.8°C | 0% | 14.4hPa | 2.6V | 03:25:41 | 01:50:51 | 00:00:00 | |
| DM0DOS-11 | 2026-09-02 06:21:50 | 49.60767 | 8.22482 | 124° | 18km/h | 29069m | 4.6m/s | -44.8°C | 2.5% | 14.5hPa | 2.7V | 03:25:23 | 01:50:48 | 00:00:00 | |
| DF8AY | 2026-09-02 06:21:49 | 49.60765 | 8.22487 | 113° | 16km/h | 29075m | 6m/s | 0°C | 0% | 0hPa | 2.7V | 18:12:15 | 01:50:49 | 00:00:00 | |
| AA1-15 | 2026-09-02 06:21:46 | 49.60771 | 8.22470 | 114° | 15km/h | 29060m | 5.4m/s | -44.7°C | 0% | 14.5hPa | 2.6V | 03:25:41 | 01:50:46 | 00:00:00 | |
| DL1XH1-15 | 2026-09-02 06:21:45 | 49.60772 | 8.22461 | 59° | 11km/h | 29048m | 5.7m/s | -44.7°C | 2.4% | 14.5hPa | 2.6V | 03:25:27 | 01:50:44 | 00:00:00 | |
| BIOWL1-15 | 2026-09-02 06:21:44 | 49.60772 | 8.22461 | 60° | 11km/h | 29048m | 5.7m/s | -44.7°C | 0% | 14.5hPa | 2.6V | 03:25:41 | 01:50:44 | 00:00:00 | |
| DL1XH-west | 2026-09-02 06:21:41 | 49.60763 | 8.22456 | 359° | 13km/h | 29032m | 5.6m/s | -44.7°C | 0% | 14.5hPa | 2.6V | 03:25:41 | 01:50:41 | 00:00:00 | |
| HSKMA3-T | 2026-09-02 06:21:40 | 49.60760 | 8.22456 | 344° | 11km/h | 29026m | 6m/s | -44.8°C | 0% | 14.6hPa | 2.6V | 03:25:41 | 01:50:40 | 00:00:00 | |
| DF8AY | 2026-09-02 06:21:38 | 49.60758 | 8.22459 | 286° | 5km/h | 29015m | 5.4m/s | 0°C | 0% | 0hPa | 2.7V | 18:12:15 | 01:50:38 | 00:00:00 | |
| DO3MHA-11 | 2026-09-02 06:21:38 | 49.60758 | 8.22459 | 287° | 4km/h | 29015m | 5.4m/s | -44.6°C | 2.4% | 14.5hPa | 2.6V | 00:00:00 | 01:50:38 | 00:00:00 | |
| DD1CC8 | 2026-09-02 06:21:37 | 49.60758 | 8.22462 | 276° | 2km/h | 29005m | 5.3m/s | -44.8°C | 0.4% | 14.6hPa | 2.6V | 00:00:00 | 00:00:00 | 00:00:00 | |
| DL1XH-15 | 2026-09-02 06:21:36 | 49.60757 | 8.22461 | 171° | 4km/h | 28975m | 6.2m/s | -45.2°C | 2.5% | 14.7hPa | 2.6V | 03:25:40 | 01:50:31 | 00:00:00 | |
| AA1-15 | 2026-09-02 06:21:35 | 49.60757 | 8.22463 | 340° | 2km/h | 28999m | 6.6m/s | -44.8°C | 0% | 14.6hPa | 2.6V | 03:25:41 | 01:50:35 | 00:00:00 | |
| BIOWL1-15 | 2026-09-02 06:21:34 | 49.60757 | 8.22463 | 20° | 4km/h | 28993m | 5.6m/s | -44.9°C | 0% | 14.6hPa | 2.7V | 03:25:41 | 01:50:34 | 00:00:00 | |
| DL1XH-west | 2026-09-02 06:21:30 | 49.60758 | 8.22461 | 193° | 5km/h | 28970m | 4.8m/s | -45.2°C | 0% | 14.7hPa | 2.6V | 03:25:41 | 01:50:30 | 00:00:00 | |
| AA1-15 | 2026-09-02 06:21:24 | 49.60753 | 8.22474 | 295° | 9km/h | 28938m | 5.7m/s | -45°C | 0% | 14.8hPa | 2.7V | 03:26:32 | 01:50:24 | 00:00:00 | |
| BIOWL1-15 | 2026-09-02 06:21:23 | 49.60752 | 8.22478 | 265° | 9km/h | 28933m | 5.8m/s | -45.1°C | 0% | 14.8hPa | 2.7V | 03:26:32 | 01:50:23 | 00:00:00 | |
| DL1XH-west | 2026-09-02 06:21:20 | 49.60758 | 8.22489 | 227° | 15km/h | 28918m | 5.3m/s | -45.3°C | 0% | 14.8hPa | 2.6V | 03:26:32 | 01:50:20 | 00:00:00 | |
| HSKMA3-T | 2026-09-02 06:21:19 | 49.60760 | 8.22493 | 232° | 15km/h | 28912m | 5.6m/s | -45.3°C | 0% | 14.8hPa | 2.7V | 03:26:32 | 01:50:19 | 00:00:00 | |
| DL1XH-15 | 2026-09-02 06:21:18 | 49.60762 | 8.22498 | 237° | 15km/h | 28906m | 5.3m/s | -45.2°C | 2.5% | 14.8hPa | 2.7V | 03:25:53 | 01:50:18 | 00:00:00 | |
| DO3MHA-11 | 2026-09-02 06:21:18 | 49.60762 | 8.22498 | 238° | 20km/h | 28907m | 5.3m/s | -45.2°C | 2.5% | 14.8hPa | 2.6V | 00:00:00 | 01:50:18 | 00:00:00 | |
| DM3KS-11 | 2026-09-02 06:21:17 | 49.60764 | 8.22503 | 236° | 16km/h | 28902m | 4.8m/s | -45.2°C | 0.4% | 14.9hPa | 2.6V | 00:00:00 | 00:00:00 | 00:00:00 | |
| DL1XH1-15 | 2026-09-02 06:21:15 | 49.60775 | 8.22521 | 215° | 26km/h | 28885m | 6.6m/s | -45.4°C | 2.5% | 14.9hPa | 2.6V | 03:25:57 | 01:50:14 | 00:00:00 | |
| BIOWL1-15 | 2026-09-02 06:21:13 | 49.60781 | 8.22526 | 210° | 26km/h | 28879m | 5.5m/s | -45.4°C | 0% | 14.9hPa | 2.7V | 03:26:32 | 01:50:13 | 00:00:00 | |
| DF8AY | 2026-09-02 06:21:11 | 49.60791 | 8.22534 | 202° | 20km/h | 28868m | 5.8m/s | 0°C | 0% | 0hPa | 2.6V | 18:12:15 | 01:50:11 | 00:00:00 | |
| BIOWL7-15 | 2026-09-02 06:21:10 | 49.60791 | 8.22534 | 203° | 20km/h | 28869m | 5.8m/s | -45.3°C | 0.4% | 14.9hPa | 2.7V | 03:26:00 | 00:00:00 | 00:00:00 | |
| DM0DOS-11 | 2026-09-02 06:21:09 | 49.60801 | 8.22540 | 193° | 11km/h | 28851m | 4.8m/s | -45.4°C | 2.6% | 14.9hPa | 2.7V | 03:26:03 | 01:50:08 | 00:00:00 | |
| DL1XH-west | 2026-09-02 06:21:09 | 49.60798 | 8.22539 | 201° | 11km/h | 28856m | 5.5m/s | -45.4°C | 0% | 15hPa | 2.7V | 03:26:32 | 01:50:09 | 00:00:00 | |
| HSKMA3-T | 2026-09-02 06:21:08 | 49.60801 | 8.22540 | 194° | 11km/h | 28851m | 4.8m/s | -45.4°C | 0% | 14.9hPa | 2.7V | 03:26:32 | 01:50:08 | 00:00:00 | |
| DO3MHA-11 | 2026-09-02 06:21:08 | 49.60801 | 8.22540 | 194° | 18km/h | 28851m | 4.7m/s | -45.3°C | 2.6% | 14.9hPa | 2.7V | 00:00:00 | 01:50:08 | 00:00:00 | |
| DL1XH1-15 | 2026-09-02 06:21:05 | 49.60818 | 8.22545 | 195° | 24km/h | 28830m | 4.8m/s | -45.7°C | 2.5% | 15hPa | 2.7V | 03:26:07 | 01:50:04 | 00:00:00 | |
| AA1-15 | 2026-09-02 06:21:02 | 49.60829 | 8.22552 | 211° | 22km/h | 28819m | 6.1m/s | -45.6°C | 0% | 15hPa | 2.7V | 03:26:32 | 01:50:02 | 00:00:00 | |
| AU51GT2 | 2026-09-02 06:21:00 | 49.60837 | 8.22561 | 221° | 16km/h | 28808m | 4.6m/s | -45.5°C | 0.4% | 15.1hPa | 2.7V | 00:00:00 | 00:00:00 | 00:00:00 | |
| DM0DOS-11 | 2026-09-02 06:20:59 | 49.60843 | 8.22567 | 197° | 15km/h | 28798m | 5.9m/s | -45.5°C | 2.6% | 15.1hPa | 2.7V | 03:26:13 | 01:49:58 | 00:00:00 | |
| DL1XH-west | 2026-09-02 06:20:58 | 49.60843 | 8.22567 | 197° | 15km/h | 28798m | 5.9m/s | -45.6°C | 0% | 15.1hPa | 2.7V | 03:26:32 | 01:49:58 | 00:00:00 | |
| DJ2DS-15 | 2026-09-02 06:20:57 | 49.60846 | 8.22568 | 179° | 13km/h | 28793m | 5.4m/s | -45.6°C | 0.4% | 15.1hPa | 2.6V | 00:00:00 | 00:00:00 | 00:00:00 | |
| DL1XH1-15 | 2026-09-02 06:20:55 | 49.60856 | 8.22564 | 163° | 11km/h | 28778m | 5.7m/s | -45.8°C | 2.6% | 15.1hPa | 2.6V | 03:26:17 | 01:49:54 | 00:00:00 | |
| AA1-15 | 2026-09-02 06:20:52 | 49.60861 | 8.22564 | 198° | 7km/h | 28767m | 4.8m/s | -45.7°C | 0% | 15.2hPa | 2.7V | 03:26:32 | 01:49:52 | 00:00:00 | |
| BIOWL1-15 | 2026-09-02 06:20:51 | 49.60863 | 8.22565 | 208° | 9km/h | 28763m | 4.2m/s | -45.7°C | 0% | 15.2hPa | 2.7V | 03:26:32 | 01:49:51 | 00:00:00 | |
| DL1ZP-14 | 2026-09-02 06:20:50 | 49.60865 | 8.22567 | 203° | 13km/h | 28759m | 4.5m/s | -45.7°C | 0.4% | 15.2hPa | 2.6V | 00:00:00 | 00:00:00 | 00:00:00 | |
| DM0DOS-11 | 2026-09-02 06:20:49 | 49.60875 | 8.22571 | 189° | 24km/h | 28748m | 5.7m/s | -45.6°C | 2.5% | 15.2hPa | 2.6V | 03:26:23 | 01:49:48 | 00:00:00 | |
| DL1XH-west | 2026-09-02 06:20:48 | 49.60875 | 8.22571 | 190° | 24km/h | 28748m | 5.7m/s | -45.6°C | 0% | 15.2hPa | 2.6V | 03:26:32 | 01:49:48 | 00:00:00 | |
| HSKMA3-T | 2026-09-02 06:20:47 | 49.60881 | 8.22573 | 186° | 29km/h | 28742m | 4.9m/s | -45.7°C | 0% | 15.2hPa | 2.7V | 03:26:32 | 01:49:47 | 00:00:00 | |
| DM3KS-11 | 2026-09-02 06:20:46 | 49.60888 | 8.22573 | 183° | 27km/h | 28738m | 4.3m/s | -45.7°C | 0.4% | 15.2hPa | 2.6V | 00:00:00 | 00:00:00 | 00:00:00 | |
| DL1XH1-15 | 2026-09-02 06:20:45 | 49.60901 | 8.22575 | 182° | 20km/h | 28728m | 5.2m/s | -45.6°C | 2.6% | 15.2hPa | 2.6V | 03:26:27 | 01:49:44 | 00:00:00 | |
| DK5PH-5 | 2026-09-02 06:20:45 | 49.60895 | 8.22574 | 185° | 20km/h | 28733m | 4.7m/s | -45.7°C | 2.6% | 15.2hPa | 2.7V | 03:26:00 | 01:49:45 | 00:00:00 | |
| DM0DOS-11 | 2026-09-02 06:20:43 | 49.60916 | 8.22550 | 110° | 22km/h | 28697m | 4.3m/s | -45.5°C | 2.5% | 15.3hPa | 2.7V | 03:26:33 | 01:49:38 | 00:00:00 | |
| BIOWL1-15 | 2026-09-02 06:20:43 | 49.60910 | 8.22570 | 125° | 13km/h | 28713m | 5.5m/s | -45.5°C | 0% | 15.3hPa | 2.6V | 03:26:32 | 01:49:41 | 00:00:00 | |
| AA1-15 | 2026-09-02 06:20:42 | 49.60908 | 8.22573 | 149° | 11km/h | 28718m | 4.6m/s | -45.5°C | 0% | 15.3hPa | 2.7V | 03:26:32 | 01:49:42 | 00:00:00 | |
| DL1XH-west | 2026-09-02 06:20:37 | 49.60918 | 8.22543 | 115° | 20km/h | 28692m | 4.4m/s | -45.6°C | 0% | 15.3hPa | 2.7V | 03:27:23 | 01:49:37 | 00:00:00 | |
| DL1XH1-15 | 2026-09-02 06:20:35 | 49.60925 | 8.22530 | 161° | 15km/h | 28676m | 5m/s | -45.4°C | 2.5% | 15.3hPa | 2.6V | 03:26:37 | 01:49:34 | 00:00:00 | |
| DD1CC8 | 2026-09-02 06:20:35 | 49.60925 | 8.22530 | 161° | 13km/h | 28676m | 5.0m/s | -45.4°C | 0.4% | 15.4hPa | 2.7V | 00:00:00 | 00:00:00 | 00:00:00 | |
| DL3AQ-11 | 2026-09-02 06:20:34 | 49.60925 | 8.22530 | 161° | 13km/h | 28676m | 5.0m/s | -45.4°C | 0.4% | 15.4hPa | 2.7V | 00:00:00 | 00:00:00 | 00:00:00 | |
| DM0DOS-11 | 2026-09-02 06:20:33 | 49.60957 | 8.22507 | 133° | 24km/h | 28645m | 5.3m/s | -45.7°C | 2.5% | 15.4hPa | 2.7V | 03:26:43 | 01:49:28 | 00:00:00 | |
| BIOWL1-15 | 2026-09-02 06:20:31 | 49.60940 | 8.22524 | 159° | 27km/h | 28660m | 5.7m/s | -45.7°C | 0% | 15.4hPa | 2.7V | 03:27:23 | 01:49:31 | 00:00:00 | |
| DL1XH-west | 2026-09-02 06:20:26 | 49.60963 | 8.22492 | 102° | 20km/h | 28634m | 5.4m/s | -45.7°C | 0% | 15.4hPa | 2.6V | 03:27:23 | 01:49:26 | 00:00:00 | |
| DJ2DS-15 | 2026-09-02 06:20:26 | 49.60963 | 8.22492 | 102° | 20km/h | 28634m | 5.4m/s | -45.7°C | 2.5% | 15.4hPa | 2.6V | 00:00:00 | 01:49:26 | 00:00:00 | |
| DF1GD-15 | 2026-09-02 06:20:24 | 49.60963 | 8.22484 | 91° | 22km/h | 28629m | 5.0m/s | -45.8°C | 0.4% | 15.5hPa | 2.6V | 03:27:00 | 00:00:00 | 00:00:00 | |
| DM0DOS-11 | 2026-09-02 06:20:23 | 49.60970 | 8.22428 | 151° | 15km/h | 28592m | 4.8m/s | -46°C | 2.7% | 15.6hPa | 2.6V | 03:26:53 | 01:49:18 | 00:00:00 | |
| AA1-15 | 2026-09-02 06:20:20 | 49.60965 | 8.22438 | 111° | 20km/h | 28603m | 5.7m/s | -45.9°C | 0% | 15.5hPa | 2.6V | 03:27:23 | 01:49:20 | 00:00:00 | |
| DL1XH-west | 2026-09-02 06:20:16 | 49.60978 | 8.22423 | 160° | 22km/h | 28583m | 5.4m/s | -46°C | 0% | 15.6hPa | 2.7V | 03:27:23 | 01:49:16 | 00:00:00 | |
| HSKMA3-T | 2026-09-02 06:20:14 | 49.60989 | 8.22415 | 144° | 24km/h | 28573m | 4.3m/s | -45.9°C | 0% | 15.6hPa | 2.6V | 03:27:23 | 01:49:14 | 00:00:00 | |
| BIOWL1-15 | 2026-09-02 06:20:09 | 49.60995 | 8.22385 | 54° | 18km/h | 28547m | 4.5m/s | -45.8°C | 0% | 15.7hPa | 2.6V | 03:27:23 | 01:49:09 | 00:00:00 | |
| SONCRA | 2026-09-02 06:20:09 | 49.60992 | 8.22379 | 52° | 20km/h | 28543m | 4.7m/s | -45.9°C | 0.4% | 15.7hPa | 2.6V | 00:00:00 | 00:00:00 | 00:00:00 | |
| DF2AP-13 | 2026-09-02 06:20:08 | 49.60992 | 8.22379 | 53° | 13km/h | 28543m | 4.7m/s | -45.8°C | 2.6% | 15.6hPa | 2.6V | 00:00:00 | 01:49:08 | 00:00:00 | |
| BIOWL9-15 | 2026-09-02 06:20:07 | 49.60989 | 8.22372 | 59° | 20km/h | 28538m | 5.4m/s | -45.9°C | 0.4% | 15.7hPa | 2.6V | 00:00:00 | 00:00:00 | 00:00:00 | |
| DL1XH1-15 | 2026-09-02 06:20:05 | 49.60986 | 8.22352 | 101° | 15km/h | 28524m | 4m/s | -45.8°C | 2.6% | 15.7hPa | 2.6V | 03:27:07 | 01:49:04 | 00:00:00 | |
| DL1XH-west | 2026-09-02 06:20:05 | 49.60986 | 8.22358 | 84° | 18km/h | 28528m | 4m/s | -45.9°C | 0% | 15.7hPa | 2.7V | 03:27:23 | 01:49:05 | 00:00:00 | |
| HSKMA3-T | 2026-09-02 06:20:04 | 49.60986 | 8.22352 | 102° | 15km/h | 28524m | 4m/s | -45.8°C | 0% | 15.7hPa | 2.6V | 03:27:23 | 01:49:04 | 00:00:00 | |
| DD1CC8 | 2026-09-02 06:20:04 | 49.60987 | 8.22347 | 122° | 9km/h | 28520m | 5.3m/s | -45.9°C | 0.4% | 15.7hPa | 2.6V | 00:00:00 | 00:00:00 | 00:00:00 | |
| DM0DOS-11 | 2026-09-02 06:20:03 | 49.61000 | 8.22345 | 163° | 15km/h | 28493m | 5.6m/s | -45.9°C | 2.6% | 15.8hPa | 2.6V | 03:27:13 | 01:48:58 | 00:00:00 | |
| BIOWL1-15 | 2026-09-02 06:19:59 | 49.60997 | 8.22346 | 181° | 13km/h | 28498m | 4.5m/s | -45.9°C | 0% | 15.8hPa | 2.6V | 03:27:23 | 01:48:59 | 00:00:00 | |
| AA1-15 | 2026-09-02 06:19:58 | 49.61001 | 8.22345 | 163° | 15km/h | 28493m | 5.6m/s | -45.9°C | 0% | 15.8hPa | 2.6V | 03:27:23 | 01:48:58 | 00:00:00 | |
| AU51GT2 | 2026-09-02 06:19:58 | 49.61004 | 8.22343 | 141° | 13km/h | 28488m | 4.8m/s | -46.0°C | 0.4% | 15.8hPa | 2.6V | 00:00:00 | 00:00:00 | 00:00:00 | |
| DB0UT-9 | 2026-09-02 06:19:56 | 49.61004 | 8.22343 | 143° | 15km/h | 28488m | 4.8m/s | -46.0°C | 0.4% | 15.8hPa | 2.6V | 03:27:00 | 00:00:00 | 00:00:00 | |
| DL1XH1-15 | 2026-09-02 06:19:55 | 49.61007 | 8.22329 | 76° | 11km/h | 28474m | 6.1m/s | -46°C | 2.6% | 15.8hPa | 2.6V | 03:27:17 | 01:48:54 | 00:00:00 | |
| DL1XH-west | 2026-09-02 06:19:55 | 49.61007 | 8.22334 | 98° | 13km/h | 28479m | 4.5m/s | -46°C | 0% | 15.8hPa | 2.7V | 03:27:23 | 01:48:55 | 00:00:00 | |
| DL3AQ-11 | 2026-09-02 06:19:55 | 49.61007 | 8.22329 | 76° | 11km/h | 28474m | 6.1m/s | -46.0°C | 0.4% | 15.8hPa | 2.6V | 00:00:00 | 00:00:00 | 00:00:00 | |
| DM0DOS-11 | 2026-09-02 06:19:53 | 49.61001 | 8.22309 | 130° | 9km/h | 28443m | 4.5m/s | -46°C | 2.6% | 15.9hPa | 2.6V | 03:27:23 | 01:48:48 | 00:00:00 | |
| HSKMA3-T | 2026-09-02 06:19:53 | 49.61006 | 8.22325 | 54° | 11km/h | 28468m | 5.6m/s | -46°C | 0% | 15.8hPa | 2.6V | 03:27:23 | 01:48:53 | 00:00:00 | |
| BIOWL1-15 | 2026-09-02 06:19:48 | 49.61001 | 8.22309 | 131° | 9km/h | 28443m | 4.5m/s | -46°C | 0% | 15.9hPa | 2.6V | 03:27:23 | 01:48:48 | 00:00:00 | |
| AA1-15 | 2026-09-02 06:19:47 | 49.61003 | 8.22307 | 154° | 9km/h | 28438m | 4.9m/s | -46°C | 0% | 15.9hPa | 2.6V | 03:28:14 | 01:48:47 | 00:00:00 | |
| DL9PN | 2026-09-02 06:19:47 | 49.61003 | 8.22307 | 154° | 7km/h | 28438m | 4.9m/s | -46.0°C | 0.4% | 15.9hPa | 2.7V | 00:00:00 | 00:00:00 | 00:00:00 | |
| DL1XH1-15 | 2026-09-02 06:19:45 | 49.61009 | 8.22307 | 199° | 5km/h | 28422m | 4.2m/s | -46°C | 2.7% | 16hPa | 2.7V | 03:27:27 | 01:48:44 | 00:00:00 | |
| DL1XH-west | 2026-09-02 06:19:45 | 49.61007 | 8.22306 | 196° | 7km/h | 28427m | 5.5m/s | -46°C | 0% | 16hPa | 2.7V | 03:28:14 | 01:48:45 | 00:00:00 | |
| HSKMA3-T | 2026-09-02 06:19:42 | 49.61011 | 8.22306 | 119° | 7km/h | 28413m | 5.4m/s | -46°C | 0% | 16hPa | 2.6V | 03:28:14 | 01:48:42 | 00:00:00 | |
| HEMX73-11 | 2026-09-02 06:19:41 | 49.61011 | 8.22306 | 120° | 7km/h | 28414m | 5.4m/s | -46.0°C | 0.4% | 16.0hPa | 2.6V | 03:28:00 | 00:00:00 | 00:00:00 | |
| DM0DOS-11 | 2026-09-02 06:19:38 | 49.61010 | 8.22287 | 68° | 13km/h | 28393m | 5.2m/s | -45.9°C | 2.6% | 16hPa | 2.6V | 03:27:33 | 01:48:38 | 00:00:00 | |
| DL1XH-15 | 2026-09-02 06:19:38 | 49.61009 | 8.22283 | 50° | 9km/h | 28388m | 5.8m/s | -46°C | 2.6% | 16.1hPa | 2.6V | 03:27:34 | 01:48:37 | 00:00:00 | |
| AA1-15 | 2026-09-02 06:19:37 | 49.61009 | 8.22283 | 50° | 9km/h | 28388m | 5.8m/s | -46°C | 0% | 16.1hPa | 2.6V | 03:28:14 | 01:48:37 | 00:00:00 | |
| DL1XH1-15 | 2026-09-02 06:19:35 | 49.61006 | 8.22279 | 85° | 2km/h | 28373m | 5.6m/s | -45.9°C | 2.6% | 16.1hPa | 2.6V | 03:27:37 | 01:48:34 | 00:00:00 | |
| DL1XH-west | 2026-09-02 06:19:35 | 49.61006 | 8.22280 | 20° | 4km/h | 28378m | 4.4m/s | -45.9°C | 0% | 16.1hPa | 2.7V | 03:28:14 | 01:48:35 | 00:00:00 | |
| DO3MHA-11 | 2026-09-02 06:19:34 | 49.61006 | 8.22279 | 86° | 7km/h | 28373m | 5.5m/s | -45.9°C | 2.6% | 16.0hPa | 2.6V | 03:27:00 | 01:48:34 | 00:00:00 | |
| DM0DOS-11 | 2026-09-02 06:19:33 | 49.61014 | 8.22275 | 169° | 5km/h | 28341m | 4.3m/s | -45.8°C | 2.6% | 16.2hPa | 2.6V | 03:27:43 | 01:48:28 | 00:00:00 | |
| HSKMA3-T | 2026-09-02 06:19:31 | 49.61009 | 8.22276 | 161° | 7km/h | 28357m | 4.8m/s | -45.9°C | 0% | 16.1hPa | 2.7V | 03:28:14 | 01:48:31 | 00:00:00 | |
| DL6DJ-15 | 2026-09-02 06:19:30 | 49.61011 | 8.22275 | 170° | 7km/h | 28352m | 5.8m/s | -45.9°C | 0.4% | 16.1hPa | 2.6V | 00:00:00 | 00:00:00 | 00:00:00 | |
| CB1BUN | 2026-09-02 06:19:29 | 49.61011 | 8.22275 | 171° | 7km/h | 28352m | 5.8m/s | -45.9°C | 0.4% | 16.1hPa | 2.6V | 03:28:00 | 00:00:00 | 00:00:00 | |
| DL1XH-15 | 2026-09-02 06:19:28 | 49.61016 | 8.22274 | 148° | 7km/h | 28337m | 4.3m/s | -45.8°C | 2.6% | 16.2hPa | 2.6V | 03:27:44 | 01:48:27 | 00:00:00 | |
| AA1-15 | 2026-09-02 06:19:26 | 49.61017 | 8.22272 | 131° | 9km/h | 28332m | 5.8m/s | -45.9°C | 0% | 16.2hPa | 2.6V | 03:28:14 | 01:48:26 | 00:00:00 | |
| DL1XH1-15 | 2026-09-02 06:19:25 | 49.61020 | 8.22264 | 116° | 13km/h | 28321m | 4.1m/s | -45.8°C | 2.5% | 16.2hPa | 2.7V | 03:27:47 | 01:48:24 | 00:00:00 | |
| DL1XH-west | 2026-09-02 06:19:24 | 49.61020 | 8.22264 | 117° | 13km/h | 28321m | 4.1m/s | -45.8°C | 0% | 16.2hPa | 2.7V | 03:28:14 | 01:48:24 | 00:00:00 | |
| HSKMA3-T | 2026-09-02 06:19:21 | 49.61022 | 8.22257 | 289° | 0km/h | 28307m | 5.8m/s | -45.9°C | 0% | 16.2hPa | 2.6V | 03:28:14 | 01:48:21 | 00:00:00 | |
| EDDB2-12 | 2026-09-02 06:19:20 | 49.61022 | 8.22260 | 277° | 4km/h | 28297m | 4.3m/s | -45.9°C | 0.4% | 16.3hPa | 2.6V | 00:00:00 | 00:00:00 | 00:00:00 | |
| DL1XH-15 | 2026-09-02 06:19:19 | 49.61025 | 8.22260 | 158° | 7km/h | 28277m | 4.6m/s | -45.9°C | 2.6% | 16.3hPa | 2.6V | 03:27:56 | 01:48:15 | 00:00:00 | |
| BIOWL1-15 | 2026-09-02 06:19:16 | 49.61023 | 8.22262 | 156° | 5km/h | 28282m | 4.7m/s | -45.9°C | 0% | 16.3hPa | 2.6V | 03:28:14 | 01:48:16 | 00:00:00 | |
| AA1-15 | 2026-09-02 06:19:15 | 49.61025 | 8.22261 | 159° | 7km/h | 28277m | 4.6m/s | -45.9°C | 0% | 16.3hPa | 2.6V | 03:28:14 | 01:48:15 | 00:00:00 | |
| DL1XH-west | 2026-09-02 06:19:14 | 49.61027 | 8.22260 | 170° | 9km/h | 28272m | 6m/s | -45.9°C | 0% | 16.3hPa | 2.7V | 03:28:14 | 01:48:14 | 00:00:00 | |
| HSKMA3-T | 2026-09-02 06:19:10 | 49.61038 | 8.22256 | 148° | 13km/h | 28252m | 5.9m/s | -45.9°C | 0% | 16.4hPa | 2.7V | 03:28:14 | 01:48:10 | 00:00:00 | |
| BIOWL1-15 | 2026-09-02 06:19:05 | 49.61049 | 8.22248 | 237° | 9km/h | 28226m | 5.8m/s | -45.8°C | 0% | 16.4hPa | 2.7V | 03:28:14 | 01:48:05 | 00:00:00 | |
| AA1-15 | 2026-09-02 06:19:04 | 49.61050 | 8.22251 | 258° | 11km/h | 28221m | 4.8m/s | -45.9°C | 0% | 16.5hPa | 2.7V | 03:28:14 | 01:48:04 | 00:00:00 | |
| DL1XH-west | 2026-09-02 06:19:03 | 49.61050 | 8.22256 | 264° | 11km/h | 28217m | 4.3m/s | -45.8°C | 0% | 16.5hPa | 2.7V | 03:28:14 | 01:48:03 | 00:00:00 | |
| NBG1-10 | 2026-09-02 06:19:03 | 49.61050 | 8.22256 | 265° | 9km/h | 28217m | 4.3m/s | -45.8°C | 2.6% | 16.4hPa | 2.6V | 00:00:00 | 01:48:03 | 00:00:00 | |
| SONDE2-11 | 2026-09-02 06:19:02 | 49.61051 | 8.22262 | 245° | 4km/h | 28207m | 5.5m/s | -45.8°C | 0.4% | 16.5hPa | 2.6V | 00:00:00 | 00:00:00 | 00:00:00 | |
| DD1CC8 | 2026-09-02 06:19:01 | 49.61051 | 8.22262 | 245° | 4km/h | 28207m | 5.5m/s | -45.8°C | 0.4% | 16.5hPa | 2.6V | 00:00:00 | 00:00:00 | 00:00:00 | |
| DD1CC2-15 | 2026-09-02 06:19:00 | 49.61051 | 8.22262 | 246° | 5km/h | 28207m | 5.5m/s | -45.8°C | 0.5% | 16.5hPa | 2.6V | 03:28:00 | 00:00:00 | 00:00:00 | |
| DL1XH-15 | 2026-09-02 06:18:59 | 49.61061 | 8.22259 | 187° | 11km/h | 28176m | 4.6m/s | -45.8°C | 2.5% | 16.6hPa | 2.6V | 03:28:16 | 01:47:55 | 00:00:00 | |
| HSKMA3-T | 2026-09-02 06:18:59 | 49.61053 | 8.22262 | 145° | 7km/h | 28197m | 4.3m/s | -45.8°C | 0% | 16.5hPa | 2.7V | 03:28:14 | 01:47:59 | 00:00:00 | |
| BIOWL1-15 | 2026-09-02 06:18:57 | 49.61061 | 8.22259 | 187° | 11km/h | 28176m | 4.6m/s | -45.8°C | 0% | 16.6hPa | 2.6V | 03:29:05 | 01:47:55 | 00:00:00 | |
| AU51GT2 | 2026-09-02 06:18:56 | 49.61061 | 8.22259 | 187° | 9km/h | 28177m | 4.6m/s | -45.8°C | 0.4% | 16.6hPa | 2.7V | 00:00:00 | 00:00:00 | 00:00:00 | |
| DL1XH1-15 | 2026-09-02 06:18:55 | 49.61064 | 8.22259 | 181° | 11km/h | 28172m | 4.3m/s | -45.9°C | 2.6% | 16.6hPa | 2.7V | 03:28:17 | 01:47:54 | 00:00:00 | |
| DO3MHA-11 | 2026-09-02 06:18:54 | 49.61064 | 8.22259 | 182° | 7km/h | 28172m | 4.3m/s | -45.8°C | 2.6% | 16.6hPa | 2.7V | 03:28:00 | 01:47:54 | 00:00:00 | |
| DM0DOS-11 | 2026-09-02 06:18:53 | 49.61074 | 8.22255 | 268° | 4km/h | 28140m | 5.8m/s | -45.9°C | 2.6% | 16.7hPa | 2.7V | 03:28:23 | 01:47:48 | 00:00:00 | |
| AA1-15 | 2026-09-02 06:18:53 | 49.61066 | 8.22259 | 170° | 11km/h | 28167m | 5.3m/s | -45.9°C | 0% | 16.6hPa | 2.7V | 03:29:05 | 01:47:53 | 00:00:00 | |
| DL1XH-west | 2026-09-02 06:18:52 | 49.61069 | 8.22258 | 156° | 11km/h | 28161m | 6m/s | -45.9°C | 0% | 16.6hPa | 2.7V | 03:29:05 | 01:47:52 | 00:00:00 | |
| HSKMA3-T | 2026-09-02 06:18:49 | 49.61073 | 8.22254 | 188° | 2km/h | 28146m | 5.6m/s | -45.9°C | 0% | 16.6hPa | 2.6V | 03:29:05 | 01:47:49 | 00:00:00 | |
| BIOWL1-15 | 2026-09-02 06:18:47 | 49.61073 | 8.22261 | 244° | 4km/h | 28126m | 5.5m/s | -45.9°C | 0% | 16.7hPa | 2.6V | 03:29:05 | 01:47:45 | 00:00:00 | |
| DL1ZP-14 | 2026-09-02 06:18:46 | 49.61073 | 8.22261 | 243° | 2km/h | 28126m | 5.5m/s | -45.9°C | 0.4% | 16.7hPa | 2.6V | 00:00:00 | 00:00:00 | 00:00:00 | |
| DL1XH1-15 | 2026-09-02 06:18:45 | 49.61074 | 8.22262 | 159° | 5km/h | 28120m | 5.7m/s | -45.9°C | 2.6% | 16.7hPa | 2.6V | 03:28:27 | 01:47:44 | 00:00:00 | |
| AA1-15 | 2026-09-02 06:18:43 | 49.61076 | 8.22260 | 147° | 9km/h | 28115m | 5.1m/s | -45.9°C | 0% | 16.7hPa | 2.7V | 03:29:05 | 01:47:43 | 00:00:00 | |
| DF1GD-15 | 2026-09-02 06:18:43 | 49.61075 | 8.22260 | 148° | 9km/h | 28115m | 5.1m/s | -45.9°C | 0.5% | 16.7hPa | 2.6V | 03:29:00 | 00:00:00 | 00:00:00 | |
| DM3KS-11 | 2026-09-02 06:18:42 | 49.61081 | 8.22256 | 163° | 13km/h | 28105m | 5.4m/s | -46.1°C | 0.5% | 16.7hPa | 2.6V | 00:00:00 | 00:00:00 | 00:00:00 | |
| DM0DOS-11 | 2026-09-02 06:18:41 | 49.61092 | 8.22255 | 182° | 15km/h | 28089m | 4.4m/s | -46°C | 2.5% | 16.8hPa | 2.6V | 03:28:33 | 01:47:38 | 00:00:00 | |
| DL1XH-west | 2026-09-02 06:18:41 | 49.61081 | 8.22256 | 163° | 15km/h | 28105m | 5.4m/s | -46.1°C | 0% | 16.7hPa | 2.7V | 03:29:05 | 01:47:41 | 00:00:00 | |
| HSKMA3-T | 2026-09-02 06:18:38 | 49.61092 | 8.22255 | 183° | 15km/h | 28089m | 4.4m/s | -46°C | 0% | 16.8hPa | 2.6V | 03:29:05 | 01:47:38 | 00:00:00 | |
| BIOWL1-15 | 2026-09-02 06:18:36 | 49.61102 | 8.22250 | 137° | 7km/h | 28069m | 4.2m/s | -46.2°C | 0% | 16.8hPa | 2.6V | 03:29:05 | 01:47:34 | 00:00:00 | |
| DL1XH1-15 | 2026-09-02 06:18:35 | 49.61102 | 8.22250 | 136° | 7km/h | 28069m | 4.2m/s | -46.2°C | 2.6% | 16.8hPa | 2.6V | 03:28:37 | 01:47:34 | 00:00:00 | |
| BIOWL9-15 | 2026-09-02 06:18:34 | 49.61103 | 8.22249 | 145° | 4km/h | 28065m | 5.5m/s | -46.3°C | 0.4% | 16.9hPa | 2.6V | 00:00:00 | 00:00:00 | 00:00:00 | |
| DL4BBY-15 | 2026-09-02 06:18:33 | 49.61103 | 8.22249 | 146° | 9km/h | 28065m | 5.5m/s | -47.5°C | 0% | 0hPa | 2.6V | 00:00:00 | 00:00:00 | 00:00:00 | |
| DM0DOS-11 | 2026-09-02 06:18:32 | 49.61109 | 8.22240 | 111° | 16km/h | 28033m | 5.7m/s | -46.2°C | 2.6% | 16.9hPa | 2.6V | 03:28:44 | 01:47:27 | 00:00:00 | |
| AA1-15 | 2026-09-02 06:18:32 | 49.61104 | 8.22248 | 179° | 4km/h | 28059m | 5.7m/s | -46.3°C | 0% | 16.9hPa | 2.7V | 03:29:05 | 01:47:32 | 00:00:00 | |
| DL1XH-west | 2026-09-02 06:18:30 | 49.61106 | 8.22248 | 165° | 4km/h | 28049m | 4.2m/s | -46.2°C | 0% | 16.9hPa | 2.7V | 03:29:05 | 01:47:30 | 00:00:00 | |
| HSKMA3-T | 2026-09-02 06:18:27 | 49.61109 | 8.22240 | 111° | 16km/h | 28033m | 5.7m/s | -46.2°C | 0% | 16.9hPa | 2.6V | 03:29:05 | 01:47:27 | 00:00:00 | |
| DJ2DS-15 | 2026-09-02 06:18:26 | 49.61111 | 8.22233 | 110° | 9km/h | 28028m | 4.8m/s | -46.2°C | 2.6% | 16.9hPa | 2.7V | 00:00:00 | 01:47:26 | 00:00:00 | |
| DL1XH-15 | 2026-09-02 06:18:25 | 49.61121 | 8.22218 | 205° | 7km/h | 27997m | 5m/s | -46.3°C | 2.6% | 17hPa | 2.7V | 03:28:51 | 01:47:20 | 00:00:00 | |
| BIOWL1-15 | 2026-09-02 06:18:24 | 49.61114 | 8.22221 | 119° | 15km/h | 28018m | 5.7m/s | -46.4°C | 0% | 17hPa | 2.6V | 03:29:05 | 01:47:24 | 00:00:00 | |
| DL3AQ-11 | 2026-09-02 06:18:24 | 49.61116 | 8.22218 | 141° | 9km/h | 28012m | 5.8m/s | -46.4°C | 0.4% | 17.0hPa | 2.6V | 00:00:00 | 00:00:00 | 00:00:00 | |
| DF7PN | 2026-09-02 06:18:23 | 49.61116 | 8.22218 | 141° | 9km/h | 28012m | 5.8m/s | -46.4°C | 0.4% | 17.0hPa | 2.6V | 00:00:00 | 00:00:00 | 00:00:00 | |
| DM0DOS-11 | 2026-09-02 06:18:21 | 49.61124 | 8.22219 | 111° | 2km/h | 27981m | 4.7m/s | -46.4°C | 2.6% | 17.1hPa | 2.6V | 03:28:54 | 01:47:17 | 00:00:00 | |
| AA1-15 | 2026-09-02 06:18:21 | 49.61120 | 8.22217 | 201° | 7km/h | 28002m | 4.6m/s | -46.3°C | 0% | 17hPa | 2.7V | 03:29:05 | 01:47:21 | 00:00:00 | |
| DL1XH-west | 2026-09-02 06:18:20 | 49.61121 | 8.22218 | 205° | 7km/h | 27997m | 5m/s | -46.3°C | 0% | 17hPa | 2.7V | 03:29:05 | 01:47:20 | 00:00:00 | |
| HSKMA3-T | 2026-09-02 06:18:17 | 49.61124 | 8.22219 | 111° | 2km/h | 27981m | 4.7m/s | -46.4°C | 0% | 17.1hPa | 2.6V | 03:29:05 | 01:47:17 | 00:00:00 | |
| BIOWL1-15 | 2026-09-02 06:18:13 | 49.61124 | 8.22218 | 123° | 2km/h | 27960m | 4.7m/s | -46.6°C | 0% | 17.1hPa | 2.6V | 03:29:05 | 01:47:13 | 00:00:00 | |
| AA1-15 | 2026-09-02 06:18:11 | 49.61126 | 8.22213 | 119° | 11km/h | 27949m | 6.2m/s | -46.6°C | 0% | 17.2hPa | 2.7V | 03:29:05 | 01:47:11 | 00:00:00 | |
| DM3KS-11 | 2026-09-02 06:18:11 | 49.61128 | 8.22209 | 124° | 15km/h | 27943m | 5.2m/s | -46.6°C | 0.4% | 17.2hPa | 2.7V | 00:00:00 | 00:00:00 | 00:00:00 | |
| DL1XH-15 | 2026-09-02 06:18:09 | 49.61143 | 8.22203 | 220° | 13km/h | 27917m | 4.7m/s | -46.9°C | 2.8% | 17.2hPa | 2.7V | 03:29:06 | 01:47:05 | 00:00:00 | |
| DL1XH-west | 2026-09-02 06:18:09 | 49.61130 | 8.22204 | 136° | 16km/h | 27939m | 4.6m/s | -46.6°C | 0% | 17.2hPa | 2.6V | 03:29:05 | 01:47:09 | 00:00:00 | |
| HSKMA3-T | 2026-09-02 06:18:06 | 49.61141 | 8.22200 | 202° | 15km/h | 27922m | 5.1m/s | -46.9°C | 0% | 17.2hPa | 2.7V | 03:29:05 | 01:47:06 | 00:00:00 | |
| AA1-15 | 2026-09-02 06:18:00 | 49.61141 | 8.22208 | 28° | 11km/h | 27890m | 5m/s | -47°C | 0% | 17.3hPa | 2.7V | 03:29:56 | 01:47:00 | 00:00:00 | |
| SONDE2-11 | 2026-09-02 06:18:00 | 49.61139 | 8.22206 | 27° | 9km/h | 27885m | 5.6m/s | -47.1°C | 0.4% | 17.3hPa | 2.7V | 00:00:00 | 00:00:00 | 00:00:00 | |
| DL1XH-15 | 2026-09-02 06:17:59 | 49.61137 | 8.22202 | 145° | 5km/h | 27863m | 6.1m/s | -47.1°C | 2.7% | 17.4hPa | 2.7V | 03:29:16 | 01:46:55 | 00:00:00 | |
| DL1XH-west | 2026-09-02 06:17:59 | 49.61139 | 8.22206 | 27° | 11km/h | 27884m | 5.6m/s | -47.1°C | 0% | 17.3hPa | 2.7V | 03:29:56 | 01:46:59 | 00:00:00 | |
| HSKMA3-T | 2026-09-02 06:17:56 | 49.61136 | 8.22203 | 142° | 4km/h | 27869m | 4.8m/s | -47.1°C | 0% | 17.4hPa | 2.6V | 03:29:56 | 01:46:56 | 00:00:00 | |
| DL1XH1-15 | 2026-09-02 06:17:55 | 49.61139 | 8.22200 | 145° | 9km/h | 27857m | 6m/s | -47.2°C | 2.7% | 17.4hPa | 2.7V | 03:29:17 | 01:46:54 | 00:00:00 | |
| BIOWL1-15 | 2026-09-02 06:17:52 | 49.61143 | 8.22196 | 165° | 11km/h | 27847m | 4.8m/s | -47.3°C | 0% | 17.4hPa | 2.6V | 03:29:56 | 01:46:52 | 00:00:00 | |
| AA1-15 | 2026-09-02 06:17:49 | 49.61152 | 8.22200 | 221° | 15km/h | 27829m | 5.4m/s | -47.5°C | 0% | 17.4hPa | 2.7V | 03:29:56 | 01:46:49 | 00:00:00 | |
| DL1XH-west | 2026-09-02 06:17:48 | 49.61154 | 8.22204 | 222° | 13km/h | 27825m | 4.6m/s | -47.5°C | 0% | 17.5hPa | 2.7V | 03:29:56 | 01:46:48 | 00:00:00 | |
| HSKMA3-T | 2026-09-02 06:17:46 | 49.61158 | 8.22207 | 168° | 5km/h | 27814m | 6.5m/s | -47.4°C | 0% | 17.5hPa | 2.6V | 03:29:56 | 01:46:46 | 00:00:00 | |
| DL1XH1-15 | 2026-09-02 06:17:45 | 49.61160 | 8.22202 | 115° | 11km/h | 27802m | 4.8m/s | -47.4°C | 2.8% | 17.5hPa | 2.7V | 03:29:27 | 01:46:44 | 00:00:00 | |
| BIOWL1-15 | 2026-09-02 06:17:44 | 49.61162 | 8.22196 | 136° | 9km/h | 27792m | 5.9m/s | -47.4°C | 0% | 17.6hPa | 2.7V | 03:29:56 | 01:46:42 | 00:00:00 | |
| DL1XH-west | 2026-09-02 06:17:38 | 49.61173 | 8.22194 | 183° | 15km/h | 27770m | 5.6m/s | -47.5°C | 0% | 17.6hPa | 2.7V | 03:29:56 | 01:46:38 | 00:00:00 | |
| DM7RM-13 | 2026-09-02 06:17:37 | 49.61177 | 8.22194 | 179° | 15km/h | 27765m | 5.6m/s | -47.5°C | 0.5% | 17.6hPa | 2.7V | 00:00:00 | 00:00:00 | 00:00:00 | |
| DL1XH-15 | 2026-09-02 06:17:36 | 49.61190 | 8.22205 | 284° | 9km/h | 27733m | 5.1m/s | -47.7°C | 2.9% | 17.7hPa | 2.7V | 03:29:40 | 01:46:31 | 00:00:00 | |
| HSKMA3-T | 2026-09-02 06:17:36 | 49.61180 | 8.22194 | 177° | 15km/h | 27760m | 4.6m/s | -47.5°C | 0% | 17.6hPa | 2.6V | 03:29:56 | 01:46:36 | 00:00:00 | |
| DL1XH1-15 | 2026-09-02 06:17:35 | 49.61187 | 8.22195 | 203° | 11km/h | 27750m | 5.6m/s | -47.8°C | 2.8% | 17.7hPa | 2.6V | 03:29:37 | 01:46:34 | 00:00:00 | |
| DO3MHA-11 | 2026-09-02 06:17:34 | 49.61187 | 8.22195 | 204° | 9km/h | 27751m | 5.6m/s | -47.7°C | 2.8% | 17.6hPa | 2.7V | 03:29:00 | 01:46:34 | 00:00:00 | |
| DL4BBY-15 | 2026-09-02 06:17:33 | 49.61189 | 8.22198 | 228° | 7km/h | 27744m | 6.5m/s | -49.0°C | 0% | 0hPa | 2.7V | 00:00:00 | 00:00:00 | 00:00:00 | |
| DM0DOS-11 | 2026-09-02 06:17:32 | 49.61182 | 8.22207 | 24° | 11km/h | 27710m | 4.9m/s | -48°C | 2.9% | 17.8hPa | 2.7V | 03:29:44 | 01:46:27 | 00:00:00 | |
| BIOWL1-15 | 2026-09-02 06:17:32 | 49.61190 | 8.22201 | 256° | 11km/h | 27738m | 5.5m/s | -47.6°C | 0% | 17.7hPa | 2.7V | 03:29:56 | 01:46:32 | 00:00:00 | |
| DL1XH-west | 2026-09-02 06:17:28 | 49.61185 | 8.22209 | 18° | 11km/h | 27715m | 5.5m/s | -47.9°C | 0% | 17.8hPa | 2.6V | 03:29:56 | 01:46:28 | 00:00:00 | |
| AA1-15 | 2026-09-02 06:17:27 | 49.61182 | 8.22207 | 24° | 11km/h | 27710m | 4.9m/s | -48°C | 0% | 17.8hPa | 2.7V | 03:29:56 | 01:46:27 | 00:00:00 | |
| AZAK | 2026-09-02 06:17:27 | 49.61182 | 8.22207 | 25° | 11km/h | 27710m | 4.9m/s | -48.0°C | 0% | 0hPa | 2.6V | 00:00:00 | 00:00:00 | 00:00:00 | |
| DH7VM-15 | 2026-09-02 06:17:26 | 49.61182 | 8.22207 | 25° | 11km/h | 27710m | 4.9m/s | -48.0°C | 0.5% | 17.8hPa | 2.6V | 00:00:00 | 00:00:00 | 00:00:00 | |
| DL1XH1-15 | 2026-09-02 06:17:25 | 49.61178 | 8.22206 | 305° | 4km/h | 27693m | 5.1m/s | -47.9°C | 2.8% | 17.8hPa | 2.6V | 03:29:47 | 01:46:24 | 00:00:00 | |
| HSKMA3-T | 2026-09-02 06:17:25 | 49.61179 | 8.22206 | 352° | 5km/h | 27698m | 6.1m/s | -47.9°C | 0% | 17.8hPa | 2.6V | 03:29:56 | 01:46:25 | 00:00:00 | |
| DL1XH-15 | 2026-09-02 06:17:24 | 49.61179 | 8.22210 | 227° | 4km/h | 27664m | 4.9m/s | -47.9°C | 2.8% | 17.9hPa | 2.6V | 03:29:52 | 01:46:19 | 00:00:00 | |
| BIOWL1-15 | 2026-09-02 06:17:24 | 49.61178 | 8.22209 | 232° | 2km/h | 27682m | 6.5m/s | -47.9°C | 0% | 17.9hPa | 2.7V | 03:29:56 | 01:46:22 | 00:00:00 | |
| DL1XH-west | 2026-09-02 06:17:18 | 49.61180 | 8.22212 | 254° | 7km/h | 27659m | 6.2m/s | -48.1°C | 0% | 17.9hPa | 2.6V | 03:29:56 | 01:46:18 | 00:00:00 | |
| DM0DOS-11 | 2026-09-02 06:17:17 | 49.61180 | 8.22215 | 264° | 9km/h | 27652m | 6.4m/s | -48.1°C | 2.8% | 17.9hPa | 2.6V | 03:29:54 | 01:46:17 | 00:00:00 | |
| AA1-15 | 2026-09-02 06:17:17 | 49.61180 | 8.22215 | 264° | 9km/h | 27652m | 6.4m/s | -48.1°C | 0% | 17.9hPa | 2.6V | 03:29:56 | 01:46:17 | 00:00:00 | |
| DD1CC2-15 | 2026-09-02 06:17:17 | 49.61180 | 8.22214 | 265° | 9km/h | 27653m | 6.4m/s | 0°C | 0% | 17.9hPa | 2.7V | 03:29:00 | 00:00:00 | 00:00:00 | |
| DM7RM-13 | 2026-09-02 06:17:16 | 49.61180 | 8.22214 | 265° | 9km/h | 27653m | 6.4m/s | -48.1°C | 0.5% | 17.9hPa | 2.7V | 00:00:00 | 00:00:00 | 00:00:00 | |
| DL3AQ-11 | 2026-09-02 06:17:15 | 49.61180 | 8.22222 | 275° | 7km/h | 27642m | 4.6m/s | -48.1°C | 0.5% | 18.0hPa | 2.7V | 00:00:00 | 00:00:00 | 00:00:00 | |
| DL1XH1-15 | 2026-09-02 06:17:15 | 49.61180 | 8.22225 | 284° | 5km/h | 27637m | 5.5m/s | -48.1°C | 2.9% | 18hPa | 2.6V | 03:29:57 | 01:46:14 | 00:00:00 | |
| DL1XH-15 | 2026-09-02 06:17:14 | 49.61181 | 8.22219 | 180° | 4km/h | 27609m | 5.9m/s | -48°C | 2.9% | 18.1hPa | 2.7V | 03:30:02 | 01:46:09 | 00:00:00 | |
| HSKMA3-T | 2026-09-02 06:17:14 | 49.61180 | 8.22225 | 285° | 5km/h | 27637m | 5.5m/s | -48.1°C | 0% | 18hPa | 2.6V | 03:30:47 | 01:46:14 | 00:00:00 | |
| BIOWL1-15 | 2026-09-02 06:17:13 | 49.61180 | 8.22222 | 102° | 7km/h | 27620m | 4.5m/s | -48.1°C | 0% | 18hPa | 2.7V | 03:30:47 | 01:46:11 | 00:00:00 | |
| DM0DOS-11 | 2026-09-02 06:17:12 | 49.61183 | 8.22223 | 251° | 9km/h | 27598m | 5.4m/s | -48.1°C | 2.9% | 18.1hPa | 2.6V | 03:30:04 | 01:46:07 | 00:00:00 | |
| DL1XH-west | 2026-09-02 06:17:07 | 49.61183 | 8.22223 | 252° | 9km/h | 27598m | 5.4m/s | -48.1°C | 0% | 18.1hPa | 2.6V | 03:30:47 | 01:46:07 | 00:00:00 | |
| AA1-15 | 2026-09-02 06:17:06 | 49.61183 | 8.22226 | 268° | 11km/h | 27592m | 5.6m/s | -48.2°C | 0% | 18.1hPa | 2.6V | 03:31:38 | 01:46:06 | 00:00:00 | |
| DL1XH1-15 | 2026-09-02 06:17:05 | 49.61182 | 8.22234 | 288° | 11km/h | 27580m | 5.2m/s | -48.2°C | 2.9% | 18.1hPa | 2.7V | 03:30:07 | 01:46:04 | 00:00:00 | |
| HSKMA3-T | 2026-09-02 06:17:03 | 49.61182 | 8.22238 | 279° | 11km/h | 27576m | 4.8m/s | -48.3°C | 0% | 18.1hPa | 2.6V | 03:30:47 | 01:46:03 | 00:00:00 | |
| BIOWL1-15 | 2026-09-02 06:17:01 | 49.61182 | 8.22247 | 252° | 15km/h | 27564m | 6.5m/s | -48.3°C | 0% | 18.2hPa | 2.6V | 03:30:47 | 01:46:01 | 00:00:00 | |
| BIOWL9-15 | 2026-09-02 06:17:01 | 49.61184 | 8.22252 | 240° | 15km/h | 27558m | 5.5m/s | -48.2°C | 0.5% | 18.2hPa | 2.7V | 00:00:00 | 00:00:00 | 00:00:00 | |
| DL1XH-15 | 2026-09-02 06:16:59 | 49.61186 | 8.22257 | 232° | 15km/h | 27553m | 4.9m/s | -48.2°C | 2.9% | 18.2hPa | 2.7V | 03:30:12 | 01:45:59 | 00:00:00 | |
| AA1-15 | 2026-09-02 06:16:56 | 49.61191 | 8.22263 | 167° | 5km/h | 27536m | 5.2m/s | -48.2°C | 0% | 18.3hPa | 2.6V | 03:31:38 | 01:45:56 | 00:00:00 | |
| DL1XH1-15 | 2026-09-02 06:16:55 | 49.61194 | 8.22262 | 166° | 7km/h | 27526m | 4.7m/s | -48.2°C | 3% | 18.3hPa | 2.7V | 03:30:17 | 01:45:54 | 00:00:00 | |
| HSKMA3-T | 2026-09-02 06:16:53 | 49.61196 | 8.22262 | 189° | 11km/h | 27521m | 6.2m/s | -48.2°C | 0% | 18.3hPa | 2.7V | 03:30:47 | 01:45:53 | 00:00:00 | |
| BIOWL1-15 | 2026-09-02 06:16:50 | 49.61206 | 8.22273 | 234° | 20km/h | 27503m | 5.4m/s | -48.3°C | 0% | 18.4hPa | 2.6V | 03:30:47 | 01:45:50 | 00:00:00 | |
| DL1XH-west | 2026-09-02 06:16:46 | 49.61212 | 8.22296 | 255° | 9km/h | 27481m | 4.7m/s | -48.2°C | 0% | 18.4hPa | 2.6V | 03:30:47 | 01:45:46 | 00:00:00 | |
| AA1-15 | 2026-09-02 06:16:45 | 49.61213 | 8.22299 | 228° | 7km/h | 27477m | 4.3m/s | -48.2°C | 0% | 18.4hPa | 2.6V | 03:31:38 | 01:45:45 | 00:00:00 | |
| DL1XH1-15 | 2026-09-02 06:16:45 | 49.61215 | 8.22301 | 200° | 9km/h | 27472m | 5.8m/s | -48.2°C | 2.9% | 18.4hPa | 2.6V | 03:30:27 | 01:45:44 | 00:00:00 | |
| DJ2DS-15 | 2026-09-02 06:16:45 | 49.61213 | 8.22299 | 227° | 5km/h | 27477m | 4.3m/s | -48.2°C | 0.5% | 18.4hPa | 2.7V | 00:00:00 | 00:00:00 | 00:00:00 | |
| HSKMA3-T | 2026-09-02 06:16:42 | 49.61222 | 8.22303 | 189° | 20km/h | 27459m | 5.9m/s | -48.2°C | 0% | 18.5hPa | 2.7V | 03:30:47 | 01:45:42 | 00:00:00 | |
| BIOWL1-15 | 2026-09-02 06:16:40 | 49.61232 | 8.22305 | 186° | 20km/h | 27449m | 5.1m/s | -48.1°C | 0% | 18.5hPa | 2.6V | 03:30:47 | 01:45:40 | 00:00:00 | |
| AZAK | 2026-09-02 06:16:39 | 49.61236 | 8.22306 | 190° | 16km/h | 27444m | 6.2m/s | -48.0°C | 0% | 0hPa | 2.7V | 00:00:00 | 00:00:00 | 00:00:00 | |
| DM3KS-11 | 2026-09-02 06:16:38 | 49.61242 | 8.22309 | 226° | 7km/h | 27432m | 4.8m/s | -48.1°C | 0.5% | 18.6hPa | 2.7V | 00:00:00 | 00:00:00 | 00:00:00 | |
| DF2AP-13 | 2026-09-02 06:16:37 | 49.61242 | 8.22309 | 227° | 13km/h | 27432m | 4.8m/s | -48.0°C | 2.9% | 18.5hPa | 2.7V | 03:30:00 | 01:45:37 | 00:00:00 | |
| DL1XH-15 | 2026-09-02 06:16:36 | 49.61259 | 8.22334 | 198° | 18km/h | 27400m | 5m/s | -48°C | 2.8% | 18.7hPa | 2.7V | 03:30:40 | 01:45:31 | 00:00:00 | |
| DL1XH-west | 2026-09-02 06:16:36 | 49.61243 | 8.22313 | 241° | 11km/h | 27427m | 4.6m/s | -48.1°C | 0% | 18.6hPa | 2.7V | 03:30:47 | 01:45:36 | 00:00:00 | |
| DL1XH1-15 | 2026-09-02 06:16:35 | 49.61247 | 8.22322 | 230° | 16km/h | 27416m | 6.1m/s | -48°C | 2.9% | 18.6hPa | 2.6V | 03:30:37 | 01:45:34 | 00:00:00 | |
| AA1-15 | 2026-09-02 06:16:34 | 49.61247 | 8.22322 | 231° | 16km/h | 27416m | 6.1m/s | -48°C | 0% | 18.6hPa | 2.6V | 03:31:38 | 01:45:34 | 00:00:00 | |
| HSKMA3-T | 2026-09-02 06:16:31 | 49.61259 | 8.22334 | 198° | 18km/h | 27400m | 5m/s | -48°C | 0% | 18.7hPa | 2.7V | 03:30:47 | 01:45:31 | 00:00:00 | |
| BIOWL1-15 | 2026-09-02 06:16:30 | 49.61263 | 8.22335 | 183° | 15km/h | 27395m | 6m/s | -47.9°C | 0% | 18.7hPa | 2.6V | 03:30:47 | 01:45:30 | 00:00:00 | |
| DL1XH-west | 2026-09-02 06:16:25 | 49.61274 | 8.22329 | 196° | 9km/h | 27367m | 6.3m/s | -48°C | 0% | 18.8hPa | 2.7V | 03:30:47 | 01:45:25 | 00:00:00 | |
| BIOWL1-15 | 2026-09-02 06:16:24 | 49.61288 | 8.22345 | 210° | 11km/h | 27339m | 5.7m/s | -48.1°C | 0% | 18.8hPa | 2.7V | 03:31:38 | 01:45:20 | 00:00:00 | |
| AA1-15 | 2026-09-02 06:16:23 | 49.61279 | 8.22335 | 219° | 16km/h | 27356m | 5.3m/s | -48.1°C | 0% | 18.8hPa | 2.6V | 03:31:38 | 01:45:23 | 00:00:00 | |
| HSKMA3-T | 2026-09-02 06:16:21 | 49.61285 | 8.22342 | 219° | 15km/h | 27345m | 6.2m/s | -48°C | 0% | 18.8hPa | 2.7V | 03:31:38 | 01:45:21 | 00:00:00 | |
| DL1XH-15 | 2026-09-02 06:16:19 | 49.61292 | 8.22346 | 174° | 11km/h | 27329m | 4.7m/s | -48.2°C | 2.9% | 18.9hPa | 2.6V | 03:30:53 | 01:45:18 | 00:00:00 | |
| DJ2KF-10 | 2026-09-02 06:16:19 | 49.61290 | 8.22346 | 192° | 18km/h | 27334m | 4.9m/s | -48.1°C | 2.9% | 18.8hPa | 2.6V | 00:00:00 | 01:45:19 | 00:00:00 | |
| NBG1-10 | 2026-09-02 06:16:17 | 49.61295 | 8.22346 | 173° | 18km/h | 27324m | 4.9m/s | -48.2°C | 3.0% | 18.8hPa | 2.6V | 03:30:00 | 01:45:17 | 00:00:00 | |
| DF1GD-15 | 2026-09-02 06:16:16 | 49.61295 | 8.22346 | 174° | 13km/h | 27324m | 4.9m/s | -48.3°C | 0.6% | 18.9hPa | 2.7V | 03:31:00 | 00:00:00 | 00:00:00 | |
| DL1XH1-15 | 2026-09-02 06:16:15 | 49.61309 | 8.22345 | 178° | 20km/h | 27306m | 5.2m/s | -48.2°C | 2.9% | 18.9hPa | 2.7V | 03:30:57 | 01:45:14 | 00:00:00 | |
| DL1XH-west | 2026-09-02 06:16:15 | 49.61304 | 8.22345 | 179° | 20km/h | 27312m | 6m/s | -48.2°C | 0% | 18.9hPa | 2.7V | 03:31:38 | 01:45:15 | 00:00:00 | |
| AA1-15 | 2026-09-02 06:16:12 | 49.61318 | 8.22343 | 168° | 16km/h | 27296m | 6.4m/s | -48.3°C | 0% | 19hPa | 2.6V | 03:31:38 | 01:45:12 | 00:00:00 | |
| DL8DAS-14 | 2026-09-02 06:16:12 | 49.61318 | 8.22343 | 167° | 15km/h | 27296m | 6.4m/s | -48.3°C | 0.5% | 19.0hPa | 2.6V | 00:00:00 | 00:00:00 | 00:00:00 | |
| DL8DAS-15 | 2026-09-02 06:16:10 | 49.61322 | 8.22342 | 157° | 15km/h | 27290m | 6.0m/s | -48.4°C | 0.5% | 19.0hPa | 2.6V | 03:31:00 | 00:00:00 | 00:00:00 | |
| HSKMA3-T | 2026-09-02 06:16:10 | 49.61325 | 8.22339 | 147° | 15km/h | 27284m | 5.2m/s | -48.4°C | 0% | 19hPa | 2.7V | 03:31:38 | 01:45:10 | 00:00:00 | |
| DL1XH-15 | 2026-09-02 06:16:09 | 49.61332 | 8.22333 | 151° | 18km/h | 27273m | 6.4m/s | -48.3°C | 2.8% | 19hPa | 2.6V | 03:31:03 | 01:45:08 | 00:00:00 | |
| BIOWL1-15 | 2026-09-02 06:16:09 | 49.61328 | 8.22336 | 147° | 15km/h | 27279m | 5.6m/s | -48.4°C | 0% | 19hPa | 2.7V | 03:31:38 | 01:45:09 | 00:00:00 | |
| DL1XH-west | 2026-09-02 06:16:05 | 49.61346 | 8.22322 | 153° | 20km/h | 27257m | 5.7m/s | -48.3°C | 0% | 19.1hPa | 2.7V | 03:31:38 | 01:45:05 | 00:00:00 | |
| AA1-15 | 2026-09-02 06:16:01 | 49.61364 | 8.22310 | 169° | 20km/h | 27235m | 5.7m/s | -48.6°C | 0% | 19.1hPa | 2.6V | 03:31:38 | 01:45:01 | 00:00:00 | |
| HSKMA3-T | 2026-09-02 06:16:00 | 49.61369 | 8.22309 | 176° | 22km/h | 27229m | 6.4m/s | -48.7°C | 0% | 19.2hPa | 2.6V | 03:31:38 | 01:45:00 | 00:00:00 | |
| BIOWL1-15 | 2026-09-02 06:16:00 | 49.61381 | 8.22309 | 180° | 24km/h | 27218m | 4.4m/s | -48.7°C | 0% | 19.2hPa | 2.7V | 03:31:38 | 01:44:58 | 00:00:00 | |
| DL1XH-15 | 2026-09-02 06:15:59 | 49.61386 | 8.22309 | 174° | 20km/h | 27213m | 5.6m/s | -48.7°C | 3% | 19.2hPa | 2.6V | 03:31:14 | 01:44:57 | 00:00:00 | |
| DL1XH-west | 2026-09-02 06:15:55 | 49.61394 | 8.22305 | 140° | 13km/h | 27201m | 6.1m/s | -48.6°C | 0% | 19.2hPa | 2.6V | 03:31:38 | 01:44:55 | 00:00:00 | |
| AA1-15 | 2026-09-02 06:15:50 | 49.61409 | 8.22273 | 137° | 27km/h | 27173m | 5.3m/s | -48.6°C | 0% | 19.3hPa | 2.6V | 03:31:38 | 01:44:50 | 00:00:00 | |
| DL1XH-15 | 2026-09-02 06:15:49 | 49.61423 | 8.22258 | 159° | 16km/h | 27156m | 6.3m/s | -48.7°C | 3% | 19.4hPa | 2.7V | 03:31:24 | 01:44:47 | 00:00:00 | |
| HSKMA3-T | 2026-09-02 06:15:49 | 49.61414 | 8.22266 | 144° | 26km/h | 27168m | 4.9m/s | -48.6°C | 0% | 19.3hPa | 2.6V | 03:31:38 | 01:44:49 | 00:00:00 | |
| BIOWL1-15 | 2026-09-02 06:15:48 | 49.61419 | 8.22261 | 150° | 22km/h | 27163m | 5.8m/s | -48.7°C | 0% | 19.3hPa | 2.7V | 03:31:38 | 01:44:48 | 00:00:00 | |
| CB1BUN | 2026-09-02 06:15:46 | 49.61423 | 8.22258 | 160° | 16km/h | 27157m | 6.3m/s | -48.7°C | 0.5% | 19.4hPa | 2.6V | 03:31:00 | 00:00:00 | 00:00:00 | |
| DL1XH1-15 | 2026-09-02 06:15:45 | 49.61433 | 8.22258 | 199° | 13km/h | 27139m | 6.1m/s | -48.8°C | 2.9% | 19.4hPa | 2.6V | 03:31:27 | 01:44:44 | 00:00:00 | |
| DL1XH-west | 2026-09-02 06:15:45 | 49.61430 | 8.22257 | 194° | 11km/h | 27145m | 5.3m/s | -48.8°C | 0% | 19.4hPa | 2.6V | 03:31:38 | 01:44:45 | 00:00:00 | |
| AA1-15 | 2026-09-02 06:15:40 | 49.61442 | 8.22257 | 117° | 9km/h | 27118m | 6.2m/s | -48.8°C | 0% | 19.5hPa | 2.6V | 03:31:38 | 01:44:40 | 00:00:00 | |
| DL1XH-15 | 2026-09-02 06:15:39 | 49.61444 | 8.22239 | 99° | 22km/h | 27101m | 4.6m/s | -48.8°C | 3% | 19.5hPa | 2.7V | 03:31:34 | 01:44:37 | 00:00:00 | |
| HSKMA3-T | 2026-09-02 06:15:39 | 49.61443 | 8.22253 | 93° | 13km/h | 27112m | 6.4m/s | -48.7°C | 0% | 19.5hPa | 2.6V | 03:31:38 | 01:44:39 | 00:00:00 | |
| BIOWL1-15 | 2026-09-02 06:15:38 | 49.61443 | 8.22247 | 91° | 18km/h | 27106m | 5.2m/s | -48.7°C | 0% | 19.5hPa | 2.6V | 03:31:38 | 01:44:38 | 00:00:00 | |
| DL1XH-west | 2026-09-02 06:15:34 | 49.61453 | 8.22213 | 141° | 27km/h | 27084m | 4.9m/s | -48.8°C | 0% | 19.6hPa | 2.6V | 03:31:38 | 01:44:34 | 00:00:00 | |
| AA1-15 | 2026-09-02 06:15:30 | 49.61474 | 8.22204 | 198° | 15km/h | 27063m | 5m/s | -49°C | 0% | 19.6hPa | 2.7V | 03:32:29 | 01:44:30 | 00:00:00 | |
| HSKMA3-T | 2026-09-02 06:15:28 | 49.61480 | 8.22208 | 206° | 11km/h | 27053m | 5.4m/s | -49°C | 0% | 19.7hPa | 2.6V | 03:32:29 | 01:44:28 | 00:00:00 | |
| BIOWL1-15 | 2026-09-02 06:15:27 | 49.61482 | 8.22209 | 184° | 11km/h | 27047m | 5.4m/s | -48.9°C | 0% | 19.7hPa | 2.6V | 03:32:29 | 01:44:27 | 00:00:00 | |
| DL1XH1-15 | 2026-09-02 06:15:25 | 49.61490 | 8.22200 | 118° | 18km/h | 27031m | 5.5m/s | -48.7°C | 3.1% | 19.7hPa | 2.6V | 03:31:47 | 01:44:24 | 00:00:00 | |
| DL1XH-west | 2026-09-02 06:15:24 | 49.61492 | 8.22193 | 108° | 20km/h | 27025m | 5.8m/s | -48.7°C | 0% | 19.8hPa | 2.6V | 03:32:29 | 01:44:23 | 00:00:00 | |
| DD1CC2-15 | 2026-09-02 06:15:22 | 49.61492 | 8.22193 | 109° | 20km/h | 27026m | 5.8m/s | 0°C | 0% | 0hPa | 2.6V | 00:00:00 | 00:00:00 | 00:00:00 | |
| DL8DAS-15 | 2026-09-02 06:15:21 | 49.61493 | 8.22186 | 102° | 22km/h | 27020m | 6.3m/s | -48.7°C | 0.6% | 19.8hPa | 2.6V | 00:00:00 | 00:00:00 | 00:00:00 | |
| DL1XH-15 | 2026-09-02 06:15:19 | 49.61504 | 8.22144 | 133° | 27km/h | 26992m | 5.3m/s | -48.4°C | 2.9% | 19.9hPa | 2.6V | 03:31:54 | 01:44:17 | 00:00:00 | |
| AA1-15 | 2026-09-02 06:15:19 | 49.61497 | 8.22160 | 114° | 24km/h | 27004m | 5.1m/s | -48.6°C | 0% | 19.8hPa | 2.7V | 03:32:29 | 01:44:19 | 00:00:00 | |
| HSKMA3-T | 2026-09-02 06:15:17 | 49.61504 | 8.22144 | 134° | 27km/h | 26992m | 5.3m/s | -48.4°C | 0% | 19.9hPa | 2.6V | 03:32:29 | 01:44:17 | 00:00:00 | |
| BIOWL1-15 | 2026-09-02 06:15:16 | 49.61509 | 8.22137 | 141° | 26km/h | 26988m | 4.4m/s | -48.4°C | 0% | 19.9hPa | 2.6V | 03:32:29 | 01:44:16 | 00:00:00 | |
| DL1XH1-15 | 2026-09-02 06:15:15 | 49.61517 | 8.22128 | 153° | 15km/h | 26977m | 6.5m/s | -48.4°C | 2.9% | 19.9hPa | 2.7V | 03:31:57 | 01:44:14 | 00:00:00 | |
| DL1XH-west | 2026-09-02 06:15:12 | 49.61522 | 8.22126 | 179° | 5km/h | 26965m | 5.2m/s | -48.4°C | 0% | 19.9hPa | 2.7V | 03:32:29 | 01:44:12 | 00:00:00 | |
| NBG1-10 | 2026-09-02 06:15:11 | 49.61523 | 8.22126 | 173° | 13km/h | 26960m | 5.5m/s | -48.4°C | 3.0% | 19.9hPa | 2.7V | 00:00:00 | 01:44:11 | 00:00:00 | |
| DJTTGO | 2026-09-02 06:15:10 | 49.61523 | 8.22126 | 173° | 5km/h | 26960m | 5.6m/s | -48.4°C | 0.5% | 20.0hPa | 2.7V | 00:00:00 | 00:00:00 | 00:00:00 | |
| DL1XH-15 | 2026-09-02 06:15:09 | 49.61530 | 8.22119 | 137° | 11km/h | 26939m | 5.5m/s | -48.4°C | 2.9% | 20hPa | 2.7V | 03:32:04 | 01:44:07 | 00:00:00 | |
| AA1-15 | 2026-09-02 06:15:08 | 49.61528 | 8.22122 | 140° | 11km/h | 26944m | 4.4m/s | -48.4°C | 0% | 20hPa | 2.7V | 03:32:29 | 01:44:08 | 00:00:00 | |
| BIOWL1-15 | 2026-09-02 06:15:08 | 49.61532 | 8.22116 | 135° | 11km/h | 26933m | 6m/s | -48.4°C | 0% | 20hPa | 2.6V | 03:32:29 | 01:44:06 | 00:00:00 | |
| HSKMA3-T | 2026-09-02 06:15:07 | 49.61530 | 8.22119 | 138° | 11km/h | 26939m | 5.5m/s | -48.4°C | 0% | 20hPa | 2.7V | 03:32:29 | 01:44:07 | 00:00:00 | |
| DL1XH1-15 | 2026-09-02 06:15:05 | 49.61537 | 8.22108 | 130° | 16km/h | 26922m | 4.8m/s | -48.5°C | 2.9% | 20.1hPa | 2.6V | 03:32:07 | 01:44:04 | 00:00:00 | |
| DL1XH-west | 2026-09-02 06:15:01 | 49.61548 | 8.22089 | 135° | 24km/h | 26906m | 4.3m/s | -48.5°C | 0% | 20.1hPa | 2.7V | 03:32:29 | 01:44:01 | 00:00:00 | |
| DB0ND-19 | 2026-09-02 06:15:00 | 49.61558 | 8.22077 | 173° | 5km/h | 26891m | 6.6m/s | -48.5°C | 0.5% | 20.2hPa | 2.7V | 00:00:00 | 00:00:00 | 00:00:00 | |
| DL1XH-15 | 2026-09-02 06:14:59 | 49.61559 | 8.22079 | 251° | 7km/h | 26885m | 5.7m/s | -48.5°C | 2.9% | 20.2hPa | 2.7V | 03:32:14 | 01:43:57 | 00:00:00 | |
| AA1-15 | 2026-09-02 06:14:58 | 49.61558 | 8.22077 | 173° | 7km/h | 26891m | 6.6m/s | -48.5°C | 0% | 20.2hPa | 2.6V | 03:32:29 | 01:43:58 | 00:00:00 | |
| DJ2DS-15 | 2026-09-02 06:14:57 | 49.61560 | 8.22082 | 266° | 9km/h | 26880m | 4.5m/s | -48.4°C | 0.5% | 20.2hPa | 2.6V | 00:00:00 | 00:00:00 | 00:00:00 | |
| BIOWL9-15 | 2026-09-02 06:14:56 | 49.61560 | 8.22082 | 266° | 9km/h | 26880m | 4.5m/s | -48.4°C | 0.5% | 20.2hPa | 2.6V | 00:00:00 | 00:00:00 | 00:00:00 | |
| DL1XH1-15 | 2026-09-02 06:14:55 | 49.61560 | 8.22089 | 241° | 7km/h | 26870m | 5.4m/s | -48.5°C | 3% | 20.2hPa | 2.6V | 03:32:17 | 01:43:54 | 00:00:00 | |
| BIOWL1-15 | 2026-09-02 06:14:55 | 49.61560 | 8.22086 | 265° | 11km/h | 26875m | 4.6m/s | -48.4°C | 0% | 20.2hPa | 2.6V | 03:32:29 | 01:43:55 | 00:00:00 | |
| HSKMA3-T | 2026-09-02 06:14:51 | 49.61566 | 8.22086 | 132° | 15km/h | 26854m | 5.1m/s | -48.5°C | 0% | 20.3hPa | 2.7V | 03:32:29 | 01:43:51 | 00:00:00 | |
| DL1XH-west | 2026-09-02 06:14:50 | 49.61568 | 8.22081 | 126° | 16km/h | 26849m | 5.3m/s | -48.6°C | 0% | 20.3hPa | 2.7V | 03:32:29 | 01:43:50 | 00:00:00 | |
| DL1XH-15 | 2026-09-02 06:14:49 | 49.61575 | 8.22066 | 127° | 15km/h | 26834m | 4.3m/s | -48.5°C | 0% | 20.3hPa | 2.6V | 03:32:24 | 01:43:47 | 00:00:00 | |
| AA1-15 | 2026-09-02 06:14:47 | 49.61575 | 8.22066 | 128° | 15km/h | 26834m | 4.3m/s | -48.5°C | 0% | 20.3hPa | 2.6V | 03:32:29 | 01:43:47 | 00:00:00 | |
| DF7PN | 2026-09-02 06:14:46 | 49.61578 | 8.22061 | 134° | 15km/h | 26829m | 5.0m/s | -48.5°C | 0.5% | 20.3hPa | 2.6V | 00:00:00 | 00:00:00 | 00:00:00 | |
| BIOWL1-15 | 2026-09-02 06:14:44 | 49.61584 | 8.22053 | 141° | 15km/h | 26818m | 5.3m/s | -48.5°C | 0% | 20.4hPa | 2.6V | 03:32:29 | 01:43:44 | 00:00:00 | |
| HSKMA3-T | 2026-09-02 06:14:41 | 49.61588 | 8.22044 | 76° | 7km/h | 26803m | 6.7m/s | -48.5°C | 0% | 20.4hPa | 2.7V | 03:33:20 | 01:43:41 | 00:00:00 | |
| DL1XH-west | 2026-09-02 06:14:40 | 49.61587 | 8.22041 | 47° | 11km/h | 26797m | 5.9m/s | -48.5°C | 0% | 20.4hPa | 2.7V | 03:33:20 | 01:43:40 | 00:00:00 | |
| DL1XH-15 | 2026-09-02 06:14:39 | 49.61583 | 8.22029 | 94° | 13km/h | 26782m | 6.1m/s | -48.5°C | 0% | 20.5hPa | 2.6V | 03:32:34 | 01:43:37 | 00:00:00 | |
| AA1-15 | 2026-09-02 06:14:36 | 49.61584 | 8.22024 | 119° | 16km/h | 26776m | 5.2m/s | -48.5°C | 0% | 20.5hPa | 2.6V | 03:33:20 | 01:43:36 | 00:00:00 | |
| BIOWL1-15 | 2026-09-02 06:14:36 | 49.61590 | 8.22013 | 133° | 20km/h | 26766m | 5.8m/s | -48.6°C | 0% | 20.6hPa | 2.7V | 03:33:20 | 01:43:34 | 00:00:00 | |
| DL3AQ-11 | 2026-09-02 06:14:35 | 49.61590 | 8.22013 | 132° | 20km/h | 26766m | 5.8m/s | -48.6°C | 0.5% | 20.6hPa | 2.7V | 00:00:00 | 00:00:00 | 00:00:00 | |
| DO3MHA-11 | 2026-09-02 06:14:34 | 49.61590 | 8.22012 | 133° | 15km/h | 26766m | 5.7m/s | -48.5°C | 2.9% | 20.5hPa | 2.7V | 00:00:00 | 01:43:34 | 00:00:00 | |
| DL4BBY-15 | 2026-09-02 06:14:33 | 49.61594 | 8.22007 | 135° | 11km/h | 26760m | 6.1m/s | -49.8°C | 0% | 0hPa | 2.7V | 00:00:00 | 00:00:00 | 00:00:00 | |
| DB0NH | 2026-09-02 06:14:30 | 49.61603 | 8.21995 | 151° | 13km/h | 26743m | 5.0m/s | 0°C | 0% | 0hPa | 2.7V | 00:00:00 | 01:43:30 | 00:00:00 | |
| DL1XH-west | 2026-09-02 06:14:30 | 49.61603 | 8.21995 | 151° | 13km/h | 26743m | 5.1m/s | -48.7°C | 0% | 20.6hPa | 2.6V | 03:33:20 | 01:43:30 | 00:00:00 | |
| DL1XH-15 | 2026-09-02 06:14:29 | 49.61611 | 8.21990 | 154° | 11km/h | 26727m | 5.7m/s | -48.8°C | 0% | 0hPa | 2.7V | 03:32:44 | 01:43:27 | 00:00:00 | |
| HSKMA3-T | 2026-09-02 06:14:29 | 49.61606 | 8.21993 | 157° | 11km/h | 26738m | 5m/s | -48.8°C | 0% | 20.6hPa | 2.6V | 03:33:20 | 01:43:29 | 00:00:00 | |
| AA1-15 | 2026-09-02 06:14:25 | 49.61616 | 8.21985 | 131° | 11km/h | 26717m | 4.7m/s | -48.9°C | 0% | 20.7hPa | 2.6V | 03:33:20 | 01:43:25 | 00:00:00 | |
| BIOWL1-15 | 2026-09-02 06:14:23 | 49.61617 | 8.21977 | 76° | 11km/h | 26706m | 6.2m/s | -48.9°C | 0% | 20.7hPa | 2.7V | 03:33:20 | 01:43:23 | 00:00:00 | |
| DL1XH-west | 2026-09-02 06:14:19 | 49.61610 | 8.21957 | 82° | 16km/h | 26685m | 5.9m/s | -48.9°C | 0% | 20.8hPa | 2.6V | 03:33:20 | 01:43:19 | 00:00:00 | |
| HSKMA3-T | 2026-09-02 06:14:18 | 49.61610 | 8.21950 | 103° | 18km/h | 26679m | 5.9m/s | -48.9°C | 0% | 20.8hPa | 2.6V | 03:33:20 | 01:43:18 | 00:00:00 | |
| DL8DAS-15 | 2026-09-02 06:14:16 | 49.61612 | 8.21944 | 122° | 18km/h | 26674m | 4.8m/s | -48.9°C | 0.6% | 20.8hPa | 2.6V | 00:00:00 | 00:00:00 | 00:00:00 | |
| DL1XH1-15 | 2026-09-02 06:14:15 | 49.61621 | 8.21931 | 156° | 9km/h | 26658m | 5.7m/s | -48.8°C | 3% | 20.9hPa | 2.6V | 03:32:57 | 01:43:14 | 00:00:00 | |
| AA1-15 | 2026-09-02 06:14:15 | 49.61618 | 8.21934 | 144° | 15km/h | 26664m | 5.3m/s | -48.8°C | 0% | 20.9hPa | 2.6V | 03:33:20 | 01:43:15 | 00:00:00 | |
| BIOWL1-15 | 2026-09-02 06:14:12 | 49.61623 | 8.21931 | 38° | 2km/h | 26639m | 5.3m/s | -48.8°C | 0% | 21hPa | 2.7V | 03:33:20 | 01:43:10 | 00:00:00 | |
| DL1XH-west | 2026-09-02 06:14:09 | 49.61623 | 8.21930 | 79° | 4km/h | 26633m | 5.6m/s | -48.7°C | 0% | 21hPa | 2.6V | 03:33:20 | 01:43:09 | 00:00:00 | |
| HSKMA3-T | 2026-09-02 06:14:08 | 49.61623 | 8.21928 | 90° | 5km/h | 26628m | 5.2m/s | -48.7°C | 0% | 21hPa | 2.6V | 03:33:20 | 01:43:08 | 00:00:00 | |
| DL3AQ-11 | 2026-09-02 06:14:08 | 49.61623 | 8.21926 | 97° | 5km/h | 26623m | 4.8m/s | -48.7°C | 0.5% | 21.0hPa | 2.6V | 00:00:00 | 00:00:00 | 00:00:00 | |
| DN1GJH-1 | 2026-09-02 06:14:06 | 49.61623 | 8.21926 | 98° | 7km/h | 26623m | 4.8m/s | -48.7°C | 0.6% | 21.0hPa | 2.6V | 03:33:00 | 00:00:00 | 00:00:00 | |
| DL1XH1-15 | 2026-09-02 06:14:05 | 49.61621 | 8.21920 | 29° | 5km/h | 26606m | 5.6m/s | -48.6°C | 2.9% | 21hPa | 2.6V | 03:33:07 | 01:43:04 | 00:00:00 | |
| AA1-15 | 2026-09-02 06:14:04 | 49.61622 | 8.21920 | 30° | 5km/h | 26606m | 5.6m/s | -48.6°C | 0% | 21.1hPa | 2.6V | 03:33:20 | 01:43:04 | 00:00:00 | |
| BIOWL1-15 | 2026-09-02 06:14:03 | 49.61619 | 8.21918 | 40° | 5km/h | 26597m | 4.4m/s | -48.6°C | 0% | 21.1hPa | 2.6V | 03:33:20 | 01:43:02 | 00:00:00 | |
| DL1XH-west | 2026-09-02 06:13:58 | 49.61621 | 8.21905 | 136° | 13km/h | 26575m | 5.1m/s | -48.6°C | 0% | 21.2hPa | 2.6V | 03:33:20 | 01:42:58 | 00:00:00 | |
| HSKMA3-T | 2026-09-02 06:13:57 | 49.61623 | 8.21902 | 152° | 11km/h | 26570m | 5.7m/s | -48.6°C | 0% | 21.2hPa | 2.6V | 03:33:20 | 01:42:57 | 00:00:00 | |
| SONCRA | 2026-09-02 06:13:56 | 49.61628 | 8.21901 | 201° | 7km/h | 26558m | 4.9m/s | -48.5°C | 0.5% | 21.2hPa | 2.7V | 00:00:00 | 00:00:00 | 00:00:00 | |
| DL1XH1-15 | 2026-09-02 06:13:55 | 49.61630 | 8.21903 | 214° | 7km/h | 26554m | 4.2m/s | -48.5°C | 2.9% | 21.2hPa | 2.7V | 03:33:17 | 01:42:54 | 00:00:00 | |
| AA1-15 | 2026-09-02 06:13:53 | 49.61632 | 8.21904 | 211° | 7km/h | 26549m | 5.2m/s | -48.5°C | 0% | 21.2hPa | 2.7V | 03:33:20 | 01:42:53 | 00:00:00 | |
| BIOWL1-15 | 2026-09-02 06:13:52 | 49.61633 | 8.21905 | 189° | 5km/h | 26544m | 6.1m/s | -48.5°C | 0% | 21.3hPa | 2.7V | 03:33:20 | 01:42:52 | 00:00:00 | |
| DD1CC8 | 2026-09-02 06:13:51 | 49.61635 | 8.21905 | 163° | 5km/h | 26538m | 5.5m/s | -48.4°C | 0.6% | 21.3hPa | 2.7V | 00:00:00 | 00:00:00 | 00:00:00 | |
| DL1XH-15 | 2026-09-02 06:13:49 | 49.61639 | 8.21905 | 233° | 4km/h | 26515m | 5.3m/s | 0°C | 0% | 0hPa | 2.7V | 03:33:24 | 01:42:47 | 00:00:00 | |
| DL1XH-west | 2026-09-02 06:13:47 | 49.61639 | 8.21905 | 234° | 4km/h | 26515m | 5.3m/s | -48.5°C | 0% | 21.4hPa | 2.7V | 03:34:11 | 01:42:47 | 00:00:00 | |
| AU51GT2 | 2026-09-02 06:13:45 | 49.61640 | 8.21907 | 217° | 2km/h | 26506m | 5.1m/s | -48.5°C | -1.0% | 21.4hPa | 2.7V | 00:00:00 | 00:00:00 | 00:00:00 | |
| DL1XH1-15 | 2026-09-02 06:13:45 | 49.61641 | 8.21907 | 156° | 4km/h | 26500m | 6.2m/s | -48.5°C | 2.9% | 21.4hPa | 2.6V | 03:33:27 | 01:42:44 | 00:00:00 | |
| AA1-15 | 2026-09-02 06:13:42 | 49.61643 | 8.21905 | 129° | 5km/h | 26489m | 4.7m/s | -48.5°C | 0% | 21.4hPa | 2.7V | 03:34:11 | 01:42:42 | 00:00:00 | |
| BIOWL1-15 | 2026-09-02 06:13:41 | 49.61644 | 8.21904 | 229° | 4km/h | 26478m | 6.3m/s | -48.6°C | 0% | 21.5hPa | 2.6V | 03:34:11 | 01:42:40 | 00:00:00 | |
| DL0LBS | 2026-09-02 06:13:40 | 49.61644 | 8.21904 | 230° | 4km/h | 26479m | 6.3m/s | -48.5°C | 0.5% | 21.5hPa | 2.7V | 03:34:00 | 00:00:00 | 00:00:00 | |
| DL1XH-15 | 2026-09-02 06:13:39 | 49.61647 | 8.21915 | 228° | 9km/h | 26456m | 5.8m/s | 0°C | 0% | 0hPa | 2.7V | 03:33:35 | 01:42:36 | 00:00:00 | |
| DL1XH-west | 2026-09-02 06:13:36 | 49.61647 | 8.21915 | 229° | 9km/h | 26456m | 5.8m/s | -48.7°C | 0% | 21.6hPa | 2.7V | 03:34:11 | 01:42:36 | 00:00:00 | |
| HSKMA3-T | 2026-09-02 06:13:35 | 49.61649 | 8.21918 | 219° | 9km/h | 26451m | 4.8m/s | -48.7°C | 0% | 21.6hPa | 2.6V | 03:36:44 | 01:42:35 | 00:00:00 | |
| BIOWL1-15 | 2026-09-02 06:13:34 | 49.61656 | 8.21937 | 249° | 13km/h | 26424m | 4.6m/s | -48.8°C | 0% | 21.7hPa | 2.7V | 03:34:11 | 01:42:30 | 00:00:00 | |
| AA1-15 | 2026-09-02 06:13:31 | 49.61655 | 8.21932 | 250° | 15km/h | 26429m | 5.2m/s | -48.7°C | 0% | 21.6hPa | 2.7V | 03:34:11 | 01:42:31 | 00:00:00 | |
| DF1GD-15 | 2026-09-02 06:13:30 | 49.61655 | 8.21932 | 251° | 15km/h | 26430m | 5.2m/s | -48.7°C | 0.6% | 21.7hPa | 2.6V | 03:34:00 | 00:00:00 | 00:00:00 | |
| DL1XH-15 | 2026-09-02 06:13:29 | 49.61662 | 8.21946 | 205° | 7km/h | 26403m | 4.4m/s | 0°C | 0% | 0hPa | 2.6V | 03:33:45 | 01:42:26 | 00:00:00 | |
| DL1XH-west | 2026-09-02 06:13:26 | 49.61662 | 8.21946 | 206° | 7km/h | 26403m | 4.4m/s | -48.9°C | 0% | 21.8hPa | 2.6V | 03:34:11 | 01:42:26 | 00:00:00 | |
| HSKMA3-T | 2026-09-02 06:13:25 | 49.61664 | 8.21948 | 228° | 7km/h | 26398m | 5.4m/s | -48.8°C | 0% | 21.8hPa | 2.7V | 03:36:44 | 01:42:25 | 00:00:00 | |
| AA1-15 | 2026-09-02 06:13:20 | 49.61667 | 8.21970 | 254° | 11km/h | 26370m | 6.3m/s | -48.8°C | 0% | 21.8hPa | 2.6V | 03:34:11 | 01:42:20 | 00:00:00 | |
| DD1CC8 | 2026-09-02 06:13:20 | 49.61667 | 8.21973 | 244° | 7km/h | 26364m | 5.5m/s | -48.8°C | 0.5% | 21.9hPa | 2.6V | 00:00:00 | 00:00:00 | 00:00:00 | |
| DL1XH-15 | 2026-09-02 06:13:19 | 49.61668 | 8.21981 | 282° | 7km/h | 26347m | 6.2m/s | 0°C | 0% | 0hPa | 2.6V | 03:33:55 | 01:42:16 | 00:00:00 | |
| BIOWL1-15 | 2026-09-02 06:13:19 | 49.61667 | 8.21973 | 244° | 7km/h | 26364m | 5.5m/s | -48.8°C | 0% | 21.9hPa | 2.7V | 03:34:11 | 01:42:19 | 00:00:00 | |
| DL1XH-west | 2026-09-02 06:13:16 | 49.61668 | 8.21981 | 283° | 7km/h | 26347m | 6.2m/s | -48.9°C | 0% | 21.9hPa | 2.6V | 03:34:11 | 01:42:16 | 00:00:00 | |
| HSKMA3-T | 2026-09-02 06:13:14 | 49.61667 | 8.21986 | 283° | 5km/h | 26337m | 4.8m/s | -48.9°C | 0% | 21.9hPa | 2.7V | 03:36:44 | 01:42:14 | 00:00:00 | |
| BIOWL1-15 | 2026-09-02 06:13:09 | 49.61669 | 8.21991 | 264° | 4km/h | 26309m | 6.2m/s | -49.1°C | 0% | 22.1hPa | 2.6V | 03:34:11 | 01:42:09 | 00:00:00 | |
| DL1XH-west | 2026-09-02 06:13:05 | 49.61667 | 8.21998 | 29° | 2km/h | 26287m | 6.2m/s | -49.1°C | 0% | 22.1hPa | 2.6V | 03:34:11 | 01:42:05 | 00:00:00 | |
| HSKMA3-T | 2026-09-02 06:13:04 | 49.61667 | 8.21997 | 86° | 4km/h | 26281m | 5.8m/s | -49.1°C | 0% | 22.1hPa | 2.6V | 03:36:44 | 01:42:04 | 00:00:00 | |
| BIOWL1-15 | 2026-09-02 06:12:59 | 49.61664 | 8.21987 | 54° | 9km/h | 26254m | 4.8m/s | -49.1°C | 0% | 22.2hPa | 2.6V | 03:35:02 | 01:41:59 | 00:00:00 | |
| AA1-15 | 2026-09-02 06:12:58 | 49.61662 | 8.21983 | 60° | 13km/h | 26248m | 6.5m/s | -49.1°C | 0% | 22.3hPa | 2.6V | 03:35:02 | 01:41:58 | 00:00:00 | |
| DB0ND-19 | 2026-09-02 06:12:56 | 49.61655 | 8.21968 | 19° | 11km/h | 26226m | 6.3m/s | -49.0°C | 0.6% | 22.3hPa | 2.7V | 00:00:00 | 00:00:00 | 00:00:00 | |
| DL1XH-15 | 2026-09-02 06:12:55 | 49.61642 | 8.21969 | 2° | 11km/h | 26205m | 5.7m/s | 0°C | 0% | 0hPa | 2.7V | 03:34:21 | 01:41:50 | 00:00:00 | |
| DL1XH1-15 | 2026-09-02 06:12:55 | 49.61655 | 8.21968 | 19° | 11km/h | 26226m | 6.3m/s | -49°C | 3% | 22.3hPa | 2.7V | 03:34:17 | 01:41:54 | 00:00:00 | |
| DL1XH-west | 2026-09-02 06:12:54 | 49.61655 | 8.21968 | 19° | 11km/h | 26226m | 6.3m/s | -49°C | 0% | 22.3hPa | 2.7V | 03:35:02 | 01:41:54 | 00:00:00 | |
| HSKMA3-T | 2026-09-02 06:12:50 | 49.61642 | 8.21969 | 3° | 11km/h | 26205m | 5.7m/s | -48.9°C | 0% | 22.4hPa | 2.7V | 03:36:44 | 01:41:50 | 00:00:00 | |
| BIOWL1-15 | 2026-09-02 06:12:49 | 49.61639 | 8.21969 | 26° | 9km/h | 26199m | 5.9m/s | -48.9°C | 0% | 22.4hPa | 2.7V | 03:35:02 | 01:41:49 | 00:00:00 | |
| AA1-15 | 2026-09-02 06:12:47 | 49.61637 | 8.21964 | 80° | 7km/h | 26188m | 5.3m/s | -49°C | 0% | 22.5hPa | 2.6V | 03:35:02 | 01:41:47 | 00:00:00 | |
| DL6DJ-15 | 2026-09-02 06:12:46 | 49.61637 | 8.21962 | 98° | 4km/h | 26183m | 6.2m/s | -48.9°C | 0.6% | 22.5hPa | 2.7V | 00:00:00 | 00:00:00 | 00:00:00 | |
| DL1XH1-15 | 2026-09-02 06:12:45 | 49.61637 | 8.21960 | 45° | 0km/h | 26171m | 4.7m/s | -48.9°C | 3% | 22.5hPa | 2.7V | 03:34:27 | 01:41:44 | 00:00:00 | |
| DL1XH-west | 2026-09-02 06:12:43 | 49.61637 | 8.21960 | 14° | 4km/h | 26166m | 4.7m/s | -48.9°C | 0% | 22.5hPa | 2.7V | 03:35:02 | 01:41:43 | 00:00:00 | |
| DN1GJH-1 | 2026-09-02 06:12:41 | 49.61636 | 8.21959 | 20° | 7km/h | 26161m | 6.4m/s | -49.0°C | 0.6% | 22.6hPa | 2.7V | 03:35:00 | 00:00:00 | 00:00:00 | |
| DL1XH-15 | 2026-09-02 06:12:39 | 49.61621 | 8.21955 | 353° | 18km/h | 26138m | 6.2m/s | 0°C | 0% | 0hPa | 2.7V | 03:34:33 | 01:41:38 | 00:00:00 | |
| BIOWL1-15 | 2026-09-02 06:12:38 | 49.61621 | 8.21955 | 354° | 18km/h | 26139m | 6.2m/s | -49°C | 0% | 22.6hPa | 2.7V | 03:35:02 | 01:41:38 | 00:00:00 | |
| AA1-15 | 2026-09-02 06:12:36 | 49.61614 | 8.21958 | 341° | 13km/h | 26127m | 5m/s | -49°C | 0% | 22.7hPa | 2.7V | 03:35:02 | 01:41:36 | 00:00:00 | |
| DL1XH-west | 2026-09-02 06:12:32 | 49.61608 | 8.21954 | 82° | 9km/h | 26106m | 4.6m/s | -49.1°C | 0% | 22.8hPa | 2.7V | 03:35:02 | 01:41:32 | 00:00:00 | |
| DK5PH-5 | 2026-09-02 06:12:32 | 49.61608 | 8.21954 | 83° | 9km/h | 26106m | 4.5m/s | -49.0°C | 3.1% | 22.7hPa | 2.7V | 03:34:00 | 01:41:32 | 00:00:00 | |
| HEMX73-11 | 2026-09-02 06:12:31 | 49.61607 | 8.21951 | 93° | 7km/h | 26101m | 5.0m/s | -49.0°C | 0.6% | 22.8hPa | 2.7V | 03:35:00 | 00:00:00 | 00:00:00 | |
| DL1XH-15 | 2026-09-02 06:12:29 | 49.61608 | 8.21949 | 6° | 4km/h | 26074m | 5.9m/s | 0°C | 0% | 0hPa | 2.7V | 03:34:45 | 01:41:26 | 00:00:00 | |
| BIOWL1-15 | 2026-09-02 06:12:28 | 49.61608 | 8.21948 | 247° | 2km/h | 26084m | 4.8m/s | -49°C | 0% | 22.8hPa | 2.6V | 03:35:02 | 01:41:28 | 00:00:00 | |
| DB0UT-7 | 2026-09-02 06:12:27 | 49.61608 | 8.21949 | 301° | 11km/h | 26080m | 4.4m/s | -49.0°C | 3.0% | 22.8hPa | 2.6V | 00:00:00 | 00:00:00 | 00:00:00 | |
| DL0LBS | 2026-09-02 06:12:26 | 49.61608 | 8.21949 | 302° | 2km/h | 26080m | 4.5m/s | -49.1°C | 0.6% | 22.9hPa | 2.6V | 03:35:00 | 00:00:00 | 00:00:00 | |
| DL1XH1-15 | 2026-09-02 06:12:25 | 49.61604 | 8.21946 | 35° | 13km/h | 26062m | 5.4m/s | -49°C | 3% | 22.9hPa | 2.6V | 03:34:47 | 01:41:24 | 00:00:00 | |
| AA1-15 | 2026-09-02 06:12:25 | 49.61606 | 8.21948 | 32° | 7km/h | 26068m | 6.2m/s | -49°C | 0% | 22.9hPa | 2.7V | 03:35:02 | 01:41:25 | 00:00:00 | |
| DL1XH-west | 2026-09-02 06:12:21 | 49.61594 | 8.21939 | 5° | 15km/h | 26047m | 5.8m/s | -49.2°C | 0% | 23hPa | 2.7V | 03:35:02 | 01:41:21 | 00:00:00 | |
| HSKMA3-T | 2026-09-02 06:12:19 | 49.61587 | 8.21942 | 328° | 15km/h | 26036m | 4.8m/s | -49°C | 0% | 23hPa | 2.6V | 03:36:44 | 01:41:19 | 00:00:00 | |
| BIOWL1-15 | 2026-09-02 06:12:17 | 49.61582 | 8.21947 | 317° | 9km/h | 26026m | 5.9m/s | -49.1°C | 0% | 23hPa | 2.6V | 03:35:02 | 01:41:17 | 00:00:00 | |
| AA1-15 | 2026-09-02 06:12:14 | 49.61578 | 8.21950 | 352° | 5km/h | 26009m | 4.8m/s | 0°C | 0% | 23.1hPa | 2.7V | 03:35:02 | 01:41:14 | 00:00:00 | |
| DL1XH-west | 2026-09-02 06:12:10 | 49.61567 | 8.21954 | 360° | 18km/h | 25987m | 5.5m/s | -49.1°C | 0% | 23.2hPa | 2.6V | 03:35:02 | 01:41:10 | 00:00:00 | |
| BIOWL1-15 | 2026-09-02 06:12:09 | 49.61553 | 8.21950 | 12° | 18km/h | 25971m | 4.5m/s | -49.1°C | 0% | 23.2hPa | 2.7V | 03:35:53 | 01:41:07 | 00:00:00 | |
| AA1-15 | 2026-09-02 06:12:04 | 49.61542 | 8.21952 | 318° | 11km/h | 25954m | 5.1m/s | 0°C | 0% | 23.3hPa | 2.6V | 18:12:15 | 01:41:04 | 00:00:00 | |
| DL1XH-west | 2026-09-02 06:11:59 | 49.61535 | 8.21959 | 21° | 11km/h | 25928m | 4.7m/s | -49.2°C | 0% | 23.4hPa | 2.6V | 03:35:53 | 01:40:59 | 00:00:00 | |
| BIOWL1-15 | 2026-09-02 06:11:58 | 49.61524 | 8.21956 | 356° | 16km/h | 25913m | 5.9m/s | -49.3°C | 0% | 23.4hPa | 2.7V | 03:35:53 | 01:40:56 | 00:00:00 | |
| DJ2DS-15 | 2026-09-02 06:11:56 | 49.61524 | 8.21956 | 355° | 16km/h | 25913m | 5.9m/s | -49.3°C | 0.6% | 23.4hPa | 2.6V | 00:00:00 | 00:00:00 | 00:00:00 | |
| DL1XH1-15 | 2026-09-02 06:11:55 | 49.61515 | 8.21958 | 349° | 18km/h | 25902m | 4.6m/s | -49.1°C | 3% | 23.5hPa | 2.6V | 03:35:17 | 01:40:54 | 00:00:00 | |
| AA1-15 | 2026-09-02 06:11:53 | 49.61511 | 8.21959 | 355° | 18km/h | 25897m | 5.8m/s | 0°C | 0% | 0hPa | 2.6V | 18:12:15 | 01:40:53 | 00:00:00 | |
| DL1XH-west | 2026-09-02 06:11:49 | 49.61495 | 8.21959 | 350° | 15km/h | 25876m | 6.1m/s | -49.2°C | 0% | 23.6hPa | 2.7V | 03:35:53 | 01:40:49 | 00:00:00 | |
| BIOWL1-15 | 2026-09-02 06:11:46 | 49.61484 | 8.21965 | 341° | 15km/h | 25860m | 5m/s | -49.4°C | 0% | 23.6hPa | 2.6V | 03:35:53 | 01:40:46 | 00:00:00 | |
| DL1XH1-15 | 2026-09-02 06:11:45 | 49.61476 | 8.21967 | 3° | 15km/h | 25848m | 5.2m/s | -49.3°C | 3% | 23.7hPa | 2.7V | 03:35:27 | 01:40:44 | 00:00:00 | |
| AA1-15 | 2026-09-02 06:11:42 | 49.61468 | 8.21967 | 355° | 16km/h | 25839m | 5.1m/s | 0°C | 0% | 0hPa | 2.6V | 18:12:15 | 01:40:42 | 00:00:00 | |
| AU51GT2 | 2026-09-02 06:11:41 | 49.61464 | 8.21968 | 344° | 18km/h | 25833m | 6.3m/s | 0°C | -1.0% | -1.0hPa | 2.7V | 00:00:00 | 00:00:00 | 00:00:00 | |
| DL1XH-15 | 2026-09-02 06:11:39 | 49.61449 | 8.21977 | 337° | 22km/h | 25816m | 6m/s | 0°C | 0% | 0hPa | 2.7V | 03:35:33 | 01:40:38 | 00:00:00 | |
| DL1XH-west | 2026-09-02 06:11:38 | 49.61449 | 8.21977 | 338° | 22km/h | 25816m | 6m/s | -49.4°C | 0% | 23.8hPa | 2.7V | 03:35:53 | 01:40:38 | 00:00:00 | |
| AZAK | 2026-09-02 06:11:37 | 49.61449 | 8.21977 | 339° | 22km/h | 25817m | 6.0m/s | 0°C | 0% | 0hPa | 2.7V | 03:35:00 | 00:00:00 | 00:00:00 | |
| BIOWL1-15 | 2026-09-02 06:11:37 | 49.61436 | 8.21984 | 338° | 16km/h | 25799m | 5.3m/s | -49.5°C | 0% | 23.9hPa | 2.6V | 03:35:53 | 01:40:35 | 00:00:00 | |
| DL1XH1-15 | 2026-09-02 06:11:35 | 49.61432 | 8.21987 | 330° | 16km/h | 25794m | 6.1m/s | -49.5°C | 3.1% | 23.9hPa | 2.7V | 03:35:37 | 01:40:34 | 00:00:00 | |
| AA1-15 | 2026-09-02 06:11:31 | 49.61423 | 8.21994 | 353° | 11km/h | 25779m | 5.8m/s | 0°C | 0% | 0hPa | 2.6V | 18:12:15 | 01:40:31 | 00:00:00 | |
| DL1XH-15 | 2026-09-02 06:11:29 | 49.61413 | 8.21990 | 17° | 16km/h | 25763m | 4.6m/s | 0°C | 0% | 0hPa | 2.7V | 03:35:43 | 01:40:28 | 00:00:00 | |
| DL1XH-west | 2026-09-02 06:11:27 | 49.61409 | 8.21988 | 7° | 18km/h | 25757m | 6m/s | -49.6°C | 0% | 24hPa | 2.7V | 03:35:53 | 01:40:27 | 00:00:00 | |
| DL1XH1-15 | 2026-09-02 06:11:25 | 49.61394 | 8.21990 | 350° | 20km/h | 25742m | 5.1m/s | -49.6°C | 3.1% | 24hPa | 2.6V | 03:35:47 | 01:40:24 | 00:00:00 | |
| BIOWL1-15 | 2026-09-02 06:11:25 | 49.61399 | 8.21989 | 350° | 20km/h | 25747m | 4.5m/s | -49.6°C | 0% | 24hPa | 2.6V | 03:35:53 | 01:40:25 | 00:00:00 | |
| DO3MHA-11 | 2026-09-02 06:11:24 | 49.61394 | 8.21990 | 351° | 13km/h | 25742m | 5.1m/s | -49.6°C | 3.1% | 24.0hPa | 2.6V | 00:00:00 | 01:40:24 | 00:00:00 | |
| DB0ND-19 | 2026-09-02 06:11:23 | 49.61385 | 8.21992 | 354° | 13km/h | 25731m | 5.0m/s | -49.7°C | 0.6% | 24.1hPa | 2.6V | 00:00:00 | 00:00:00 | 00:00:00 | |
| SONCRA | 2026-09-02 06:11:21 | 49.61380 | 8.21994 | 331° | 9km/h | 25721m | 5.1m/s | -49.8°C | 0.6% | 24.1hPa | 2.6V | 00:00:00 | 00:00:00 | 00:00:00 | |
| DJ2DS-15 | 2026-09-02 06:11:20 | 49.61380 | 8.21994 | 331° | 9km/h | 25721m | 5.1m/s | -49.8°C | 0.6% | 24.1hPa | 2.6V | 00:00:00 | 00:00:00 | 00:00:00 | |
| DL1XH-15 | 2026-09-02 06:11:19 | 49.61375 | 8.22004 | 294° | 11km/h | 25705m | 4.6m/s | 0°C | 0% | 0hPa | 2.6V | 00:00:00 | 01:40:17 | 00:00:00 | |
| DL1XH-west | 2026-09-02 06:11:16 | 49.61374 | 8.22007 | 306° | 11km/h | 25700m | 4.4m/s | -49.7°C | 0% | 24.2hPa | 2.7V | 03:36:44 | 01:40:16 | 00:00:00 | |
| DL1XH1-15 | 2026-09-02 06:11:15 | 49.61370 | 8.22010 | 5° | 9km/h | 25690m | 5.8m/s | -49.7°C | 3.2% | 24.2hPa | 2.6V | 03:35:57 | 01:40:14 | 00:00:00 | |
| BIOWL1-15 | 2026-09-02 06:11:14 | 49.61359 | 8.22009 | 335° | 11km/h | 25670m | 5.7m/s | -49.6°C | 0% | 24.3hPa | 2.7V | 03:36:44 | 01:40:10 | 00:00:00 | |
| DL1XH-west | 2026-09-02 06:11:06 | 49.61352 | 8.22025 | 288° | 13km/h | 25649m | 5.1m/s | -49.8°C | 0% | 24.4hPa | 2.6V | 03:36:44 | 01:40:06 | 00:00:00 | |
| DL1XH1-15 | 2026-09-02 06:11:05 | 49.61350 | 8.22034 | 295° | 13km/h | 25640m | 3.9m/s | -49.7°C | 3.1% | 24.4hPa | 2.7V | 03:36:07 | 01:40:04 | 00:00:00 | |
| BIOWL1-15 | 2026-09-02 06:11:03 | 49.61348 | 8.22039 | 301° | 15km/h | 25635m | 5.2m/s | -49.8°C | 0% | 24.5hPa | 2.7V | 03:36:44 | 01:40:03 | 00:00:00 | |
| DL4BBY-15 | 2026-09-02 06:11:03 | 49.61348 | 8.22039 | 301° | 13km/h | 25636m | 5.1m/s | -51.0°C | 0% | 0hPa | 2.6V | 00:00:00 | 00:00:00 | 00:00:00 | |
| DL8DAS-14 | 2026-09-02 06:11:02 | 49.61344 | 8.22048 | 313° | 13km/h | 25625m | 4.5m/s | -49.8°C | 0.6% | 24.5hPa | 2.6V | 00:00:00 | 00:00:00 | 00:00:00 | |
| DJTTGO | 2026-09-02 06:11:01 | 49.61344 | 8.22048 | 314° | 13km/h | 25625m | 4.5m/s | -49.8°C | 0.6% | 24.5hPa | 2.6V | 00:00:00 | 00:00:00 | 00:00:00 | |
| DB0UT-9 | 2026-09-02 06:11:00 | 49.61344 | 8.22048 | 314° | 13km/h | 25625m | 4.5m/s | -49.8°C | 0.6% | 24.5hPa | 2.6V | 03:36:00 | 00:00:00 | 00:00:00 | |
| DN1GJH-1 | 2026-09-02 06:10:59 | 49.61340 | 8.22052 | 6° | 7km/h | 25616m | 5.8m/s | -49.9°C | 0.6% | 24.5hPa | 2.6V | 00:00:00 | 00:00:00 | 00:00:00 | |
| DL8DAS-15 | 2026-09-02 06:10:58 | 49.61340 | 8.22052 | 6° | 7km/h | 25616m | 5.8m/s | -49.9°C | 0.6% | 24.5hPa | 2.6V | 03:36:00 | 00:00:00 | 00:00:00 | |
| DB0UT-7 | 2026-09-02 06:10:57 | 49.61337 | 8.22047 | 69° | 15km/h | 25605m | 4.5m/s | -49.9°C | 3.1% | 24.5hPa | 2.6V | 00:00:00 | 01:39:57 | 00:00:00 | |
| DL1XH1-15 | 2026-09-02 06:10:56 | 49.61333 | 8.22038 | 2° | 7km/h | 25591m | 5.8m/s | -49.9°C | 3.1% | 24.6hPa | 2.6V | 03:36:17 | 01:39:54 | 00:00:00 | |
| DL1XH-west | 2026-09-02 06:10:55 | 49.61335 | 8.22040 | 51° | 9km/h | 25596m | 4.7m/s | -50°C | 0% | 24.6hPa | 2.6V | 03:36:44 | 01:39:55 | 00:00:00 | |
| BIOWL1-15 | 2026-09-02 06:10:52 | 49.61328 | 8.22043 | 318° | 16km/h | 25580m | 4.3m/s | -50°C | 0% | 24.6hPa | 2.7V | 03:36:44 | 01:39:52 | 00:00:00 | |
| DB0ND-19 | 2026-09-02 06:10:52 | 49.61319 | 8.22055 | 328° | 11km/h | 25566m | 5.4m/s | -49.9°C | 0.6% | 24.7hPa | 2.6V | 00:00:00 | 00:00:00 | 00:00:00 | |
| SONCRA | 2026-09-02 06:10:50 | 49.61319 | 8.22055 | 328° | 11km/h | 25566m | 5.4m/s | -49.9°C | 0.6% | 24.7hPa | 2.6V | 00:00:00 | 00:00:00 | 00:00:00 | |
| DL1XH-15 | 2026-09-02 06:10:49 | 49.61319 | 8.22055 | 328° | 13km/h | 25566m | 5.4m/s | 0°C | 0% | 0hPa | 2.6V | 00:00:00 | 01:39:49 | 00:00:00 | |
| DL3AQ-11 | 2026-09-02 06:10:48 | 49.61313 | 8.22057 | 9° | 9km/h | 25556m | 4.6m/s | -50.0°C | 0.6% | 24.8hPa | 2.7V | 00:00:00 | 00:00:00 | 00:00:00 | |
| HEMX73-11 | 2026-09-02 06:10:47 | 49.61316 | 8.22057 | 351° | 11km/h | 25561m | 4.8m/s | -49.9°C | 0.6% | 24.7hPa | 2.7V | 03:36:00 | 00:00:00 | 00:00:00 | |
| SFWM-10 | 2026-09-02 06:10:46 | 49.61313 | 8.22057 | 10° | 11km/h | 25556m | 4.6m/s | -50.0°C | 0.6% | 24.8hPa | 2.7V | 03:36:00 | 00:00:00 | 00:00:00 | |
| DL1XH1-15 | 2026-09-02 06:10:45 | 49.61303 | 8.22054 | 2° | 16km/h | 25541m | 5.4m/s | -50°C | 3.1% | 24.8hPa | 2.7V | 03:36:27 | 01:39:44 | 00:00:00 | |
| DL1XH-west | 2026-09-02 06:10:45 | 49.61307 | 8.22054 | 13° | 15km/h | 25546m | 5.3m/s | -50°C | 0% | 24.8hPa | 2.7V | 03:36:44 | 01:39:45 | 00:00:00 | |
| BIOWL1-15 | 2026-09-02 06:10:43 | 49.61292 | 8.22057 | 342° | 15km/h | 25526m | 4.7m/s | -50.1°C | 0% | 24.9hPa | 2.6V | 03:36:44 | 01:39:41 | 00:00:00 | |
| DL6DJ-15 | 2026-09-02 06:10:42 | 49.61295 | 8.22055 | 344° | 15km/h | 25531m | 4.7m/s | -50.0°C | 0.6% | 24.9hPa | 2.7V | 00:00:00 | 00:00:00 | 00:00:00 | |
| DB0UT-9 | 2026-09-02 06:10:39 | 49.61289 | 8.22058 | 343° | 11km/h | 25521m | 5.9m/s | -50.1°C | 0.6% | 24.9hPa | 2.7V | 03:36:00 | 00:00:00 | 00:00:00 | |
| DN1GJH-1 | 2026-09-02 06:10:37 | 49.61283 | 8.22061 | 336° | 11km/h | 25511m | 4.1m/s | -50.2°C | 0.7% | 24.9hPa | 2.7V | 00:00:00 | 00:00:00 | 00:00:00 | |
| CB1BUN | 2026-09-02 06:10:36 | 49.61281 | 8.22064 | 333° | 15km/h | 25507m | 5.4m/s | -50.2°C | 0.6% | 24.9hPa | 2.7V | 03:36:00 | 00:00:00 | 00:00:00 | |
| DL1XH1-15 | 2026-09-02 06:10:35 | 49.61267 | 8.22072 | 346° | 24km/h | 25491m | 4.7m/s | -50.3°C | 3.2% | 25hPa | 2.7V | 03:36:37 | 01:39:34 | 00:00:00 | |
| DL1XH-west | 2026-09-02 06:10:35 | 49.61272 | 8.22070 | 338° | 22km/h | 25495m | 4.7m/s | -50.2°C | 0% | 25hPa | 2.7V | 03:36:44 | 01:39:35 | 00:00:00 | |
| BIOWL1-15 | 2026-09-02 06:10:31 | 49.61250 | 8.22074 | 4° | 22km/h | 25475m | 4.5m/s | -50.2°C | 0% | 25.1hPa | 2.6V | 03:36:44 | 01:39:31 | 00:00:00 | |
| DL8DAS-14 | 2026-09-02 06:10:31 | 49.61244 | 8.22073 | 0° | 20km/h | 25471m | 5.2m/s | -50.3°C | 0.6% | 25.1hPa | 2.6V | 00:00:00 | 00:00:00 | 00:00:00 | |
| HEMX73-11 | 2026-09-02 06:10:28 | 49.61234 | 8.22075 | 351° | 20km/h | 25461m | 4.4m/s | -50.2°C | 0.6% | 25.1hPa | 2.6V | 03:36:00 | 00:00:00 | 00:00:00 | |
| DB0UT-7 | 2026-09-02 06:10:27 | 49.61229 | 8.22076 | 351° | 15km/h | 25456m | 3.8m/s | -50.2°C | 3.2% | 25.1hPa | 2.6V | 00:00:00 | 00:00:00 | 00:00:00 | |
| DL0LBS | 2026-09-02 06:10:26 | 49.61229 | 8.22076 | 352° | 20km/h | 25456m | 3.9m/s | -50.2°C | 0.6% | 25.1hPa | 2.6V | 03:36:00 | 00:00:00 | 00:00:00 | |
| DL1XH1-15 | 2026-09-02 06:10:25 | 49.61216 | 8.22077 | 3° | 15km/h | 25440m | 4.5m/s | -50.3°C | 3.2% | 25.2hPa | 2.6V | 03:36:47 | 01:39:24 | 00:00:00 | |
| DL1XH-west | 2026-09-02 06:10:24 | 49.61216 | 8.22077 | 3° | 15km/h | 25440m | 4.6m/s | -50.3°C | 0% | 25.2hPa | 2.6V | 03:37:35 | 01:39:24 | 00:00:00 | |
| BIOWL1-15 | 2026-09-02 06:10:20 | 49.61200 | 8.22083 | 335° | 18km/h | 25421m | 4.2m/s | -50.3°C | 0% | 25.3hPa | 2.6V | 03:37:35 | 01:39:20 | 00:00:00 | |
| DJ2KF-10 | 2026-09-02 06:10:19 | 49.61195 | 8.22086 | 341° | 15km/h | 25416m | 4.7m/s | -50.4°C | 3.2% | 25.2hPa | 2.6V | 00:00:00 | 01:39:19 | 00:00:00 | |
| BIOWL9-15 | 2026-09-02 06:10:17 | 49.61186 | 8.22089 | 358° | 16km/h | 25406m | 4.7m/s | -50.5°C | 0.6% | 25.3hPa | 2.6V | 00:00:00 | 00:00:00 | 00:00:00 | |
| CB1BUN | 2026-09-02 06:10:16 | 49.61186 | 8.22089 | 360° | 18km/h | 25406m | 4.7m/s | -50.5°C | 0.6% | 25.3hPa | 2.6V | 03:37:00 | 00:00:00 | 00:00:00 | |
| DL1XH1-15 | 2026-09-02 06:10:15 | 49.61174 | 8.22090 | 345° | 15km/h | 25393m | 5.4m/s | -50.7°C | 3.3% | 25.4hPa | 2.6V | 03:36:57 | 01:39:14 | 00:00:00 | |
| DL1XH-west | 2026-09-02 06:10:14 | 49.61174 | 8.22090 | 345° | 15km/h | 25393m | 5.4m/s | -50.7°C | 0% | 25.4hPa | 2.6V | 03:37:35 | 01:39:14 | 00:00:00 | |
| BIOWL1-15 | 2026-09-02 06:10:10 | 49.61161 | 8.22098 | 346° | 15km/h | 25373m | 5.4m/s | -50.7°C | 0% | 25.5hPa | 2.7V | 03:37:35 | 01:39:10 | 00:00:00 | |
| DL1XH-west | 2026-09-02 06:10:03 | 49.61146 | 8.22108 | 359° | 7km/h | 25340m | 5.7m/s | -50.6°C | 0% | 25.6hPa | 2.7V | 03:37:35 | 01:39:03 | 00:00:00 | |
| BIOWL1-15 | 2026-09-02 06:10:00 | 49.61137 | 8.22106 | 4° | 15km/h | 25325m | 4.3m/s | -50.6°C | 0% | 25.7hPa | 2.6V | 03:37:35 | 01:39:00 | 00:00:00 | |
| DL8DAS-14 | 2026-09-02 06:10:00 | 49.61133 | 8.22106 | 348° | 15km/h | 25320m | 5.7m/s | -50.7°C | 0.6% | 25.7hPa | 2.6V | 00:00:00 | 00:00:00 | 00:00:00 | |
| DL9PN | 2026-09-02 06:09:57 | 49.61118 | 8.22123 | 314° | 18km/h | 25300m | 5.0m/s | -50.6°C | 0.6% | 25.8hPa | 2.6V | 00:00:00 | 00:00:00 | 00:00:00 | |
| DL1XH1-15 | 2026-09-02 06:09:55 | 49.61115 | 8.22128 | 308° | 18km/h | 25295m | 4.1m/s | -50.6°C | 3.3% | 25.8hPa | 2.6V | 03:37:17 | 01:38:54 | 00:00:00 | |
| HSKMA3-T | 2026-09-02 06:09:53 | 49.61112 | 8.22134 | 295° | 16km/h | 25290m | 4.3m/s | -50.7°C | 0% | 25.8hPa | 2.6V | 03:37:35 | 01:38:53 | 00:00:00 | |
| BIOWL1-15 | 2026-09-02 06:09:51 | 49.61115 | 8.22153 | 216° | 9km/h | 25271m | 3.9m/s | -50.5°C | 0% | 25.9hPa | 2.6V | 03:37:35 | 01:38:49 | 00:00:00 | |
| DB0ND-19 | 2026-09-02 06:09:49 | 49.61115 | 8.22153 | 216° | 9km/h | 25271m | 3.9m/s | -50.5°C | 0.6% | 25.9hPa | 2.6V | 00:00:00 | 00:00:00 | 00:00:00 | |
| SONCRA | 2026-09-02 06:09:48 | 49.61117 | 8.22154 | 91° | 4km/h | 25261m | 5.0m/s | -50.5°C | 0.7% | 25.9hPa | 2.6V | 00:00:00 | 00:00:00 | 00:00:00 | |
| BIOWL9-15 | 2026-09-02 06:09:46 | 49.61116 | 8.22152 | 34° | 5km/h | 25256m | 3.8m/s | -50.5°C | 0.6% | 25.9hPa | 2.6V | 00:00:00 | 00:00:00 | 00:00:00 | |
| DL1XH1-15 | 2026-09-02 06:09:45 | 49.61111 | 8.22152 | 341° | 15km/h | 25247m | 5.7m/s | -50.5°C | 3.3% | 26hPa | 2.6V | 03:37:27 | 01:38:44 | 00:00:00 | |
| DL1XH-west | 2026-09-02 06:09:42 | 49.61103 | 8.22161 | 315° | 24km/h | 25237m | 4.4m/s | -50.5°C | 0% | 26hPa | 2.6V | 03:37:35 | 01:38:42 | 00:00:00 | |
| BIOWL1-15 | 2026-09-02 06:09:38 | 49.61088 | 8.22189 | 298° | 16km/h | 25219m | 4.4m/s | -50.7°C | 0% | 26.1hPa | 2.6V | 03:37:35 | 01:38:38 | 00:00:00 | |
| DL1XH1-15 | 2026-09-02 06:09:35 | 49.61091 | 8.22205 | 212° | 11km/h | 25199m | 4.1m/s | -50.8°C | 3.3% | 26.1hPa | 2.7V | 03:37:37 | 01:38:34 | 00:00:00 | |
| DL1XH-west | 2026-09-02 06:09:32 | 49.61094 | 8.22206 | 144° | 5km/h | 25191m | 5.7m/s | -50.8°C | 0% | 26.2hPa | 2.7V | 03:38:26 | 01:38:32 | 00:00:00 | |
| BIOWL1-15 | 2026-09-02 06:09:28 | 49.61090 | 8.22202 | 331° | 9km/h | 25171m | 5.5m/s | -50.8°C | 0% | 26.3hPa | 2.7V | 03:38:26 | 01:38:28 | 00:00:00 | |
| DN1GJH-1 | 2026-09-02 06:09:27 | 49.61090 | 8.22202 | 332° | 9km/h | 25172m | 5.5m/s | -50.8°C | 0.7% | 26.3hPa | 2.6V | 00:00:00 | 00:00:00 | 00:00:00 | |
| DL1XH1-15 | 2026-09-02 06:09:25 | 49.61084 | 8.22223 | 291° | 18km/h | 25152m | 5.1m/s | -50.6°C | 3.3% | 26.3hPa | 2.6V | 03:37:47 | 01:38:24 | 00:00:00 | |
| DL1XH-west | 2026-09-02 06:09:21 | 49.61078 | 8.22236 | 312° | 9km/h | 25138m | 4m/s | -50.6°C | 0% | 26.4hPa | 2.7V | 03:38:26 | 01:38:21 | 00:00:00 | |
| BIOWL1-15 | 2026-09-02 06:09:17 | 49.61076 | 8.22246 | 252° | 4km/h | 25119m | 4.6m/s | -50.6°C | 0% | 26.5hPa | 2.6V | 03:38:26 | 01:38:17 | 00:00:00 | |
| SFWM-10 | 2026-09-02 06:09:16 | 49.61076 | 8.22246 | 252° | 4km/h | 25119m | 4.6m/s | -50.6°C | 0.6% | 26.5hPa | 2.7V | 00:00:00 | 00:00:00 | 00:00:00 | |
| DL1XH1-15 | 2026-09-02 06:09:15 | 49.61076 | 8.22246 | 33° | 2km/h | 25104m | 4m/s | -50.6°C | 3.4% | 26.5hPa | 2.7V | 03:37:57 | 01:38:14 | 00:00:00 | |
| DL1XH-west | 2026-09-02 06:09:11 | 49.61076 | 8.22251 | 268° | 9km/h | 25089m | 4.8m/s | -50.5°C | 0% | 26.6hPa | 2.6V | 03:38:26 | 01:38:11 | 00:00:00 | |
| BIOWL1-15 | 2026-09-02 06:09:06 | 49.61069 | 8.22272 | 311° | 15km/h | 25065m | 4.4m/s | -50.5°C | 0% | 26.7hPa | 2.6V | 03:38:26 | 01:38:06 | 00:00:00 | |
| DL1XH-west | 2026-09-02 06:09:00 | 49.61061 | 8.22288 | 49° | 4km/h | 25034m | 4.2m/s | -50.4°C | 0% | 26.8hPa | 2.6V | 03:38:26 | 01:38:00 | 00:00:00 | |
| BIOWL1-15 | 2026-09-02 06:08:56 | 49.61060 | 8.22291 | 283° | 9km/h | 25015m | 4.3m/s | -50.4°C | 0% | 26.9hPa | 2.7V | 03:38:26 | 01:37:56 | 00:00:00 | |
| HSKMA3-T | 2026-09-02 06:08:50 | 49.61050 | 8.22308 | 308° | 9km/h | 24987m | 4.9m/s | -50.6°C | 0% | 27hPa | 2.6V | 03:38:26 | 01:37:50 | 00:00:00 | |
| DL1XH-west | 2026-09-02 06:08:49 | 49.61049 | 8.22311 | 285° | 7km/h | 24982m | 5m/s | -50.5°C | 0% | 27.1hPa | 2.6V | 03:38:26 | 01:37:49 | 00:00:00 | |
| BIOWL1-15 | 2026-09-02 06:08:45 | 49.61051 | 8.22318 | 122° | 2km/h | 24962m | 5.9m/s | -50.7°C | 0% | 27.1hPa | 2.7V | 03:38:26 | 01:37:45 | 00:00:00 | |
| HSKMA3-T | 2026-09-02 06:08:40 | 49.61055 | 8.22311 | 178° | 4km/h | 24937m | 4.3m/s | -50.9°C | 0% | 27.2hPa | 2.7V | 03:40:08 | 01:37:40 | 00:00:00 | |
| DL1XH-west | 2026-09-02 06:08:39 | 49.61055 | 8.22311 | 196° | 2km/h | 24933m | 5.1m/s | -50.8°C | 0% | 27.3hPa | 2.7V | 03:39:17 | 01:37:39 | 00:00:00 | |
| DL6DJ-15 | 2026-09-02 06:08:38 | 49.61054 | 8.22312 | 342° | 4km/h | 24922m | 5.1m/s | -50.8°C | -1.0% | 27.3hPa | 2.7V | 00:00:00 | 00:00:00 | 00:00:00 | |
| DJTTGO | 2026-09-02 06:08:37 | 49.61055 | 8.22312 | 344° | 5km/h | 24922m | 5.1m/s | -50.8°C | 0.7% | 27.3hPa | 2.7V | 03:39:00 | 00:00:00 | 00:00:00 | |
| DL1XH1-15 | 2026-09-02 06:08:35 | 49.61051 | 8.22317 | 290° | 7km/h | 24906m | 4.7m/s | -50.7°C | 3.3% | 27.4hPa | 2.7V | 03:38:37 | 01:37:34 | 00:00:00 | |
| BIOWL1-15 | 2026-09-02 06:08:35 | 49.61052 | 8.22314 | 308° | 7km/h | 24912m | 5.7m/s | -50.7°C | 0% | 27.3hPa | 2.6V | 03:39:17 | 01:37:35 | 00:00:00 | |
| HSKMA3-T | 2026-09-02 06:08:29 | 49.61046 | 8.22320 | 44° | 7km/h | 24882m | 4.9m/s | -50.7°C | 0% | 27.5hPa | 2.7V | 03:40:08 | 01:37:29 | 00:00:00 | |
| DL1XH-west | 2026-09-02 06:08:28 | 49.61045 | 8.22319 | 65° | 5km/h | 24877m | 5.6m/s | -50.7°C | 0% | 27.5hPa | 2.7V | 03:39:17 | 01:37:28 | 00:00:00 | |
| DM0DOS-11 | 2026-09-02 06:08:27 | 49.61043 | 8.22314 | 356° | 7km/h | 24852m | 5.8m/s | -50.8°C | 3.2% | 27.6hPa | 2.6V | 03:38:48 | 01:37:23 | 00:00:00 | |
| DB0UT-7 | 2026-09-02 06:08:27 | 49.61044 | 8.22317 | 99° | 11km/h | 24871m | 5.4m/s | -50.7°C | 3.4% | 27.5hPa | 2.7V | 00:00:00 | 00:00:00 | 00:00:00 | |
| DN1GJH-1 | 2026-09-02 06:08:26 | 49.61044 | 8.22317 | 99° | 4km/h | 24871m | 5.4m/s | -50.7°C | 0.7% | 27.5hPa | 2.6V | 03:39:00 | 00:00:00 | 00:00:00 | |
| DL1XH1-15 | 2026-09-02 06:08:25 | 49.61045 | 8.22314 | 18° | 4km/h | 24857m | 5.5m/s | -50.6°C | 3.2% | 27.6hPa | 2.6V | 03:38:47 | 01:37:24 | 00:00:00 | |
| BIOWL1-15 | 2026-09-02 06:08:24 | 49.61045 | 8.22314 | 19° | 4km/h | 24857m | 5.5m/s | -50.7°C | 0% | 27.6hPa | 2.6V | 03:39:17 | 01:37:24 | 00:00:00 | |
| HSKMA3-T | 2026-09-02 06:08:18 | 49.61030 | 8.22327 | 320° | 15km/h | 24827m | 3.9m/s | -50.7°C | 0% | 27.7hPa | 2.6V | 03:40:08 | 01:37:18 | 00:00:00 | |
| DF2AP-13 | 2026-09-02 06:08:18 | 49.61030 | 8.22327 | 320° | 13km/h | 24827m | 3.9m/s | -50.7°C | 3.2% | 27.6hPa | 2.6V | 00:00:00 | 01:37:18 | 00:00:00 | |
| DM0DOS-11 | 2026-09-02 06:08:17 | 49.61016 | 8.22330 | 40° | 7km/h | 24800m | 5.8m/s | -50.6°C | 3.3% | 27.8hPa | 2.6V | 03:38:58 | 01:37:13 | 00:00:00 | |
| DL1XH-west | 2026-09-02 06:08:17 | 49.61027 | 8.22331 | 333° | 15km/h | 24822m | 5.6m/s | -50.7°C | 0% | 27.7hPa | 2.6V | 03:39:17 | 01:37:17 | 00:00:00 | |
| DL1XH1-15 | 2026-09-02 06:08:15 | 49.61018 | 8.22331 | 24° | 11km/h | 24806m | 4.9m/s | -50.6°C | 3.3% | 27.8hPa | 2.6V | 03:38:57 | 01:37:14 | 00:00:00 | |
| BIOWL1-15 | 2026-09-02 06:08:13 | 49.61016 | 8.22330 | 41° | 7km/h | 24800m | 5.8m/s | -50.7°C | 0% | 27.8hPa | 2.6V | 03:39:17 | 01:37:13 | 00:00:00 | |
| CB1BUN | 2026-09-02 06:08:12 | 49.61016 | 8.22330 | 42° | 7km/h | 24801m | 5.8m/s | -50.6°C | 0.6% | 27.8hPa | 2.7V | 03:39:00 | 00:00:00 | 00:00:00 | |
| DJTTGO | 2026-09-02 06:08:10 | 49.61014 | 8.22326 | 66° | 4km/h | 24791m | 3.9m/s | -50.7°C | 0.7% | 27.8hPa | 2.7V | 03:39:00 | 00:00:00 | 00:00:00 | |
| DD1CC8 | 2026-09-02 06:08:09 | 49.61012 | 8.22324 | 14° | 7km/h | 24781m | 5.5m/s | -50.8°C | 0.6% | 27.9hPa | 2.7V | 00:00:00 | 00:00:00 | 00:00:00 | |
| DL3AQ-11 | 2026-09-02 06:08:08 | 49.61007 | 8.22325 | 338° | 13km/h | 24771m | 4.6m/s | -51.0°C | 0.6% | 27.9hPa | 2.7V | 00:00:00 | 00:00:00 | 00:00:00 | |
| DM0DOS-11 | 2026-09-02 06:08:07 | 49.60994 | 8.22343 | 317° | 20km/h | 24751m | 4.2m/s | -51.1°C | 3.3% | 28hPa | 2.7V | 03:39:08 | 01:37:03 | 00:00:00 | |
| DL1XH-west | 2026-09-02 06:08:07 | 49.61007 | 8.22325 | 338° | 13km/h | 24771m | 4.6m/s | -51°C | 0% | 27.9hPa | 2.6V | 03:39:17 | 01:37:07 | 00:00:00 | |
| DL1XH1-15 | 2026-09-02 06:08:05 | 49.60998 | 8.22337 | 311° | 18km/h | 24755m | 4m/s | -51.1°C | 3.3% | 28hPa | 2.7V | 03:39:07 | 01:37:04 | 00:00:00 | |
| BIOWL1-15 | 2026-09-02 06:08:03 | 49.60990 | 8.22347 | 329° | 20km/h | 24746m | 5.6m/s | -51.2°C | 0% | 28.1hPa | 2.7V | 03:39:17 | 01:37:02 | 00:00:00 | |
| DL4BBY-15 | 2026-09-02 06:08:03 | 49.60994 | 8.22342 | 318° | 15km/h | 24751m | 4.1m/s | -52.4°C | 0% | 0hPa | 2.7V | 00:00:00 | 00:00:00 | 00:00:00 | |
| HEMX73-11 | 2026-09-02 06:08:02 | 49.60990 | 8.22347 | 330° | 20km/h | 24746m | 5.6m/s | -51.2°C | 0.7% | 28.1hPa | 2.7V | 03:39:00 | 00:00:00 | 00:00:00 | |
| DF1GD-15 | 2026-09-02 06:08:01 | 49.60990 | 8.22347 | 330° | 20km/h | 24746m | 5.6m/s | -51.2°C | 0.7% | 28.1hPa | 2.7V | 03:39:00 | 00:00:00 | 00:00:00 | |
| DM0DOS-11 | 2026-09-02 06:07:57 | 49.60968 | 8.22334 | 10° | 11km/h | 24700m | 5.2m/s | -51.2°C | 3.4% | 28.2hPa | 2.7V | 03:39:18 | 01:36:53 | 00:00:00 | |
| HSKMA3-T | 2026-09-02 06:07:57 | 49.60974 | 8.22344 | 64° | 9km/h | 24720m | 5.2m/s | -51.2°C | 0% | 28.2hPa | 2.7V | 03:40:08 | 01:36:57 | 00:00:00 | |
| DL1XH-west | 2026-09-02 06:07:56 | 49.60973 | 8.22341 | 69° | 9km/h | 24715m | 4m/s | -51.2°C | 0% | 28.2hPa | 2.6V | 03:39:17 | 01:36:56 | 00:00:00 | |
| DL8DAS-14 | 2026-09-02 06:07:56 | 49.60972 | 8.22337 | 58° | 7km/h | 24711m | 4.4m/s | -51.2°C | 0.7% | 28.2hPa | 2.6V | 00:00:00 | 00:00:00 | 00:00:00 | |
| DL1XH1-15 | 2026-09-02 06:07:55 | 49.60970 | 8.22335 | 35° | 9km/h | 24706m | 5.8m/s | -51.2°C | 3.4% | 28.2hPa | 2.6V | 03:39:17 | 01:36:54 | 00:00:00 | |
| BIOWL1-15 | 2026-09-02 06:07:54 | 49.60965 | 8.22334 | 351° | 11km/h | 24696m | 4.6m/s | -51.2°C | 0% | 28.2hPa | 2.7V | 03:40:08 | 01:36:52 | 00:00:00 | |
| DL9PN | 2026-09-02 06:07:52 | 49.60965 | 8.22334 | 350° | 11km/h | 24696m | 4.6m/s | -51.2°C | 0.6% | 28.2hPa | 2.6V | 00:00:00 | 00:00:00 | 00:00:00 | |
| DO1YAY-16 | 2026-09-02 06:07:51 | 49.60963 | 8.22335 | 334° | 11km/h | 24691m | 5.6m/s | -51.3°C | 0.7% | 28.3hPa | 2.6V | 00:00:00 | 00:00:00 | 00:00:00 | |
| DM3KS-11 | 2026-09-02 06:07:50 | 49.60958 | 8.22340 | 318° | 11km/h | 24680m | 4.6m/s | -51.2°C | 0.6% | 28.3hPa | 2.6V | 00:00:00 | 00:00:00 | 00:00:00 | |
| DJ2KF-10 | 2026-09-02 06:07:49 | 49.60958 | 8.22340 | 319° | 16km/h | 24680m | 4.6m/s | -51.1°C | 3.3% | 28.3hPa | 2.6V | 03:39:00 | 01:36:49 | 00:00:00 | |
| DF2AP-13 | 2026-09-02 06:07:48 | 49.60955 | 8.22343 | 329° | 18km/h | 24675m | 5.1m/s | -51.1°C | 3.3% | 28.3hPa | 2.6V | 00:00:00 | 01:36:48 | 00:00:00 | |
| DM0DOS-11 | 2026-09-02 06:07:47 | 49.60938 | 8.22347 | 1° | 9km/h | 24649m | 5.5m/s | -51.3°C | 3.4% | 28.5hPa | 2.6V | 03:39:28 | 01:36:43 | 00:00:00 | |
| DL1XH-west | 2026-09-02 06:07:46 | 49.60948 | 8.22347 | 354° | 16km/h | 24664m | 4.9m/s | -51.2°C | 0% | 28.4hPa | 2.7V | 03:40:08 | 01:36:46 | 00:00:00 | |
| DL1XH1-15 | 2026-09-02 06:07:45 | 49.60941 | 8.22347 | 1° | 13km/h | 24654m | 5.6m/s | -51.2°C | 3.3% | 28.4hPa | 2.6V | 03:39:27 | 01:36:44 | 00:00:00 | |
| HSKMA3-T | 2026-09-02 06:07:43 | 49.60938 | 8.22347 | 1° | 9km/h | 24649m | 5.5m/s | -51.3°C | 0% | 28.5hPa | 2.6V | 03:40:08 | 01:36:43 | 00:00:00 | |
| BIOWL1-15 | 2026-09-02 06:07:42 | 49.60936 | 8.22347 | 8° | 7km/h | 24643m | 4.6m/s | -51.4°C | 0% | 28.5hPa | 2.7V | 03:40:08 | 01:36:42 | 00:00:00 | |
| DL1CLM-18 | 2026-09-02 06:07:42 | 49.60936 | 8.22347 | 9° | 7km/h | 24644m | 4.6m/s | 0°C | 0% | 0hPa | 2.7V | 00:00:00 | 00:00:00 | 00:00:00 | |
| BIOWL7-15 | 2026-09-02 06:07:41 | 49.60936 | 8.22347 | 9° | 7km/h | 24644m | 4.6m/s | -51.4°C | 0.7% | 28.5hPa | 2.7V | 03:40:00 | 00:00:00 | 00:00:00 | |
| DF1GD-15 | 2026-09-02 06:07:40 | 49.60934 | 8.22346 | 15° | 7km/h | 24639m | 4.9m/s | -51.4°C | 0.7% | 28.5hPa | 2.7V | 03:40:00 | 00:00:00 | 00:00:00 | |
| DD1CC8 | 2026-09-02 06:07:38 | 49.60925 | 8.22344 | 353° | 15km/h | 24624m | 4.4m/s | -51.3°C | 0.7% | 28.6hPa | 2.7V | 00:00:00 | 00:00:00 | 00:00:00 | |
| DM0DOS-11 | 2026-09-02 06:07:37 | 49.60903 | 8.22367 | 325° | 24km/h | 24599m | 5.1m/s | -51.3°C | 3.3% | 28.7hPa | 2.7V | 03:39:38 | 01:36:33 | 00:00:00 | |
| DB0UT-9 | 2026-09-02 06:07:36 | 49.60921 | 8.22346 | 339° | 18km/h | 24619m | 5.6m/s | -51.3°C | 0.7% | 28.6hPa | 2.6V | 03:40:00 | 00:00:00 | 00:00:00 | |
| DL1XH1-15 | 2026-09-02 06:07:35 | 49.60908 | 8.22361 | 318° | 24km/h | 24603m | 3.9m/s | -51.4°C | 3.4% | 28.7hPa | 2.6V | 03:39:37 | 01:36:34 | 00:00:00 | |
| DL1XH-west | 2026-09-02 06:07:35 | 49.60912 | 8.22355 | 319° | 24km/h | 24607m | 4.7m/s | -51.4°C | 0% | 28.6hPa | 2.6V | 03:40:08 | 01:36:35 | 00:00:00 | |
| BIOWL1-15 | 2026-09-02 06:07:32 | 49.60898 | 8.22371 | 337° | 24km/h | 24593m | 5.3m/s | -51.3°C | 0% | 28.7hPa | 2.7V | 03:40:08 | 01:36:32 | 00:00:00 | |
| DK5PH-5 | 2026-09-02 06:07:32 | 49.60898 | 8.22371 | 338° | 24km/h | 24594m | 5.3m/s | -51.3°C | 3.4% | 28.7hPa | 2.7V | 00:00:00 | 01:36:32 | 00:00:00 | |
| CB1BUN | 2026-09-02 06:07:31 | 49.60898 | 8.22371 | 338° | 24km/h | 24594m | 5.3m/s | -51.3°C | 0.7% | 28.7hPa | 2.7V | 03:40:00 | 00:00:00 | 00:00:00 | |
| DM7RM-13 | 2026-09-02 06:07:29 | 49.60881 | 8.22376 | 356° | 20km/h | 24579m | 4.3m/s | -51.4°C | 0.7% | 28.8hPa | 2.7V | 03:40:00 | 00:00:00 | 00:00:00 | |
| DL3AQ-11 | 2026-09-02 06:07:28 | 49.60872 | 8.22379 | 337° | 15km/h | 24568m | 5.4m/s | -51.6°C | 0.7% | 28.8hPa | 2.7V | 00:00:00 | 00:00:00 | 00:00:00 | |
| DM0DOS-11 | 2026-09-02 06:07:27 | 49.60859 | 8.22391 | 328° | 18km/h | 24548m | 4.5m/s | -51.6°C | 3.5% | 28.9hPa | 2.7V | 03:39:48 | 01:36:23 | 00:00:00 | |
| DL1XH-west | 2026-09-02 06:07:24 | 49.60863 | 8.22387 | 329° | 15km/h | 24553m | 5.8m/s | -51.6°C | 0% | 28.9hPa | 2.7V | 03:40:08 | 01:36:24 | 00:00:00 | |
| BIOWL1-15 | 2026-09-02 06:07:22 | 49.60855 | 8.22395 | 323° | 20km/h | 24543m | 4.1m/s | -51.6°C | 0% | 28.9hPa | 2.6V | 03:40:08 | 01:36:22 | 00:00:00 | |
| HSKMA3-T | 2026-09-02 06:07:20 | 49.60846 | 8.22407 | 315° | 27km/h | 24533m | 5.9m/s | -51.5°C | 0% | 29hPa | 2.6V | 03:40:08 | 01:36:20 | 00:00:00 | |
| DM3KS-11 | 2026-09-02 06:07:19 | 49.60835 | 8.22423 | 320° | 31km/h | 24523m | 4.8m/s | -51.5°C | 0.7% | 29.1hPa | 2.6V | 00:00:00 | 00:00:00 | 00:00:00 | |
| DF2AP-13 | 2026-09-02 06:07:18 | 49.60835 | 8.22423 | 321° | 24km/h | 24523m | 4.7m/s | -51.4°C | 3.4% | 29.0hPa | 2.6V | 00:00:00 | 01:36:18 | 00:00:00 | |
| DB0UT-9 | 2026-09-02 06:07:16 | 49.60829 | 8.22430 | 329° | 31km/h | 24518m | 6.0m/s | -51.5°C | 0.7% | 29.1hPa | 2.6V | 03:40:00 | 00:00:00 | 00:00:00 | |
| DL1XH1-15 | 2026-09-02 06:07:15 | 49.60809 | 8.22443 | 338° | 26km/h | 24503m | 4m/s | -51.3°C | 3.4% | 29.1hPa | 2.6V | 03:39:57 | 01:36:14 | 00:00:00 | |
| BIOWL1-15 | 2026-09-02 06:07:13 | 49.60795 | 8.22458 | 312° | 22km/h | 24487m | 5.1m/s | -51.3°C | 0% | 29.2hPa | 2.7V | 03:40:08 | 01:36:11 | 00:00:00 | |
| DL1XH-west | 2026-09-02 06:07:13 | 49.60804 | 8.22447 | 331° | 24km/h | 24498m | 5.8m/s | -51.3°C | 0% | 29.1hPa | 2.6V | 03:40:08 | 01:36:13 | 00:00:00 | |
| HSKMA3-T | 2026-09-02 06:07:09 | 49.60787 | 8.22472 | 314° | 26km/h | 24476m | 5.8m/s | -51.3°C | 0% | 29.2hPa | 2.6V | 03:40:08 | 01:36:09 | 00:00:00 | |
| DJ2DS-15 | 2026-09-02 06:07:08 | 49.60782 | 8.22479 | 316° | 27km/h | 24471m | 4.8m/s | -51.3°C | 0.7% | 29.3hPa | 2.6V | 00:00:00 | 00:00:00 | 00:00:00 | |
| DD1CC8 | 2026-09-02 06:07:07 | 49.60777 | 8.22487 | 315° | 29km/h | 24466m | 4.6m/s | -51.3°C | 0.7% | 29.3hPa | 2.6V | 00:00:00 | 00:00:00 | 00:00:00 | |
| DL1XH1-15 | 2026-09-02 06:07:05 | 49.60762 | 8.22514 | 307° | 29km/h | 24450m | 4.7m/s | -51.2°C | 3.4% | 29.4hPa | 2.6V | 03:40:07 | 01:36:04 | 00:00:00 | |
| DL1XH-west | 2026-09-02 06:07:03 | 49.60758 | 8.22522 | 313° | 26km/h | 24445m | 4.2m/s | -51.3°C | 0% | 29.4hPa | 2.6V | 03:40:08 | 01:36:03 | 00:00:00 | |
| BIOWL1-15 | 2026-09-02 06:07:01 | 49.60748 | 8.22533 | 336° | 22km/h | 24434m | 5.7m/s | -51.3°C | 0% | 29.4hPa | 2.7V | 03:40:59 | 01:36:01 | 00:00:00 | |
| HSKMA3-T | 2026-09-02 06:06:58 | 49.60735 | 8.22539 | 342° | 15km/h | 24419m | 5.6m/s | -51.2°C | 0% | 29.5hPa | 2.6V | 03:40:59 | 01:35:58 | 00:00:00 | |
| DM0DOS-11 | 2026-09-02 06:06:57 | 49.60719 | 8.22562 | 311° | 24km/h | 24393m | 4.6m/s | -51°C | 3.3% | 29.6hPa | 2.7V | 03:40:18 | 01:35:53 | 00:00:00 | |
| DL1XH-west | 2026-09-02 06:06:53 | 49.60719 | 8.22562 | 311° | 24km/h | 24393m | 4.6m/s | -51°C | 0% | 29.6hPa | 2.7V | 03:40:59 | 01:35:53 | 00:00:00 | |
| BIOWL1-15 | 2026-09-02 06:06:52 | 49.60710 | 8.22585 | 291° | 22km/h | 24378m | 5.3m/s | -51.2°C | 0% | 29.7hPa | 2.6V | 03:40:59 | 01:35:50 | 00:00:00 | |
| HSKMA3-T | 2026-09-02 06:06:48 | 49.60706 | 8.22599 | 294° | 16km/h | 24368m | 4.7m/s | -51.2°C | 0% | 29.7hPa | 2.7V | 03:40:59 | 01:35:48 | 00:00:00 | |
| DL3AQ-11 | 2026-09-02 06:06:48 | 49.60704 | 8.22605 | 305° | 15km/h | 24363m | 6.0m/s | -51.3°C | 0.7% | 29.8hPa | 2.6V | 00:00:00 | 00:00:00 | 00:00:00 | |
| DL8DAS-15 | 2026-09-02 06:06:47 | 49.60706 | 8.22599 | 295° | 16km/h | 24369m | 4.7m/s | -51.2°C | 0.7% | 29.7hPa | 2.6V | 03:40:00 | 00:00:00 | 00:00:00 | |
| DL1XH1-15 | 2026-09-02 06:06:45 | 49.60697 | 8.22616 | 316° | 11km/h | 24348m | 5.3m/s | -51.4°C | 3.4% | 29.8hPa | 2.6V | 03:40:27 | 01:35:44 | 00:00:00 | |
| DL1XH-west | 2026-09-02 06:06:42 | 49.60694 | 8.22623 | 287° | 11km/h | 24337m | 4.9m/s | -51.3°C | 0% | 29.9hPa | 2.7V | 03:40:59 | 01:35:42 | 00:00:00 | |
| BIOWL1-15 | 2026-09-02 06:06:41 | 49.60691 | 8.22638 | 294° | 16km/h | 24321m | 4.8m/s | -51.4°C | 0% | 29.9hPa | 2.6V | 03:40:59 | 01:35:39 | 00:00:00 | |
| HEMX73-11 | 2026-09-02 06:06:40 | 49.60693 | 8.22627 | 289° | 13km/h | 24332m | 4.7m/s | -51.3°C | 0.7% | 29.9hPa | 2.6V | 03:40:00 | 00:00:00 | 00:00:00 | |
| DL0LBS | 2026-09-02 06:06:39 | 49.60692 | 8.22632 | 292° | 15km/h | 24327m | 6.0m/s | -51.3°C | 0.7% | 29.9hPa | 2.6V | 03:40:00 | 00:00:00 | 00:00:00 | |
| DL8DAS-15 | 2026-09-02 06:06:37 | 49.60689 | 8.22644 | 288° | 18km/h | 24317m | 4.4m/s | -51.6°C | 0.7% | 30.0hPa | 2.6V | 03:40:00 | 00:00:00 | 00:00:00 | |
| DL1XH-15 | 2026-09-02 06:06:36 | 49.60690 | 8.22685 | 257° | 4km/h | 24280m | 4.2m/s | 0°C | 0% | 0hPa | 2.6V | 00:00:00 | 01:35:31 | 00:00:00 | |
| HSKMA3-T | 2026-09-02 06:06:36 | 49.60688 | 8.22659 | 268° | 20km/h | 24306m | 5.9m/s | -51.5°C | 0% | 30hPa | 2.7V | 03:40:59 | 01:35:36 | 00:00:00 | |
| DL1XH1-15 | 2026-09-02 06:06:35 | 49.60689 | 8.22673 | 259° | 16km/h | 24296m | 4.8m/s | -51.5°C | 3.4% | 30.1hPa | 2.7V | 03:40:37 | 01:35:34 | 00:00:00 | |
| DL1XH-west | 2026-09-02 06:06:31 | 49.60690 | 8.22685 | 257° | 4km/h | 24280m | 4.2m/s | -51.5°C | 0% | 30.1hPa | 2.6V | 03:40:59 | 01:35:31 | 00:00:00 | |
| BIOWL1-15 | 2026-09-02 06:06:28 | 49.60694 | 8.22690 | 211° | 9km/h | 24265m | 5.2m/s | -51.5°C | 0% | 30.2hPa | 2.6V | 03:40:59 | 01:35:28 | 00:00:00 | |
| DM0DOS-11 | 2026-09-02 06:06:27 | 49.60701 | 8.22707 | 245° | 15km/h | 24240m | 4.9m/s | -51.7°C | 3.4% | 30.3hPa | 2.6V | 03:40:48 | 01:35:23 | 00:00:00 | |
| HSKMA3-T | 2026-09-02 06:06:26 | 49.60698 | 8.22695 | 232° | 11km/h | 24255m | 5.7m/s | -51.6°C | 0% | 30.3hPa | 2.6V | 03:40:59 | 01:35:26 | 00:00:00 | |
| DL1XH1-15 | 2026-09-02 06:06:25 | 49.60700 | 8.22703 | 250° | 13km/h | 24244m | 4.8m/s | -51.6°C | 3.4% | 30.3hPa | 2.7V | 03:40:47 | 01:35:24 | 00:00:00 | |
| DL1XH-west | 2026-09-02 06:06:21 | 49.60706 | 8.22718 | 227° | 18km/h | 24229m | 4.6m/s | -51.8°C | 0% | 30.4hPa | 2.7V | 03:40:59 | 01:35:21 | 00:00:00 | |
| BIOWL1-15 | 2026-09-02 06:06:18 | 49.60714 | 8.22729 | 203° | 9km/h | 24214m | 5.8m/s | -51.9°C | 0% | 30.5hPa | 2.6V | 03:40:59 | 01:35:18 | 00:00:00 | |
| DF1GD-15 | 2026-09-02 06:06:18 | 49.60714 | 8.22729 | 204° | 9km/h | 24215m | 5.8m/s | -51.9°C | 0.8% | 30.5hPa | 2.6V | 03:40:00 | 00:00:00 | 00:00:00 | |
| DM0DOS-11 | 2026-09-02 06:06:17 | 49.60724 | 8.22732 | 227° | 5km/h | 24189m | 4.5m/s | -51.9°C | 3.5% | 30.6hPa | 2.6V | 03:40:58 | 01:35:13 | 00:00:00 | |
| DL1XH1-15 | 2026-09-02 06:06:15 | 49.60722 | 8.22731 | 199° | 7km/h | 24194m | 4.3m/s | -52°C | 3.5% | 30.5hPa | 2.6V | 03:40:57 | 01:35:14 | 00:00:00 | |
| HSKMA3-T | 2026-09-02 06:06:15 | 49.60720 | 8.22730 | 186° | 9km/h | 24198m | 5.5m/s | -52.1°C | 0% | 30.6hPa | 2.7V | 03:40:59 | 01:35:15 | 00:00:00 | |
| DL1XH-west | 2026-09-02 06:06:11 | 49.60724 | 8.22737 | 289° | 11km/h | 24178m | 5.2m/s | -52°C | 0% | 30.6hPa | 2.7V | 03:41:50 | 01:35:11 | 00:00:00 | |
| BIOWL1-15 | 2026-09-02 06:06:09 | 49.60722 | 8.22762 | 260° | 20km/h | 24158m | 4.1m/s | -52°C | 0% | 30.7hPa | 2.6V | 03:41:50 | 01:35:07 | 00:00:00 | |
| BIOWL9-15 | 2026-09-02 06:06:09 | 49.60722 | 8.22755 | 266° | 18km/h | 24163m | 5.5m/s | -51.9°C | 0.7% | 30.7hPa | 2.7V | 00:00:00 | 00:00:00 | 00:00:00 | |
| DM0DOS-11 | 2026-09-02 06:06:07 | 49.60724 | 8.22782 | 277° | 5km/h | 24138m | 4.9m/s | -52.1°C | 3.4% | 30.8hPa | 2.7V | 03:41:08 | 01:35:03 | 00:00:00 | |
| HSKMA3-T | 2026-09-02 06:06:04 | 49.60724 | 8.22779 | 269° | 7km/h | 24144m | 5.4m/s | -52°C | 0% | 30.8hPa | 2.7V | 03:45:14 | 01:35:04 | 00:00:00 | |
| DL1XH-west | 2026-09-02 06:06:00 | 49.60725 | 8.22785 | 242° | 4km/h | 24123m | 5m/s | -52.2°C | 0% | 30.9hPa | 2.6V | 03:41:50 | 01:35:00 | 00:00:00 | |
| BIOWL1-15 | 2026-09-02 06:05:58 | 49.60721 | 8.22798 | 310° | 15km/h | 24104m | 5.3m/s | -52.3°C | 0% | 31hPa | 2.6V | 03:41:50 | 01:34:56 | 00:00:00 | |
| DM0DOS-11 | 2026-09-02 06:05:57 | 49.60714 | 8.22816 | 287° | 20km/h | 24089m | 5.8m/s | -52.5°C | 3.7% | 31hPa | 2.7V | 03:41:18 | 01:34:53 | 00:00:00 | |
| HSKMA3-T | 2026-09-02 06:05:53 | 49.60715 | 8.22816 | 287° | 20km/h | 24089m | 5.9m/s | -52.5°C | 0% | 31.1hPa | 2.7V | 03:45:14 | 01:34:53 | 00:00:00 | |
| DL1XH-west | 2026-09-02 06:05:49 | 49.60712 | 8.22847 | 282° | 18km/h | 24068m | 5m/s | -52.3°C | 0% | 31.2hPa | 2.6V | 03:41:50 | 01:34:49 | 00:00:00 | |
| DJ2KF-10 | 2026-09-02 06:05:49 | 49.60712 | 8.22847 | 282° | 18km/h | 24068m | 5.0m/s | -52.2°C | 3.6% | 31.1hPa | 2.6V | 03:41:00 | 01:34:49 | 00:00:00 | |
| DF2AP-13 | 2026-09-02 06:05:48 | 49.60711 | 8.22854 | 284° | 18km/h | 24064m | 4.0m/s | -52.2°C | 3.6% | 31.1hPa | 2.7V | 00:00:00 | 01:34:48 | 00:00:00 | |
| DM7RM-13 | 2026-09-02 06:05:47 | 49.60710 | 8.22861 | 280° | 18km/h | 24059m | 5.2m/s | -52.3°C | 0.8% | 31.2hPa | 2.7V | 03:41:00 | 00:00:00 | 00:00:00 | |
| DL1XH1-15 | 2026-09-02 06:05:45 | 49.60709 | 8.22882 | 279° | 16km/h | 24043m | 4.6m/s | -52.2°C | 3.5% | 31.3hPa | 2.7V | 03:41:27 | 01:34:44 | 00:00:00 | |
| BIOWL1-15 | 2026-09-02 06:05:45 | 49.60709 | 8.22875 | 274° | 18km/h | 24048m | 4.5m/s | -52.2°C | 0% | 31.2hPa | 2.7V | 03:41:50 | 01:34:45 | 00:00:00 | |
| BIOWL1-15 | 2026-09-02 06:05:39 | 49.60715 | 8.22932 | 248° | 16km/h | 23998m | 4.9m/s | -52.1°C | 0% | 31.5hPa | 2.7V | 03:41:50 | 01:34:35 | 00:00:00 | |
| DL1XH-west | 2026-09-02 06:05:39 | 49.60706 | 8.22908 | 248° | 16km/h | 24018m | 5.5m/s | -52.2°C | 0% | 31.4hPa | 2.7V | 03:41:50 | 01:34:39 | 00:00:00 | |
| DH7VM-15 | 2026-09-02 06:05:38 | 49.60708 | 8.22914 | 240° | 18km/h | 24013m | 4.7m/s | -52.2°C | 0.7% | 31.4hPa | 2.7V | 00:00:00 | 00:00:00 | 00:00:00 | |
| DL1XH1-15 | 2026-09-02 06:05:35 | 49.60716 | 8.22939 | 252° | 16km/h | 23994m | 4.3m/s | -52°C | 3.6% | 31.5hPa | 2.7V | 03:41:37 | 01:34:34 | 00:00:00 | |
| DL1XH-west | 2026-09-02 06:05:28 | 49.60725 | 8.22981 | 260° | 16km/h | 23964m | 5.6m/s | -52°C | 0% | 31.7hPa | 2.6V | 03:41:50 | 01:34:28 | 00:00:00 | |
| DL3AQ-11 | 2026-09-02 06:05:28 | 49.60726 | 8.22986 | 254° | 13km/h | 23959m | 4.2m/s | -52.0°C | 0.7% | 31.7hPa | 2.6V | 00:00:00 | 00:00:00 | 00:00:00 | |
| DM0DOS-11 | 2026-09-02 06:05:27 | 49.60737 | 8.23001 | 200° | 22km/h | 23940m | 4.5m/s | -52°C | 3.3% | 31.8hPa | 2.6V | 03:41:48 | 01:34:23 | 00:00:00 | |
| BIOWL1-15 | 2026-09-02 06:05:26 | 49.60733 | 8.22998 | 206° | 18km/h | 23945m | 5.5m/s | -52°C | 0% | 31.8hPa | 2.6V | 03:41:50 | 01:34:24 | 00:00:00 | |
| DL1XH1-15 | 2026-09-02 06:05:25 | 49.60733 | 8.22998 | 206° | 18km/h | 23945m | 5.5m/s | -52°C | 3.4% | 31.7hPa | 2.6V | 03:41:47 | 01:34:24 | 00:00:00 | |
| DL1XH-west | 2026-09-02 06:05:18 | 49.60761 | 8.23017 | 214° | 22km/h | 23916m | 4.8m/s | -52.1°C | 0% | 31.9hPa | 2.6V | 03:42:41 | 01:34:18 | 00:00:00 | |
| DF2AP-13 | 2026-09-02 06:05:18 | 49.60761 | 8.23017 | 214° | 22km/h | 23916m | 4.8m/s | -52.1°C | 3.6% | 31.8hPa | 2.6V | 00:00:00 | 01:34:18 | 00:00:00 | |
| DM0DOS-11 | 2026-09-02 06:05:17 | 49.60783 | 8.23043 | 218° | 15km/h | 23892m | 5.8m/s | -52.2°C | 3.5% | 32hPa | 2.7V | 03:41:58 | 01:34:13 | 00:00:00 | |
| BIOWL1-15 | 2026-09-02 06:05:13 | 49.60783 | 8.23043 | 219° | 15km/h | 23892m | 5.8m/s | -52.2°C | 0% | 32hPa | 2.7V | 03:42:41 | 01:34:13 | 00:00:00 | |
| DL1XH-west | 2026-09-02 06:05:07 | 49.60804 | 8.23060 | 207° | 27km/h | 23863m | 4.3m/s | -52.4°C | 0% | 32.2hPa | 2.7V | 03:42:41 | 01:34:07 | 00:00:00 | |
| DM0DOS-11 | 2026-09-02 06:05:07 | 49.60828 | 8.23078 | 203° | 26km/h | 23844m | 4.5m/s | -52.4°C | 3.6% | 32.2hPa | 2.7V | 03:42:08 | 01:34:03 | 00:00:00 | |
| DL1XH1-15 | 2026-09-02 06:05:05 | 49.60822 | 8.23074 | 204° | 26km/h | 23848m | 5m/s | -52.4°C | 3.6% | 32.2hPa | 2.6V | 03:42:07 | 01:34:04 | 00:00:00 | |
| BIOWL1-15 | 2026-09-02 06:05:02 | 49.60834 | 8.23082 | 201° | 26km/h | 23839m | 5m/s | -52.4°C | 0% | 32.3hPa | 2.7V | 03:42:41 | 01:34:02 | 00:00:00 | |
| HSKMA3-T | 2026-09-02 06:04:59 | 49.60853 | 8.23091 | 195° | 22km/h | 23824m | 4.1m/s | -52.5°C | 0% | 32.4hPa | 2.6V | 03:45:14 | 01:33:59 | 00:00:00 | |
| AU51GT2 | 2026-09-02 06:04:58 | 49.60928 | 8.23090 | 174° | 26km/h | 23755m | 5.3m/s | 0°C | -1.0% | -1.0hPa | 2.6V | 00:00:00 | 00:00:00 | 00:00:00 | |
| DM0DOS-11 | 2026-09-02 06:04:57 | 49.60877 | 8.23096 | 189° | 22km/h | 23794m | 4.6m/s | -52.6°C | 3.5% | 32.5hPa | 2.6V | 03:42:18 | 01:33:53 | 00:00:00 | |
| DL1XH-west | 2026-09-02 06:04:56 | 49.60865 | 8.23094 | 181° | 13km/h | 23809m | 4.1m/s | -52.5°C | 0% | 32.4hPa | 2.7V | 03:42:41 | 01:33:56 | 00:00:00 | |
| DF7PN | 2026-09-02 06:04:56 | 49.60882 | 8.23097 | 187° | 24km/h | 23790m | 4.2m/s | -52.6°C | 0.7% | 32.5hPa | 2.7V | 00:00:00 | 00:00:00 | 00:00:00 | |
| DL1XH1-15 | 2026-09-02 06:04:55 | 49.60872 | 8.23095 | 188° | 16km/h | 23799m | 5.7m/s | -52.6°C | 3.5% | 32.5hPa | 2.7V | 03:42:17 | 01:33:54 | 00:00:00 | |
| BIOWL1-15 | 2026-09-02 06:04:52 | 49.60882 | 8.23097 | 187° | 24km/h | 23790m | 4.2m/s | -52.6°C | 0% | 32.5hPa | 2.6V | 03:42:41 | 01:33:52 | 00:00:00 | |
| DL8DAS-14 | 2026-09-02 06:04:49 | 49.60902 | 8.23097 | 171° | 26km/h | 23775m | 5.3m/s | -52.8°C | 0.8% | 32.6hPa | 2.6V | 00:00:00 | 00:00:00 | 00:00:00 | |
| DL3AQ-11 | 2026-09-02 06:04:48 | 49.60915 | 8.23093 | 168° | 26km/h | 23765m | 4.5m/s | -52.8°C | 0.8% | 32.7hPa | 2.6V | 00:00:00 | 00:00:00 | 00:00:00 | |
| DM0DOS-11 | 2026-09-02 06:04:47 | 49.60940 | 8.23088 | 165° | 22km/h | 23746m | 4.8m/s | -52.9°C | 3.7% | 32.7hPa | 2.6V | 03:42:28 | 01:33:43 | 00:00:00 | |
| DL9PN | 2026-09-02 06:04:46 | 49.60921 | 8.23092 | 171° | 26km/h | 23760m | 5.5m/s | -52.9°C | 0.8% | 32.7hPa | 2.7V | 00:00:00 | 00:00:00 | 00:00:00 | |
| DL1XH1-15 | 2026-09-02 06:04:45 | 49.60934 | 8.23089 | 173° | 24km/h | 23750m | 4.2m/s | -52.9°C | 3.7% | 32.7hPa | 2.7V | 03:42:27 | 01:33:44 | 00:00:00 | |
| DL1XH-west | 2026-09-02 06:04:45 | 49.60928 | 8.23090 | 175° | 26km/h | 23755m | 5.3m/s | -52.9°C | 0% | 32.7hPa | 2.7V | 03:42:41 | 01:33:45 | 00:00:00 | |
| BIOWL1-15 | 2026-09-02 06:04:43 | 49.60948 | 8.23081 | 140° | 18km/h | 23735m | 5.3m/s | -53°C | 0% | 32.8hPa | 2.7V | 03:42:41 | 01:33:41 | 00:00:00 | |
| DJ2DS-15 | 2026-09-02 06:04:43 | 49.60940 | 8.23088 | 166° | 22km/h | 23746m | 4.7m/s | -52.9°C | 3.7% | 32.7hPa | 2.6V | 00:00:00 | 01:33:43 | 00:00:00 | |
| DN1GJH-1 | 2026-09-02 06:04:40 | 49.60948 | 8.23081 | 141° | 18km/h | 23735m | 5.3m/s | -53.0°C | 0.8% | 32.8hPa | 2.6V | 00:00:00 | 00:00:00 | 00:00:00 | |
| DB0ND-19 | 2026-09-02 06:04:39 | 49.60955 | 8.23072 | 137° | 16km/h | 23725m | 5.7m/s | -53.0°C | 0.8% | 32.8hPa | 2.6V | 00:00:00 | 00:00:00 | 00:00:00 | |
| DM0DOS-11 | 2026-09-02 06:04:37 | 49.60978 | 8.23050 | 159° | 20km/h | 23694m | 4.4m/s | -52.9°C | 3.6% | 33hPa | 2.6V | 03:42:38 | 01:33:33 | 00:00:00 | |
| HSKMA3-T | 2026-09-02 06:04:35 | 49.60969 | 8.23057 | 148° | 18km/h | 23704m | 5.5m/s | -52.9°C | 0% | 33hPa | 2.7V | 03:45:14 | 01:33:35 | 00:00:00 | |
| DL1XH-west | 2026-09-02 06:04:34 | 49.60974 | 8.23053 | 152° | 20km/h | 23699m | 4.5m/s | -52.9°C | 0% | 33hPa | 2.6V | 03:42:41 | 01:33:34 | 00:00:00 | |
| BIOWL1-15 | 2026-09-02 06:04:30 | 49.60995 | 8.23044 | 164° | 26km/h | 23680m | 3.7m/s | -52.9°C | 0% | 33.1hPa | 2.6V | 03:42:41 | 01:33:30 | 00:00:00 | |
| DL6DJ-15 | 2026-09-02 06:04:29 | 49.61001 | 8.23040 | 154° | 26km/h | 23676m | 5.3m/s | 0°C | -1.0% | -1.0hPa | 2.6V | 00:00:00 | 00:00:00 | 00:00:00 | |
| DB0UT-7 | 2026-09-02 06:04:27 | 49.61012 | 8.23027 | 133° | 18km/h | 23665m | 4.8m/s | -52.9°C | 3.7% | 33.1hPa | 2.6V | 00:00:00 | 00:00:00 | 00:00:00 | |
| DL1XH1-15 | 2026-09-02 06:04:25 | 49.61026 | 8.23002 | 133° | 26km/h | 23651m | 5.5m/s | -53°C | 3.7% | 33.2hPa | 2.6V | 03:42:47 | 01:33:24 | 00:00:00 | |
| DL1XH-west | 2026-09-02 06:04:23 | 49.61030 | 8.22995 | 140° | 22km/h | 23645m | 4.9m/s | -53.1°C | 0% | 33.3hPa | 2.6V | 03:43:32 | 01:33:23 | 00:00:00 | |
| BIOWL1-15 | 2026-09-02 06:04:21 | 49.61045 | 8.22975 | 131° | 20km/h | 23626m | 5m/s | -53.1°C | 0.1% | 33.4hPa | 2.6V | 03:43:32 | 01:33:19 | 00:00:00 | |
| DJ2KF-10 | 2026-09-02 06:04:19 | 49.61045 | 8.22975 | 131° | 16km/h | 23626m | 5.0m/s | -53.0°C | 3.8% | 33.3hPa | 2.6V | 00:00:00 | 01:33:19 | 00:00:00 | |
| HEMX73-11 | 2026-09-02 06:04:18 | 49.61048 | 8.22969 | 132° | 20km/h | 23621m | 4.5m/s | -53.2°C | 0.8% | 33.4hPa | 2.7V | 03:43:00 | 00:00:00 | 00:00:00 | |
| DN1GJH-1 | 2026-09-02 06:04:17 | 49.61048 | 8.22969 | 132° | 20km/h | 23621m | 4.5m/s | -53.2°C | 0.8% | 33.4hPa | 2.7V | 03:43:00 | 00:00:00 | 00:00:00 | |
| DL8DAS-15 | 2026-09-02 06:04:16 | 49.61052 | 8.22963 | 137° | 22km/h | 23616m | 5.4m/s | -53.1°C | 0.8% | 33.4hPa | 2.7V | 03:43:00 | 00:00:00 | 00:00:00 | |
| DL1XH1-15 | 2026-09-02 06:04:15 | 49.61066 | 8.22943 | 133° | 29km/h | 23601m | 5.1m/s | -53.1°C | 3.8% | 33.5hPa | 2.7V | 03:42:57 | 01:33:14 | 00:00:00 | |
| DL1XH-west | 2026-09-02 06:04:12 | 49.61076 | 8.22925 | 123° | 31km/h | 23590m | 4.6m/s | -53.1°C | 0% | 33.5hPa | 2.6V | 03:43:32 | 01:33:12 | 00:00:00 | |
| BIOWL1-15 | 2026-09-02 06:04:08 | 49.61089 | 8.22895 | 131° | 11km/h | 23571m | 4.7m/s | -53°C | 0% | 33.6hPa | 2.7V | 03:43:32 | 01:33:08 | 00:00:00 | |
| DL3AQ-11 | 2026-09-02 06:04:08 | 49.61090 | 8.22892 | 124° | 5km/h | 23566m | 4.9m/s | -53.0°C | 0.8% | 33.7hPa | 2.7V | 00:00:00 | 00:00:00 | 00:00:00 | |
| DM0DOS-11 | 2026-09-02 06:04:07 | 49.61092 | 8.22883 | 123° | 7km/h | 23547m | 4.9m/s | -53.1°C | 3.6% | 33.8hPa | 2.7V | 03:43:08 | 01:33:03 | 00:00:00 | |
| DL8DAS-15 | 2026-09-02 06:04:06 | 49.61090 | 8.22892 | 125° | 7km/h | 23566m | 4.9m/s | -53.0°C | 0.8% | 33.7hPa | 2.7V | 03:43:00 | 00:00:00 | 00:00:00 | |
| DL1XH1-15 | 2026-09-02 06:04:05 | 49.61091 | 8.22886 | 99° | 7km/h | 23551m | 4.3m/s | -53.1°C | 3.6% | 33.8hPa | 2.7V | 03:43:07 | 01:33:04 | 00:00:00 | |
| DL1XH-west | 2026-09-02 06:04:02 | 49.61093 | 8.22880 | 139° | 11km/h | 23542m | 5.4m/s | -53.2°C | 0% | 33.8hPa | 2.7V | 03:43:32 | 01:33:02 | 00:00:00 | |
| BIOWL1-15 | 2026-09-02 06:04:02 | 49.61105 | 8.22863 | 122° | 18km/h | 23522m | 5.4m/s | -53.1°C | 0% | 33.9hPa | 2.6V | 03:43:32 | 01:32:58 | 00:00:00 | |
| HSKMA3-T | 2026-09-02 06:04:00 | 49.61099 | 8.22874 | 140° | 16km/h | 23532m | 4.1m/s | -53.1°C | 0% | 33.9hPa | 2.6V | 03:45:14 | 01:33:00 | 00:00:00 | |
| DF3TZ-5 | 2026-09-02 06:03:59 | 49.61107 | 8.22857 | 118° | 16km/h | 23517m | 4.3m/s | -53.1°C | 0.8% | 33.9hPa | 2.6V | 00:00:00 | 00:00:00 | 00:00:00 | |
| DJTTGO | 2026-09-02 06:03:58 | 49.61102 | 8.22869 | 132° | 18km/h | 23528m | 5.3m/s | -53.1°C | 0.8% | 33.9hPa | 2.6V | 03:43:00 | 00:00:00 | 00:00:00 | |
| DM0DOS-11 | 2026-09-02 06:03:57 | 49.61117 | 8.22842 | 171° | 13km/h | 23498m | 4.4m/s | -53°C | 3.7% | 34hPa | 2.6V | 03:43:18 | 01:32:53 | 00:00:00 | |
| DB0UT-7 | 2026-09-02 06:03:57 | 49.61107 | 8.22857 | 119° | 9km/h | 23517m | 4.3m/s | -53.1°C | 3.7% | 33.9hPa | 2.7V | 03:43:00 | 01:32:57 | 00:00:00 | |
| HEMX73-11 | 2026-09-02 06:03:56 | 49.61107 | 8.22857 | 119° | 18km/h | 23517m | 4.3m/s | -53.1°C | 0.8% | 33.9hPa | 2.6V | 03:43:00 | 00:00:00 | 00:00:00 | |
| DL1XH1-15 | 2026-09-02 06:03:55 | 49.61114 | 8.22844 | 155° | 13km/h | 23503m | 5.3m/s | -53°C | 3.7% | 34hPa | 2.6V | 03:43:17 | 01:32:54 | 00:00:00 | |
| DL1XH-west | 2026-09-02 06:03:51 | 49.61124 | 8.22841 | 170° | 13km/h | 23489m | 5.4m/s | -53.2°C | 0% | 34.1hPa | 2.7V | 03:43:32 | 01:32:51 | 00:00:00 | |
| DB0UT-9 | 2026-09-02 06:03:50 | 49.61124 | 8.22841 | 170° | 13km/h | 23489m | 5.4m/s | -53.1°C | 0.8% | 34.1hPa | 2.6V | 03:43:00 | 00:00:00 | 00:00:00 | |
| DJ2KF-10 | 2026-09-02 06:03:49 | 49.61130 | 8.22837 | 154° | 9km/h | 23479m | 4.3m/s | -53.3°C | 3.8% | 34.1hPa | 2.6V | 03:43:00 | 01:32:49 | 00:00:00 | |
| DF2AP-13 | 2026-09-02 06:03:48 | 49.61134 | 8.22835 | 154° | 9km/h | 23474m | 5.0m/s | 0°C | 0% | 0hPa | 2.6V | 00:00:00 | 01:32:48 | 00:00:00 | |
| DM0DOS-11 | 2026-09-02 06:03:47 | 49.61143 | 8.22824 | 93° | 7km/h | 23448m | 5m/s | -53.3°C | 3.8% | 34.3hPa | 2.6V | 03:43:28 | 01:32:43 | 00:00:00 | |
| BIOWL1-15 | 2026-09-02 06:03:47 | 49.61137 | 8.22833 | 158° | 13km/h | 23469m | 5.7m/s | -53.2°C | 0% | 34.2hPa | 2.6V | 03:43:32 | 01:32:47 | 00:00:00 | |
| DL1XH-west | 2026-09-02 06:03:40 | 49.61143 | 8.22821 | 247° | 4km/h | 23435m | 5.8m/s | -53.1°C | 0% | 34.4hPa | 2.6V | 03:43:32 | 01:32:40 | 00:00:00 | |
| DL8DAS-15 | 2026-09-02 06:03:38 | 49.61144 | 8.22824 | 243° | 11km/h | 23429m | 5.4m/s | -53.2°C | 0.8% | 34.4hPa | 2.7V | 03:43:00 | 00:00:00 | 00:00:00 | |
| DM0DOS-11 | 2026-09-02 06:03:37 | 49.61157 | 8.22839 | 188° | 4km/h | 23400m | 5m/s | -53.3°C | 3.7% | 34.6hPa | 2.7V | 03:43:38 | 01:32:33 | 00:00:00 | |
| BIOWL1-15 | 2026-09-02 06:03:37 | 49.61148 | 8.22832 | 226° | 15km/h | 23419m | 4.7m/s | -53.2°C | 0% | 34.5hPa | 2.7V | 03:44:23 | 01:32:37 | 00:00:00 | |
| DL1XH-west | 2026-09-02 06:03:29 | 49.61159 | 8.22842 | 171° | 2km/h | 23381m | 4.4m/s | -53.3°C | 0% | 34.7hPa | 2.6V | 03:44:23 | 01:32:29 | 00:00:00 | |
| DL3AQ-11 | 2026-09-02 06:03:28 | 49.61162 | 8.22839 | 145° | 11km/h | 23371m | 5.4m/s | -53.3°C | 0.8% | 34.7hPa | 2.6V | 00:00:00 | 00:00:00 | 00:00:00 | |
| DM0DOS-11 | 2026-09-02 06:03:27 | 49.61174 | 8.22835 | 196° | 11km/h | 23350m | 4.9m/s | -53.3°C | 3.7% | 34.8hPa | 2.6V | 03:43:48 | 01:32:23 | 00:00:00 | |
| BIOWL1-15 | 2026-09-02 06:03:27 | 49.61162 | 8.22839 | 146° | 11km/h | 23371m | 5.4m/s | -53.3°C | 0% | 34.7hPa | 2.7V | 03:44:23 | 01:32:27 | 00:00:00 | |
| DB0UT-7 | 2026-09-02 06:03:27 | 49.61162 | 8.22839 | 146° | 11km/h | 23371m | 5.4m/s | -53.2°C | 3.7% | 34.7hPa | 2.6V | 00:00:00 | 00:00:00 | 00:00:00 | |
| DO3MHA-11 | 2026-09-02 06:03:24 | 49.61171 | 8.22834 | 179° | 7km/h | 23355m | 5.9m/s | -53.3°C | 3.8% | 34.7hPa | 2.6V | 00:00:00 | 01:32:24 | 00:00:00 | |
| DJ2DS-15 | 2026-09-02 06:03:23 | 49.61174 | 8.22834 | 197° | 11km/h | 23350m | 4.9m/s | -53.3°C | 3.7% | 34.8hPa | 2.6V | 00:00:00 | 01:32:23 | 00:00:00 | |
| DM7RM-13 | 2026-09-02 06:03:22 | 49.61176 | 8.22836 | 212° | 9km/h | 23345m | 3.8m/s | -53.4°C | 0.8% | 34.9hPa | 2.7V | 03:44:00 | 00:00:00 | 00:00:00 | |
| DL1XH1-15 | 2026-09-02 06:03:19 | 49.61175 | 8.22830 | 95° | 11km/h | 23304m | 5.7m/s | -53.4°C | 3.8% | 35.1hPa | 2.7V | 03:43:57 | 01:32:14 | 00:00:00 | |
| DL1XH-west | 2026-09-02 06:03:19 | 49.61180 | 8.22839 | 75° | 2km/h | 23330m | 4.9m/s | -53.4°C | 0% | 34.9hPa | 2.7V | 03:44:23 | 01:32:19 | 00:00:00 | |
| BIOWL1-15 | 2026-09-02 06:03:16 | 49.61176 | 8.22836 | 33° | 7km/h | 23314m | 4.8m/s | -53.3°C | 0% | 35hPa | 2.6V | 03:44:23 | 01:32:16 | 00:00:00 | |
| DL1XH-west | 2026-09-02 06:03:09 | 49.61192 | 8.22809 | 170° | 18km/h | 23279m | 5.3m/s | -53.6°C | 0.1% | 35.2hPa | 2.7V | 03:44:23 | 01:32:09 | 00:00:00 | |
| DM0DOS-11 | 2026-09-02 06:03:07 | 49.61206 | 8.22808 | 66° | 2km/h | 23250m | 4.6m/s | -53.5°C | 3.8% | 35.4hPa | 2.7V | 03:44:08 | 01:32:03 | 00:00:00 | |
| BIOWL1-15 | 2026-09-02 06:03:06 | 49.61205 | 8.22809 | 167° | 7km/h | 23259m | 5m/s | -53.6°C | 0.1% | 35.3hPa | 2.6V | 03:44:23 | 01:32:05 | 00:00:00 | |
| DL1XH1-15 | 2026-09-02 06:03:05 | 49.61206 | 8.22809 | 136° | 4km/h | 23254m | 4.6m/s | -53.6°C | 3.9% | 35.4hPa | 2.6V | 03:44:07 | 01:32:04 | 00:00:00 | |
| HSKMA3-T | 2026-09-02 06:03:02 | 49.61206 | 8.22807 | 18° | 4km/h | 23244m | 5.9m/s | -53.5°C | 0.1% | 35.4hPa | 2.7V | 03:45:14 | 01:32:02 | 00:00:00 | |
| DK5PH-5 | 2026-09-02 06:03:02 | 49.61206 | 8.22807 | 18° | 13km/h | 23245m | 5.8m/s | -53.5°C | 3.8% | 35.4hPa | 2.7V | 00:00:00 | 01:32:02 | 00:00:00 | |
| BIOWL7-15 | 2026-09-02 06:03:01 | 49.61206 | 8.22807 | 19° | 4km/h | 23245m | 5.9m/s | -53.5°C | 0.8% | 35.4hPa | 2.6V | 00:00:00 | 00:00:00 | 00:00:00 | |
| DM7RM-13 | 2026-09-02 06:03:00 | 49.61205 | 8.22806 | 39° | 4km/h | 23239m | 4.7m/s | -53.5°C | 0.8% | 35.4hPa | 2.6V | 03:44:00 | 00:00:00 | 00:00:00 | |
| DL1XH1-15 | 2026-09-02 06:02:59 | 49.61217 | 8.22779 | 138° | 13km/h | 23205m | 5m/s | -53.2°C | 3.8% | 35.6hPa | 2.6V | 03:44:17 | 01:31:54 | 00:00:00 | |
| DL1XH-west | 2026-09-02 06:02:58 | 49.61206 | 8.22798 | 119° | 15km/h | 23224m | 5.3m/s | -53.4°C | 0% | 35.5hPa | 2.6V | 03:44:23 | 01:31:58 | 00:00:00 | |
| DM0DOS-11 | 2026-09-02 06:02:57 | 49.61219 | 8.22776 | 137° | 9km/h | 23200m | 4.5m/s | -53.2°C | 3.7% | 35.6hPa | 2.6V | 03:44:18 | 01:31:53 | 00:00:00 | |
| BIOWL1-15 | 2026-09-02 06:02:57 | 49.61215 | 8.22782 | 137° | 16km/h | 23210m | 5.6m/s | -53.3°C | 0% | 35.6hPa | 2.6V | 03:44:23 | 01:31:55 | 00:00:00 | |
| HSKMA3-T | 2026-09-02 06:02:50 | 49.61222 | 8.22767 | 104° | 11km/h | 23185m | 5.3m/s | -53.2°C | 0% | 35.7hPa | 2.7V | 03:45:14 | 01:31:50 | 00:00:00 | |
| DJ2KF-10 | 2026-09-02 06:02:49 | 49.61223 | 8.22762 | 101° | 16km/h | 23180m | 5.0m/s | -53.1°C | 3.7% | 35.7hPa | 2.6V | 00:00:00 | 01:31:49 | 00:00:00 | |
| DB0UT-9 | 2026-09-02 06:02:48 | 49.61223 | 8.22762 | 101° | 13km/h | 23180m | 5.0m/s | -53.2°C | 0.8% | 35.8hPa | 2.7V | 03:44:00 | 00:00:00 | 00:00:00 | |
| DM0DOS-11 | 2026-09-02 06:02:47 | 49.61226 | 8.22742 | 114° | 13km/h | 23149m | 5.9m/s | -53.1°C | 3.7% | 35.9hPa | 2.7V | 03:44:28 | 01:31:43 | 00:00:00 | |
| DL1XH-west | 2026-09-02 06:02:47 | 49.61224 | 8.22754 | 93° | 9km/h | 23170m | 5.6m/s | -53.1°C | 0% | 35.8hPa | 2.6V | 03:45:14 | 01:31:47 | 00:00:00 | |
| DF2AP-13 | 2026-09-02 06:02:47 | 49.61223 | 8.22754 | 94° | 15km/h | 23170m | 5.6m/s | 0°C | 0% | 0hPa | 2.7V | 03:44:00 | 01:31:47 | 00:00:00 | |
| DL1XH1-15 | 2026-09-02 06:02:45 | 49.61224 | 8.22746 | 111° | 9km/h | 23155m | 4.6m/s | -53.1°C | 3.7% | 35.9hPa | 2.7V | 03:44:27 | 01:31:44 | 00:00:00 | |
| BIOWL1-15 | 2026-09-02 06:02:44 | 49.61225 | 8.22746 | 112° | 9km/h | 23155m | 4.6m/s | -53.1°C | 0% | 35.9hPa | 2.7V | 03:45:14 | 01:31:44 | 00:00:00 | |
| DO3MHA-11 | 2026-09-02 06:02:44 | 49.61225 | 8.22746 | 112° | 16km/h | 23155m | 4.6m/s | -53.1°C | 3.7% | 35.9hPa | 2.7V | 00:00:00 | 01:31:44 | 00:00:00 | |
| DJ2DS-15 | 2026-09-02 06:02:43 | 49.61225 | 8.22742 | 115° | 18km/h | 23150m | 5.8m/s | -53.1°C | 3.7% | 35.9hPa | 2.7V | 03:44:00 | 01:31:43 | 00:00:00 | |
| CB1BUN | 2026-09-02 06:02:42 | 49.61225 | 8.22742 | 116° | 13km/h | 23150m | 5.9m/s | -53.2°C | 0.8% | 35.9hPa | 2.7V | 03:45:00 | 00:00:00 | 00:00:00 | |
| BIOWL7-15 | 2026-09-02 06:02:41 | 49.61227 | 8.22736 | 119° | 16km/h | 23144m | 4.9m/s | -53.2°C | 0.8% | 36.0hPa | 2.7V | 00:00:00 | 00:00:00 | 00:00:00 | |
| DO1YAY-16 | 2026-09-02 06:02:40 | 49.61232 | 8.22724 | 122° | 18km/h | 23134m | 5.6m/s | -53.2°C | 0.8% | 36.0hPa | 2.7V | 00:00:00 | 00:00:00 | 00:00:00 | |
| DL1XH1-15 | 2026-09-02 06:02:39 | 49.61238 | 8.22683 | 76° | 20km/h | 23104m | 4.3m/s | -53.4°C | 3.7% | 36.2hPa | 2.7V | 03:44:37 | 01:31:34 | 00:00:00 | |
| DM0DOS-11 | 2026-09-02 06:02:37 | 49.61237 | 8.22676 | 69° | 18km/h | 23098m | 6m/s | -53.4°C | 3.7% | 36.2hPa | 2.7V | 03:44:38 | 01:31:33 | 00:00:00 | |
| DL1XH-west | 2026-09-02 06:02:37 | 49.61238 | 8.22707 | 105° | 18km/h | 23119m | 4.9m/s | -53.3°C | 0% | 36.1hPa | 2.6V | 03:45:14 | 01:31:37 | 00:00:00 | |
| BIOWL1-15 | 2026-09-02 06:02:34 | 49.61238 | 8.22683 | 77° | 20km/h | 23104m | 4.3m/s | -53.4°C | 0% | 36.2hPa | 2.7V | 03:45:14 | 01:31:34 | 00:00:00 | |
| SONCRA | 2026-09-02 06:02:33 | 49.61235 | 8.22670 | 61° | 15km/h | 23093m | 5.8m/s | -53.4°C | 0.8% | 36.2hPa | 2.6V | 00:00:00 | 00:00:00 | 00:00:00 | |
| DK5PH-5 | 2026-09-02 06:02:32 | 49.61235 | 8.22670 | 62° | 18km/h | 23093m | 5.7m/s | -53.4°C | 3.8% | 36.2hPa | 2.6V | 03:44:00 | 01:31:32 | 00:00:00 | |
| DL0LBS | 2026-09-02 06:02:31 | 49.61234 | 8.22670 | 63° | 16km/h | 23093m | 5.8m/s | -53.4°C | 0.8% | 36.2hPa | 2.6V | 03:45:00 | 00:00:00 | 00:00:00 | |
| DF1GD-15 | 2026-09-02 06:02:30 | 49.61233 | 8.22665 | 62° | 15km/h | 23087m | 4.9m/s | -53.5°C | 0.9% | 36.3hPa | 2.6V | 03:45:00 | 00:00:00 | 00:00:00 | |
| DM0DOS-11 | 2026-09-02 06:02:27 | 49.61239 | 8.22614 | 119° | 20km/h | 23047m | 5.4m/s | -53.4°C | 3.9% | 36.5hPa | 2.6V | 03:44:48 | 01:31:23 | 00:00:00 | |
| DL1XH-west | 2026-09-02 06:02:27 | 49.61230 | 8.22640 | 103° | 18km/h | 23066m | 5m/s | -53.4°C | 0% | 36.4hPa | 2.7V | 03:45:14 | 01:31:27 | 00:00:00 | |
| DB0UT-7 | 2026-09-02 06:02:27 | 49.61230 | 8.22640 | 103° | 18km/h | 23067m | 4.9m/s | -53.4°C | 3.8% | 36.4hPa | 2.7V | 00:00:00 | 00:00:00 | 00:00:00 | |
| DL1XH1-15 | 2026-09-02 06:02:25 | 49.61237 | 8.22620 | 122° | 18km/h | 23051m | 3.8m/s | -53.4°C | 3.8% | 36.5hPa | 2.6V | 03:44:47 | 01:31:24 | 00:00:00 | |
| BIOWL1-15 | 2026-09-02 06:02:23 | 49.61239 | 8.22614 | 119° | 20km/h | 23047m | 5.4m/s | -53.4°C | 0.1% | 36.5hPa | 2.6V | 03:45:14 | 01:31:23 | 00:00:00 | |
| HSKMA3-T | 2026-09-02 06:02:20 | 49.61242 | 8.22594 | 81° | 15km/h | 23033m | 4.5m/s | -53.3°C | 0% | 36.6hPa | 2.7V | 03:45:14 | 01:31:20 | 00:00:00 | |
| DJ2DS-15 | 2026-09-02 06:02:20 | 49.61241 | 8.22589 | 62° | 11km/h | 23027m | 6.1m/s | -53.4°C | 0.8% | 36.6hPa | 2.7V | 00:00:00 | 00:00:00 | 00:00:00 | |
| DL1XH1-15 | 2026-09-02 06:02:19 | 49.61226 | 8.22569 | 53° | 24km/h | 23001m | 4.7m/s | -53.3°C | 3.8% | 36.8hPa | 2.7V | 03:44:57 | 01:31:14 | 00:00:00 | |
| DJ2KF-10 | 2026-09-02 06:02:19 | 49.61241 | 8.22589 | 63° | 18km/h | 23027m | 6.1m/s | -53.3°C | 3.8% | 36.6hPa | 2.6V | 00:00:00 | 01:31:19 | 00:00:00 | |
| DM0DOS-11 | 2026-09-02 06:02:17 | 49.61223 | 8.22561 | 63° | 22km/h | 22997m | 4.3m/s | -53.3°C | 3.9% | 36.8hPa | 2.6V | 03:44:58 | 01:31:13 | 00:00:00 | |
| DL1XH-west | 2026-09-02 06:02:16 | 49.61233 | 8.22580 | 33° | 18km/h | 23011m | 4.8m/s | -53.3°C | 0% | 36.7hPa | 2.7V | 03:45:14 | 01:31:16 | 00:00:00 | |
| BIOWL1-15 | 2026-09-02 06:02:12 | 49.61221 | 8.22553 | 73° | 22km/h | 22992m | 4.9m/s | -53.3°C | 0.1% | 36.8hPa | 2.6V | 03:45:14 | 01:31:12 | 00:00:00 | |
| DF1GD-15 | 2026-09-02 06:02:11 | 49.61219 | 8.22546 | 80° | 18km/h | 22987m | 5.4m/s | -53.2°C | 0.8% | 36.9hPa | 2.7V | 03:45:00 | 00:00:00 | 00:00:00 | |
| DO1YAY-16 | 2026-09-02 06:02:09 | 49.61218 | 8.22535 | 82° | 13km/h | 22977m | 4.6m/s | -53.2°C | 0.8% | 36.9hPa | 2.7V | 00:00:00 | 00:00:00 | 00:00:00 | |
| DL3AQ-11 | 2026-09-02 06:02:08 | 49.61217 | 8.22524 | 71° | 15km/h | 22967m | 5.2m/s | -53.0°C | 0.8% | 37.0hPa | 2.7V | 00:00:00 | 00:00:00 | 00:00:00 | |
| DM0DOS-11 | 2026-09-02 06:02:07 | 49.61209 | 8.22497 | 67° | 18km/h | 22946m | 5.6m/s | -53°C | 3.8% | 37.1hPa | 2.7V | 03:45:08 | 01:31:03 | 00:00:00 | |
| DL1XH-west | 2026-09-02 06:02:06 | 49.61215 | 8.22518 | 67° | 18km/h | 22962m | 5.3m/s | -53°C | 0% | 37hPa | 2.6V | 03:45:14 | 01:31:06 | 00:00:00 | |
| BIOWL1-15 | 2026-09-02 06:02:05 | 49.61207 | 8.22490 | 66° | 20km/h | 22941m | 4.4m/s | -53°C | 0.1% | 37.1hPa | 2.7V | 03:45:14 | 01:31:02 | 00:00:00 | |
| DL1XH1-15 | 2026-09-02 06:02:05 | 49.61211 | 8.22504 | 65° | 20km/h | 22952m | 5.7m/s | -53°C | 3.8% | 37.1hPa | 2.6V | 03:45:07 | 01:31:04 | 00:00:00 | |
| DO3MHA-11 | 2026-09-02 06:02:04 | 49.61211 | 8.22504 | 66° | 20km/h | 22952m | 5.6m/s | -52.9°C | 3.8% | 37.0hPa | 2.7V | 00:00:00 | 01:31:04 | 00:00:00 | |
| DL4BBY-15 | 2026-09-02 06:02:03 | 49.61209 | 8.22497 | 68° | 18km/h | 22947m | 5.6m/s | -54.2°C | 0% | 0hPa | 2.7V | 00:00:00 | 00:00:00 | 00:00:00 | |
| SONCRA | 2026-09-02 06:02:02 | 49.61205 | 8.22482 | 63° | 22km/h | 22937m | 4.7m/s | -53.0°C | 0.8% | 37.1hPa | 2.7V | 00:00:00 | 00:00:00 | 00:00:00 | |
| DM7RM-13 | 2026-09-02 06:02:00 | 49.61202 | 8.22474 | 63° | 24km/h | 22932m | 5.7m/s | -52.9°C | 0.9% | 37.2hPa | 2.7V | 03:45:00 | 00:00:00 | 00:00:00 | |
| DM0DOS-11 | 2026-09-02 06:01:57 | 49.61187 | 8.22429 | 54° | 16km/h | 22897m | 5.7m/s | -52.8°C | 3.7% | 37.4hPa | 2.7V | 03:45:18 | 01:30:53 | 00:00:00 | |
| HSKMA3-T | 2026-09-02 06:01:57 | 49.61194 | 8.22450 | 64° | 20km/h | 22916m | 5.7m/s | -52.8°C | 0% | 37.3hPa | 2.7V | 03:45:14 | 01:30:57 | 00:00:00 | |
| DL1XH-west | 2026-09-02 06:01:56 | 49.61192 | 8.22444 | 67° | 16km/h | 22911m | 4.9m/s | -52.8°C | 0% | 37.3hPa | 2.6V | 03:46:05 | 01:30:56 | 00:00:00 | |
| DL1XH1-15 | 2026-09-02 06:01:55 | 49.61189 | 8.22434 | 58° | 15km/h | 22902m | 4.8m/s | -52.8°C | 3.6% | 37.3hPa | 2.7V | 03:45:17 | 01:30:54 | 00:00:00 | |
| BIOWL1-15 | 2026-09-02 06:01:52 | 49.61184 | 8.22424 | 53° | 16km/h | 22891m | 4.7m/s | -52.7°C | 0% | 37.4hPa | 2.6V | 03:46:05 | 01:30:52 | 00:00:00 | |
| DL0LBS | 2026-09-02 06:01:51 | 49.61182 | 8.22419 | 56° | 18km/h | 22887m | 4.3m/s | -52.8°C | 0.8% | 37.5hPa | 2.6V | 03:46:00 | 00:00:00 | 00:00:00 | |
| DF1GD-15 | 2026-09-02 06:01:50 | 49.61182 | 8.22419 | 56° | 18km/h | 22887m | 4.3m/s | -52.8°C | 0.8% | 37.5hPa | 2.6V | 03:46:00 | 00:00:00 | 00:00:00 | |
| DJ2KF-10 | 2026-09-02 06:01:49 | 49.61177 | 8.22408 | 62° | 15km/h | 22877m | 5.1m/s | -52.7°C | 3.8% | 37.4hPa | 2.6V | 03:45:00 | 01:30:49 | 00:00:00 | |
| DM0DOS-11 | 2026-09-02 06:01:47 | 49.61154 | 8.22375 | 20° | 20km/h | 22848m | 5m/s | -52.7°C | 3.7% | 37.7hPa | 2.6V | 03:45:28 | 01:30:43 | 00:00:00 | |
| DF2AP-13 | 2026-09-02 06:01:47 | 49.61172 | 8.22395 | 54° | 15km/h | 22868m | 4.6m/s | 0°C | 0% | 0hPa | 2.7V | 00:00:00 | 01:30:47 | 00:00:00 | |
| DL1XH1-15 | 2026-09-02 06:01:45 | 49.61159 | 8.22378 | 26° | 24km/h | 22853m | 4.1m/s | -52.8°C | 3.8% | 37.7hPa | 2.7V | 03:45:27 | 01:30:44 | 00:00:00 | |
| DL1XH-west | 2026-09-02 06:01:45 | 49.61164 | 8.22383 | 36° | 24km/h | 22857m | 4.7m/s | -52.8°C | 0% | 37.6hPa | 2.7V | 03:46:05 | 01:30:45 | 00:00:00 | |
| BIOWL1-15 | 2026-09-02 06:01:41 | 49.61147 | 8.22371 | 23° | 11km/h | 22838m | 4.7m/s | -52.6°C | 0% | 37.7hPa | 2.6V | 03:46:05 | 01:30:41 | 00:00:00 | |
| BIOWL7-15 | 2026-09-02 06:01:40 | 49.61147 | 8.22371 | 24° | 11km/h | 22839m | 4.7m/s | -52.6°C | 0.8% | 37.7hPa | 2.7V | 03:46:00 | 00:00:00 | 00:00:00 | |
| DM7RM-13 | 2026-09-02 06:01:39 | 49.61145 | 8.22369 | 49° | 9km/h | 22834m | 4.8m/s | -52.6°C | 0.8% | 37.8hPa | 2.7V | 03:46:00 | 00:00:00 | 00:00:00 | |
| DO1YAY-16 | 2026-09-02 06:01:38 | 49.61142 | 8.22361 | 71° | 15km/h | 22824m | 5.0m/s | -52.6°C | 0.8% | 37.8hPa | 2.7V | 00:00:00 | 00:00:00 | 00:00:00 | |
| DM0DOS-11 | 2026-09-02 06:01:37 | 49.61128 | 8.22337 | 25° | 16km/h | 22799m | 5.1m/s | -52.5°C | 3.5% | 37.9hPa | 2.7V | 03:45:38 | 01:30:33 | 00:00:00 | |
| DL1XH-west | 2026-09-02 06:01:34 | 49.61132 | 8.22340 | 32° | 16km/h | 22804m | 5.3m/s | -52.5°C | 0% | 37.9hPa | 2.7V | 03:46:05 | 01:30:34 | 00:00:00 | |
| BIOWL1-15 | 2026-09-02 06:01:30 | 49.61117 | 8.22329 | 32° | 16km/h | 22783m | 5.8m/s | -52.4°C | 0% | 38hPa | 2.6V | 03:46:05 | 01:30:30 | 00:00:00 | |
| DF1GD-15 | 2026-09-02 06:01:29 | 49.61118 | 8.22329 | 33° | 16km/h | 22783m | 5.8m/s | -52.4°C | 0.8% | 38.1hPa | 2.7V | 03:46:00 | 00:00:00 | 00:00:00 | |
| DL3AQ-11 | 2026-09-02 06:01:28 | 49.61110 | 8.22319 | 41° | 7km/h | 22768m | 5.3m/s | -52.3°C | 0.8% | 38.1hPa | 2.7V | 00:00:00 | 00:00:00 | 00:00:00 | |
| DM0DOS-11 | 2026-09-02 06:01:27 | 49.61103 | 8.22320 | 357° | 13km/h | 22748m | 5.7m/s | -52.4°C | 3.6% | 38.2hPa | 2.7V | 03:45:48 | 01:30:23 | 00:00:00 | |
| DL1XH-west | 2026-09-02 06:01:23 | 49.61103 | 8.22320 | 357° | 13km/h | 22748m | 5.7m/s | -52.4°C | 0% | 38.3hPa | 2.7V | 03:46:05 | 01:30:23 | 00:00:00 | |
| BIOWL1-15 | 2026-09-02 06:01:21 | 49.61087 | 8.22313 | 28° | 15km/h | 22728m | 5.5m/s | -52.3°C | 0% | 38.4hPa | 2.7V | 03:46:05 | 01:30:19 | 00:00:00 | |
| DH7VM-15 | 2026-09-02 06:01:20 | 49.61095 | 8.22318 | 18° | 18km/h | 22738m | 4.6m/s | -52.3°C | 0.7% | 38.3hPa | 2.6V | 00:00:00 | 00:00:00 | 00:00:00 | |
| DM7RM-13 | 2026-09-02 06:01:19 | 49.61086 | 8.22313 | 29° | 15km/h | 22728m | 5.5m/s | -52.3°C | 0.8% | 38.4hPa | 2.6V | 03:46:00 | 00:00:00 | 00:00:00 | |
| DM0DOS-11 | 2026-09-02 06:01:17 | 49.61077 | 8.22309 | 349° | 9km/h | 22697m | 5.3m/s | -52.3°C | 3.7% | 38.6hPa | 2.6V | 03:45:58 | 01:30:13 | 00:00:00 | |
| DL1XH-west | 2026-09-02 06:01:12 | 49.61075 | 8.22309 | 352° | 11km/h | 22692m | 4.7m/s | -52.3°C | 0% | 38.6hPa | 2.6V | 03:46:05 | 01:30:12 | 00:00:00 | |
| BIOWL1-15 | 2026-09-02 06:01:11 | 49.61068 | 8.22311 | 354° | 5km/h | 22676m | 5.6m/s | -52.3°C | 0% | 38.7hPa | 2.7V | 03:46:05 | 01:30:09 | 00:00:00 | |
| DF1GD-15 | 2026-09-02 06:01:09 | 49.61070 | 8.22310 | 353° | 7km/h | 22682m | 5.9m/s | -52.3°C | 0.8% | 38.7hPa | 2.7V | 03:46:00 | 00:00:00 | 00:00:00 | |
| DN1GJH-1 | 2026-09-02 06:01:08 | 49.61068 | 8.22310 | 355° | 5km/h | 22677m | 5.6m/s | -52.3°C | 0.8% | 38.7hPa | 2.7V | 03:46:00 | 00:00:00 | 00:00:00 | |
| DO1YAY-16 | 2026-09-02 06:01:07 | 49.61066 | 8.22310 | 11° | 5km/h | 22665m | 6.0m/s | -52.3°C | 0.8% | 38.8hPa | 2.7V | 00:00:00 | 00:00:00 | 00:00:00 | |
| DL1XH1-15 | 2026-09-02 06:01:05 | 49.61061 | 8.22309 | 3° | 7km/h | 22649m | 5.2m/s | -52.2°C | 3.5% | 38.9hPa | 2.7V | 03:46:07 | 01:30:04 | 00:00:00 | |
| DL1XH-west | 2026-09-02 06:01:01 | 49.61056 | 8.22312 | 323° | 9km/h | 22634m | 4.5m/s | -52.2°C | 0% | 39hPa | 2.6V | 03:46:56 | 01:30:01 | 00:00:00 | |
| BIOWL1-15 | 2026-09-02 06:00:59 | 49.61051 | 8.22317 | 327° | 16km/h | 22623m | 5.2m/s | -52.2°C | 0% | 39hPa | 2.7V | 03:46:56 | 01:29:59 | 00:00:00 | |
| NBG1-10 | 2026-09-02 06:00:58 | 49.61047 | 8.22321 | 326° | 7km/h | 22618m | 4.7m/s | -52.1°C | 3.5% | 39.0hPa | 2.7V | 03:46:00 | 01:29:58 | 00:00:00 | |
| DM0DOS-11 | 2026-09-02 06:00:57 | 49.61035 | 8.22339 | 309° | 9km/h | 22592m | 4.8m/s | -52.4°C | 3.6% | 39.2hPa | 2.6V | 03:46:18 | 01:29:53 | 00:00:00 | |
| DB0UT-7 | 2026-09-02 06:00:57 | 49.61044 | 8.22325 | 323° | 7km/h | 22613m | 5.2m/s | -52.2°C | 3.6% | 39.0hPa | 2.6V | 00:00:00 | 01:29:57 | 00:00:00 | |
| DL1XH1-15 | 2026-09-02 06:00:55 | 49.61037 | 8.22336 | 302° | 9km/h | 22597m | 4.4m/s | -52.3°C | 3.6% | 39.1hPa | 2.7V | 03:46:17 | 01:29:54 | 00:00:00 | |
| DL1XH-west | 2026-09-02 06:00:51 | 49.61031 | 8.22344 | 326° | 11km/h | 22581m | 5.2m/s | -52.3°C | 0% | 39.2hPa | 2.6V | 03:46:56 | 01:29:51 | 00:00:00 | |
| BIOWL1-15 | 2026-09-02 06:00:48 | 49.61026 | 8.22351 | 304° | 7km/h | 22566m | 5.9m/s | -52.4°C | 0% | 39.3hPa | 2.6V | 03:46:56 | 01:29:48 | 00:00:00 | |
| DL3AQ-11 | 2026-09-02 06:00:48 | 49.61025 | 8.22354 | 300° | 5km/h | 22561m | 4.6m/s | -52.3°C | 0.8% | 39.4hPa | 2.7V | 00:00:00 | 00:00:00 | 00:00:00 | |
| DM0DOS-11 | 2026-09-02 06:00:47 | 49.61018 | 8.22362 | 343° | 9km/h | 22540m | 4.9m/s | -52.4°C | 3.5% | 39.5hPa | 2.7V | 03:46:28 | 01:29:43 | 00:00:00 | |
| DF2AP-13 | 2026-09-02 06:00:47 | 49.61025 | 8.22353 | 301° | 9km/h | 22561m | 4.5m/s | 0°C | 0% | 0hPa | 2.7V | 00:00:00 | 01:29:47 | 00:00:00 | |
| DL1XH1-15 | 2026-09-02 06:00:44 | 49.61020 | 8.22360 | 335° | 11km/h | 22545m | 5m/s | -52.3°C | 3.4% | 39.5hPa | 2.7V | 03:46:27 | 01:29:44 | 00:00:00 | |
| DL1XH-west | 2026-09-02 06:00:41 | 49.61015 | 8.22363 | 6° | 4km/h | 22529m | 5.7m/s | -52.5°C | 0% | 39.6hPa | 2.6V | 03:46:56 | 01:29:41 | 00:00:00 | |
| DM7RM-13 | 2026-09-02 06:00:38 | 49.61013 | 8.22361 | 47° | 4km/h | 22519m | 5.7m/s | -52.5°C | 0.8% | 39.7hPa | 2.7V | 03:46:00 | 00:00:00 | 00:00:00 | |
| DM0DOS-11 | 2026-09-02 06:00:37 | 49.61017 | 8.22354 | 146° | 7km/h | 22487m | 5.2m/s | -52.7°C | 3.8% | 39.8hPa | 2.7V | 03:46:38 | 01:29:33 | 00:00:00 | |
| BIOWL1-15 | 2026-09-02 06:00:37 | 49.61012 | 8.22359 | 84° | 4km/h | 22508m | 4m/s | -52.6°C | 0% | 39.7hPa | 2.6V | 03:46:56 | 01:29:37 | 00:00:00 | |
| SFWM-10 | 2026-09-02 06:00:36 | 49.61012 | 8.22359 | 85° | 4km/h | 22509m | 4.0m/s | -52.6°C | 0.8% | 39.7hPa | 2.7V | 00:00:00 | 00:00:00 | 00:00:00 | |
| DL1XH1-15 | 2026-09-02 06:00:35 | 49.61015 | 8.22355 | 155° | 7km/h | 22492m | 4.8m/s | -52.7°C | 3.8% | 39.8hPa | 2.7V | 03:46:37 | 01:29:34 | 00:00:00 | |
| DL1XH-west | 2026-09-02 06:00:30 | 49.61019 | 8.22349 | 105° | 4km/h | 22472m | 5.2m/s | -52.8°C | 0.1% | 39.9hPa | 2.7V | 03:46:56 | 01:29:30 | 00:00:00 | |
| DN1GJH-1 | 2026-09-02 06:00:28 | 49.61019 | 8.22348 | 132° | 4km/h | 22466m | 6.0m/s | -52.8°C | 0.8% | 40.0hPa | 2.6V | 00:00:00 | 00:00:00 | 00:00:00 | |
| DM0DOS-11 | 2026-09-02 06:00:27 | 49.61024 | 8.22343 | 137° | 9km/h | 22435m | 5.8m/s | -52.6°C | 3.7% | 40.2hPa | 2.6V | 03:46:48 | 01:29:23 | 00:00:00 | |
| BIOWL1-15 | 2026-09-02 06:00:26 | 49.61021 | 8.22347 | 154° | 2km/h | 22450m | 5.7m/s | -52.6°C | 0% | 40.1hPa | 2.6V | 03:46:56 | 01:29:26 | 00:00:00 | |
| HSKMA3-T | 2026-09-02 06:00:23 | 49.61024 | 8.22343 | 137° | 9km/h | 22435m | 5.8m/s | -52.6°C | 0% | 40.2hPa | 2.6V | 03:46:56 | 01:29:23 | 00:00:00 | |
| DL1XH-west | 2026-09-02 06:00:20 | 49.61031 | 8.22333 | 135° | 15km/h | 22419m | 5.5m/s | -52.4°C | 0% | 40.3hPa | 2.7V | 03:46:56 | 01:29:20 | 00:00:00 | |
| DJ2KF-10 | 2026-09-02 06:00:19 | 49.61034 | 8.22329 | 129° | 11km/h | 22413m | 5.5m/s | -52.3°C | 3.7% | 40.3hPa | 2.6V | 00:00:00 | 01:29:19 | 00:00:00 | |
| DL8DAS-15 | 2026-09-02 06:00:18 | 49.61034 | 8.22329 | 130° | 13km/h | 22413m | 5.6m/s | -52.4°C | 0.8% | 40.3hPa | 2.6V | 00:00:00 | 00:00:00 | 00:00:00 | |
| DM0DOS-11 | 2026-09-02 06:00:17 | 49.61044 | 8.22315 | 196° | 2km/h | 22383m | 5.8m/s | -52.1°C | 3.7% | 40.5hPa | 2.6V | 03:46:58 | 01:29:13 | 00:00:00 | |
| BIOWL1-15 | 2026-09-02 06:00:15 | 49.61042 | 8.22316 | 152° | 7km/h | 22394m | 4.6m/s | -52.2°C | 0% | 40.4hPa | 2.7V | 03:46:56 | 01:29:15 | 00:00:00 | |
| HSKMA3-T | 2026-09-02 06:00:12 | 49.61044 | 8.22316 | 282° | 2km/h | 22378m | 4.4m/s | 0°C | 0% | 40.5hPa | 2.6V | 03:47:47 | 01:29:12 | 00:00:00 | |
| DL1XH-west | 2026-09-02 06:00:09 | 49.61046 | 8.22317 | 172° | 11km/h | 22363m | 5.2m/s | -52°C | 0% | 40.6hPa | 2.7V | 03:47:47 | 01:29:09 | 00:00:00 | |
| DL3AQ-11 | 2026-09-02 06:00:09 | 49.61049 | 8.22316 | 162° | 13km/h | 22359m | 4.4m/s | -52.0°C | 0.8% | 40.6hPa | 2.7V | 00:00:00 | 00:00:00 | 00:00:00 | |
| DL0LBS | 2026-09-02 06:00:08 | 49.61049 | 8.22316 | 164° | 15km/h | 22359m | 4.4m/s | -52.0°C | 0.9% | 40.6hPa | 2.7V | 03:47:00 | 00:00:00 | 00:00:00 | |
| DO2KSM | 2026-09-02 06:00:07 | 49.61049 | 8.22316 | 164° | 15km/h | 22359m | 4.4m/s | -52.0°C | 0.8% | 40.6hPa | 2.7V | 00:00:00 | 00:00:00 | 00:00:00 | |
| DL1XH1-15 | 2026-09-02 06:00:05 | 49.61061 | 8.22303 | 131° | 13km/h | 22339m | 4.8m/s | -51.8°C | 3.5% | 40.8hPa | 2.7V | 03:47:07 | 01:29:04 | 00:00:00 | |
| BIOWL1-15 | 2026-09-02 06:00:05 | 49.61059 | 8.22307 | 134° | 15km/h | 22344m | 5.1m/s | -51.8°C | 0% | 40.8hPa | 2.6V | 03:47:47 | 01:29:05 | 00:00:00 | |
| HSKMA3-T | 2026-09-02 06:00:02 | 49.61066 | 8.22296 | 142° | 13km/h | 22328m | 5.9m/s | 0°C | 0% | 40.8hPa | 2.7V | 03:47:47 | 01:29:02 | 00:00:00 | |
| DL1XH-west | 2026-09-02 05:59:59 | 49.61073 | 8.22290 | 169° | 7km/h | 22314m | 5.6m/s | -51.8°C | 0% | 40.9hPa | 2.6V | 03:47:47 | 01:28:59 | 00:00:00 | |
| SONCRA | 2026-09-02 05:59:57 | 49.61075 | 8.22290 | 204° | 2km/h | 22303m | 4.3m/s | -52.0°C | 0.8% | 41.0hPa | 2.6V | 00:00:00 | 00:00:00 | 00:00:00 | |
| BIOWL9-15 | 2026-09-02 05:59:56 | 49.61076 | 8.22290 | 183° | 2km/h | 22299m | 4.5m/s | -52.0°C | 0.7% | 41.0hPa | 2.6V | 00:00:00 | 00:00:00 | 00:00:00 | |
| DL1XH1-15 | 2026-09-02 05:59:55 | 49.61080 | 8.22289 | 165° | 13km/h | 22288m | 5.2m/s | -51.9°C | 3.6% | 41.1hPa | 2.6V | 03:47:17 | 01:28:54 | 00:00:00 | |
| BIOWL1-15 | 2026-09-02 05:59:54 | 49.61080 | 8.22289 | 165° | 13km/h | 22288m | 5.2m/s | -51.9°C | 0% | 41.1hPa | 2.6V | 03:47:47 | 01:28:54 | 00:00:00 | |
| DL1XH-west | 2026-09-02 05:59:48 | 49.61104 | 8.22280 | 171° | 13km/h | 22259m | 4.7m/s | -51.9°C | 0% | 41.3hPa | 2.6V | 03:47:47 | 01:28:48 | 00:00:00 | |
| DF7PN | 2026-09-02 05:59:45 | 49.61116 | 8.22277 | 167° | 18km/h | 22244m | 4.8m/s | -51.7°C | 0.7% | 41.4hPa | 2.7V | 00:00:00 | 00:00:00 | 00:00:00 | |
| DL1XH1-15 | 2026-09-02 05:59:45 | 49.61120 | 8.22275 | 167° | 18km/h | 22239m | 4.5m/s | -51.7°C | 3.5% | 41.4hPa | 2.7V | 03:47:27 | 01:28:44 | 00:00:00 | |
| BIOWL1-15 | 2026-09-02 05:59:44 | 49.61120 | 8.22275 | 167° | 18km/h | 22239m | 4.5m/s | -51.7°C | 0% | 41.4hPa | 2.7V | 03:47:47 | 01:28:44 | 00:00:00 | |
| DL1XH-west | 2026-09-02 05:59:38 | 49.61143 | 8.22272 | 183° | 16km/h | 22209m | 4.4m/s | -51.6°C | 0% | 41.6hPa | 2.6V | 03:47:47 | 01:28:38 | 00:00:00 | |
| DM0DOS-11 | 2026-09-02 05:59:37 | 49.61157 | 8.22270 | 137° | 9km/h | 22185m | 4.1m/s | -51.5°C | 3.4% | 41.7hPa | 2.6V | 03:47:38 | 01:28:33 | 00:00:00 | |
| DL1XH1-15 | 2026-09-02 05:59:35 | 49.61156 | 8.22271 | 153° | 7km/h | 22189m | 4.5m/s | -51.4°C | 3.4% | 41.7hPa | 2.7V | 03:47:37 | 01:28:34 | 00:00:00 | |
| BIOWL1-15 | 2026-09-02 05:59:33 | 49.61157 | 8.22270 | 138° | 9km/h | 22185m | 4.1m/s | -51.5°C | 0% | 41.7hPa | 2.6V | 03:47:47 | 01:28:33 | 00:00:00 | |
| HSKMA3-T | 2026-09-02 05:59:32 | 49.61159 | 8.22267 | 138° | 13km/h | 22181m | 5m/s | 0°C | 0% | 41.8hPa | 2.6V | 03:47:47 | 01:28:32 | 00:00:00 | |
| DK5PH-5 | 2026-09-02 05:59:32 | 49.61159 | 8.22267 | 138° | 13km/h | 22181m | 4.9m/s | -51.3°C | 3.4% | 41.7hPa | 2.6V | 00:00:00 | 01:28:32 | 00:00:00 | |
| HEMX73-11 | 2026-09-02 05:59:30 | 49.61162 | 8.22263 | 144° | 15km/h | 22176m | 4.9m/s | -51.3°C | 0.7% | 41.8hPa | 2.6V | 03:47:00 | 00:00:00 | 00:00:00 | |
| DL1XH1-15 | 2026-09-02 05:59:29 | 49.61181 | 8.22250 | 142° | 7km/h | 22143m | 4.6m/s | -51.5°C | 3.4% | 42hPa | 2.6V | 03:47:47 | 01:28:24 | 00:00:00 | |
| DL1XH-west | 2026-09-02 05:59:28 | 49.61173 | 8.22255 | 161° | 15km/h | 22163m | 5.2m/s | -51.5°C | 0% | 41.9hPa | 2.6V | 03:47:47 | 01:28:28 | 00:00:00 | |
| DM0DOS-11 | 2026-09-02 05:59:27 | 49.61183 | 8.22248 | 139° | 13km/h | 22139m | 5.2m/s | -51.6°C | 3.4% | 42hPa | 2.6V | 03:47:48 | 01:28:23 | 00:00:00 | |
| BIOWL1-15 | 2026-09-02 05:59:25 | 49.61183 | 8.22247 | 140° | 13km/h | 22139m | 5.2m/s | -51.6°C | 0% | 42hPa | 2.6V | 03:48:38 | 01:28:23 | 00:00:00 | |
| HSKMA3-T | 2026-09-02 05:59:21 | 49.61189 | 8.22240 | 140° | 18km/h | 22129m | 4.2m/s | 0°C | 0% | 42.1hPa | 2.7V | 18:12:15 | 01:28:21 | 00:00:00 | |
| DL1XH-west | 2026-09-02 05:59:17 | 49.61200 | 8.22225 | 132° | 11km/h | 22110m | 4.5m/s | -51.7°C | 0% | 42.2hPa | 2.7V | 03:48:38 | 01:28:17 | 00:00:00 | |
| DM0DOS-11 | 2026-09-02 05:59:16 | 49.61207 | 8.22211 | 123° | 13km/h | 22090m | 3.9m/s | -51.8°C | 3.4% | 42.3hPa | 2.6V | 03:47:58 | 01:28:13 | 00:00:00 | |
| DL1XH1-15 | 2026-09-02 05:59:15 | 49.61205 | 8.22215 | 125° | 13km/h | 22095m | 4.8m/s | -51.8°C | 3.5% | 42.3hPa | 2.6V | 03:47:57 | 01:28:14 | 00:00:00 | |
| BIOWL1-15 | 2026-09-02 05:59:13 | 49.61207 | 8.22211 | 124° | 13km/h | 22090m | 3.9m/s | -51.8°C | 0% | 42.3hPa | 2.6V | 03:48:38 | 01:28:13 | 00:00:00 | |
| HSKMA3-T | 2026-09-02 05:59:11 | 49.61209 | 8.22203 | 110° | 9km/h | 22081m | 5.7m/s | 0°C | 0% | 0hPa | 2.7V | 18:12:15 | 01:28:11 | 00:00:00 | |
| DL1XH-west | 2026-09-02 05:59:07 | 49.61212 | 8.22188 | 109° | 15km/h | 22061m | 4.4m/s | -52°C | 0% | 42.5hPa | 2.6V | 03:48:38 | 01:28:07 | 00:00:00 | |
| DM0DOS-11 | 2026-09-02 05:59:06 | 49.61214 | 8.22167 | 79° | 13km/h | 22043m | 4.5m/s | -52.1°C | 3.5% | 42.7hPa | 2.6V | 03:48:08 | 01:28:03 | 00:00:00 | |
| DL1XH1-15 | 2026-09-02 05:59:05 | 49.61214 | 8.22171 | 89° | 13km/h | 22048m | 5.4m/s | -52.2°C | 3.5% | 42.6hPa | 2.6V | 03:48:07 | 01:28:04 | 00:00:00 | |
| BIOWL1-15 | 2026-09-02 05:59:02 | 49.61214 | 8.22162 | 76° | 13km/h | 22039m | 3.9m/s | -52.2°C | 0% | 42.7hPa | 2.6V | 03:48:38 | 01:28:02 | 00:00:00 | |
| HSKMA3-T | 2026-09-02 05:59:00 | 49.61213 | 8.22153 | 83° | 13km/h | 22029m | 4.9m/s | 0°C | 0% | 0hPa | 2.7V | 18:12:15 | 01:28:00 | 00:00:00 | |
| DL1XH-west | 2026-09-02 05:58:56 | 49.61207 | 8.22131 | 60° | 20km/h | 22010m | 4.3m/s | -52.4°C | 0% | 42.9hPa | 2.7V | 03:48:38 | 01:27:56 | 00:00:00 | |
| DM0DOS-11 | 2026-09-02 05:58:55 | 49.61201 | 8.22107 | 77° | 24km/h | 21995m | 4.6m/s | -52.5°C | 3.6% | 43hPa | 2.6V | 03:48:18 | 01:27:53 | 00:00:00 | |
| BIOWL1-15 | 2026-09-02 05:58:52 | 49.61200 | 8.22098 | 79° | 24km/h | 21991m | 3.7m/s | -52.5°C | 0% | 43hPa | 2.7V | 03:48:38 | 01:27:52 | 00:00:00 | |
| HSKMA3-T | 2026-09-02 05:58:50 | 49.61196 | 8.22080 | 66° | 24km/h | 21982m | 5m/s | 0°C | 0% | 0hPa | 2.6V | 18:12:15 | 01:27:50 | 00:00:00 | |
| DL1XH-west | 2026-09-02 05:58:46 | 49.61185 | 8.22050 | 60° | 22km/h | 21962m | 4.4m/s | -52.7°C | 0% | 43.2hPa | 2.7V | 03:48:38 | 01:27:46 | 00:00:00 | |
| DM0DOS-11 | 2026-09-02 05:58:45 | 49.61175 | 8.22030 | 43° | 24km/h | 21948m | 5m/s | -52.7°C | 3.8% | 43.3hPa | 2.6V | 03:48:28 | 01:27:43 | 00:00:00 | |
| DL1XH1-15 | 2026-09-02 05:58:45 | 49.61179 | 8.22037 | 48° | 22km/h | 21953m | 5.4m/s | -52.7°C | 3.7% | 43.3hPa | 2.6V | 03:48:27 | 01:27:44 | 00:00:00 | |
| BIOWL1-15 | 2026-09-02 05:58:42 | 49.61171 | 8.22024 | 44° | 24km/h | 21943m | 4.1m/s | -52.7°C | 0% | 43.3hPa | 2.6V | 03:48:38 | 01:27:42 | 00:00:00 | |
| HSKMA3-T | 2026-09-02 05:58:39 | 49.61161 | 8.22002 | 68° | 24km/h | 21929m | 4.7m/s | 0°C | 0% | 0hPa | 2.7V | 18:12:15 | 01:27:39 | 00:00:00 | |
| DL1XH-west | 2026-09-02 05:58:35 | 49.61149 | 8.21970 | 47° | 24km/h | 21910m | 4.3m/s | -52.4°C | 0% | 43.6hPa | 2.6V | 03:48:38 | 01:27:35 | 00:00:00 | |
| DM0DOS-11 | 2026-09-02 05:58:35 | 49.61140 | 8.21957 | 42° | 24km/h | 21900m | 5.6m/s | -52.4°C | 3.6% | 43.6hPa | 2.7V | 03:48:38 | 01:27:33 | 00:00:00 | |
| DL1XH1-15 | 2026-09-02 05:58:35 | 49.61145 | 8.21963 | 43° | 24km/h | 21905m | 4.7m/s | -52.4°C | 3.6% | 43.6hPa | 2.7V | 03:48:37 | 01:27:34 | 00:00:00 | |
| BIOWL1-15 | 2026-09-02 05:58:31 | 49.61131 | 8.21946 | 31° | 24km/h | 21890m | 4.6m/s | -52.3°C | 0% | 43.7hPa | 2.6V | 03:49:29 | 01:27:31 | 00:00:00 | |
| DB0UT-7 | 2026-09-02 05:58:27 | 49.61111 | 8.21929 | 41° | 18km/h | 21872m | 5.1m/s | -52.1°C | 3.7% | 43.8hPa | 2.6V | 00:00:00 | 00:00:00 | 00:00:00 | |
| DL8DAS-15 | 2026-09-02 05:58:26 | 49.61111 | 8.21929 | 41° | 20km/h | 21872m | 5.2m/s | -52.2°C | 0.8% | 43.8hPa | 2.6V | 00:00:00 | 00:00:00 | 00:00:00 | |
| DM0DOS-11 | 2026-09-02 05:58:25 | 49.61103 | 8.21902 | 70° | 20km/h | 21852m | 5.1m/s | -52°C | 3.6% | 44hPa | 2.6V | 03:48:48 | 01:27:23 | 00:00:00 | |
| DL1XH-west | 2026-09-02 05:58:25 | 49.61106 | 8.21917 | 72° | 18km/h | 21861m | 4.3m/s | -52.1°C | 0% | 43.9hPa | 2.6V | 03:49:29 | 01:27:25 | 00:00:00 | |
| BIOWL1-15 | 2026-09-02 05:58:22 | 49.61096 | 8.21883 | 51° | 16km/h | 21838m | 5.6m/s | -52.1°C | 0% | 44hPa | 2.7V | 03:49:29 | 01:27:20 | 00:00:00 | |
| DB0UT-9 | 2026-09-02 05:58:20 | 49.61098 | 8.21889 | 56° | 18km/h | 21843m | 4.3m/s | -52.1°C | 0.8% | 44.0hPa | 2.6V | 03:49:00 | 00:00:00 | 00:00:00 | |
| DJ2KF-10 | 2026-09-02 05:58:19 | 49.61093 | 8.21879 | 48° | 16km/h | 21833m | 5.2m/s | -52.0°C | 3.5% | 44.0hPa | 2.6V | 00:00:00 | 01:27:19 | 00:00:00 | |
| DF3TZ-5 | 2026-09-02 05:58:17 | 49.61087 | 8.21871 | 34° | 16km/h | 21824m | 4.3m/s | -52.0°C | 0.7% | 44.2hPa | 2.7V | 00:00:00 | 00:00:00 | 00:00:00 | |
| CB1BUN | 2026-09-02 05:58:16 | 49.61087 | 8.21871 | 36° | 18km/h | 21824m | 4.3m/s | -52.0°C | 0.7% | 44.2hPa | 2.7V | 03:49:00 | 00:00:00 | 00:00:00 | |
| DM0DOS-11 | 2026-09-02 05:58:15 | 49.61069 | 8.21849 | 52° | 22km/h | 21806m | 5m/s | -52°C | 3.5% | 44.2hPa | 2.7V | 03:48:58 | 01:27:13 | 00:00:00 | |
| DL1XH-west | 2026-09-02 05:58:14 | 49.61073 | 8.21855 | 43° | 24km/h | 21810m | 3.5m/s | -52°C | 0% | 44.2hPa | 2.7V | 03:49:29 | 01:27:14 | 00:00:00 | |
| BIOWL1-15 | 2026-09-02 05:58:11 | 49.61065 | 8.21822 | 90° | 18km/h | 21787m | 4.9m/s | -52.2°C | 0% | 44.4hPa | 2.7V | 03:49:29 | 01:27:09 | 00:00:00 | |
| DO2KSM | 2026-09-02 05:58:10 | 49.61066 | 8.21835 | 83° | 18km/h | 21796m | 4.4m/s | -52.0°C | 0.8% | 44.3hPa | 2.7V | 00:00:00 | 00:00:00 | 00:00:00 | |
| DL1XH1-15 | 2026-09-02 05:58:09 | 49.61060 | 8.21788 | 73° | 16km/h | 21764m | 5.7m/s | -52.4°C | 3.6% | 44.5hPa | 2.7V | 03:49:07 | 01:27:04 | 00:00:00 | |
| DL1XH-west | 2026-09-02 05:58:04 | 49.61060 | 8.21788 | 73° | 16km/h | 21764m | 5.7m/s | -52.4°C | 0% | 44.6hPa | 2.7V | 03:49:29 | 01:27:04 | 00:00:00 | |
| DO3MHA-11 | 2026-09-02 05:58:04 | 49.61060 | 8.21788 | 74° | 15km/h | 21764m | 5.7m/s | -52.4°C | 3.6% | 44.5hPa | 2.6V | 00:00:00 | 01:27:04 | 00:00:00 | |
| DL4BBY-15 | 2026-09-02 05:58:03 | 49.61059 | 8.21783 | 76° | 15km/h | 21759m | 4.5m/s | -53.7°C | 0% | 0hPa | 2.6V | 00:00:00 | 00:00:00 | 00:00:00 | |
| DL9PN | 2026-09-02 05:58:02 | 49.61058 | 8.21778 | 66° | 11km/h | 21754m | 3.7m/s | -52.6°C | 0.8% | 44.6hPa | 2.6V | 00:00:00 | 00:00:00 | 00:00:00 | |
| DO1YAY-16 | 2026-09-02 05:58:01 | 49.61056 | 8.21774 | 52° | 11km/h | 21750m | 5.1m/s | -52.6°C | 0.8% | 44.6hPa | 2.6V | 00:00:00 | 00:00:00 | 00:00:00 | |
| BIOWL1-15 | 2026-09-02 05:58:01 | 49.61052 | 8.21767 | 41° | 13km/h | 21740m | 4.5m/s | -52.4°C | 0% | 44.7hPa | 2.6V | 03:49:29 | 01:26:59 | 00:00:00 | |
| DM3KS-11 | 2026-09-02 05:58:00 | 49.61054 | 8.21770 | 41° | 11km/h | 21745m | 4.9m/s | -52.5°C | 0.8% | 44.7hPa | 2.6V | 00:00:00 | 00:00:00 | 00:00:00 | |
| DL1XH1-15 | 2026-09-02 05:57:59 | 49.61047 | 8.21740 | 87° | 18km/h | 21716m | 5.8m/s | -52.3°C | 3.7% | 44.9hPa | 2.6V | 03:49:17 | 01:26:54 | 00:00:00 | |
| DM0DOS-11 | 2026-09-02 05:57:57 | 49.61047 | 8.21732 | 90° | 20km/h | 21711m | 4.9m/s | -52.2°C | 3.7% | 44.9hPa | 2.6V | 03:49:18 | 01:26:53 | 00:00:00 | |
| DL1XH-west | 2026-09-02 05:57:53 | 49.61047 | 8.21732 | 90° | 20km/h | 21711m | 4.9m/s | -52.3°C | 0% | 44.9hPa | 2.6V | 03:49:29 | 01:26:53 | 00:00:00 | |
| BIOWL1-15 | 2026-09-02 05:57:50 | 49.61048 | 8.21700 | 68° | 13km/h | 21687m | 5.6m/s | -52.2°C | 0% | 45.1hPa | 2.6V | 03:49:29 | 01:26:48 | 00:00:00 | |
| DL1XH1-15 | 2026-09-02 05:57:49 | 49.61042 | 8.21685 | 89° | 9km/h | 21669m | 5.1m/s | -52°C | 3.6% | 45.2hPa | 2.6V | 03:49:27 | 01:26:44 | 00:00:00 | |
| DD1CC8 | 2026-09-02 05:57:48 | 49.61048 | 8.21700 | 67° | 13km/h | 21687m | 5.6m/s | -52.2°C | 0.8% | 45.1hPa | 2.6V | 00:00:00 | 00:00:00 | 00:00:00 | |
| DO2KSM | 2026-09-02 05:57:47 | 49.61048 | 8.21700 | 69° | 13km/h | 21687m | 5.6m/s | -52.2°C | 0.8% | 45.1hPa | 2.6V | 00:00:00 | 00:00:00 | 00:00:00 | |
| DM0DOS-11 | 2026-09-02 05:57:46 | 49.61042 | 8.21681 | 113° | 13km/h | 21664m | 4.4m/s | -52°C | 3.5% | 45.2hPa | 2.6V | 03:49:28 | 01:26:43 | 00:00:00 | |
| DL1XH-west | 2026-09-02 05:57:42 | 49.61044 | 8.21676 | 121° | 16km/h | 21660m | 3.7m/s | -52°C | 0% | 45.3hPa | 2.7V | 03:49:29 | 01:26:42 | 00:00:00 | |
| BIOWL1-15 | 2026-09-02 05:57:37 | 49.61053 | 8.21644 | 112° | 18km/h | 21637m | 5.4m/s | -52.1°C | 0% | 45.5hPa | 2.7V | 03:50:20 | 01:26:37 | 00:00:00 | |
| DM0DOS-11 | 2026-09-02 05:57:36 | 49.61057 | 8.21623 | 75° | 9km/h | 21618m | 5m/s | -52°C | 3.5% | 45.6hPa | 2.6V | 03:49:38 | 01:26:33 | 00:00:00 | |
| DL1XH1-15 | 2026-09-02 05:57:34 | 49.61057 | 8.21628 | 95° | 11km/h | 21623m | 5m/s | -52.1°C | 3.6% | 45.5hPa | 2.6V | 03:49:37 | 01:26:34 | 00:00:00 | |
| DL1XH-west | 2026-09-02 05:57:31 | 49.61056 | 8.21618 | 85° | 5km/h | 21610m | 3.9m/s | -52.1°C | 0% | 45.6hPa | 2.7V | 03:50:20 | 01:26:31 | 00:00:00 | |
| BIOWL1-15 | 2026-09-02 05:57:29 | 49.61065 | 8.21606 | 143° | 20km/h | 21592m | 4.2m/s | -52.1°C | 0% | 45.8hPa | 2.6V | 03:50:20 | 01:26:27 | 00:00:00 | |
| DJTTGO | 2026-09-02 05:57:28 | 49.61058 | 8.21613 | 148° | 13km/h | 21601m | 4.5m/s | -52.0°C | 0.8% | 45.7hPa | 2.7V | 03:50:00 | 00:00:00 | 00:00:00 | |
| DB0UT-7 | 2026-09-02 05:57:27 | 49.61065 | 8.21606 | 143° | 16km/h | 21593m | 4.2m/s | -52.0°C | 3.5% | 45.7hPa | 2.7V | 00:00:00 | 00:00:00 | 00:00:00 | |
| DM0DOS-11 | 2026-09-02 05:57:26 | 49.61079 | 8.21577 | 113° | 24km/h | 21575m | 3.8m/s | -52°C | 3.5% | 45.9hPa | 2.7V | 03:49:48 | 01:26:23 | 00:00:00 | |
| DL1XH1-15 | 2026-09-02 05:57:25 | 49.61076 | 8.21586 | 118° | 24km/h | 21579m | 4.4m/s | -52°C | 3.6% | 45.9hPa | 2.7V | 03:49:47 | 01:26:24 | 00:00:00 | |
| DL1XH-west | 2026-09-02 05:57:21 | 49.61083 | 8.21562 | 108° | 18km/h | 21565m | 4.6m/s | -52°C | 0% | 45.9hPa | 2.6V | 03:50:20 | 01:26:21 | 00:00:00 | |
| BIOWL1-15 | 2026-09-02 05:57:18 | 49.61082 | 8.21532 | 85° | 15km/h | 21545m | 3.4m/s | -52°C | 0% | 46.1hPa | 2.6V | 03:50:20 | 01:26:16 | 00:00:00 | |
| DM0DOS-11 | 2026-09-02 05:57:16 | 49.61085 | 8.21517 | 128° | 16km/h | 21531m | 3.8m/s | -52°C | 3.6% | 46.2hPa | 2.7V | 03:49:58 | 01:26:13 | 00:00:00 | |
| DL1XH-west | 2026-09-02 05:57:10 | 49.61092 | 8.21499 | 114° | 16km/h | 21517m | 4.1m/s | -52°C | 0% | 46.3hPa | 2.7V | 03:50:20 | 01:26:10 | 00:00:00 | |
| NBG1-10 | 2026-09-02 05:57:10 | 49.61092 | 8.21499 | 114° | 13km/h | 21518m | 4.0m/s | -52.0°C | 3.6% | 46.2hPa | 2.6V | 00:00:00 | 01:26:10 | 00:00:00 | |
| DJTTGO | 2026-09-02 05:57:08 | 49.61093 | 8.21494 | 114° | 15km/h | 21513m | 4.8m/s | -51.9°C | 0.8% | 46.3hPa | 2.6V | 03:50:00 | 00:00:00 | 00:00:00 | |
| DM0DOS-11 | 2026-09-02 05:57:06 | 49.61092 | 8.21465 | 79° | 15km/h | 21487m | 3.9m/s | -52°C | 3.5% | 46.5hPa | 2.6V | 03:50:08 | 01:26:03 | 00:00:00 | |
| BIOWL1-15 | 2026-09-02 05:57:05 | 49.61094 | 8.21476 | 70° | 13km/h | 21495m | 5m/s | -52°C | 0% | 46.5hPa | 2.7V | 03:50:20 | 01:26:05 | 00:00:00 | |
| DL1XH-west | 2026-09-02 05:56:59 | 49.61098 | 8.21447 | 132° | 18km/h | 21469m | 4.5m/s | -52.1°C | 0% | 46.6hPa | 2.7V | 03:50:20 | 01:25:59 | 00:00:00 | |
| DO1YAY-16 | 2026-09-02 05:56:59 | 49.61101 | 8.21441 | 126° | 18km/h | 21464m | 4.9m/s | -52.1°C | 0.8% | 46.7hPa | 2.7V | 00:00:00 | 00:00:00 | 00:00:00 | |
| DM3KS-11 | 2026-09-02 05:56:58 | 49.61104 | 8.21435 | 122° | 20km/h | 21460m | 4.2m/s | -52.2°C | 0.8% | 46.7hPa | 2.7V | 00:00:00 | 00:00:00 | 00:00:00 | |
| DM0DOS-11 | 2026-09-02 05:56:57 | 49.61114 | 8.21412 | 129° | 13km/h | 21442m | 4.1m/s | -52.2°C | 3.6% | 46.8hPa | 2.7V | 03:50:18 | 01:25:53 | 00:00:00 | |
| BIOWL1-15 | 2026-09-02 05:56:55 | 49.61109 | 8.21422 | 123° | 18km/h | 21451m | 4.7m/s | -52.2°C | 0% | 46.8hPa | 2.6V | 03:50:20 | 01:25:55 | 00:00:00 | |
| DL1XH-west | 2026-09-02 05:56:49 | 49.61115 | 8.21399 | 61° | 9km/h | 21424m | 4.1m/s | -52.3°C | 0% | 47hPa | 2.6V | 03:51:11 | 01:25:49 | 00:00:00 | |
| DL3AQ-11 | 2026-09-02 05:56:48 | 49.61113 | 8.21395 | 68° | 4km/h | 21415m | 5.4m/s | -52.4°C | 0.8% | 47.0hPa | 2.7V | 00:00:00 | 00:00:00 | 00:00:00 | |
| DD1CC8 | 2026-09-02 05:56:46 | 49.61114 | 8.21393 | 150° | 4km/h | 21406m | 3.9m/s | -52.4°C | 0.8% | 47.1hPa | 2.7V | 00:00:00 | 00:00:00 | 00:00:00 | |
| BIOWL1-15 | 2026-09-02 05:56:46 | 49.61115 | 8.21392 | 144° | 7km/h | 21401m | 5.3m/s | -52.4°C | 0% | 47.1hPa | 2.7V | 03:51:11 | 01:25:44 | 00:00:00 | |
| DL1XH1-15 | 2026-09-02 05:56:45 | 49.61115 | 8.21392 | 143° | 7km/h | 21401m | 5.3m/s | -52.4°C | 3.7% | 47.1hPa | 2.7V | 03:50:27 | 01:25:44 | 00:00:00 | |
| DO3MHA-11 | 2026-09-02 05:56:44 | 49.61115 | 8.21392 | 144° | 11km/h | 21401m | 5.3m/s | -52.3°C | 3.7% | 47.1hPa | 2.7V | 00:00:00 | 01:25:44 | 00:00:00 | |
| DJ2DS-15 | 2026-09-02 05:56:42 | 49.61119 | 8.21387 | 139° | 13km/h | 21391m | 4.4m/s | -52.3°C | 3.6% | 47.2hPa | 2.7V | 00:00:00 | 01:25:42 | 00:00:00 | |
| AU51GT2 | 2026-09-02 05:56:41 | 49.61121 | 8.21385 | 146° | 11km/h | 21386m | 5.4m/s | -52.4°C | 0.8% | 47.2hPa | 2.7V | 00:00:00 | 00:00:00 | 00:00:00 | |
| DL1XH1-15 | 2026-09-02 05:56:39 | 49.61129 | 8.21361 | 106° | 11km/h | 21355m | 4.7m/s | -52.2°C | 3.5% | 47.5hPa | 2.7V | 03:50:37 | 01:25:34 | 00:00:00 | |
| DL1XH-west | 2026-09-02 05:56:39 | 49.61126 | 8.21380 | 145° | 9km/h | 21377m | 3.5m/s | -52.3°C | 0% | 47.3hPa | 2.7V | 03:51:11 | 01:25:39 | 00:00:00 | |
| DM0DOS-11 | 2026-09-02 05:56:37 | 49.61131 | 8.21357 | 131° | 9km/h | 21350m | 5m/s | -52.2°C | 3.5% | 47.5hPa | 2.7V | 03:50:38 | 01:25:33 | 00:00:00 | |
| BIOWL1-15 | 2026-09-02 05:56:36 | 49.61129 | 8.21361 | 107° | 11km/h | 21355m | 4.7m/s | -52.2°C | 0% | 47.5hPa | 2.7V | 03:51:11 | 01:25:34 | 00:00:00 | |
| DL1XH-west | 2026-09-02 05:56:28 | 49.61144 | 8.21346 | 133° | 16km/h | 21328m | 4.5m/s | -52.3°C | 0% | 47.7hPa | 2.7V | 03:51:11 | 01:25:28 | 00:00:00 | |
| DO1YAY-16 | 2026-09-02 05:56:28 | 49.61147 | 8.21341 | 128° | 18km/h | 21324m | 4.1m/s | -52.4°C | 0.8% | 47.7hPa | 2.6V | 00:00:00 | 00:00:00 | 00:00:00 | |
| DM0DOS-11 | 2026-09-02 05:56:27 | 49.61160 | 8.21315 | 127° | 20km/h | 21306m | 4.4m/s | -52.4°C | 3.6% | 47.8hPa | 2.6V | 03:50:48 | 01:25:23 | 00:00:00 | |
| DB0UT-7 | 2026-09-02 05:56:27 | 49.61147 | 8.21340 | 129° | 22km/h | 21324m | 4.1m/s | -52.3°C | 3.6% | 47.7hPa | 2.7V | 00:00:00 | 00:00:00 | 00:00:00 | |
| DL1XH1-15 | 2026-09-02 05:56:25 | 49.61157 | 8.21322 | 130° | 22km/h | 21310m | 3.6m/s | -52.4°C | 3.6% | 47.8hPa | 2.6V | 03:50:47 | 01:25:24 | 00:00:00 | |
| BIOWL1-15 | 2026-09-02 05:56:23 | 49.61160 | 8.21315 | 127° | 20km/h | 21306m | 4.4m/s | -52.4°C | 0% | 47.8hPa | 2.6V | 03:51:11 | 01:25:23 | 00:00:00 | |
| DB0ND-19 | 2026-09-02 05:56:23 | 49.61163 | 8.21309 | 122° | 18km/h | 21302m | 5.5m/s | -52.3°C | 0.8% | 47.9hPa | 2.7V | 00:00:00 | 00:00:00 | 00:00:00 | |
| DJ2DS-15 | 2026-09-02 05:56:22 | 49.61163 | 8.21309 | 123° | 24km/h | 21302m | 5.5m/s | -52.3°C | 3.7% | 47.8hPa | 2.7V | 00:00:00 | 01:25:22 | 00:00:00 | |
| DL0LBS | 2026-09-02 05:56:21 | 49.61163 | 8.21309 | 123° | 18km/h | 21302m | 5.5m/s | -52.3°C | 0.9% | 47.9hPa | 2.6V | 03:51:00 | 00:00:00 | 00:00:00 | |
| SONCRA | 2026-09-02 05:56:20 | 49.61168 | 8.21296 | 120° | 16km/h | 21292m | 4.2m/s | -52.4°C | 0.8% | 47.9hPa | 2.6V | 00:00:00 | 00:00:00 | 00:00:00 | |
| DL1XH1-15 | 2026-09-02 05:56:19 | 49.61188 | 8.21256 | 119° | 24km/h | 21265m | 4.4m/s | -52.3°C | 3.6% | 48.2hPa | 2.6V | 03:50:57 | 01:25:14 | 00:00:00 | |
| DJ2KF-10 | 2026-09-02 05:56:19 | 49.61170 | 8.21290 | 127° | 20km/h | 21288m | 5.2m/s | -52.3°C | 3.7% | 47.9hPa | 2.7V | 00:00:00 | 01:25:19 | 00:00:00 | |
| DM0DOS-11 | 2026-09-02 05:56:17 | 49.61191 | 8.21247 | 118° | 26km/h | 21260m | 4m/s | -52.3°C | 3.6% | 48.2hPa | 2.7V | 03:50:58 | 01:25:13 | 00:00:00 | |
| DL1XH-west | 2026-09-02 05:56:17 | 49.61178 | 8.21278 | 133° | 24km/h | 21278m | 3.7m/s | -52.4°C | 0% | 48hPa | 2.7V | 03:51:11 | 01:25:17 | 00:00:00 | |
| BIOWL1-15 | 2026-09-02 05:56:13 | 49.61191 | 8.21247 | 118° | 26km/h | 21260m | 4m/s | -52.3°C | 0% | 48.2hPa | 2.7V | 03:51:11 | 01:25:13 | 00:00:00 | |
| CB1BUN | 2026-09-02 05:56:13 | 49.61191 | 8.21247 | 119° | 26km/h | 21261m | 4.0m/s | -52.3°C | 0.8% | 48.2hPa | 2.7V | 03:51:00 | 00:00:00 | 00:00:00 | |
| BIOWL7-15 | 2026-09-02 05:56:12 | 49.61194 | 8.21238 | 122° | 27km/h | 21256m | 4.8m/s | -52.3°C | 0.8% | 48.2hPa | 2.7V | 03:51:00 | 00:00:00 | 00:00:00 | |
| DN1GJH-1 | 2026-09-02 05:56:11 | 49.61194 | 8.21238 | 122° | 27km/h | 21256m | 4.8m/s | -52.3°C | 0.8% | 48.2hPa | 2.7V | 03:51:00 | 00:00:00 | 00:00:00 | |
| AU51GT2 | 2026-09-02 05:56:10 | 49.61203 | 8.21220 | 128° | 29km/h | 21246m | 4.6m/s | -52.4°C | 0.8% | 48.3hPa | 2.7V | 00:00:00 | 00:00:00 | 00:00:00 | |
| DM7RM-13 | 2026-09-02 05:56:09 | 49.61208 | 8.21211 | 129° | 31km/h | 21242m | 3.9m/s | -52.3°C | 0.8% | 48.3hPa | 2.7V | 03:51:00 | 00:00:00 | 00:00:00 | |
| DL3AQ-11 | 2026-09-02 05:56:08 | 49.61216 | 8.21191 | 117° | 27km/h | 21234m | 4.6m/s | -52.3°C | 0.8% | 48.4hPa | 2.7V | 00:00:00 | 00:00:00 | 00:00:00 | |
| DM0DOS-11 | 2026-09-02 05:56:07 | 49.61220 | 8.21159 | 94° | 15km/h | 21216m | 4.4m/s | -52.3°C | 3.6% | 48.5hPa | 2.7V | 03:51:08 | 01:25:03 | 00:00:00 | |
| DL1XH-west | 2026-09-02 05:56:07 | 49.61216 | 8.21191 | 118° | 27km/h | 21234m | 4.6m/s | -52.3°C | 0% | 48.4hPa | 2.7V | 03:51:11 | 01:25:07 | 00:00:00 | |
| DL1XH1-15 | 2026-09-02 05:56:05 | 49.61220 | 8.21165 | 89° | 18km/h | 21220m | 3.9m/s | -52.3°C | 3.6% | 48.5hPa | 2.6V | 03:51:07 | 01:25:04 | 00:00:00 | |
| BIOWL1-15 | 2026-09-02 05:56:03 | 49.61221 | 8.21153 | 108° | 15km/h | 21211m | 5.2m/s | -52.2°C | 0% | 48.5hPa | 2.7V | 03:51:11 | 01:25:02 | 00:00:00 | |
| DL4BBY-15 | 2026-09-02 05:56:03 | 49.61220 | 8.21159 | 95° | 13km/h | 21216m | 4.3m/s | -53.5°C | 0% | 0hPa | 2.6V | 00:00:00 | 00:00:00 | 00:00:00 | |
| DL8DAS-14 | 2026-09-02 05:56:02 | 49.61221 | 8.21153 | 108° | 13km/h | 21211m | 5.2m/s | -52.2°C | 0.8% | 48.5hPa | 2.6V | 00:00:00 | 00:00:00 | 00:00:00 | |
| DL9PN | 2026-09-02 05:55:58 | 49.61235 | 8.21130 | 117° | 9km/h | 21183m | 4.8m/s | -52.2°C | 0.8% | 48.8hPa | 2.6V | 00:00:00 | 00:00:00 | 00:00:00 | |
| DB0UT-7 | 2026-09-02 05:55:57 | 49.61234 | 8.21133 | 133° | 11km/h | 21188m | 5.0m/s | -52.2°C | 3.6% | 48.7hPa | 2.6V | 03:51:00 | 01:24:57 | 00:00:00 | |
| DL1XH-west | 2026-09-02 05:55:57 | 49.61234 | 8.21133 | 132° | 13km/h | 21188m | 5.1m/s | -52.2°C | 0% | 48.7hPa | 2.6V | 03:52:02 | 01:24:57 | 00:00:00 | |
| DM0DOS-11 | 2026-09-02 05:55:56 | 49.61238 | 8.21116 | 112° | 15km/h | 21170m | 5.5m/s | -52.2°C | 3.6% | 48.8hPa | 2.6V | 03:51:18 | 01:24:53 | 00:00:00 | |
| DL1XH1-15 | 2026-09-02 05:55:56 | 49.61237 | 8.21121 | 106° | 13km/h | 21174m | 3.6m/s | -52.1°C | 3.6% | 48.8hPa | 2.7V | 03:51:17 | 01:24:54 | 00:00:00 | |
| BIOWL1-15 | 2026-09-02 05:55:54 | 49.61240 | 8.21110 | 114° | 18km/h | 21164m | 4.6m/s | -52.1°C | 0% | 48.9hPa | 2.6V | 03:52:02 | 01:24:52 | 00:00:00 | |
| DL1XH-west | 2026-09-02 05:55:46 | 49.61245 | 8.21081 | 105° | 9km/h | 21136m | 5.5m/s | -52°C | 0% | 49.1hPa | 2.6V | 03:52:02 | 01:24:46 | 00:00:00 | |
| DL1XH1-15 | 2026-09-02 05:55:45 | 49.61247 | 8.21074 | 104° | 7km/h | 21127m | 3.6m/s | -52°C | 3.6% | 49.2hPa | 2.7V | 03:51:27 | 01:24:44 | 00:00:00 | |
| BIOWL1-15 | 2026-09-02 05:55:41 | 49.61246 | 8.21068 | 68° | 5km/h | 21113m | 3.6m/s | -52°C | 0% | 49.3hPa | 2.7V | 03:52:02 | 01:24:41 | 00:00:00 | |
| DL0LBS | 2026-09-02 05:55:40 | 49.61246 | 8.21068 | 68° | 5km/h | 21113m | 3.6m/s | -52.0°C | 0.8% | 49.3hPa | 2.6V | 03:52:00 | 00:00:00 | 00:00:00 | |
| AU51GT2 | 2026-09-02 05:55:39 | 49.61246 | 8.21063 | 109° | 7km/h | 21105m | 5.2m/s | -52.1°C | 0.8% | 49.4hPa | 2.6V | 00:00:00 | 00:00:00 | 00:00:00 | |
| DL8DAS-15 | 2026-09-02 05:55:38 | 49.61246 | 8.21063 | 110° | 7km/h | 21105m | 5.2m/s | -52.1°C | 0.9% | 49.4hPa | 2.6V | 00:00:00 | 00:00:00 | 00:00:00 | |
| DF7PN | 2026-09-02 05:55:37 | 49.61249 | 8.21050 | 92° | 13km/h | 21092m | 4.8m/s | -52.0°C | 0.8% | 49.4hPa | 2.6V | 00:00:00 | 00:00:00 | 00:00:00 | |
| DM0DOS-11 | 2026-09-02 05:55:36 | 49.61245 | 8.21034 | 57° | 15km/h | 21079m | 4m/s | -51.9°C | 3.7% | 49.5hPa | 2.6V | 03:51:38 | 01:24:33 | 00:00:00 | |
| DL1XH-west | 2026-09-02 05:55:36 | 49.61249 | 8.21050 | 93° | 15km/h | 21092m | 4.8m/s | -52°C | 0% | 49.4hPa | 2.7V | 03:52:02 | 01:24:36 | 00:00:00 | |
| BIOWL1-15 | 2026-09-02 05:55:30 | 49.61241 | 8.21022 | 66° | 7km/h | 21066m | 4.5m/s | -51.9°C | 0% | 49.7hPa | 2.7V | 03:52:02 | 01:24:30 | 00:00:00 | |
| HSKMA3-T | 2026-09-02 05:55:29 | 49.61239 | 8.21018 | 43° | 7km/h | 21057m | 4.3m/s | 0°C | 0% | 0hPa | 2.6V | 18:12:15 | 01:24:28 | 00:00:00 | |
| DL1XH-west | 2026-09-02 05:55:25 | 49.61233 | 8.21014 | 9° | 11km/h | 21044m | 3.7m/s | -51.8°C | 0% | 49.8hPa | 2.6V | 03:52:02 | 01:24:25 | 00:00:00 | |
| DL1XH1-15 | 2026-09-02 05:55:25 | 49.61230 | 8.21014 | 3° | 9km/h | 21039m | 5.3m/s | -51.8°C | 3.5% | 49.8hPa | 2.7V | 03:51:47 | 01:24:24 | 00:00:00 | |
| DM3KS-11 | 2026-09-02 05:55:25 | 49.61231 | 8.21014 | 3° | 7km/h | 21039m | 5.3m/s | -51.8°C | 0.8% | 49.8hPa | 2.7V | 00:00:00 | 00:00:00 | 00:00:00 | |
| DO3MHA-11 | 2026-09-02 05:55:24 | 49.61230 | 8.21014 | 4° | 5km/h | 21039m | 5.3m/s | -51.8°C | 3.5% | 49.8hPa | 2.7V | 00:00:00 | 01:24:24 | 00:00:00 | |
| DJ2DS-15 | 2026-09-02 05:55:22 | 49.61227 | 8.21014 | 1° | 4km/h | 21030m | 4.0m/s | -51.7°C | 3.5% | 49.9hPa | 2.7V | 00:00:00 | 01:24:22 | 00:00:00 | |
| HEMX73-11 | 2026-09-02 05:55:20 | 49.61225 | 8.21014 | 12° | 7km/h | 21025m | 5.1m/s | -51.7°C | 0.8% | 50.0hPa | 2.6V | 03:52:00 | 00:00:00 | 00:00:00 | |
| DL1XH1-15 | 2026-09-02 05:55:19 | 49.61220 | 8.21007 | 70° | 4km/h | 20993m | 5m/s | -51.9°C | 3.6% | 50.2hPa | 2.6V | 03:51:57 | 01:24:14 | 00:00:00 | |
| BIOWL1-15 | 2026-09-02 05:55:19 | 49.61222 | 8.21012 | 28° | 7km/h | 21016m | 4m/s | -51.7°C | 0% | 50hPa | 2.6V | 03:52:02 | 01:24:19 | 00:00:00 | |
| DJ2KF-10 | 2026-09-02 05:55:19 | 49.61222 | 8.21012 | 28° | 7km/h | 21016m | 4.0m/s | -51.7°C | 3.5% | 50.0hPa | 2.6V | 00:00:00 | 01:24:19 | 00:00:00 | |
| SONCRA | 2026-09-02 05:55:18 | 49.61221 | 8.21010 | 30° | 4km/h | 21012m | 4.7m/s | -51.8°C | 0.8% | 50.0hPa | 2.7V | 00:00:00 | 00:00:00 | 00:00:00 | |
| BIOWL9-15 | 2026-09-02 05:55:17 | 49.61220 | 8.21009 | 129° | 2km/h | 21002m | 4.0m/s | -51.8°C | 0.8% | 50.1hPa | 2.7V | 00:00:00 | 00:00:00 | 00:00:00 | |
| DM0DOS-11 | 2026-09-02 05:55:16 | 49.61220 | 8.21006 | 42° | 5km/h | 20988m | 4.9m/s | -51.8°C | 3.7% | 50.3hPa | 2.7V | 03:51:58 | 01:24:13 | 00:00:00 | |
| DL1XH-west | 2026-09-02 05:55:15 | 49.61220 | 8.21008 | 124° | 2km/h | 20998m | 4m/s | -51.8°C | 0% | 50.2hPa | 2.6V | 03:52:02 | 01:24:15 | 00:00:00 | |
| HSKMA3-T | 2026-09-02 05:55:11 | 49.61218 | 8.21004 | 25° | 5km/h | 20980m | 4m/s | 0°C | 0% | 0hPa | 2.6V | 18:12:15 | 01:24:11 | 00:00:00 | |
| BIOWL1-15 | 2026-09-02 05:55:08 | 49.61216 | 8.21003 | 200° | 0km/h | 20966m | 4.1m/s | -51.5°C | 0% | 50.4hPa | 2.7V | 03:52:53 | 01:24:08 | 00:00:00 | |
| DJ2DS-15 | 2026-09-02 05:55:07 | 49.61216 | 8.21003 | 100° | 0km/h | 20962m | 4.8m/s | -51.6°C | 0.8% | 50.4hPa | 2.7V | 00:00:00 | 00:00:00 | 00:00:00 | |
| DM0DOS-11 | 2026-09-02 05:55:06 | 49.61218 | 8.20996 | 139° | 9km/h | 20943m | 5.1m/s | -51.7°C | 3.4% | 50.6hPa | 2.7V | 03:52:08 | 01:24:03 | 00:00:00 | |
| DL1XH1-15 | 2026-09-02 05:55:05 | 49.61217 | 8.20998 | 119° | 7km/h | 20948m | 4.1m/s | -51.6°C | 3.4% | 50.6hPa | 2.7V | 03:52:07 | 01:24:04 | 00:00:00 | |
| DL1XH-west | 2026-09-02 05:55:04 | 49.61217 | 8.20998 | 119° | 7km/h | 20948m | 4.1m/s | -51.6°C | 0% | 50.6hPa | 2.7V | 03:52:53 | 01:24:04 | 00:00:00 | |
| BIOWL1-15 | 2026-09-02 05:55:01 | 49.61231 | 8.20977 | 118° | 15km/h | 20915m | 4m/s | -51.6°C | 0% | 50.8hPa | 2.7V | 03:52:53 | 01:23:57 | 00:00:00 | |
| DO3MHA-11 | 2026-09-02 05:55:00 | 49.61225 | 8.20990 | 147° | 13km/h | 20929m | 4.9m/s | -51.6°C | 3.5% | 50.7hPa | 2.7V | 00:00:00 | 01:24:00 | 00:00:00 | |
| HEMX73-11 | 2026-09-02 05:54:59 | 49.61225 | 8.20990 | 147° | 13km/h | 20929m | 5.0m/s | -51.7°C | 0.8% | 50.7hPa | 2.7V | 03:52:00 | 00:00:00 | 00:00:00 | |
| NBG1-10 | 2026-09-02 05:54:58 | 49.61230 | 8.20982 | 121° | 20km/h | 20920m | 4.6m/s | -51.5°C | 3.5% | 50.8hPa | 2.7V | 00:00:00 | 01:23:58 | 00:00:00 | |
| DB0UT-7 | 2026-09-02 05:54:57 | 49.61231 | 8.20977 | 118° | 20km/h | 20915m | 4.0m/s | -51.5°C | 3.6% | 50.8hPa | 2.7V | 00:00:00 | 01:23:57 | 00:00:00 | |
| DM0DOS-11 | 2026-09-02 05:54:56 | 49.61240 | 8.20959 | 122° | 13km/h | 20896m | 5.7m/s | -51.7°C | 3.5% | 51hPa | 2.6V | 03:52:18 | 01:23:53 | 00:00:00 | |
| DL9PN | 2026-09-02 05:54:56 | 49.61236 | 8.20967 | 127° | 15km/h | 20905m | 5.0m/s | -51.6°C | 0.8% | 50.9hPa | 2.6V | 00:00:00 | 00:00:00 | 00:00:00 | |
| DL1XH1-15 | 2026-09-02 05:54:55 | 49.61238 | 8.20963 | 127° | 15km/h | 20900m | 4.3m/s | -51.7°C | 3.5% | 50.9hPa | 2.6V | 03:52:17 | 01:23:54 | 00:00:00 | |
| DL1XH-west | 2026-09-02 05:54:54 | 49.61238 | 8.20963 | 128° | 15km/h | 20900m | 4.3m/s | -51.7°C | 0% | 51hPa | 2.6V | 03:52:53 | 01:23:54 | 00:00:00 | |
| BIOWL1-15 | 2026-09-02 05:54:47 | 49.61252 | 8.20938 | 131° | 16km/h | 20868m | 4.5m/s | -51.9°C | 0% | 51.2hPa | 2.6V | 03:52:53 | 01:23:47 | 00:00:00 | |
| DM0DOS-11 | 2026-09-02 05:54:46 | 49.61262 | 8.20898 | 111° | 27km/h | 20843m | 5.1m/s | -51.8°C | 3.5% | 51.4hPa | 2.6V | 03:52:29 | 01:23:42 | 00:00:00 | |
| BIOWL9-15 | 2026-09-02 05:54:46 | 49.61256 | 8.20925 | 107° | 20km/h | 20858m | 4.7m/s | -51.9°C | 0.8% | 51.3hPa | 2.6V | 00:00:00 | 00:00:00 | 00:00:00 | |
| DL1XH1-15 | 2026-09-02 05:54:45 | 49.61258 | 8.20917 | 105° | 24km/h | 20853m | 4.6m/s | -51.9°C | 3.5% | 51.3hPa | 2.6V | 03:52:27 | 01:23:44 | 00:00:00 | |
| DL1XH-west | 2026-09-02 05:54:43 | 49.61260 | 8.20908 | 108° | 26km/h | 20848m | 5.7m/s | -51.9°C | 0% | 51.3hPa | 2.6V | 03:52:53 | 01:23:43 | 00:00:00 | |
| BIOWL1-15 | 2026-09-02 05:54:37 | 49.61273 | 8.20851 | 112° | 22km/h | 20819m | 5.1m/s | -51.9°C | 0% | 51.6hPa | 2.7V | 03:52:53 | 01:23:37 | 00:00:00 | |
| DM0DOS-11 | 2026-09-02 05:54:36 | 49.61283 | 8.20815 | 110° | 22km/h | 20795m | 3.8m/s | -52.3°C | 3.6% | 51.8hPa | 2.7V | 03:52:39 | 01:23:32 | 00:00:00 | |
| DL1XH1-15 | 2026-09-02 05:54:35 | 49.61280 | 8.20829 | 114° | 20km/h | 20805m | 5.2m/s | -52.2°C | 3.6% | 51.7hPa | 2.6V | 03:52:37 | 01:23:34 | 00:00:00 | |
| DL1XH-west | 2026-09-02 05:54:33 | 49.61282 | 8.20822 | 111° | 20km/h | 20800m | 4.9m/s | -52.3°C | 0% | 51.7hPa | 2.6V | 03:52:53 | 01:23:33 | 00:00:00 | |
| DL4BBY-15 | 2026-09-02 05:54:33 | 49.61281 | 8.20822 | 111° | 27km/h | 20800m | 4.8m/s | -53.6°C | 0% | 0hPa | 2.6V | 00:00:00 | 00:00:00 | 00:00:00 | |
| DK5PH-5 | 2026-09-02 05:54:32 | 49.61283 | 8.20815 | 111° | 27km/h | 20796m | 3.8m/s | -52.3°C | 3.6% | 51.7hPa | 2.6V | 03:52:00 | 01:23:32 | 00:00:00 | |
| DJ2DS-15 | 2026-09-02 05:54:31 | 49.61286 | 8.20807 | 113° | 22km/h | 20791m | 4.9m/s | -52.3°C | 0.8% | 51.8hPa | 2.6V | 00:00:00 | 00:00:00 | 00:00:00 | |
| DO3MHA-11 | 2026-09-02 05:54:30 | 49.61288 | 8.20798 | 118° | 29km/h | 20786m | 5.4m/s | -52.3°C | 3.6% | 51.8hPa | 2.6V | 00:00:00 | 01:23:30 | 00:00:00 | |
| CB1BUN | 2026-09-02 05:54:29 | 49.61292 | 8.20788 | 119° | 29km/h | 20781m | 4.4m/s | -52.4°C | 0.8% | 51.9hPa | 2.6V | 03:52:00 | 00:00:00 | 00:00:00 | |
| DB0UT-7 | 2026-09-02 05:54:27 | 49.61298 | 8.20767 | 111° | 27km/h | 20772m | 5.2m/s | -52.3°C | 3.6% | 51.9hPa | 2.6V | 00:00:00 | 00:00:00 | 00:00:00 | |
| DM0DOS-11 | 2026-09-02 05:54:26 | 49.61312 | 8.20712 | 115° | 29km/h | 20747m | 4.1m/s | -52.5°C | 3.6% | 52.2hPa | 2.6V | 03:52:49 | 01:23:22 | 00:00:00 | |
| BIOWL1-15 | 2026-09-02 05:54:26 | 49.61300 | 8.20756 | 108° | 31km/h | 20767m | 4.3m/s | -52.4°C | 0% | 52hPa | 2.7V | 03:52:53 | 01:23:26 | 00:00:00 | |
| DL1XH1-15 | 2026-09-02 05:54:25 | 49.61306 | 8.20733 | 113° | 31km/h | 20757m | 5.6m/s | -52.4°C | 3.6% | 52hPa | 2.6V | 03:52:47 | 01:23:24 | 00:00:00 | |
| DL1XH-west | 2026-09-02 05:54:23 | 49.61309 | 8.20722 | 117° | 31km/h | 20752m | 4.8m/s | -52.5°C | 0% | 52.1hPa | 2.6V | 03:52:53 | 01:23:23 | 00:00:00 | |
| DJ2DS-15 | 2026-09-02 05:54:22 | 49.61312 | 8.20712 | 116° | 27km/h | 20748m | 4.1m/s | -52.5°C | 3.6% | 52.1hPa | 2.6V | 00:00:00 | 01:23:22 | 00:00:00 | |
| AM1SDL-15 | 2026-09-02 05:54:21 | 49.61315 | 8.20702 | 112° | 24km/h | 20743m | 5.2m/s | -52.5°C | 3.6% | 52.1hPa | 2.7V | 00:00:00 | 01:23:21 | 00:00:00 | |
| DO3MHA-11 | 2026-09-02 05:54:20 | 49.61318 | 8.20692 | 106° | 31km/h | 20738m | 5.0m/s | -52.5°C | 3.6% | 52.2hPa | 2.7V | 00:00:00 | 01:23:20 | 00:00:00 | |
| DJ2KF-10 | 2026-09-02 05:54:19 | 49.61319 | 8.20680 | 101° | 27km/h | 20733m | 3.9m/s | -52.5°C | 3.6% | 52.2hPa | 2.6V | 00:00:00 | 01:23:19 | 00:00:00 | |
| HEMX73-11 | 2026-09-02 05:54:18 | 49.61319 | 8.20680 | 102° | 29km/h | 20733m | 3.9m/s | -52.6°C | 0.8% | 52.3hPa | 2.6V | 03:52:00 | 00:00:00 | 00:00:00 | |
| DF1GD-15 | 2026-09-02 05:54:17 | 49.61320 | 8.20669 | 103° | 31km/h | 20730m | 3.8m/s | -52.6°C | 0.9% | 52.3hPa | 2.6V | 03:52:00 | 00:00:00 | 00:00:00 | |
| DM0DOS-11 | 2026-09-02 05:54:16 | 49.61334 | 8.20591 | 97° | 29km/h | 20702m | 4.5m/s | -52.9°C | 3.7% | 52.5hPa | 2.6V | 03:52:59 | 01:23:12 | 00:00:00 | |
| DL1XH1-15 | 2026-09-02 05:54:15 | 49.61330 | 8.20616 | 106° | 35km/h | 20711m | 4m/s | -52.8°C | 3.7% | 52.5hPa | 2.7V | 03:52:57 | 01:23:14 | 00:00:00 | |
| BIOWL1-15 | 2026-09-02 05:54:15 | 49.61328 | 8.20630 | 108° | 37km/h | 20715m | 4.1m/s | -52.8°C | 0% | 52.4hPa | 2.6V | 03:53:44 | 01:23:15 | 00:00:00 | |
| DL1XH-west | 2026-09-02 05:54:13 | 49.61333 | 8.20603 | 102° | 33km/h | 20707m | 4.8m/s | -52.8°C | 0% | 52.5hPa | 2.7V | 03:53:44 | 01:23:13 | 00:00:00 | |
| DD1CC8 | 2026-09-02 05:54:11 | 49.61336 | 8.20571 | 101° | 24km/h | 20693m | 4.6m/s | -52.9°C | 0.9% | 52.6hPa | 2.6V | 00:00:00 | 00:00:00 | 00:00:00 | |
| DO3MHA-11 | 2026-09-02 05:54:10 | 49.61336 | 8.20571 | 102° | 22km/h | 20693m | 4.6m/s | -52.9°C | 3.6% | 52.5hPa | 2.6V | 03:53:00 | 01:23:10 | 00:00:00 | |
| DJTTGO | 2026-09-02 05:54:09 | 49.61336 | 8.20571 | 102° | 26km/h | 20693m | 4.6m/s | -52.9°C | 0.9% | 52.6hPa | 2.6V | 03:53:00 | 00:00:00 | 00:00:00 | |
| BIOWL7-15 | 2026-09-02 05:54:08 | 49.61338 | 8.20562 | 109° | 24km/h | 20689m | 5.4m/s | -52.9°C | 0.8% | 52.6hPa | 2.6V | 00:00:00 | 00:00:00 | 00:00:00 | |
| DN1GJH-1 | 2026-09-02 05:54:07 | 49.61340 | 8.20553 | 114° | 22km/h | 20684m | 4.2m/s | 0°C | 0% | 0hPa | 2.6V | 00:00:00 | 00:00:00 | 00:00:00 | |
| DM0DOS-11 | 2026-09-02 05:54:06 | 49.61347 | 8.20505 | 97° | 24km/h | 20655m | 5.5m/s | -53.3°C | 3.7% | 52.9hPa | 2.6V | 03:53:09 | 01:23:02 | 00:00:00 | |
| DL1XH1-15 | 2026-09-02 05:54:05 | 49.61346 | 8.20522 | 95° | 20km/h | 20665m | 4.6m/s | -53.1°C | 3.6% | 52.8hPa | 2.7V | 03:53:07 | 01:23:04 | 00:00:00 | |
| BIOWL1-15 | 2026-09-02 05:54:04 | 49.61346 | 8.20522 | 95° | 20km/h | 20665m | 4.6m/s | -53.1°C | 0% | 52.8hPa | 2.7V | 03:53:44 | 01:23:04 | 00:00:00 | |
| DL1XH-west | 2026-09-02 05:54:03 | 49.61347 | 8.20514 | 95° | 22km/h | 20661m | 4.7m/s | -53.1°C | 0% | 52.8hPa | 2.6V | 03:53:44 | 01:23:03 | 00:00:00 | |
| DL4BBY-15 | 2026-09-02 05:54:03 | 49.61346 | 8.20514 | 95° | 33km/h | 20661m | 4.6m/s | -54.4°C | 0% | 0hPa | 2.6V | 00:00:00 | 00:00:00 | 00:00:00 | |
| DL8DAS-14 | 2026-09-02 05:53:58 | 49.61351 | 8.20466 | 92° | 26km/h | 20637m | 5.6m/s | -53.5°C | 0.9% | 53.1hPa | 2.6V | 00:00:00 | 00:00:00 | 00:00:00 | |
| DB0UT-7 | 2026-09-02 05:53:57 | 49.61351 | 8.20456 | 88° | 37km/h | 20632m | 4.4m/s | -53.5°C | 3.7% | 53.0hPa | 2.6V | 03:53:00 | 01:22:57 | 00:00:00 | |
| BIOWL1-15 | 2026-09-02 05:53:57 | 49.61354 | 8.20415 | 108° | 29km/h | 20613m | 3.7m/s | -53.8°C | 0.1% | 53.2hPa | 2.7V | 03:53:44 | 01:22:53 | 00:00:00 | |
| DM0DOS-11 | 2026-09-02 05:53:56 | 49.61358 | 8.20392 | 101° | 35km/h | 20604m | 5.2m/s | -53.9°C | 3.8% | 53.3hPa | 2.6V | 03:53:20 | 01:22:51 | 00:00:00 | |
| DL1XH1-15 | 2026-09-02 05:53:55 | 49.61352 | 8.20425 | 104° | 27km/h | 20617m | 4.9m/s | -53.8°C | 3.8% | 53.2hPa | 2.7V | 03:53:17 | 01:22:54 | 00:00:00 | |
| DL1XH-west | 2026-09-02 05:53:52 | 49.61356 | 8.20404 | 106° | 31km/h | 20609m | 4.8m/s | -53.9°C | 0.1% | 53.3hPa | 2.6V | 03:53:44 | 01:22:52 | 00:00:00 | |
| AM1SDL-15 | 2026-09-02 05:53:51 | 49.61358 | 8.20392 | 102° | 38km/h | 20604m | 5.2m/s | -53.8°C | 3.8% | 53.3hPa | 2.6V | 00:00:00 | 01:22:51 | 00:00:00 | |
| DO3MHA-11 | 2026-09-02 05:53:50 | 49.61360 | 8.20378 | 99° | 38km/h | 20599m | 4.3m/s | -53.8°C | 3.8% | 53.3hPa | 2.6V | 00:00:00 | 01:22:50 | 00:00:00 | |
| DJ2KF-10 | 2026-09-02 05:53:49 | 49.61361 | 8.20363 | 99° | 37km/h | 20595m | 4.0m/s | -53.8°C | 3.8% | 53.3hPa | 2.6V | 03:53:00 | 01:22:49 | 00:00:00 | |
| CB1BUN | 2026-09-02 05:53:47 | 49.61363 | 8.20347 | 100° | 42km/h | 20590m | 5.4m/s | -53.9°C | 0.9% | 53.4hPa | 2.7V | 03:53:00 | 00:00:00 | 00:00:00 | |
| DM0DOS-11 | 2026-09-02 05:53:46 | 49.61365 | 8.20241 | 91° | 31km/h | 20557m | 4.7m/s | -53.9°C | 3.8% | 53.7hPa | 2.7V | 03:53:30 | 01:22:41 | 00:00:00 | |
| DL1XH1-15 | 2026-09-02 05:53:45 | 49.61366 | 8.20282 | 86° | 40km/h | 20571m | 4.5m/s | -53.8°C | 3.8% | 53.6hPa | 2.6V | 03:53:27 | 01:22:44 | 00:00:00 | |
| BIOWL1-15 | 2026-09-02 05:53:44 | 49.61365 | 8.20253 | 88° | 35km/h | 20562m | 5.3m/s | -53.9°C | 0% | 53.7hPa | 2.7V | 03:53:44 | 01:22:42 | 00:00:00 | |
| DL1XH-west | 2026-09-02 05:53:41 | 49.61365 | 8.20241 | 92° | 31km/h | 20557m | 4.7m/s | -53.9°C | 0% | 53.7hPa | 2.7V | 03:53:44 | 01:22:41 | 00:00:00 | |
| DD1CC8 | 2026-09-02 05:53:40 | 49.61366 | 8.20218 | 89° | 27km/h | 20548m | 5.2m/s | -54.3°C | 0.9% | 53.8hPa | 2.6V | 00:00:00 | 00:00:00 | 00:00:00 | |
| AM1SDL-15 | 2026-09-02 05:53:39 | 49.61366 | 8.20218 | 90° | 38km/h | 20548m | 5.2m/s | -54.2°C | 3.9% | 53.7hPa | 2.6V | 03:53:00 | 01:22:39 | 00:00:00 | |
| HEMX73-11 | 2026-09-02 05:53:37 | 49.61365 | 8.20207 | 86° | 31km/h | 20543m | 4.9m/s | -54.4°C | 0.9% | 53.8hPa | 2.6V | 03:53:00 | 00:00:00 | 00:00:00 | |
| DM0DOS-11 | 2026-09-02 05:53:36 | 49.61357 | 8.20103 | 74° | 47km/h | 20510m | 4.6m/s | -54.5°C | 4% | 54.1hPa | 2.6V | 03:53:40 | 01:22:31 | 00:00:00 | |
| DL1XH1-15 | 2026-09-02 05:53:35 | 49.61362 | 8.20153 | 86° | 40km/h | 20525m | 4.3m/s | -54.5°C | 4% | 54hPa | 2.6V | 03:53:37 | 01:22:34 | 00:00:00 | |
| DL1XH-west | 2026-09-02 05:53:31 | 49.61357 | 8.20103 | 75° | 47km/h | 20510m | 4.6m/s | -54.6°C | 0.2% | 54.1hPa | 2.6V | 03:53:44 | 01:22:31 | 00:00:00 | |
| DO3MHA-11 | 2026-09-02 05:53:30 | 49.61354 | 8.20085 | 73° | 35km/h | 20506m | 3.7m/s | -54.5°C | 4.0% | 54.1hPa | 2.7V | 03:53:00 | 01:22:30 | 00:00:00 | |
| DB0UT-7 | 2026-09-02 05:53:27 | 49.61345 | 8.20038 | 79° | 27km/h | 20493m | 4.4m/s | -54.5°C | 4.0% | 54.2hPa | 2.7V | 00:00:00 | 00:00:00 | 00:00:00 | |
| DM0DOS-11 | 2026-09-02 05:53:26 | 49.61329 | 8.19972 | 62° | 31km/h | 20465m | 4.5m/s | -54.5°C | 4% | 54.5hPa | 2.7V | 03:53:50 | 01:22:21 | 00:00:00 | |
| BIOWL1-15 | 2026-09-02 05:53:24 | 49.61325 | 8.19961 | 68° | 33km/h | 20460m | 5.1m/s | -54.5°C | 0.1% | 54.5hPa | 2.6V | 03:54:35 | 01:22:20 | 00:00:00 | |
| DL1XH-west | 2026-09-02 05:53:21 | 49.61328 | 8.19972 | 63° | 31km/h | 20465m | 4.5m/s | -54.5°C | 0.2% | 54.5hPa | 2.7V | 03:54:35 | 01:22:21 | 00:00:00 | |
| DO3MHA-11 | 2026-09-02 05:53:20 | 49.61325 | 8.19961 | 69° | 31km/h | 20461m | 5.0m/s | -54.5°C | 4.0% | 54.5hPa | 2.6V | 00:00:00 | 01:22:20 | 00:00:00 | |
| DL1XH1-15 | 2026-09-02 05:53:19 | 49.61309 | 8.19887 | 72° | 31km/h | 20434m | 4.6m/s | -54.6°C | 4% | 54.8hPa | 2.7V | 03:53:57 | 01:22:14 | 00:00:00 | |
| DJ2KF-10 | 2026-09-02 05:53:19 | 49.61322 | 8.19949 | 73° | 22km/h | 20456m | 4.2m/s | -54.4°C | 4.0% | 54.5hPa | 2.6V | 00:00:00 | 01:22:19 | 00:00:00 | |
| DJTTGO | 2026-09-02 05:53:17 | 49.61320 | 8.19936 | 75° | 35km/h | 20452m | 3.7m/s | -54.5°C | 0.9% | 54.6hPa | 2.6V | 03:54:00 | 00:00:00 | 00:00:00 | |
| DM0DOS-11 | 2026-09-02 05:53:16 | 49.61304 | 8.19855 | 79° | 26km/h | 20420m | 4m/s | -54.6°C | 4% | 54.9hPa | 2.6V | 03:54:00 | 01:22:11 | 00:00:00 | |
| DL1XH-west | 2026-09-02 05:53:10 | 49.61303 | 8.19845 | 73° | 24km/h | 20415m | 5.6m/s | -54.6°C | 0.2% | 54.9hPa | 2.7V | 03:54:35 | 01:22:10 | 00:00:00 | |
| BIOWL1-15 | 2026-09-02 05:53:09 | 49.61301 | 8.19837 | 66° | 22km/h | 20410m | 4.7m/s | -54.6°C | 0.2% | 55hPa | 2.7V | 03:54:35 | 01:22:09 | 00:00:00 | |
| DD1CC8 | 2026-09-02 05:53:09 | 49.61299 | 8.19829 | 66° | 22km/h | 20405m | 3.9m/s | -54.6°C | 0.9% | 55.0hPa | 2.7V | 00:00:00 | 00:00:00 | 00:00:00 | |
| DM0DOS-11 | 2026-09-02 05:53:06 | 49.61287 | 8.19775 | 84° | 18km/h | 20372m | 5.4m/s | -54.4°C | 4% | 55.3hPa | 2.7V | 03:54:10 | 01:22:01 | 00:00:00 | |
| DL1XH-west | 2026-09-02 05:53:00 | 49.61287 | 8.19768 | 95° | 18km/h | 20367m | 4.7m/s | -54.3°C | 0.1% | 55.3hPa | 2.7V | 03:54:35 | 01:22:00 | 00:00:00 | |
| BIOWL1-15 | 2026-09-02 05:52:58 | 49.61288 | 8.19754 | 95° | 18km/h | 20359m | 4.7m/s | -54.3°C | 0.1% | 55.4hPa | 2.6V | 03:54:35 | 01:21:58 | 00:00:00 | |
| BIOWL1-15 | 2026-09-02 05:52:53 | 49.61288 | 8.19684 | 101° | 20km/h | 20308m | 4.9m/s | -54.4°C | 0.1% | 55.9hPa | 2.6V | 03:54:35 | 01:21:47 | 00:00:00 | |
| DL1XH-west | 2026-09-02 05:52:49 | 49.61286 | 8.19697 | 93° | 15km/h | 20318m | 3.5m/s | -54.4°C | 0.1% | 55.8hPa | 2.7V | 03:54:35 | 01:21:49 | 00:00:00 | |
| DL3AQ-11 | 2026-09-02 05:52:48 | 49.61288 | 8.19684 | 100° | 18km/h | 20309m | 4.9m/s | -54.4°C | 0.9% | 55.9hPa | 2.6V | 00:00:00 | 00:00:00 | 00:00:00 | |
| DM0DOS-11 | 2026-09-02 05:52:47 | 49.61290 | 8.19669 | 101° | 20km/h | 20299m | 5m/s | -54.4°C | 3.9% | 55.9hPa | 2.6V | 03:54:26 | 01:21:45 | 00:00:00 | |
| DB0ND-19 | 2026-09-02 05:52:45 | 49.61290 | 8.19669 | 101° | 20km/h | 20299m | 5.1m/s | -54.4°C | 0.9% | 55.9hPa | 2.6V | 00:00:00 | 00:00:00 | 00:00:00 | |
| DL1XH-west | 2026-09-02 05:52:39 | 49.61295 | 8.19623 | 101° | 20km/h | 20271m | 4.5m/s | -54.4°C | 0.1% | 56.2hPa | 2.6V | 03:54:35 | 01:21:39 | 00:00:00 | |
| AM1SDL-15 | 2026-09-02 05:52:38 | 49.61296 | 8.19616 | 104° | 16km/h | 20266m | 5.5m/s | -54.3°C | 3.9% | 56.2hPa | 2.6V | 00:00:00 | 01:21:38 | 00:00:00 | |
| DM0DOS-11 | 2026-09-02 05:52:37 | 49.61299 | 8.19598 | 104° | 18km/h | 20252m | 5.4m/s | -54.5°C | 4% | 56.3hPa | 2.6V | 03:54:36 | 01:21:35 | 00:00:00 | |
| BIOWL1-15 | 2026-09-02 05:52:36 | 49.61298 | 8.19604 | 104° | 15km/h | 20256m | 4.3m/s | -54.5°C | 0.2% | 56.3hPa | 2.6V | 03:54:35 | 01:21:36 | 00:00:00 | |
| DL1XH-west | 2026-09-02 05:52:29 | 49.61304 | 8.19547 | 95° | 20km/h | 20224m | 4.8m/s | -54.6°C | 0.2% | 56.6hPa | 2.6V | 03:55:26 | 01:21:29 | 00:00:00 | |
| BIOWL1-15 | 2026-09-02 05:52:25 | 49.61305 | 8.19492 | 87° | 22km/h | 20192m | 4.2m/s | -54.6°C | 0.2% | 56.9hPa | 2.6V | 03:55:26 | 01:21:22 | 00:00:00 | |
| DL1XH1-15 | 2026-09-02 05:52:25 | 49.61306 | 8.19508 | 87° | 20km/h | 20202m | 5.4m/s | -54.6°C | 4.1% | 56.8hPa | 2.7V | 03:54:47 | 01:21:24 | 00:00:00 | |
| AM1SDL-15 | 2026-09-02 05:52:24 | 49.61306 | 8.19507 | 88° | 18km/h | 20202m | 5.4m/s | -54.5°C | 4.1% | 56.7hPa | 2.6V | 00:00:00 | 01:21:24 | 00:00:00 | |
| DL3AQ-11 | 2026-09-02 05:52:23 | 49.61305 | 8.19492 | 87° | 20km/h | 20192m | 4.2m/s | -54.6°C | 0.9% | 56.9hPa | 2.6V | 00:00:00 | 00:00:00 | 00:00:00 | |
| DJ2DS-15 | 2026-09-02 05:52:21 | 49.61305 | 8.19483 | 93° | 15km/h | 20188m | 5.5m/s | -54.5°C | 4.0% | 56.8hPa | 2.6V | 00:00:00 | 01:21:21 | 00:00:00 | |
| DO3MHA-11 | 2026-09-02 05:52:20 | 49.61306 | 8.19474 | 96° | 16km/h | 20183m | 3.9m/s | -54.5°C | 4.1% | 56.9hPa | 2.7V | 00:00:00 | 01:21:20 | 00:00:00 | |
| DL1XH1-15 | 2026-09-02 05:52:19 | 49.61303 | 8.19432 | 76° | 13km/h | 20154m | 3.6m/s | -54.3°C | 4% | 57.2hPa | 2.7V | 03:54:57 | 01:21:14 | 00:00:00 | |
| DL1XH-west | 2026-09-02 05:52:19 | 49.61306 | 8.19465 | 93° | 24km/h | 20179m | 4.6m/s | -54.5°C | 0.1% | 57hPa | 2.7V | 03:55:26 | 01:21:19 | 00:00:00 | |
| DJ2KF-10 | 2026-09-02 05:52:19 | 49.61306 | 8.19465 | 93° | 11km/h | 20179m | 4.5m/s | -54.4°C | 4.0% | 56.9hPa | 2.7V | 00:00:00 | 01:21:19 | 00:00:00 | |
| DM3KS-11 | 2026-09-02 05:52:18 | 49.61306 | 8.19457 | 86° | 18km/h | 20174m | 5.4m/s | -54.5°C | 0.9% | 57.0hPa | 2.7V | 00:00:00 | 00:00:00 | 00:00:00 | |
| DM0DOS-11 | 2026-09-02 05:52:16 | 49.61299 | 8.19420 | 45° | 13km/h | 20141m | 4.8m/s | -54.2°C | 4.1% | 57.3hPa | 2.7V | 03:55:00 | 01:21:11 | 00:00:00 | |
| BIOWL1-15 | 2026-09-02 05:52:15 | 49.61304 | 8.19437 | 81° | 15km/h | 20159m | 5.3m/s | -54.4°C | 0.2% | 57.2hPa | 2.7V | 03:55:26 | 01:21:15 | 00:00:00 | |
| DL1XH-west | 2026-09-02 05:52:08 | 49.61294 | 8.19410 | 76° | 9km/h | 20127m | 5.5m/s | -54.1°C | 0.1% | 57.5hPa | 2.6V | 03:55:26 | 01:21:08 | 00:00:00 | |
| DJ2DS-15 | 2026-09-02 05:52:07 | 49.61294 | 8.19403 | 90° | 9km/h | 20118m | 4.1m/s | -54.1°C | 0.9% | 57.5hPa | 2.7V | 00:00:00 | 00:00:00 | 00:00:00 | |
| DM0DOS-11 | 2026-09-02 05:52:06 | 49.61292 | 8.19380 | 96° | 11km/h | 20095m | 4.8m/s | -53.9°C | 3.9% | 57.7hPa | 2.7V | 03:55:10 | 01:21:01 | 00:00:00 | |
| DL1XH1-15 | 2026-09-02 05:52:05 | 49.61293 | 8.19394 | 73° | 13km/h | 20109m | 4.2m/s | -54°C | 3.9% | 57.6hPa | 2.6V | 03:55:07 | 01:21:04 | 00:00:00 | |
| BIOWL1-15 | 2026-09-02 05:52:04 | 49.61293 | 8.19394 | 73° | 13km/h | 20109m | 4.2m/s | -54°C | 0.1% | 57.6hPa | 2.6V | 03:55:26 | 01:21:04 | 00:00:00 | |
| DL4BBY-15 | 2026-09-02 05:52:03 | 49.61292 | 8.19389 | 78° | 7km/h | 20105m | 4.1m/s | -55.2°C | 0% | 0hPa | 2.7V | 00:00:00 | 00:00:00 | 00:00:00 | |
| DK5PH-5 | 2026-09-02 05:52:02 | 49.61291 | 8.19384 | 84° | 7km/h | 20100m | 4.8m/s | -53.9°C | 3.9% | 57.6hPa | 2.7V | 00:00:00 | 01:21:02 | 00:00:00 | |
| DJ2DS-15 | 2026-09-02 05:52:01 | 49.61291 | 8.19380 | 97° | 9km/h | 20095m | 4.8m/s | -53.8°C | 3.9% | 57.7hPa | 2.7V | 03:55:00 | 01:21:01 | 00:00:00 | |
| AM1SDL-15 | 2026-09-02 05:52:00 | 49.61292 | 8.19376 | 102° | 7km/h | 20091m | 4.1m/s | -53.8°C | 3.9% | 57.8hPa | 2.7V | 03:55:00 | 01:21:00 | 00:00:00 | |
| DL1XH1-15 | 2026-09-02 05:51:59 | 49.61291 | 8.19350 | 95° | 7km/h | 20063m | 4.9m/s | -53.7°C | 3.9% | 58hPa | 2.7V | 03:55:17 | 01:20:54 | 00:00:00 | |
| DL1XH-west | 2026-09-02 05:51:57 | 49.61292 | 8.19363 | 79° | 13km/h | 20078m | 4.3m/s | -53.8°C | 0.1% | 57.9hPa | 2.6V | 03:55:26 | 01:20:57 | 00:00:00 | |
| BIOWL1-15 | 2026-09-02 05:51:55 | 49.61291 | 8.19347 | 93° | 4km/h | 20059m | 4.2m/s | -53.6°C | 0.2% | 58.1hPa | 2.7V | 03:55:26 | 01:20:53 | 00:00:00 | |
| DL1XH-west | 2026-09-02 05:51:47 | 49.61287 | 8.19340 | 88° | 5km/h | 20031m | 4.3m/s | -53.4°C | 0.1% | 58.3hPa | 2.7V | 03:55:26 | 01:20:47 | 00:00:00 | |
| DM0DOS-11 | 2026-09-02 05:51:46 | 49.61286 | 8.19321 | 116° | 7km/h | 20004m | 4.2m/s | -53.1°C | 3.8% | 58.5hPa | 2.7V | 03:55:30 | 01:20:41 | 00:00:00 | |
| DL1XH1-15 | 2026-09-02 05:51:45 | 49.61286 | 8.19331 | 74° | 9km/h | 20017m | 3.9m/s | -53.2°C | 3.9% | 58.4hPa | 2.6V | 03:55:27 | 01:20:44 | 00:00:00 | |
| BIOWL1-15 | 2026-09-02 05:51:43 | 49.61285 | 8.19327 | 82° | 9km/h | 20013m | 4m/s | -53.2°C | 0.1% | 58.5hPa | 2.7V | 03:56:17 | 01:20:43 | 00:00:00 | |
| SONCRA | 2026-09-02 05:51:41 | 49.61286 | 8.19321 | 116° | 5km/h | 20004m | 4.2m/s | -53.1°C | 0.9% | 58.5hPa | 2.6V | 00:00:00 | 00:00:00 | 00:00:00 | |
| NBG1-10 | 2026-09-02 05:51:40 | 49.61286 | 8.19319 | 119° | 5km/h | 20000m | 3.6m/s | -53.0°C | 3.8% | 58.6hPa | 2.6V | 00:00:00 | 01:20:40 | 00:00:00 | |
| DL1XH1-15 | 2026-09-02 05:51:39 | 49.61285 | 8.19322 | 227° | 4km/h | 19971m | 4m/s | -52.8°C | 3.8% | 58.9hPa | 2.7V | 03:55:37 | 01:20:34 | 00:00:00 | |
| DL8DAS-15 | 2026-09-02 05:51:37 | 49.61286 | 8.19318 | 349° | 2km/h | 19991m | 4.8m/s | -53.0°C | 0.9% | 58.7hPa | 2.6V | 03:56:00 | 00:00:00 | 00:00:00 | |
| DM0DOS-11 | 2026-09-02 05:51:36 | 49.61286 | 8.19321 | 113° | 4km/h | 19957m | 4.4m/s | -52.7°C | 3.8% | 59hPa | 2.6V | 03:55:40 | 01:20:31 | 00:00:00 | |
| DL1XH-west | 2026-09-02 05:51:36 | 49.61285 | 8.19319 | 303° | 4km/h | 19981m | 5.3m/s | -52.9°C | 0% | 58.8hPa | 2.7V | 03:56:17 | 01:20:36 | 00:00:00 | |
| BIOWL1-15 | 2026-09-02 05:51:32 | 49.61286 | 8.19322 | 147° | 2km/h | 19962m | 5.4m/s | -52.8°C | 0.1% | 59hPa | 2.6V | 03:56:17 | 01:20:32 | 00:00:00 | |
| DK5PH-5 | 2026-09-02 05:51:32 | 49.61286 | 8.19322 | 147° | 7km/h | 19963m | 5.3m/s | -52.7°C | 3.8% | 58.9hPa | 2.7V | 00:00:00 | 01:20:32 | 00:00:00 | |
| DJ2DS-15 | 2026-09-02 05:51:31 | 49.61287 | 8.19320 | 118° | 5km/h | 19953m | 4.1m/s | -52.7°C | 0.9% | 59.0hPa | 2.7V | 00:00:00 | 00:00:00 | 00:00:00 | |
| DJTTGO | 2026-09-02 05:51:29 | 49.61287 | 8.19319 | 120° | 5km/h | 19953m | 4.1m/s | -52.7°C | 0.9% | 59.0hPa | 2.7V | 00:00:00 | 00:00:00 | 00:00:00 | |
| DF7PN | 2026-09-02 05:51:28 | 49.61289 | 8.19315 | 126° | 9km/h | 19943m | 4.8m/s | -52.6°C | 0.9% | 59.1hPa | 2.7V | 00:00:00 | 00:00:00 | 00:00:00 | |
| DB0UT-7 | 2026-09-02 05:51:27 | 49.61290 | 8.19311 | 120° | 9km/h | 19939m | 4.1m/s | -52.6°C | 3.7% | 59.1hPa | 2.7V | 00:00:00 | 00:00:00 | 00:00:00 | |
| DM0DOS-11 | 2026-09-02 05:51:26 | 49.61294 | 8.19292 | 146° | 5km/h | 19910m | 4.5m/s | -52.5°C | 3.6% | 59.4hPa | 2.7V | 03:55:50 | 01:20:21 | 00:00:00 | |
| DL1XH-west | 2026-09-02 05:51:25 | 49.61292 | 8.19304 | 92° | 11km/h | 19928m | 4.9m/s | -52.6°C | 0% | 59.3hPa | 2.7V | 03:56:17 | 01:20:25 | 00:00:00 | |
| DL1XH1-15 | 2026-09-02 05:51:25 | 49.61292 | 8.19300 | 90° | 9km/h | 19924m | 3.7m/s | -52.5°C | 3.7% | 59.3hPa | 2.7V | 03:55:47 | 01:20:24 | 00:00:00 | |
| BIOWL1-15 | 2026-09-02 05:51:24 | 49.61293 | 8.19293 | 118° | 7km/h | 19915m | 5.2m/s | -52.5°C | 0% | 59.4hPa | 2.6V | 03:56:17 | 01:20:22 | 00:00:00 | |
| DL8DAS-14 | 2026-09-02 05:51:23 | 49.61293 | 8.19293 | 117° | 5km/h | 19915m | 5.2m/s | -52.5°C | 0.9% | 59.4hPa | 2.7V | 00:00:00 | 00:00:00 | 00:00:00 | |
| DJ2DS-15 | 2026-09-02 05:51:21 | 49.61293 | 8.19292 | 147° | 7km/h | 19910m | 4.5m/s | -52.5°C | 3.6% | 59.4hPa | 2.7V | 00:00:00 | 01:20:21 | 00:00:00 | |
| AM1SDL-15 | 2026-09-02 05:51:20 | 49.61295 | 8.19291 | 176° | 7km/h | 19906m | 4.6m/s | -52.5°C | 3.7% | 59.4hPa | 2.6V | 00:00:00 | 01:20:20 | 00:00:00 | |
| DL1XH1-15 | 2026-09-02 05:51:19 | 49.61301 | 8.19286 | 127° | 11km/h | 19877m | 3.9m/s | -52.2°C | 3.7% | 59.7hPa | 2.6V | 03:55:57 | 01:20:14 | 00:00:00 | |
| DJ2KF-10 | 2026-09-02 05:51:19 | 49.61295 | 8.19291 | 203° | 9km/h | 19901m | 5.4m/s | -52.4°C | 3.7% | 59.4hPa | 2.7V | 00:00:00 | 01:20:19 | 00:00:00 | |
| DL9PN | 2026-09-02 05:51:18 | 49.61296 | 8.19292 | 192° | 2km/h | 19896m | 4.7m/s | -52.4°C | 0.9% | 59.6hPa | 2.7V | 00:00:00 | 00:00:00 | 00:00:00 | |
| DO1YAY-16 | 2026-09-02 05:51:17 | 49.61297 | 8.19291 | 160° | 4km/h | 19891m | 4.7m/s | -52.4°C | 0.9% | 59.6hPa | 2.7V | 00:00:00 | 00:00:00 | 00:00:00 | |
| DM0DOS-11 | 2026-09-02 05:51:16 | 49.61305 | 8.19273 | 111° | 13km/h | 19863m | 4.3m/s | -52.1°C | 3.6% | 59.9hPa | 2.7V | 03:56:00 | 01:20:11 | 00:00:00 | |
| DL1XH-west | 2026-09-02 05:51:14 | 49.61301 | 8.19286 | 128° | 11km/h | 19877m | 3.9m/s | -52.2°C | 0% | 59.7hPa | 2.6V | 03:56:17 | 01:20:14 | 00:00:00 | |
| BIOWL1-15 | 2026-09-02 05:51:13 | 49.61305 | 8.19273 | 112° | 13km/h | 19863m | 4.3m/s | -52.1°C | 0% | 59.9hPa | 2.7V | 03:56:17 | 01:20:11 | 00:00:00 | |
| DB0ND-19 | 2026-09-02 05:51:12 | 49.61304 | 8.19277 | 108° | 11km/h | 19867m | 4.6m/s | -52.1°C | 0.9% | 59.8hPa | 2.6V | 00:00:00 | 00:00:00 | 00:00:00 | |
| BIOWL7-15 | 2026-09-02 05:51:11 | 49.61304 | 8.19277 | 110° | 13km/h | 19867m | 4.6m/s | -52.1°C | 0.9% | 59.8hPa | 2.6V | 00:00:00 | 00:00:00 | 00:00:00 | |
| SONCRA | 2026-09-02 05:51:10 | 49.61306 | 8.19269 | 123° | 11km/h | 19858m | 5.8m/s | -52.1°C | 0.8% | 59.9hPa | 2.6V | 00:00:00 | 00:00:00 | 00:00:00 | |
| DO3MHA-11 | 2026-09-02 05:51:08 | 49.61310 | 8.19263 | 152° | 7km/h | 19848m | 4.0m/s | -52.0°C | 3.6% | 60.0hPa | 2.6V | 00:00:00 | 01:20:08 | 00:00:00 | |
| NBG1-10 | 2026-09-02 05:51:07 | 49.61312 | 8.19262 | 163° | 29km/h | 19843m | 5.6m/s | -51.9°C | 3.5% | 60.0hPa | 2.6V | 03:56:00 | 01:20:07 | 00:00:00 | |
| DM0DOS-11 | 2026-09-02 05:51:06 | 49.61321 | 8.19263 | 159° | 11km/h | 19814m | 4.2m/s | -51.7°C | 3.5% | 60.3hPa | 2.6V | 03:56:10 | 01:20:01 | 00:00:00 | |
| DL1XH1-15 | 2026-09-02 05:51:05 | 49.61315 | 8.19263 | 208° | 5km/h | 19828m | 5.3m/s | -51.9°C | 3.6% | 60.2hPa | 2.7V | 03:56:07 | 01:20:04 | 00:00:00 | |
| DL1XH-west | 2026-09-02 05:51:04 | 49.61315 | 8.19263 | 208° | 5km/h | 19828m | 5.3m/s | -51.9°C | 0% | 60.2hPa | 2.7V | 03:56:17 | 01:20:04 | 00:00:00 | |
| BIOWL1-15 | 2026-09-02 05:51:01 | 49.61321 | 8.19263 | 159° | 11km/h | 19814m | 4.2m/s | -51.7°C | 0% | 60.3hPa | 2.6V | 03:56:17 | 01:20:01 | 00:00:00 | |
| AU51GT2 | 2026-09-02 05:51:00 | 49.61324 | 8.19261 | 144° | 9km/h | 19809m | 5.7m/s | -51.7°C | 0.8% | 60.3hPa | 2.6V | 00:00:00 | 00:00:00 | 00:00:00 | |
| DL1XH1-15 | 2026-09-02 05:50:59 | 49.61338 | 8.19244 | 155° | 13km/h | 19779m | 4.8m/s | -51.5°C | 3.5% | 60.6hPa | 2.6V | 03:56:17 | 01:19:54 | 00:00:00 | |
| DO3MHA-11 | 2026-09-02 05:50:58 | 49.61327 | 8.19255 | 131° | 11km/h | 19799m | 4.3m/s | -51.6°C | 3.6% | 60.4hPa | 2.6V | 00:00:00 | 01:19:58 | 00:00:00 | |
| DB0UT-7 | 2026-09-02 05:50:57 | 49.61330 | 8.19252 | 137° | 15km/h | 19794m | 5.5m/s | -51.5°C | 3.6% | 60.4hPa | 2.7V | 00:00:00 | 01:19:57 | 00:00:00 | |
| AM1SDL-15 | 2026-09-02 05:50:56 | 49.61332 | 8.19249 | 146° | 13km/h | 19789m | 5.1m/s | -51.4°C | 3.6% | 60.5hPa | 2.7V | 00:00:00 | 01:19:56 | 00:00:00 | |
| DM0DOS-11 | 2026-09-02 05:50:55 | 49.61345 | 8.19240 | 170° | 7km/h | 19764m | 4.2m/s | -51.5°C | 3.5% | 60.8hPa | 2.7V | 03:56:20 | 01:19:51 | 00:00:00 | |
| DL1XH-west | 2026-09-02 05:50:53 | 49.61341 | 8.19242 | 157° | 9km/h | 19774m | 5.8m/s | -51.5°C | 0% | 60.7hPa | 2.6V | 03:57:08 | 01:19:53 | 00:00:00 | |
| BIOWL1-15 | 2026-09-02 05:50:51 | 49.61345 | 8.19240 | 171° | 7km/h | 19764m | 4.2m/s | -51.5°C | 0% | 60.8hPa | 2.7V | 03:57:08 | 01:19:51 | 00:00:00 | |
| DL3AQ-11 | 2026-09-02 05:50:48 | 49.61357 | 8.19237 | 160° | 11km/h | 19746m | 5.0m/s | -51.4°C | 0.8% | 61.0hPa | 2.6V | 00:00:00 | 00:00:00 | 00:00:00 | |
| DL9PN | 2026-09-02 05:50:47 | 49.61357 | 8.19237 | 160° | 11km/h | 19746m | 5.0m/s | -51.4°C | 0.8% | 61.0hPa | 2.6V | 00:00:00 | 00:00:00 | 00:00:00 | |
| DO1YAY-16 | 2026-09-02 05:50:46 | 49.61359 | 8.19235 | 152° | 9km/h | 19741m | 4.7m/s | -51.4°C | 0.8% | 61.0hPa | 2.6V | 00:00:00 | 00:00:00 | 00:00:00 | |
| DM0DOS-11 | 2026-09-02 05:50:45 | 49.61374 | 8.19228 | 171° | 13km/h | 19718m | 4.5m/s | -51.4°C | 3.5% | 61.2hPa | 2.6V | 03:56:30 | 01:19:41 | 00:00:00 | |
| DL1XH1-15 | 2026-09-02 05:50:45 | 49.61364 | 8.19231 | 159° | 11km/h | 19732m | 4.5m/s | -51.5°C | 3.5% | 61.1hPa | 2.7V | 03:56:27 | 01:19:44 | 00:00:00 | |
| DL1XH-west | 2026-09-02 05:50:43 | 49.61367 | 8.19230 | 168° | 13km/h | 19727m | 5.6m/s | -51.5°C | 0% | 61.1hPa | 2.6V | 03:57:08 | 01:19:43 | 00:00:00 | |
| BIOWL1-15 | 2026-09-02 05:50:41 | 49.61374 | 8.19228 | 171° | 13km/h | 19718m | 4.5m/s | -51.4°C | 0% | 61.2hPa | 2.6V | 03:57:08 | 01:19:41 | 00:00:00 | |
| DJ2DS-15 | 2026-09-02 05:50:41 | 49.61374 | 8.19228 | 172° | 16km/h | 19718m | 4.5m/s | -51.4°C | 3.5% | 61.2hPa | 2.7V | 03:56:00 | 01:19:41 | 00:00:00 | |
| SONCRA | 2026-09-02 05:50:39 | 49.61380 | 8.19226 | 163° | 11km/h | 19707m | 4.3m/s | -51.5°C | 0.8% | 61.3hPa | 2.7V | 00:00:00 | 00:00:00 | 00:00:00 | |
| DO3MHA-11 | 2026-09-02 05:50:38 | 49.61383 | 8.19225 | 167° | 16km/h | 19704m | 3.7m/s | -51.4°C | 3.6% | 61.3hPa | 2.7V | 03:56:00 | 01:19:38 | 00:00:00 | |
| DH7VM-15 | 2026-09-02 05:50:37 | 49.61386 | 8.19224 | 172° | 16km/h | 19699m | 5.3m/s | -51.5°C | 0.8% | 61.4hPa | 2.7V | 00:00:00 | 00:00:00 | 00:00:00 | |
| DM0DOS-11 | 2026-09-02 05:50:35 | 49.61412 | 8.19213 | 152° | 16km/h | 19672m | 3.5m/s | -51.4°C | 3.4% | 61.6hPa | 2.7V | 03:56:40 | 01:19:31 | 00:00:00 | |
| DL1XH-west | 2026-09-02 05:50:32 | 49.61409 | 8.19216 | 153° | 16km/h | 19676m | 4.1m/s | -51.4°C | 0% | 61.6hPa | 2.6V | 03:57:08 | 01:19:32 | 00:00:00 | |
| BIOWL1-15 | 2026-09-02 05:50:30 | 49.61416 | 8.19210 | 160° | 16km/h | 19669m | 4.2m/s | -51.4°C | 0% | 61.7hPa | 2.7V | 03:57:08 | 01:19:30 | 00:00:00 | |
| AU51GT2 | 2026-09-02 05:50:29 | 49.61420 | 8.19209 | 168° | 16km/h | 19664m | 4.8m/s | -51.5°C | 0.8% | 61.7hPa | 2.6V | 00:00:00 | 00:00:00 | 00:00:00 | |
| DO3MHA-11 | 2026-09-02 05:50:28 | 49.61425 | 8.19208 | 176° | 22km/h | 19660m | 4.0m/s | -51.4°C | 3.4% | 61.7hPa | 2.6V | 00:00:00 | 01:19:28 | 00:00:00 | |
| DB0UT-7 | 2026-09-02 05:50:27 | 49.61429 | 8.19207 | 178° | 26km/h | 19656m | 3.6m/s | -51.4°C | 3.5% | 61.8hPa | 2.6V | 00:00:00 | 00:00:00 | 00:00:00 | |
| DF7PN | 2026-09-02 05:50:26 | 49.61434 | 8.19207 | 175° | 16km/h | 19652m | 4.4m/s | -51.5°C | 0.8% | 61.8hPa | 2.7V | 00:00:00 | 00:00:00 | 00:00:00 | |
| DM0DOS-11 | 2026-09-02 05:50:25 | 49.61458 | 8.19195 | 154° | 26km/h | 19630m | 4.6m/s | -51.4°C | 3.5% | 62hPa | 2.7V | 03:56:50 | 01:19:21 | 00:00:00 | |
| BIOWL1-15 | 2026-09-02 05:50:21 | 49.61470 | 8.19184 | 143° | 29km/h | 19621m | 5.3m/s | -51.4°C | 0% | 62.1hPa | 2.7V | 03:57:08 | 01:19:19 | 00:00:00 | |
| DL1XH-west | 2026-09-02 05:50:21 | 49.61458 | 8.19195 | 155° | 26km/h | 19630m | 4.6m/s | -51.4°C | 0% | 62hPa | 2.7V | 03:57:08 | 01:19:21 | 00:00:00 | |
| DL8DAS-14 | 2026-09-02 05:50:21 | 49.61464 | 8.19190 | 149° | 27km/h | 19626m | 4.2m/s | -51.4°C | 0.8% | 62.1hPa | 2.7V | 00:00:00 | 00:00:00 | 00:00:00 | |
| AM1SDL-15 | 2026-09-02 05:50:20 | 49.61464 | 8.19190 | 150° | 27km/h | 19626m | 4.2m/s | -51.3°C | 3.5% | 62.1hPa | 2.7V | 03:56:00 | 01:19:20 | 00:00:00 | |
| DL1XH1-15 | 2026-09-02 05:50:19 | 49.61498 | 8.19149 | 150° | 27km/h | 19597m | 4.4m/s | -51.3°C | 3.5% | 62.4hPa | 2.7V | 03:56:57 | 01:19:14 | 00:00:00 | |
| DJ2DS-15 | 2026-09-02 05:50:19 | 49.61476 | 8.19177 | 137° | 27km/h | 19616m | 4.9m/s | -51.4°C | 0.8% | 62.2hPa | 2.6V | 00:00:00 | 00:00:00 | 00:00:00 | |
| DO3MHA-11 | 2026-09-02 05:50:18 | 49.61476 | 8.19177 | 138° | 26km/h | 19616m | 4.9m/s | -51.3°C | 3.5% | 62.1hPa | 2.6V | 00:00:00 | 01:19:18 | 00:00:00 | |
| DL9PN | 2026-09-02 05:50:16 | 49.61487 | 8.19162 | 140° | 27km/h | 19607m | 5.0m/s | -51.4°C | 0.8% | 62.3hPa | 2.6V | 00:00:00 | 00:00:00 | 00:00:00 | |
| DM0DOS-11 | 2026-09-02 05:50:15 | 49.61514 | 8.19135 | 142° | 24km/h | 19583m | 4.1m/s | -51.2°C | 3.5% | 62.5hPa | 2.6V | 03:57:00 | 01:19:11 | 00:00:00 | |
| BIOWL1-15 | 2026-09-02 05:50:13 | 49.61524 | 8.19122 | 139° | 27km/h | 19575m | 5.1m/s | -51.2°C | 0% | 62.6hPa | 2.6V | 03:57:08 | 01:19:09 | 00:00:00 | |
| DL1XH-west | 2026-09-02 05:50:11 | 49.61514 | 8.19135 | 142° | 24km/h | 19583m | 4.1m/s | -51.2°C | 0% | 62.5hPa | 2.6V | 03:57:08 | 01:19:11 | 00:00:00 | |
| DB0ND-19 | 2026-09-02 05:50:10 | 49.61519 | 8.19129 | 139° | 24km/h | 19579m | 3.9m/s | -51.2°C | 0.9% | 62.5hPa | 2.7V | 00:00:00 | 00:00:00 | 00:00:00 | |
| DL0LBS | 2026-09-02 05:50:09 | 49.61518 | 8.19129 | 140° | 24km/h | 19580m | 3.9m/s | -51.2°C | 0.9% | 62.5hPa | 2.7V | 03:57:00 | 00:00:00 | 00:00:00 | |
| DO3MHA-11 | 2026-09-02 05:50:08 | 49.61529 | 8.19115 | 138° | 26km/h | 19570m | 4.3m/s | -51.1°C | 3.4% | 62.6hPa | 2.7V | 00:00:00 | 01:19:08 | 00:00:00 | |
| DJTTGO | 2026-09-02 05:50:07 | 49.61529 | 8.19115 | 138° | 27km/h | 19570m | 4.4m/s | -51.1°C | 0.8% | 62.6hPa | 2.7V | 00:00:00 | 00:00:00 | 00:00:00 | |
| DM0DOS-11 | 2026-09-02 05:50:06 | 49.61562 | 8.19065 | 146° | 24km/h | 19538m | 4.5m/s | -51°C | 3.3% | 62.9hPa | 2.7V | 03:57:10 | 01:19:01 | 00:00:00 | |
| DL1XH-west | 2026-09-02 05:50:00 | 49.61567 | 8.19060 | 146° | 22km/h | 19533m | 5.4m/s | -51.1°C | 0% | 63hPa | 2.6V | 03:57:59 | 01:19:00 | 00:00:00 | |
| BIOWL1-15 | 2026-09-02 05:49:58 | 49.61576 | 8.19050 | 140° | 22km/h | 19524m | 4.2m/s | -51.1°C | 0% | 63.1hPa | 2.6V | 03:57:59 | 01:18:58 | 00:00:00 | |
| DO3MHA-11 | 2026-09-02 05:49:58 | 49.61576 | 8.19050 | 140° | 27km/h | 19525m | 4.1m/s | -51.0°C | 3.5% | 63.0hPa | 2.6V | 03:57:00 | 01:18:58 | 00:00:00 | |
| DB0UT-7 | 2026-09-02 05:49:57 | 49.61580 | 8.19044 | 139° | 27km/h | 19520m | 5.3m/s | -51.1°C | 3.4% | 63.1hPa | 2.7V | 03:57:00 | 01:18:57 | 00:00:00 | |
| DL1XH1-15 | 2026-09-02 05:49:55 | 49.61595 | 8.19021 | 127° | 27km/h | 19506m | 5.2m/s | -51.1°C | 3.4% | 63.2hPa | 2.7V | 03:57:17 | 01:18:54 | 00:00:00 | |
| DL1XH-west | 2026-09-02 05:49:49 | 49.61614 | 8.18977 | 127° | 27km/h | 19482m | 3.5m/s | -51.2°C | 0% | 63.5hPa | 2.7V | 03:57:59 | 01:18:49 | 00:00:00 | |
| BIOWL1-15 | 2026-09-02 05:49:47 | 49.61622 | 8.18961 | 123° | 24km/h | 19474m | 5.1m/s | -51.3°C | 0% | 63.5hPa | 2.6V | 03:57:59 | 01:18:47 | 00:00:00 | |
| DL1ZP-14 | 2026-09-02 05:49:46 | 49.61625 | 8.18954 | 122° | 22km/h | 19469m | 4.4m/s | -51.3°C | 0.8% | 63.6hPa | 2.6V | 00:00:00 | 00:00:00 | 00:00:00 | |
| DL1XH1-15 | 2026-09-02 05:49:45 | 49.61632 | 8.18939 | 128° | 26km/h | 19460m | 5.3m/s | -51.3°C | 3.4% | 63.7hPa | 2.7V | 03:57:27 | 01:18:44 | 00:00:00 | |
| DL1XH-west | 2026-09-02 05:49:38 | 49.61656 | 8.18885 | 119° | 29km/h | 19433m | 5.3m/s | -51.3°C | 0% | 64hPa | 2.6V | 03:57:59 | 01:18:38 | 00:00:00 | |
| BIOWL1-15 | 2026-09-02 05:49:36 | 49.61663 | 8.18864 | 113° | 29km/h | 19424m | 3.7m/s | -51.3°C | 0% | 64hPa | 2.7V | 03:57:59 | 01:18:36 | 00:00:00 | |
| DL1XH1-15 | 2026-09-02 05:49:35 | 49.61667 | 8.18843 | 105° | 27km/h | 19415m | 4.6m/s | -51.5°C | 3.5% | 64.2hPa | 2.6V | 03:57:37 | 01:18:34 | 00:00:00 | |
| BIOWL1-15 | 2026-09-02 05:49:28 | 49.61686 | 8.18761 | 109° | 31km/h | 19379m | 5.1m/s | -51.8°C | 0% | 64.5hPa | 2.7V | 03:57:59 | 01:18:26 | 00:00:00 | |
| DL1XH-west | 2026-09-02 05:49:28 | 49.61681 | 8.18782 | 108° | 27km/h | 19388m | 4.4m/s | -51.8°C | 0% | 64.4hPa | 2.6V | 03:57:59 | 01:18:28 | 00:00:00 | |
| DB0UT-7 | 2026-09-02 05:49:27 | 49.61683 | 8.18772 | 107° | 40km/h | 19384m | 3.9m/s | -51.7°C | 3.4% | 64.4hPa | 2.6V | 00:00:00 | 00:00:00 | 00:00:00 | |
| DL1XH1-15 | 2026-09-02 05:49:25 | 49.61692 | 8.18736 | 112° | 37km/h | 19369m | 4m/s | -51.8°C | 3.5% | 64.6hPa | 2.6V | 03:57:47 | 01:18:24 | 00:00:00 | |
| DL1XH-west | 2026-09-02 05:49:17 | 49.61711 | 8.18642 | 105° | 38km/h | 19339m | 3.8m/s | -51.8°C | 0% | 64.9hPa | 2.6V | 03:57:59 | 01:18:17 | 00:00:00 | |
| BIOWL1-15 | 2026-09-02 05:49:16 | 49.61713 | 8.18627 | 102° | 38km/h | 19334m | 5.1m/s | -51.9°C | 0% | 65hPa | 2.6V | 03:57:59 | 01:18:16 | 00:00:00 | |
| DL1XH1-15 | 2026-09-02 05:49:15 | 49.61716 | 8.18599 | 102° | 38km/h | 19325m | 3.7m/s | -51.9°C | 3.5% | 65hPa | 2.7V | 03:57:57 | 01:18:14 | 00:00:00 | |
| BIOWL1-15 | 2026-09-02 05:49:06 | 49.61745 | 8.18472 | 110° | 46km/h | 19290m | 4.9m/s | -52°C | 0% | 65.4hPa | 2.6V | 03:58:50 | 01:18:06 | 00:00:00 | |
| DL1XH1-15 | 2026-09-02 05:49:05 | 49.61752 | 8.18439 | 105° | 42km/h | 19281m | 4.7m/s | -51.9°C | 3.6% | 65.5hPa | 2.7V | 03:58:07 | 01:18:04 | 00:00:00 | |
| BIOWL9-15 | 2026-09-02 05:49:04 | 49.61752 | 8.18439 | 105° | 42km/h | 19281m | 4.7m/s | -51.9°C | 0.9% | 65.5hPa | 2.6V | 00:00:00 | 00:00:00 | 00:00:00 | |
| DL4BBY-15 | 2026-09-02 05:49:03 | 49.61755 | 8.18423 | 102° | 42km/h | 19277m | 5.0m/s | -53.2°C | 0% | 0hPa | 2.6V | 00:00:00 | 00:00:00 | 00:00:00 | |
| DD1CC8 | 2026-09-02 05:49:00 | 49.61760 | 8.18377 | 101° | 42km/h | 19263m | 5.0m/s | -51.9°C | 0.9% | 65.7hPa | 2.6V | 00:00:00 | 00:00:00 | 00:00:00 | |
| CB1BUN | 2026-09-02 05:48:59 | 49.61762 | 8.18360 | 104° | 44km/h | 19259m | 4.1m/s | -52.0°C | 0.9% | 65.7hPa | 2.6V | 03:58:00 | 00:00:00 | 00:00:00 | |
| DO3MHA-11 | 2026-09-02 05:48:58 | 49.61765 | 8.18344 | 105° | 44km/h | 19255m | 3.8m/s | -51.9°C | 3.6% | 65.7hPa | 2.6V | 00:00:00 | 01:17:58 | 00:00:00 | |
| DB0UT-7 | 2026-09-02 05:48:57 | 49.61767 | 8.18327 | 104° | 42km/h | 19251m | 5.1m/s | -51.9°C | 3.6% | 65.8hPa | 2.7V | 00:00:00 | 01:17:57 | 00:00:00 | |
| DM0DOS-11 | 2026-09-02 05:48:56 | 49.61781 | 8.18221 | 94° | 46km/h | 19223m | 5.2m/s | -52.1°C | 3.6% | 66hPa | 2.7V | 03:58:20 | 01:17:51 | 00:00:00 | |
| DL1XH-west | 2026-09-02 05:48:56 | 49.61770 | 8.18311 | 103° | 44km/h | 19246m | 4.4m/s | -52°C | 0% | 65.8hPa | 2.7V | 03:58:50 | 01:17:56 | 00:00:00 | |
| DL1XH1-15 | 2026-09-02 05:48:55 | 49.61775 | 8.18276 | 101° | 47km/h | 19236m | 5.2m/s | -52°C | 3.5% | 65.9hPa | 2.6V | 03:58:17 | 01:17:54 | 00:00:00 | |
| BIOWL1-15 | 2026-09-02 05:48:55 | 49.61772 | 8.18294 | 102° | 46km/h | 19241m | 4.4m/s | -52°C | 0% | 65.9hPa | 2.7V | 03:58:50 | 01:17:55 | 00:00:00 | |
| DF7PN | 2026-09-02 05:48:53 | 49.61777 | 8.18258 | 100° | 47km/h | 19232m | 4.2m/s | -52.1°C | 0.9% | 66.0hPa | 2.7V | 00:00:00 | 00:00:00 | 00:00:00 | |
| DL8DAS-14 | 2026-09-02 05:48:48 | 49.61783 | 8.18160 | 97° | 35km/h | 19206m | 4.8m/s | -52.2°C | 0.9% | 66.2hPa | 2.7V | 00:00:00 | 00:00:00 | 00:00:00 | |
| DM0DOS-11 | 2026-09-02 05:48:46 | 49.61791 | 8.18075 | 96° | 46km/h | 19180m | 5.3m/s | -51.9°C | 3.5% | 66.5hPa | 2.7V | 03:58:30 | 01:17:41 | 00:00:00 | |
| DL1XH-west | 2026-09-02 05:48:46 | 49.61784 | 8.18147 | 101° | 35km/h | 19201m | 3.8m/s | -52.1°C | 0% | 66.3hPa | 2.7V | 03:58:50 | 01:17:46 | 00:00:00 | |
| DL1XH1-15 | 2026-09-02 05:48:45 | 49.61787 | 8.18120 | 99° | 35km/h | 19193m | 5.1m/s | -52.1°C | 3.7% | 66.4hPa | 2.6V | 03:58:27 | 01:17:44 | 00:00:00 | |
| BIOWL1-15 | 2026-09-02 05:48:44 | 49.61788 | 8.18120 | 100° | 35km/h | 19193m | 5.1m/s | -52.1°C | 0.1% | 66.4hPa | 2.6V | 03:58:50 | 01:17:44 | 00:00:00 | |
| DL9PN | 2026-09-02 05:48:43 | 49.61790 | 8.18091 | 96° | 40km/h | 19184m | 4.3m/s | -51.9°C | 0.9% | 66.5hPa | 2.6V | 00:00:00 | 00:00:00 | 00:00:00 | |
| DO1YAY-16 | 2026-09-02 05:48:42 | 49.61791 | 8.18074 | 96° | 44km/h | 19180m | 5.3m/s | -51.9°C | 0.9% | 66.5hPa | 2.6V | 00:00:00 | 00:00:00 | 00:00:00 | |
| DM3KS-11 | 2026-09-02 05:48:41 | 49.61791 | 8.18074 | 96° | 44km/h | 19180m | 5.3m/s | -51.9°C | 0.9% | 66.5hPa | 2.6V | 00:00:00 | 00:00:00 | 00:00:00 | |
| DJ2DS-15 | 2026-09-02 05:48:40 | 49.61793 | 8.18056 | 98° | 44km/h | 19175m | 4.7m/s | -51.8°C | 3.5% | 66.5hPa | 2.6V | 00:00:00 | 01:17:40 | 00:00:00 | |
| DO3MHA-11 | 2026-09-02 05:48:38 | 49.61795 | 8.18017 | 93° | 44km/h | 19167m | 3.6m/s | -51.8°C | 3.4% | 66.6hPa | 2.6V | 03:58:00 | 01:17:38 | 00:00:00 | |
| DB0ND-19 | 2026-09-02 05:48:37 | 49.61795 | 8.17998 | 88° | 47km/h | 19162m | 5.2m/s | -51.9°C | 0.9% | 66.7hPa | 2.6V | 00:00:00 | 00:00:00 | 00:00:00 | |
| DM0DOS-11 | 2026-09-02 05:48:36 | 49.61794 | 8.17899 | 98° | 38km/h | 19136m | 4.1m/s | -52.2°C | 3.5% | 67hPa | 2.6V | 03:58:40 | 01:17:31 | 00:00:00 | |
| DL1XH1-15 | 2026-09-02 05:48:35 | 49.61793 | 8.17946 | 86° | 42km/h | 19149m | 4.6m/s | -52°C | 3.5% | 66.8hPa | 2.6V | 03:58:37 | 01:17:34 | 00:00:00 | |
| BIOWL1-15 | 2026-09-02 05:48:35 | 49.61792 | 8.17930 | 91° | 40km/h | 19145m | 4.9m/s | -52.1°C | 0% | 66.9hPa | 2.7V | 03:58:50 | 01:17:33 | 00:00:00 | |
| DL1XH-west | 2026-09-02 05:48:35 | 49.61793 | 8.17962 | 85° | 44km/h | 19154m | 3.8m/s | -52°C | 0% | 66.8hPa | 2.6V | 03:58:50 | 01:17:35 | 00:00:00 | |
| HSKMA3-T | 2026-09-02 05:48:30 | 49.61796 | 8.17884 | 99° | 38km/h | 19132m | 4.5m/s | 0°C | 0% | 0hPa | 2.6V | 18:12:15 | 01:17:30 | 00:00:00 | |
| HTAHTA | 2026-09-02 05:48:30 | 49.61796 | 8.17884 | 99° | 37km/h | 19132m | 4.5m/s | -52.3°C | 0.9% | 67.0hPa | 2.7V | 00:00:00 | 00:00:00 | 00:00:00 | |
| DD1CC8 | 2026-09-02 05:48:29 | 49.61797 | 8.17870 | 97° | 37km/h | 19127m | 5.0m/s | -52.3°C | 0.9% | 67.0hPa | 2.7V | 00:00:00 | 00:00:00 | 00:00:00 | |
| DM0DOS-11 | 2026-09-02 05:48:28 | 49.61808 | 8.17732 | 88° | 51km/h | 19093m | 3.5m/s | -52.3°C | 3.6% | 67.4hPa | 2.7V | 03:58:50 | 01:17:21 | 00:00:00 | |
| DH7VM-15 | 2026-09-02 05:48:28 | 49.61800 | 8.17840 | 99° | 40km/h | 19119m | 4.2m/s | -52.2°C | 0.8% | 67.1hPa | 2.6V | 00:00:00 | 00:00:00 | 00:00:00 | |
| DL1CLM-18 | 2026-09-02 05:48:27 | 49.61800 | 8.17840 | 99° | 40km/h | 19119m | 4.2m/s | 0°C | 0% | 0hPa | 2.6V | 00:00:00 | 00:00:00 | 00:00:00 | |
| SFWM-10 | 2026-09-02 05:48:26 | 49.61800 | 8.17840 | 99° | 40km/h | 19119m | 4.2m/s | -52.2°C | 0.8% | 67.1hPa | 2.6V | 00:00:00 | 00:00:00 | 00:00:00 | |
| DL1XH1-15 | 2026-09-02 05:48:25 | 49.61806 | 8.17790 | 98° | 47km/h | 19106m | 3.4m/s | -52.2°C | 3.7% | 67.3hPa | 2.6V | 03:58:47 | 01:17:24 | 00:00:00 | |
| DL1XH-west | 2026-09-02 05:48:24 | 49.61806 | 8.17790 | 98° | 47km/h | 19106m | 3.4m/s | -52.2°C | 0.1% | 67.3hPa | 2.6V | 03:58:50 | 01:17:24 | 00:00:00 | |
| BIOWL1-15 | 2026-09-02 05:48:23 | 49.61807 | 8.17771 | 95° | 49km/h | 19102m | 5.2m/s | -52.3°C | 0% | 67.3hPa | 2.7V | 03:58:50 | 01:17:23 | 00:00:00 | |
| DF7PN | 2026-09-02 05:48:22 | 49.61808 | 8.17752 | 90° | 51km/h | 19097m | 4.4m/s | -52.3°C | 0.9% | 67.4hPa | 2.6V | 00:00:00 | 00:00:00 | 00:00:00 | |
| DJ2DS-15 | 2026-09-02 05:48:20 | 49.61807 | 8.17712 | 89° | 44km/h | 19089m | 3.9m/s | -52.3°C | 3.6% | 67.4hPa | 2.6V | 00:00:00 | 01:17:20 | 00:00:00 | |
| DJ2KF-10 | 2026-09-02 05:48:19 | 49.61807 | 8.17694 | 92° | 46km/h | 19085m | 4.7m/s | -52.3°C | 3.6% | 67.5hPa | 2.6V | 00:00:00 | 01:17:19 | 00:00:00 | |
| AM1SDL-15 | 2026-09-02 05:48:18 | 49.61808 | 8.17677 | 97° | 40km/h | 19080m | 4.5m/s | -52.4°C | 3.6% | 67.5hPa | 2.6V | 00:00:00 | 01:17:18 | 00:00:00 | |
| DL8DAS-14 | 2026-09-02 05:48:17 | 49.61811 | 8.17645 | 97° | 37km/h | 19072m | 4.0m/s | -52.4°C | 0.9% | 67.6hPa | 2.7V | 00:00:00 | 00:00:00 | 00:00:00 | |
| DM0DOS-11 | 2026-09-02 05:48:16 | 49.61811 | 8.17573 | 89° | 40km/h | 19050m | 4.4m/s | -52.3°C | 3.5% | 67.9hPa | 2.7V | 03:59:00 | 01:17:11 | 00:00:00 | |
| DL1XH1-15 | 2026-09-02 05:48:15 | 49.61812 | 8.17617 | 90° | 37km/h | 19063m | 4.1m/s | -52.4°C | 3.5% | 67.7hPa | 2.6V | 03:58:57 | 01:17:14 | 00:00:00 | |
| DL1XH-west | 2026-09-02 05:48:13 | 49.61812 | 8.17603 | 88° | 37km/h | 19059m | 3.9m/s | -52.4°C | 0% | 67.8hPa | 2.6V | 03:59:41 | 01:17:13 | 00:00:00 | |
| BIOWL1-15 | 2026-09-02 05:48:12 | 49.61812 | 8.17588 | 89° | 38km/h | 19055m | 4.7m/s | -52.4°C | 0% | 67.8hPa | 2.7V | 03:59:41 | 01:17:12 | 00:00:00 | |
| DL9PN | 2026-09-02 05:48:12 | 49.61812 | 8.17573 | 89° | 38km/h | 19050m | 4.4m/s | -52.3°C | 0.8% | 67.9hPa | 2.6V | 00:00:00 | 00:00:00 | 00:00:00 | |
| DO1YAY-16 | 2026-09-02 05:48:11 | 49.61811 | 8.17557 | 88° | 42km/h | 19046m | 3.9m/s | -52.3°C | 0.9% | 67.9hPa | 2.6V | 00:00:00 | 00:00:00 | 00:00:00 | |
| DM3KS-11 | 2026-09-02 05:48:10 | 49.61811 | 8.17557 | 88° | 42km/h | 19046m | 3.9m/s | -52.3°C | 0.9% | 67.9hPa | 2.6V | 00:00:00 | 00:00:00 | 00:00:00 | |
| DM7RM-13 | 2026-09-02 05:48:08 | 49.61811 | 8.17540 | 86° | 44km/h | 19042m | 4.2m/s | -52.3°C | 0.9% | 67.9hPa | 2.6V | 03:59:00 | 00:00:00 | 00:00:00 | |
| DB0UT-9 | 2026-09-02 05:48:07 | 49.61810 | 8.17523 | 84° | 46km/h | 19038m | 4.8m/s | -52.3°C | 0.9% | 68.0hPa | 2.6V | 03:59:00 | 00:00:00 | 00:00:00 | |
| DM0DOS-11 | 2026-09-02 05:48:06 | 49.61802 | 8.17397 | 81° | 44km/h | 19006m | 4.7m/s | -52.8°C | 3.7% | 68.3hPa | 2.6V | 03:59:10 | 01:17:01 | 00:00:00 | |
| DL1XH1-15 | 2026-09-02 05:48:05 | 49.61805 | 8.17450 | 88° | 47km/h | 19019m | 4.1m/s | -52.4°C | 3.5% | 68.2hPa | 2.6V | 03:59:07 | 01:17:04 | 00:00:00 | |
| DL1XH-west | 2026-09-02 05:48:02 | 49.61803 | 8.17414 | 84° | 44km/h | 19011m | 5m/s | -52.6°C | 0% | 68.3hPa | 2.7V | 03:59:41 | 01:17:02 | 00:00:00 | |
| HTAHTA | 2026-09-02 05:47:59 | 49.61797 | 8.17348 | 82° | 42km/h | 18992m | 4.7m/s | -53.1°C | 0.9% | 68.5hPa | 2.7V | 00:00:00 | 00:00:00 | 00:00:00 | |
| DD1CC8 | 2026-09-02 05:47:58 | 49.61797 | 8.17348 | 82° | 42km/h | 18992m | 4.7m/s | -53.1°C | 0.9% | 68.5hPa | 2.7V | 00:00:00 | 00:00:00 | 00:00:00 | |
| DF3TZ-5 | 2026-09-02 05:47:56 | 49.61792 | 8.17295 | 77° | 49km/h | 18980m | 5.5m/s | 0°C | -1.0% | -1.0hPa | 2.7V | 00:00:00 | 00:00:00 | 00:00:00 | |
| DL1XH1-15 | 2026-09-02 05:47:55 | 49.61789 | 8.17275 | 75° | 53km/h | 18975m | 4.6m/s | -53.3°C | 3.8% | 68.7hPa | 2.7V | 03:59:17 | 01:16:54 | 00:00:00 | |
| DL3AQ-11 | 2026-09-02 05:47:55 | 49.61789 | 8.17275 | 75° | 53km/h | 18975m | 4.6m/s | -53.3°C | 0.9% | 68.7hPa | 2.7V | 00:00:00 | 00:00:00 | 00:00:00 | |
| DM0DOS-11 | 2026-09-02 05:47:54 | 49.61772 | 8.17169 | 74° | 55km/h | 18954m | 4.6m/s | -53.5°C | 3.8% | 68.9hPa | 2.7V | 03:59:22 | 01:16:49 | 00:00:00 | |
| DL1XH-west | 2026-09-02 05:47:51 | 49.61779 | 8.17212 | 78° | 57km/h | 18961m | 3.8m/s | -53.5°C | 0.1% | 68.8hPa | 2.6V | 03:59:41 | 01:16:51 | 00:00:00 | |
| DL8DAS-14 | 2026-09-02 05:47:46 | 49.61756 | 8.17093 | 72° | 47km/h | 18936m | 5.5m/s | -53.4°C | 1.0% | 69.1hPa | 2.6V | 00:00:00 | 00:00:00 | 00:00:00 | |
| DL1XH1-15 | 2026-09-02 05:47:45 | 49.61753 | 8.17075 | 77° | 46km/h | 18931m | 4.7m/s | -53.4°C | 3.9% | 69.1hPa | 2.6V | 03:59:27 | 01:16:44 | 00:00:00 | |
| DM0DOS-11 | 2026-09-02 05:47:44 | 49.61742 | 8.17001 | 75° | 37km/h | 18908m | 4.6m/s | -53.4°C | 3.8% | 69.4hPa | 2.6V | 03:59:32 | 01:16:39 | 00:00:00 | |
| DL1XH-west | 2026-09-02 05:47:41 | 49.61747 | 8.17029 | 78° | 37km/h | 18918m | 5.7m/s | -53.4°C | 0.1% | 69.3hPa | 2.6V | 03:59:41 | 01:16:41 | 00:00:00 | |
| BIOWL1-15 | 2026-09-02 05:47:40 | 49.61736 | 8.16955 | 76° | 44km/h | 18894m | 4.8m/s | -53.3°C | 0% | 69.5hPa | 2.6V | 03:59:41 | 01:16:36 | 00:00:00 | |
| DJ2DS-15 | 2026-09-02 05:47:40 | 49.61745 | 8.17015 | 76° | 37km/h | 18913m | 4.4m/s | -53.3°C | 3.8% | 69.3hPa | 2.7V | 00:00:00 | 01:16:40 | 00:00:00 | |
| DM3KS-11 | 2026-09-02 05:47:39 | 49.61743 | 8.17001 | 75° | 37km/h | 18908m | 4.6m/s | -53.4°C | 0.9% | 69.4hPa | 2.7V | 00:00:00 | 00:00:00 | 00:00:00 | |
| DL8DAS-15 | 2026-09-02 05:47:37 | 49.61740 | 8.16987 | 78° | 40km/h | 18903m | 5.4m/s | -53.4°C | 1.0% | 69.4hPa | 2.7V | 03:59:00 | 00:00:00 | 00:00:00 | |
| DL1XH1-15 | 2026-09-02 05:47:35 | 49.61729 | 8.16922 | 72° | 44km/h | 18884m | 4m/s | -53.2°C | 3.8% | 69.6hPa | 2.7V | 03:59:37 | 01:16:34 | 00:00:00 | |
| DM0DOS-11 | 2026-09-02 05:47:34 | 49.61721 | 8.16848 | 83° | 31km/h | 18863m | 4.9m/s | -53.2°C | 3.8% | 69.9hPa | 2.7V | 03:59:42 | 01:16:29 | 00:00:00 | |
| DL1XH-west | 2026-09-02 05:47:30 | 49.61721 | 8.16861 | 85° | 35km/h | 18867m | 3.8m/s | -53.2°C | 0.1% | 69.8hPa | 2.6V | 03:59:41 | 01:16:30 | 00:00:00 | |
| BIOWL1-15 | 2026-09-02 05:47:29 | 49.61716 | 8.16814 | 75° | 31km/h | 18849m | 4.1m/s | -53.1°C | 0.1% | 70hPa | 2.6V | 04:00:32 | 01:16:26 | 00:00:00 | |
| DL3AQ-11 | 2026-09-02 05:47:28 | 49.61718 | 8.16825 | 75° | 29km/h | 18854m | 4.2m/s | 0°C | -1.0% | 70.0hPa | 2.6V | 00:00:00 | 00:00:00 | 00:00:00 | |
| DB0UT-7 | 2026-09-02 05:47:27 | 49.61718 | 8.16825 | 76° | 31km/h | 18854m | 4.2m/s | -53.0°C | 3.8% | 69.9hPa | 2.6V | 00:00:00 | 00:00:00 | 00:00:00 | |
| DB0UT-9 | 2026-09-02 05:47:26 | 49.61718 | 8.16825 | 76° | 29km/h | 18854m | 4.2m/s | -53.1°C | 1.0% | 70.0hPa | 2.7V | 04:00:00 | 00:00:00 | 00:00:00 | |
| DL1XH1-15 | 2026-09-02 05:47:25 | 49.61713 | 8.16789 | 80° | 35km/h | 18840m | 4.6m/s | -53°C | 3.8% | 70.1hPa | 2.7V | 03:59:47 | 01:16:24 | 00:00:00 | |
| DL1XH-west | 2026-09-02 05:47:20 | 49.61706 | 8.16737 | 79° | 31km/h | 18822m | 4.1m/s | -53°C | 0.1% | 70.3hPa | 2.7V | 04:00:32 | 01:16:20 | 00:00:00 | |
| BIOWL1-15 | 2026-09-02 05:47:16 | 49.61703 | 8.16691 | 83° | 27km/h | 18804m | 4.3m/s | -53°C | 0% | 70.5hPa | 2.6V | 04:00:32 | 01:16:16 | 00:00:00 | |
| DL1XH1-15 | 2026-09-02 05:47:15 | 49.61699 | 8.16670 | 69° | 27km/h | 18794m | 4.6m/s | -53°C | 3.7% | 70.6hPa | 2.7V | 03:59:57 | 01:16:14 | 00:00:00 | |
| DL1XH-west | 2026-09-02 05:47:10 | 49.61689 | 8.16626 | 77° | 33km/h | 18776m | 4m/s | -53.1°C | 0% | 70.8hPa | 2.6V | 04:00:32 | 01:16:10 | 00:00:00 | |
| BIOWL1-15 | 2026-09-02 05:47:06 | 49.61682 | 8.16580 | 75° | 27km/h | 18758m | 4.2m/s | -53.1°C | 0.1% | 71hPa | 2.6V | 04:00:32 | 01:16:06 | 00:00:00 | |
| DL1XH-west | 2026-09-02 05:47:00 | 49.61676 | 8.16514 | 80° | 29km/h | 18731m | 4.1m/s | -52.9°C | 0% | 71.3hPa | 2.7V | 04:00:32 | 01:16:00 | 00:00:00 | |
| BIOWL1-15 | 2026-09-02 05:46:56 | 49.61673 | 8.16468 | 90° | 31km/h | 18713m | 3.9m/s | -53°C | 0% | 71.5hPa | 2.6V | 04:00:32 | 01:15:56 | 00:00:00 | |
| DM0DOS-11 | 2026-09-02 05:46:55 | 49.61676 | 8.16415 | 106° | 27km/h | 18689m | 5m/s | -53°C | 3.8% | 71.7hPa | 2.7V | 04:00:20 | 01:15:51 | 00:00:00 | |
| DL1XH-west | 2026-09-02 05:46:49 | 49.61680 | 8.16394 | 107° | 29km/h | 18681m | 4.3m/s | -52.9°C | 0.1% | 71.8hPa | 2.6V | 04:00:32 | 01:15:49 | 00:00:00 | |
| BIOWL1-15 | 2026-09-02 05:46:46 | 49.61684 | 8.16362 | 96° | 29km/h | 18667m | 4.4m/s | -52.8°C | 0% | 72hPa | 2.7V | 04:00:32 | 01:15:46 | 00:00:00 | |
| DM0DOS-11 | 2026-09-02 05:46:45 | 49.61692 | 8.16300 | 100° | 37km/h | 18643m | 5.1m/s | -52.9°C | 3.7% | 72.3hPa | 2.7V | 04:00:30 | 01:15:41 | 00:00:00 | |
| DL1XH1-15 | 2026-09-02 05:46:45 | 49.61686 | 8.16339 | 100° | 31km/h | 18657m | 4.9m/s | -52.9°C | 3.7% | 72.1hPa | 2.6V | 04:00:27 | 01:15:44 | 00:00:00 | |
| DL1XH-west | 2026-09-02 05:46:39 | 49.61694 | 8.16271 | 96° | 38km/h | 18633m | 4.7m/s | -53°C | 0% | 72.4hPa | 2.6V | 04:00:32 | 01:15:39 | 00:00:00 | |
| BIOWL1-15 | 2026-09-02 05:46:37 | 49.61701 | 8.16186 | 93° | 37km/h | 18605m | 4.2m/s | -53°C | 0% | 72.7hPa | 2.6V | 04:01:23 | 01:15:33 | 00:00:00 | |
| DM3KS-11 | 2026-09-02 05:46:37 | 49.61698 | 8.16228 | 98° | 35km/h | 18619m | 4.2m/s | -53.1°C | 0.9% | 72.6hPa | 2.7V | 00:00:00 | 00:00:00 | 00:00:00 | |
| DM0DOS-11 | 2026-09-02 05:46:36 | 49.61703 | 8.16157 | 97° | 38km/h | 18596m | 5m/s | -53.2°C | 3.8% | 72.8hPa | 2.7V | 04:00:40 | 01:15:31 | 00:00:00 | |
| DL1XH1-15 | 2026-09-02 05:46:35 | 49.61700 | 8.16200 | 94° | 37km/h | 18610m | 5.3m/s | -53.1°C | 3.7% | 72.7hPa | 2.6V | 04:00:37 | 01:15:34 | 00:00:00 | |
| DL1XH-west | 2026-09-02 05:46:28 | 49.61707 | 8.16114 | 95° | 38km/h | 18583m | 5.3m/s | -53.1°C | 0.1% | 73hPa | 2.6V | 04:01:23 | 01:15:28 | 00:00:00 | |
| BIOWL1-15 | 2026-09-02 05:46:27 | 49.61706 | 8.16068 | 86° | 40km/h | 18568m | 5.4m/s | -53.1°C | 0.1% | 73.2hPa | 2.7V | 04:01:23 | 01:15:25 | 00:00:00 | |
| DB0UT-7 | 2026-09-02 05:46:27 | 49.61707 | 8.16099 | 90° | 37km/h | 18578m | 5.2m/s | -53.1°C | 3.8% | 73.0hPa | 2.7V | 00:00:00 | 00:00:00 | 00:00:00 | |
| DM7RM-13 | 2026-09-02 05:46:26 | 49.61707 | 8.16099 | 91° | 38km/h | 18578m | 5.2m/s | -53.1°C | 1.0% | 73.0hPa | 2.7V | 04:01:00 | 00:00:00 | 00:00:00 | |
| DL1XH1-15 | 2026-09-02 05:46:25 | 49.61705 | 8.16051 | 85° | 42km/h | 18563m | 4.5m/s | -53°C | 3.8% | 73.2hPa | 2.7V | 04:00:47 | 01:15:24 | 00:00:00 | |
| DL1XH-west | 2026-09-02 05:46:17 | 49.61692 | 8.15942 | 83° | 35km/h | 18532m | 4m/s | -52.8°C | 0.1% | 73.5hPa | 2.6V | 04:01:23 | 01:15:17 | 00:00:00 | |
| DM0DOS-11 | 2026-09-02 05:46:16 | 49.61683 | 8.15864 | 80° | 37km/h | 18503m | 4m/s | -52.6°C | 3.7% | 73.9hPa | 2.6V | 04:01:00 | 01:15:11 | 00:00:00 | |
| DL1XH1-15 | 2026-09-02 05:46:15 | 49.61688 | 8.15904 | 75° | 33km/h | 18518m | 4.6m/s | -52.7°C | 3.7% | 73.7hPa | 2.7V | 04:00:57 | 01:15:14 | 00:00:00 | |
| BIOWL1-15 | 2026-09-02 05:46:15 | 49.61690 | 8.15916 | 77° | 33km/h | 18522m | 4.8m/s | -52.7°C | 0.1% | 73.7hPa | 2.6V | 04:01:23 | 01:15:15 | 00:00:00 | |
| DL1XH-west | 2026-09-02 05:46:06 | 49.61671 | 8.15791 | 80° | 35km/h | 18480m | 5m/s | -52.4°C | 0% | 74.1hPa | 2.7V | 04:01:23 | 01:15:06 | 00:00:00 | |
| DM0DOS-11 | 2026-09-02 05:46:06 | 49.61664 | 8.15736 | 78° | 26km/h | 18456m | 5.1m/s | -52.4°C | 3.5% | 74.4hPa | 2.7V | 04:01:10 | 01:15:01 | 00:00:00 | |
| DL1XH1-15 | 2026-09-02 05:46:05 | 49.61668 | 8.15767 | 79° | 29km/h | 18471m | 5.2m/s | -52.4°C | 3.6% | 74.2hPa | 2.6V | 04:01:07 | 01:15:04 | 00:00:00 | |
| BIOWL1-15 | 2026-09-02 05:46:04 | 49.61668 | 8.15767 | 79° | 29km/h | 18471m | 5.2m/s | -52.4°C | 0% | 74.2hPa | 2.6V | 04:01:23 | 01:15:04 | 00:00:00 | |
| DL1XH-west | 2026-09-02 05:45:55 | 49.61654 | 8.15661 | 75° | 38km/h | 18430m | 4.1m/s | -52.4°C | 0% | 74.7hPa | 2.7V | 04:01:23 | 01:14:55 | 00:00:00 | |
| BIOWL1-15 | 2026-09-02 05:45:54 | 49.61652 | 8.15646 | 77° | 37km/h | 18426m | 4.8m/s | -52.4°C | 0% | 74.8hPa | 2.7V | 04:01:23 | 01:14:54 | 00:00:00 | |
| DD1CC8 | 2026-09-02 05:45:54 | 49.61650 | 8.15633 | 77° | 31km/h | 18421m | 4.3m/s | -52.3°C | 0.9% | 74.8hPa | 2.6V | 00:00:00 | 00:00:00 | 00:00:00 | |
| AU51GT2 | 2026-09-02 05:45:50 | 49.61643 | 8.15594 | 70° | 22km/h | 18404m | 3.9m/s | -52.5°C | 0.9% | 75.0hPa | 2.6V | 00:00:00 | 00:00:00 | 00:00:00 | |
| DJ2KF-10 | 2026-09-02 05:45:49 | 49.61643 | 8.15594 | 71° | 29km/h | 18404m | 3.9m/s | -52.4°C | 3.6% | 75.0hPa | 2.6V | 00:00:00 | 01:14:49 | 00:00:00 | |
| SFWM-10 | 2026-09-02 05:45:48 | 49.61643 | 8.15594 | 71° | 22km/h | 18404m | 3.9m/s | -52.5°C | 0.9% | 75.0hPa | 2.6V | 00:00:00 | 00:00:00 | 00:00:00 | |
| DM0DOS-11 | 2026-09-02 05:45:47 | 49.61640 | 8.15559 | 89° | 27km/h | 18385m | 4.4m/s | -52.6°C | 3.7% | 75.2hPa | 2.6V | 04:01:26 | 01:14:45 | 00:00:00 | |
| DF7PN | 2026-09-02 05:45:47 | 49.61640 | 8.15569 | 89° | 24km/h | 18390m | 4.4m/s | -52.6°C | 0.9% | 75.2hPa | 2.6V | 00:00:00 | 00:00:00 | 00:00:00 | |
| DL1XH1-15 | 2026-09-02 05:45:44 | 49.61639 | 8.15483 | 86° | 35km/h | 18358m | 5m/s | -52.7°C | 3.7% | 75.5hPa | 2.6V | 04:01:32 | 01:14:39 | 00:00:00 | |
| BIOWL1-15 | 2026-09-02 05:45:44 | 49.61640 | 8.15548 | 88° | 29km/h | 18381m | 4.9m/s | -52.6°C | 0% | 75.3hPa | 2.6V | 04:02:14 | 01:14:44 | 00:00:00 | |
| DO3MHA-11 | 2026-09-02 05:45:43 | 49.61639 | 8.15536 | 87° | 31km/h | 18376m | 4.1m/s | -52.6°C | 3.7% | 75.3hPa | 2.7V | 00:00:00 | 01:14:43 | 00:00:00 | |
| DL8DAS-14 | 2026-09-02 05:45:42 | 49.61639 | 8.15510 | 91° | 35km/h | 18367m | 5.3m/s | -52.7°C | 1.0% | 75.5hPa | 2.6V | 00:00:00 | 00:00:00 | 00:00:00 | |
| AM1SDL-15 | 2026-09-02 05:45:41 | 49.61639 | 8.15510 | 92° | 29km/h | 18367m | 5.3m/s | 0°C | 0% | 0hPa | 2.6V | 00:00:00 | 01:14:41 | 00:00:00 | |
| DJ2DS-15 | 2026-09-02 05:45:40 | 49.61639 | 8.15496 | 90° | 29km/h | 18362m | 3.9m/s | -52.6°C | 3.7% | 75.5hPa | 2.6V | 04:01:00 | 01:14:40 | 00:00:00 | |
| DB0UT-9 | 2026-09-02 05:45:39 | 49.61639 | 8.15496 | 91° | 35km/h | 18362m | 3.9m/s | -52.7°C | 1.0% | 75.5hPa | 2.6V | 04:02:00 | 00:00:00 | 00:00:00 | |
| DM0DOS-11 | 2026-09-02 05:45:37 | 49.61634 | 8.15435 | 83° | 26km/h | 18339m | 5.2m/s | -52.7°C | 3.7% | 75.8hPa | 2.6V | 04:01:36 | 01:14:35 | 00:00:00 | |
| DL1XH-west | 2026-09-02 05:45:33 | 49.61633 | 8.15417 | 85° | 22km/h | 18330m | 5m/s | -52.7°C | 0% | 75.9hPa | 2.6V | 04:02:14 | 01:14:33 | 00:00:00 | |
| DO3MHA-11 | 2026-09-02 05:45:33 | 49.61633 | 8.15417 | 85° | 27km/h | 18330m | 5.0m/s | -52.7°C | 3.7% | 75.8hPa | 2.7V | 04:01:00 | 01:14:33 | 00:00:00 | |
| DK5PH-5 | 2026-09-02 05:45:32 | 49.61632 | 8.15408 | 85° | 31km/h | 18325m | 4.9m/s | -52.6°C | 3.7% | 75.9hPa | 2.7V | 00:00:00 | 01:14:32 | 00:00:00 | |
| DB0ND-19 | 2026-09-02 05:45:31 | 49.61632 | 8.15399 | 90° | 22km/h | 18321m | 3.9m/s | -52.7°C | 0.9% | 76.0hPa | 2.7V | 00:00:00 | 00:00:00 | 00:00:00 | |
| DJ2DS-15 | 2026-09-02 05:45:30 | 49.61633 | 8.15390 | 98° | 24km/h | 18316m | 5.2m/s | -52.7°C | 0.9% | 76.0hPa | 2.7V | 00:00:00 | 00:00:00 | 00:00:00 | |
| DM0DOS-11 | 2026-09-02 05:45:28 | 49.61641 | 8.15336 | 97° | 31km/h | 18293m | 4.4m/s | -52.7°C | 3.6% | 76.3hPa | 2.7V | 04:01:46 | 01:14:25 | 00:00:00 | |
| BIOWL9-15 | 2026-09-02 05:45:28 | 49.61638 | 8.15359 | 104° | 29km/h | 18303m | 4.9m/s | 0°C | -1.0% | -1.0hPa | 2.7V | 00:00:00 | 00:00:00 | 00:00:00 | |
| DB0UT-7 | 2026-09-02 05:45:27 | 49.61638 | 8.15359 | 105° | 33km/h | 18303m | 4.9m/s | -52.6°C | 3.7% | 76.1hPa | 2.7V | 00:00:00 | 00:00:00 | 00:00:00 | |
| DN1GJH-1 | 2026-09-02 05:45:26 | 49.61638 | 8.15359 | 106° | 29km/h | 18303m | 4.9m/s | -52.7°C | 1.0% | 76.2hPa | 2.7V | 00:00:00 | 00:00:00 | 00:00:00 | |
| SFWM-10 | 2026-09-02 05:45:25 | 49.61639 | 8.15348 | 101° | 31km/h | 18298m | 4.8m/s | -52.7°C | 0.9% | 76.3hPa | 2.7V | 00:00:00 | 00:00:00 | 00:00:00 | |
| DO3MHA-11 | 2026-09-02 05:45:24 | 49.61643 | 8.15311 | 102° | 29km/h | 18284m | 5.2m/s | -52.6°C | 3.7% | 76.4hPa | 2.7V | 00:00:00 | 01:14:23 | 00:00:00 | |
| DL1XH-west | 2026-09-02 05:45:23 | 49.61643 | 8.15311 | 101° | 31km/h | 18284m | 5.2m/s | -52.6°C | 0% | 76.4hPa | 2.6V | 04:02:14 | 01:14:23 | 00:00:00 | |
| HEMX73-11 | 2026-09-02 05:45:23 | 49.61643 | 8.15312 | 102° | 31km/h | 18284m | 5.2m/s | -52.6°C | 0.9% | 76.4hPa | 2.7V | 04:02:00 | 00:00:00 | 00:00:00 | |
| DO2KSM | 2026-09-02 05:45:22 | 49.61643 | 8.15312 | 102° | 31km/h | 18284m | 5.2m/s | -52.6°C | 0.9% | 76.4hPa | 2.7V | 04:02:00 | 00:00:00 | 00:00:00 | |
| DJ2DS-15 | 2026-09-02 05:45:20 | 49.61647 | 8.15277 | 97° | 33km/h | 18270m | 5.2m/s | -52.6°C | 3.6% | 76.6hPa | 2.7V | 00:00:00 | 01:14:20 | 00:00:00 | |
| DJ2KF-10 | 2026-09-02 05:45:19 | 49.61648 | 8.15266 | 97° | 35km/h | 18265m | 4.0m/s | -52.7°C | 3.7% | 76.6hPa | 2.6V | 04:01:00 | 01:14:19 | 00:00:00 | |
| DJTTGO | 2026-09-02 05:45:18 | 49.61648 | 8.15266 | 98° | 29km/h | 18265m | 4.1m/s | -52.7°C | 1.0% | 76.7hPa | 2.6V | 04:02:00 | 00:00:00 | 00:00:00 | |
| DM0DOS-11 | 2026-09-02 05:45:17 | 49.61652 | 8.15221 | 96° | 29km/h | 18247m | 4.5m/s | -52.8°C | 3.7% | 76.8hPa | 2.6V | 04:01:56 | 01:14:15 | 00:00:00 | |
| BIOWL1-15 | 2026-09-02 05:45:13 | 49.61653 | 8.15196 | 86° | 33km/h | 18238m | 4.1m/s | -53°C | 0% | 77hPa | 2.7V | 04:02:14 | 01:14:13 | 00:00:00 | |
| DL1XH-west | 2026-09-02 05:45:12 | 49.61652 | 8.15184 | 85° | 33km/h | 18235m | 3.5m/s | -53.1°C | 0.1% | 77hPa | 2.7V | 04:02:14 | 01:14:12 | 00:00:00 | |
| DL8DAS-14 | 2026-09-02 05:45:10 | 49.61651 | 8.15158 | 91° | 31km/h | 18226m | 4.8m/s | -53.0°C | 1.0% | 77.1hPa | 2.6V | 00:00:00 | 00:00:00 | 00:00:00 | |
| DL8DAS-15 | 2026-09-02 05:45:09 | 49.61651 | 8.15158 | 93° | 31km/h | 18226m | 4.8m/s | -53.0°C | 1.0% | 77.1hPa | 2.6V | 00:00:00 | 00:00:00 | 00:00:00 | |
| DM0DOS-11 | 2026-09-02 05:45:07 | 49.61652 | 8.15098 | 85° | 35km/h | 18204m | 4.1m/s | -53°C | 3.8% | 77.4hPa | 2.6V | 04:02:06 | 01:14:05 | 00:00:00 | |
| DL1XH-west | 2026-09-02 05:45:02 | 49.61651 | 8.15055 | 91° | 38km/h | 18191m | 4.4m/s | -53°C | 0.1% | 77.5hPa | 2.7V | 04:02:14 | 01:14:02 | 00:00:00 | |
| BIOWL7-15 | 2026-09-02 05:45:02 | 49.61651 | 8.15055 | 92° | 38km/h | 18191m | 4.4m/s | -53.0°C | 1.0% | 77.5hPa | 2.7V | 00:00:00 | 00:00:00 | 00:00:00 | |
| DJ2DS-15 | 2026-09-02 05:45:00 | 49.61651 | 8.15025 | 88° | 35km/h | 18182m | 5.2m/s | -52.9°C | 3.8% | 77.6hPa | 2.7V | 00:00:00 | 01:14:00 | 00:00:00 | |
| SFWM-10 | 2026-09-02 05:44:59 | 49.61651 | 8.15025 | 89° | 38km/h | 18182m | 5.3m/s | -52.9°C | 1.0% | 77.6hPa | 2.7V | 00:00:00 | 00:00:00 | 00:00:00 | |
| DO2KSM | 2026-09-02 05:44:58 | 49.61650 | 8.15010 | 85° | 38km/h | 18177m | 4.8m/s | -52.9°C | 1.0% | 77.7hPa | 2.7V | 04:02:00 | 00:00:00 | 00:00:00 | |
| DM0DOS-11 | 2026-09-02 05:44:57 | 49.61647 | 8.14950 | 84° | 38km/h | 18160m | 3.6m/s | -52.9°C | 3.7% | 77.9hPa | 2.7V | 04:02:16 | 01:13:55 | 00:00:00 | |
| BIOWL1-15 | 2026-09-02 05:44:53 | 49.61637 | 8.14857 | 85° | 35km/h | 18130m | 4m/s | -52.8°C | 0% | 78.3hPa | 2.7V | 04:03:05 | 01:13:48 | 00:00:00 | |
| DL1XH-west | 2026-09-02 05:44:51 | 49.61640 | 8.14896 | 78° | 33km/h | 18143m | 4.4m/s | -52.8°C | 0% | 78.1hPa | 2.6V | 04:03:05 | 01:13:51 | 00:00:00 | |
| AU51GT2 | 2026-09-02 05:44:48 | 49.61636 | 8.14844 | 82° | 33km/h | 18126m | 4.9m/s | -52.8°C | 1.0% | 78.3hPa | 2.7V | 00:00:00 | 00:00:00 | 00:00:00 | |
| DL8DAS-15 | 2026-09-02 05:44:45 | 49.61635 | 8.14832 | 81° | 31km/h | 18121m | 4.8m/s | -52.7°C | 1.0% | 78.4hPa | 2.7V | 04:03:00 | 00:00:00 | 00:00:00 | |
| DL1XH1-15 | 2026-09-02 05:44:44 | 49.61631 | 8.14797 | 84° | 31km/h | 18108m | 5.4m/s | -52.8°C | 3.7% | 78.5hPa | 2.7V | 04:02:28 | 01:13:43 | 00:00:00 | |
| BIOWL1-15 | 2026-09-02 05:44:41 | 49.61629 | 8.14750 | 86° | 27km/h | 18089m | 4.1m/s | -52.6°C | 0% | 78.8hPa | 2.6V | 04:03:05 | 01:13:39 | 00:00:00 | |
| DL1XH-west | 2026-09-02 05:44:41 | 49.61630 | 8.14772 | 89° | 31km/h | 18098m | 4.4m/s | -52.7°C | 0% | 78.7hPa | 2.6V | 04:03:05 | 01:13:41 | 00:00:00 | |
| BIOWL1-15 | 2026-09-02 05:44:31 | 49.61634 | 8.14648 | 108° | 26km/h | 18044m | 3.9m/s | -52.8°C | 0% | 79.3hPa | 2.6V | 04:03:05 | 01:13:29 | 00:00:00 | |
| DL1XH-west | 2026-09-02 05:44:30 | 49.61632 | 8.14658 | 103° | 26km/h | 18049m | 5.1m/s | -52.8°C | 0% | 79.3hPa | 2.7V | 04:03:05 | 01:13:30 | 00:00:00 | |
| DB0ND-19 | 2026-09-02 05:44:29 | 49.61634 | 8.14648 | 107° | 24km/h | 18044m | 3.9m/s | -52.8°C | 0.9% | 79.3hPa | 2.6V | 00:00:00 | 00:00:00 | 00:00:00 | |
| DB0UT-7 | 2026-09-02 05:44:27 | 49.61638 | 8.14631 | 110° | 26km/h | 18036m | 5.3m/s | -52.8°C | 3.6% | 79.4hPa | 2.6V | 00:00:00 | 00:00:00 | 00:00:00 | |
| DN1GJH-1 | 2026-09-02 05:44:23 | 49.61642 | 8.14607 | 105° | 24km/h | 18022m | 5.3m/s | -52.8°C | 1.0% | 79.6hPa | 2.6V | 00:00:00 | 00:00:00 | 00:00:00 | |
| DO3MHA-11 | 2026-09-02 05:44:22 | 49.61645 | 8.14589 | 101° | 24km/h | 18013m | 4.1m/s | -52.7°C | 3.7% | 79.6hPa | 2.6V | 00:00:00 | 01:13:22 | 00:00:00 | |
| DL1XH1-15 | 2026-09-02 05:44:21 | 49.61657 | 8.14538 | 120° | 26km/h | 17987m | 4.1m/s | -52.9°C | 3.7% | 80hPa | 2.6V | 04:02:55 | 01:13:16 | 00:00:00 | |
| DL1XH-west | 2026-09-02 05:44:20 | 49.61647 | 8.14572 | 102° | 22km/h | 18004m | 4m/s | -52.8°C | 0.1% | 79.8hPa | 2.6V | 04:03:05 | 01:13:20 | 00:00:00 | |
| BIOWL1-15 | 2026-09-02 05:44:18 | 49.61650 | 8.14555 | 115° | 24km/h | 17996m | 4.9m/s | -52.8°C | 0% | 79.9hPa | 2.7V | 04:03:05 | 01:13:18 | 00:00:00 | |
| SFWM-10 | 2026-09-02 05:44:17 | 49.61650 | 8.14555 | 115° | 24km/h | 17996m | 4.9m/s | -52.8°C | 0.9% | 79.9hPa | 2.7V | 00:00:00 | 00:00:00 | 00:00:00 | |
| DO2KSM | 2026-09-02 05:44:16 | 49.61653 | 8.14547 | 120° | 26km/h | 17991m | 4.0m/s | -52.9°C | 1.0% | 80.0hPa | 2.7V | 04:03:00 | 00:00:00 | 00:00:00 | |
| DF7PN | 2026-09-02 05:44:14 | 49.61665 | 8.14515 | 118° | 22km/h | 17975m | 3.6m/s | -53.1°C | 1.0% | 80.2hPa | 2.7V | 00:00:00 | 00:00:00 | 00:00:00 | |
| DO3MHA-11 | 2026-09-02 05:44:12 | 49.61668 | 8.14507 | 119° | 29km/h | 17971m | 4.7m/s | -53.1°C | 3.8% | 80.2hPa | 2.7V | 00:00:00 | 01:13:12 | 00:00:00 | |
| DL1XH1-15 | 2026-09-02 05:44:11 | 49.61688 | 8.14450 | 120° | 29km/h | 17943m | 5.2m/s | -53.3°C | 3.8% | 80.6hPa | 2.7V | 04:03:05 | 01:13:06 | 00:00:00 | |
| BIOWL1-15 | 2026-09-02 05:44:10 | 49.61681 | 8.14469 | 118° | 27km/h | 17952m | 4.6m/s | -53.2°C | 0% | 80.5hPa | 2.7V | 04:03:05 | 01:13:08 | 00:00:00 | |
| DL1XH-west | 2026-09-02 05:44:09 | 49.61678 | 8.14479 | 117° | 27km/h | 17957m | 5m/s | -53.2°C | 0.1% | 80.4hPa | 2.6V | 04:03:05 | 01:13:09 | 00:00:00 | |
| DH7VM-15 | 2026-09-02 05:44:08 | 49.61678 | 8.14479 | 118° | 27km/h | 17957m | 5.0m/s | -53.2°C | 1.0% | 80.4hPa | 2.6V | 00:00:00 | 00:00:00 | 00:00:00 | |
| DL1ZP-14 | 2026-09-02 05:44:04 | 49.61696 | 8.14429 | 120° | 29km/h | 17934m | 3.6m/s | -53.2°C | 1.0% | 80.7hPa | 2.6V | 00:00:00 | 00:00:00 | 00:00:00 | |
| DL9PN | 2026-09-02 05:44:03 | 49.61700 | 8.14419 | 118° | 29km/h | 17930m | 4.9m/s | -53.1°C | 1.0% | 80.7hPa | 2.6V | 00:00:00 | 00:00:00 | 00:00:00 | |
| DM3KS-11 | 2026-09-02 05:44:02 | 49.61706 | 8.14399 | 112° | 27km/h | 17921m | 3.6m/s | -53.1°C | 1.0% | 80.8hPa | 2.6V | 00:00:00 | 00:00:00 | 00:00:00 | |
| DL1XH1-15 | 2026-09-02 05:44:01 | 49.61720 | 8.14344 | 107° | 29km/h | 17899m | 4.2m/s | -52.9°C | 3.8% | 81.2hPa | 2.6V | 04:03:15 | 01:12:56 | 00:00:00 | |
| DL1XH-west | 2026-09-02 05:43:58 | 49.61715 | 8.14366 | 112° | 31km/h | 17908m | 3.8m/s | -53°C | 0.1% | 81hPa | 2.6V | 04:03:56 | 01:12:58 | 00:00:00 | |
| DB0ND-19 | 2026-09-02 05:43:58 | 49.61718 | 8.14355 | 110° | 29km/h | 17904m | 4.8m/s | -53.0°C | 0.9% | 81.1hPa | 2.6V | 00:00:00 | 00:00:00 | 00:00:00 | |
| DM0DOS-11 | 2026-09-02 05:43:57 | 49.61728 | 8.14308 | 107° | 35km/h | 17887m | 4.2m/s | -52.9°C | 3.8% | 81.3hPa | 2.6V | 04:03:18 | 01:12:53 | 00:00:00 | |
| BIOWL1-15 | 2026-09-02 05:43:57 | 49.61718 | 8.14355 | 111° | 31km/h | 17904m | 4.8m/s | -53°C | 0% | 81.1hPa | 2.6V | 04:03:56 | 01:12:57 | 00:00:00 | |
| BIOWL9-15 | 2026-09-02 05:43:54 | 49.61728 | 8.14308 | 107° | 35km/h | 17887m | 4.2m/s | -52.9°C | 1.0% | 81.3hPa | 2.6V | 00:00:00 | 00:00:00 | 00:00:00 | |
| DO3MHA-11 | 2026-09-02 05:43:52 | 49.61730 | 8.14295 | 107° | 33km/h | 17883m | 3.7m/s | -52.8°C | 3.7% | 81.3hPa | 2.6V | 04:03:00 | 01:12:52 | 00:00:00 | |
| DL1XH1-15 | 2026-09-02 05:43:51 | 49.61740 | 8.14220 | 105° | 33km/h | 17858m | 3.6m/s | -52.8°C | 3.7% | 81.7hPa | 2.6V | 04:03:25 | 01:12:46 | 00:00:00 | |
| DL1XH-west | 2026-09-02 05:43:48 | 49.61737 | 8.14245 | 100° | 33km/h | 17866m | 4.3m/s | -52.8°C | 0% | 81.5hPa | 2.7V | 04:03:56 | 01:12:48 | 00:00:00 | |
| BIOWL1-15 | 2026-09-02 05:43:48 | 49.61741 | 8.14220 | 105° | 33km/h | 17858m | 3.6m/s | -52.8°C | 0.1% | 81.7hPa | 2.6V | 04:03:56 | 01:12:46 | 00:00:00 | |
| DM0DOS-11 | 2026-09-02 05:43:46 | 49.61746 | 8.14184 | 100° | 29km/h | 17845m | 4.2m/s | -52.8°C | 3.7% | 81.8hPa | 2.7V | 04:03:28 | 01:12:43 | 00:00:00 | |
| AU51GT2 | 2026-09-02 05:43:46 | 49.61743 | 8.14208 | 105° | 31km/h | 17854m | 3.6m/s | -52.8°C | 0.9% | 81.7hPa | 2.7V | 00:00:00 | 00:00:00 | 00:00:00 | |
| DO3MHA-11 | 2026-09-02 05:43:42 | 49.61748 | 8.14173 | 102° | 29km/h | 17842m | 3.2m/s | -52.8°C | 3.8% | 81.8hPa | 2.7V | 00:00:00 | 01:12:42 | 00:00:00 | |
| DL1XH1-15 | 2026-09-02 05:43:41 | 49.61763 | 8.14108 | 115° | 29km/h | 17816m | 3.5m/s | -52.8°C | 3.7% | 82.2hPa | 2.7V | 04:03:35 | 01:12:36 | 00:00:00 | |
| DL1XH-west | 2026-09-02 05:43:37 | 49.61760 | 8.14118 | 113° | 29km/h | 17820m | 4.2m/s | -52.9°C | 0.1% | 82.1hPa | 2.7V | 04:03:56 | 01:12:37 | 00:00:00 | |
| NBG1-10 | 2026-09-02 05:43:37 | 49.61760 | 8.14118 | 113° | 29km/h | 17820m | 4.2m/s | -52.8°C | 3.8% | 82.1hPa | 2.7V | 00:00:00 | 01:12:37 | 00:00:00 | |
| DM0DOS-11 | 2026-09-02 05:43:36 | 49.61774 | 8.14077 | 120° | 29km/h | 17803m | 3.7m/s | -52.8°C | 3.7% | 82.3hPa | 2.6V | 04:03:38 | 01:12:33 | 00:00:00 | |
| BIOWL1-15 | 2026-09-02 05:43:35 | 49.61770 | 8.14087 | 121° | 31km/h | 17808m | 4.1m/s | -52.8°C | 0.1% | 82.3hPa | 2.6V | 04:03:56 | 01:12:34 | 00:00:00 | |
| DO2KSM | 2026-09-02 05:43:34 | 49.61766 | 8.14097 | 120° | 29km/h | 17812m | 4.9m/s | -52.9°C | 1.0% | 82.2hPa | 2.7V | 04:03:00 | 00:00:00 | 00:00:00 | |
| SFWM-10 | 2026-09-02 05:43:33 | 49.61770 | 8.14087 | 122° | 29km/h | 17808m | 4.1m/s | -52.8°C | 1.0% | 82.3hPa | 2.7V | 00:00:00 | 00:00:00 | 00:00:00 | |
| DK5PH-5 | 2026-09-02 05:43:32 | 49.61777 | 8.14068 | 117° | 29km/h | 17799m | 4.8m/s | -52.7°C | 3.7% | 82.3hPa | 2.7V | 00:00:00 | 01:12:32 | 00:00:00 | |
| DL1XH1-15 | 2026-09-02 05:43:31 | 49.61795 | 8.14008 | 109° | 26km/h | 17775m | 5m/s | -52.8°C | 3.7% | 82.7hPa | 2.6V | 04:03:45 | 01:12:26 | 00:00:00 | |
| BIOWL1-15 | 2026-09-02 05:43:29 | 49.61797 | 8.13998 | 106° | 26km/h | 17770m | 4.6m/s | -52.8°C | 0.1% | 82.8hPa | 2.7V | 04:03:56 | 01:12:25 | 00:00:00 | |
| DL1XH-west | 2026-09-02 05:43:27 | 49.61792 | 8.14017 | 115° | 27km/h | 17779m | 3.4m/s | -52.8°C | 0% | 82.7hPa | 2.6V | 04:03:56 | 01:12:27 | 00:00:00 | |
| DM0DOS-11 | 2026-09-02 05:43:26 | 49.61800 | 8.13978 | 105° | 27km/h | 17762m | 4.9m/s | -52.8°C | 3.7% | 82.8hPa | 2.7V | 04:03:48 | 01:12:23 | 00:00:00 | |
| DL1XH-west | 2026-09-02 05:43:16 | 49.61812 | 8.13888 | 105° | 35km/h | 17732m | 3.8m/s | -52.8°C | 0% | 83.3hPa | 2.6V | 04:03:56 | 01:12:16 | 00:00:00 | |
| DM0DOS-11 | 2026-09-02 05:43:16 | 49.61818 | 8.13855 | 102° | 26km/h | 17719m | 4.2m/s | -52.9°C | 3.8% | 83.4hPa | 2.7V | 04:03:58 | 01:12:13 | 00:00:00 | |
| BIOWL1-15 | 2026-09-02 05:43:14 | 49.61818 | 8.13855 | 103° | 26km/h | 17719m | 4.3m/s | -52.9°C | 0.1% | 83.4hPa | 2.7V | 04:04:47 | 01:12:13 | 00:00:00 | |
| SFWM-10 | 2026-09-02 05:43:13 | 49.61816 | 8.13865 | 106° | 29km/h | 17724m | 4.7m/s | -52.9°C | 1.0% | 83.3hPa | 2.7V | 04:04:00 | 00:00:00 | 00:00:00 | |
| DO3MHA-11 | 2026-09-02 05:43:12 | 49.61819 | 8.13845 | 103° | 29km/h | 17716m | 3.4m/s | -52.9°C | 3.8% | 83.4hPa | 2.7V | 00:00:00 | 01:12:12 | 00:00:00 | |
| DF7PN | 2026-09-02 05:43:11 | 49.61821 | 8.13836 | 105° | 24km/h | 17711m | 4.9m/s | -52.9°C | 1.0% | 83.5hPa | 2.6V | 00:00:00 | 00:00:00 | 00:00:00 | |
| DJTTGO | 2026-09-02 05:43:09 | 49.61823 | 8.13826 | 109° | 26km/h | 17707m | 4.3m/s | -52.9°C | 1.0% | 83.6hPa | 2.6V | 04:04:00 | 00:00:00 | 00:00:00 | |
| CB1BUN | 2026-09-02 05:43:07 | 49.61827 | 8.13806 | 105° | 27km/h | 17699m | 4.8m/s | -52.8°C | 1.0% | 83.7hPa | 2.6V | 04:04:00 | 00:00:00 | 00:00:00 | |
| DM0DOS-11 | 2026-09-02 05:43:06 | 49.61836 | 8.13745 | 102° | 37km/h | 17677m | 3.7m/s | -52.7°C | 3.7% | 84hPa | 2.6V | 04:04:08 | 01:12:03 | 00:00:00 | |
| DL1XH-west | 2026-09-02 05:43:06 | 49.61830 | 8.13784 | 102° | 31km/h | 17690m | 4.1m/s | -52.8°C | 0.1% | 83.8hPa | 2.7V | 04:04:47 | 01:12:06 | 00:00:00 | |
| BIOWL1-15 | 2026-09-02 05:43:05 | 49.61838 | 8.13731 | 99° | 37km/h | 17673m | 4.9m/s | -52.7°C | 0% | 84hPa | 2.6V | 04:04:47 | 01:12:02 | 00:00:00 | |
| NBG1-10 | 2026-09-02 05:43:04 | 49.61834 | 8.13758 | 105° | 29km/h | 17681m | 3.8m/s | -52.7°C | 3.7% | 83.8hPa | 2.6V | 00:00:00 | 01:12:04 | 00:00:00 | |
| DL1XH1-15 | 2026-09-02 05:43:03 | 49.61843 | 8.13676 | 101° | 35km/h | 17656m | 3.9m/s | -52.6°C | 3.7% | 84.2hPa | 2.6V | 04:04:13 | 01:11:58 | 00:00:00 | |
| DL1XH-west | 2026-09-02 05:42:55 | 49.61847 | 8.13639 | 95° | 29km/h | 17644m | 3.8m/s | -52.7°C | 0% | 84.4hPa | 2.7V | 04:04:47 | 01:11:55 | 00:00:00 | |
| DM0DOS-11 | 2026-09-02 05:42:54 | 49.61853 | 8.13576 | 95° | 26km/h | 17618m | 3.9m/s | -52.7°C | 3.6% | 84.7hPa | 2.7V | 04:04:22 | 01:11:49 | 00:00:00 | |
| DL1XH1-15 | 2026-09-02 05:42:53 | 49.61854 | 8.13566 | 97° | 27km/h | 17615m | 3.4m/s | -52.8°C | 3.7% | 84.8hPa | 2.7V | 04:04:23 | 01:11:48 | 00:00:00 | |
| BIOWL1-15 | 2026-09-02 05:42:53 | 49.61849 | 8.13617 | 99° | 27km/h | 17636m | 4.9m/s | -52.6°C | 0% | 84.5hPa | 2.6V | 04:04:47 | 01:11:53 | 00:00:00 | |
| DL1XH-west | 2026-09-02 05:42:45 | 49.61858 | 8.13533 | 100° | 29km/h | 17602m | 3.8m/s | -52.8°C | 0.1% | 85hPa | 2.6V | 04:04:47 | 01:11:45 | 00:00:00 | |
| DL1XH1-15 | 2026-09-02 05:42:44 | 49.61864 | 8.13459 | 94° | 26km/h | 17573m | 4.7m/s | -52.8°C | 3.8% | 85.3hPa | 2.7V | 04:04:33 | 01:11:38 | 00:00:00 | |
| BIOWL1-15 | 2026-09-02 05:42:42 | 49.61860 | 8.13500 | 96° | 27km/h | 17590m | 4.1m/s | -52.8°C | 0.1% | 85.1hPa | 2.7V | 04:04:47 | 01:11:42 | 00:00:00 | |
| DL1XH-west | 2026-09-02 05:42:35 | 49.61867 | 8.13428 | 100° | 29km/h | 17560m | 4.7m/s | -52.7°C | 0.1% | 85.5hPa | 2.6V | 04:04:47 | 01:11:35 | 00:00:00 | |
| DL1XH1-15 | 2026-09-02 05:42:33 | 49.61880 | 8.13357 | 121° | 26km/h | 17530m | 4.1m/s | -52.9°C | 3.7% | 85.9hPa | 2.6V | 04:04:43 | 01:11:28 | 00:00:00 | |
| BIOWL1-15 | 2026-09-02 05:42:32 | 49.61871 | 8.13395 | 101° | 27km/h | 17548m | 4.6m/s | -52.7°C | 0.1% | 85.7hPa | 2.6V | 04:04:47 | 01:11:32 | 00:00:00 | |
| DL1XH-west | 2026-09-02 05:42:25 | 49.61889 | 8.13335 | 118° | 20km/h | 17518m | 4.1m/s | -52.9°C | 0% | 86.1hPa | 2.7V | 04:04:47 | 01:11:25 | 00:00:00 | |
| DB0ND-19 | 2026-09-02 05:42:25 | 49.61889 | 8.13335 | 117° | 20km/h | 17518m | 4.1m/s | -52.9°C | 1.0% | 86.1hPa | 2.7V | 00:00:00 | 00:00:00 | 00:00:00 | |
| DL1XH1-15 | 2026-09-02 05:42:23 | 49.61907 | 8.13267 | 106° | 33km/h | 17489m | 4.2m/s | -52.8°C | 3.8% | 86.5hPa | 2.7V | 04:04:53 | 01:11:18 | 00:00:00 | |
| BIOWL1-15 | 2026-09-02 05:42:21 | 49.61902 | 8.13291 | 112° | 31km/h | 17498m | 4m/s | -52.8°C | 0.1% | 86.3hPa | 2.7V | 04:05:38 | 01:11:20 | 00:00:00 | |
| DL1XH-west | 2026-09-02 05:42:15 | 49.61917 | 8.13229 | 117° | 38km/h | 17475m | 4.7m/s | -52.7°C | 0.2% | 86.6hPa | 2.6V | 04:05:38 | 01:11:15 | 00:00:00 | |
| DL1XH1-15 | 2026-09-02 05:42:13 | 49.61944 | 8.13142 | 115° | 35km/h | 17445m | 4.5m/s | -52.7°C | 3.6% | 87hPa | 2.6V | 04:05:03 | 01:11:08 | 00:00:00 | |
| BIOWL1-15 | 2026-09-02 05:42:11 | 49.61934 | 8.13178 | 114° | 33km/h | 17458m | 3.9m/s | -52.6°C | 0% | 86.9hPa | 2.7V | 04:05:38 | 01:11:11 | 00:00:00 | |
| DL1XH-west | 2026-09-02 05:42:05 | 49.61954 | 8.13105 | 109° | 35km/h | 17432m | 3.9m/s | -52.7°C | 0.1% | 87.2hPa | 2.6V | 04:05:38 | 01:11:05 | 00:00:00 | |
| DL1ZP-14 | 2026-09-02 05:42:04 | 49.61973 | 8.13031 | 107° | 46km/h | 17411m | 4.9m/s | -52.7°C | 1.0% | 87.5hPa | 2.7V | 00:00:00 | 00:00:00 | 00:00:00 | |
| DL1XH1-15 | 2026-09-02 05:42:03 | 49.61979 | 8.12997 | 103° | 46km/h | 17402m | 3.6m/s | -52.7°C | 3.6% | 87.6hPa | 2.6V | 04:05:13 | 01:10:58 | 00:00:00 | |
| BIOWL1-15 | 2026-09-02 05:42:00 | 49.61976 | 8.13014 | 105° | 46km/h | 17406m | 4.3m/s | -52.7°C | 0% | 87.6hPa | 2.6V | 04:05:38 | 01:10:59 | 00:00:00 | |
| DL1XH-west | 2026-09-02 05:41:54 | 49.61991 | 8.12933 | 111° | 42km/h | 17386m | 2.9m/s | -52.8°C | 0.1% | 87.8hPa | 2.6V | 04:05:38 | 01:10:54 | 00:00:00 | |
| DB0ND-19 | 2026-09-02 05:41:54 | 49.61995 | 8.12918 | 109° | 40km/h | 17383m | 4.3m/s | -52.8°C | 1.0% | 87.9hPa | 2.6V | 00:00:00 | 00:00:00 | 00:00:00 | |
| DL8DAS-15 | 2026-09-02 05:41:53 | 49.61991 | 8.12933 | 112° | 42km/h | 17387m | 2.9m/s | -52.8°C | 1.0% | 87.8hPa | 2.6V | 00:00:00 | 00:00:00 | 00:00:00 | |
| DO3MHA-11 | 2026-09-02 05:41:52 | 49.61998 | 8.12903 | 107° | 46km/h | 17378m | 4.3m/s | -52.8°C | 3.6% | 87.9hPa | 2.6V | 00:00:00 | 01:10:52 | 00:00:00 | |
| DL1XH1-15 | 2026-09-02 05:41:50 | 49.62016 | 8.12800 | 99° | 47km/h | 17353m | 4.5m/s | -53.2°C | 3.8% | 88.3hPa | 2.6V | 04:05:25 | 01:10:46 | 00:00:00 | |
| BIOWL1-15 | 2026-09-02 05:41:49 | 49.62011 | 8.12836 | 106° | 47km/h | 17362m | 3.1m/s | -53.2°C | 0.1% | 88.2hPa | 2.6V | 04:05:38 | 01:10:48 | 00:00:00 | |
| HTAHTA | 2026-09-02 05:41:46 | 49.62016 | 8.12800 | 99° | 47km/h | 17353m | 4.5m/s | -53.2°C | 1.0% | 88.3hPa | 2.7V | 00:00:00 | 00:00:00 | 00:00:00 | |
| DD1CC8 | 2026-09-02 05:41:45 | 49.62018 | 8.12782 | 96° | 46km/h | 17349m | 4.1m/s | -53.2°C | 1.0% | 88.3hPa | 2.7V | 00:00:00 | 00:00:00 | 00:00:00 | |
| DL1XH-west | 2026-09-02 05:41:44 | 49.62019 | 8.12764 | 97° | 46km/h | 17345m | 5m/s | -53.2°C | 0.1% | 88.4hPa | 2.7V | 04:05:38 | 01:10:44 | 00:00:00 | |
| DO3MHA-11 | 2026-09-02 05:41:42 | 49.62022 | 8.12728 | 98° | 44km/h | 17336m | 3.1m/s | -53.2°C | 3.8% | 88.5hPa | 2.7V | 00:00:00 | 01:10:42 | 00:00:00 | |
| DL1XH1-15 | 2026-09-02 05:41:41 | 49.62030 | 8.12625 | 99° | 42km/h | 17311m | 3.2m/s | -53.3°C | 3.8% | 88.9hPa | 2.6V | 04:05:35 | 01:10:36 | 00:00:00 | |
| BIOWL1-15 | 2026-09-02 05:41:39 | 49.62025 | 8.12675 | 95° | 44km/h | 17324m | 3.7m/s | -53.2°C | 0.1% | 88.7hPa | 2.6V | 04:05:38 | 01:10:39 | 00:00:00 | |
| DL1XH-west | 2026-09-02 05:41:33 | 49.62032 | 8.12574 | 87° | 46km/h | 17299m | 3.8m/s | -53.3°C | 0.1% | 89hPa | 2.7V | 04:05:38 | 01:10:33 | 00:00:00 | |
| BIOWL1-15 | 2026-09-02 05:41:28 | 49.62031 | 8.12484 | 93° | 46km/h | 17279m | 3.6m/s | -53.4°C | 0.1% | 89.3hPa | 2.6V | 04:06:29 | 01:10:28 | 00:00:00 | |
| DM0DOS-11 | 2026-09-02 05:41:27 | 49.62032 | 8.12449 | 91° | 46km/h | 17271m | 4.1m/s | -53.5°C | 3.8% | 89.4hPa | 2.7V | 04:05:45 | 01:10:26 | 00:00:00 | |
| DL1XH-west | 2026-09-02 05:41:23 | 49.62034 | 8.12400 | 97° | 40km/h | 17258m | 4.3m/s | -53.5°C | 0.1% | 89.6hPa | 2.6V | 04:06:29 | 01:10:23 | 00:00:00 | |
| BIOWL1-15 | 2026-09-02 05:41:18 | 49.62035 | 8.12325 | 88° | 40km/h | 17238m | 4.6m/s | -53.7°C | 0.2% | 89.9hPa | 2.6V | 04:06:29 | 01:10:18 | 00:00:00 | |
| DL8DAS-15 | 2026-09-02 05:41:17 | 49.62035 | 8.12325 | 89° | 40km/h | 17238m | 4.6m/s | -53.7°C | 1.1% | 89.9hPa | 2.6V | 00:00:00 | 00:00:00 | 00:00:00 | |
| DM0DOS-11 | 2026-09-02 05:41:16 | 49.62029 | 8.12234 | 86° | 38km/h | 17213m | 4.8m/s | -53.7°C | 4% | 90.2hPa | 2.6V | 04:05:59 | 01:10:12 | 00:00:00 | |
| DL1XH1-15 | 2026-09-02 05:41:15 | 49.62032 | 8.12279 | 81° | 40km/h | 17225m | 4.6m/s | -53.7°C | 4% | 90hPa | 2.7V | 04:05:56 | 01:10:15 | 00:00:00 | |
| DL1XH-west | 2026-09-02 05:41:13 | 49.62030 | 8.12248 | 84° | 38km/h | 17217m | 3.8m/s | -53.7°C | 0.2% | 90.2hPa | 2.7V | 04:06:29 | 01:10:13 | 00:00:00 | |
| BIOWL1-15 | 2026-09-02 05:41:09 | 49.62029 | 8.12138 | 92° | 42km/h | 17189m | 4.7m/s | -53.6°C | 0.2% | 90.5hPa | 2.6V | 04:06:29 | 01:10:06 | 00:00:00 | |
| DF7PN | 2026-09-02 05:41:07 | 49.62029 | 8.12155 | 91° | 42km/h | 17193m | 3.2m/s | -53.6°C | 1.0% | 90.5hPa | 2.7V | 00:00:00 | 00:00:00 | 00:00:00 | |
| DM0DOS-11 | 2026-09-02 05:41:06 | 49.62029 | 8.12079 | 82° | 35km/h | 17172m | 3.8m/s | -53.5°C | 4% | 90.8hPa | 2.7V | 04:06:09 | 01:10:02 | 00:00:00 | |
| DL1XH1-15 | 2026-09-02 05:41:05 | 49.62030 | 8.12122 | 93° | 40km/h | 17185m | 4.1m/s | -53.6°C | 4% | 90.6hPa | 2.6V | 04:06:06 | 01:10:05 | 00:00:00 | |
| DL1XH-west | 2026-09-02 05:41:02 | 49.62029 | 8.12079 | 83° | 35km/h | 17172m | 3.8m/s | -53.5°C | 0.2% | 90.8hPa | 2.7V | 04:06:29 | 01:10:02 | 00:00:00 | |
| DO3MHA-11 | 2026-09-02 05:41:02 | 49.62029 | 8.12079 | 83° | 33km/h | 17172m | 3.7m/s | -53.5°C | 4.0% | 90.8hPa | 2.7V | 00:00:00 | 01:10:02 | 00:00:00 | |
| DL1XH1-15 | 2026-09-02 05:41:00 | 49.62022 | 8.11989 | 82° | 35km/h | 17143m | 4.2m/s | -53.4°C | 4% | 91.2hPa | 2.7V | 04:06:16 | 01:09:55 | 00:00:00 | |
| DJ2DS-15 | 2026-09-02 05:41:00 | 49.62027 | 8.12054 | 84° | 33km/h | 17165m | 4.6m/s | -53.5°C | 3.9% | 90.9hPa | 2.6V | 00:00:00 | 01:10:00 | 00:00:00 | |
| DL0LBS | 2026-09-02 05:40:58 | 49.62026 | 8.12042 | 86° | 31km/h | 17160m | 3.8m/s | -53.5°C | 1.1% | 91.0hPa | 2.6V | 04:06:00 | 00:00:00 | 00:00:00 | |
| DM0DOS-11 | 2026-09-02 05:40:57 | 49.62021 | 8.11949 | 90° | 35km/h | 17132m | 3.7m/s | -53.4°C | 4% | 91.4hPa | 2.6V | 04:06:19 | 01:09:52 | 00:00:00 | |
| BIOWL1-15 | 2026-09-02 05:40:56 | 49.62023 | 8.12003 | 81° | 35km/h | 17148m | 3.9m/s | -53.4°C | 0.1% | 91.2hPa | 2.7V | 04:06:29 | 01:09:56 | 00:00:00 | |
| DL1XH-west | 2026-09-02 05:40:52 | 49.62021 | 8.11949 | 90° | 35km/h | 17132m | 3.7m/s | -53.4°C | 0.2% | 91.4hPa | 2.6V | 04:06:29 | 01:09:52 | 00:00:00 | |
| DB0ND-19 | 2026-09-02 05:40:52 | 49.62021 | 8.11936 | 88° | 35km/h | 17128m | 4.8m/s | -53.3°C | 1.1% | 91.5hPa | 2.6V | 00:00:00 | 00:00:00 | 00:00:00 | |
| BIOWL9-15 | 2026-09-02 05:40:47 | 49.62022 | 8.11885 | 99° | 27km/h | 17111m | 4.5m/s | -53.2°C | 1.1% | 91.7hPa | 2.6V | 00:00:00 | 00:00:00 | 00:00:00 | |
| DM0DOS-11 | 2026-09-02 05:40:46 | 49.62028 | 8.11829 | 89° | 33km/h | 17091m | 3.2m/s | -53.1°C | 3.7% | 92hPa | 2.6V | 04:06:29 | 01:09:42 | 00:00:00 | |
| BIOWL1-15 | 2026-09-02 05:40:45 | 49.62025 | 8.11864 | 103° | 27km/h | 17103m | 3.7m/s | -53.2°C | 0.2% | 91.8hPa | 2.7V | 04:06:29 | 01:09:45 | 00:00:00 | |
| DL1XH-west | 2026-09-02 05:40:41 | 49.62027 | 8.11816 | 84° | 31km/h | 17087m | 4.7m/s | -53.1°C | 0% | 92hPa | 2.6V | 04:07:20 | 01:09:41 | 00:00:00 | |
| DJ2DS-15 | 2026-09-02 05:40:40 | 49.62026 | 8.11804 | 81° | 31km/h | 17083m | 3.8m/s | -53.0°C | 3.7% | 92.0hPa | 2.6V | 04:06:00 | 01:09:40 | 00:00:00 | |
| AU51GT2 | 2026-09-02 05:40:39 | 49.62025 | 8.11792 | 80° | 29km/h | 17079m | 3.0m/s | -53.0°C | 1.0% | 92.1hPa | 2.6V | 00:00:00 | 00:00:00 | 00:00:00 | |
| DL0LBS | 2026-09-02 05:40:38 | 49.62025 | 8.11792 | 82° | 31km/h | 17080m | 3.0m/s | -53.0°C | 1.1% | 92.1hPa | 2.6V | 04:07:00 | 00:00:00 | 00:00:00 | |
| DM0DOS-11 | 2026-09-02 05:40:36 | 49.62031 | 8.11712 | 113° | 26km/h | 17051m | 3.5m/s | -53°C | 3.9% | 92.5hPa | 2.6V | 04:06:39 | 01:09:32 | 00:00:00 | |
| DL1XH1-15 | 2026-09-02 05:40:36 | 49.62025 | 8.11743 | 102° | 31km/h | 17063m | 3.5m/s | -52.9°C | 3.8% | 92.4hPa | 2.7V | 04:06:36 | 01:09:35 | 00:00:00 | |
| BIOWL1-15 | 2026-09-02 05:40:35 | 49.62025 | 8.11743 | 102° | 31km/h | 17063m | 3.5m/s | -52.9°C | 0.1% | 92.4hPa | 2.7V | 04:07:20 | 01:09:35 | 00:00:00 | |
| DJTTGO | 2026-09-02 05:40:34 | 49.62025 | 8.11742 | 103° | 31km/h | 17064m | 3.5m/s | -52.9°C | 0% | 92.4hPa | 2.6V | 04:07:00 | 00:00:00 | 00:00:00 | |
| DB0UT-9 | 2026-09-02 05:40:33 | 49.62027 | 8.11731 | 108° | 29km/h | 17060m | 4.7m/s | -53.0°C | 1.1% | 92.4hPa | 2.6V | 04:07:00 | 00:00:00 | 00:00:00 | |
| DK5PH-5 | 2026-09-02 05:40:32 | 49.62031 | 8.11712 | 114° | 35km/h | 17051m | 3.4m/s | -52.9°C | 3.9% | 92.5hPa | 2.6V | 00:00:00 | 01:09:32 | 00:00:00 | |
| DL1XH1-15 | 2026-09-02 05:40:30 | 49.62047 | 8.11629 | 97° | 29km/h | 17021m | 4.3m/s | -53.2°C | 3.8% | 93hPa | 2.6V | 04:06:46 | 01:09:25 | 00:00:00 | |
| DL1XH-west | 2026-09-02 05:40:30 | 49.62037 | 8.11692 | 111° | 31km/h | 17043m | 4.7m/s | -53.1°C | 0.2% | 92.7hPa | 2.6V | 04:07:20 | 01:09:30 | 00:00:00 | |
| DO2KSM | 2026-09-02 05:40:29 | 49.62036 | 8.11692 | 111° | 31km/h | 17043m | 4.7m/s | -53.1°C | 1.1% | 92.7hPa | 2.7V | 04:07:00 | 00:00:00 | 00:00:00 | |
| DL1ZP-14 | 2026-09-02 05:40:27 | 49.62044 | 8.11654 | 103° | 33km/h | 17030m | 4.4m/s | -53.1°C | 1.1% | 92.8hPa | 2.7V | 00:00:00 | 00:00:00 | 00:00:00 | |
| DM0DOS-11 | 2026-09-02 05:40:26 | 49.62054 | 8.11584 | 109° | 33km/h | 17004m | 4.6m/s | -53.1°C | 3.8% | 93.2hPa | 2.7V | 04:06:50 | 01:09:21 | 00:00:00 | |
| BIOWL1-15 | 2026-09-02 05:40:24 | 49.62051 | 8.11596 | 104° | 31km/h | 17009m | 5m/s | -53.1°C | 0.2% | 93.1hPa | 2.7V | 04:07:20 | 01:09:22 | 00:00:00 | |
| DK7TD | 2026-09-02 05:40:23 | 49.62050 | 8.11607 | 101° | 29km/h | 17014m | 4.1m/s | -53.1°C | 0% | 0hPa | 2.6V | 18:12:15 | 01:09:23 | 00:00:00 | |
| DL1XH-west | 2026-09-02 05:40:19 | 49.62061 | 8.11559 | 118° | 37km/h | 16996m | 3.8m/s | -53.1°C | 0.2% | 93.3hPa | 2.6V | 04:07:20 | 01:09:19 | 00:00:00 | |
| BIOWL1-15 | 2026-09-02 05:40:18 | 49.62084 | 8.11496 | 119° | 42km/h | 16973m | 4.6m/s | -53.1°C | 0.2% | 93.7hPa | 2.6V | 04:07:20 | 01:09:14 | 00:00:00 | |
| DL0LBS | 2026-09-02 05:40:17 | 49.62065 | 8.11547 | 120° | 35km/h | 16992m | 4.8m/s | -53.0°C | 1.1% | 93.4hPa | 2.7V | 04:07:00 | 00:00:00 | 00:00:00 | |
| DM0DOS-11 | 2026-09-02 05:40:16 | 49.62097 | 8.11453 | 111° | 38km/h | 16960m | 4.3m/s | -53°C | 3.9% | 93.8hPa | 2.7V | 04:07:00 | 01:09:11 | 00:00:00 | |
| DL1XH1-15 | 2026-09-02 05:40:16 | 49.62079 | 8.11510 | 119° | 38km/h | 16978m | 5.3m/s | -53.1°C | 3.8% | 93.6hPa | 2.7V | 04:06:56 | 01:09:15 | 00:00:00 | |
| NBG1-10 | 2026-09-02 05:40:16 | 49.62074 | 8.11523 | 121° | 38km/h | 16983m | 3.9m/s | -53.0°C | 3.8% | 93.4hPa | 2.7V | 00:00:00 | 01:09:16 | 00:00:00 | |
| DL4BBY-15 | 2026-09-02 05:40:15 | 49.62079 | 8.11510 | 120° | 40km/h | 16979m | 5.2m/s | -54.3°C | 0% | 0hPa | 2.6V | 00:00:00 | 00:00:00 | 00:00:00 | |
| DM7RM-13 | 2026-09-02 05:40:14 | 49.62079 | 8.11510 | 121° | 38km/h | 16979m | 5.3m/s | -53.1°C | 1.1% | 93.6hPa | 2.6V | 04:07:00 | 00:00:00 | 00:00:00 | |
| HTAHTA | 2026-09-02 05:40:13 | 49.62089 | 8.11482 | 115° | 42km/h | 16969m | 3.5m/s | -53.0°C | 1.1% | 93.7hPa | 2.6V | 00:00:00 | 00:00:00 | 00:00:00 | |
| DO3MHA-11 | 2026-09-02 05:40:12 | 49.62093 | 8.11467 | 114° | 40km/h | 16965m | 4.9m/s | -53.0°C | 3.8% | 93.7hPa | 2.6V | 00:00:00 | 01:09:12 | 00:00:00 | |
| DL1XH1-15 | 2026-09-02 05:40:10 | 49.62123 | 8.11370 | 118° | 37km/h | 16934m | 4.4m/s | -52.9°C | 3.8% | 94.2hPa | 2.7V | 04:07:06 | 01:09:05 | 00:00:00 | |
| DL1XH-west | 2026-09-02 05:40:09 | 49.62105 | 8.11425 | 115° | 40km/h | 16952m | 5m/s | -53°C | 0.2% | 94hPa | 2.6V | 04:07:20 | 01:09:09 | 00:00:00 | |
| AU51GT2 | 2026-09-02 05:40:08 | 49.62109 | 8.11411 | 116° | 40km/h | 16947m | 4.2m/s | -52.9°C | 1.1% | 94.1hPa | 2.6V | 00:00:00 | 00:00:00 | 00:00:00 | |
| DM0DOS-11 | 2026-09-02 05:40:06 | 49.62143 | 8.11316 | 116° | 42km/h | 16917m | 4.2m/s | -52.9°C | 3.8% | 94.5hPa | 2.6V | 04:07:10 | 01:09:01 | 00:00:00 | |
| BIOWL1-15 | 2026-09-02 05:40:06 | 49.62128 | 8.11358 | 119° | 38km/h | 16930m | 3.9m/s | -52.9°C | 0.2% | 94.3hPa | 2.7V | 04:07:20 | 01:09:04 | 00:00:00 | |
| DL1XH-west | 2026-09-02 05:39:59 | 49.62151 | 8.11287 | 109° | 40km/h | 16908m | 3.8m/s | -52.9°C | 0.2% | 94.6hPa | 2.7V | 04:07:20 | 01:08:59 | 00:00:00 | |
| DK7TD | 2026-09-02 05:39:58 | 49.62154 | 8.11273 | 106° | 40km/h | 16904m | 3.5m/s | -52.8°C | 0% | 0hPa | 2.7V | 18:12:15 | 01:08:58 | 00:00:00 | |
| DL1ZP-14 | 2026-09-02 05:39:56 | 49.62162 | 8.11227 | 104° | 38km/h | 16891m | 3.8m/s | -52.8°C | 1.1% | 94.9hPa | 2.6V | 00:00:00 | 00:00:00 | 00:00:00 | |
| DL1XH1-15 | 2026-09-02 05:39:55 | 49.62162 | 8.11227 | 104° | 40km/h | 16891m | 3.8m/s | -52.8°C | 3.8% | 94.9hPa | 2.6V | 04:07:16 | 01:08:55 | 00:00:00 | |
| BIOWL1-15 | 2026-09-02 05:39:54 | 49.62165 | 8.11213 | 104° | 37km/h | 16887m | 5.1m/s | -52.9°C | 0.1% | 94.9hPa | 2.6V | 04:07:20 | 01:08:54 | 00:00:00 | |
| DM3KS-11 | 2026-09-02 05:39:53 | 49.62167 | 8.11199 | 105° | 35km/h | 16882m | 4.2m/s | -52.9°C | 1.0% | 95.0hPa | 2.7V | 00:00:00 | 00:00:00 | 00:00:00 | |
| DM0DOS-11 | 2026-09-02 05:39:52 | 49.62185 | 8.11116 | 105° | 38km/h | 16856m | 3.8m/s | -53°C | 3.8% | 95.4hPa | 2.7V | 04:07:24 | 01:08:47 | 00:00:00 | |
| DL1XH-west | 2026-09-02 05:39:49 | 49.62179 | 8.11144 | 109° | 38km/h | 16865m | 4.1m/s | -53°C | 0.1% | 95.2hPa | 2.6V | 04:08:11 | 01:08:49 | 00:00:00 | |
| DK7TD | 2026-09-02 05:39:47 | 49.62184 | 8.11116 | 106° | 38km/h | 16856m | 3.8m/s | 0°C | 0% | 0hPa | 2.7V | 18:12:15 | 01:08:47 | 00:00:00 | |
| BIOWL9-15 | 2026-09-02 05:39:45 | 49.62190 | 8.11087 | 106° | 38km/h | 16848m | 4.5m/s | -53.0°C | 1.1% | 95.5hPa | 2.6V | 00:00:00 | 00:00:00 | 00:00:00 | |
| DL1XH1-15 | 2026-09-02 05:39:45 | 49.62190 | 8.11087 | 106° | 40km/h | 16848m | 4.5m/s | -53°C | 3.8% | 95.5hPa | 2.6V | 04:07:26 | 01:08:45 | 00:00:00 | |
| BIOWL1-15 | 2026-09-02 05:39:43 | 49.62195 | 8.11057 | 101° | 38km/h | 16839m | 4.8m/s | -53°C | 0.2% | 95.6hPa | 2.6V | 04:08:11 | 01:08:43 | 00:00:00 | |
| NBG1-10 | 2026-09-02 05:39:43 | 49.62195 | 8.11057 | 101° | 44km/h | 16840m | 4.8m/s | -53.0°C | 3.8% | 95.6hPa | 2.7V | 00:00:00 | 01:08:43 | 00:00:00 | |
| DM0DOS-11 | 2026-09-02 05:39:42 | 49.62201 | 8.10963 | 97° | 42km/h | 16814m | 3.9m/s | -53°C | 3.9% | 96hPa | 2.7V | 04:07:34 | 01:08:37 | 00:00:00 | |
| DL1XH-west | 2026-09-02 05:39:38 | 49.62200 | 8.10979 | 98° | 44km/h | 16818m | 3.6m/s | -53°C | 0.2% | 95.9hPa | 2.6V | 04:08:11 | 01:08:38 | 00:00:00 | |
| BIOWL1-15 | 2026-09-02 05:39:33 | 49.62206 | 8.10896 | 97° | 47km/h | 16798m | 5.1m/s | -52.9°C | 0.2% | 96.2hPa | 2.6V | 04:08:11 | 01:08:33 | 00:00:00 | |
| DK5PH-5 | 2026-09-02 05:39:32 | 49.62208 | 8.10878 | 98° | 46km/h | 16794m | 3.9m/s | -52.9°C | 3.8% | 96.3hPa | 2.7V | 00:00:00 | 01:08:32 | 00:00:00 | |
| DL1XH1-15 | 2026-09-02 05:39:30 | 49.62218 | 8.10752 | 96° | 44km/h | 16763m | 4.5m/s | -52.8°C | 3.8% | 96.7hPa | 2.7V | 04:07:46 | 01:08:25 | 00:00:00 | |
| DL1XH-west | 2026-09-02 05:39:28 | 49.62214 | 8.10805 | 98° | 46km/h | 16777m | 4.4m/s | -52.9°C | 0.2% | 96.5hPa | 2.6V | 04:08:11 | 01:08:28 | 00:00:00 | |
| DK7TD | 2026-09-02 05:39:25 | 49.62219 | 8.10752 | 97° | 44km/h | 16763m | 4.5m/s | 0°C | 0% | 0hPa | 2.7V | 18:12:15 | 01:08:25 | 00:00:00 | |
| BIOWL1-15 | 2026-09-02 05:39:22 | 49.62223 | 8.10669 | 96° | 46km/h | 16742m | 4.1m/s | -52.7°C | 0.2% | 97.1hPa | 2.6V | 04:08:11 | 01:08:20 | 00:00:00 | |
| DL1XH-west | 2026-09-02 05:39:18 | 49.62226 | 8.10634 | 101° | 44km/h | 16733m | 4.6m/s | -52.7°C | 0.2% | 97.2hPa | 2.7V | 04:08:11 | 01:08:18 | 00:00:00 | |
| DK7TD | 2026-09-02 05:39:14 | 49.62237 | 8.10565 | 104° | 46km/h | 16716m | 3.2m/s | 0°C | 0% | 0hPa | 2.6V | 18:12:15 | 01:08:14 | 00:00:00 | |
| DN1GJH-1 | 2026-09-02 05:39:13 | 49.62237 | 8.10565 | 105° | 46km/h | 16716m | 3.2m/s | -52.6°C | 1.1% | 97.5hPa | 2.7V | 04:08:00 | 00:00:00 | 00:00:00 | |
| DM0DOS-11 | 2026-09-02 05:39:12 | 49.62249 | 8.10448 | 99° | 46km/h | 16686m | 4.8m/s | -52.8°C | 3.9% | 97.9hPa | 2.7V | 04:08:04 | 01:08:07 | 00:00:00 | |
| BIOWL1-15 | 2026-09-02 05:39:12 | 49.62242 | 8.10532 | 100° | 42km/h | 16707m | 4.1m/s | -52.7°C | 0.2% | 97.6hPa | 2.7V | 04:08:11 | 01:08:12 | 00:00:00 | |
| DL1XH-west | 2026-09-02 05:39:07 | 49.62249 | 8.10448 | 99° | 46km/h | 16686m | 4.8m/s | -52.8°C | 0.3% | 97.9hPa | 2.7V | 04:08:11 | 01:08:07 | 00:00:00 | |
| DL1XH1-15 | 2026-09-02 05:39:05 | 49.62268 | 8.10341 | 110° | 47km/h | 16659m | 4.8m/s | -52.7°C | 3.9% | 98.3hPa | 2.7V | 04:08:10 | 01:08:01 | 00:00:00 | |
| DF7PN | 2026-09-02 05:39:03 | 49.62260 | 8.10377 | 107° | 49km/h | 16668m | 4.3m/s | -52.8°C | 1.1% | 98.2hPa | 2.7V | 00:00:00 | 00:00:00 | 00:00:00 | |
| DM0DOS-11 | 2026-09-02 05:39:02 | 49.62285 | 8.10270 | 108° | 51km/h | 16642m | 4.4m/s | -52.9°C | 3.8% | 98.5hPa | 2.7V | 04:08:14 | 01:07:57 | 00:00:00 | |
| BIOWL1-15 | 2026-09-02 05:39:02 | 49.62264 | 8.10359 | 109° | 49km/h | 16664m | 4.1m/s | -52.7°C | 0.2% | 98.2hPa | 2.7V | 04:08:11 | 01:08:02 | 00:00:00 | |
| DL1XH-west | 2026-09-02 05:38:56 | 49.62290 | 8.10251 | 108° | 51km/h | 16638m | 4.4m/s | -52.9°C | 0.3% | 98.6hPa | 2.7V | 04:09:02 | 01:07:56 | 00:00:00 | |
| DL1XH1-15 | 2026-09-02 05:38:55 | 49.62309 | 8.10161 | 105° | 49km/h | 16616m | 5.1m/s | -53°C | 3.9% | 99hPa | 2.7V | 04:08:20 | 01:07:51 | 00:00:00 | |
| DJ2DS-15 | 2026-09-02 05:38:54 | 49.62302 | 8.10197 | 108° | 46km/h | 16625m | 3.7m/s | -53.0°C | 1.1% | 98.8hPa | 2.6V | 00:00:00 | 00:00:00 | 00:00:00 | |
| DF1GD-15 | 2026-09-02 05:38:53 | 49.62298 | 8.10214 | 110° | 47km/h | 16629m | 4.6m/s | -53.0°C | 1.2% | 98.8hPa | 2.6V | 04:09:00 | 00:00:00 | 00:00:00 | |
| DO3MHA-11 | 2026-09-02 05:38:52 | 49.62305 | 8.10179 | 108° | 49km/h | 16621m | 4.3m/s | -53.0°C | 3.9% | 98.8hPa | 2.6V | 04:08:00 | 01:07:52 | 00:00:00 | |
| DM0DOS-11 | 2026-09-02 05:38:51 | 49.62320 | 8.10088 | 102° | 47km/h | 16598m | 3.8m/s | -53.1°C | 4% | 99.2hPa | 2.6V | 04:08:24 | 01:07:47 | 00:00:00 | |
| BIOWL1-15 | 2026-09-02 05:38:51 | 49.62309 | 8.10161 | 106° | 49km/h | 16616m | 5.1m/s | -53°C | 0.3% | 99hPa | 2.7V | 04:09:02 | 01:07:51 | 00:00:00 | |
| DB0UT-9 | 2026-09-02 05:38:50 | 49.62309 | 8.10161 | 107° | 49km/h | 16616m | 5.1m/s | -53.0°C | 1.2% | 99.0hPa | 2.6V | 04:09:00 | 00:00:00 | 00:00:00 | |
| DJ2KF-10 | 2026-09-02 05:38:49 | 49.62315 | 8.10124 | 104° | 49km/h | 16607m | 5.2m/s | -53.1°C | 4.0% | 99.1hPa | 2.6V | 00:00:00 | 01:07:49 | 00:00:00 | |
| DJTTGO | 2026-09-02 05:38:48 | 49.62318 | 8.10106 | 104° | 47km/h | 16602m | 4.0m/s | 0°C | 0% | 99.2hPa | 2.6V | 04:09:00 | 00:00:00 | 00:00:00 | |
| DH7VM-15 | 2026-09-02 05:38:47 | 49.62318 | 8.10106 | 104° | 47km/h | 16602m | 4.0m/s | -53.1°C | 1.2% | 99.2hPa | 2.6V | 00:00:00 | 00:00:00 | 00:00:00 | |
| DL1XH1-15 | 2026-09-02 05:38:45 | 49.62337 | 8.09971 | 104° | 49km/h | 16573m | 4.1m/s | -53°C | 4% | 99.6hPa | 2.6V | 04:08:30 | 01:07:41 | 00:00:00 | |
| DL1XH-west | 2026-09-02 05:38:45 | 49.62325 | 8.10050 | 101° | 53km/h | 16588m | 4.8m/s | -53.1°C | 0.4% | 99.4hPa | 2.7V | 04:09:02 | 01:07:45 | 00:00:00 | |
| BIOWL1-15 | 2026-09-02 05:38:43 | 49.62337 | 8.09971 | 104° | 49km/h | 16573m | 4.1m/s | -53.1°C | 0.4% | 99.6hPa | 2.6V | 04:09:02 | 01:07:41 | 00:00:00 | |
| DM0DOS-11 | 2026-09-02 05:38:42 | 49.62350 | 8.09895 | 105° | 49km/h | 16556m | 4.4m/s | -53°C | 4% | 99.9hPa | 2.7V | 04:08:34 | 01:07:37 | 00:00:00 | |
| DO3MHA-11 | 2026-09-02 05:38:42 | 49.62334 | 8.09990 | 104° | 49km/h | 16577m | 4.6m/s | -53.1°C | 4.0% | 99.6hPa | 2.6V | 00:00:00 | 01:07:42 | 00:00:00 | |
| DJ2DS-15 | 2026-09-02 05:38:40 | 49.62340 | 8.09952 | 106° | 49km/h | 16569m | 4.1m/s | -53.0°C | 4.0% | 99.7hPa | 2.7V | 00:00:00 | 01:07:40 | 00:00:00 | |
| DD1CC8 | 2026-09-02 05:38:39 | 49.62344 | 8.09933 | 104° | 51km/h | 16564m | 4.7m/s | -53.0°C | 1.2% | 99.8hPa | 2.7V | 00:00:00 | 00:00:00 | 00:00:00 | |
| NBG1-10 | 2026-09-02 05:38:37 | 49.62350 | 8.09895 | 106° | 49km/h | 16556m | 4.4m/s | -53.0°C | 4.0% | 99.8hPa | 2.7V | 04:08:00 | 01:07:37 | 00:00:00 | |
| DL1XH1-15 | 2026-09-02 05:38:35 | 49.62369 | 8.09787 | 104° | 49km/h | 16531m | 4.2m/s | -53°C | 4% | 100.3hPa | 2.6V | 04:08:40 | 01:07:31 | 00:00:00 | |
| DL1XH-west | 2026-09-02 05:38:35 | 49.62356 | 8.09860 | 106° | 46km/h | 16547m | 3.5m/s | -53°C | 0.4% | 100hPa | 2.6V | 04:09:02 | 01:07:35 | 00:00:00 | |
| DL0LBS | 2026-09-02 05:38:34 | 49.62356 | 8.09860 | 107° | 46km/h | 16548m | 3.5m/s | -53.0°C | 1.2% | 100.0hPa | 2.7V | 04:09:00 | 00:00:00 | 00:00:00 | |
| DF1GD-15 | 2026-09-02 05:38:33 | 49.62363 | 8.09825 | 105° | 49km/h | 16539m | 4.6m/s | -53.0°C | 1.2% | 100.2hPa | 2.7V | 04:09:00 | 00:00:00 | 00:00:00 | |
| DM0DOS-11 | 2026-09-02 05:38:32 | 49.62381 | 8.09713 | 102° | 49km/h | 16513m | 4.9m/s | -53.1°C | 3.9% | 100.6hPa | 2.7V | 04:08:44 | 01:07:27 | 00:00:00 | |
| BIOWL1-15 | 2026-09-02 05:38:31 | 49.62369 | 8.09787 | 105° | 49km/h | 16531m | 4.2m/s | -53°C | 0.4% | 100.3hPa | 2.6V | 04:09:02 | 01:07:31 | 00:00:00 | |
| HEMX73-11 | 2026-09-02 05:38:30 | 49.62369 | 8.09787 | 105° | 49km/h | 16531m | 4.2m/s | -53.0°C | 1.2% | 100.3hPa | 2.7V | 04:09:00 | 00:00:00 | 00:00:00 | |
| DL8DAS-15 | 2026-09-02 05:38:29 | 49.62372 | 8.09768 | 106° | 49km/h | 16526m | 4.8m/s | -53.0°C | 1.2% | 100.4hPa | 2.7V | 00:00:00 | 00:00:00 | 00:00:00 | |
| DL8DAS-14 | 2026-09-02 05:38:27 | 49.62381 | 8.09713 | 102° | 49km/h | 16513m | 4.9m/s | -53.1°C | 1.2% | 100.6hPa | 2.7V | 00:00:00 | 00:00:00 | 00:00:00 | |
| DL1XH1-15 | 2026-09-02 05:38:25 | 49.62401 | 8.09607 | 109° | 49km/h | 16485m | 4.4m/s | -53.1°C | 4% | 101hPa | 2.7V | 04:08:50 | 01:07:21 | 00:00:00 | |
| DL1XH-west | 2026-09-02 05:38:25 | 49.62387 | 8.09677 | 105° | 47km/h | 16503m | 5.4m/s | -53.2°C | 0.4% | 100.7hPa | 2.6V | 04:09:02 | 01:07:25 | 00:00:00 | |
| DL1ZP-14 | 2026-09-02 05:38:23 | 49.62397 | 8.09625 | 109° | 46km/h | 16490m | 5.0m/s | -53.2°C | 1.2% | 100.9hPa | 2.7V | 00:00:00 | 00:00:00 | 00:00:00 | |
| DM0DOS-11 | 2026-09-02 05:38:22 | 49.62421 | 8.09534 | 111° | 51km/h | 16469m | 3.5m/s | -53.1°C | 4% | 101.3hPa | 2.7V | 04:08:54 | 01:07:17 | 00:00:00 | |
| BIOWL1-15 | 2026-09-02 05:38:21 | 49.62401 | 8.09607 | 110° | 49km/h | 16485m | 4.4m/s | -53.1°C | 0.4% | 101hPa | 2.7V | 04:09:02 | 01:07:21 | 00:00:00 | |
| DL1XH-west | 2026-09-02 05:38:14 | 49.62434 | 8.09475 | 107° | 53km/h | 16456m | 4.1m/s | -53.1°C | 0.4% | 101.5hPa | 2.6V | 04:09:02 | 01:07:14 | 00:00:00 | |
| BIOWL1-15 | 2026-09-02 05:38:10 | 49.62449 | 8.09400 | 108° | 51km/h | 16439m | 4.6m/s | -53.1°C | 0.4% | 101.7hPa | 2.7V | 04:09:02 | 01:07:10 | 00:00:00 | |
| DL1XH-west | 2026-09-02 05:38:03 | 49.62483 | 8.09271 | 110° | 53km/h | 16410m | 3.7m/s | -53.2°C | 0.4% | 102.2hPa | 2.6V | 04:09:53 | 01:07:03 | 00:00:00 | |
| DL1XH1-15 | 2026-09-02 05:38:02 | 49.62513 | 8.09147 | 110° | 60km/h | 16384m | 3.5m/s | -53.2°C | 4% | 102.6hPa | 2.6V | 04:09:14 | 01:06:57 | 00:00:00 | |
| BIOWL1-15 | 2026-09-02 05:38:00 | 49.62498 | 8.09212 | 110° | 57km/h | 16397m | 4.1m/s | -53.2°C | 0.5% | 102.4hPa | 2.7V | 04:09:53 | 01:07:00 | 00:00:00 | |
| DL1XH-west | 2026-09-02 05:37:52 | 49.62543 | 8.09044 | 115° | 57km/h | 16363m | 4.4m/s | -53.2°C | 0.5% | 102.9hPa | 2.6V | 04:09:53 | 01:06:52 | 00:00:00 | |
| BIOWL1-15 | 2026-09-02 05:37:52 | 49.62555 | 8.09005 | 115° | 55km/h | 16354m | 4.4m/s | -53.2°C | 0.4% | 103.1hPa | 2.6V | 04:09:53 | 01:06:50 | 00:00:00 | |
| DL9PN | 2026-09-02 05:37:50 | 49.62555 | 8.09005 | 115° | 55km/h | 16355m | 4.4m/s | -53.2°C | 1.2% | 103.1hPa | 2.7V | 00:00:00 | 00:00:00 | 00:00:00 | |
| DJ2KF-10 | 2026-09-02 05:37:49 | 49.62561 | 8.08986 | 117° | 60km/h | 16350m | 4.3m/s | -53.1°C | 4.0% | 103.1hPa | 2.7V | 04:09:00 | 01:06:49 | 00:00:00 | |
| DB0UT-9 | 2026-09-02 05:37:48 | 49.62561 | 8.08986 | 117° | 55km/h | 16350m | 4.3m/s | -53.2°C | 1.3% | 103.1hPa | 2.7V | 04:09:00 | 00:00:00 | 00:00:00 | |
| BIOWL7-15 | 2026-09-02 05:37:46 | 49.62572 | 8.08947 | 112° | 53km/h | 16342m | 4.4m/s | -53.2°C | 1.3% | 103.3hPa | 2.7V | 04:09:00 | 00:00:00 | 00:00:00 | |
| DL1XH1-15 | 2026-09-02 05:37:45 | 49.62594 | 8.08845 | 110° | 57km/h | 16321m | 3.7m/s | -53.1°C | 4% | 103.6hPa | 2.7V | 04:09:29 | 01:06:42 | 00:00:00 | |
| DL1XH-west | 2026-09-02 05:37:41 | 49.62599 | 8.08824 | 111° | 58km/h | 16317m | 3.1m/s | -53.1°C | 0.5% | 103.7hPa | 2.6V | 04:09:53 | 01:06:41 | 00:00:00 | |
| BIOWL1-15 | 2026-09-02 05:37:39 | 49.62609 | 8.08781 | 108° | 60km/h | 16309m | 4.3m/s | -53.1°C | 0.4% | 103.8hPa | 2.6V | 04:09:53 | 01:06:39 | 00:00:00 | |
| CB1BUN | 2026-09-02 05:37:38 | 49.62609 | 8.08781 | 109° | 60km/h | 16309m | 4.3m/s | -53.1°C | 1.2% | 103.8hPa | 2.7V | 04:09:00 | 00:00:00 | 00:00:00 | |
| DL1XH1-15 | 2026-09-02 05:37:35 | 49.62639 | 8.08630 | 103° | 58km/h | 16280m | 3.6m/s | -53.2°C | 4% | 104.3hPa | 2.7V | 04:09:39 | 01:06:32 | 00:00:00 | |
| DL1XH-west | 2026-09-02 05:37:30 | 49.62647 | 8.08586 | 107° | 58km/h | 16272m | 4.1m/s | -53.3°C | 0.4% | 104.4hPa | 2.6V | 04:09:53 | 01:06:30 | 00:00:00 | |
| BIOWL1-15 | 2026-09-02 05:37:29 | 49.62651 | 8.08564 | 108° | 58km/h | 16268m | 3.6m/s | -53.3°C | 0.4% | 104.5hPa | 2.6V | 04:09:53 | 01:06:29 | 00:00:00 | |
| HEMX73-11 | 2026-09-02 05:37:28 | 49.62651 | 8.08564 | 109° | 58km/h | 16268m | 3.6m/s | -53.3°C | 1.2% | 104.5hPa | 2.6V | 04:09:00 | 00:00:00 | 00:00:00 | |
| DB0UT-9 | 2026-09-02 05:37:27 | 49.62656 | 8.08542 | 109° | 60km/h | 16264m | 4.0m/s | -53.3°C | 1.3% | 104.6hPa | 2.6V | 04:09:00 | 00:00:00 | 00:00:00 | |
| DM0DOS-11 | 2026-09-02 05:37:26 | 49.62671 | 8.08470 | 107° | 66km/h | 16251m | 4.3m/s | -53.3°C | 4.1% | 104.7hPa | 2.6V | 04:09:46 | 01:06:25 | 00:00:00 | |
| DL8DAS-14 | 2026-09-02 05:37:25 | 49.62670 | 8.08470 | 107° | 66km/h | 16251m | 4.3m/s | -53.3°C | 1.2% | 104.8hPa | 2.6V | 00:00:00 | 00:00:00 | 00:00:00 | |
| DL1XH1-15 | 2026-09-02 05:37:24 | 49.62696 | 8.08320 | 104° | 66km/h | 16225m | 4.9m/s | -53.3°C | 4.1% | 105.2hPa | 2.6V | 04:09:52 | 01:06:19 | 00:00:00 | |
| DL1XH-west | 2026-09-02 05:37:20 | 49.62693 | 8.08346 | 103° | 68km/h | 16230m | 3.8m/s | -53.3°C | 0.4% | 105.1hPa | 2.7V | 04:09:53 | 01:06:20 | 00:00:00 | |
| BIOWL1-15 | 2026-09-02 05:37:18 | 49.62701 | 8.08295 | 105° | 66km/h | 16221m | 3.9m/s | -53.3°C | 0.4% | 105.2hPa | 2.6V | 04:09:53 | 01:06:18 | 00:00:00 | |
| DM3KS-11 | 2026-09-02 05:37:18 | 49.62701 | 8.08295 | 104° | 66km/h | 16221m | 3.9m/s | -53.3°C | 1.2% | 105.2hPa | 2.7V | 00:00:00 | 00:00:00 | 00:00:00 | |
| CB1BUN | 2026-09-02 05:37:17 | 49.62701 | 8.08295 | 106° | 66km/h | 16221m | 3.9m/s | -53.3°C | 1.2% | 105.2hPa | 2.7V | 04:09:00 | 00:00:00 | 00:00:00 | |
| DM0DOS-11 | 2026-09-02 05:37:16 | 49.62735 | 8.08093 | 105° | 66km/h | 16189m | 4.5m/s | -53.2°C | 4.1% | 105.7hPa | 2.7V | 04:10:01 | 01:06:10 | 00:00:00 | |
| DL1XH1-15 | 2026-09-02 05:37:14 | 49.62740 | 8.08068 | 103° | 66km/h | 16184m | 4.3m/s | -53.2°C | 4% | 105.8hPa | 2.7V | 04:10:02 | 01:06:09 | 00:00:00 | |
| DL1XH-west | 2026-09-02 05:37:09 | 49.62740 | 8.08068 | 104° | 66km/h | 16184m | 4.3m/s | -53.2°C | 0.4% | 105.8hPa | 2.7V | 04:10:44 | 01:06:09 | 00:00:00 | |
| BIOWL1-15 | 2026-09-02 05:37:08 | 49.62743 | 8.08043 | 103° | 66km/h | 16180m | 4.1m/s | -53.2°C | 0.4% | 105.9hPa | 2.6V | 04:10:44 | 01:06:08 | 00:00:00 | |
| HTAHTA | 2026-09-02 05:37:07 | 49.62751 | 8.07993 | 103° | 64km/h | 16171m | 4.0m/s | -53.2°C | 1.2% | -1.0hPa | 2.7V | 00:00:00 | 00:00:00 | 00:00:00 | |
| DD1CC8 | 2026-09-02 05:37:06 | 49.62754 | 8.07968 | 102° | 64km/h | 16167m | 3.6m/s | -53.1°C | 1.2% | 106.1hPa | 2.7V | 00:00:00 | 00:00:00 | 00:00:00 | |
| DJ2DS-15 | 2026-09-02 05:37:05 | 49.62754 | 8.07968 | 102° | 64km/h | 16167m | 3.6m/s | -53.1°C | 1.2% | 106.1hPa | 2.7V | 00:00:00 | 00:00:00 | 00:00:00 | |
| DL1XH1-15 | 2026-09-02 05:37:04 | 49.62776 | 8.07819 | 105° | 62km/h | 16143m | 3.9m/s | -53°C | 4% | 106.5hPa | 2.7V | 04:10:12 | 01:05:59 | 00:00:00 | |
| BIOWL1-15 | 2026-09-02 05:36:59 | 49.62783 | 8.07773 | 103° | 58km/h | 16134m | 3.9m/s | -52.9°C | 0.4% | 106.7hPa | 2.6V | 04:10:44 | 01:05:57 | 00:00:00 | |
| DL1XH-west | 2026-09-02 05:36:58 | 49.62780 | 8.07796 | 105° | 60km/h | 16139m | 4.6m/s | -53°C | 0.4% | 106.6hPa | 2.7V | 04:10:44 | 01:05:58 | 00:00:00 | |
| NBG1-10 | 2026-09-02 05:36:58 | 49.62780 | 8.07796 | 105° | 57km/h | 16139m | 4.6m/s | -52.9°C | 4.0% | 106.6hPa | 2.7V | 00:00:00 | 01:05:58 | 00:00:00 | |
| DM0DOS-11 | 2026-09-02 05:36:56 | 49.62798 | 8.07665 | 97° | 58km/h | 16114m | 4.5m/s | -52.8°C | 3.9% | 107hPa | 2.6V | 04:10:19 | 01:05:52 | 00:00:00 | |
| DL8DAS-14 | 2026-09-02 05:36:54 | 49.62793 | 8.07708 | 102° | 55km/h | 16122m | 4.2m/s | -52.9°C | 1.2% | 106.9hPa | 2.6V | 00:00:00 | 00:00:00 | 00:00:00 | |
| DO3MHA-11 | 2026-09-02 05:36:52 | 49.62798 | 8.07665 | 98° | 62km/h | 16114m | 4.5m/s | -52.7°C | 3.9% | 107.0hPa | 2.6V | 00:00:00 | 01:05:52 | 00:00:00 | |
| DF1GD-15 | 2026-09-02 05:36:50 | 49.62801 | 8.07618 | 96° | 64km/h | 16106m | 3.7m/s | -52.8°C | 1.2% | 107.1hPa | 2.6V | 04:10:00 | 00:00:00 | 00:00:00 | |
| DL1NUX | 2026-09-02 05:36:49 | 49.62815 | 8.07471 | 98° | 62km/h | 16081m | 3.8m/s | -52.6°C | 0% | 107.5hPa | 2.6V | 04:10:27 | 01:05:44 | 00:00:00 | |
| DL1XH-west | 2026-09-02 05:36:47 | 49.62808 | 8.07543 | 100° | 64km/h | 16094m | 3.8m/s | -52.6°C | 0.3% | 107.3hPa | 2.7V | 04:10:44 | 01:05:47 | 00:00:00 | |
| DM3KS-11 | 2026-09-02 05:36:47 | 49.62811 | 8.07519 | 100° | 62km/h | 16090m | 3.8m/s | -52.6°C | 1.2% | 107.4hPa | 2.6V | 00:00:00 | 00:00:00 | 00:00:00 | |
| DL1XH1-15 | 2026-09-02 05:36:46 | 49.62813 | 8.07495 | 98° | 62km/h | 16086m | 4.6m/s | -52.6°C | 3.9% | 107.5hPa | 2.6V | 04:10:26 | 01:05:45 | 00:00:00 | |
| BIOWL1-15 | 2026-09-02 05:36:46 | 49.62811 | 8.07519 | 100° | 64km/h | 16090m | 3.8m/s | -52.6°C | 0.3% | 107.4hPa | 2.6V | 04:10:44 | 01:05:46 | 00:00:00 | |
| DK7TD | 2026-09-02 05:36:41 | 49.62823 | 8.07404 | 102° | 55km/h | 16069m | 3.6m/s | 0°C | 0% | 0hPa | 2.6V | 04:10:44 | 01:05:41 | 00:00:00 | |
| DL1XH1-15 | 2026-09-02 05:36:40 | 49.62836 | 8.07280 | 101° | 57km/h | 16044m | 3.7m/s | -52.5°C | 3.8% | 108.2hPa | 2.6V | 04:10:36 | 01:05:35 | 00:00:00 | |
| DL1XH-west | 2026-09-02 05:36:36 | 49.62833 | 8.07302 | 100° | 55km/h | 16049m | 4.8m/s | -52.5°C | 0.3% | 108.1hPa | 2.7V | 04:10:44 | 01:05:36 | 00:00:00 | |
| DM0DOS-11 | 2026-09-02 05:36:36 | 49.62844 | 8.07215 | 101° | 58km/h | 16032m | 3.1m/s | -52.5°C | 3.8% | 108.3hPa | 2.8V | 04:10:39 | 01:05:32 | 00:00:00 | |
| BIOWL1-15 | 2026-09-02 05:36:35 | 49.62836 | 8.07280 | 101° | 57km/h | 16044m | 3.7m/s | -52.5°C | 0.2% | 108.2hPa | 2.6V | 04:10:44 | 01:05:35 | 00:00:00 | |
| DL8DAS-15 | 2026-09-02 05:36:34 | 49.62836 | 8.07280 | 102° | 57km/h | 16045m | 3.7m/s | -52.5°C | 1.2% | 108.2hPa | 2.7V | 00:00:00 | 00:00:00 | 00:00:00 | |
| DK5PH-5 | 2026-09-02 05:36:32 | 49.62844 | 8.07215 | 102° | 53km/h | 16033m | 3.1m/s | -52.4°C | 3.8% | 108.3hPa | 2.7V | 00:00:00 | 01:05:32 | 00:00:00 | |
| DL0LBS | 2026-09-02 05:36:31 | 49.62844 | 8.07215 | 102° | 58km/h | 16033m | 3.1m/s | -52.5°C | 1.2% | 108.3hPa | 2.7V | 04:10:00 | 00:00:00 | 00:00:00 | |
| DL1XH1-15 | 2026-09-02 05:36:30 | 49.62864 | 8.07074 | 94° | 49km/h | 16005m | 3.9m/s | -52.5°C | 3.9% | 108.8hPa | 2.7V | 04:10:46 | 01:05:25 | 00:00:00 | |
| DK7TD | 2026-09-02 05:36:27 | 49.62861 | 8.07112 | 100° | 49km/h | 16013m | 4.2m/s | 0°C | 0% | 0hPa | 2.8V | 04:10:44 | 01:05:27 | 00:00:00 | |
| BIOWL1-15 | 2026-09-02 05:36:27 | 49.62863 | 8.07074 | 95° | 49km/h | 16005m | 3.9m/s | -52.5°C | 0.3% | 108.8hPa | 2.7V | 04:11:35 | 01:05:25 | 00:00:00 | |
| DM0DOS-11 | 2026-09-02 05:36:26 | 49.62868 | 8.07015 | 99° | 51km/h | 15993m | 3.9m/s | -52.5°C | 4% | 109hPa | 2.6V | 04:10:49 | 01:05:22 | 00:00:00 | |
| DL1XH-west | 2026-09-02 05:36:26 | 49.62862 | 8.07093 | 96° | 49km/h | 16009m | 3.8m/s | -52.5°C | 0.2% | 108.8hPa | 2.8V | 04:11:35 | 01:05:26 | 00:00:00 | |
| HEMX73-11 | 2026-09-02 05:36:25 | 49.62862 | 8.07093 | 97° | 49km/h | 16009m | 3.8m/s | -52.5°C | 1.1% | 108.7hPa | 2.6V | 04:11:00 | 00:00:00 | 00:00:00 | |
| NBG1-10 | 2026-09-02 05:36:24 | 49.62864 | 8.07054 | 96° | 55km/h | 16001m | 3.9m/s | -52.5°C | 3.9% | 108.9hPa | 2.6V | 00:00:00 | 01:05:24 | 00:00:00 | |
| DL1NUX | 2026-09-02 05:36:23 | 49.62878 | 8.06940 | 103° | 49km/h | 15978m | 4m/s | -52.5°C | 0% | 109.3hPa | 2.6V | 04:10:53 | 01:05:18 | 00:00:00 | |
| DO3MHA-11 | 2026-09-02 05:36:22 | 49.62868 | 8.07015 | 100° | 51km/h | 15994m | 3.8m/s | -52.5°C | 4.0% | 109.0hPa | 2.7V | 04:10:00 | 01:05:22 | 00:00:00 | |
| DL1XH1-15 | 2026-09-02 05:36:20 | 49.62887 | 8.06880 | 101° | 53km/h | 15965m | 4.8m/s | -52.5°C | 3.8% | 109.5hPa | 2.7V | 04:10:56 | 01:05:15 | 00:00:00 | |
| DJ2DS-15 | 2026-09-02 05:36:20 | 49.62873 | 8.06977 | 103° | 55km/h | 15986m | 4.1m/s | -52.5°C | 4.0% | 109.1hPa | 2.7V | 00:00:00 | 01:05:20 | 00:00:00 | |
| DJ2KF-10 | 2026-09-02 05:36:19 | 49.62875 | 8.06958 | 104° | 57km/h | 15982m | 3.6m/s | -52.5°C | 3.9% | 109.2hPa | 2.6V | 00:00:00 | 01:05:19 | 00:00:00 | |
| DL9PN | 2026-09-02 05:36:17 | 49.62881 | 8.06921 | 102° | 51km/h | 15973m | 4.5m/s | -52.4°C | 1.2% | 109.3hPa | 2.6V | 00:00:00 | 00:00:00 | 00:00:00 | |
| DM0DOS-11 | 2026-09-02 05:36:16 | 49.62894 | 8.06820 | 97° | 53km/h | 15952m | 4.8m/s | -52.5°C | 3.8% | 109.7hPa | 2.6V | 04:10:59 | 01:05:12 | 00:00:00 | |
| DL1XH-west | 2026-09-02 05:36:15 | 49.62887 | 8.06880 | 101° | 53km/h | 15965m | 4.8m/s | -52.5°C | 0.3% | 109.5hPa | 2.7V | 04:11:35 | 01:05:15 | 00:00:00 | |
| CB1BUN | 2026-09-02 05:36:14 | 49.62887 | 8.06880 | 102° | 53km/h | 15966m | 4.8m/s | -52.5°C | 1.2% | 109.5hPa | 2.6V | 04:11:00 | 00:00:00 | 00:00:00 | |
| SO1NDE-10 | 2026-09-02 05:36:13 | 49.62892 | 8.06840 | 100° | 55km/h | 15957m | 3.9m/s | 0°C | 0% | 0hPa | 2.6V | 04:10:00 | 01:05:13 | 00:00:00 | |
| DO3MHA-11 | 2026-09-02 05:36:12 | 49.62893 | 8.06820 | 98° | 57km/h | 15952m | 4.7m/s | -52.5°C | 3.8% | 109.7hPa | 2.6V | 00:00:00 | 01:05:12 | 00:00:00 | |
| DL1NUX | 2026-09-02 05:36:10 | 49.62904 | 8.06671 | 97° | 60km/h | 15922m | 3.4m/s | -52.4°C | 0% | 110.2hPa | 2.8V | 04:11:06 | 01:05:05 | 00:00:00 | |
| DK7TD | 2026-09-02 05:36:08 | 49.62900 | 8.06737 | 96° | 53km/h | 15935m | 4m/s | 0°C | 0% | 0hPa | 2.6V | 18:12:15 | 01:05:08 | 00:00:00 | |
| BIOWL1-15 | 2026-09-02 05:36:07 | 49.62904 | 8.06671 | 97° | 60km/h | 15922m | 3.4m/s | -52.4°C | 0.3% | 110.2hPa | 2.8V | 04:11:35 | 01:05:05 | 00:00:00 | |
| DM0DOS-11 | 2026-09-02 05:36:06 | 49.62910 | 8.06604 | 97° | 57km/h | 15910m | 3.7m/s | -52.4°C | 3.8% | 110.4hPa | 2.6V | 04:11:09 | 01:05:02 | 00:00:00 | |
| DL1XH-west | 2026-09-02 05:36:04 | 49.62906 | 8.06648 | 98° | 58km/h | 15919m | 3.9m/s | -52.4°C | 0.3% | 110.3hPa | 2.7V | 04:11:35 | 01:05:04 | 00:00:00 | |
| DL8DAS-15 | 2026-09-02 05:36:03 | 49.62906 | 8.06648 | 99° | 58km/h | 15919m | 3.9m/s | -52.4°C | 1.2% | 110.3hPa | 2.6V | 00:00:00 | 00:00:00 | 00:00:00 | |
| DK5PH-5 | 2026-09-02 05:36:02 | 49.62910 | 8.06604 | 98° | 62km/h | 15911m | 3.7m/s | -52.4°C | 3.8% | 110.4hPa | 2.6V | 00:00:00 | 01:05:02 | 00:00:00 | |
| SFWM-10 | 2026-09-02 05:36:01 | 49.62910 | 8.06604 | 99° | 57km/h | 15911m | 3.7m/s | -52.4°C | 1.2% | 110.4hPa | 2.7V | 04:11:00 | 00:00:00 | 00:00:00 | |
| DJ2DS-15 | 2026-09-02 05:36:00 | 49.62914 | 8.06559 | 95° | 62km/h | 15902m | 4.4m/s | -52.4°C | 3.8% | 110.5hPa | 2.7V | 00:00:00 | 01:05:00 | 00:00:00 | |
| DO2KSM | 2026-09-02 05:35:58 | 49.62914 | 8.06536 | 94° | 58km/h | 15898m | 3.7m/s | -52.4°C | 1.1% | 110.6hPa | 2.7V | 00:00:00 | 00:00:00 | 00:00:00 | |
| DM0DOS-11 | 2026-09-02 05:35:57 | 49.62915 | 8.06380 | 92° | 62km/h | 15868m | 4.2m/s | -52.8°C | 3.9% | 111.1hPa | 2.7V | 04:11:19 | 01:04:52 | 00:00:00 | |
| DL1XH-west | 2026-09-02 05:35:54 | 49.62915 | 8.06427 | 90° | 58km/h | 15877m | 4.6m/s | -52.8°C | 0.3% | 111hPa | 2.8V | 04:11:35 | 01:04:54 | 00:00:00 | |
| DJ2DS-15 | 2026-09-02 05:35:53 | 49.62915 | 8.06404 | 90° | 60km/h | 15873m | 3.9m/s | -52.8°C | 1.2% | 111.1hPa | 2.7V | 00:00:00 | 00:00:00 | 00:00:00 | |
| DL8DAS-14 | 2026-09-02 05:35:52 | 49.62915 | 8.06380 | 92° | 60km/h | 15868m | 4.2m/s | -52.8°C | 1.2% | 111.1hPa | 2.7V | 00:00:00 | 00:00:00 | 00:00:00 | |
| DL1ZP-14 | 2026-09-02 05:35:48 | 49.62919 | 8.06253 | 91° | 68km/h | 15847m | 3.3m/s | -52.8°C | 1.2% | 111.5hPa | 2.7V | 00:00:00 | 00:00:00 | 00:00:00 | |
| DM0DOS-11 | 2026-09-02 05:35:47 | 49.62916 | 8.06126 | 85° | 66km/h | 15826m | 4.6m/s | -52.8°C | 3.9% | 111.8hPa | 2.7V | 04:11:29 | 01:04:42 | 00:00:00 | |
| DL9PN | 2026-09-02 05:35:46 | 49.62919 | 8.06201 | 87° | 64km/h | 15839m | 4.0m/s | -52.8°C | 1.2% | 111.6hPa | 2.6V | 00:00:00 | 00:00:00 | 00:00:00 | |
| DL1XH1-15 | 2026-09-02 05:35:45 | 49.62919 | 8.06201 | 87° | 66km/h | 15839m | 4m/s | -52.8°C | 4% | 111.6hPa | 2.6V | 04:11:26 | 01:04:45 | 00:00:00 | |
| DO1YAY-16 | 2026-09-02 05:35:45 | 49.62919 | 8.06201 | 87° | 64km/h | 15839m | 4.0m/s | -52.8°C | 1.2% | 111.6hPa | 2.6V | 00:00:00 | 00:00:00 | 00:00:00 | |
| BIOWL1-15 | 2026-09-02 05:35:44 | 49.62918 | 8.06176 | 86° | 64km/h | 15835m | 3.7m/s | -52.8°C | 0.3% | 111.7hPa | 2.6V | 04:11:35 | 01:04:44 | 00:00:00 | |
| DL1XH-west | 2026-09-02 05:35:43 | 49.62917 | 8.06151 | 85° | 64km/h | 15831m | 4.8m/s | -52.8°C | 0% | 111.8hPa | 2.8V | 04:11:35 | 01:04:43 | 00:00:00 | |
| DK7TD | 2026-09-02 05:35:40 | 49.62914 | 8.06076 | 88° | 62km/h | 15819m | 4.6m/s | 0°C | 0% | 0hPa | 2.6V | 18:12:15 | 01:04:40 | 00:00:00 | |
| DL1XH1-15 | 2026-09-02 05:35:40 | 49.62915 | 8.05953 | 90° | 68km/h | 15797m | 3.6m/s | -52.6°C | 3.9% | 112.4hPa | 2.6V | 04:11:36 | 01:04:35 | 00:00:00 | |
| DJ2DS-15 | 2026-09-02 05:35:40 | 49.62914 | 8.06076 | 88° | 60km/h | 15819m | 4.5m/s | -52.7°C | 3.9% | 111.9hPa | 2.7V | 04:11:00 | 01:04:40 | 00:00:00 | |
| SFWM-10 | 2026-09-02 05:35:38 | 49.62914 | 8.06052 | 91° | 62km/h | 15814m | 4.6m/s | -52.8°C | 1.2% | 112.1hPa | 2.7V | 04:11:00 | 00:00:00 | 00:00:00 | |
| SSTOLZ84 | 2026-09-02 05:35:37 | 49.62915 | 8.05979 | 91° | 66km/h | 15801m | 4.9m/s | -52.6°C | 1.1% | 112.3hPa | 2.7V | 00:00:00 | 00:00:00 | 00:00:00 | |
| DM0DOS-11 | 2026-09-02 05:35:36 | 49.62914 | 8.05855 | 83° | 58km/h | 15781m | 3.4m/s | -52.5°C | 3.8% | 112.7hPa | 2.7V | 04:11:40 | 01:04:31 | 00:00:00 | |
| BIOWL1-15 | 2026-09-02 05:35:35 | 49.62915 | 8.05902 | 90° | 64km/h | 15789m | 4.7m/s | -52.6°C | 0.3% | 112.5hPa | 2.6V | 04:12:26 | 01:04:33 | 00:00:00 | |
| DL1XH-west | 2026-09-02 05:35:32 | 49.62915 | 8.05878 | 87° | 60km/h | 15785m | 3.7m/s | 0°C | 0% | 112.6hPa | 2.8V | 18:12:15 | 01:04:32 | 00:00:00 | |
| DO3MHA-11 | 2026-09-02 05:35:32 | 49.62915 | 8.05878 | 88° | 58km/h | 15785m | 3.6m/s | -52.5°C | 3.9% | 112.5hPa | 2.7V | 04:11:00 | 01:04:32 | 00:00:00 | |
| DL1XH1-15 | 2026-09-02 05:35:30 | 49.62902 | 8.05724 | 87° | 57km/h | 15757m | 3.7m/s | -52.4°C | 3.8% | 0hPa | 2.7V | 04:11:46 | 01:04:25 | 00:00:00 | |
| DL8DAS-15 | 2026-09-02 05:35:28 | 49.62909 | 8.05811 | 80° | 57km/h | 15773m | 4.2m/s | -52.5°C | 1.2% | 112.8hPa | 2.8V | 04:12:00 | 00:00:00 | 00:00:00 | |
| SO1NDE-10 | 2026-09-02 05:35:27 | 49.62904 | 8.05768 | 82° | 53km/h | 15765m | 4.7m/s | 0°C | 0% | 0hPa | 2.8V | 00:00:00 | 01:04:27 | 00:00:00 | |
| DL1NUX | 2026-09-02 05:35:26 | 49.62899 | 8.05631 | 86° | 58km/h | 15742m | 4.2m/s | -52.4°C | 0% | 113.3hPa | 2.8V | 04:11:50 | 01:04:21 | 00:00:00 | |
| DL1XH-west | 2026-09-02 05:35:22 | 49.62900 | 8.05654 | 86° | 60km/h | 15746m | 2.9m/s | 0°C | 0% | 0hPa | 2.6V | 18:12:15 | 01:04:22 | 00:00:00 | |
| DO3MHA-11 | 2026-09-02 05:35:22 | 49.62899 | 8.05654 | 87° | 57km/h | 15746m | 2.8m/s | -52.3°C | 3.8% | 113.2hPa | 2.7V | 00:00:00 | 01:04:22 | 00:00:00 | |
| DL8DAS-14 | 2026-09-02 05:35:21 | 49.62899 | 8.05631 | 86° | 58km/h | 15742m | 4.2m/s | -52.4°C | 1.2% | 113.3hPa | 2.7V | 00:00:00 | 00:00:00 | 00:00:00 | |
| DJ2DS-15 | 2026-09-02 05:35:20 | 49.62898 | 8.05608 | 89° | 53km/h | 15738m | 4.5m/s | -52.3°C | 3.8% | 113.4hPa | 2.7V | 00:00:00 | 01:04:20 | 00:00:00 | |
| DJ2KF-10 | 2026-09-02 05:35:19 | 49.62898 | 8.05587 | 90° | 51km/h | 15733m | 4.2m/s | -52.3°C | 3.8% | 113.4hPa | 2.6V | 04:11:00 | 01:04:19 | 00:00:00 | |
| NBG1-10 | 2026-09-02 05:35:18 | 49.62897 | 8.05566 | 88° | 53km/h | 15729m | 3.9m/s | -52.2°C | 3.8% | 113.5hPa | 2.6V | 00:00:00 | 01:04:18 | 00:00:00 | |
| DL1XH1-15 | 2026-09-02 05:35:15 | 49.62894 | 8.05501 | 81° | 57km/h | 15717m | 3.1m/s | -52.3°C | 3.8% | 0hPa | 2.8V | 04:11:56 | 01:04:15 | 00:00:00 | |
| DL9PN | 2026-09-02 05:35:15 | 49.62892 | 8.05479 | 81° | 53km/h | 15713m | 4.5m/s | -52.3°C | 1.1% | 113.8hPa | 2.8V | 00:00:00 | 00:00:00 | 00:00:00 | |
| DL1NUX | 2026-09-02 05:35:14 | 49.62885 | 8.05378 | 87° | 53km/h | 15692m | 3.4m/s | -52.3°C | 0% | 114.2hPa | 2.8V | 04:12:02 | 01:04:09 | 00:00:00 | |
| DL1XH-west | 2026-09-02 05:35:12 | 49.62888 | 8.05439 | 84° | 51km/h | 15704m | 4.1m/s | 0°C | 0% | 0hPa | 2.6V | 18:12:15 | 01:04:12 | 00:00:00 | |
| BIOWL1-15 | 2026-09-02 05:35:11 | 49.62887 | 8.05419 | 84° | 51km/h | 15700m | 4.2m/s | -52.3°C | 0.2% | 114.1hPa | 2.6V | 04:12:26 | 01:04:11 | 00:00:00 | |
| DB0ND-19 | 2026-09-02 05:35:10 | 49.62886 | 8.05399 | 85° | 51km/h | 15696m | 4.5m/s | -52.3°C | 1.1% | 114.2hPa | 2.7V | 00:00:00 | 00:00:00 | 00:00:00 | |
| DF1GD-15 | 2026-09-02 05:35:07 | 49.62884 | 8.05358 | 90° | 51km/h | 15687m | 5.0m/s | -52.3°C | 1.2% | 114.3hPa | 2.7V | 04:12:00 | 00:00:00 | 00:00:00 | |
| SSTOLZ84 | 2026-09-02 05:35:06 | 49.62885 | 8.05298 | 90° | 51km/h | 15673m | 4.7m/s | -52.2°C | 1.2% | 114.5hPa | 2.7V | 00:00:00 | 00:00:00 | 00:00:00 | |
| DL1NUX | 2026-09-02 05:35:04 | 49.62883 | 8.05185 | 83° | 49km/h | 15649m | 4.6m/s | -52.2°C | 0% | 115hPa | 2.7V | 04:12:12 | 01:03:59 | 00:00:00 | |
| BIOWL1-15 | 2026-09-02 05:35:03 | 49.62885 | 8.05221 | 88° | 46km/h | 15657m | 4.2m/s | -52.2°C | 0.2% | 114.8hPa | 2.6V | 04:12:26 | 01:04:01 | 00:00:00 | |
| DD1CC8 | 2026-09-02 05:35:02 | 49.62885 | 8.05221 | 88° | 46km/h | 15658m | 4.2m/s | -52.2°C | -1.0% | 114.8hPa | 2.8V | 00:00:00 | 00:00:00 | 00:00:00 | |
| DF7PN | 2026-09-02 05:34:54 | 49.62877 | 8.05090 | 89° | 47km/h | 15628m | 4.4m/s | -52.3°C | 1.1% | 115.3hPa | 2.8V | 00:00:00 | 00:00:00 | 00:00:00 | |
| DL1NUX | 2026-09-02 05:34:53 | 49.62880 | 8.04979 | 92° | 46km/h | 15602m | 4.6m/s | -52.4°C | 0% | 115.8hPa | 2.8V | 04:12:23 | 01:03:48 | 00:00:00 | |
| BIOWL1-15 | 2026-09-02 05:34:50 | 49.62879 | 8.05015 | 93° | 46km/h | 15611m | 4.8m/s | -52.4°C | 0.2% | 115.7hPa | 2.6V | 04:12:26 | 01:03:50 | 00:00:00 | |
| DL1ZP-14 | 2026-09-02 05:34:47 | 49.62881 | 8.04924 | 92° | 46km/h | 15590m | 4.3m/s | -52.5°C | 1.2% | 116.0hPa | 2.6V | 00:00:00 | 00:00:00 | 00:00:00 | |
| BIOWL1-15 | 2026-09-02 05:34:44 | 49.62884 | 8.04836 | 92° | 46km/h | 15569m | 3.6m/s | -52.4°C | 0.3% | 116.4hPa | 2.6V | 04:13:17 | 01:03:40 | 00:00:00 | |
| BIOWL1-15 | 2026-09-02 05:34:30 | 49.62886 | 8.04677 | 93° | 40km/h | 15526m | 4.3m/s | -52.3°C | 0.2% | 117.2hPa | 2.6V | 04:13:17 | 01:03:30 | 00:00:00 | |
| BIOWL1-15 | 2026-09-02 05:34:19 | 49.62897 | 8.04520 | 104° | 35km/h | 15480m | 4.9m/s | -51.9°C | 0.2% | 118hPa | 2.6V | 04:13:17 | 01:03:19 | 00:00:00 | |
| BIOWL1-15 | 2026-09-02 05:34:08 | 49.62915 | 8.04366 | 102° | 37km/h | 15434m | 3.8m/s | -51.6°C | 0.2% | 118.9hPa | 2.6V | 04:13:17 | 01:03:08 | 00:00:00 | |
| BIOWL1-15 | 2026-09-02 05:34:00 | 49.62937 | 8.04234 | 103° | 40km/h | 15391m | 3.7m/s | -51.8°C | 0.2% | 119.7hPa | 2.8V | 04:13:17 | 01:02:58 | 00:00:00 | |
| HSKMA3-T | 2026-09-02 05:33:48 | 49.62964 | 8.04091 | 116° | 38km/h | 15347m | 4m/s | 0°C | 0% | 0hPa | 2.8V | 18:12:15 | 01:02:48 | 00:00:00 | |
| DL8DAS-14 | 2026-09-02 05:33:48 | 49.62964 | 8.04091 | 115° | 38km/h | 15347m | 4.0m/s | -51.9°C | 1.2% | 120.5hPa | 2.6V | 00:00:00 | 00:00:00 | 00:00:00 | |
| BIOWL1-15 | 2026-09-02 05:33:47 | 49.62998 | 8.03967 | 113° | 46km/h | 15312m | 3.8m/s | -52°C | 0.2% | 121.2hPa | 2.6V | 04:14:08 | 01:02:40 | 00:00:00 | |
| DK7TD | 2026-09-02 05:33:32 | 49.63040 | 8.03847 | 119° | 46km/h | 15279m | 4m/s | -51.9°C | 0.2% | 0hPa | 2.8V | 04:15:50 | 01:02:32 | 00:00:00 | |
| BIOWL1-15 | 2026-09-02 05:33:31 | 49.63046 | 8.03831 | 117° | 47km/h | 15275m | 4.1m/s | -51.9°C | 0.2% | 121.8hPa | 2.8V | 04:14:08 | 01:02:31 | 00:00:00 | |
| DJ2DS-15 | 2026-09-02 05:33:29 | 49.63057 | 8.03796 | 112° | 51km/h | 15266m | 3.6m/s | -52.0°C | 1.2% | 122.0hPa | 2.8V | 00:00:00 | 00:00:00 | 00:00:00 | |
| DL1NUX | 2026-09-02 05:33:28 | 49.63085 | 8.03688 | 115° | 47km/h | 15241m | 3.9m/s | -52.2°C | 0% | 122.5hPa | 2.8V | 04:13:48 | 01:02:23 | 00:00:00 | |
| BIOWL1-15 | 2026-09-02 05:33:21 | 49.63095 | 8.03656 | 118° | 46km/h | 15232m | 3.9m/s | -52.2°C | 0.3% | 122.7hPa | 2.8V | 04:14:08 | 01:02:21 | 00:00:00 | |
| DJ2DS-15 | 2026-09-02 05:33:20 | 49.63101 | 8.03640 | 120° | 51km/h | 15228m | 4.4m/s | -52.2°C | 3.8% | 122.6hPa | 2.6V | 00:00:00 | 01:02:20 | 00:00:00 | |
| DJ2KF-10 | 2026-09-02 05:33:19 | 49.63107 | 8.03625 | 121° | 55km/h | 15224m | 4.7m/s | -52.2°C | 3.8% | 122.7hPa | 2.8V | 00:00:00 | 01:02:19 | 00:00:00 | |
| DM0DOS-11 | 2026-09-02 05:33:17 | 49.63145 | 8.03506 | 113° | 57km/h | 15194m | 3.3m/s | -52.2°C | 3.8% | 123.3hPa | 2.8V | 04:13:59 | 01:02:12 | 00:00:00 | |
| BIOWL1-15 | 2026-09-02 05:33:12 | 49.63157 | 8.03465 | 113° | 57km/h | 15186m | 4.5m/s | -52.2°C | 0.3% | 123.5hPa | 2.8V | 04:14:08 | 01:02:10 | 00:00:00 | |
| DO3MHA-11 | 2026-09-02 05:33:12 | 49.63145 | 8.03506 | 114° | 55km/h | 15194m | 3.3m/s | -52.2°C | 3.8% | 123.3hPa | 2.7V | 00:00:00 | 01:02:12 | 00:00:00 | |
| DL1NUX | 2026-09-02 05:33:11 | 49.63180 | 8.03390 | 120° | 55km/h | 15169m | 4.9m/s | -52.1°C | 0% | 123.8hPa | 2.8V | 04:14:05 | 01:02:06 | 00:00:00 | |
| DL9PN | 2026-09-02 05:33:11 | 49.63157 | 8.03465 | 112° | 55km/h | 15186m | 4.5m/s | -52.2°C | 1.2% | 123.5hPa | 2.7V | 00:00:00 | 00:00:00 | 00:00:00 | |
| DO1YAY-16 | 2026-09-02 05:33:10 | 49.63162 | 8.03446 | 113° | 53km/h | 15182m | 4.0m/s | -52.2°C | 1.2% | 123.6hPa | 2.7V | 00:00:00 | 00:00:00 | 00:00:00 | |
| DM3KS-11 | 2026-09-02 05:33:09 | 49.63162 | 8.03446 | 113° | 53km/h | 15182m | 4.0m/s | -52.2°C | 1.2% | 123.6hPa | 2.7V | 00:00:00 | 00:00:00 | 00:00:00 | |
| NBG1-10 | 2026-09-02 05:33:08 | 49.63168 | 8.03427 | 116° | 60km/h | 15178m | 3.5m/s | -52.1°C | 3.8% | 123.6hPa | 2.7V | 00:00:00 | 01:02:08 | 00:00:00 | |
| DM0DOS-11 | 2026-09-02 05:33:07 | 49.63210 | 8.03319 | 122° | 53km/h | 15152m | 3.5m/s | -52°C | 3.8% | 124.2hPa | 2.7V | 04:14:09 | 01:02:02 | 00:00:00 | |
| DB0ND-19 | 2026-09-02 05:33:06 | 49.63180 | 8.03390 | 120° | 53km/h | 15169m | 4.9m/s | -52.1°C | 1.2% | 123.8hPa | 2.7V | 00:00:00 | 00:00:00 | 00:00:00 | |
| DL0LBS | 2026-09-02 05:33:04 | 49.63187 | 8.03372 | 124° | 55km/h | 15165m | 3.9m/s | -52.1°C | 1.3% | 123.9hPa | 2.7V | 04:14:00 | 00:00:00 | 00:00:00 | |
| DO3MHA-11 | 2026-09-02 05:33:02 | 49.63210 | 8.03319 | 123° | 58km/h | 15152m | 3.5m/s | -52.0°C | 3.8% | 124.2hPa | 2.7V | 04:14:00 | 01:02:02 | 00:00:00 | |
| DL1NUX | 2026-09-02 05:33:01 | 49.63255 | 8.03203 | 119° | 58km/h | 15126m | 4.6m/s | -52.1°C | 0% | 124.7hPa | 2.7V | 04:14:15 | 01:01:56 | 00:00:00 | |
| BIOWL1-15 | 2026-09-02 05:33:00 | 49.63225 | 8.03283 | 122° | 58km/h | 15143m | 5.2m/s | -52°C | 0.3% | 124.3hPa | 2.8V | 04:14:59 | 01:02:00 | 00:00:00 | |
| DJ2DS-15 | 2026-09-02 05:33:00 | 49.63225 | 8.03283 | 122° | 60km/h | 15144m | 5.1m/s | -52.0°C | 3.8% | 124.3hPa | 2.7V | 00:00:00 | 01:02:00 | 00:00:00 | |
| HEMX73-11 | 2026-09-02 05:32:59 | 49.63225 | 8.03283 | 123° | 58km/h | 15144m | 5.2m/s | -52.0°C | 1.2% | 124.3hPa | 2.7V | 04:14:00 | 00:00:00 | 00:00:00 | |
| DM0DOS-11 | 2026-09-02 05:32:57 | 49.63288 | 8.03129 | 129° | 60km/h | 15109m | 3.9m/s | -52.1°C | 3.8% | 125hPa | 2.7V | 04:14:19 | 01:01:52 | 00:00:00 | |
| DK7TD | 2026-09-02 05:32:52 | 49.63288 | 8.03128 | 129° | 60km/h | 15109m | 3.9m/s | -52.1°C | 0.4% | 0hPa | 2.7V | 04:15:50 | 01:01:52 | 00:00:00 | |
| DO3MHA-11 | 2026-09-02 05:32:52 | 49.63288 | 8.03128 | 130° | 60km/h | 15109m | 3.9m/s | -52.1°C | 3.8% | 124.9hPa | 2.8V | 00:00:00 | 01:01:52 | 00:00:00 | |
| DL1NUX | 2026-09-02 05:32:51 | 49.63345 | 8.03017 | 125° | 60km/h | 15083m | 4.4m/s | -52°C | 0% | 125.5hPa | 2.8V | 04:14:25 | 01:01:46 | 00:00:00 | |
| BIOWL1-15 | 2026-09-02 05:32:51 | 49.63317 | 8.03075 | 128° | 60km/h | 15096m | 4m/s | -52.1°C | 0.3% | 125.3hPa | 2.6V | 04:14:59 | 01:01:49 | 00:00:00 | |
| DL4BBY-15 | 2026-09-02 05:32:50 | 49.63308 | 8.03093 | 129° | 64km/h | 15100m | 4.5m/s | -53.3°C | 0% | 0hPa | 2.6V | 00:00:00 | 00:00:00 | 00:00:00 | |
| DJ2KF-10 | 2026-09-02 05:32:49 | 49.63317 | 8.03075 | 129° | 66km/h | 15096m | 4.0m/s | -52.0°C | 3.8% | 125.2hPa | 2.6V | 04:14:00 | 01:01:49 | 00:00:00 | |
| CB1BUN | 2026-09-02 05:32:48 | 49.63317 | 8.03075 | 129° | 60km/h | 15096m | 4.0m/s | -52.1°C | 1.2% | 125.3hPa | 2.7V | 04:14:00 | 00:00:00 | 00:00:00 | |
| DM0DOS-11 | 2026-09-02 05:32:47 | 49.63378 | 8.02939 | 122° | 62km/h | 15064m | 4.7m/s | -52°C | 3.8% | 125.8hPa | 2.7V | 04:14:29 | 01:01:42 | 00:00:00 | |
| DL8DAS-14 | 2026-09-02 05:32:46 | 49.63354 | 8.02998 | 123° | 58km/h | 15078m | 5.1m/s | -52.0°C | 1.2% | 125.6hPa | 2.8V | 00:00:00 | 00:00:00 | 00:00:00 | |
| BIOWL1-15 | 2026-09-02 05:32:41 | 49.63404 | 8.02881 | 128° | 60km/h | 15051m | 4.1m/s | -52°C | 0.3% | 126.1hPa | 2.8V | 04:14:59 | 01:01:39 | 00:00:00 | |
| DL9PN | 2026-09-02 05:32:40 | 49.63404 | 8.02881 | 127° | 60km/h | 15051m | 4.1m/s | -52.0°C | 1.2% | 126.1hPa | 2.6V | 00:00:00 | 00:00:00 | 00:00:00 | |
| DO1YAY-16 | 2026-09-02 05:32:39 | 49.63414 | 8.02862 | 129° | 62km/h | 15047m | 4.7m/s | -52.0°C | 1.2% | 126.2hPa | 2.6V | 00:00:00 | 00:00:00 | 00:00:00 | |
| SFWM-10 | 2026-09-02 05:32:38 | 49.63414 | 8.02862 | 130° | 64km/h | 15047m | 4.7m/s | -52.0°C | 1.2% | 126.2hPa | 2.6V | 04:14:00 | 00:00:00 | 00:00:00 | |
| DM0DOS-11 | 2026-09-02 05:32:37 | 49.63474 | 8.02743 | 125° | 64km/h | 15021m | 3.9m/s | -52°C | 3.9% | 126.7hPa | 2.6V | 04:14:39 | 01:01:32 | 00:00:00 | |
| BIOWL1-15 | 2026-09-02 05:32:28 | 49.63515 | 8.02664 | 130° | 64km/h | 15004m | 4.5m/s | -52.2°C | 0.4% | 127hPa | 2.8V | 04:14:59 | 01:01:28 | 00:00:00 | |
| DL1NUX | 2026-09-02 05:32:26 | 49.63593 | 8.02515 | 125° | 77km/h | 14976m | 4.2m/s | -52°C | 0% | 127.6hPa | 2.7V | 04:14:50 | 01:01:21 | 00:00:00 | |
| BIOWL1-15 | 2026-09-02 05:32:20 | 49.63624 | 8.02446 | 125° | 68km/h | 14964m | 4.3m/s | -51.9°C | 0.4% | 127.9hPa | 2.8V | 04:14:59 | 01:01:18 | 00:00:00 | |
| DJ2DS-15 | 2026-09-02 05:32:20 | 49.63604 | 8.02491 | 124° | 68km/h | 14972m | 4.0m/s | -51.9°C | 3.9% | 127.7hPa | 2.7V | 04:14:00 | 01:01:20 | 00:00:00 | |
| DJ2KF-10 | 2026-09-02 05:32:19 | 49.63614 | 8.02468 | 124° | 68km/h | 14968m | 3.7m/s | -51.9°C | 3.8% | 127.7hPa | 2.7V | 00:00:00 | 01:01:19 | 00:00:00 | |
| HEMX73-11 | 2026-09-02 05:32:18 | 49.63614 | 8.02468 | 125° | 69km/h | 14968m | 3.8m/s | -51.9°C | 1.3% | 127.8hPa | 2.7V | 04:14:00 | 00:00:00 | 00:00:00 | |
| DJ2DS-15 | 2026-09-02 05:32:17 | 49.63634 | 8.02424 | 126° | 66km/h | 14960m | 4.4m/s | -51.9°C | 1.2% | 127.9hPa | 2.7V | 00:00:00 | 00:00:00 | 00:00:00 | |
| DL1NUX | 2026-09-02 05:32:16 | 49.63691 | 8.02299 | 124° | 66km/h | 14933m | 4.7m/s | 0°C | 0% | 0hPa | 2.7V | 00:00:00 | 01:01:11 | 00:00:00 | |
| BIOWL1-15 | 2026-09-02 05:32:11 | 49.63729 | 8.02212 | 121° | 68km/h | 14917m | 4m/s | -51.9°C | 0.4% | 128.8hPa | 2.8V | 04:15:50 | 01:01:07 | 00:00:00 | |
| SO1NDE-10 | 2026-09-02 05:32:09 | 49.63711 | 8.02256 | 125° | 68km/h | 14925m | 3.6m/s | 0°C | 0% | 0hPa | 2.7V | 00:00:00 | 01:01:09 | 00:00:00 | |
| DO1YAY-16 | 2026-09-02 05:32:08 | 49.63729 | 8.02212 | 121° | 66km/h | 14917m | 4.0m/s | -51.9°C | 1.3% | 128.8hPa | 2.7V | 00:00:00 | 00:00:00 | 00:00:00 | |
| DM3KS-11 | 2026-09-02 05:32:07 | 49.63729 | 8.02212 | 121° | 66km/h | 14917m | 4.0m/s | -51.9°C | 1.3% | 128.8hPa | 2.7V | 00:00:00 | 00:00:00 | 00:00:00 | |
| DL1NUX | 2026-09-02 05:32:06 | 49.63784 | 8.02079 | 121° | 66km/h | 14892m | 4.8m/s | 0°C | 0% | 0hPa | 2.7V | 00:00:00 | 01:01:01 | 00:00:00 | |
| DK7TD | 2026-09-02 05:31:59 | 49.63801 | 8.02034 | 119° | 66km/h | 14883m | 3.8m/s | -52.2°C | 0.5% | 0hPa | 2.8V | 04:15:50 | 01:00:59 | 00:00:00 | |
| DN1GJH-1 | 2026-09-02 05:31:58 | 49.63801 | 8.02034 | 120° | 66km/h | 14884m | 3.8m/s | -52.2°C | 1.4% | 129.4hPa | 2.8V | 04:15:00 | 00:00:00 | 00:00:00 | |
| DM0DOS-11 | 2026-09-02 05:31:57 | 49.63860 | 8.01878 | 121° | 69km/h | 14854m | 4.8m/s | -52.2°C | 3.9% | 130hPa | 2.8V | 04:15:19 | 01:00:52 | 00:00:00 | |
| BIOWL1-15 | 2026-09-02 05:31:57 | 49.63818 | 8.01990 | 121° | 66km/h | 14875m | 3.8m/s | -52.2°C | 0.4% | 129.6hPa | 2.6V | 04:15:50 | 01:00:57 | 00:00:00 | |
| BIOWL1-15 | 2026-09-02 05:31:47 | 49.63904 | 8.01760 | 117° | 71km/h | 14833m | 3.7m/s | -52.1°C | 0.5% | 130.4hPa | 2.8V | 04:15:50 | 01:00:47 | 00:00:00 | |
| NBG1-10 | 2026-09-02 05:31:45 | 49.63920 | 8.01710 | 117° | 73km/h | 14825m | 3.9m/s | -52.1°C | 3.9% | 130.6hPa | 2.8V | 04:15:00 | 01:00:45 | 00:00:00 | |
| DL8DAS-14 | 2026-09-02 05:31:44 | 49.63936 | 8.01660 | 114° | 69km/h | 14816m | 5.4m/s | -52.1°C | 1.4% | 130.8hPa | 2.8V | 00:00:00 | 00:00:00 | 00:00:00 | |
| DL1NUX | 2026-09-02 05:31:42 | 49.63978 | 8.01510 | 112° | 73km/h | 14789m | 4.8m/s | 0°C | 0% | 0hPa | 2.8V | 00:00:00 | 01:00:37 | 00:00:00 | |
| DK7TD | 2026-09-02 05:31:39 | 49.63963 | 8.01562 | 114° | 71km/h | 14797m | 4.7m/s | -52.1°C | 0.4% | 0hPa | 2.7V | 04:15:50 | 01:00:39 | 00:00:00 | |
| SO1NDE-10 | 2026-09-02 05:31:39 | 49.63963 | 8.01562 | 114° | 73km/h | 14798m | 4.7m/s | 0°C | 0% | 0hPa | 2.8V | 00:00:00 | 01:00:39 | 00:00:00 | |
| DM7RM-13 | 2026-09-02 05:31:38 | 49.63963 | 8.01562 | 115° | 71km/h | 14798m | 4.7m/s | -52.1°C | 1.4% | 131.1hPa | 2.8V | 04:15:00 | 00:00:00 | 00:00:00 | |
| DM0DOS-11 | 2026-09-02 05:31:37 | 49.64011 | 8.01377 | 109° | 73km/h | 14766m | 4.9m/s | -52.5°C | 4% | 131.8hPa | 2.8V | 04:15:39 | 01:00:32 | 00:00:00 | |
| BIOWL1-15 | 2026-09-02 05:31:36 | 49.63984 | 8.01484 | 111° | 71km/h | 14784m | 4.4m/s | -52.4°C | 0.5% | 131.4hPa | 2.8V | 04:15:50 | 01:00:36 | 00:00:00 | |
| DB0UT-9 | 2026-09-02 05:31:34 | 49.63991 | 8.01457 | 112° | 73km/h | 14780m | 4.2m/s | -52.3°C | 1.4% | 131.5hPa | 2.7V | 04:15:00 | 00:00:00 | 00:00:00 | |
| DB0ND-19 | 2026-09-02 05:31:33 | 49.64004 | 8.01403 | 110° | 73km/h | 14771m | 4.4m/s | -52.5°C | 1.4% | 131.7hPa | 2.7V | 00:00:00 | 00:00:00 | 00:00:00 | |
| DK5PH-5 | 2026-09-02 05:31:32 | 49.64011 | 8.01377 | 110° | 73km/h | 14766m | 4.8m/s | -52.5°C | 4.0% | 131.7hPa | 2.7V | 00:00:00 | 01:00:32 | 00:00:00 | |
| BIOWL9-15 | 2026-09-02 05:31:29 | 49.64033 | 8.01274 | 108° | 69km/h | 14747m | 4.7m/s | -52.7°C | 1.4% | 132.2hPa | 2.8V | 00:00:00 | 00:00:00 | 00:00:00 | |
| SSTOLZ84 | 2026-09-02 05:31:28 | 49.64033 | 8.01274 | 108° | 69km/h | 14747m | 4.7m/s | -52.7°C | 1.4% | 132.2hPa | 2.8V | 00:00:00 | 00:00:00 | 00:00:00 | |
| DM0DOS-11 | 2026-09-02 05:31:27 | 49.64062 | 8.01117 | 103° | 75km/h | 14721m | 3.9m/s | -52.9°C | 4.2% | 132.7hPa | 2.8V | 04:15:49 | 01:00:22 | 00:00:00 | |
| DK7TD | 2026-09-02 05:31:27 | 49.64038 | 8.01248 | 108° | 69km/h | 14743m | 4m/s | -52.7°C | 0.6% | 0hPa | 2.8V | 04:15:50 | 01:00:27 | 00:00:00 | |
| DL1NUX | 2026-09-02 05:31:25 | 49.64070 | 8.01058 | 99° | 77km/h | 14712m | 5.3m/s | 0°C | 0% | 0hPa | 2.7V | 00:00:00 | 01:00:20 | 00:00:00 | |
| BIOWL1-15 | 2026-09-02 05:31:25 | 49.64048 | 8.01197 | 106° | 68km/h | 14734m | 4.4m/s | -52.8°C | 0.7% | 132.4hPa | 2.6V | 04:15:50 | 01:00:25 | 00:00:00 | |
| DF3TZ-5 | 2026-09-02 05:31:23 | 49.64062 | 8.01117 | 103° | 75km/h | 14721m | 3.9m/s | -52.9°C | 1.5% | 132.7hPa | 2.7V | 00:00:00 | 00:00:00 | 00:00:00 | |
| DO3MHA-11 | 2026-09-02 05:31:22 | 49.64062 | 8.01117 | 104° | 77km/h | 14721m | 3.9m/s | -52.9°C | 4.2% | 132.6hPa | 2.7V | 04:15:00 | 01:00:22 | 00:00:00 | |
| DJ2DS-15 | 2026-09-02 05:31:20 | 49.64069 | 8.01058 | 100° | 75km/h | 14712m | 5.3m/s | -52.9°C | 4.2% | 132.8hPa | 2.7V | 00:00:00 | 01:00:20 | 00:00:00 | |
| DJ2KF-10 | 2026-09-02 05:31:19 | 49.64072 | 8.01029 | 97° | 73km/h | 14708m | 4.2m/s | -52.8°C | 4.2% | 133.0hPa | 2.7V | 00:00:00 | 01:00:19 | 00:00:00 | |
| DM0DOS-11 | 2026-09-02 05:31:17 | 49.64090 | 8.00825 | 97° | 75km/h | 14677m | 3.7m/s | -52.8°C | 4.1% | 133.6hPa | 2.8V | 04:15:59 | 01:00:12 | 00:00:00 | |
| BIOWL1-15 | 2026-09-02 05:31:15 | 49.64082 | 8.00911 | 99° | 75km/h | 14690m | 4m/s | -52.8°C | 0.6% | 133.3hPa | 2.7V | 04:16:41 | 01:00:15 | 00:00:00 | |
| SFWM-10 | 2026-09-02 05:31:13 | 49.64088 | 8.00853 | 98° | 73km/h | 14681m | 4.1m/s | -52.8°C | 1.5% | 133.5hPa | 2.7V | 00:00:00 | 00:00:00 | 00:00:00 | |
| DO3MHA-11 | 2026-09-02 05:31:12 | 49.64090 | 8.00825 | 98° | 75km/h | 14677m | 3.6m/s | -52.8°C | 4.1% | 133.5hPa | 2.7V | 00:00:00 | 01:00:12 | 00:00:00 | |
| DL1ZP-14 | 2026-09-02 05:31:08 | 49.64100 | 8.00678 | 94° | 73km/h | 14655m | 3.7m/s | -52.9°C | 1.5% | 134.1hPa | 2.8V | 00:00:00 | 00:00:00 | 00:00:00 | |
| DM0DOS-11 | 2026-09-02 05:31:07 | 49.64112 | 8.00536 | 97° | 73km/h | 14635m | 4.5m/s | -52.9°C | 4.2% | 134.5hPa | 2.8V | 04:16:09 | 01:00:02 | 00:00:00 | |
| BIOWL1-15 | 2026-09-02 05:31:04 | 49.64107 | 8.00593 | 98° | 73km/h | 14643m | 3.9m/s | -53°C | 0.7% | 134.3hPa | 2.7V | 04:16:41 | 01:00:04 | 00:00:00 | |
| DK7TD | 2026-09-02 05:31:03 | 49.64110 | 8.00565 | 98° | 73km/h | 14639m | 4.2m/s | -52.9°C | 0.7% | 0hPa | 2.8V | 04:18:23 | 01:00:03 | 00:00:00 | |
| DO3MHA-11 | 2026-09-02 05:31:02 | 49.64112 | 8.00536 | 98° | 71km/h | 14635m | 4.5m/s | -52.9°C | 4.2% | 134.4hPa | 2.7V | 00:00:00 | 01:00:02 | 00:00:00 | |
| DL8DAS-15 | 2026-09-02 05:31:01 | 49.64112 | 8.00536 | 98° | 73km/h | 14635m | 4.5m/s | -52.9°C | 1.5% | 134.5hPa | 2.7V | 00:00:00 | 00:00:00 | 00:00:00 | |
| DJ2DS-15 | 2026-09-02 05:31:00 | 49.64117 | 8.00479 | 98° | 69km/h | 14626m | 4.4m/s | -52.8°C | 4.2% | 134.6hPa | 2.7V | 00:00:00 | 01:00:00 | 00:00:00 | |
| DL1NUX | 2026-09-02 05:30:59 | 49.64134 | 8.00316 | 100° | 66km/h | 14601m | 4.7m/s | 0°C | 0% | 0hPa | 2.7V | 00:00:00 | 00:59:54 | 00:00:00 | |
| BIOWL9-15 | 2026-09-02 05:30:58 | 49.64126 | 8.00393 | 99° | 69km/h | 14613m | 5.0m/s | -52.9°C | 1.5% | 134.9hPa | 2.8V | 00:00:00 | 00:00:00 | 00:00:00 | |
| DM0DOS-11 | 2026-09-02 05:30:57 | 49.64140 | 8.00266 | 99° | 66km/h | 14593m | 3.9m/s | -53°C | 4.2% | 135.4hPa | 2.8V | 04:16:19 | 00:59:52 | 00:00:00 | |
| BIOWL1-15 | 2026-09-02 05:30:55 | 49.64137 | 8.00291 | 101° | 66km/h | 14597m | 3.9m/s | -53°C | 0.7% | 135.3hPa | 2.7V | 04:16:41 | 00:59:53 | 00:00:00 | |
| DF3TZ-5 | 2026-09-02 05:30:52 | 49.64142 | 8.00240 | 97° | 66km/h | 14589m | 4.5m/s | -53.0°C | 1.5% | 135.4hPa | 2.8V | 00:00:00 | 00:00:00 | 00:00:00 | |
| AU51GT2 | 2026-09-02 05:30:50 | 49.64145 | 8.00215 | 97° | 66km/h | 14584m | 3.7m/s | -53.0°C | 1.5% | 135.5hPa | 2.8V | 00:00:00 | 00:00:00 | 00:00:00 | |
| DJ2KF-10 | 2026-09-02 05:30:49 | 49.64147 | 8.00188 | 99° | 66km/h | 14581m | 4.1m/s | -53.0°C | 4.2% | 135.6hPa | 2.8V | 00:00:00 | 00:59:49 | 00:00:00 | |
| DM0DOS-11 | 2026-09-02 05:30:47 | 49.64167 | 8.00004 | 96° | 64km/h | 14552m | 3.8m/s | -53.1°C | 4.3% | 136.2hPa | 2.8V | 04:16:29 | 00:59:42 | 00:00:00 | |
| DF7PN | 2026-09-02 05:30:46 | 49.64157 | 8.00107 | 101° | 69km/h | 14569m | 3.9m/s | -53.1°C | 1.5% | 135.9hPa | 2.8V | 00:00:00 | 00:00:00 | 00:00:00 | |
| BIOWL1-15 | 2026-09-02 05:30:44 | 49.64167 | 8.00004 | 97° | 64km/h | 14552m | 3.8m/s | -53.1°C | 0.8% | 136.2hPa | 2.8V | 04:16:41 | 00:59:42 | 00:00:00 | |
| DK7TD | 2026-09-02 05:30:41 | 49.64170 | 7.99979 | 99° | 64km/h | 14548m | 4.6m/s | -53.1°C | 0.8% | 0hPa | 2.8V | 04:18:23 | 00:59:41 | 00:00:00 | |
| DF1GD-15 | 2026-09-02 05:30:40 | 49.64170 | 7.99979 | 100° | 64km/h | 14548m | 4.6m/s | -53.1°C | 1.6% | 136.3hPa | 2.7V | 04:16:00 | 00:00:00 | 00:00:00 | |
| NBG1-10 | 2026-09-02 05:30:39 | 49.64175 | 7.99930 | 102° | 66km/h | 14540m | 3.8m/s | -52.9°C | 4.3% | 136.5hPa | 2.7V | 00:00:00 | 00:59:39 | 00:00:00 | |
| DM0DOS-11 | 2026-09-02 05:30:37 | 49.64201 | 7.99760 | 104° | 64km/h | 14510m | 4.9m/s | -52.8°C | 4.3% | 137.1hPa | 2.8V | 04:16:39 | 00:59:32 | 00:00:00 | |
| DK7TD | 2026-09-02 05:30:31 | 49.64206 | 7.99736 | 105° | 64km/h | 14505m | 3.8m/s | -52.8°C | 0.8% | 0hPa | 2.7V | 04:18:23 | 00:59:31 | 00:00:00 | |
| SFWM-10 | 2026-09-02 05:30:30 | 49.64206 | 7.99736 | 105° | 64km/h | 14506m | 3.8m/s | -52.8°C | 1.5% | 137.2hPa | 2.8V | 00:00:00 | 00:00:00 | 00:00:00 | |
| DO2KSM | 2026-09-02 05:30:29 | 49.64210 | 7.99712 | 106° | 64km/h | 14502m | 3.3m/s | -52.8°C | 1.5% | 137.3hPa | 2.8V | 04:16:00 | 00:00:00 | 00:00:00 | |
| DM0DOS-11 | 2026-09-02 05:30:27 | 49.64244 | 7.99511 | 105° | 68km/h | 14469m | 4m/s | -52.6°C | 4.2% | 138hPa | 2.8V | 04:16:49 | 00:59:22 | 00:00:00 | |
| BIOWL1-15 | 2026-09-02 05:30:21 | 49.64248 | 7.99486 | 106° | 69km/h | 14465m | 3.4m/s | -52.6°C | 0.8% | 138.1hPa | 2.8V | 04:17:32 | 00:59:21 | 00:00:00 | |
| DK7TD | 2026-09-02 05:30:12 | 49.64289 | 7.99265 | 103° | 62km/h | 14427m | 3.4m/s | -52.5°C | 0.8% | 0hPa | 2.8V | 04:18:23 | 00:59:12 | 00:00:00 | |
| BIOWL1-15 | 2026-09-02 05:30:11 | 49.64292 | 7.99241 | 103° | 60km/h | 14423m | 3.9m/s | -52.5°C | 0.8% | 138.9hPa | 2.8V | 04:17:32 | 00:59:11 | 00:00:00 | |
| DL8DAS-14 | 2026-09-02 05:30:11 | 49.64296 | 7.99218 | 104° | 60km/h | 14419m | 4.6m/s | -52.6°C | 1.6% | 139.1hPa | 2.8V | 00:00:00 | 00:00:00 | 00:00:00 | |
| DO2KSM | 2026-09-02 05:30:09 | 49.64296 | 7.99218 | 106° | 62km/h | 14419m | 4.6m/s | -52.6°C | 1.6% | 139.1hPa | 2.8V | 00:00:00 | 00:00:00 | 00:00:00 | |
| NBG1-10 | 2026-09-02 05:30:06 | 49.64312 | 7.99122 | 102° | 62km/h | 14402m | 3.7m/s | -52.6°C | 4.3% | 139.4hPa | 2.8V | 00:00:00 | 00:59:06 | 00:00:00 | |
| DB0UT-9 | 2026-09-02 05:30:05 | 49.64312 | 7.99122 | 103° | 62km/h | 14402m | 3.7m/s | -52.6°C | 1.7% | 139.4hPa | 2.8V | 04:17:00 | 00:00:00 | 00:00:00 | |
| CB1BUN | 2026-09-02 05:30:04 | 49.64315 | 7.99099 | 104° | 62km/h | 14399m | 3.2m/s | -52.6°C | 1.6% | 139.5hPa | 2.8V | 04:17:00 | 00:00:00 | 00:00:00 | |
| DM0DOS-11 | 2026-09-02 05:30:03 | 49.64328 | 7.99033 | 110° | 57km/h | 14386m | 3.3m/s | -52.7°C | 4.2% | 139.8hPa | 2.8V | 04:17:09 | 00:59:02 | 00:00:00 | |
| BIOWL1-15 | 2026-09-02 05:30:00 | 49.64354 | 7.98926 | 112° | 64km/h | 14366m | 4.8m/s | -52.7°C | 0.8% | 140.2hPa | 2.8V | 04:17:32 | 00:58:57 | 00:00:00 | |
| DJ2DS-15 | 2026-09-02 05:30:00 | 49.64338 | 7.98992 | 110° | 64km/h | 14378m | 3.7m/s | -52.6°C | 4.2% | 139.9hPa | 2.8V | 00:00:00 | 00:59:00 | 00:00:00 | |
| DF1GD-15 | 2026-09-02 05:29:59 | 49.64338 | 7.98992 | 111° | 57km/h | 14378m | 3.7m/s | -52.6°C | 1.6% | 140.0hPa | 2.8V | 04:17:00 | 00:00:00 | 00:00:00 | |
| DM0DOS-11 | 2026-09-02 05:29:57 | 49.64381 | 7.98810 | 109° | 62km/h | 14344m | 4m/s | -52.8°C | 4.2% | 140.7hPa | 2.8V | 04:17:19 | 00:58:52 | 00:00:00 | |
| BIOWL1-15 | 2026-09-02 05:29:53 | 49.64415 | 7.98673 | 111° | 66km/h | 14320m | 3.5m/s | -53.1°C | 0.9% | 141.2hPa | 2.8V | 04:17:32 | 00:58:46 | 00:00:00 | |
| DJ2DS-15 | 2026-09-02 05:29:53 | 49.64381 | 7.98810 | 109° | 60km/h | 14345m | 4.0m/s | -52.8°C | 1.6% | 140.7hPa | 2.7V | 00:00:00 | 00:00:00 | 00:00:00 | |
| DF3TZ-5 | 2026-09-02 05:29:50 | 49.64398 | 7.98743 | 111° | 62km/h | 14333m | 3.8m/s | -52.9°C | 1.6% | 140.9hPa | 2.7V | 00:00:00 | 00:00:00 | 00:00:00 | |
| AU51GT2 | 2026-09-02 05:29:48 | 49.64409 | 7.98697 | 109° | 62km/h | 14324m | 3.8m/s | -53.0°C | 1.6% | 141.1hPa | 2.7V | 00:00:00 | 00:00:00 | 00:00:00 | |
| DK7TD | 2026-09-02 05:29:42 | 49.64440 | 7.98577 | 111° | 66km/h | 14304m | 4.3m/s | 0°C | 0% | 0hPa | 2.7V | 04:18:23 | 00:58:42 | 00:00:00 | |
| BIOWL1-15 | 2026-09-02 05:29:38 | 49.64465 | 7.98485 | 115° | 64km/h | 14288m | 3.6m/s | -53.2°C | 0.9% | 141.9hPa | 2.7V | 04:18:23 | 00:58:38 | 00:00:00 | |
| DM7RM-13 | 2026-09-02 05:29:34 | 49.64483 | 7.98419 | 113° | 62km/h | 14275m | 3.7m/s | -53.1°C | 1.6% | 142.2hPa | 2.8V | 04:18:00 | 00:00:00 | 00:00:00 | |
| NBG1-10 | 2026-09-02 05:29:33 | 49.64495 | 7.98373 | 114° | 68km/h | 14267m | 4.2m/s | -53.0°C | 4.3% | 142.3hPa | 2.8V | 00:00:00 | 00:58:33 | 00:00:00 | |
| DO3MHA-11 | 2026-09-02 05:29:32 | 49.64502 | 7.98351 | 113° | 64km/h | 14263m | 3.5m/s | -53.0°C | 4.3% | 142.4hPa | 2.8V | 00:00:00 | 00:58:32 | 00:00:00 | |
| DB0ND-19 | 2026-09-02 05:29:29 | 49.64520 | 7.98282 | 112° | 64km/h | 14250m | 4.4m/s | -53.0°C | 1.6% | 142.8hPa | 2.8V | 00:00:00 | 00:00:00 | 00:00:00 | |
| DK7TD | 2026-09-02 05:29:29 | 49.64520 | 7.98282 | 113° | 64km/h | 14250m | 4.4m/s | 0°C | 0% | 0hPa | 2.8V | 04:18:23 | 00:58:29 | 00:00:00 | |
| SFWM-10 | 2026-09-02 05:29:28 | 49.64520 | 7.98282 | 114° | 64km/h | 14251m | 4.4m/s | -53.0°C | 1.6% | 142.8hPa | 2.8V | 04:18:00 | 00:00:00 | 00:00:00 | |
| DM0DOS-11 | 2026-09-02 05:29:27 | 49.64568 | 7.98123 | 117° | 66km/h | 14221m | 4.8m/s | 0°C | 0% | 0hPa | 2.8V | 04:17:49 | 00:58:22 | 00:00:00 | |
| BIOWL1-15 | 2026-09-02 05:29:27 | 49.64533 | 7.98236 | 116° | 66km/h | 14241m | 3.7m/s | -52.9°C | 0.9% | 143hPa | 2.7V | 04:18:23 | 00:58:27 | 00:00:00 | |
| DL1NUX | 2026-09-02 05:29:26 | 49.64576 | 7.98101 | 117° | 66km/h | 14216m | 4m/s | 0°C | 0% | 0hPa | 2.7V | 00:00:00 | 00:58:21 | 00:00:00 | |
| DL0LBS | 2026-09-02 05:29:25 | 49.64541 | 7.98213 | 117° | 64km/h | 14238m | 4.0m/s | -52.9°C | 1.6% | 143.0hPa | 2.7V | 04:18:00 | 00:00:00 | 00:00:00 | |
| SSTOLZ84 | 2026-09-02 05:29:24 | 49.64554 | 7.98168 | 114° | 62km/h | 14229m | 3.7m/s | -52.8°C | 1.6% | 143.2hPa | 2.7V | 00:00:00 | 00:00:00 | 00:00:00 | |
| CB1BUN | 2026-09-02 05:29:23 | 49.64554 | 7.98168 | 116° | 62km/h | 14229m | 3.7m/s | -52.8°C | 1.6% | 143.2hPa | 2.7V | 04:18:00 | 00:00:00 | 00:00:00 | |
| DO3MHA-11 | 2026-09-02 05:29:22 | 49.64568 | 7.98123 | 118° | 68km/h | 14221m | 4.8m/s | -52.7°C | 4.3% | 143.4hPa | 2.7V | 00:00:00 | 00:58:22 | 00:00:00 | |
| DJ2DS-15 | 2026-09-02 05:29:20 | 49.64584 | 7.98078 | 118° | 69km/h | 14213m | 4.3m/s | -52.7°C | 4.3% | 143.5hPa | 2.7V | 00:00:00 | 00:58:20 | 00:00:00 | |
| DJ2KF-10 | 2026-09-02 05:29:19 | 49.64591 | 7.98055 | 117° | 71km/h | 14208m | 4.6m/s | -52.6°C | 4.2% | 143.6hPa | 2.7V | 00:00:00 | 00:58:19 | 00:00:00 | |
| DF3TZ-5 | 2026-09-02 05:29:18 | 49.64598 | 7.98033 | 116° | 64km/h | 14204m | 3.3m/s | -52.7°C | 1.6% | 143.8hPa | 2.7V | 00:00:00 | 00:00:00 | 00:00:00 | |
| DM0DOS-11 | 2026-09-02 05:29:17 | 49.64645 | 7.97892 | 116° | 68km/h | 14179m | 3.3m/s | -52.6°C | 4.2% | 144.3hPa | 2.7V | 04:17:59 | 00:58:12 | 00:00:00 | |
| BIOWL1-15 | 2026-09-02 05:29:17 | 49.64606 | 7.98010 | 117° | 66km/h | 14200m | 4.6m/s | -52.6°C | 0.9% | 143.8hPa | 2.8V | 04:18:23 | 00:58:17 | 00:00:00 | |
| DK7TD | 2026-09-02 05:29:12 | 49.64645 | 7.97892 | 117° | 68km/h | 14179m | 3.3m/s | 0°C | 0% | 0hPa | 2.7V | 04:18:23 | 00:58:12 | 00:00:00 | |
| BIOWL1-15 | 2026-09-02 05:29:07 | 49.64698 | 7.97726 | 115° | 73km/h | 14150m | 5m/s | -52.7°C | 0.8% | 145hPa | 2.7V | 04:18:23 | 00:58:05 | 00:00:00 | |
| DK7TD | 2026-09-02 05:28:59 | 49.64748 | 7.97567 | 119° | 75km/h | 14125m | 4.6m/s | 0°C | 0% | 0hPa | 2.8V | 04:18:23 | 00:57:59 | 00:00:00 | |
| BIOWL1-15 | 2026-09-02 05:28:56 | 49.64790 | 7.97440 | 116° | 71km/h | 14105m | 4.6m/s | -52.5°C | 0.8% | 146hPa | 2.8V | 04:18:23 | 00:57:54 | 00:00:00 | |
| DK7TD | 2026-09-02 05:28:47 | 49.64850 | 7.97259 | 121° | 77km/h | 14075m | 3.4m/s | 0°C | 0% | 0hPa | 2.8V | 04:20:05 | 00:57:47 | 00:00:00 | |
| BIOWL1-15 | 2026-09-02 05:28:46 | 49.64860 | 7.97233 | 121° | 78km/h | 14071m | 4.1m/s | -52.3°C | 0.8% | 146.7hPa | 2.7V | 04:19:14 | 00:57:46 | 00:00:00 | |
| AU51GT2 | 2026-09-02 05:28:46 | 49.64870 | 7.97206 | 119° | 78km/h | 14067m | 4.2m/s | -52.3°C | 1.6% | 146.9hPa | 2.7V | 00:00:00 | 00:00:00 | 00:00:00 | |
| DK7TD | 2026-09-02 05:28:36 | 49.64951 | 7.96970 | 117° | 75km/h | 14031m | 4.8m/s | 0°C | 0% | 0hPa | 2.7V | 04:20:05 | 00:57:36 | 00:00:00 | |
| BIOWL1-15 | 2026-09-02 05:28:35 | 49.64960 | 7.96944 | 118° | 75km/h | 14027m | 3.8m/s | -52.1°C | 0.8% | 147.8hPa | 2.7V | 04:19:14 | 00:57:35 | 00:00:00 | |
| BIOWL1-15 | 2026-09-02 05:28:29 | 49.65046 | 7.96672 | 110° | 75km/h | 13985m | 4.4m/s | -51.9°C | 0.8% | 148.7hPa | 2.7V | 04:19:14 | 00:57:25 | 00:00:00 | |
| NBG1-10 | 2026-09-02 05:28:27 | 49.65032 | 7.96728 | 112° | 77km/h | 13993m | 4.5m/s | -51.9°C | 4.1% | 148.5hPa | 2.8V | 00:00:00 | 00:57:27 | 00:00:00 | |
| DL1NUX | 2026-09-02 05:28:26 | 49.65075 | 7.96566 | 114° | 75km/h | 13969m | 4.6m/s | 0°C | 0% | 0hPa | 2.8V | 00:00:00 | 00:57:21 | 00:00:00 | |
| DK7TD | 2026-09-02 05:28:26 | 49.65039 | 7.96700 | 111° | 77km/h | 13989m | 3.5m/s | 0°C | 0% | 0hPa | 2.8V | 04:20:05 | 00:57:26 | 00:00:00 | |
| BIOWL1-15 | 2026-09-02 05:28:18 | 49.65154 | 7.96293 | 110° | 75km/h | 13927m | 3.9m/s | -51.8°C | 0.9% | 150.1hPa | 2.7V | 04:19:14 | 00:57:11 | 00:00:00 | |
| DK7TD | 2026-09-02 05:28:15 | 49.65126 | 7.96406 | 114° | 78km/h | 13943m | 4.4m/s | 0°C | 0% | 0hPa | 2.8V | 04:20:05 | 00:57:15 | 00:00:00 | |
| HEMX73-11 | 2026-09-02 05:28:15 | 49.65133 | 7.96377 | 113° | 80km/h | 13939m | 3.6m/s | -51.8°C | 1.5% | 149.8hPa | 2.7V | 04:19:00 | 00:00:00 | 00:00:00 | |
| DB0UT-7 | 2026-09-02 05:28:14 | 49.65141 | 7.96349 | 111° | 77km/h | 13936m | 3.4m/s | -51.7°C | 4.1% | 149.8hPa | 2.7V | 00:00:00 | 00:00:00 | 00:00:00 | |
| DM0DOS-11 | 2026-09-02 05:28:13 | 49.65180 | 7.96182 | 111° | 75km/h | 13911m | 3.8m/s | -51.8°C | 4.1% | 150.4hPa | 2.7V | 04:19:04 | 00:57:07 | 00:00:00 | |
| DK7TD | 2026-09-02 05:28:05 | 49.65202 | 7.96104 | 115° | 73km/h | 13899m | 3.5m/s | 0°C | 0% | 0hPa | 2.7V | 04:20:05 | 00:57:04 | 00:00:00 | |
| BIOWL1-15 | 2026-09-02 05:28:03 | 49.65210 | 7.96077 | 114° | 77km/h | 13896m | 4.7m/s | -51.8°C | 0.8% | 150.8hPa | 2.7V | 04:19:14 | 00:57:03 | 00:00:00 | |
| BIOWL1-15 | 2026-09-02 05:27:55 | 49.65285 | 7.95799 | 113° | 75km/h | 13854m | 4.6m/s | -51.7°C | 0.9% | 151.8hPa | 2.7V | 04:20:05 | 00:56:53 | 00:00:00 | |
| SSTOLZ84 | 2026-09-02 05:27:51 | 49.65327 | 7.95631 | 110° | 78km/h | 13831m | 4.3m/s | -51.5°C | 1.6% | 152.3hPa | 2.8V | 00:00:00 | 00:00:00 | 00:00:00 | |
| DF3TZ-5 | 2026-09-02 05:27:45 | 49.65341 | 7.95576 | 112° | 73km/h | 13823m | 3.4m/s | -51.5°C | 1.5% | 152.5hPa | 2.8V | 00:00:00 | 00:00:00 | 00:00:00 | |
| BIOWL1-15 | 2026-09-02 05:27:42 | 49.65364 | 7.95495 | 114° | 77km/h | 13811m | 4.2m/s | -51.7°C | 0.8% | 152.8hPa | 2.8V | 04:20:05 | 00:56:42 | 00:00:00 | |
| DO3MHA-11 | 2026-09-02 05:27:42 | 49.65364 | 7.95495 | 114° | 78km/h | 13811m | 4.1m/s | -51.6°C | 4.0% | 152.7hPa | 2.7V | 00:00:00 | 00:56:42 | 00:00:00 | |
| CB1BUN | 2026-09-02 05:27:41 | 49.65364 | 7.95495 | 115° | 77km/h | 13811m | 4.2m/s | -51.7°C | 1.6% | 152.8hPa | 2.8V | 04:20:00 | 00:00:00 | 00:00:00 | |
| DF7PN | 2026-09-02 05:27:40 | 49.65388 | 7.95411 | 113° | 77km/h | 13799m | 4.5m/s | -51.8°C | 1.6% | 153.0hPa | 2.8V | 00:00:00 | 00:00:00 | 00:00:00 | |
| DJ2DS-15 | 2026-09-02 05:27:39 | 49.65388 | 7.95411 | 114° | 84km/h | 13800m | 4.5m/s | -51.8°C | 4.1% | 153.0hPa | 2.8V | 00:00:00 | 00:56:39 | 00:00:00 | |
| DB0UT-9 | 2026-09-02 05:27:38 | 49.65388 | 7.95411 | 115° | 77km/h | 13800m | 4.5m/s | -51.8°C | 1.6% | 153.0hPa | 2.8V | 04:20:00 | 00:00:00 | 00:00:00 | |
| DM0DOS-11 | 2026-09-02 05:27:37 | 49.65430 | 7.95272 | 117° | 80km/h | 13779m | 4.9m/s | -51.9°C | 4.1% | 153.5hPa | 2.8V | 04:19:37 | 00:56:34 | 00:00:00 | |
| BIOWL1-15 | 2026-09-02 05:27:32 | 49.65449 | 7.95217 | 119° | 80km/h | 13771m | 4m/s | -51.9°C | 0.8% | 153.7hPa | 2.7V | 04:20:05 | 00:56:32 | 00:00:00 | |
| DK5PH-5 | 2026-09-02 05:27:32 | 49.65449 | 7.95217 | 119° | 86km/h | 13771m | 3.9m/s | -51.8°C | 4.1% | 153.7hPa | 2.7V | 04:19:00 | 00:56:32 | 00:00:00 | |
| DM7RM-13 | 2026-09-02 05:27:30 | 49.65459 | 7.95189 | 120° | 82km/h | 13766m | 4.6m/s | -51.9°C | 1.7% | 153.8hPa | 2.7V | 04:20:00 | 00:00:00 | 00:00:00 | |
| DJ2DS-15 | 2026-09-02 05:27:29 | 49.65489 | 7.95104 | 117° | 82km/h | 13753m | 3.8m/s | -52.0°C | 1.6% | 154.1hPa | 2.7V | 00:00:00 | 00:00:00 | 00:00:00 | |
| DM3KS-11 | 2026-09-02 05:27:28 | 49.65499 | 7.95076 | 116° | 82km/h | 13750m | 3.8m/s | -52.1°C | 1.7% | 154.2hPa | 2.7V | 00:00:00 | 00:00:00 | 00:00:00 | |
| DM0DOS-11 | 2026-09-02 05:27:27 | 49.65528 | 7.94985 | 116° | 89km/h | 13737m | 3.5m/s | -52.4°C | 4.3% | 154.5hPa | 2.7V | 04:19:47 | 00:56:24 | 00:00:00 | |
| BIOWL1-15 | 2026-09-02 05:27:21 | 49.65557 | 7.94894 | 116° | 86km/h | 13725m | 3.4m/s | -52.4°C | 0.9% | 154.8hPa | 2.8V | 04:20:05 | 00:56:21 | 00:00:00 | |
| DK7TD | 2026-09-02 05:27:20 | 49.65567 | 7.94864 | 117° | 88km/h | 13721m | 4.5m/s | 0°C | 0% | 0hPa | 2.8V | 04:20:05 | 00:56:20 | 00:00:00 | |
| SSTOLZ84 | 2026-09-02 05:27:20 | 49.65567 | 7.94864 | 116° | 86km/h | 13721m | 4.5m/s | -52.5°C | 1.7% | 154.9hPa | 2.8V | 00:00:00 | 00:00:00 | 00:00:00 | |
| DJ2KF-10 | 2026-09-02 05:27:19 | 49.65577 | 7.94834 | 117° | 84km/h | 13717m | 4.1m/s | -52.4°C | 4.3% | 154.9hPa | 2.8V | 00:00:00 | 00:56:19 | 00:00:00 | |
| DB0UT-9 | 2026-09-02 05:27:18 | 49.65577 | 7.94834 | 117° | 88km/h | 13717m | 4.1m/s | -52.5°C | 1.7% | 155.0hPa | 2.8V | 04:20:00 | 00:00:00 | 00:00:00 | |
| DM0DOS-11 | 2026-09-02 05:27:17 | 49.65625 | 7.94685 | 114° | 84km/h | 13697m | 4.4m/s | -52.4°C | 4.3% | 155.5hPa | 2.8V | 04:19:57 | 00:56:14 | 00:00:00 | |
| BIOWL1-15 | 2026-09-02 05:27:11 | 49.65649 | 7.94593 | 111° | 86km/h | 13684m | 4.3m/s | -52.3°C | 1% | 155.8hPa | 2.7V | 04:20:05 | 00:56:11 | 00:00:00 | |
| DM7RM-13 | 2026-09-02 05:27:10 | 49.65649 | 7.94593 | 112° | 86km/h | 13684m | 4.3m/s | -52.3°C | 1.7% | 155.8hPa | 2.8V | 04:20:00 | 00:00:00 | 00:00:00 | |
| DF7PN | 2026-09-02 05:27:09 | 49.65671 | 7.94500 | 108° | 86km/h | 13672m | 4.4m/s | -52.3°C | 1.7% | 156.1hPa | 2.8V | 00:00:00 | 00:00:00 | 00:00:00 | |
| DM0DOS-11 | 2026-09-02 05:27:07 | 49.65701 | 7.94371 | 110° | 86km/h | 13654m | 3.9m/s | -52.2°C | 4.3% | 156.5hPa | 2.8V | 04:20:07 | 00:56:04 | 00:00:00 | |
| DK7TD | 2026-09-02 05:27:06 | 49.65686 | 7.94435 | 109° | 89km/h | 13663m | 3.8m/s | 0°C | 0% | 0hPa | 2.7V | 04:20:05 | 00:56:06 | 00:00:00 | |
| BIOWL1-15 | 2026-09-02 05:27:01 | 49.65724 | 7.94278 | 111° | 86km/h | 13642m | 4.5m/s | -52.1°C | 0.9% | 156.8hPa | 2.7V | 04:20:56 | 00:56:01 | 00:00:00 | |
| BIOWL1-15 | 2026-09-02 05:26:53 | 49.65797 | 7.93975 | 108° | 82km/h | 13602m | 4m/s | -52°C | 1% | 157.8hPa | 2.7V | 04:20:56 | 00:55:51 | 00:00:00 | |
| DJ2DS-15 | 2026-09-02 05:26:53 | 49.65790 | 7.94005 | 109° | 80km/h | 13606m | 4.0m/s | -52.0°C | 1.7% | 157.7hPa | 2.7V | 00:00:00 | 00:00:00 | 00:00:00 | |
| SSTOLZ84 | 2026-09-02 05:26:49 | 49.65816 | 7.93882 | 107° | 82km/h | 13589m | 3.6m/s | -52.1°C | 1.7% | 158.1hPa | 2.7V | 00:00:00 | 00:00:00 | 00:00:00 | |
| BIOWL1-15 | 2026-09-02 05:26:41 | 49.65863 | 7.93674 | 112° | 80km/h | 13560m | 4.9m/s | -52.1°C | 1% | 158.8hPa | 2.7V | 04:20:56 | 00:55:41 | 00:00:00 | |
| DL8DAS-15 | 2026-09-02 05:26:41 | 49.65862 | 7.93674 | 112° | 80km/h | 13561m | 4.9m/s | -52.1°C | 1.8% | 158.8hPa | 2.7V | 04:20:00 | 00:00:00 | 00:00:00 | |
| SFWM-10 | 2026-09-02 05:26:40 | 49.65862 | 7.93674 | 112° | 80km/h | 13561m | 4.9m/s | -52.1°C | 0% | 0hPa | 2.7V | 04:20:00 | 00:00:00 | 00:00:00 | |
| DJ2DS-15 | 2026-09-02 05:26:39 | 49.65878 | 7.93617 | 113° | 77km/h | 13553m | 3.2m/s | -52.0°C | 4.3% | 159.0hPa | 2.7V | 00:00:00 | 00:55:39 | 00:00:00 | |
| DM0DOS-11 | 2026-09-02 05:26:37 | 49.65908 | 7.93496 | 109° | 84km/h | 13538m | 3.4m/s | -52.1°C | 4.4% | 159.3hPa | 2.7V | 04:20:36 | 00:55:35 | 00:00:00 | |
| BIOWL1-15 | 2026-09-02 05:26:33 | 49.65936 | 7.93380 | 111° | 75km/h | 13522m | 4.3m/s | -52.1°C | 1.2% | 159.7hPa | 2.8V | 04:20:56 | 00:55:31 | 00:00:00 | |
| DO3MHA-11 | 2026-09-02 05:26:32 | 49.65929 | 7.93407 | 112° | 73km/h | 13526m | 3.3m/s | -52.0°C | 4.4% | 159.6hPa | 2.7V | 00:00:00 | 00:55:32 | 00:00:00 | |
| HEMX73-11 | 2026-09-02 05:26:31 | 49.65929 | 7.93407 | 112° | 77km/h | 13526m | 3.4m/s | -52.1°C | 1.8% | 159.7hPa | 2.7V | 04:20:00 | 00:00:00 | 00:00:00 | |
| DM7RM-13 | 2026-09-02 05:26:29 | 49.65942 | 7.93353 | 110° | 73km/h | 13518m | 4.5m/s | -52.2°C | 1.9% | 159.8hPa | 2.7V | 04:20:00 | 00:00:00 | 00:00:00 | |
| DM0DOS-11 | 2026-09-02 05:26:27 | 49.65978 | 7.93195 | 109° | 71km/h | 13494m | 4.6m/s | -52.1°C | 4.4% | 160.5hPa | 2.7V | 04:20:47 | 00:55:24 | 00:00:00 | |
| BIOWL1-15 | 2026-09-02 05:26:25 | 49.65997 | 7.93113 | 111° | 78km/h | 13482m | 4m/s | -52°C | 1.2% | 160.7hPa | 2.7V | 04:20:56 | 00:55:21 | 00:00:00 | |
| BIOWL1-15 | 2026-09-02 05:26:12 | 49.66069 | 7.92811 | 112° | 75km/h | 13441m | 4.6m/s | -52.1°C | 1.5% | 161.8hPa | 2.8V | 04:21:47 | 00:55:10 | 00:00:00 | |
| DO3MHA-11 | 2026-09-02 05:26:12 | 49.66056 | 7.92865 | 109° | 75km/h | 13448m | 3.4m/s | -52.0°C | 4.6% | 161.5hPa | 2.7V | 00:00:00 | 00:55:12 | 00:00:00 | |
| HEMX73-11 | 2026-09-02 05:26:11 | 49.66056 | 7.92865 | 110° | 71km/h | 13448m | 3.5m/s | -52.0°C | 2.0% | 161.6hPa | 2.7V | 04:21:00 | 00:00:00 | 00:00:00 | |
| AU51GT2 | 2026-09-02 05:26:10 | 49.66069 | 7.92811 | 111° | 73km/h | 13441m | 4.6m/s | -52.1°C | 2.0% | 161.8hPa | 2.7V | 00:00:00 | 00:00:00 | 00:00:00 | |
| BIOWL7-15 | 2026-09-02 05:26:09 | 49.66069 | 7.92811 | 113° | 75km/h | 13441m | 4.6m/s | -52.1°C | 2.0% | 161.8hPa | 2.7V | 00:00:00 | 00:00:00 | 00:00:00 | |
| DL8DAS-15 | 2026-09-02 05:26:08 | 49.66076 | 7.92784 | 115° | 75km/h | 13437m | 4.0m/s | -52.1°C | 2.0% | 161.9hPa | 2.7V | 00:00:00 | 00:00:00 | 00:00:00 | |
| DM0DOS-11 | 2026-09-02 05:26:07 | 49.66114 | 7.92649 | 112° | 73km/h | 13418m | 3.5m/s | -52.4°C | 4.7% | 162.3hPa | 2.7V | 04:21:07 | 00:55:04 | 00:00:00 | |
| BIOWL1-15 | 2026-09-02 05:25:59 | 49.66150 | 7.92522 | 113° | 68km/h | 13398m | 4m/s | -52.3°C | 1.5% | 162.8hPa | 2.7V | 04:21:47 | 00:54:59 | 00:00:00 | |
| DJ2DS-15 | 2026-09-02 05:25:59 | 49.66150 | 7.92522 | 113° | 68km/h | 13399m | 4.0m/s | -52.3°C | 4.6% | 162.8hPa | 2.7V | 00:00:00 | 00:54:59 | 00:00:00 | |
| CB1BUN | 2026-09-02 05:25:58 | 49.66150 | 7.92522 | 114° | 68km/h | 13399m | 4.0m/s | -52.3°C | 2.0% | 162.8hPa | 2.7V | 04:21:00 | 00:00:00 | 00:00:00 | |
| DM0DOS-11 | 2026-09-02 05:25:57 | 49.66185 | 7.92397 | 115° | 71km/h | 13381m | 3.3m/s | -52.2°C | 4.7% | 163.3hPa | 2.7V | 04:21:17 | 00:54:54 | 00:00:00 | |
| BIOWL1-15 | 2026-09-02 05:25:48 | 49.66226 | 7.92249 | 113° | 69km/h | 13359m | 3.4m/s | -52.1°C | 1.5% | 163.8hPa | 2.7V | 04:21:47 | 00:54:48 | 00:00:00 | |
| DM0DOS-11 | 2026-09-02 05:25:47 | 49.66254 | 7.92155 | 114° | 66km/h | 13343m | 4.7m/s | -52°C | 4.5% | 164.2hPa | 2.8V | 04:21:27 | 00:54:44 | 00:00:00 | |
| SSTOLZ84 | 2026-09-02 05:25:47 | 49.66240 | 7.92201 | 114° | 64km/h | 13351m | 4.2m/s | -52.0°C | 2.0% | -1.0hPa | 2.7V | 00:00:00 | 00:00:00 | 00:00:00 | |
| DL8DAS-15 | 2026-09-02 05:25:45 | 49.66240 | 7.92201 | 115° | 66km/h | 13351m | 4.2m/s | -52.0°C | 2.0% | 164.0hPa | 2.7V | 00:00:00 | 00:00:00 | 00:00:00 | |
| DO3MHA-11 | 2026-09-02 05:25:42 | 49.66268 | 7.92108 | 115° | 66km/h | 13336m | 2.8m/s | -51.9°C | 4.4% | 164.4hPa | 2.7V | 00:00:00 | 00:54:42 | 00:00:00 | |
| DF3TZ-5 | 2026-09-02 05:25:41 | 49.66275 | 7.92084 | 113° | 66km/h | 13332m | 4.4m/s | -51.9°C | 1.8% | 164.5hPa | 2.7V | 00:00:00 | 00:00:00 | 00:00:00 | |
| DJ2DS-15 | 2026-09-02 05:25:40 | 49.66281 | 7.92061 | 112° | 64km/h | 13327m | 4.4m/s | -51.9°C | 1.8% | 164.7hPa | 2.7V | 00:00:00 | 00:00:00 | 00:00:00 | |
| DJ2DS-15 | 2026-09-02 05:25:39 | 49.66288 | 7.92038 | 114° | 69km/h | 13323m | 3.5m/s | -51.8°C | 4.4% | 164.7hPa | 2.7V | 04:21:00 | 00:54:39 | 00:00:00 | |
| DM0DOS-11 | 2026-09-02 05:25:38 | 49.66325 | 7.91920 | 117° | 66km/h | 13305m | 3.9m/s | -52°C | 4.6% | 165.2hPa | 2.7V | 04:21:37 | 00:54:34 | 00:00:00 | |
| BIOWL1-15 | 2026-09-02 05:25:37 | 49.66301 | 7.91990 | 115° | 68km/h | 13316m | 3.2m/s | -51.9°C | 1.3% | 164.9hPa | 2.8V | 04:21:47 | 00:54:37 | 00:00:00 | |
| BIOWL1-15 | 2026-09-02 05:25:28 | 49.66383 | 7.91728 | 112° | 69km/h | 13275m | 4.4m/s | -51.8°C | 1.1% | 165.9hPa | 2.8V | 04:21:47 | 00:54:26 | 00:00:00 | |
| DM0DOS-11 | 2026-09-02 05:25:27 | 49.66397 | 7.91677 | 115° | 73km/h | 13267m | 3.3m/s | -51.8°C | 4.3% | 166.1hPa | 2.8V | 04:21:47 | 00:54:24 | 00:00:00 | |
| DL9PN | 2026-09-02 05:25:25 | 49.66397 | 7.91677 | 115° | 71km/h | 13267m | 3.3m/s | -51.8°C | 1.8% | 166.2hPa | 2.7V | 00:00:00 | 00:00:00 | 00:00:00 | |
| DO1YAY-16 | 2026-09-02 05:25:24 | 49.66397 | 7.91677 | 115° | 71km/h | 13267m | 3.3m/s | -51.8°C | 1.8% | 166.2hPa | 2.7V | 00:00:00 | 00:00:00 | 00:00:00 | |
| DM3KS-11 | 2026-09-02 05:25:23 | 49.66405 | 7.91651 | 116° | 71km/h | 13263m | 4.0m/s | -51.8°C | 1.8% | 166.2hPa | 2.7V | 00:00:00 | 00:00:00 | 00:00:00 | |
| DO3MHA-11 | 2026-09-02 05:25:22 | 49.66413 | 7.91627 | 118° | 75km/h | 13259m | 3.8m/s | -51.8°C | 4.3% | 166.3hPa | 2.7V | 00:00:00 | 00:54:22 | 00:00:00 | |
| DB0ND-19 | 2026-09-02 05:25:21 | 49.66430 | 7.91577 | 116° | 71km/h | 13253m | 3.3m/s | -51.8°C | 1.8% | 166.6hPa | 2.7V | 00:00:00 | 00:00:00 | 00:00:00 | |
| DJ2KF-10 | 2026-09-02 05:25:19 | 49.66438 | 7.91551 | 118° | 77km/h | 13249m | 4.3m/s | -51.8°C | 4.3% | 166.6hPa | 2.7V | 04:21:00 | 00:54:19 | 00:00:00 | |
| DM0DOS-11 | 2026-09-02 05:25:17 | 49.66481 | 7.91419 | 116° | 75km/h | 13231m | 3.1m/s | -51.9°C | 4.4% | 167.1hPa | 2.7V | 04:21:57 | 00:54:14 | 00:00:00 | |
| BIOWL1-15 | 2026-09-02 05:25:16 | 49.66464 | 7.91471 | 116° | 77km/h | 13238m | 4.3m/s | -51.9°C | 1.2% | 166.9hPa | 2.8V | 04:22:38 | 00:54:16 | 00:00:00 | |
| DL4BBY-15 | 2026-09-02 05:25:16 | 49.66464 | 7.91471 | 117° | 78km/h | 13238m | 4.3m/s | -53.2°C | 0% | 0hPa | 2.7V | 00:00:00 | 00:00:00 | 00:00:00 | |
| SFWM-10 | 2026-09-02 05:25:15 | 49.66464 | 7.91471 | 117° | 77km/h | 13238m | 4.3m/s | 0°C | 0% | 0hPa | 2.7V | 04:22:00 | 00:00:00 | 00:00:00 | |
| DO3MHA-11 | 2026-09-02 05:25:12 | 49.66498 | 7.91366 | 117° | 73km/h | 13224m | 3.1m/s | -51.8°C | 4.3% | 167.3hPa | 2.7V | 00:00:00 | 00:54:12 | 00:00:00 | |
| DF3TZ-5 | 2026-09-02 05:25:10 | 49.66514 | 7.91314 | 114° | 71km/h | 13216m | 3.7m/s | -51.9°C | 1.8% | 167.5hPa | 2.7V | 00:00:00 | 00:00:00 | 00:00:00 | |
| AU51GT2 | 2026-09-02 05:25:08 | 49.66529 | 7.91262 | 115° | 71km/h | 13209m | 4.3m/s | -51.9°C | 1.8% | 167.7hPa | 2.7V | 00:00:00 | 00:00:00 | 00:00:00 | |
| DM0DOS-11 | 2026-09-02 05:25:07 | 49.66563 | 7.91162 | 117° | 71km/h | 13193m | 3.5m/s | -52°C | 4.3% | 168.1hPa | 2.7V | 04:22:07 | 00:54:04 | 00:00:00 | |
| BIOWL1-15 | 2026-09-02 05:25:06 | 49.66546 | 7.91212 | 117° | 73km/h | 13201m | 4m/s | -52°C | 1.1% | 167.8hPa | 2.8V | 04:22:38 | 00:54:06 | 00:00:00 | |
| DF7PN | 2026-09-02 05:25:04 | 49.66563 | 7.91162 | 117° | 71km/h | 13193m | 3.5m/s | -52.0°C | 1.8% | 168.1hPa | 2.8V | 00:00:00 | 00:00:00 | 00:00:00 | |
| DK5PH-5 | 2026-09-02 05:25:02 | 49.66580 | 7.91111 | 118° | 82km/h | 13184m | 3.8m/s | -52.0°C | 4.3% | 168.2hPa | 2.8V | 04:22:00 | 00:54:02 | 00:00:00 | |
| DO3MHA-11 | 2026-09-02 05:25:01 | 49.66589 | 7.91084 | 120° | 80km/h | 13181m | 3.0m/s | -52.1°C | 4.3% | 168.3hPa | 2.8V | 00:00:00 | 00:54:01 | 00:00:00 | |
| DL0LBS | 2026-09-02 05:25:00 | 49.66589 | 7.91084 | 120° | 78km/h | 13181m | 3.1m/s | -52.1°C | 1.8% | 168.3hPa | 2.8V | 04:22:00 | 00:00:00 | 00:00:00 | |
| DJ2DS-15 | 2026-09-02 05:24:59 | 49.66609 | 7.91032 | 122° | 82km/h | 13172m | 4.1m/s | -52.2°C | 4.4% | 168.5hPa | 2.8V | 00:00:00 | 00:53:59 | 00:00:00 | |
| DM0DOS-11 | 2026-09-02 05:24:57 | 49.66661 | 7.90900 | 119° | 82km/h | 13154m | 3m/s | -52.3°C | 4.4% | 169.1hPa | 2.8V | 04:22:17 | 00:53:54 | 00:00:00 | |
| BIOWL1-15 | 2026-09-02 05:24:55 | 49.66651 | 7.90928 | 120° | 82km/h | 13158m | 4.1m/s | -52.3°C | 1.2% | 169hPa | 2.8V | 04:22:38 | 00:53:55 | 00:00:00 | |
| DO1YAY-16 | 2026-09-02 05:24:53 | 49.66672 | 7.90872 | 119° | 80km/h | 13151m | 4.1m/s | -52.3°C | 1.9% | 169.2hPa | 2.7V | 00:00:00 | 00:00:00 | 00:00:00 | |
| DM3KS-11 | 2026-09-02 05:24:52 | 49.66682 | 7.90844 | 119° | 80km/h | 13147m | 3.7m/s | -52.4°C | 1.8% | 169.3hPa | 2.7V | 00:00:00 | 00:00:00 | 00:00:00 | |
| DB0ND-19 | 2026-09-02 05:24:50 | 49.66711 | 7.90760 | 116° | 82km/h | 13136m | 3.6m/s | -52.5°C | 1.9% | 169.5hPa | 2.7V | 00:00:00 | 00:00:00 | 00:00:00 | |
| HEMX73-11 | 2026-09-02 05:24:48 | 49.66711 | 7.90760 | 118° | 84km/h | 13136m | 3.6m/s | -52.5°C | 1.9% | 169.5hPa | 2.7V | 04:22:00 | 00:00:00 | 00:00:00 | |
| DM0DOS-11 | 2026-09-02 05:24:47 | 49.66762 | 7.90617 | 119° | 84km/h | 13118m | 4.3m/s | -52.7°C | 4.5% | 170hPa | 2.7V | 04:22:27 | 00:53:44 | 00:00:00 | |
| BIOWL1-15 | 2026-09-02 05:24:46 | 49.66762 | 7.90617 | 120° | 84km/h | 13118m | 4.3m/s | -52.7°C | 1.3% | 170hPa | 2.7V | 04:22:38 | 00:53:44 | 00:00:00 | |
| BIOWL9-15 | 2026-09-02 05:24:45 | 49.66752 | 7.90646 | 120° | 82km/h | 13122m | 3.8m/s | -52.7°C | 1.9% | 169.9hPa | 2.7V | 00:00:00 | 00:00:00 | 00:00:00 | |
| DL4BBY-15 | 2026-09-02 05:24:42 | 49.66783 | 7.90559 | 118° | 84km/h | 13111m | 2.9m/s | -54.0°C | 0% | 0hPa | 2.7V | 00:00:00 | 00:00:00 | 00:00:00 | |
| DO3MHA-11 | 2026-09-02 05:24:41 | 49.66793 | 7.90530 | 118° | 84km/h | 13107m | 4.0m/s | -52.7°C | 4.6% | 170.2hPa | 2.7V | 04:22:00 | 00:53:41 | 00:00:00 | |
| DL0LBS | 2026-09-02 05:24:40 | 49.66793 | 7.90530 | 119° | 86km/h | 13107m | 4.0m/s | -52.8°C | 1.9% | 170.3hPa | 2.8V | 04:22:00 | 00:00:00 | 00:00:00 | |
| DJ2DS-15 | 2026-09-02 05:24:39 | 49.66812 | 7.90471 | 116° | 84km/h | 13101m | 3.3m/s | -52.7°C | 4.5% | 170.4hPa | 2.8V | 00:00:00 | 00:53:39 | 00:00:00 | |
| DM0DOS-11 | 2026-09-02 05:24:37 | 49.66853 | 7.90319 | 112° | 82km/h | 13080m | 3.2m/s | -52.7°C | 4.5% | 171hPa | 2.8V | 04:22:37 | 00:53:34 | 00:00:00 | |
| BIOWL1-15 | 2026-09-02 05:24:36 | 49.66853 | 7.90319 | 113° | 82km/h | 13080m | 3.2m/s | -52.7°C | 1.2% | 171hPa | 2.8V | 04:22:38 | 00:53:34 | 00:00:00 | |
| NBG1-10 | 2026-09-02 05:24:36 | 49.66837 | 7.90379 | 112° | 80km/h | 13089m | 4.2m/s | -52.6°C | 4.5% | 170.7hPa | 2.8V | 00:00:00 | 00:53:36 | 00:00:00 | |
| DF7PN | 2026-09-02 05:24:33 | 49.66861 | 7.90289 | 112° | 84km/h | 13077m | 4.6m/s | -52.6°C | 1.9% | 171.1hPa | 2.8V | 00:00:00 | 00:00:00 | 00:00:00 | |
| DK5PH-5 | 2026-09-02 05:24:32 | 49.66869 | 7.90258 | 113° | 80km/h | 13073m | 3.4m/s | -52.6°C | 4.5% | 171.2hPa | 2.8V | 00:00:00 | 00:53:32 | 00:00:00 | |
| DO3MHA-11 | 2026-09-02 05:24:31 | 49.66878 | 7.90227 | 113° | 84km/h | 13070m | 2.6m/s | -52.5°C | 4.5% | 171.2hPa | 2.8V | 00:00:00 | 00:53:31 | 00:00:00 | |
| DL8DAS-14 | 2026-09-02 05:24:29 | 49.66896 | 7.90165 | 114° | 86km/h | 13062m | 3.8m/s | -52.5°C | 1.9% | 171.5hPa | 2.8V | 00:00:00 | 00:00:00 | 00:00:00 | |
| DJ2DS-15 | 2026-09-02 05:24:28 | 49.66905 | 7.90134 | 114° | 86km/h | 13059m | 3.2m/s | -52.5°C | 1.8% | 171.6hPa | 2.8V | 00:00:00 | 00:00:00 | 00:00:00 | |
| DM0DOS-11 | 2026-09-02 05:24:27 | 49.66940 | 7.90012 | 114° | 82km/h | 13044m | 3.9m/s | -52.7°C | 4.4% | 172hPa | 2.8V | 04:22:47 | 00:53:24 | 00:00:00 | |
| BIOWL1-15 | 2026-09-02 05:24:23 | 49.66948 | 7.89984 | 114° | 80km/h | 13041m | 3.2m/s | -52.8°C | 1.2% | 172.1hPa | 2.8V | 04:23:29 | 00:53:23 | 00:00:00 | |
| DO1YAY-16 | 2026-09-02 05:24:22 | 49.66956 | 7.89955 | 112° | 78km/h | 13037m | 4.3m/s | -52.8°C | 1.9% | 172.2hPa | 2.7V | 00:00:00 | 00:00:00 | 00:00:00 | |
| DO3MHA-11 | 2026-09-02 05:24:21 | 49.66964 | 7.89927 | 112° | 80km/h | 13034m | 3.0m/s | -52.8°C | 4.5% | 172.2hPa | 2.7V | 00:00:00 | 00:53:21 | 00:00:00 | |
| DB0ND-19 | 2026-09-02 05:24:19 | 49.66988 | 7.89841 | 114° | 80km/h | 13022m | 3.5m/s | -52.8°C | 1.9% | 172.5hPa | 2.7V | 00:00:00 | 00:00:00 | 00:00:00 | |
| DM0DOS-11 | 2026-09-02 05:24:17 | 49.67022 | 7.89724 | 115° | 82km/h | 13008m | 3.9m/s | -53°C | 4.6% | 172.9hPa | 2.7V | 04:22:57 | 00:53:14 | 00:00:00 | |
| BIOWL1-15 | 2026-09-02 05:24:12 | 49.67041 | 7.89669 | 118° | 78km/h | 13000m | 3.3m/s | -53°C | 1.3% | 173.2hPa | 2.7V | 04:23:29 | 00:53:12 | 00:00:00 | |
| DL4BBY-15 | 2026-09-02 05:24:12 | 49.67041 | 7.89669 | 119° | 78km/h | 13000m | 3.3m/s | -54.2°C | 0% | 0hPa | 2.7V | 00:00:00 | 00:00:00 | 00:00:00 | |
| DO3MHA-11 | 2026-09-02 05:24:11 | 49.67050 | 7.89642 | 118° | 75km/h | 12996m | 4.7m/s | -52.9°C | 4.6% | 173.2hPa | 2.7V | 00:00:00 | 00:53:11 | 00:00:00 | |
| DF1GD-15 | 2026-09-02 05:24:10 | 49.67050 | 7.89642 | 119° | 77km/h | 12996m | 4.7m/s | -53.0°C | 2.0% | 173.2hPa | 2.8V | 04:23:00 | 00:00:00 | 00:00:00 | |
| DF3TZ-5 | 2026-09-02 05:24:08 | 49.67076 | 7.89563 | 117° | 75km/h | 12985m | 4.1m/s | -52.9°C | 1.9% | 173.6hPa | 2.8V | 00:00:00 | 00:00:00 | 00:00:00 | |
| DM0DOS-11 | 2026-09-02 05:24:07 | 49.67111 | 7.89459 | 115° | 75km/h | 12969m | 3.8m/s | -52.8°C | 4.7% | 174hPa | 2.8V | 04:23:07 | 00:53:04 | 00:00:00 | |
| BIOWL1-15 | 2026-09-02 05:24:01 | 49.67135 | 7.89380 | 117° | 77km/h | 12958m | 4.1m/s | -52.7°C | 1.4% | 174.3hPa | 2.7V | 04:23:29 | 00:53:01 | 00:00:00 | |
| DO3MHA-11 | 2026-09-02 05:24:01 | 49.67135 | 7.89380 | 118° | 80km/h | 12958m | 4.0m/s | -52.7°C | 4.7% | 174.2hPa | 2.7V | 00:00:00 | 00:53:01 | 00:00:00 | |
| DL8DAS-15 | 2026-09-02 05:24:00 | 49.67135 | 7.89380 | 118° | 77km/h | 12958m | 4.1m/s | -52.7°C | 2.0% | 174.3hPa | 2.7V | 00:00:00 | 00:00:00 | 00:00:00 | |
| DJ2DS-15 | 2026-09-02 05:23:59 | 49.67153 | 7.89326 | 118° | 82km/h | 12951m | 3.8m/s | -52.6°C | 4.6% | 174.4hPa | 2.7V | 04:23:00 | 00:52:59 | 00:00:00 | |
| DN1GJH-1 | 2026-09-02 05:23:58 | 49.67153 | 7.89326 | 118° | 78km/h | 12951m | 3.8m/s | 0°C | 0% | 174.5hPa | 2.7V | 04:23:00 | 00:00:00 | 00:00:00 | |
| DM0DOS-11 | 2026-09-02 05:23:57 | 49.67197 | 7.89183 | 115° | 84km/h | 12929m | 4.2m/s | -52.7°C | 4.4% | 175hPa | 2.7V | 04:23:17 | 00:52:54 | 00:00:00 | |
| BIOWL1-15 | 2026-09-02 05:23:53 | 49.67224 | 7.89097 | 115° | 78km/h | 12917m | 3.4m/s | -52.6°C | 1.3% | 175.4hPa | 2.8V | 04:23:29 | 00:52:51 | 00:00:00 | |
| DJ2DS-15 | 2026-09-02 05:23:52 | 49.67215 | 7.89125 | 115° | 78km/h | 12921m | 4.3m/s | -52.6°C | 1.9% | 175.3hPa | 2.7V | 00:00:00 | 00:00:00 | 00:00:00 | |
| DO1YAY-16 | 2026-09-02 05:23:51 | 49.67224 | 7.89097 | 115° | 78km/h | 12917m | 3.4m/s | -52.6°C | 1.9% | 175.4hPa | 2.7V | 00:00:00 | 00:00:00 | 00:00:00 | |
| DM3KS-11 | 2026-09-02 05:23:50 | 49.67233 | 7.89069 | 115° | 78km/h | 12913m | 4.1m/s | -52.6°C | 1.9% | 175.5hPa | 2.7V | 00:00:00 | 00:00:00 | 00:00:00 | |
| DB0ND-19 | 2026-09-02 05:23:48 | 49.67259 | 7.88982 | 113° | 82km/h | 12901m | 3.9m/s | -52.5°C | 1.9% | 175.8hPa | 2.7V | 00:00:00 | 00:00:00 | 00:00:00 | |
| DM0DOS-11 | 2026-09-02 05:23:47 | 49.67281 | 7.88892 | 109° | 84km/h | 12889m | 3.5m/s | -52.5°C | 4.5% | 176.1hPa | 2.7V | 04:23:27 | 00:52:44 | 00:00:00 | |
| BIOWL1-15 | 2026-09-02 05:23:40 | 49.67310 | 7.88769 | 111° | 84km/h | 12872m | 3.7m/s | -52.5°C | 1.4% | 176.6hPa | 2.7V | 04:24:20 | 00:52:40 | 00:00:00 | |
| BIOWL1-15 | 2026-09-02 05:23:32 | 49.67387 | 7.88451 | 110° | 91km/h | 12829m | 5.1m/s | -52.8°C | 1.4% | 177.8hPa | 2.8V | 04:24:20 | 00:52:30 | 00:00:00 | |
| BIOWL1-15 | 2026-09-02 05:23:19 | 49.67466 | 7.88078 | 110° | 93km/h | 12784m | 3.6m/s | -52.6°C | 1.3% | 179hPa | 2.7V | 04:24:20 | 00:52:19 | 00:00:00 | |
| BIOWL1-15 | 2026-09-02 05:23:08 | 49.67557 | 7.87727 | 113° | 88km/h | 12738m | 2.9m/s | -52.3°C | 1.5% | 180.3hPa | 2.7V | 04:24:20 | 00:52:08 | 00:00:00 | |
| BIOWL1-15 | 2026-09-02 05:22:59 | 49.67653 | 7.87387 | 118° | 88km/h | 12691m | 4.2m/s | -53°C | 1.7% | 181.6hPa | 2.8V | 04:24:20 | 00:51:57 | 00:00:00 | |
| DL8DAS-14 | 2026-09-02 05:22:56 | 49.67663 | 7.87357 | 117° | 84km/h | 12687m | 4.7m/s | -53.0°C | 2.3% | 181.8hPa | 2.8V | 00:00:00 | 00:00:00 | 00:00:00 | |
| DL9PN | 2026-09-02 05:22:49 | 49.67724 | 7.87151 | 112° | 78km/h | 12657m | 3.8m/s | -53.0°C | 2.3% | 182.6hPa | 2.8V | 00:00:00 | 00:00:00 | 00:00:00 | |
| DM3KS-11 | 2026-09-02 05:22:48 | 49.67732 | 7.87123 | 113° | 78km/h | 12653m | 4.9m/s | -53.0°C | 2.2% | 182.7hPa | 2.8V | 00:00:00 | 00:00:00 | 00:00:00 | |
| DM0DOS-11 | 2026-09-02 05:22:47 | 49.67757 | 7.87039 | 115° | 77km/h | 12640m | 4.9m/s | -53.1°C | 5% | 183.1hPa | 2.8V | 04:24:26 | 00:51:45 | 00:00:00 | |
| BIOWL1-15 | 2026-09-02 05:22:46 | 49.67748 | 7.87066 | 115° | 78km/h | 12644m | 4.1m/s | -53°C | 2% | 182.9hPa | 2.7V | 04:25:11 | 00:51:46 | 00:00:00 | |
| DB0ND-19 | 2026-09-02 05:22:46 | 49.67757 | 7.87039 | 115° | 75km/h | 12640m | 4.9m/s | -53.1°C | 2.3% | 183.1hPa | 2.7V | 00:00:00 | 00:00:00 | 00:00:00 | |
| HEMX73-11 | 2026-09-02 05:22:44 | 49.67756 | 7.87039 | 117° | 77km/h | 12640m | 4.9m/s | -53.1°C | 2.3% | 183.1hPa | 2.7V | 04:25:00 | 00:00:00 | 00:00:00 | |
| DM7RM-13 | 2026-09-02 05:22:42 | 49.67774 | 7.86986 | 118° | 77km/h | 12632m | 4.7m/s | -53.0°C | 2.4% | 183.3hPa | 2.7V | 04:25:00 | 00:00:00 | 00:00:00 | |
| DO3MHA-11 | 2026-09-02 05:22:41 | 49.67791 | 7.86932 | 116° | 78km/h | 12624m | 3.3m/s | -52.9°C | 5.1% | 183.5hPa | 2.7V | 00:00:00 | 00:51:41 | 00:00:00 | |
| DB0UT-7 | 2026-09-02 05:22:40 | 49.67799 | 7.86905 | 115° | 78km/h | 12620m | 4.5m/s | -52.9°C | 5.0% | 183.6hPa | 2.7V | 00:00:00 | 00:51:40 | 00:00:00 | |
| DJ2DS-15 | 2026-09-02 05:22:39 | 49.67807 | 7.86877 | 113° | 78km/h | 12615m | 3.6m/s | -53.0°C | 5.1% | 183.7hPa | 2.7V | 00:00:00 | 00:51:39 | 00:00:00 | |
| DM0DOS-11 | 2026-09-02 05:22:37 | 49.67836 | 7.86762 | 110° | 78km/h | 12599m | 4.8m/s | -53.1°C | 5.2% | 184.2hPa | 2.7V | 04:24:36 | 00:51:35 | 00:00:00 | |
| BIOWL1-15 | 2026-09-02 05:22:35 | 49.67836 | 7.86762 | 110° | 78km/h | 12599m | 4.8m/s | -53.1°C | 2.2% | 184.2hPa | 2.7V | 04:25:11 | 00:51:35 | 00:00:00 | |
| DF3TZ-5 | 2026-09-02 05:22:35 | 49.67836 | 7.86762 | 110° | 78km/h | 12599m | 4.8m/s | -53.1°C | 2.5% | 184.2hPa | 2.7V | 00:00:00 | 00:00:00 | 00:00:00 | |
| AU51GT2 | 2026-09-02 05:22:33 | 49.67850 | 7.86705 | 110° | 75km/h | 12591m | 3.6m/s | -53.1°C | 2.5% | 184.4hPa | 2.7V | 00:00:00 | 00:00:00 | 00:00:00 | |
| DK5PH-5 | 2026-09-02 05:22:32 | 49.67856 | 7.86678 | 112° | 80km/h | 12586m | 4.7m/s | -53.1°C | 5.3% | 184.5hPa | 2.7V | 04:24:00 | 00:51:32 | 00:00:00 | |
| DO3MHA-11 | 2026-09-02 05:22:31 | 49.67864 | 7.86650 | 114° | 77km/h | 12582m | 4.1m/s | -53.1°C | 5.3% | 184.6hPa | 2.8V | 00:00:00 | 00:51:31 | 00:00:00 | |
| DF7PN | 2026-09-02 05:22:29 | 49.67880 | 7.86596 | 115° | 73km/h | 12574m | 5.0m/s | -53.2°C | 2.6% | 185.0hPa | 2.8V | 00:00:00 | 00:00:00 | 00:00:00 | |
| DM0DOS-11 | 2026-09-02 05:22:27 | 49.67913 | 7.86489 | 114° | 78km/h | 12557m | 3.4m/s | -53.1°C | 5.4% | 185.4hPa | 2.8V | 04:24:46 | 00:51:25 | 00:00:00 | |
| BIOWL1-15 | 2026-09-02 05:22:25 | 49.67912 | 7.86489 | 115° | 78km/h | 12557m | 3.4m/s | -53.1°C | 2.5% | 185.4hPa | 2.8V | 04:25:11 | 00:51:25 | 00:00:00 | |
| BIOWL1-15 | 2026-09-02 05:22:18 | 49.67999 | 7.86173 | 116° | 82km/h | 12511m | 3.7m/s | -53.1°C | 3% | 186.8hPa | 2.8V | 04:25:11 | 00:51:14 | 00:00:00 | |
| DL9PN | 2026-09-02 05:22:18 | 49.67966 | 7.86287 | 112° | 78km/h | 12527m | 3.8m/s | -53.0°C | 2.8% | 186.3hPa | 2.8V | 00:00:00 | 00:00:00 | 00:00:00 | |
| DM0DOS-11 | 2026-09-02 05:22:17 | 49.67990 | 7.86202 | 115° | 82km/h | 12515m | 4.3m/s | -53.1°C | 5.7% | 186.7hPa | 2.8V | 04:24:56 | 00:51:15 | 00:00:00 | |
| DJ2KF-10 | 2026-09-02 05:22:17 | 49.67974 | 7.86258 | 113° | 86km/h | 12524m | 3.2m/s | -53.0°C | 5.6% | 186.3hPa | 2.7V | 00:00:00 | 00:51:17 | 00:00:00 | |
| DL0LBS | 2026-09-02 05:22:16 | 49.67974 | 7.86258 | 114° | 78km/h | 12524m | 3.3m/s | -53.1°C | 2.9% | 186.4hPa | 2.7V | 04:25:00 | 00:00:00 | 00:00:00 | |
| DB0ND-19 | 2026-09-02 05:22:14 | 49.67999 | 7.86173 | 115° | 82km/h | 12511m | 3.7m/s | -53.1°C | 2.9% | 186.8hPa | 2.7V | 00:00:00 | 00:00:00 | 00:00:00 | |
| CB1BUN | 2026-09-02 05:22:12 | 49.68008 | 7.86144 | 116° | 82km/h | 12507m | 4.4m/s | -53.2°C | 2.9% | 186.9hPa | 2.7V | 04:25:00 | 00:00:00 | 00:00:00 | |
| DO3MHA-11 | 2026-09-02 05:22:11 | 49.68025 | 7.86086 | 114° | 86km/h | 12498m | 3.4m/s | -53.3°C | 5.8% | 187.1hPa | 2.7V | 04:25:00 | 00:51:11 | 00:00:00 | |
| DB0UT-7 | 2026-09-02 05:22:10 | 49.68034 | 7.86058 | 115° | 88km/h | 12494m | 4.5m/s | -53.4°C | 5.9% | 187.2hPa | 2.7V | 04:25:00 | 00:00:00 | 00:00:00 | |
| DM0DOS-11 | 2026-09-02 05:22:07 | 49.68083 | 7.85913 | 120° | 86km/h | 12473m | 3.5m/s | -53.8°C | 6.1% | 187.9hPa | 2.7V | 04:25:06 | 00:51:05 | 00:00:00 | |
| BIOWL1-15 | 2026-09-02 05:22:03 | 49.68106 | 7.85853 | 121° | 89km/h | 12464m | 3.8m/s | -53.8°C | 3.4% | 188.1hPa | 2.8V | 04:25:11 | 00:51:03 | 00:00:00 | |
| AU51GT2 | 2026-09-02 05:22:02 | 49.68129 | 7.85793 | 119° | 88km/h | 12456m | 4.1m/s | -53.7°C | 3.3% | 188.4hPa | 2.8V | 00:00:00 | 00:00:00 | 00:00:00 | |
| DF7PN | 2026-09-02 05:21:58 | 49.68161 | 7.85703 | 118° | 89km/h | 12444m | 3.7m/s | -53.7°C | 3.4% | 188.7hPa | 2.8V | 00:00:00 | 00:00:00 | 00:00:00 | |
| DM0DOS-11 | 2026-09-02 05:21:57 | 49.68192 | 7.85611 | 116° | 86km/h | 12433m | 4.6m/s | -53.6°C | 6.4% | 189.1hPa | 2.8V | 04:25:16 | 00:50:55 | 00:00:00 | |
| BIOWL1-15 | 2026-09-02 05:21:53 | 49.68212 | 7.85551 | 116° | 89km/h | 12424m | 4.8m/s | -53.6°C | 3.8% | 189.3hPa | 2.7V | 04:26:02 | 00:50:53 | 00:00:00 | |
| CB1BUN | 2026-09-02 05:21:52 | 49.68212 | 7.85551 | 117° | 89km/h | 12425m | 4.8m/s | -53.6°C | 3.4% | 189.3hPa | 2.8V | 04:26:00 | 00:00:00 | 00:00:00 | |
| NBG1-10 | 2026-09-02 05:21:51 | 49.68231 | 7.85487 | 115° | 86km/h | 12416m | 3.9m/s | -53.4°C | 6.4% | 189.5hPa | 2.8V | 00:00:00 | 00:50:51 | 00:00:00 | |
| DM0DOS-11 | 2026-09-02 05:21:47 | 49.68287 | 7.85294 | 113° | 89km/h | 12392m | 5m/s | -53.4°C | 6.5% | 190.3hPa | 2.8V | 04:25:26 | 00:50:45 | 00:00:00 | |
| DO1YAY-16 | 2026-09-02 05:21:47 | 49.68278 | 7.85326 | 114° | 89km/h | 12396m | 3.2m/s | -53.4°C | 3.6% | 190.2hPa | 2.7V | 00:00:00 | 00:00:00 | 00:00:00 | |
| DM3KS-11 | 2026-09-02 05:21:46 | 49.68278 | 7.85326 | 114° | 89km/h | 12396m | 3.2m/s | -53.4°C | 3.6% | 190.2hPa | 2.7V | 00:00:00 | 00:00:00 | 00:00:00 | |
| BIOWL1-15 | 2026-09-02 05:21:42 | 49.68312 | 7.85198 | 111° | 88km/h | 12379m | 3.8m/s | -53.4°C | 4.2% | 190.7hPa | 2.7V | 04:26:02 | 00:50:42 | 00:00:00 | |
| DL4BBY-15 | 2026-09-02 05:21:42 | 49.68312 | 7.85198 | 112° | 84km/h | 12379m | 3.8m/s | 0°C | 0% | 0hPa | 2.7V | 00:00:00 | 00:00:00 | 00:00:00 | |
| DO3MHA-11 | 2026-09-02 05:21:41 | 49.68320 | 7.85166 | 113° | 88km/h | 12375m | 4.3m/s | -53.4°C | 6.6% | 190.7hPa | 2.7V | 00:00:00 | 00:50:41 | 00:00:00 | |
| DB0UT-7 | 2026-09-02 05:21:40 | 49.68329 | 7.85135 | 115° | 84km/h | 12371m | 3.9m/s | -53.4°C | 6.7% | 190.8hPa | 2.7V | 00:00:00 | 00:50:40 | 00:00:00 | |
| DJ2DS-15 | 2026-09-02 05:21:39 | 49.68338 | 7.85104 | 116° | 84km/h | 12367m | 4.1m/s | -53.4°C | 6.7% | 191.0hPa | 2.7V | 00:00:00 | 00:50:39 | 00:00:00 | |
| DM0DOS-11 | 2026-09-02 05:21:37 | 49.68372 | 7.84983 | 110° | 88km/h | 12351m | 4.6m/s | -53.5°C | 6.8% | 191.5hPa | 2.7V | 04:25:36 | 00:50:35 | 00:00:00 | |
| BIOWL1-15 | 2026-09-02 05:21:32 | 49.68396 | 7.84885 | 112° | 89km/h | 12339m | 4.1m/s | -53.6°C | 4.5% | 191.8hPa | 2.8V | 04:26:02 | 00:50:32 | 00:00:00 | |
| DK5PH-5 | 2026-09-02 05:21:32 | 49.68396 | 7.84885 | 112° | 84km/h | 12339m | 4.1m/s | -53.6°C | 6.9% | 191.8hPa | 2.8V | 00:00:00 | 00:50:32 | 00:00:00 | |
| DO3MHA-11 | 2026-09-02 05:21:31 | 49.68405 | 7.84853 | 113° | 84km/h | 12335m | 4.1m/s | -53.6°C | 7.0% | 191.9hPa | 2.8V | 00:00:00 | 00:50:31 | 00:00:00 | |
| DJ2DS-15 | 2026-09-02 05:21:28 | 49.68427 | 7.84761 | 107° | 82km/h | 12323m | 4.4m/s | -53.6°C | 3.9% | 192.3hPa | 2.8V | 00:00:00 | 00:00:00 | 00:00:00 | |
| DM0DOS-11 | 2026-09-02 05:21:27 | 49.68446 | 7.84668 | 108° | 84km/h | 12310m | 4.9m/s | -53.6°C | 6.9% | 192.7hPa | 2.8V | 04:25:46 | 00:50:25 | 00:00:00 | |
| BIOWL1-15 | 2026-09-02 05:21:24 | 49.68467 | 7.84576 | 109° | 84km/h | 12298m | 4.6m/s | -53.6°C | 4.6% | 193.1hPa | 2.7V | 04:26:02 | 00:50:22 | 00:00:00 | |
| DL8DAS-14 | 2026-09-02 05:21:23 | 49.68460 | 7.84607 | 110° | 82km/h | 12302m | 3.8m/s | -53.6°C | 3.9% | 192.9hPa | 2.7V | 00:00:00 | 00:00:00 | 00:00:00 | |
| HEMX73-11 | 2026-09-02 05:21:22 | 49.68460 | 7.84607 | 111° | 84km/h | 12302m | 3.8m/s | -53.6°C | 3.9% | 192.9hPa | 2.7V | 04:26:00 | 00:00:00 | 00:00:00 | |
| DO3MHA-11 | 2026-09-02 05:21:21 | 49.68474 | 7.84545 | 109° | 82km/h | 12294m | 3.5m/s | -53.5°C | 7.0% | 193.1hPa | 2.7V | 04:25:00 | 00:50:21 | 00:00:00 | |
| DJ2DS-15 | 2026-09-02 05:21:19 | 49.68488 | 7.84484 | 111° | 82km/h | 12286m | 4.4m/s | -53.5°C | 7.1% | 193.3hPa | 2.7V | 00:00:00 | 00:50:19 | 00:00:00 | |
| NBG1-10 | 2026-09-02 05:21:18 | 49.68495 | 7.84453 | 111° | 78km/h | 12283m | 3.2m/s | -53.5°C | 7.1% | 193.5hPa | 2.8V | 00:00:00 | 00:50:18 | 00:00:00 | |
| DM0DOS-11 | 2026-09-02 05:21:17 | 49.68515 | 7.84361 | 105° | 82km/h | 12271m | 3.4m/s | -53.6°C | 7.2% | 193.9hPa | 2.8V | 04:25:56 | 00:50:15 | 00:00:00 | |
| BIOWL1-15 | 2026-09-02 05:21:12 | 49.68532 | 7.84270 | 108° | 80km/h | 12259m | 3.4m/s | -53.7°C | 5% | 194.3hPa | 2.7V | 04:26:02 | 00:50:12 | 00:00:00 | |
| DO3MHA-11 | 2026-09-02 05:21:11 | 49.68538 | 7.84240 | 108° | 84km/h | 12255m | 3.8m/s | -53.7°C | 7.2% | 194.3hPa | 2.7V | 00:00:00 | 00:50:11 | 00:00:00 | |
| DB0UT-7 | 2026-09-02 05:21:10 | 49.68545 | 7.84209 | 108° | 78km/h | 12251m | 4.3m/s | -53.7°C | 7.2% | 194.4hPa | 2.7V | 00:00:00 | 00:00:00 | 00:00:00 | |
| DM0DOS-11 | 2026-09-02 05:21:07 | 49.68578 | 7.84054 | 108° | 82km/h | 12231m | 3.8m/s | -53.7°C | 7.1% | 195.1hPa | 2.7V | 04:26:06 | 00:50:05 | 00:00:00 | |
| BIOWL1-15 | 2026-09-02 05:21:04 | 49.68597 | 7.83960 | 107° | 84km/h | 12219m | 3.7m/s | -53.6°C | 5% | 195.4hPa | 2.8V | 04:26:53 | 00:50:02 | 00:00:00 | |
| DF3TZ-5 | 2026-09-02 05:21:02 | 49.68609 | 7.83898 | 106° | 80km/h | 12211m | 3.7m/s | -53.6°C | 4.2% | 195.7hPa | 2.8V | 00:00:00 | 00:00:00 | 00:00:00 | |
| AU51GT2 | 2026-09-02 05:21:00 | 49.68631 | 7.83779 | 105° | 78km/h | 12195m | 3.6m/s | -53.9°C | 4.4% | 196.2hPa | 2.8V | 00:00:00 | 00:00:00 | 00:00:00 | |
| DJ2DS-15 | 2026-09-02 05:20:59 | 49.68615 | 7.83868 | 106° | 75km/h | 12207m | 3.6m/s | -53.6°C | 7.3% | 195.8hPa | 2.8V | 00:00:00 | 00:49:59 | 00:00:00 | |
| DM0DOS-11 | 2026-09-02 05:20:57 | 49.68636 | 7.83750 | 105° | 77km/h | 12191m | 4.8m/s | -54°C | 7.7% | 196.3hPa | 2.8V | 04:26:16 | 00:49:55 | 00:00:00 | |
| BIOWL1-15 | 2026-09-02 05:20:51 | 49.68655 | 7.83637 | 102° | 75km/h | 12174m | 3.9m/s | -54.1°C | 5.7% | 196.8hPa | 2.8V | 04:26:53 | 00:49:51 | 00:00:00 | |
| DL9PN | 2026-09-02 05:20:45 | 49.68679 | 7.83470 | 102° | 73km/h | 12151m | 3.2m/s | -54.2°C | 5.0% | 197.6hPa | 2.7V | 00:00:00 | 00:00:00 | 00:00:00 | |
| BIOWL1-15 | 2026-09-02 05:20:41 | 49.68697 | 7.83362 | 106° | 71km/h | 12135m | 4.4m/s | -54.1°C | 6.3% | 198hPa | 2.7V | 04:26:53 | 00:49:41 | 00:00:00 | |
| DO3MHA-11 | 2026-09-02 05:20:41 | 49.68697 | 7.83362 | 106° | 73km/h | 12135m | 4.3m/s | -54.1°C | 8.5% | 198.0hPa | 2.7V | 00:00:00 | 00:49:41 | 00:00:00 | |
| DB0UT-7 | 2026-09-02 05:20:40 | 49.68702 | 7.83336 | 105° | 77km/h | 12131m | 3.7m/s | -54.1°C | 8.4% | 198.1hPa | 2.7V | 00:00:00 | 00:49:40 | 00:00:00 | |
| DJ2DS-15 | 2026-09-02 05:20:39 | 49.68706 | 7.83309 | 106° | 75km/h | 12127m | 3.4m/s | -54.0°C | 8.5% | 198.2hPa | 2.7V | 04:26:00 | 00:49:39 | 00:00:00 | |
| DM7RM-13 | 2026-09-02 05:20:38 | 49.68706 | 7.83309 | 106° | 71km/h | 12127m | 3.5m/s | -54.1°C | 5.1% | 198.2hPa | 2.7V | 04:26:00 | 00:00:00 | 00:00:00 | |
| DM0DOS-11 | 2026-09-02 05:20:37 | 49.68726 | 7.83202 | 104° | 73km/h | 12111m | 3.9m/s | -54°C | 8.7% | 198.8hPa | 2.7V | 04:26:36 | 00:49:35 | 00:00:00 | |
| BIOWL1-15 | 2026-09-02 05:20:30 | 49.68753 | 7.83062 | 108° | 77km/h | 12091m | 4.5m/s | -53.9°C | 7.2% | 199.4hPa | 2.7V | 04:26:53 | 00:49:30 | 00:00:00 | |
| CB1BUN | 2026-09-02 05:20:29 | 49.68753 | 7.83062 | 109° | 77km/h | 12091m | 4.5m/s | -53.9°C | 5.6% | 199.4hPa | 2.8V | 04:26:00 | 00:00:00 | 00:00:00 | |
| DH7VM-15 | 2026-09-02 05:20:28 | 49.68760 | 7.83033 | 109° | 77km/h | 12087m | 3.7m/s | -53.8°C | 5.6% | 199.5hPa | 2.8V | 00:00:00 | 00:00:00 | 00:00:00 | |
| DM0DOS-11 | 2026-09-02 05:20:27 | 49.68787 | 7.82921 | 113° | 78km/h | 12071m | 4.1m/s | -53.8°C | 9.4% | 199.9hPa | 2.8V | 04:26:46 | 00:49:25 | 00:00:00 | |
| BIOWL1-15 | 2026-09-02 05:20:19 | 49.68830 | 7.82752 | 108° | 77km/h | 12046m | 5.1m/s | -53.8°C | 8.5% | 200.8hPa | 2.8V | 04:26:53 | 00:49:19 | 00:00:00 | |
| DJ2DS-15 | 2026-09-02 05:20:19 | 49.68830 | 7.82752 | 109° | 78km/h | 12046m | 5.1m/s | -53.7°C | 9.9% | 200.7hPa | 2.7V | 00:00:00 | 00:49:19 | 00:00:00 | |
| DM7RM-13 | 2026-09-02 05:20:18 | 49.68830 | 7.82752 | 109° | 77km/h | 12046m | 5.1m/s | -53.8°C | 6.4% | 200.8hPa | 2.8V | 04:26:00 | 00:00:00 | 00:00:00 | |
| DM0DOS-11 | 2026-09-02 05:20:17 | 49.68855 | 7.82637 | 110° | 77km/h | 12029m | 4m/s | -53.7°C | 10.5% | 201.3hPa | 2.8V | 04:26:56 | 00:49:15 | 00:00:00 | |
| BIOWL1-15 | 2026-09-02 05:20:08 | 49.68912 | 7.82432 | 115° | 77km/h | 12001m | 3.6m/s | -53.8°C | 10.4% | 202.2hPa | 2.8V | 04:27:44 | 00:49:08 | 00:00:00 | |
| DM0DOS-11 | 2026-09-02 05:20:07 | 49.68935 | 7.82351 | 110° | 77km/h | 11990m | 3.9m/s | -53.8°C | 11.8% | 202.5hPa | 2.7V | 04:27:06 | 00:49:05 | 00:00:00 | |
| BIOWL1-15 | 2026-09-02 05:19:59 | 49.68994 | 7.82122 | 115° | 82km/h | 11960m | 4.1m/s | -54.1°C | 12.3% | 203.5hPa | 2.8V | 04:27:44 | 00:48:57 | 00:00:00 | |
| AU51GT2 | 2026-09-02 05:19:58 | 49.68985 | 7.82151 | 114° | 80km/h | 11964m | 4.5m/s | -54.0°C | -1.0% | -1.0hPa | 2.7V | 00:00:00 | 00:00:00 | 00:00:00 | |
| DM0DOS-11 | 2026-09-02 05:19:57 | 49.69012 | 7.82065 | 117° | 80km/h | 11952m | 3.8m/s | -54.2°C | 13.4% | 203.8hPa | 2.7V | 04:27:16 | 00:48:55 | 00:00:00 | |
| DF7PN | 2026-09-02 05:19:54 | 49.69031 | 7.82009 | 117° | 82km/h | 11945m | 4.4m/s | -54.2°C | 9.5% | 204.0hPa | 2.8V | 00:00:00 | 00:00:00 | 00:00:00 | |
| DL8DAS-14 | 2026-09-02 05:19:50 | 49.69060 | 7.81920 | 115° | 84km/h | 11934m | 3.8m/s | -54.2°C | 9.8% | 204.3hPa | 2.8V | 00:00:00 | 00:00:00 | 00:00:00 | |
| DM0DOS-11 | 2026-09-02 05:19:47 | 49.69100 | 7.81773 | 112° | 84km/h | 11914m | 3.7m/s | -54°C | 14.8% | 204.9hPa | 2.8V | 04:27:26 | 00:48:45 | 00:00:00 | |
| BIOWL1-15 | 2026-09-02 05:19:47 | 49.69085 | 7.81833 | 111° | 82km/h | 11922m | 3.7m/s | -54.1°C | 14.1% | 204.7hPa | 2.7V | 04:27:44 | 00:48:47 | 00:00:00 | |
| DJ2KF-10 | 2026-09-02 05:19:47 | 49.69085 | 7.81832 | 112° | 84km/h | 11923m | 3.6m/s | 0°C | 0% | 0hPa | 2.7V | 00:00:00 | 00:48:47 | 00:00:00 | |
| DL9PN | 2026-09-02 05:19:43 | 49.69126 | 7.81682 | 115° | 82km/h | 11903m | 3.3m/s | -54.1°C | 11.1% | 205.3hPa | 2.7V | 00:00:00 | 00:00:00 | 00:00:00 | |
| DM3KS-11 | 2026-09-02 05:19:42 | 49.69135 | 7.81653 | 114° | 80km/h | 11900m | 4.0m/s | -54.2°C | 11.3% | 205.4hPa | 2.7V | 00:00:00 | 00:00:00 | 00:00:00 | |
| DO3MHA-11 | 2026-09-02 05:19:41 | 49.69135 | 7.81653 | 115° | 82km/h | 11900m | 4.0m/s | -54.1°C | 15.6% | 205.3hPa | 2.7V | 04:27:00 | 00:48:41 | 00:00:00 | |
| DL1ZP-14 | 2026-09-02 05:19:40 | 49.69152 | 7.81595 | 115° | 82km/h | 11892m | 3.9m/s | -54.2°C | 11.6% | 205.6hPa | 2.8V | 00:00:00 | 00:00:00 | 00:00:00 | |
| DJ2DS-15 | 2026-09-02 05:19:39 | 49.69152 | 7.81595 | 116° | 86km/h | 11892m | 3.9m/s | -54.1°C | 16.0% | 205.6hPa | 2.7V | 00:00:00 | 00:48:39 | 00:00:00 | |
| DM0DOS-11 | 2026-09-02 05:19:37 | 49.69189 | 7.81478 | 112° | 84km/h | 11875m | 4.5m/s | -54.4°C | 16.7% | 206.2hPa | 2.7V | 04:27:36 | 00:48:35 | 00:00:00 | |
| BIOWL1-15 | 2026-09-02 05:19:37 | 49.69171 | 7.81537 | 116° | 84km/h | 11884m | 4.6m/s | -54.2°C | 17.2% | 205.9hPa | 2.7V | 04:27:44 | 00:48:37 | 00:00:00 | |
| DM7RM-13 | 2026-09-02 05:19:36 | 49.69171 | 7.81537 | 117° | 84km/h | 11884m | 4.6m/s | -54.2°C | 11.9% | 205.9hPa | 2.7V | 04:27:00 | 00:00:00 | 00:00:00 | |
| BIOWL9-15 | 2026-09-02 05:19:35 | 49.69205 | 7.81416 | 111° | 86km/h | 11867m | 4.7m/s | 0°C | -1.0% | 206.4hPa | 2.7V | 00:00:00 | 00:00:00 | 00:00:00 | |
| DK5PH-5 | 2026-09-02 05:19:32 | 49.69213 | 7.81384 | 113° | 86km/h | 11863m | 3.6m/s | -54.8°C | 18.2% | 206.5hPa | 2.7V | 00:00:00 | 00:48:32 | 00:00:00 | |
| DH7VM-15 | 2026-09-02 05:19:31 | 49.69213 | 7.81384 | 114° | 88km/h | 11863m | 3.6m/s | -54.8°C | 13.4% | 206.6hPa | 2.7V | 00:00:00 | 00:00:00 | 00:00:00 | |
| DL0LBS | 2026-09-02 05:19:30 | 49.69222 | 7.81353 | 114° | 86km/h | 11859m | 3.7m/s | -54.8°C | 13.4% | 206.7hPa | 2.7V | 04:27:00 | 00:00:00 | 00:00:00 | |
| DL8DAS-15 | 2026-09-02 05:19:28 | 49.69239 | 7.81292 | 115° | 84km/h | 11850m | 3.9m/s | -54.8°C | 13.9% | 207.0hPa | 2.7V | 04:27:00 | 00:00:00 | 00:00:00 | |
| DM0DOS-11 | 2026-09-02 05:19:27 | 49.69279 | 7.81171 | 118° | 89km/h | 11836m | 3.5m/s | -55.1°C | 20.3% | 207.4hPa | 2.7V | 04:27:46 | 00:48:25 | 00:00:00 | |
| BIOWL1-15 | 2026-09-02 05:19:27 | 49.69258 | 7.81232 | 117° | 88km/h | 11843m | 4.5m/s | -55°C | 20.9% | 207.2hPa | 2.8V | 04:27:44 | 00:48:27 | 00:00:00 | |
| CB1BUN | 2026-09-02 05:19:26 | 49.69258 | 7.81232 | 118° | 88km/h | 11843m | 4.5m/s | -55.0°C | 14.6% | 207.2hPa | 2.7V | 04:27:00 | 00:00:00 | 00:00:00 | |
| DB0UT-9 | 2026-09-02 05:19:22 | 49.69300 | 7.81111 | 119° | 86km/h | 11828m | 3.4m/s | -55.5°C | 16.5% | 207.8hPa | 2.7V | 04:28:00 | 00:00:00 | 00:00:00 | |
| HEMX73-11 | 2026-09-02 05:19:20 | 49.69319 | 7.81051 | 117° | 88km/h | 11821m | 4.4m/s | -55.7°C | 17.6% | 207.9hPa | 2.7V | 04:28:00 | 00:00:00 | 00:00:00 | |
| DJ2DS-15 | 2026-09-02 05:19:19 | 49.69338 | 7.80989 | 115° | 86km/h | 11813m | 3.4m/s | -56.1°C | 25.0% | 208.1hPa | 2.7V | 00:00:00 | 00:48:19 | 00:00:00 | |
| DL8DAS-15 | 2026-09-02 05:19:18 | 49.69338 | 7.80989 | 115° | 86km/h | 11813m | 3.5m/s | -56.1°C | 19.1% | 208.2hPa | 2.7V | 00:00:00 | 00:00:00 | 00:00:00 | |
| DM0DOS-11 | 2026-09-02 05:19:17 | 49.69372 | 7.80869 | 114° | 84km/h | 11798m | 4.3m/s | -56.5°C | 26.8% | 208.7hPa | 2.7V | 04:27:56 | 00:48:15 | 00:00:00 | |
| BIOWL1-15 | 2026-09-02 05:19:16 | 49.69363 | 7.80898 | 114° | 84km/h | 11802m | 3.7m/s | -56.4°C | 26.5% | 208.6hPa | 2.7V | 04:28:35 | 00:48:16 | 00:00:00 | |
| BIOWL1-15 | 2026-09-02 05:19:08 | 49.69454 | 7.80598 | 114° | 86km/h | 11764m | 3.8m/s | -56.7°C | 28.4% | 209.8hPa | 2.8V | 04:28:35 | 00:48:06 | 00:00:00 | |
| DJ2KF-10 | 2026-09-02 05:19:08 | 49.69436 | 7.80659 | 115° | 89km/h | 11772m | 4.4m/s | 0°C | 0% | 0hPa | 2.8V | 00:00:00 | 00:48:08 | 00:00:00 | |
| DM0DOS-11 | 2026-09-02 05:19:07 | 49.69463 | 7.80567 | 114° | 86km/h | 11760m | 4.3m/s | -56.8°C | 28.6% | 209.9hPa | 2.8V | 04:28:06 | 00:48:05 | 00:00:00 | |
| NBG1-10 | 2026-09-02 05:19:06 | 49.69453 | 7.80598 | 115° | 88km/h | 11765m | 3.8m/s | -56.6°C | 28.0% | 209.7hPa | 2.7V | 00:00:00 | 00:48:06 | 00:00:00 | |
| BIOWL9-15 | 2026-09-02 05:19:04 | 49.69480 | 7.80507 | 114° | 86km/h | 11753m | 4.8m/s | 0°C | -1.0% | -1.0hPa | 2.7V | 00:00:00 | 00:00:00 | 00:00:00 | |
| DF3TZ-5 | 2026-09-02 05:18:58 | 49.69535 | 7.80320 | 114° | 89km/h | 11727m | 3.7m/s | -56.9°C | 23.8% | 211.0hPa | 2.7V | 00:00:00 | 00:00:00 | 00:00:00 | |
| DM0DOS-11 | 2026-09-02 05:18:57 | 49.69555 | 7.80256 | 114° | 89km/h | 11720m | 4.9m/s | -56.8°C | 31.7% | 211.3hPa | 2.7V | 04:28:16 | 00:47:55 | 00:00:00 | |
| BIOWL1-15 | 2026-09-02 05:18:57 | 49.69554 | 7.80256 | 114° | 89km/h | 11720m | 4.9m/s | -56.8°C | 30.6% | 211.3hPa | 2.7V | 04:28:35 | 00:47:55 | 00:00:00 | |
| DF7PN | 2026-09-02 05:18:52 | 49.69591 | 7.80127 | 112° | 88km/h | 11704m | 3.3m/s | -56.8°C | 25.3% | 211.9hPa | 2.8V | 00:00:00 | 00:00:00 | 00:00:00 | |
| DL8DAS-14 | 2026-09-02 05:18:48 | 49.69615 | 7.80034 | 113° | 84km/h | 11692m | 4.9m/s | -56.9°C | 26.1% | 212.2hPa | 2.8V | 00:00:00 | 00:00:00 | 00:00:00 | |
| DM0DOS-11 | 2026-09-02 05:18:47 | 49.69643 | 7.79943 | 116° | 84km/h | 11680m | 5.4m/s | -57°C | 33.4% | 212.6hPa | 2.8V | 04:28:26 | 00:47:45 | 00:00:00 | |
| BIOWL1-15 | 2026-09-02 05:18:44 | 49.69652 | 7.79913 | 115° | 82km/h | 11674m | 5.3m/s | -57°C | 33.6% | 212.8hPa | 2.8V | 04:28:35 | 00:47:44 | 00:00:00 | |
| DL8DAS-15 | 2026-09-02 05:18:43 | 49.69652 | 7.79913 | 116° | 82km/h | 11674m | 5.3m/s | -57.0°C | 26.4% | 212.8hPa | 2.8V | 00:00:00 | 00:00:00 | 00:00:00 | |
| DM3KS-11 | 2026-09-02 05:18:40 | 49.69696 | 7.79755 | 113° | 93km/h | 11652m | 4.3m/s | -57.0°C | 27.8% | 213.6hPa | 2.8V | 00:00:00 | 00:00:00 | 00:00:00 | |
| DM0DOS-11 | 2026-09-02 05:18:39 | 49.69732 | 7.79619 | 110° | 93km/h | 11635m | 3.6m/s | -57.1°C | 36.2% | 214.1hPa | 2.8V | 04:28:36 | 00:47:35 | 00:00:00 | |
| BIOWL1-15 | 2026-09-02 05:18:36 | 49.69740 | 7.79585 | 111° | 95km/h | 11631m | 4.6m/s | -57.1°C | 35.8% | 214.3hPa | 2.7V | 04:29:26 | 00:47:34 | 00:00:00 | |
| DF1GD-15 | 2026-09-02 05:18:35 | 49.69732 | 7.79619 | 112° | 93km/h | 11635m | 3.6m/s | -57.1°C | 28.6% | 214.1hPa | 2.8V | 00:00:00 | 00:00:00 | 00:00:00 | |
| DO3MHA-11 | 2026-09-02 05:18:34 | 49.69749 | 7.79550 | 112° | 93km/h | 11627m | 3.9m/s | -57.0°C | 37.0% | 214.4hPa | 2.8V | 00:00:00 | 00:47:33 | 00:00:00 | |
| DK5PH-5 | 2026-09-02 05:18:32 | 49.69758 | 7.79515 | 112° | 95km/h | 11624m | 3.3m/s | -57.0°C | 37.2% | 214.5hPa | 2.8V | 00:00:00 | 00:47:32 | 00:00:00 | |
| DL0LBS | 2026-09-02 05:18:28 | 49.69784 | 7.79413 | 115° | 93km/h | 11612m | 4.0m/s | -57.1°C | 29.8% | 215.0hPa | 2.8V | 04:29:00 | 00:00:00 | 00:00:00 | |
| DM0DOS-11 | 2026-09-02 05:18:27 | 49.69823 | 7.79284 | 114° | 89km/h | 11596m | 3.8m/s | -57.2°C | 38.5% | 215.5hPa | 2.8V | 04:28:46 | 00:47:25 | 00:00:00 | |
| BIOWL1-15 | 2026-09-02 05:18:25 | 49.69842 | 7.79220 | 112° | 91km/h | 11589m | 4.6m/s | -57.3°C | 37.8% | 215.8hPa | 2.7V | 04:29:26 | 00:47:23 | 00:00:00 | |
| DB0UT-9 | 2026-09-02 05:18:20 | 49.69859 | 7.79151 | 112° | 97km/h | 11582m | 3.4m/s | -57.3°C | 31.7% | 216.0hPa | 2.7V | 04:29:00 | 00:00:00 | 00:00:00 | |
| DJ2DS-15 | 2026-09-02 05:18:19 | 49.69876 | 7.79080 | 111° | 99km/h | 11574m | 3.5m/s | -57.2°C | 40.2% | 216.2hPa | 2.7V | 00:00:00 | 00:47:19 | 00:00:00 | |
| HEMX73-11 | 2026-09-02 05:18:18 | 49.69876 | 7.79080 | 112° | 97km/h | 11574m | 3.6m/s | -57.2°C | 32.0% | 216.3hPa | 2.8V | 04:29:00 | 00:00:00 | 00:00:00 | |
| DM0DOS-11 | 2026-09-02 05:18:17 | 49.69915 | 7.78941 | 116° | 99km/h | 11561m | 3.2m/s | -57.1°C | 40% | 216.8hPa | 2.8V | 04:28:56 | 00:47:15 | 00:00:00 | |
| BIOWL1-15 | 2026-09-02 05:18:14 | 49.69947 | 7.78842 | 116° | 93km/h | 11550m | 3.4m/s | -57.1°C | 39.4% | 217.2hPa | 2.7V | 04:29:26 | 00:47:12 | 00:00:00 | |
| DB0UT-7 | 2026-09-02 05:18:10 | 49.69967 | 7.78775 | 113° | 99km/h | 11543m | 4.5m/s | -57.0°C | 41.5% | 217.4hPa | 2.8V | 00:00:00 | 00:00:00 | 00:00:00 | |
| DO1YAY-16 | 2026-09-02 05:18:09 | 49.69975 | 7.78741 | 110° | 97km/h | 11539m | 3.3m/s | -57.0°C | 33.3% | 217.6hPa | 2.8V | 00:00:00 | 00:00:00 | 00:00:00 | |
| DL0LBS | 2026-09-02 05:18:08 | 49.69975 | 7.78741 | 112° | 97km/h | 11539m | 3.3m/s | -57.0°C | 33.4% | 217.6hPa | 2.8V | 04:29:00 | 00:00:00 | 00:00:00 | |
| DM0DOS-11 | 2026-09-02 05:18:07 | 49.70008 | 7.78598 | 111° | 100km/h | 11524m | 3.9m/s | -56.9°C | 43.1% | 218.1hPa | 2.8V | 04:29:06 | 00:47:05 | 00:00:00 | |
| BIOWL1-15 | 2026-09-02 05:18:01 | 49.70053 | 7.78451 | 118° | 104km/h | 11508m | 4.4m/s | -56.8°C | 42.6% | 218.6hPa | 2.7V | 04:29:26 | 00:47:01 | 00:00:00 | |
| BIOWL1-15 | 2026-09-02 05:17:51 | 49.70140 | 7.78103 | 103° | 113km/h | 11455m | 6.4m/s | -56.8°C | 47.1% | 220.3hPa | 2.7V | 04:29:26 | 00:46:51 | 00:00:00 | |
| DF7PN | 2026-09-02 05:17:49 | 49.70155 | 7.78015 | 103° | 115km/h | 11444m | 5.1m/s | -56.8°C | 39.3% | 220.6hPa | 2.7V | 00:00:00 | 00:00:00 | 00:00:00 | |
| BIOWL1-15 | 2026-09-02 05:17:40 | 49.70214 | 7.77688 | 106° | 99km/h | 11381m | 5m/s | -57.3°C | 53.1% | 222.8hPa | 2.7V | 04:30:17 | 00:46:40 | 00:00:00 | |
| DJ2DS-15 | 2026-09-02 05:17:39 | 49.70221 | 7.77651 | 107° | 93km/h | 11376m | 6.0m/s | 0°C | 0% | 0hPa | 2.7V | 00:00:00 | 00:46:39 | 00:00:00 | |
| DO1YAY-16 | 2026-09-02 05:17:38 | 49.70228 | 7.77614 | 106° | 97km/h | 11370m | 5.5m/s | -57.4°C | 46.0% | 223.3hPa | 2.7V | 00:00:00 | 00:00:00 | 00:00:00 | |
| DM0DOS-11 | 2026-09-02 05:17:37 | 49.70248 | 7.77505 | 105° | 97km/h | 11356m | 5.3m/s | -57.5°C | 57.5% | 223.7hPa | 2.7V | 04:29:36 | 00:46:35 | 00:00:00 | |
| BIOWL1-15 | 2026-09-02 05:17:30 | 49.70283 | 7.77327 | 104° | 91km/h | 11336m | 4m/s | -57.8°C | 56.7% | 224.5hPa | 2.8V | 04:30:17 | 00:46:30 | 00:00:00 | |
| DM0DOS-11 | 2026-09-02 05:17:27 | 49.70306 | 7.77152 | 100° | 89km/h | 11314m | 4.1m/s | -57.9°C | 62.8% | 225.2hPa | 2.8V | 04:29:46 | 00:46:25 | 00:00:00 | |
| BIOWL1-15 | 2026-09-02 05:17:21 | 49.70332 | 7.76947 | 102° | 84km/h | 11289m | 4.2m/s | -57.8°C | 58.6% | 226.2hPa | 2.8V | 04:30:17 | 00:46:19 | 00:00:00 | |
| DJ2DS-15 | 2026-09-02 05:17:19 | 49.70332 | 7.76947 | 102° | 88km/h | 11289m | 4.2m/s | 0°C | 0% | 0hPa | 2.7V | 00:00:00 | 00:46:19 | 00:00:00 | |
| DF7PN | 2026-09-02 05:17:18 | 49.70336 | 7.76915 | 100° | 84km/h | 11284m | 5.2m/s | -57.8°C | 51.7% | 226.4hPa | 2.7V | 00:00:00 | 00:00:00 | 00:00:00 | |
| DM0DOS-11 | 2026-09-02 05:17:17 | 49.70348 | 7.76815 | 102° | 86km/h | 11271m | 5m/s | -57.8°C | 62.5% | 226.8hPa | 2.7V | 04:29:56 | 00:46:15 | 00:00:00 | |
| BIOWL1-15 | 2026-09-02 05:17:13 | 49.70371 | 7.76620 | 98° | 82km/h | 11248m | 4.6m/s | -57.6°C | 59.7% | 227.7hPa | 2.7V | 04:30:17 | 00:46:09 | 00:00:00 | |
| DO3MHA-11 | 2026-09-02 05:17:12 | 49.70361 | 7.76717 | 100° | 84km/h | 11259m | 4.0m/s | -57.6°C | 63.8% | 227.2hPa | 2.7V | 00:00:00 | 00:46:12 | 00:00:00 | |
| DB0UT-7 | 2026-09-02 05:17:10 | 49.70368 | 7.76652 | 98° | 84km/h | 11252m | 4.0m/s | -57.6°C | 63.4% | 227.5hPa | 2.7V | 04:30:00 | 00:00:00 | 00:00:00 | |
| DM0DOS-11 | 2026-09-02 05:17:07 | 49.70382 | 7.76494 | 96° | 84km/h | 11230m | 4.2m/s | -57.5°C | 65.9% | 228.3hPa | 2.8V | 04:30:06 | 00:46:05 | 00:00:00 | |
| BIOWL1-15 | 2026-09-02 05:16:58 | 49.70404 | 7.76268 | 97° | 75km/h | 11201m | 2.8m/s | -57.5°C | 63.7% | 229.3hPa | 2.7V | 04:30:17 | 00:45:58 | 00:00:00 | |
| DM0DOS-11 | 2026-09-02 05:16:57 | 49.70411 | 7.76182 | 98° | 78km/h | 11189m | 5m/s | -57.7°C | 71% | 229.8hPa | 2.8V | 04:30:16 | 00:45:55 | 00:00:00 | |
| DF3TZ-5 | 2026-09-02 05:16:54 | 49.70418 | 7.76118 | 100° | 84km/h | 11181m | 3.8m/s | -57.7°C | 58.3% | 230.2hPa | 2.7V | 00:00:00 | 00:00:00 | 00:00:00 | |
| DO3MHA-11 | 2026-09-02 05:16:52 | 49.70422 | 7.76085 | 102° | 88km/h | 11177m | 5.9m/s | -57.6°C | 68.7% | 230.3hPa | 2.7V | 00:00:00 | 00:45:52 | 00:00:00 | |
| DL8DAS-15 | 2026-09-02 05:16:50 | 49.70427 | 7.76052 | 102° | 86km/h | 11171m | 4.9m/s | -57.7°C | 57.8% | 230.5hPa | 2.7V | 00:00:00 | 00:00:00 | 00:00:00 | |
| DM0DOS-11 | 2026-09-02 05:16:47 | 49.70440 | 7.75850 | 94° | 91km/h | 11140m | 6.5m/s | -57.5°C | 70.5% | 231.7hPa | 2.7V | 04:30:26 | 00:45:45 | 00:00:00 | |
| BIOWL1-15 | 2026-09-02 05:16:47 | 49.70437 | 7.75920 | 94° | 89km/h | 11150m | 6.4m/s | -57.5°C | 64.7% | 231.3hPa | 2.8V | 04:31:08 | 00:45:47 | 00:00:00 | |
| BIOWL1-15 | 2026-09-02 05:16:39 | 49.70459 | 7.75573 | 98° | 82km/h | 11102m | 4.8m/s | -57.3°C | 67.2% | 233.1hPa | 2.7V | 04:31:08 | 00:45:37 | 00:00:00 | |
| DM0DOS-11 | 2026-09-02 05:16:37 | 49.70464 | 7.75513 | 97° | 75km/h | 11093m | 4.2m/s | -57.2°C | 75.3% | 233.4hPa | 2.8V | 04:30:36 | 00:45:35 | 00:00:00 | |
| DO1YAY-16 | 2026-09-02 05:16:36 | 49.70462 | 7.75542 | 96° | 77km/h | 11097m | 4.4m/s | -57.3°C | 63.7% | 233.2hPa | 2.7V | 00:00:00 | 00:00:00 | 00:00:00 | |
| DM3KS-11 | 2026-09-02 05:16:35 | 49.70464 | 7.75513 | 97° | 75km/h | 11093m | 4.2m/s | -57.2°C | 63.3% | 233.4hPa | 2.7V | 00:00:00 | 00:00:00 | 00:00:00 | |
| DB0ND-19 | 2026-09-02 05:16:33 | 49.70470 | 7.75455 | 100° | 75km/h | 11086m | 4.8m/s | -57.2°C | 62.4% | 233.6hPa | 2.7V | 00:00:00 | 00:00:00 | 00:00:00 | |
| DK5PH-5 | 2026-09-02 05:16:32 | 49.70473 | 7.75425 | 102° | 93km/h | 11080m | 5.8m/s | -57.2°C | 73.8% | 233.7hPa | 2.7V | 00:00:00 | 00:45:32 | 00:00:00 | |
| DM7RM-13 | 2026-09-02 05:16:31 | 49.70473 | 7.75425 | 103° | 80km/h | 11080m | 5.9m/s | -57.2°C | 62.1% | 233.8hPa | 2.8V | 04:31:00 | 00:00:00 | 00:00:00 | |
| BIOWL9-15 | 2026-09-02 05:16:28 | 49.70486 | 7.75283 | 93° | 97km/h | 11054m | 7.9m/s | -57.2°C | 60.6% | 234.8hPa | 2.8V | 00:00:00 | 00:00:00 | 00:00:00 | |
| DM0DOS-11 | 2026-09-02 05:16:27 | 49.70490 | 7.75173 | 92° | 91km/h | 11032m | 5.7m/s | -57.1°C | 73.5% | 235.6hPa | 2.8V | 04:30:46 | 00:45:25 | 00:00:00 | |
| BIOWL1-15 | 2026-09-02 05:16:26 | 49.70489 | 7.75209 | 92° | 93km/h | 11038m | 7.4m/s | -57.1°C | 67.5% | 235.4hPa | 2.7V | 04:31:08 | 00:45:26 | 00:00:00 | |
| DL0LBS | 2026-09-02 05:16:25 | 49.70489 | 7.75209 | 93° | 93km/h | 11038m | 7.4m/s | -57.1°C | 61.3% | 235.4hPa | 2.8V | 04:31:00 | 00:00:00 | 00:00:00 | |
| DF3TZ-5 | 2026-09-02 05:16:23 | 49.70494 | 7.75064 | 94° | 95km/h | 11017m | 3.5m/s | -56.9°C | 62.1% | 236.2hPa | 2.8V | 00:00:00 | 00:00:00 | 00:00:00 | |
| DO3MHA-11 | 2026-09-02 05:16:22 | 49.70494 | 7.75064 | 95° | 91km/h | 11017m | 3.4m/s | -56.9°C | 73.8% | 236.1hPa | 2.8V | 00:00:00 | 00:45:22 | 00:00:00 | |
| NBG1-10 | 2026-09-02 05:16:21 | 49.70496 | 7.75026 | 96° | 93km/h | 11013m | 3.7m/s | -56.9°C | 73.2% | 236.3hPa | 2.8V | 00:00:00 | 00:45:21 | 00:00:00 | |
| DH7VM-15 | 2026-09-02 05:16:18 | 49.70501 | 7.74954 | 96° | 89km/h | 11004m | 4.1m/s | -56.8°C | 61.6% | 236.7hPa | 2.8V | 00:00:00 | 00:00:00 | 00:00:00 | |
| DM0DOS-11 | 2026-09-02 05:16:17 | 49.70503 | 7.74816 | 87° | 91km/h | 10988m | 3.5m/s | -56.7°C | 74.1% | 237.3hPa | 2.8V | 04:30:56 | 00:45:15 | 00:00:00 | |
| BIOWL1-15 | 2026-09-02 05:16:16 | 49.70504 | 7.74851 | 89° | 89km/h | 10992m | 4.9m/s | -56.7°C | 65.7% | 237.1hPa | 2.8V | 04:31:08 | 00:45:16 | 00:00:00 | |
| DB0UT-9 | 2026-09-02 05:16:15 | 49.70504 | 7.74851 | 90° | 89km/h | 10992m | 4.9m/s | -56.7°C | 62.2% | 237.1hPa | 2.7V | 04:31:00 | 00:00:00 | 00:00:00 | |
| HEMX73-11 | 2026-09-02 05:16:14 | 49.70503 | 7.74816 | 88° | 91km/h | 10988m | 3.5m/s | -56.7°C | 62.4% | 237.3hPa | 2.7V | 04:31:00 | 00:00:00 | 00:00:00 | |
| DL8DAS-14 | 2026-09-02 05:16:13 | 49.70501 | 7.74744 | 88° | 93km/h | 10979m | 5.0m/s | -56.6°C | 62.5% | 237.7hPa | 2.7V | 00:00:00 | 00:00:00 | 00:00:00 | |
| DO3MHA-11 | 2026-09-02 05:16:12 | 49.70501 | 7.74706 | 90° | 95km/h | 10975m | 3.8m/s | -56.5°C | 74.0% | 237.7hPa | 2.7V | 04:30:00 | 00:45:12 | 00:00:00 | |
| DB0UT-7 | 2026-09-02 05:16:10 | 49.70501 | 7.74629 | 91° | 93km/h | 10965m | 6.1m/s | -56.4°C | 73.6% | 238.1hPa | 2.8V | 00:00:00 | 00:00:00 | 00:00:00 | |
| DF1GD-15 | 2026-09-02 05:16:08 | 49.70501 | 7.74590 | 93° | 102km/h | 10961m | 4.1m/s | -56.4°C | 62.6% | 238.4hPa | 2.8V | 00:00:00 | 00:00:00 | 00:00:00 | |
| DM0DOS-11 | 2026-09-02 05:16:07 | 49.70512 | 7.74376 | 92° | 86km/h | 10931m | 5.6m/s | -56.2°C | 69.8% | 239.4hPa | 2.8V | 04:31:08 | 00:45:03 | 00:00:00 | |
| BIOWL1-15 | 2026-09-02 05:16:06 | 49.70511 | 7.74409 | 95° | 84km/h | 10937m | 7.4m/s | -56.3°C | 64.3% | 239.1hPa | 2.9V | 04:31:08 | 00:45:04 | 00:00:00 | |
| DO1YAY-16 | 2026-09-02 05:16:05 | 49.70509 | 7.74443 | 95° | 86km/h | 10943m | 3.4m/s | -56.3°C | 59.8% | 239.0hPa | 2.8V | 00:00:00 | 00:00:00 | 00:00:00 | |
| DM3KS-11 | 2026-09-02 05:16:04 | 49.70511 | 7.74409 | 95° | 84km/h | 10937m | 7.4m/s | -56.3°C | 58.7% | 239.1hPa | 2.8V | 00:00:00 | 00:00:00 | 00:00:00 | |
| DB0ND-19 | 2026-09-02 05:16:02 | 49.70513 | 7.74342 | 92° | 88km/h | 10925m | 5.8m/s | -56.2°C | 58.6% | 239.6hPa | 2.8V | 00:00:00 | 00:00:00 | 00:00:00 | |
| BIOWL9-15 | 2026-09-02 05:15:57 | 49.70515 | 7.74163 | 89° | 93km/h | 10896m | 4.5m/s | -56.0°C | 57.3% | 240.7hPa | 2.8V | 00:00:00 | 00:00:00 | 00:00:00 | |
| DM0DOS-11 | 2026-09-02 05:15:56 | 49.70514 | 7.73943 | 90° | 89km/h | 10864m | 4.8m/s | -55.7°C | 66.4% | 241.9hPa | 2.8V | 04:31:20 | 00:44:51 | 00:00:00 | |
| BIOWL1-15 | 2026-09-02 05:15:56 | 49.70514 | 7.74126 | 90° | 95km/h | 10891m | 5.9m/s | -55.9°C | 62.1% | 240.9hPa | 2.8V | 04:31:59 | 00:44:56 | 00:00:00 | |
| BIOWL1-15 | 2026-09-02 05:15:47 | 49.70505 | 7.73725 | 85° | 89km/h | 10836m | 5.3m/s | -55.4°C | 59.8% | 243hPa | 2.8V | 04:31:59 | 00:44:45 | 00:00:00 | |
| DF7PN | 2026-09-02 05:15:45 | 49.70505 | 7.73725 | 84° | 89km/h | 10836m | 5.3m/s | -55.4°C | 54.8% | 243.0hPa | 2.8V | 00:00:00 | 00:00:00 | 00:00:00 | |
| BIOWL1-15 | 2026-09-02 05:15:35 | 49.70499 | 7.73368 | 92° | 89km/h | 10788m | 4m/s | -55°C | 59.5% | 244.8hPa | 2.8V | 04:31:59 | 00:44:35 | 00:00:00 | |
| DO1YAY-16 | 2026-09-02 05:15:34 | 49.70500 | 7.73299 | 88° | 86km/h | 10778m | 4.0m/s | -54.9°C | 54.6% | 245.2hPa | 2.8V | 00:00:00 | 00:00:00 | 00:00:00 | |
| DM3KS-11 | 2026-09-02 05:15:33 | 49.70500 | 7.73299 | 88° | 86km/h | 10778m | 4.0m/s | -54.9°C | 54.6% | 245.2hPa | 2.8V | 00:00:00 | 00:00:00 | 00:00:00 | |
| DO3MHA-11 | 2026-09-02 05:15:32 | 49.70499 | 7.73265 | 87° | 91km/h | 10774m | 4.4m/s | -54.8°C | 64.7% | 245.3hPa | 2.8V | 00:00:00 | 00:44:32 | 00:00:00 | |
| Es werden nur die letzten 3500 von 4126 Frames angezeigt. GPX/KML und Diagramme bleiben verfügbar. | |||||||||||||||